<?xml version='1.0' encoding='UTF-8'?><gpx version="1.1" creator="JPX - https://github.com/jenetics/jpx" xmlns="http://www.topografix.com/GPX/1/1"><trk><trkseg><trkpt lat="41.933282744009034" lon="12.51202252056565"><ele>55.0</ele><time>2026-03-29T08:01:10Z</time></trkpt><trkpt lat="41.93320113614705" lon="12.511939233042542"><ele>55.0</ele><time>2026-03-29T08:02:08.999Z</time></trkpt><trkpt lat="41.933126536086334" lon="12.511930314193979"><ele>55.0</ele><time>2026-03-29T08:02:10.999Z</time></trkpt><trkpt lat="41.93307332521641" lon="12.512004145046996"><ele>55.0</ele><time>2026-03-29T08:02:12.999Z</time></trkpt><trkpt lat="41.93305161296547" lon="12.512146492607998"><ele>55.0</ele><time>2026-03-29T08:02:14.999Z</time></trkpt><trkpt lat="41.93304612702187" lon="12.512306007498497"><ele>55.0</ele><time>2026-03-29T08:02:16.999Z</time></trkpt><trkpt lat="41.93305598859541" lon="12.512427773578667"><ele>55.0</ele><time>2026-03-29T08:02:18.999Z</time></trkpt><trkpt lat="41.933071532796816" lon="12.512564222371395"><ele>55.0</ele><time>2026-03-29T08:02:20.999Z</time></trkpt><trkpt lat="41.93320832346858" lon="12.51266095705893"><ele>55.0</ele><time>2026-03-29T08:02:22.999Z</time></trkpt><trkpt lat="41.933273724293" lon="12.512691755165745"><ele>55.0</ele><time>2026-03-29T08:02:23.998Z</time></trkpt><trkpt lat="41.93337164050018" lon="12.512731409389618"><ele>55.33333333333333</ele><time>2026-03-29T08:02:25.998Z</time></trkpt><trkpt lat="41.93343232361331" lon="12.512766134761588"><ele>55.666666666666664</ele><time>2026-03-29T08:02:27.998Z</time></trkpt><trkpt lat="41.93353352369753" lon="12.512839738151884"><ele>56.0</ele><time>2026-03-29T08:02:29.998Z</time></trkpt><trkpt lat="41.933594823602974" lon="12.512879586802578"><ele>56.33333333333333</ele><time>2026-03-29T08:02:31Z</time></trkpt><trkpt lat="41.93365839159241" lon="12.512912165802318"><ele>56.666666666666664</ele><time>2026-03-29T08:02:32Z</time></trkpt><trkpt lat="41.93372223632969" lon="12.512947513840475"><ele>57.0</ele><time>2026-03-29T08:02:33Z</time></trkpt><trkpt lat="41.93379170058766" lon="12.512973425209278"><ele>57.0</ele><time>2026-03-29T08:02:34Z</time></trkpt><trkpt lat="41.93387149250981" lon="12.513004656228073"><ele>57.0</ele><time>2026-03-29T08:02:35Z</time></trkpt><trkpt lat="41.93395607034213" lon="12.513057018699472"><ele>57.0</ele><time>2026-03-29T08:02:36Z</time></trkpt><trkpt lat="41.934045389261364" lon="12.513099751804061"><ele>57.0</ele><time>2026-03-29T08:02:37Z</time></trkpt><trkpt lat="41.93413829231896" lon="12.51312453315998"><ele>57.0</ele><time>2026-03-29T08:02:38Z</time></trkpt><trkpt lat="41.93422770181229" lon="12.513134095079003"><ele>57.166666666666664</ele><time>2026-03-29T08:02:39Z</time></trkpt><trkpt lat="41.9343058943003" lon="12.513139665914016"><ele>57.33333333333333</ele><time>2026-03-29T08:02:40Z</time></trkpt><trkpt lat="41.934378719912985" lon="12.513151953580936"><ele>57.5</ele><time>2026-03-29T08:02:41Z</time></trkpt><trkpt lat="41.93444128057491" lon="12.51316323666752"><ele>57.666666666666664</ele><time>2026-03-29T08:02:42Z</time></trkpt><trkpt lat="41.93450587066143" lon="12.51316867886538"><ele>57.83333333333333</ele><time>2026-03-29T08:02:43Z</time></trkpt><trkpt lat="41.93462279283234" lon="12.513182436562923"><ele>58.0</ele><time>2026-03-29T08:02:45Z</time></trkpt><trkpt lat="41.934744850666526" lon="12.513189460533534"><ele>58.0</ele><time>2026-03-29T08:02:47Z</time></trkpt><trkpt lat="41.93481914982442" lon="12.51318851728314"><ele>58.0</ele><time>2026-03-29T08:02:48Z</time></trkpt><trkpt lat="41.934908171388834" lon="12.513181749103698"><ele>58.0</ele><time>2026-03-29T08:02:49Z</time></trkpt><trkpt lat="41.935011703618535" lon="12.513180320221494"><ele>58.0</ele><time>2026-03-29T08:02:50Z</time></trkpt><trkpt lat="41.935107121678094" lon="12.513174972500115"><ele>58.0</ele><time>2026-03-29T08:02:51Z</time></trkpt><trkpt lat="41.935201603526245" lon="12.51317940222207"><ele>57.83333333333333</ele><time>2026-03-29T08:02:52Z</time></trkpt><trkpt lat="41.93529919416917" lon="12.513175749773813"><ele>57.666666666666664</ele><time>2026-03-29T08:02:53Z</time></trkpt><trkpt lat="41.93539402689401" lon="12.513173677800266"><ele>57.5</ele><time>2026-03-29T08:02:54Z</time></trkpt><trkpt lat="41.93547185165797" lon="12.513171691180814"><ele>57.33333333333333</ele><time>2026-03-29T08:02:55Z</time></trkpt><trkpt lat="41.93557508957171" lon="12.513171710401211"><ele>57.166666666666664</ele><time>2026-03-29T08:02:57Z</time></trkpt><trkpt lat="41.935646675396114" lon="12.513163896815053"><ele>57.0</ele><time>2026-03-29T08:03:00Z</time></trkpt><trkpt lat="41.93571721068207" lon="12.513156874352527"><ele>57.0</ele><time>2026-03-29T08:03:04Z</time></trkpt><trkpt lat="41.935741559287735" lon="12.513031335366414"><ele>57.0</ele><time>2026-03-29T08:03:07Z</time></trkpt><trkpt lat="41.93569329768701" lon="12.512865156997952"><ele>57.0</ele><time>2026-03-29T08:03:09Z</time></trkpt><trkpt lat="41.93565902888978" lon="12.512769791636602"><ele>57.0</ele><time>2026-03-29T08:03:10Z</time></trkpt><trkpt lat="41.935623685705714" lon="12.512651513325908"><ele>57.0</ele><time>2026-03-29T08:03:11Z</time></trkpt><trkpt lat="41.93557693342259" lon="12.512524465814844"><ele>56.75</ele><time>2026-03-29T08:03:12Z</time></trkpt><trkpt lat="41.93553516336003" lon="12.512387804696534"><ele>56.5</ele><time>2026-03-29T08:03:13Z</time></trkpt><trkpt lat="41.9354931254313" lon="12.512229385156177"><ele>56.25</ele><time>2026-03-29T08:03:14Z</time></trkpt><trkpt lat="41.93544558770843" lon="12.512088108589243"><ele>56.0</ele><time>2026-03-29T08:03:15Z</time></trkpt><trkpt lat="41.935401456528744" lon="12.511949841398275"><ele>56.0</ele><time>2026-03-29T08:03:16Z</time></trkpt><trkpt lat="41.93535835362048" lon="12.511807056947962"><ele>55.99999999999999</ele><time>2026-03-29T08:03:17Z</time></trkpt><trkpt lat="41.93532231271674" lon="12.511674457357849"><ele>55.99999999999999</ele><time>2026-03-29T08:03:18Z</time></trkpt><trkpt lat="41.93529380863518" lon="12.511539470404143"><ele>56.0</ele><time>2026-03-29T08:03:19Z</time></trkpt><trkpt lat="41.93527887528731" lon="12.511415026721558"><ele>56.0</ele><time>2026-03-29T08:03:20Z</time></trkpt><trkpt lat="41.93527923810516" lon="12.511288471341599"><ele>53.8</ele><time>2026-03-29T08:03:20.999Z</time></trkpt><trkpt lat="41.93528809295534" lon="12.511169267165835"><ele>51.599999999999994</ele><time>2026-03-29T08:03:21.999Z</time></trkpt><trkpt lat="41.93530740893836" lon="12.511054478546457"><ele>49.4</ele><time>2026-03-29T08:03:22.999Z</time></trkpt><trkpt lat="41.935330864661445" lon="12.510943924804739"><ele>47.2</ele><time>2026-03-29T08:03:23.999Z</time></trkpt><trkpt lat="41.935352966221515" lon="12.510851453255349"><ele>45.0</ele><time>2026-03-29T08:03:24.999Z</time></trkpt><trkpt lat="41.93539615943728" lon="12.510692046183799"><ele>45.0</ele><time>2026-03-29T08:03:26.999Z</time></trkpt><trkpt lat="41.93542195256527" lon="12.51060767603327"><ele>45.0</ele><time>2026-03-29T08:03:27.999Z</time></trkpt><trkpt lat="41.93546493856882" lon="12.510446222938548"><ele>45.0</ele><time>2026-03-29T08:03:29.999Z</time></trkpt><trkpt lat="41.93550440165814" lon="12.510361329438561"><ele>45.0</ele><time>2026-03-29T08:03:30.999Z</time></trkpt><trkpt lat="41.93553437844687" lon="12.510266126553324"><ele>45.0</ele><time>2026-03-29T08:03:31.999Z</time></trkpt><trkpt lat="41.93556490804439" lon="12.510170841131945"><ele>45.0</ele><time>2026-03-29T08:03:32.999Z</time></trkpt><trkpt lat="41.93559668266883" lon="12.510065507311541"><ele>43.833333333333336</ele><time>2026-03-29T08:03:33.999Z</time></trkpt><trkpt lat="41.93563008320685" lon="12.509961925363418"><ele>42.666666666666664</ele><time>2026-03-29T08:03:34.999Z</time></trkpt><trkpt lat="41.935659807167" lon="12.509859240382518"><ele>41.5</ele><time>2026-03-29T08:03:35.999Z</time></trkpt><trkpt lat="41.935691622190035" lon="12.509765133080977"><ele>40.33333333333333</ele><time>2026-03-29T08:03:36.999Z</time></trkpt><trkpt lat="41.935722765383844" lon="12.509666856881164"><ele>39.166666666666664</ele><time>2026-03-29T08:03:37.999Z</time></trkpt><trkpt lat="41.93575157230846" lon="12.509573444162493"><ele>38.0</ele><time>2026-03-29T08:03:38.999Z</time></trkpt><trkpt lat="41.93577680854852" lon="12.509476839111993"><ele>36.666666666666664</ele><time>2026-03-29T08:03:39.999Z</time></trkpt><trkpt lat="41.935807909937246" lon="12.509391316827243"><ele>35.33333333333333</ele><time>2026-03-29T08:03:40.999Z</time></trkpt><trkpt lat="41.93583331461121" lon="12.509311462033066"><ele>34.0</ele><time>2026-03-29T08:03:41.999Z</time></trkpt><trkpt lat="41.93586039165117" lon="12.509230464124162"><ele>32.666666666666664</ele><time>2026-03-29T08:03:42.999Z</time></trkpt><trkpt lat="41.93592797028384" lon="12.509078623214915"><ele>31.333333333333332</ele><time>2026-03-29T08:03:44.999Z</time></trkpt><trkpt lat="41.935964828744126" lon="12.508985590594804"><ele>30.0</ele><time>2026-03-29T08:03:45.999Z</time></trkpt><trkpt lat="41.9360134089289" lon="12.508897099739432"><ele>28.75</ele><time>2026-03-29T08:03:46.999Z</time></trkpt><trkpt lat="41.93621000272269" lon="12.50897480242771"><ele>27.5</ele><time>2026-03-29T08:03:47.999Z</time></trkpt><trkpt lat="41.936329764883986" lon="12.508989745392622"><ele>26.25</ele><time>2026-03-29T08:03:48.999Z</time></trkpt><trkpt lat="41.9364480737665" lon="12.509026422080224"><ele>25.0</ele><time>2026-03-29T08:03:49.999Z</time></trkpt><trkpt lat="41.93655920151466" lon="12.509053933714714"><ele>25.0</ele><time>2026-03-29T08:03:50.999Z</time></trkpt><trkpt lat="41.936659478575436" lon="12.508943405610358"><ele>25.0</ele><time>2026-03-29T08:03:51.999Z</time></trkpt><trkpt lat="41.93674348955353" lon="12.508943407296446"><ele>25.0</ele><time>2026-03-29T08:03:52.999Z</time></trkpt><trkpt lat="41.936824608587365" lon="12.508936246072297"><ele>25.0</ele><time>2026-03-29T08:03:53.999Z</time></trkpt><trkpt lat="41.9369275851617" lon="12.508937425994755"><ele>25.0</ele><time>2026-03-29T08:03:54.999Z</time></trkpt><trkpt lat="41.9370467840873" lon="12.508940008851813"><ele>24.75</ele><time>2026-03-29T08:03:55.999Z</time></trkpt><trkpt lat="41.937170556867585" lon="12.508929793585226"><ele>24.5</ele><time>2026-03-29T08:03:56.999Z</time></trkpt><trkpt lat="41.93729879371689" lon="12.508929695951569"><ele>24.25</ele><time>2026-03-29T08:03:57.999Z</time></trkpt><trkpt lat="41.937428119009915" lon="12.508923662715922"><ele>24.0</ele><time>2026-03-29T08:03:58.999Z</time></trkpt><trkpt lat="41.93756457617325" lon="12.508921796626584"><ele>24.0</ele><time>2026-03-29T08:03:59.999Z</time></trkpt><trkpt lat="41.937703758585336" lon="12.508922680146943"><ele>24.0</ele><time>2026-03-29T08:04:00.999Z</time></trkpt><trkpt lat="41.937821749503954" lon="12.50893919117585"><ele>24.0</ele><time>2026-03-29T08:04:01.999Z</time></trkpt><trkpt lat="41.937935977321004" lon="12.508960727782837"><ele>24.0</ele><time>2026-03-29T08:04:02.999Z</time></trkpt><trkpt lat="41.93805560896052" lon="12.50896542132292"><ele>24.0</ele><time>2026-03-29T08:04:03.999Z</time></trkpt><trkpt lat="41.9382061110414" lon="12.508955558653769"><ele>24.0</ele><time>2026-03-29T08:04:04.999Z</time></trkpt><trkpt lat="41.938355978588376" lon="12.508973583357594"><ele>24.0</ele><time>2026-03-29T08:04:05.999Z</time></trkpt><trkpt lat="41.93849489099363" lon="12.508996314373576"><ele>24.0</ele><time>2026-03-29T08:04:06.999Z</time></trkpt><trkpt lat="41.938618889747076" lon="12.50902497677434"><ele>24.25</ele><time>2026-03-29T08:04:07.999Z</time></trkpt><trkpt lat="41.93874350494749" lon="12.509057351966247"><ele>24.5</ele><time>2026-03-29T08:04:08.999Z</time></trkpt><trkpt lat="41.93886934641663" lon="12.509096330910326"><ele>24.75</ele><time>2026-03-29T08:04:09.999Z</time></trkpt><trkpt lat="41.93899671311914" lon="12.50913488915384"><ele>25.0</ele><time>2026-03-29T08:04:10.999Z</time></trkpt><trkpt lat="41.93912616039068" lon="12.509166577618686"><ele>25.25</ele><time>2026-03-29T08:04:11.999Z</time></trkpt><trkpt lat="41.93925868846848" lon="12.509193825277256"><ele>25.5</ele><time>2026-03-29T08:04:12.999Z</time></trkpt><trkpt lat="41.93940146413934" lon="12.509200305022079"><ele>25.75</ele><time>2026-03-29T08:04:13.999Z</time></trkpt><trkpt lat="41.939543823584714" lon="12.509186999188469"><ele>26.0</ele><time>2026-03-29T08:04:14.999Z</time></trkpt><trkpt lat="41.939686500656684" lon="12.509146780778439"><ele>26.0</ele><time>2026-03-29T08:04:15.999Z</time></trkpt><trkpt lat="41.93982989122672" lon="12.509094413340492"><ele>26.0</ele><time>2026-03-29T08:04:16.999Z</time></trkpt><trkpt lat="41.93997137777772" lon="12.509026781848444"><ele>26.0</ele><time>2026-03-29T08:04:17.999Z</time></trkpt><trkpt lat="41.94011917161205" lon="12.508968557787561"><ele>24.333333333333332</ele><time>2026-03-29T08:04:18.999Z</time></trkpt><trkpt lat="41.940272796885985" lon="12.508909787151719"><ele>22.666666666666664</ele><time>2026-03-29T08:04:19.999Z</time></trkpt><trkpt lat="41.94041886459613" lon="12.508851814188805"><ele>21.0</ele><time>2026-03-29T08:04:20.999Z</time></trkpt><trkpt lat="41.94055756425383" lon="12.508801224019825"><ele>21.0</ele><time>2026-03-29T08:04:21.998Z</time></trkpt><trkpt lat="41.9406863427119" lon="12.508756885672051"><ele>21.0</ele><time>2026-03-29T08:04:22.998Z</time></trkpt><trkpt lat="41.94079387803083" lon="12.508726398297132"><ele>21.0</ele><time>2026-03-29T08:04:23.998Z</time></trkpt><trkpt lat="41.9408841118885" lon="12.508699417963278"><ele>21.0</ele><time>2026-03-29T08:04:24.998Z</time></trkpt><trkpt lat="41.94097222245942" lon="12.508665181851587"><ele>21.0</ele><time>2026-03-29T08:04:25.998Z</time></trkpt><trkpt lat="41.941066410781104" lon="12.508643937274392"><ele>21.0</ele><time>2026-03-29T08:04:26.998Z</time></trkpt><trkpt lat="41.94117235961822" lon="12.5086317411289"><ele>21.0</ele><time>2026-03-29T08:04:27.998Z</time></trkpt><trkpt lat="41.941274793293715" lon="12.508637479416793"><ele>21.0</ele><time>2026-03-29T08:04:28.998Z</time></trkpt><trkpt lat="41.94137729218898" lon="12.508659240319355"><ele>21.0</ele><time>2026-03-29T08:04:29.998Z</time></trkpt><trkpt lat="41.941493963932196" lon="12.508706798702098"><ele>21.0</ele><time>2026-03-29T08:04:30.998Z</time></trkpt><trkpt lat="41.941614946174475" lon="12.508776193867037"><ele>21.333333333333332</ele><time>2026-03-29T08:04:31.998Z</time></trkpt><trkpt lat="41.9417365612396" lon="12.508875264858247"><ele>21.666666666666664</ele><time>2026-03-29T08:04:32.998Z</time></trkpt><trkpt lat="41.94185676466824" lon="12.509029775502793"><ele>22.0</ele><time>2026-03-29T08:04:33.998Z</time></trkpt><trkpt lat="41.94196542589942" lon="12.509211892447826"><ele>22.0</ele><time>2026-03-29T08:04:34.998Z</time></trkpt><trkpt lat="41.94205276944694" lon="12.50937646727667"><ele>22.0</ele><time>2026-03-29T08:04:35.998Z</time></trkpt><trkpt lat="41.94213359473284" lon="12.509526910706787"><ele>22.0</ele><time>2026-03-29T08:04:37Z</time></trkpt><trkpt lat="41.94220924333598" lon="12.509672733724255"><ele>22.0</ele><time>2026-03-29T08:04:38Z</time></trkpt><trkpt lat="41.942290034912816" lon="12.509820898884783"><ele>21.75</ele><time>2026-03-29T08:04:39Z</time></trkpt><trkpt lat="41.94237025955423" lon="12.509971234586999"><ele>21.5</ele><time>2026-03-29T08:04:40Z</time></trkpt><trkpt lat="41.94245221415381" lon="12.510118995496764"><ele>21.25</ele><time>2026-03-29T08:04:41Z</time></trkpt><trkpt lat="41.94254277160384" lon="12.510273291369787"><ele>21.0</ele><time>2026-03-29T08:04:42Z</time></trkpt><trkpt lat="41.9426367005163" lon="12.510440173586668"><ele>22.333333333333336</ele><time>2026-03-29T08:04:43Z</time></trkpt><trkpt lat="41.9427327998949" lon="12.51062718786032"><ele>23.666666666666668</ele><time>2026-03-29T08:04:44Z</time></trkpt><trkpt lat="41.942832514119154" lon="12.510833608551025"><ele>25.0</ele><time>2026-03-29T08:04:45Z</time></trkpt><trkpt lat="41.942923890600866" lon="12.511038571167818"><ele>23.666666666666668</ele><time>2026-03-29T08:04:46Z</time></trkpt><trkpt lat="41.9430180318098" lon="12.511293935024161"><ele>22.333333333333336</ele><time>2026-03-29T08:04:47Z</time></trkpt><trkpt lat="41.94312412455426" lon="12.51153337645177"><ele>21.0</ele><time>2026-03-29T08:04:48Z</time></trkpt><trkpt lat="41.94322393168615" lon="12.51176016930047"><ele>21.0</ele><time>2026-03-29T08:04:49Z</time></trkpt><trkpt lat="41.94331266908112" lon="12.511971351178996"><ele>21.0</ele><time>2026-03-29T08:04:50Z</time></trkpt><trkpt lat="41.94340336017787" lon="12.512178070627902"><ele>21.0</ele><time>2026-03-29T08:04:51Z</time></trkpt><trkpt lat="41.9435041080646" lon="12.51236556849853"><ele>22.333333333333336</ele><time>2026-03-29T08:04:52Z</time></trkpt><trkpt lat="41.94361073595239" lon="12.512527271728926"><ele>23.666666666666668</ele><time>2026-03-29T08:04:53Z</time></trkpt><trkpt lat="41.943729129848464" lon="12.512690701195693"><ele>25.0</ele><time>2026-03-29T08:04:54Z</time></trkpt><trkpt lat="41.94385951058172" lon="12.512838038527434"><ele>24.333333333333336</ele><time>2026-03-29T08:04:55Z</time></trkpt><trkpt lat="41.94400795072326" lon="12.512962873041843"><ele>23.666666666666668</ele><time>2026-03-29T08:04:56Z</time></trkpt><trkpt lat="41.9441598492826" lon="12.513066855578987"><ele>23.0</ele><time>2026-03-29T08:04:57Z</time></trkpt><trkpt lat="41.94431799827842" lon="12.513167108483731"><ele>25.333333333333336</ele><time>2026-03-29T08:04:58Z</time></trkpt><trkpt lat="41.94447060912675" lon="12.513241458311104"><ele>27.666666666666668</ele><time>2026-03-29T08:04:59Z</time></trkpt><trkpt lat="41.94462034828297" lon="12.513304576472256"><ele>30.0</ele><time>2026-03-29T08:05:00Z</time></trkpt><trkpt lat="41.94476694843713" lon="12.513368145126138"><ele>30.0</ele><time>2026-03-29T08:05:01Z</time></trkpt><trkpt lat="41.944902656269676" lon="12.513440224262613"><ele>30.0</ele><time>2026-03-29T08:05:02Z</time></trkpt><trkpt lat="41.9450288116188" lon="12.513551198503318"><ele>30.0</ele><time>2026-03-29T08:05:03Z</time></trkpt><trkpt lat="41.94515426570426" lon="12.513664030558527"><ele>30.0</ele><time>2026-03-29T08:05:04Z</time></trkpt><trkpt lat="41.94526577970071" lon="12.513789986785548"><ele>31.0</ele><time>2026-03-29T08:05:05Z</time></trkpt><trkpt lat="41.94537941661672" lon="12.513929665025499"><ele>32.0</ele><time>2026-03-29T08:05:06Z</time></trkpt><trkpt lat="41.945480693542606" lon="12.514072931043307"><ele>33.0</ele><time>2026-03-29T08:05:07Z</time></trkpt><trkpt lat="41.945567301568424" lon="12.51423271231266"><ele>34.0</ele><time>2026-03-29T08:05:08Z</time></trkpt><trkpt lat="41.94564085646806" lon="12.514381450739098"><ele>34.0</ele><time>2026-03-29T08:05:09Z</time></trkpt><trkpt lat="41.94570664125696" lon="12.514528524462644"><ele>34.0</ele><time>2026-03-29T08:05:10Z</time></trkpt><trkpt lat="41.94577976063277" lon="12.514674690598934"><ele>34.0</ele><time>2026-03-29T08:05:11Z</time></trkpt><trkpt lat="41.94581798392215" lon="12.514809417452417"><ele>34.0</ele><time>2026-03-29T08:05:12Z</time></trkpt><trkpt lat="41.945836783877766" lon="12.514942466901603"><ele>34.333333333333336</ele><time>2026-03-29T08:05:13Z</time></trkpt><trkpt lat="41.945872710906066" lon="12.515065190553052"><ele>34.66666666666667</ele><time>2026-03-29T08:05:14Z</time></trkpt><trkpt lat="41.94589200724296" lon="12.515194748871417"><ele>35.0</ele><time>2026-03-29T08:05:15Z</time></trkpt><trkpt lat="41.94589868710139" lon="12.5153146334503"><ele>35.333333333333336</ele><time>2026-03-29T08:05:16Z</time></trkpt><trkpt lat="41.94591515271234" lon="12.515433580321625"><ele>35.666666666666664</ele><time>2026-03-29T08:05:18Z</time></trkpt><trkpt lat="41.94592509073334" lon="12.515517297766861"><ele>36.0</ele><time>2026-03-29T08:05:24Z</time></trkpt><trkpt lat="41.945955431890084" lon="12.515675056769513"><ele>34.6</ele><time>2026-03-29T08:05:25.999Z</time></trkpt><trkpt lat="41.94597541072793" lon="12.515838765426802"><ele>33.2</ele><time>2026-03-29T08:05:27.999Z</time></trkpt><trkpt lat="41.94599273190517" lon="12.515939389109786"><ele>31.799999999999997</ele><time>2026-03-29T08:05:28.999Z</time></trkpt><trkpt lat="41.94600952000189" lon="12.51604100895753"><ele>30.4</ele><time>2026-03-29T08:05:29.999Z</time></trkpt><trkpt lat="41.94602543956923" lon="12.516150325562446"><ele>29.0</ele><time>2026-03-29T08:05:30.999Z</time></trkpt><trkpt lat="41.94602899096369" lon="12.516284578193586"><ele>29.0</ele><time>2026-03-29T08:05:31.999Z</time></trkpt><trkpt lat="41.94605708047118" lon="12.516475188932263"><ele>29.0</ele><time>2026-03-29T08:05:32.999Z</time></trkpt><trkpt lat="41.946099665689495" lon="12.51666675888966"><ele>29.0</ele><time>2026-03-29T08:05:33.999Z</time></trkpt><trkpt lat="41.94613049408956" lon="12.5168527652533"><ele>29.0</ele><time>2026-03-29T08:05:34.999Z</time></trkpt><trkpt lat="41.946153440494164" lon="12.517022529040654"><ele>28.5</ele><time>2026-03-29T08:05:35.999Z</time></trkpt><trkpt lat="41.946177170269195" lon="12.517187216388345"><ele>28.0</ele><time>2026-03-29T08:05:36.999Z</time></trkpt><trkpt lat="41.94619614003602" lon="12.517340775738901"><ele>27.5</ele><time>2026-03-29T08:05:37.999Z</time></trkpt><trkpt lat="41.946210499529116" lon="12.517470008789378"><ele>27.0</ele><time>2026-03-29T08:05:38.999Z</time></trkpt><trkpt lat="41.94622694373315" lon="12.51762011559492"><ele>27.0</ele><time>2026-03-29T08:05:39.999Z</time></trkpt><trkpt lat="41.94623979514934" lon="12.517807536619417"><ele>27.0</ele><time>2026-03-29T08:05:40.999Z</time></trkpt><trkpt lat="41.94625531553615" lon="12.518013112752339"><ele>27.0</ele><time>2026-03-29T08:05:41.999Z</time></trkpt><trkpt lat="41.946266581052114" lon="12.518227606266842"><ele>27.5</ele><time>2026-03-29T08:05:42.999Z</time></trkpt><trkpt lat="41.94627154352696" lon="12.518442629837228"><ele>28.0</ele><time>2026-03-29T08:05:43.999Z</time></trkpt><trkpt lat="41.946269626756106" lon="12.518630188311425"><ele>28.5</ele><time>2026-03-29T08:05:44.999Z</time></trkpt><trkpt lat="41.94626039917105" lon="12.518798950332538"><ele>29.0</ele><time>2026-03-29T08:05:45.999Z</time></trkpt><trkpt lat="41.94625060126446" lon="12.518976348538542"><ele>29.25</ele><time>2026-03-29T08:05:46.999Z</time></trkpt><trkpt lat="41.946241846356024" lon="12.51914857048184"><ele>29.5</ele><time>2026-03-29T08:05:47.999Z</time></trkpt><trkpt lat="41.94623544084624" lon="12.51931953991625"><ele>29.75</ele><time>2026-03-29T08:05:48.999Z</time></trkpt><trkpt lat="41.94622336859141" lon="12.519491548525846"><ele>30.0</ele><time>2026-03-29T08:05:49.999Z</time></trkpt><trkpt lat="41.946214705764056" lon="12.51965873031315"><ele>30.0</ele><time>2026-03-29T08:05:50.999Z</time></trkpt><trkpt lat="41.9462045691584" lon="12.519821118073002"><ele>30.0</ele><time>2026-03-29T08:05:51.999Z</time></trkpt><trkpt lat="41.946192674859674" lon="12.519993574599866"><ele>30.0</ele><time>2026-03-29T08:05:52.999Z</time></trkpt><trkpt lat="41.946180497427285" lon="12.520173378209096"><ele>30.0</ele><time>2026-03-29T08:05:53.999Z</time></trkpt><trkpt lat="41.94617260004246" lon="12.520365041838016"><ele>29.25</ele><time>2026-03-29T08:05:54.999Z</time></trkpt><trkpt lat="41.94616333976258" lon="12.520556914406583"><ele>28.5</ele><time>2026-03-29T08:05:55.999Z</time></trkpt><trkpt lat="41.946153949785305" lon="12.520747625974554"><ele>27.75</ele><time>2026-03-29T08:05:56.999Z</time></trkpt><trkpt lat="41.94614488332155" lon="12.520946452617663"><ele>27.0</ele><time>2026-03-29T08:05:57.999Z</time></trkpt><trkpt lat="41.94613605878714" lon="12.521145736269744"><ele>26.333333333333336</ele><time>2026-03-29T08:05:58.999Z</time></trkpt><trkpt lat="41.94612720812661" lon="12.521353062657"><ele>25.666666666666668</ele><time>2026-03-29T08:05:59.999Z</time></trkpt><trkpt lat="41.946118584233375" lon="12.5215580073384"><ele>25.0</ele><time>2026-03-29T08:06:00.999Z</time></trkpt><trkpt lat="41.94610979640798" lon="12.521752087073281"><ele>25.0</ele><time>2026-03-29T08:06:01.999Z</time></trkpt><trkpt lat="41.94610263388425" lon="12.521928938398682"><ele>25.0</ele><time>2026-03-29T08:06:02.999Z</time></trkpt><trkpt lat="41.946094418431144" lon="12.52209673655223"><ele>25.0</ele><time>2026-03-29T08:06:03.999Z</time></trkpt><trkpt lat="41.946089830852394" lon="12.522263352553859"><ele>25.0</ele><time>2026-03-29T08:06:04.999Z</time></trkpt><trkpt lat="41.94608414811371" lon="12.522438528009163"><ele>24.25</ele><time>2026-03-29T08:06:05.999Z</time></trkpt><trkpt lat="41.94607617987897" lon="12.52262497301578"><ele>23.5</ele><time>2026-03-29T08:06:06.999Z</time></trkpt><trkpt lat="41.94606956779224" lon="12.522809809840302"><ele>22.75</ele><time>2026-03-29T08:06:07.999Z</time></trkpt><trkpt lat="41.9460633060204" lon="12.52298526636749"><ele>22.0</ele><time>2026-03-29T08:06:08.999Z</time></trkpt><trkpt lat="41.9460577315566" lon="12.523159743565945"><ele>22.0</ele><time>2026-03-29T08:06:09.999Z</time></trkpt><trkpt lat="41.94605309927726" lon="12.523347589224425"><ele>22.0</ele><time>2026-03-29T08:06:10.999Z</time></trkpt><trkpt lat="41.94604329315109" lon="12.523536092765559"><ele>22.0</ele><time>2026-03-29T08:06:11.999Z</time></trkpt><trkpt lat="41.94603129985413" lon="12.52372120450661"><ele>22.0</ele><time>2026-03-29T08:06:12.999Z</time></trkpt><trkpt lat="41.94601570627869" lon="12.523918396818623"><ele>22.0</ele><time>2026-03-29T08:06:13.999Z</time></trkpt><trkpt lat="41.94599910248795" lon="12.524113124314674"><ele>22.0</ele><time>2026-03-29T08:06:14.999Z</time></trkpt><trkpt lat="41.94598404209545" lon="12.52429927521238"><ele>22.0</ele><time>2026-03-29T08:06:15.999Z</time></trkpt><trkpt lat="41.94598138235864" lon="12.524484330942885"><ele>22.0</ele><time>2026-03-29T08:06:16.999Z</time></trkpt><trkpt lat="41.94597948413041" lon="12.524651725731466"><ele>22.0</ele><time>2026-03-29T08:06:17.999Z</time></trkpt><trkpt lat="41.945975555113954" lon="12.524794665740197"><ele>22.0</ele><time>2026-03-29T08:06:18.999Z</time></trkpt><trkpt lat="41.94597453395715" lon="12.52490507167868"><ele>22.0</ele><time>2026-03-29T08:06:19.999Z</time></trkpt><trkpt lat="41.94597562222102" lon="12.524993013020396"><ele>22.0</ele><time>2026-03-29T08:06:20.999Z</time></trkpt><trkpt lat="41.9459751513282" lon="12.52509012858356"><ele>22.0</ele><time>2026-03-29T08:06:22.999Z</time></trkpt><trkpt lat="41.94597738407734" lon="12.525187882595466"><ele>22.0</ele><time>2026-03-29T08:06:25.999Z</time></trkpt><trkpt lat="41.94595742348113" lon="12.525295525439839"><ele>23.6</ele><time>2026-03-29T08:06:51Z</time></trkpt><trkpt lat="41.94597242141264" lon="12.525406089666415"><ele>25.200000000000003</ele><time>2026-03-29T08:06:52Z</time></trkpt><trkpt lat="41.945977907930654" lon="12.525558579816012"><ele>26.8</ele><time>2026-03-29T08:06:53Z</time></trkpt><trkpt lat="41.94597129048346" lon="12.525712018604004"><ele>28.4</ele><time>2026-03-29T08:06:54Z</time></trkpt><trkpt lat="41.94596657068409" lon="12.525884598253683"><ele>30.0</ele><time>2026-03-29T08:06:55Z</time></trkpt><trkpt lat="41.94596199455564" lon="12.526075841004621"><ele>31.0</ele><time>2026-03-29T08:06:56Z</time></trkpt><trkpt lat="41.94595493050651" lon="12.526276598198365"><ele>32.0</ele><time>2026-03-29T08:06:57Z</time></trkpt><trkpt lat="41.94593783548515" lon="12.526483903492656"><ele>33.0</ele><time>2026-03-29T08:06:58Z</time></trkpt><trkpt lat="41.94592955788587" lon="12.52669811064335"><ele>33.0</ele><time>2026-03-29T08:06:59Z</time></trkpt><trkpt lat="41.94592227372282" lon="12.526883967735081"><ele>33.0</ele><time>2026-03-29T08:07:00Z</time></trkpt><trkpt lat="41.9459141426728" lon="12.527097308914321"><ele>33.0</ele><time>2026-03-29T08:07:01Z</time></trkpt><trkpt lat="41.945904924471485" lon="12.52732800311757"><ele>33.0</ele><time>2026-03-29T08:07:02Z</time></trkpt><trkpt lat="41.94587919235087" lon="12.527571992676515"><ele>33.0</ele><time>2026-03-29T08:07:03Z</time></trkpt><trkpt lat="41.94585726335768" lon="12.527787314591444"><ele>33.0</ele><time>2026-03-29T08:07:04Z</time></trkpt><trkpt lat="41.94583426325264" lon="12.527990859464841"><ele>32.75</ele><time>2026-03-29T08:07:05Z</time></trkpt><trkpt lat="41.945811759280794" lon="12.528198270719518"><ele>32.5</ele><time>2026-03-29T08:07:06Z</time></trkpt><trkpt lat="41.945790520450856" lon="12.52838131597364"><ele>32.25</ele><time>2026-03-29T08:07:07Z</time></trkpt><trkpt lat="41.9457736378042" lon="12.528556808169856"><ele>32.0</ele><time>2026-03-29T08:07:08Z</time></trkpt><trkpt lat="41.94575279704002" lon="12.528746662847041"><ele>33.0</ele><time>2026-03-29T08:07:09Z</time></trkpt><trkpt lat="41.94573701646287" lon="12.528919126401235"><ele>34.0</ele><time>2026-03-29T08:07:10Z</time></trkpt><trkpt lat="41.94572465725106" lon="12.52907852634486"><ele>35.0</ele><time>2026-03-29T08:07:11Z</time></trkpt><trkpt lat="41.945712669743486" lon="12.529248000454794"><ele>36.0</ele><time>2026-03-29T08:07:12Z</time></trkpt><trkpt lat="41.94570236632689" lon="12.52942523860299"><ele>35.75</ele><time>2026-03-29T08:07:13Z</time></trkpt><trkpt lat="41.945689839913115" lon="12.529617341029176"><ele>35.5</ele><time>2026-03-29T08:07:14Z</time></trkpt><trkpt lat="41.945677273103755" lon="12.529804562537059"><ele>35.25</ele><time>2026-03-29T08:07:15Z</time></trkpt><trkpt lat="41.9456670061537" lon="12.529993161131816"><ele>35.0</ele><time>2026-03-29T08:07:16Z</time></trkpt><trkpt lat="41.9456590182379" lon="12.530181903433851"><ele>35.0</ele><time>2026-03-29T08:07:17Z</time></trkpt><trkpt lat="41.94565181250047" lon="12.530362229711846"><ele>35.0</ele><time>2026-03-29T08:07:18Z</time></trkpt><trkpt lat="41.94564462484154" lon="12.530532155546336"><ele>35.0</ele><time>2026-03-29T08:07:19Z</time></trkpt><trkpt lat="41.94563700831179" lon="12.530702902596154"><ele>35.0</ele><time>2026-03-29T08:07:20Z</time></trkpt><trkpt lat="41.945630467524666" lon="12.530881557139704"><ele>35.25</ele><time>2026-03-29T08:07:21Z</time></trkpt><trkpt lat="41.945621191987556" lon="12.531059075753062"><ele>35.5</ele><time>2026-03-29T08:07:22Z</time></trkpt><trkpt lat="41.94560905072411" lon="12.531232093521403"><ele>35.75</ele><time>2026-03-29T08:07:23Z</time></trkpt><trkpt lat="41.94559416494901" lon="12.531401324106076"><ele>36.0</ele><time>2026-03-29T08:07:24Z</time></trkpt><trkpt lat="41.945576684968934" lon="12.531565689953641"><ele>36.0</ele><time>2026-03-29T08:07:25Z</time></trkpt><trkpt lat="41.94555465244268" lon="12.531733136521218"><ele>36.0</ele><time>2026-03-29T08:07:26Z</time></trkpt><trkpt lat="41.94552689658828" lon="12.531910670610841"><ele>36.0</ele><time>2026-03-29T08:07:27Z</time></trkpt><trkpt lat="41.945492165371206" lon="12.532090620091523"><ele>36.0</ele><time>2026-03-29T08:07:28Z</time></trkpt><trkpt lat="41.9454558572206" lon="12.532265905665719"><ele>35.75</ele><time>2026-03-29T08:07:29Z</time></trkpt><trkpt lat="41.94542067820803" lon="12.53242981895233"><ele>35.5</ele><time>2026-03-29T08:07:30Z</time></trkpt><trkpt lat="41.945381038505936" lon="12.532598576124379"><ele>35.25</ele><time>2026-03-29T08:07:31Z</time></trkpt><trkpt lat="41.945340525354425" lon="12.532760974255792"><ele>35.0</ele><time>2026-03-29T08:07:32Z</time></trkpt><trkpt lat="41.94530065367937" lon="12.532904799667573"><ele>35.5</ele><time>2026-03-29T08:07:33Z</time></trkpt><trkpt lat="41.94526182955654" lon="12.53305375625063"><ele>36.0</ele><time>2026-03-29T08:07:34Z</time></trkpt><trkpt lat="41.9452188091067" lon="12.53320872064541"><ele>36.5</ele><time>2026-03-29T08:07:35Z</time></trkpt><trkpt lat="41.94517294691586" lon="12.533364063348492"><ele>37.0</ele><time>2026-03-29T08:07:36Z</time></trkpt><trkpt lat="41.94511889380968" lon="12.533500895329508"><ele>37.0</ele><time>2026-03-29T08:07:36.999Z</time></trkpt><trkpt lat="41.945069560255725" lon="12.533642845192839"><ele>37.0</ele><time>2026-03-29T08:07:37.999Z</time></trkpt><trkpt lat="41.94501775368474" lon="12.533779047554777"><ele>37.0</ele><time>2026-03-29T08:07:38.999Z</time></trkpt><trkpt lat="41.94496012071674" lon="12.533925425410322"><ele>37.0</ele><time>2026-03-29T08:07:39.999Z</time></trkpt><trkpt lat="41.94489698347873" lon="12.534072160845243"><ele>37.0</ele><time>2026-03-29T08:07:40.999Z</time></trkpt><trkpt lat="41.94482868919722" lon="12.534224965338572"><ele>37.0</ele><time>2026-03-29T08:07:41.999Z</time></trkpt><trkpt lat="41.94475303709856" lon="12.534386949487125"><ele>37.0</ele><time>2026-03-29T08:07:42.999Z</time></trkpt><trkpt lat="41.94466961910564" lon="12.534567457850862"><ele>37.0</ele><time>2026-03-29T08:07:43.999Z</time></trkpt><trkpt lat="41.944582798467174" lon="12.534742669092797"><ele>37.0</ele><time>2026-03-29T08:07:44.999Z</time></trkpt><trkpt lat="41.94449951868937" lon="12.534917553890228"><ele>37.0</ele><time>2026-03-29T08:07:45.999Z</time></trkpt><trkpt lat="41.944414217320535" lon="12.535096721532241"><ele>37.0</ele><time>2026-03-29T08:07:46.999Z</time></trkpt><trkpt lat="41.94432873142683" lon="12.535279018768666"><ele>37.25</ele><time>2026-03-29T08:07:47.999Z</time></trkpt><trkpt lat="41.94424610609606" lon="12.535437686228004"><ele>37.5</ele><time>2026-03-29T08:07:48.999Z</time></trkpt><trkpt lat="41.94417857998804" lon="12.53559664400454"><ele>37.75</ele><time>2026-03-29T08:07:49.999Z</time></trkpt><trkpt lat="41.94410849120605" lon="12.535772290633005"><ele>38.0</ele><time>2026-03-29T08:07:50.999Z</time></trkpt><trkpt lat="41.944048648093826" lon="12.535940829322685"><ele>38.0</ele><time>2026-03-29T08:07:51.999Z</time></trkpt><trkpt lat="41.943995881533205" lon="12.536092351074236"><ele>38.0</ele><time>2026-03-29T08:07:52.999Z</time></trkpt><trkpt lat="41.94396254444752" lon="12.536223300842932"><ele>38.0</ele><time>2026-03-29T08:07:53.999Z</time></trkpt><trkpt lat="41.94394357215618" lon="12.536314371260547"><ele>38.0</ele><time>2026-03-29T08:07:54.999Z</time></trkpt><trkpt lat="41.94392945256079" lon="12.536467911894755"><ele>38.0</ele><time>2026-03-29T08:07:56.999Z</time></trkpt><trkpt lat="41.94389503499962" lon="12.536593157855252"><ele>38.5</ele><time>2026-03-29T08:07:58.999Z</time></trkpt><trkpt lat="41.94385735217957" lon="12.536715242450363"><ele>39.0</ele><time>2026-03-29T08:08:01.999Z</time></trkpt><trkpt lat="41.94383072489537" lon="12.536816910850304"><ele>39.5</ele><time>2026-03-29T08:08:03.999Z</time></trkpt><trkpt lat="41.94381293602245" lon="12.53689909202294"><ele>40.0</ele><time>2026-03-29T08:08:05.999Z</time></trkpt><trkpt lat="41.94378645720456" lon="12.537002229437109"><ele>40.5</ele><time>2026-03-29T08:08:08.999Z</time></trkpt><trkpt lat="41.943777883448675" lon="12.537112005278221"><ele>41.0</ele><time>2026-03-29T08:08:11.999Z</time></trkpt><trkpt lat="41.943735589493265" lon="12.537186449936602"><ele>41.4</ele><time>2026-03-29T08:08:44.999Z</time></trkpt><trkpt lat="41.943737916732495" lon="12.537300381105487"><ele>41.8</ele><time>2026-03-29T08:08:50Z</time></trkpt><trkpt lat="41.94372711483012" lon="12.537459710948223"><ele>42.199999999999996</ele><time>2026-03-29T08:08:52Z</time></trkpt><trkpt lat="41.94371562731093" lon="12.537562016783191"><ele>42.599999999999994</ele><time>2026-03-29T08:08:53Z</time></trkpt><trkpt lat="41.94370888532664" lon="12.53767472446599"><ele>43.0</ele><time>2026-03-29T08:08:54Z</time></trkpt><trkpt lat="41.94369320108767" lon="12.537805370856677"><ele>44.0</ele><time>2026-03-29T08:08:55Z</time></trkpt><trkpt lat="41.94367108991714" lon="12.537950123872495"><ele>45.0</ele><time>2026-03-29T08:08:56Z</time></trkpt><trkpt lat="41.94367283658884" lon="12.538127561419847"><ele>46.0</ele><time>2026-03-29T08:08:57Z</time></trkpt><trkpt lat="41.94365518855404" lon="12.538291284097905"><ele>47.0</ele><time>2026-03-29T08:08:58Z</time></trkpt><trkpt lat="41.94364118070608" lon="12.538461640819012"><ele>47.0</ele><time>2026-03-29T08:08:59Z</time></trkpt><trkpt lat="41.94363156728375" lon="12.53861316216178"><ele>47.0</ele><time>2026-03-29T08:09:00Z</time></trkpt><trkpt lat="41.943628678474745" lon="12.53875643195396"><ele>47.0</ele><time>2026-03-29T08:09:01Z</time></trkpt><trkpt lat="41.94363153719373" lon="12.538904926989593"><ele>47.0</ele><time>2026-03-29T08:09:02Z</time></trkpt><trkpt lat="41.94363638241396" lon="12.539063430697766"><ele>47.0</ele><time>2026-03-29T08:09:03Z</time></trkpt><trkpt lat="41.94363863723397" lon="12.539233427569286"><ele>46.5</ele><time>2026-03-29T08:09:04Z</time></trkpt><trkpt lat="41.94364389894306" lon="12.53941399132172"><ele>46.0</ele><time>2026-03-29T08:09:05Z</time></trkpt><trkpt lat="41.943648706642065" lon="12.539594613867717"><ele>45.5</ele><time>2026-03-29T08:09:06Z</time></trkpt><trkpt lat="41.943653304409835" lon="12.539781370488832"><ele>45.0</ele><time>2026-03-29T08:09:07Z</time></trkpt><trkpt lat="41.943657653493055" lon="12.539961009027062"><ele>43.75</ele><time>2026-03-29T08:09:08Z</time></trkpt><trkpt lat="41.94366122451749" lon="12.540140815503685"><ele>42.5</ele><time>2026-03-29T08:09:09Z</time></trkpt><trkpt lat="41.94366665066203" lon="12.540321687909397"><ele>41.25</ele><time>2026-03-29T08:09:10Z</time></trkpt><trkpt lat="41.9436672100747" lon="12.540488736795389"><ele>40.0</ele><time>2026-03-29T08:09:11Z</time></trkpt><trkpt lat="41.94366586261039" lon="12.540656953304845"><ele>40.0</ele><time>2026-03-29T08:09:12Z</time></trkpt><trkpt lat="41.94366492187087" lon="12.540832296919646"><ele>40.0</ele><time>2026-03-29T08:09:13Z</time></trkpt><trkpt lat="41.94366437645728" lon="12.541008791404685"><ele>40.0</ele><time>2026-03-29T08:09:14Z</time></trkpt><trkpt lat="41.943665986947885" lon="12.54117691087025"><ele>40.0</ele><time>2026-03-29T08:09:15Z</time></trkpt><trkpt lat="41.94366586374828" lon="12.54133629069015"><ele>40.0</ele><time>2026-03-29T08:09:16Z</time></trkpt><trkpt lat="41.943666649406076" lon="12.541488020016203"><ele>40.0</ele><time>2026-03-29T08:09:17Z</time></trkpt><trkpt lat="41.943667297772684" lon="12.5416433294931"><ele>40.0</ele><time>2026-03-29T08:09:18Z</time></trkpt><trkpt lat="41.94366800837544" lon="12.541787994984547"><ele>40.0</ele><time>2026-03-29T08:09:19Z</time></trkpt><trkpt lat="41.94367761411241" lon="12.541909373354446"><ele>40.0</ele><time>2026-03-29T08:09:20Z</time></trkpt><trkpt lat="41.943680979607905" lon="12.542011121803766"><ele>38.5</ele><time>2026-03-29T08:09:21Z</time></trkpt><trkpt lat="41.943686555000184" lon="12.54217968166578"><ele>37.0</ele><time>2026-03-29T08:09:23Z</time></trkpt><trkpt lat="41.94366462929703" lon="12.542285081156924"><ele>35.5</ele><time>2026-03-29T08:09:25Z</time></trkpt><trkpt lat="41.943658918880544" lon="12.542409438281087"><ele>34.0</ele><time>2026-03-29T08:09:27Z</time></trkpt><trkpt lat="41.94332324462548" lon="12.542528877538468"><ele>34.0</ele><time>2026-03-29T08:09:28Z</time></trkpt><trkpt lat="41.94367518660268" lon="12.542590154318129"><ele>34.0</ele><time>2026-03-29T08:09:29Z</time></trkpt><trkpt lat="41.9437024836181" lon="12.542719798842326"><ele>34.0</ele><time>2026-03-29T08:09:30Z</time></trkpt><trkpt lat="41.943681414318746" lon="12.542878029080955"><ele>34.0</ele><time>2026-03-29T08:09:31Z</time></trkpt><trkpt lat="41.94368373208676" lon="12.543010779964787"><ele>34.0</ele><time>2026-03-29T08:09:32Z</time></trkpt><trkpt lat="41.94369348625477" lon="12.543173123550277"><ele>34.0</ele><time>2026-03-29T08:09:33Z</time></trkpt><trkpt lat="41.94370466183204" lon="12.543360221728754"><ele>33.66666666666667</ele><time>2026-03-29T08:09:34Z</time></trkpt><trkpt lat="41.94372289515804" lon="12.543581302778405"><ele>33.333333333333336</ele><time>2026-03-29T08:09:35Z</time></trkpt><trkpt lat="41.94371323592552" lon="12.543805002481136"><ele>33.0</ele><time>2026-03-29T08:09:36Z</time></trkpt><trkpt lat="41.94373070795925" lon="12.544069879408989"><ele>33.0</ele><time>2026-03-29T08:09:36.999Z</time></trkpt><trkpt lat="41.94374448242164" lon="12.544352035139172"><ele>33.0</ele><time>2026-03-29T08:09:37.999Z</time></trkpt><trkpt lat="41.94375376555953" lon="12.544659056497773"><ele>33.0</ele><time>2026-03-29T08:09:38.999Z</time></trkpt><trkpt lat="41.943760947579555" lon="12.544942266425133"><ele>33.666666666666664</ele><time>2026-03-29T08:09:39.999Z</time></trkpt><trkpt lat="41.94377118185905" lon="12.545213432724221"><ele>34.33333333333333</ele><time>2026-03-29T08:09:40.999Z</time></trkpt><trkpt lat="41.943777118606555" lon="12.545477232277952"><ele>35.0</ele><time>2026-03-29T08:09:41.999Z</time></trkpt><trkpt lat="41.94378582984087" lon="12.545740642372893"><ele>35.666666666666664</ele><time>2026-03-29T08:09:42.999Z</time></trkpt><trkpt lat="41.94379517574796" lon="12.54598647010892"><ele>36.333333333333336</ele><time>2026-03-29T08:09:43.999Z</time></trkpt><trkpt lat="41.94380049065498" lon="12.546221652376014"><ele>37.0</ele><time>2026-03-29T08:09:44.999Z</time></trkpt><trkpt lat="41.94380839389803" lon="12.546448643589034"><ele>38.0</ele><time>2026-03-29T08:09:45.999Z</time></trkpt><trkpt lat="41.94381488814884" lon="12.546661280098329"><ele>39.0</ele><time>2026-03-29T08:09:46.999Z</time></trkpt><trkpt lat="41.94381899468056" lon="12.546850992671528"><ele>40.0</ele><time>2026-03-29T08:09:47.999Z</time></trkpt><trkpt lat="41.94382184748206" lon="12.5469932259046"><ele>41.0</ele><time>2026-03-29T08:09:48.999Z</time></trkpt><trkpt lat="41.94382524054671" lon="12.547105911463392"><ele>41.599999999999994</ele><time>2026-03-29T08:09:49.999Z</time></trkpt><trkpt lat="41.94383349771616" lon="12.547238751935511"><ele>42.2</ele><time>2026-03-29T08:09:51.999Z</time></trkpt><trkpt lat="41.94382919564504" lon="12.547341797417463"><ele>42.8</ele><time>2026-03-29T08:10:38.999Z</time></trkpt><trkpt lat="41.943831184786674" lon="12.547430301781702"><ele>43.400000000000006</ele><time>2026-03-29T08:10:39.999Z</time></trkpt><trkpt lat="41.943831544062625" lon="12.547558334951525"><ele>44.0</ele><time>2026-03-29T08:10:40.999Z</time></trkpt><trkpt lat="41.94383204954287" lon="12.547710662274344"><ele>44.0</ele><time>2026-03-29T08:10:41.999Z</time></trkpt><trkpt lat="41.943839197073565" lon="12.547871121017122"><ele>44.0</ele><time>2026-03-29T08:10:42.999Z</time></trkpt><trkpt lat="41.94384004547212" lon="12.548031679578276"><ele>44.0</ele><time>2026-03-29T08:10:43.999Z</time></trkpt><trkpt lat="41.94384067120977" lon="12.548198521933061"><ele>44.0</ele><time>2026-03-29T08:10:44.999Z</time></trkpt><trkpt lat="41.94384772449923" lon="12.548356521911899"><ele>44.5</ele><time>2026-03-29T08:10:45.998Z</time></trkpt><trkpt lat="41.94385915914413" lon="12.548528267180467"><ele>45.0</ele><time>2026-03-29T08:10:46.998Z</time></trkpt><trkpt lat="41.94387088225184" lon="12.548722129780366"><ele>45.5</ele><time>2026-03-29T08:10:47.998Z</time></trkpt><trkpt lat="41.94388062808168" lon="12.548926663042334"><ele>46.0</ele><time>2026-03-29T08:10:48.998Z</time></trkpt><trkpt lat="41.94389819534524" lon="12.549124038099324"><ele>46.25</ele><time>2026-03-29T08:10:49.998Z</time></trkpt><trkpt lat="41.94392520427755" lon="12.549313837438078"><ele>46.5</ele><time>2026-03-29T08:10:50.998Z</time></trkpt><trkpt lat="41.943950136618675" lon="12.549509195282798"><ele>46.75</ele><time>2026-03-29T08:10:51.998Z</time></trkpt><trkpt lat="41.94398561697651" lon="12.549710134048553"><ele>47.0</ele><time>2026-03-29T08:10:53Z</time></trkpt><trkpt lat="41.94401922180703" lon="12.549915931604307"><ele>45.33333333333333</ele><time>2026-03-29T08:10:54Z</time></trkpt><trkpt lat="41.94405193745433" lon="12.550124995989323"><ele>43.666666666666664</ele><time>2026-03-29T08:10:55Z</time></trkpt><trkpt lat="41.944086376782565" lon="12.550319511001101"><ele>42.0</ele><time>2026-03-29T08:10:56Z</time></trkpt><trkpt lat="41.94412985830024" lon="12.55050327175285"><ele>41.0</ele><time>2026-03-29T08:10:57Z</time></trkpt><trkpt lat="41.9441719575631" lon="12.550685380255562"><ele>40.0</ele><time>2026-03-29T08:10:58Z</time></trkpt><trkpt lat="41.94421982303016" lon="12.550861259333878"><ele>39.0</ele><time>2026-03-29T08:10:59Z</time></trkpt><trkpt lat="41.94426046603082" lon="12.55102457693088"><ele>38.0</ele><time>2026-03-29T08:11:00Z</time></trkpt><trkpt lat="41.94430073470081" lon="12.551180533091157"><ele>37.0</ele><time>2026-03-29T08:11:01Z</time></trkpt><trkpt lat="41.944344830408774" lon="12.551328193450672"><ele>36.0</ele><time>2026-03-29T08:11:02Z</time></trkpt><trkpt lat="41.944386865395195" lon="12.551459891070039"><ele>35.0</ele><time>2026-03-29T08:11:03Z</time></trkpt><trkpt lat="41.94442124002825" lon="12.551573301882186"><ele>34.0</ele><time>2026-03-29T08:11:04Z</time></trkpt><trkpt lat="41.944458145686184" lon="12.551681959315932"><ele>33.0</ele><time>2026-03-29T08:11:05Z</time></trkpt><trkpt lat="41.944489505289475" lon="12.551776903204317"><ele>33.0</ele><time>2026-03-29T08:11:06Z</time></trkpt><trkpt lat="41.944523885105134" lon="12.55186003109438"><ele>33.0</ele><time>2026-03-29T08:11:07Z</time></trkpt><trkpt lat="41.94455495709259" lon="12.551937117876271"><ele>33.0</ele><time>2026-03-29T08:11:08Z</time></trkpt><trkpt lat="41.94459956375383" lon="12.552049942270006"><ele>33.0</ele><time>2026-03-29T08:11:10Z</time></trkpt><trkpt lat="41.944626733940105" lon="12.55215178931252"><ele>33.0</ele><time>2026-03-29T08:11:12Z</time></trkpt><trkpt lat="41.94468494650675" lon="12.552247854194261"><ele>33.0</ele><time>2026-03-29T08:11:14Z</time></trkpt><trkpt lat="41.94470886813867" lon="12.552340485017279"><ele>32.199999999999996</ele><time>2026-03-29T08:11:17Z</time></trkpt><trkpt lat="41.94474538556254" lon="12.552449532111666"><ele>31.4</ele><time>2026-03-29T08:11:31Z</time></trkpt><trkpt lat="41.944781408628074" lon="12.552540575272413"><ele>30.599999999999998</ele><time>2026-03-29T08:11:32Z</time></trkpt><trkpt lat="41.94483062254414" lon="12.552636096699644"><ele>29.799999999999997</ele><time>2026-03-29T08:11:33Z</time></trkpt><trkpt lat="41.94489515934861" lon="12.552742885977022"><ele>29.0</ele><time>2026-03-29T08:11:34Z</time></trkpt><trkpt lat="41.94496708680125" lon="12.552859864702837"><ele>29.75</ele><time>2026-03-29T08:11:35Z</time></trkpt><trkpt lat="41.94505304011262" lon="12.552992075808083"><ele>30.5</ele><time>2026-03-29T08:11:36Z</time></trkpt><trkpt lat="41.94515129390317" lon="12.553128872422342"><ele>31.25</ele><time>2026-03-29T08:11:37Z</time></trkpt><trkpt lat="41.94525602292424" lon="12.553259209798949"><ele>32.0</ele><time>2026-03-29T08:11:38Z</time></trkpt><trkpt lat="41.94535236456991" lon="12.553390124105977"><ele>32.0</ele><time>2026-03-29T08:11:39Z</time></trkpt><trkpt lat="41.9454559512509" lon="12.553505237858783"><ele>32.0</ele><time>2026-03-29T08:11:40Z</time></trkpt><trkpt lat="41.94555069855434" lon="12.553616742334254"><ele>32.0</ele><time>2026-03-29T08:11:41Z</time></trkpt><trkpt lat="41.945643060718396" lon="12.553707150768656"><ele>32.0</ele><time>2026-03-29T08:11:42Z</time></trkpt><trkpt lat="41.945736152467106" lon="12.553799185388984"><ele>31.0</ele><time>2026-03-29T08:11:43Z</time></trkpt><trkpt lat="41.94583309356964" lon="12.553887088566224"><ele>30.0</ele><time>2026-03-29T08:11:44Z</time></trkpt><trkpt lat="41.945939149761486" lon="12.553979401504693"><ele>29.0</ele><time>2026-03-29T08:11:45Z</time></trkpt><trkpt lat="41.94606014513855" lon="12.554064818098375"><ele>28.0</ele><time>2026-03-29T08:11:46Z</time></trkpt><trkpt lat="41.94618126201079" lon="12.554152188934314"><ele>28.0</ele><time>2026-03-29T08:11:47Z</time></trkpt><trkpt lat="41.946298204861115" lon="12.554238904631411"><ele>28.0</ele><time>2026-03-29T08:11:48Z</time></trkpt><trkpt lat="41.9464145483598" lon="12.554323919893346"><ele>28.0</ele><time>2026-03-29T08:11:49Z</time></trkpt><trkpt lat="41.946534137091874" lon="12.554418070579539"><ele>28.0</ele><time>2026-03-29T08:11:50Z</time></trkpt><trkpt lat="41.94664419568237" lon="12.554495479189589"><ele>28.2</ele><time>2026-03-29T08:11:51Z</time></trkpt><trkpt lat="41.94675017093719" lon="12.554576647480413"><ele>28.4</ele><time>2026-03-29T08:11:52Z</time></trkpt><trkpt lat="41.94685672937278" lon="12.554653815565034"><ele>28.599999999999998</ele><time>2026-03-29T08:11:53Z</time></trkpt><trkpt lat="41.946945309204565" lon="12.554714592378042"><ele>28.799999999999997</ele><time>2026-03-29T08:11:54Z</time></trkpt><trkpt lat="41.94701132721116" lon="12.554759702754145"><ele>29.0</ele><time>2026-03-29T08:11:55Z</time></trkpt><trkpt lat="41.947066403310764" lon="12.554801499042318"><ele>29.0</ele><time>2026-03-29T08:11:56Z</time></trkpt><trkpt lat="41.94712466315026" lon="12.554837104066545"><ele>29.0</ele><time>2026-03-29T08:11:57Z</time></trkpt><trkpt lat="41.94720031914341" lon="12.554889807472293"><ele>29.0</ele><time>2026-03-29T08:11:58Z</time></trkpt><trkpt lat="41.947299512411455" lon="12.55498408838105"><ele>29.0</ele><time>2026-03-29T08:11:58.999Z</time></trkpt><trkpt lat="41.94743678156013" lon="12.555092756121507"><ele>29.0</ele><time>2026-03-29T08:11:59.999Z</time></trkpt><trkpt lat="41.94761219839136" lon="12.555225904172296"><ele>29.666666666666664</ele><time>2026-03-29T08:12:00.999Z</time></trkpt><trkpt lat="41.947763499120754" lon="12.555314454094637"><ele>30.333333333333336</ele><time>2026-03-29T08:12:01.999Z</time></trkpt><trkpt lat="41.94790970494318" lon="12.55544576540984"><ele>31.0</ele><time>2026-03-29T08:12:02.999Z</time></trkpt><trkpt lat="41.94805274582777" lon="12.555535517573775"><ele>31.4</ele><time>2026-03-29T08:12:03.999Z</time></trkpt><trkpt lat="41.948169974175755" lon="12.555613284848013"><ele>31.8</ele><time>2026-03-29T08:12:04.999Z</time></trkpt><trkpt lat="41.948260159827484" lon="12.555680923230057"><ele>32.199999999999996</ele><time>2026-03-29T08:12:05.999Z</time></trkpt><trkpt lat="41.94832914005725" lon="12.555732009050631"><ele>32.6</ele><time>2026-03-29T08:12:06.999Z</time></trkpt><trkpt lat="41.94840567727418" lon="12.555792583406683"><ele>33.0</ele><time>2026-03-29T08:12:07.999Z</time></trkpt><trkpt lat="41.948489972919106" lon="12.555859143640273"><ele>33.0</ele><time>2026-03-29T08:12:08.999Z</time></trkpt><trkpt lat="41.94856634504674" lon="12.555919220272942"><ele>33.0</ele><time>2026-03-29T08:12:09.999Z</time></trkpt><trkpt lat="41.9486495557833" lon="12.555979458426814"><ele>33.0</ele><time>2026-03-29T08:12:10.999Z</time></trkpt><trkpt lat="41.94872557145095" lon="12.556042118441988"><ele>33.0</ele><time>2026-03-29T08:12:11.999Z</time></trkpt><trkpt lat="41.948785446028985" lon="12.556100108072265"><ele>33.0</ele><time>2026-03-29T08:12:12.999Z</time></trkpt><trkpt lat="41.94884638079364" lon="12.556158048231106"><ele>33.0</ele><time>2026-03-29T08:12:13.999Z</time></trkpt><trkpt lat="41.948908728873114" lon="12.556223721545518"><ele>33.0</ele><time>2026-03-29T08:12:14.999Z</time></trkpt><trkpt lat="41.948973623836174" lon="12.556299785840428"><ele>33.0</ele><time>2026-03-29T08:12:16.999Z</time></trkpt><trkpt lat="41.94902915336366" lon="12.556356059723813"><ele>33.0</ele><time>2026-03-29T08:12:18.999Z</time></trkpt><trkpt lat="41.94910909836233" lon="12.556447518680848"><ele>33.0</ele><time>2026-03-29T08:12:20.999Z</time></trkpt><trkpt lat="41.94915700465561" lon="12.55652886482605"><ele>33.0</ele><time>2026-03-29T08:12:21.999Z</time></trkpt><trkpt lat="41.94921007627146" lon="12.55657463648237"><ele>33.0</ele><time>2026-03-29T08:12:22.999Z</time></trkpt><trkpt lat="41.94922100251034" lon="12.55667256569519"><ele>32.333333333333336</ele><time>2026-03-29T08:12:23.999Z</time></trkpt><trkpt lat="41.94927529976468" lon="12.556826840060117"><ele>31.666666666666664</ele><time>2026-03-29T08:12:25.999Z</time></trkpt><trkpt lat="41.94931951323988" lon="12.556896151215296"><ele>31.0</ele><time>2026-03-29T08:12:26.999Z</time></trkpt><trkpt lat="41.949382123597694" lon="12.556955183873866"><ele>30.333333333333332</ele><time>2026-03-29T08:12:27.999Z</time></trkpt><trkpt lat="41.94945532903719" lon="12.557000525605293"><ele>29.666666666666664</ele><time>2026-03-29T08:12:28.999Z</time></trkpt><trkpt lat="41.94953093992442" lon="12.55706128920715"><ele>29.0</ele><time>2026-03-29T08:12:29.999Z</time></trkpt><trkpt lat="41.949601384010684" lon="12.55715671889377"><ele>29.0</ele><time>2026-03-29T08:12:30.999Z</time></trkpt><trkpt lat="41.949669900915104" lon="12.557284981647044"><ele>29.0</ele><time>2026-03-29T08:12:31.999Z</time></trkpt><trkpt lat="41.949739584138094" lon="12.557430397250242"><ele>29.0</ele><time>2026-03-29T08:12:32.999Z</time></trkpt><trkpt lat="41.949808426612655" lon="12.557572913011253"><ele>29.0</ele><time>2026-03-29T08:12:33.999Z</time></trkpt><trkpt lat="41.949873731971" lon="12.557706870837379"><ele>29.0</ele><time>2026-03-29T08:12:34.999Z</time></trkpt><trkpt lat="41.949933536458" lon="12.557819439614287"><ele>29.0</ele><time>2026-03-29T08:12:35.999Z</time></trkpt><trkpt lat="41.949995643459715" lon="12.557942264688704"><ele>29.0</ele><time>2026-03-29T08:12:36.999Z</time></trkpt><trkpt lat="41.950058223530036" lon="12.558068035278188"><ele>29.0</ele><time>2026-03-29T08:12:37.999Z</time></trkpt><trkpt lat="41.95012243437431" lon="12.558198468082326"><ele>29.0</ele><time>2026-03-29T08:12:38.999Z</time></trkpt><trkpt lat="41.95019010292659" lon="12.558334200128675"><ele>28.5</ele><time>2026-03-29T08:12:39.999Z</time></trkpt><trkpt lat="41.95026711276531" lon="12.558482905564725"><ele>28.0</ele><time>2026-03-29T08:12:40.999Z</time></trkpt><trkpt lat="41.95035150731943" lon="12.558647656799632"><ele>27.5</ele><time>2026-03-29T08:12:41.999Z</time></trkpt><trkpt lat="41.950440104180416" lon="12.55882444415824"><ele>27.0</ele><time>2026-03-29T08:12:42.999Z</time></trkpt><trkpt lat="41.950528886040665" lon="12.559007427099184"><ele>27.0</ele><time>2026-03-29T08:12:43.999Z</time></trkpt><trkpt lat="41.950613189807335" lon="12.559177306392646"><ele>27.0</ele><time>2026-03-29T08:12:44.999Z</time></trkpt><trkpt lat="41.95069132882031" lon="12.559337512092057"><ele>27.0</ele><time>2026-03-29T08:12:45.999Z</time></trkpt><trkpt lat="41.95077341695759" lon="12.559505171123309"><ele>27.0</ele><time>2026-03-29T08:12:46.999Z</time></trkpt><trkpt lat="41.95085760070666" lon="12.559671396045028"><ele>27.25</ele><time>2026-03-29T08:12:47.999Z</time></trkpt><trkpt lat="41.95093928916589" lon="12.559832163071693"><ele>27.5</ele><time>2026-03-29T08:12:48.999Z</time></trkpt><trkpt lat="41.951016756590974" lon="12.559987322252113"><ele>27.75</ele><time>2026-03-29T08:12:49.999Z</time></trkpt><trkpt lat="41.95108580841214" lon="12.560130931756827"><ele>28.0</ele><time>2026-03-29T08:12:50.999Z</time></trkpt><trkpt lat="41.951153602068366" lon="12.560266975568931"><ele>27.599999999999998</ele><time>2026-03-29T08:12:51.999Z</time></trkpt><trkpt lat="41.951212838036135" lon="12.5603906838445"><ele>27.199999999999996</ele><time>2026-03-29T08:12:52.999Z</time></trkpt><trkpt lat="41.95126537173605" lon="12.560500207496172"><ele>26.8</ele><time>2026-03-29T08:12:53.999Z</time></trkpt><trkpt lat="41.95131170842518" lon="12.560597997694263"><ele>26.4</ele><time>2026-03-29T08:12:54.999Z</time></trkpt><trkpt lat="41.951355280744345" lon="12.560691495879837"><ele>26.0</ele><time>2026-03-29T08:12:55.999Z</time></trkpt><trkpt lat="41.95139996822741" lon="12.560789731258287"><ele>26.0</ele><time>2026-03-29T08:12:56.999Z</time></trkpt><trkpt lat="41.95143297104265" lon="12.56090153957721"><ele>26.0</ele><time>2026-03-29T08:12:57.999Z</time></trkpt><trkpt lat="41.95143872251166" lon="12.561041523246795"><ele>26.0</ele><time>2026-03-29T08:12:59Z</time></trkpt><trkpt lat="41.95146280560167" lon="12.561153990051807"><ele>26.0</ele><time>2026-03-29T08:13:00Z</time></trkpt><trkpt lat="41.951530938957944" lon="12.561238861104142"><ele>26.0</ele><time>2026-03-29T08:13:01Z</time></trkpt><trkpt lat="41.95160993570455" lon="12.561297904300593"><ele>26.25</ele><time>2026-03-29T08:13:02Z</time></trkpt><trkpt lat="41.95168729684817" lon="12.561370709687386"><ele>26.5</ele><time>2026-03-29T08:13:03Z</time></trkpt><trkpt lat="41.95175815255388" lon="12.56150776619137"><ele>26.75</ele><time>2026-03-29T08:13:04Z</time></trkpt><trkpt lat="41.95181491682408" lon="12.561705358953438"><ele>27.0</ele><time>2026-03-29T08:13:05Z</time></trkpt><trkpt lat="41.95185716777349" lon="12.561930636714305"><ele>26.333333333333336</ele><time>2026-03-29T08:13:06Z</time></trkpt><trkpt lat="41.95189144639338" lon="12.562172433127174"><ele>25.666666666666668</ele><time>2026-03-29T08:13:07Z</time></trkpt><trkpt lat="41.951921291166755" lon="12.562407614679584"><ele>25.0</ele><time>2026-03-29T08:13:08Z</time></trkpt><trkpt lat="41.951941758915346" lon="12.562626058765666"><ele>25.0</ele><time>2026-03-29T08:13:09Z</time></trkpt><trkpt lat="41.9519504760043" lon="12.562844846979056"><ele>25.0</ele><time>2026-03-29T08:13:10Z</time></trkpt><trkpt lat="41.95194545440051" lon="12.563075026138975"><ele>25.0</ele><time>2026-03-29T08:13:11Z</time></trkpt><trkpt lat="41.95193480477067" lon="12.56328860969516"><ele>26.333333333333336</ele><time>2026-03-29T08:13:12Z</time></trkpt><trkpt lat="41.95191401927803" lon="12.563488161887246"><ele>27.666666666666664</ele><time>2026-03-29T08:13:13Z</time></trkpt><trkpt lat="41.9518884751602" lon="12.563695643073737"><ele>29.0</ele><time>2026-03-29T08:13:14Z</time></trkpt><trkpt lat="41.95186238453344" lon="12.563917923040883"><ele>29.0</ele><time>2026-03-29T08:13:15Z</time></trkpt><trkpt lat="41.95183648603208" lon="12.564136461508747"><ele>29.0</ele><time>2026-03-29T08:13:16Z</time></trkpt><trkpt lat="41.95181124942163" lon="12.564357441923208"><ele>29.0</ele><time>2026-03-29T08:13:17Z</time></trkpt><trkpt lat="41.95179075010995" lon="12.564586189652927"><ele>29.333333333333332</ele><time>2026-03-29T08:13:18Z</time></trkpt><trkpt lat="41.95177294329697" lon="12.564825746982148"><ele>29.666666666666664</ele><time>2026-03-29T08:13:19Z</time></trkpt><trkpt lat="41.95176012133643" lon="12.56507736307188"><ele>30.0</ele><time>2026-03-29T08:13:20Z</time></trkpt><trkpt lat="41.95175110425113" lon="12.56533067247329"><ele>30.666666666666664</ele><time>2026-03-29T08:13:21Z</time></trkpt><trkpt lat="41.95174936458581" lon="12.565577655699332"><ele>31.333333333333332</ele><time>2026-03-29T08:13:22Z</time></trkpt><trkpt lat="41.95175128274941" lon="12.565827075090837"><ele>32.0</ele><time>2026-03-29T08:13:23Z</time></trkpt><trkpt lat="41.951760606088214" lon="12.566068971347937"><ele>33.666666666666664</ele><time>2026-03-29T08:13:24Z</time></trkpt><trkpt lat="41.95177437864158" lon="12.566304563115324"><ele>35.333333333333336</ele><time>2026-03-29T08:13:25Z</time></trkpt><trkpt lat="41.95179334240081" lon="12.566536312406788"><ele>37.0</ele><time>2026-03-29T08:13:26Z</time></trkpt><trkpt lat="41.951815586831614" lon="12.566748841736185"><ele>37.0</ele><time>2026-03-29T08:13:27Z</time></trkpt><trkpt lat="41.95183383813192" lon="12.566926756848025"><ele>37.0</ele><time>2026-03-29T08:13:28Z</time></trkpt><trkpt lat="41.95184243363999" lon="12.567082456411802"><ele>37.0</ele><time>2026-03-29T08:13:29Z</time></trkpt><trkpt lat="41.951849989297706" lon="12.567221136203806"><ele>37.0</ele><time>2026-03-29T08:13:30Z</time></trkpt><trkpt lat="41.95180769934905" lon="12.567336008591958"><ele>37.0</ele><time>2026-03-29T08:13:31Z</time></trkpt><trkpt lat="41.951793869605645" lon="12.56745889199453"><ele>37.25</ele><time>2026-03-29T08:13:32Z</time></trkpt><trkpt lat="41.95182909580097" lon="12.567584597401098"><ele>37.5</ele><time>2026-03-29T08:13:33Z</time></trkpt><trkpt lat="41.95192314284339" lon="12.56767250613365"><ele>37.75</ele><time>2026-03-29T08:13:34Z</time></trkpt><trkpt lat="41.95196138441578" lon="12.567859045732343"><ele>38.0</ele><time>2026-03-29T08:13:35Z</time></trkpt><trkpt lat="41.95198535676088" lon="12.568081539964174"><ele>38.33333333333333</ele><time>2026-03-29T08:13:36Z</time></trkpt><trkpt lat="41.95201274260055" lon="12.568351693021055"><ele>38.666666666666664</ele><time>2026-03-29T08:13:37Z</time></trkpt><trkpt lat="41.952055931309125" lon="12.568582008482561"><ele>39.0</ele><time>2026-03-29T08:13:38Z</time></trkpt><trkpt lat="41.95208592360113" lon="12.568810761760648"><ele>39.0</ele><time>2026-03-29T08:13:39Z</time></trkpt><trkpt lat="41.95210175475787" lon="12.569025593122756"><ele>39.0</ele><time>2026-03-29T08:13:40Z</time></trkpt><trkpt lat="41.95212824085807" lon="12.56922166225741"><ele>39.0</ele><time>2026-03-29T08:13:41Z</time></trkpt><trkpt lat="41.95215606109688" lon="12.569427268153877"><ele>39.333333333333336</ele><time>2026-03-29T08:13:42Z</time></trkpt><trkpt lat="41.952182352569395" lon="12.569631899350036"><ele>39.66666666666667</ele><time>2026-03-29T08:13:43Z</time></trkpt><trkpt lat="41.95220170809774" lon="12.569833260946757"><ele>40.0</ele><time>2026-03-29T08:13:44Z</time></trkpt><trkpt lat="41.95221179756779" lon="12.57003546078459"><ele>40.0</ele><time>2026-03-29T08:13:45Z</time></trkpt><trkpt lat="41.95220747085021" lon="12.57025330720535"><ele>40.0</ele><time>2026-03-29T08:13:46Z</time></trkpt><trkpt lat="41.952180180076496" lon="12.570449715928552"><ele>40.0</ele><time>2026-03-29T08:13:47Z</time></trkpt><trkpt lat="41.952145335030096" lon="12.570617911738275"><ele>40.0</ele><time>2026-03-29T08:13:48Z</time></trkpt><trkpt lat="41.95210906840537" lon="12.570744639205882"><ele>40.66666666666667</ele><time>2026-03-29T08:13:49Z</time></trkpt><trkpt lat="41.95207329908786" lon="12.570847156652764"><ele>41.333333333333336</ele><time>2026-03-29T08:13:50Z</time></trkpt><trkpt lat="41.95204203033333" lon="12.57093178287516"><ele>42.0</ele><time>2026-03-29T08:13:51Z</time></trkpt><trkpt lat="41.95199563224018" lon="12.571067624524497"><ele>42.666666666666664</ele><time>2026-03-29T08:13:53Z</time></trkpt><trkpt lat="41.951954733465094" lon="12.571173248288606"><ele>43.33333333333333</ele><time>2026-03-29T08:13:55Z</time></trkpt><trkpt lat="41.951907380531885" lon="12.571271877687273"><ele>44.0</ele><time>2026-03-29T08:14:12.999Z</time></trkpt><trkpt lat="41.951872597016745" lon="12.571359623981683"><ele>45.2</ele><time>2026-03-29T08:14:14.999Z</time></trkpt><trkpt lat="41.951841581768925" lon="12.571435544650663"><ele>46.400000000000006</ele><time>2026-03-29T08:14:16.999Z</time></trkpt><trkpt lat="41.95184437093232" lon="12.57156191430711"><ele>47.6</ele><time>2026-03-29T08:14:18.999Z</time></trkpt><trkpt lat="41.95194868869986" lon="12.571663264815038"><ele>48.8</ele><time>2026-03-29T08:14:20.999Z</time></trkpt><trkpt lat="41.95201072163354" lon="12.57170090978702"><ele>50.0</ele><time>2026-03-29T08:14:21.999Z</time></trkpt><trkpt lat="41.95210498210484" lon="12.571750105647858"><ele>50.0</ele><time>2026-03-29T08:14:22.999Z</time></trkpt><trkpt lat="41.95220392075004" lon="12.571811929300921"><ele>50.0</ele><time>2026-03-29T08:14:23.999Z</time></trkpt><trkpt lat="41.952299660013956" lon="12.571874945361555"><ele>50.0</ele><time>2026-03-29T08:14:24.999Z</time></trkpt><trkpt lat="41.95239279807959" lon="12.571937643665496"><ele>50.0</ele><time>2026-03-29T08:14:25.999Z</time></trkpt><trkpt lat="41.952485310609596" lon="12.572008540084042"><ele>50.0</ele><time>2026-03-29T08:14:26.999Z</time></trkpt><trkpt lat="41.9525791915898" lon="12.572092368058694"><ele>49.75</ele><time>2026-03-29T08:14:27.999Z</time></trkpt><trkpt lat="41.952667563521274" lon="12.572183876820944"><ele>49.5</ele><time>2026-03-29T08:14:28.999Z</time></trkpt><trkpt lat="41.95275867528297" lon="12.572285429618717"><ele>49.25</ele><time>2026-03-29T08:14:29.999Z</time></trkpt><trkpt lat="41.95284686487278" lon="12.572388226494962"><ele>49.0</ele><time>2026-03-29T08:14:30.999Z</time></trkpt><trkpt lat="41.952925533619506" lon="12.572488223487074"><ele>49.0</ele><time>2026-03-29T08:14:31.999Z</time></trkpt><trkpt lat="41.952995781744306" lon="12.572584767054572"><ele>49.0</ele><time>2026-03-29T08:14:32.999Z</time></trkpt><trkpt lat="41.9530608382951" lon="12.572685477067145"><ele>49.0</ele><time>2026-03-29T08:14:33.999Z</time></trkpt><trkpt lat="41.95312853379856" lon="12.572791673292866"><ele>49.0</ele><time>2026-03-29T08:14:34.999Z</time></trkpt><trkpt lat="41.95318561647736" lon="12.572883003681445"><ele>49.0</ele><time>2026-03-29T08:14:35.999Z</time></trkpt><trkpt lat="41.95325242548695" lon="12.572973631625457"><ele>48.5</ele><time>2026-03-29T08:14:36.999Z</time></trkpt><trkpt lat="41.95331805051978" lon="12.573083087969442"><ele>48.0</ele><time>2026-03-29T08:14:37.999Z</time></trkpt><trkpt lat="41.95339451586697" lon="12.573203284540494"><ele>47.5</ele><time>2026-03-29T08:14:38.999Z</time></trkpt><trkpt lat="41.953474399299644" lon="12.573332357698716"><ele>47.0</ele><time>2026-03-29T08:14:39.999Z</time></trkpt><trkpt lat="41.95358084585119" lon="12.57350319926045"><ele>46.666666666666664</ele><time>2026-03-29T08:14:40.999Z</time></trkpt><trkpt lat="41.953695621125675" lon="12.573692887551564"><ele>46.333333333333336</ele><time>2026-03-29T08:14:41.999Z</time></trkpt><trkpt lat="41.953784593203274" lon="12.573847040171588"><ele>46.0</ele><time>2026-03-29T08:14:42.999Z</time></trkpt><trkpt lat="41.953864841163664" lon="12.573985059118105"><ele>46.0</ele><time>2026-03-29T08:14:43.999Z</time></trkpt><trkpt lat="41.95395837820123" lon="12.574144367991181"><ele>46.0</ele><time>2026-03-29T08:14:44.999Z</time></trkpt><trkpt lat="41.95406342116755" lon="12.574325694257366"><ele>46.0</ele><time>2026-03-29T08:14:45.999Z</time></trkpt><trkpt lat="41.9541676416312" lon="12.574498315773331"><ele>47.0</ele><time>2026-03-29T08:14:46.999Z</time></trkpt><trkpt lat="41.95426827545843" lon="12.574663775272162"><ele>48.0</ele><time>2026-03-29T08:14:47.999Z</time></trkpt><trkpt lat="41.95435962933309" lon="12.574817235235544"><ele>49.0</ele><time>2026-03-29T08:14:48.999Z</time></trkpt><trkpt lat="41.95443838076817" lon="12.574957422613382"><ele>50.0</ele><time>2026-03-29T08:14:49.999Z</time></trkpt><trkpt lat="41.95450584402728" lon="12.57508278033555"><ele>50.0</ele><time>2026-03-29T08:14:50.999Z</time></trkpt><trkpt lat="41.95457204304819" lon="12.575205526977754"><ele>50.0</ele><time>2026-03-29T08:14:51.999Z</time></trkpt><trkpt lat="41.95463346968246" lon="12.57531044206898"><ele>50.0</ele><time>2026-03-29T08:14:52.999Z</time></trkpt><trkpt lat="41.95469574903413" lon="12.575417963299406"><ele>50.0</ele><time>2026-03-29T08:14:53.999Z</time></trkpt><trkpt lat="41.95475768282171" lon="12.575520351005629"><ele>50.0</ele><time>2026-03-29T08:14:54.999Z</time></trkpt><trkpt lat="41.954815688839716" lon="12.575626643751717"><ele>49.75</ele><time>2026-03-29T08:14:55.999Z</time></trkpt><trkpt lat="41.95488572320253" lon="12.575745381658631"><ele>49.5</ele><time>2026-03-29T08:14:56.999Z</time></trkpt><trkpt lat="41.9549601042258" lon="12.575873816718763"><ele>49.25</ele><time>2026-03-29T08:14:57.999Z</time></trkpt><trkpt lat="41.95503616542696" lon="12.576006128607272"><ele>49.0</ele><time>2026-03-29T08:14:58.999Z</time></trkpt><trkpt lat="41.955109417681534" lon="12.57613803581984"><ele>49.75</ele><time>2026-03-29T08:14:59.999Z</time></trkpt><trkpt lat="41.95518409236833" lon="12.576269494583963"><ele>50.5</ele><time>2026-03-29T08:15:00.999Z</time></trkpt><trkpt lat="41.95526417413405" lon="12.5764056586232"><ele>51.25</ele><time>2026-03-29T08:15:01.999Z</time></trkpt><trkpt lat="41.95534369852897" lon="12.57654312493399"><ele>52.0</ele><time>2026-03-29T08:15:02.999Z</time></trkpt><trkpt lat="41.95542959010188" lon="12.57668733798085"><ele>52.0</ele><time>2026-03-29T08:15:04Z</time></trkpt><trkpt lat="41.95552107420224" lon="12.576841705970521"><ele>52.0</ele><time>2026-03-29T08:15:05Z</time></trkpt><trkpt lat="41.955607371323026" lon="12.576989606030281"><ele>52.0</ele><time>2026-03-29T08:15:06Z</time></trkpt><trkpt lat="41.95569211917293" lon="12.57713317237177"><ele>52.0</ele><time>2026-03-29T08:15:07Z</time></trkpt><trkpt lat="41.9557830575612" lon="12.577284808615477"><ele>52.0</ele><time>2026-03-29T08:15:08Z</time></trkpt><trkpt lat="41.95587466474663" lon="12.577440907010375"><ele>52.0</ele><time>2026-03-29T08:15:09Z</time></trkpt><trkpt lat="41.955955381477516" lon="12.57757654278926"><ele>52.0</ele><time>2026-03-29T08:15:10Z</time></trkpt><trkpt lat="41.95603255991158" lon="12.577710096933869"><ele>52.0</ele><time>2026-03-29T08:15:11Z</time></trkpt><trkpt lat="41.95610257379896" lon="12.577839281611595"><ele>52.25</ele><time>2026-03-29T08:15:12Z</time></trkpt><trkpt lat="41.95617322273231" lon="12.577963525854345"><ele>52.5</ele><time>2026-03-29T08:15:13Z</time></trkpt><trkpt lat="41.95625338493191" lon="12.57809241125572"><ele>52.75</ele><time>2026-03-29T08:15:14Z</time></trkpt><trkpt lat="41.956346462023305" lon="12.57823581088554"><ele>53.0</ele><time>2026-03-29T08:15:15Z</time></trkpt><trkpt lat="41.956453491298134" lon="12.578388790471786"><ele>53.0</ele><time>2026-03-29T08:15:16Z</time></trkpt><trkpt lat="41.956573274138144" lon="12.578534757546784"><ele>53.0</ele><time>2026-03-29T08:15:17Z</time></trkpt><trkpt lat="41.95669772467189" lon="12.578673427684382"><ele>53.0</ele><time>2026-03-29T08:15:18Z</time></trkpt><trkpt lat="41.95683080917388" lon="12.578827125660512"><ele>52.0</ele><time>2026-03-29T08:15:19Z</time></trkpt><trkpt lat="41.95696563160993" lon="12.578991600212854"><ele>51.0</ele><time>2026-03-29T08:15:20Z</time></trkpt><trkpt lat="41.95709562273541" lon="12.57916823767034"><ele>50.0</ele><time>2026-03-29T08:15:21Z</time></trkpt><trkpt lat="41.95721096296126" lon="12.57935486902404"><ele>51.66666666666667</ele><time>2026-03-29T08:15:22Z</time></trkpt><trkpt lat="41.95731522500997" lon="12.579558064566214"><ele>53.33333333333333</ele><time>2026-03-29T08:15:23Z</time></trkpt><trkpt lat="41.95740882143662" lon="12.579773350075262"><ele>55.0</ele><time>2026-03-29T08:15:24Z</time></trkpt><trkpt lat="41.95748773274979" lon="12.579989740629795"><ele>53.666666666666664</ele><time>2026-03-29T08:15:25Z</time></trkpt><trkpt lat="41.95755611148165" lon="12.580196582250233"><ele>52.33333333333333</ele><time>2026-03-29T08:15:26Z</time></trkpt><trkpt lat="41.95761920683518" lon="12.580387215399085"><ele>51.0</ele><time>2026-03-29T08:15:27Z</time></trkpt><trkpt lat="41.95768065522411" lon="12.5805572378883"><ele>51.0</ele><time>2026-03-29T08:15:28Z</time></trkpt><trkpt lat="41.95774256796512" lon="12.580733186867354"><ele>51.0</ele><time>2026-03-29T08:15:29Z</time></trkpt><trkpt lat="41.957802012559945" lon="12.5809023907553"><ele>51.0</ele><time>2026-03-29T08:15:30Z</time></trkpt><trkpt lat="41.957858462708764" lon="12.581060721397312"><ele>51.0</ele><time>2026-03-29T08:15:31Z</time></trkpt><trkpt lat="41.95791441078234" lon="12.581220919835134"><ele>51.0</ele><time>2026-03-29T08:15:32Z</time></trkpt><trkpt lat="41.957974552744325" lon="12.581391727448546"><ele>51.0</ele><time>2026-03-29T08:15:33Z</time></trkpt><trkpt lat="41.95803504167119" lon="12.581577076671302"><ele>51.0</ele><time>2026-03-29T08:15:34Z</time></trkpt><trkpt lat="41.958093766821634" lon="12.581776894567472"><ele>51.0</ele><time>2026-03-29T08:15:35Z</time></trkpt><trkpt lat="41.95814520581719" lon="12.581994658209245"><ele>51.0</ele><time>2026-03-29T08:15:36Z</time></trkpt><trkpt lat="41.95817973479546" lon="12.582224133457444"><ele>51.0</ele><time>2026-03-29T08:15:37Z</time></trkpt><trkpt lat="41.958192472281816" lon="12.582458457826315"><ele>51.66666666666667</ele><time>2026-03-29T08:15:38Z</time></trkpt><trkpt lat="41.95819821939575" lon="12.582691863071366"><ele>52.333333333333336</ele><time>2026-03-29T08:15:39Z</time></trkpt><trkpt lat="41.95820285916974" lon="12.582915881223185"><ele>53.0</ele><time>2026-03-29T08:15:40Z</time></trkpt><trkpt lat="41.95821006254863" lon="12.583139676009635"><ele>52.66666666666667</ele><time>2026-03-29T08:15:41Z</time></trkpt><trkpt lat="41.958234175473585" lon="12.583359955895927"><ele>52.33333333333333</ele><time>2026-03-29T08:15:42Z</time></trkpt><trkpt lat="41.95828251379941" lon="12.5835528294083"><ele>52.0</ele><time>2026-03-29T08:15:43Z</time></trkpt><trkpt lat="41.95835152694253" lon="12.583731534957456"><ele>51.5</ele><time>2026-03-29T08:15:44Z</time></trkpt><trkpt lat="41.95841800971701" lon="12.583892711245197"><ele>51.0</ele><time>2026-03-29T08:15:45Z</time></trkpt><trkpt lat="41.958477602615496" lon="12.584033032446557"><ele>50.5</ele><time>2026-03-29T08:15:46Z</time></trkpt><trkpt lat="41.95853593613567" lon="12.584197312904577"><ele>50.0</ele><time>2026-03-29T08:15:47Z</time></trkpt><trkpt lat="41.95859148738073" lon="12.584382809924044"><ele>50.5</ele><time>2026-03-29T08:15:48Z</time></trkpt><trkpt lat="41.95864476578876" lon="12.584570284093365"><ele>51.0</ele><time>2026-03-29T08:15:49Z</time></trkpt><trkpt lat="41.95869875262254" lon="12.584752911342862"><ele>51.5</ele><time>2026-03-29T08:15:50Z</time></trkpt><trkpt lat="41.958752247095795" lon="12.584929639102342"><ele>52.0</ele><time>2026-03-29T08:15:51Z</time></trkpt><trkpt lat="41.95880732262381" lon="12.585110322510177"><ele>52.0</ele><time>2026-03-29T08:15:52Z</time></trkpt><trkpt lat="41.958865745331195" lon="12.585312218027564"><ele>52.0</ele><time>2026-03-29T08:15:53Z</time></trkpt><trkpt lat="41.95892719823305" lon="12.58552078295172"><ele>52.0</ele><time>2026-03-29T08:15:54Z</time></trkpt><trkpt lat="41.958986546793255" lon="12.585732910646803"><ele>52.33333333333333</ele><time>2026-03-29T08:15:55Z</time></trkpt><trkpt lat="41.959043005217566" lon="12.58593652174327"><ele>52.66666666666667</ele><time>2026-03-29T08:15:56Z</time></trkpt><trkpt lat="41.95910179749925" lon="12.586141508481678"><ele>53.0</ele><time>2026-03-29T08:15:57Z</time></trkpt><trkpt lat="41.95916039226563" lon="12.586350287084622"><ele>52.333333333333336</ele><time>2026-03-29T08:15:58Z</time></trkpt><trkpt lat="41.95922095248648" lon="12.586561733282151"><ele>51.66666666666667</ele><time>2026-03-29T08:15:59Z</time></trkpt><trkpt lat="41.95928516872888" lon="12.586775163368424"><ele>51.0</ele><time>2026-03-29T08:16:00Z</time></trkpt><trkpt lat="41.95934726581951" lon="12.586990747210809"><ele>52.0</ele><time>2026-03-29T08:16:01Z</time></trkpt><trkpt lat="41.95940260309962" lon="12.587200025869096"><ele>53.0</ele><time>2026-03-29T08:16:02Z</time></trkpt><trkpt lat="41.959462621389356" lon="12.587407512638741"><ele>54.0</ele><time>2026-03-29T08:16:03Z</time></trkpt><trkpt lat="41.95952302483207" lon="12.58761709271803"><ele>54.0</ele><time>2026-03-29T08:16:04Z</time></trkpt><trkpt lat="41.95958335964524" lon="12.587824517193871"><ele>54.0</ele><time>2026-03-29T08:16:05Z</time></trkpt><trkpt lat="41.959647794699144" lon="12.588029321790248"><ele>54.0</ele><time>2026-03-29T08:16:06Z</time></trkpt><trkpt lat="41.95972792372078" lon="12.588240575960004"><ele>55.66666666666667</ele><time>2026-03-29T08:16:07Z</time></trkpt><trkpt lat="41.95981857660208" lon="12.588453067643648"><ele>57.333333333333336</ele><time>2026-03-29T08:16:08Z</time></trkpt><trkpt lat="41.95991289139864" lon="12.588670381556351"><ele>59.0</ele><time>2026-03-29T08:16:09Z</time></trkpt><trkpt lat="41.96000893867783" lon="12.588892804109074"><ele>58.66666666666667</ele><time>2026-03-29T08:16:10Z</time></trkpt><trkpt lat="41.960105763934344" lon="12.589108991156156"><ele>58.33333333333333</ele><time>2026-03-29T08:16:11Z</time></trkpt><trkpt lat="41.960202419704146" lon="12.589333592719845"><ele>58.0</ele><time>2026-03-29T08:16:12Z</time></trkpt><trkpt lat="41.96029807475252" lon="12.5895561783267"><ele>58.0</ele><time>2026-03-29T08:16:12.999Z</time></trkpt><trkpt lat="41.96040159758112" lon="12.589783784717694"><ele>58.0</ele><time>2026-03-29T08:16:13.999Z</time></trkpt><trkpt lat="41.96050001821567" lon="12.590010100929014"><ele>58.0</ele><time>2026-03-29T08:16:14.999Z</time></trkpt><trkpt lat="41.96059583012925" lon="12.59022917416462"><ele>57.33333333333333</ele><time>2026-03-29T08:16:15.999Z</time></trkpt><trkpt lat="41.96068379850165" lon="12.59043022768066"><ele>56.66666666666667</ele><time>2026-03-29T08:16:16.999Z</time></trkpt><trkpt lat="41.96076570182154" lon="12.590618362189712"><ele>56.0</ele><time>2026-03-29T08:16:17.999Z</time></trkpt><trkpt lat="41.96084823776172" lon="12.590799550630983"><ele>55.0</ele><time>2026-03-29T08:16:18.999Z</time></trkpt><trkpt lat="41.9609325241697" lon="12.59099130481848"><ele>54.0</ele><time>2026-03-29T08:16:19.999Z</time></trkpt><trkpt lat="41.96102105780435" lon="12.591187913914485"><ele>53.0</ele><time>2026-03-29T08:16:20.999Z</time></trkpt><trkpt lat="41.96111313903593" lon="12.59139063059908"><ele>53.0</ele><time>2026-03-29T08:16:21.999Z</time></trkpt><trkpt lat="41.96120946661249" lon="12.591594540219342"><ele>53.0</ele><time>2026-03-29T08:16:22.999Z</time></trkpt><trkpt lat="41.961306626110655" lon="12.591803535514932"><ele>53.0</ele><time>2026-03-29T08:16:23.999Z</time></trkpt><trkpt lat="41.9614018075984" lon="12.592006397516787"><ele>54.0</ele><time>2026-03-29T08:16:24.999Z</time></trkpt><trkpt lat="41.96149769429963" lon="12.592211300213707"><ele>55.0</ele><time>2026-03-29T08:16:25.999Z</time></trkpt><trkpt lat="41.961597076321354" lon="12.592419913490813"><ele>56.0</ele><time>2026-03-29T08:16:26.999Z</time></trkpt><trkpt lat="41.96169750813686" lon="12.592634104969198"><ele>57.333333333333336</ele><time>2026-03-29T08:16:27.999Z</time></trkpt><trkpt lat="41.96179927647244" lon="12.592850881310868"><ele>58.66666666666667</ele><time>2026-03-29T08:16:28.999Z</time></trkpt><trkpt lat="41.96189779953141" lon="12.593057568035082"><ele>60.0</ele><time>2026-03-29T08:16:29.999Z</time></trkpt><trkpt lat="41.96198992592816" lon="12.59324975295451"><ele>60.0</ele><time>2026-03-29T08:16:30.999Z</time></trkpt><trkpt lat="41.962075785318326" lon="12.593427993143045"><ele>60.0</ele><time>2026-03-29T08:16:31.999Z</time></trkpt><trkpt lat="41.96216363024052" lon="12.593614560746481"><ele>60.0</ele><time>2026-03-29T08:16:32.999Z</time></trkpt><trkpt lat="41.96225466917185" lon="12.593798734248157"><ele>59.66666666666667</ele><time>2026-03-29T08:16:33.999Z</time></trkpt><trkpt lat="41.96235487462087" lon="12.593981470351402"><ele>59.333333333333336</ele><time>2026-03-29T08:16:34.999Z</time></trkpt><trkpt lat="41.9624590355863" lon="12.594161206297414"><ele>59.0</ele><time>2026-03-29T08:16:35.999Z</time></trkpt><trkpt lat="41.96257919939291" lon="12.594329865066928"><ele>59.0</ele><time>2026-03-29T08:16:36.999Z</time></trkpt><trkpt lat="41.962703524258664" lon="12.594490757381102"><ele>59.0</ele><time>2026-03-29T08:16:37.999Z</time></trkpt><trkpt lat="41.96282526078366" lon="12.59462907546406"><ele>59.0</ele><time>2026-03-29T08:16:38.999Z</time></trkpt><trkpt lat="41.962952610402745" lon="12.594770844367382"><ele>60.0</ele><time>2026-03-29T08:16:39.999Z</time></trkpt><trkpt lat="41.963083647510544" lon="12.594916787064568"><ele>61.0</ele><time>2026-03-29T08:16:40.999Z</time></trkpt><trkpt lat="41.963205768096806" lon="12.595050818163335"><ele>62.0</ele><time>2026-03-29T08:16:41.999Z</time></trkpt><trkpt lat="41.963314760315164" lon="12.595170757205587"><ele>62.25</ele><time>2026-03-29T08:16:42.999Z</time></trkpt><trkpt lat="41.96341307469953" lon="12.595280550872676"><ele>62.5</ele><time>2026-03-29T08:16:43.999Z</time></trkpt><trkpt lat="41.96350410543973" lon="12.59538305996117"><ele>62.75</ele><time>2026-03-29T08:16:44.999Z</time></trkpt><trkpt lat="41.96359088788623" lon="12.59548329346836"><ele>63.0</ele><time>2026-03-29T08:16:45.999Z</time></trkpt><trkpt lat="41.96367215467437" lon="12.595578790294645"><ele>63.0</ele><time>2026-03-29T08:16:46.999Z</time></trkpt><trkpt lat="41.96375714103169" lon="12.595674499805174"><ele>63.0</ele><time>2026-03-29T08:16:47.999Z</time></trkpt><trkpt lat="41.96384266856092" lon="12.595773270843239"><ele>63.0</ele><time>2026-03-29T08:16:48.999Z</time></trkpt><trkpt lat="41.9639178135579" lon="12.595859684492325"><ele>63.0</ele><time>2026-03-29T08:16:49.999Z</time></trkpt><trkpt lat="41.963986262847946" lon="12.595940257398603"><ele>63.0</ele><time>2026-03-29T08:16:50.999Z</time></trkpt><trkpt lat="41.96404755516323" lon="12.596009309570992"><ele>63.0</ele><time>2026-03-29T08:16:51.999Z</time></trkpt><trkpt lat="41.964104238030636" lon="12.596073371954027"><ele>63.0</ele><time>2026-03-29T08:16:52.999Z</time></trkpt><trkpt lat="41.96416018752795" lon="12.596134431081131"><ele>63.0</ele><time>2026-03-29T08:16:53.999Z</time></trkpt><trkpt lat="41.96424127110391" lon="12.596229864131715"><ele>63.0</ele><time>2026-03-29T08:16:55.999Z</time></trkpt><trkpt lat="41.964296930151534" lon="12.59629410441967"><ele>63.0</ele><time>2026-03-29T08:16:57.999Z</time></trkpt><trkpt lat="41.9643559120579" lon="12.596359663507485"><ele>63.0</ele><time>2026-03-29T08:16:59.999Z</time></trkpt><trkpt lat="41.96442168640389" lon="12.596432415716482"><ele>63.599999999999994</ele><time>2026-03-29T08:17:01.999Z</time></trkpt><trkpt lat="41.964512663337906" lon="12.596541583778203"><ele>64.19999999999999</ele><time>2026-03-29T08:17:03.999Z</time></trkpt><trkpt lat="41.96457794557147" lon="12.596631801859665"><ele>64.8</ele><time>2026-03-29T08:17:05.999Z</time></trkpt><trkpt lat="41.96463039445077" lon="12.59667966389471"><ele>65.39999999999999</ele><time>2026-03-29T08:17:07.999Z</time></trkpt><trkpt lat="41.964714342024614" lon="12.596774685596303"><ele>66.0</ele><time>2026-03-29T08:17:10Z</time></trkpt><trkpt lat="41.96476392228814" lon="12.59683270811246"><ele>66.0</ele><time>2026-03-29T08:17:11Z</time></trkpt><trkpt lat="41.96483241050205" lon="12.596909528788649"><ele>66.0</ele><time>2026-03-29T08:17:12Z</time></trkpt><trkpt lat="41.964905686835166" lon="12.596988170883119"><ele>66.0</ele><time>2026-03-29T08:17:13Z</time></trkpt><trkpt lat="41.964967412910134" lon="12.59706143874473"><ele>66.0</ele><time>2026-03-29T08:17:14Z</time></trkpt><trkpt lat="41.965031366867876" lon="12.597140804525171"><ele>66.0</ele><time>2026-03-29T08:17:15Z</time></trkpt><trkpt lat="41.965109890105644" lon="12.597240316412371"><ele>66.39999999999999</ele><time>2026-03-29T08:17:16Z</time></trkpt><trkpt lat="41.9651898022176" lon="12.597327392484333"><ele>66.8</ele><time>2026-03-29T08:17:17Z</time></trkpt><trkpt lat="41.96526866422313" lon="12.597413346649969"><ele>67.19999999999999</ele><time>2026-03-29T08:17:18Z</time></trkpt><trkpt lat="41.96535807596483" lon="12.597507269723513"><ele>67.6</ele><time>2026-03-29T08:17:19Z</time></trkpt><trkpt lat="41.965425285727946" lon="12.59758959363589"><ele>68.0</ele><time>2026-03-29T08:17:20Z</time></trkpt><trkpt lat="41.96548543560853" lon="12.597660214327492"><ele>68.0</ele><time>2026-03-29T08:17:21Z</time></trkpt><trkpt lat="41.965557749101" lon="12.597747511435438"><ele>68.0</ele><time>2026-03-29T08:17:22Z</time></trkpt><trkpt lat="41.96563634026603" lon="12.597844796441157"><ele>68.0</ele><time>2026-03-29T08:17:23Z</time></trkpt><trkpt lat="41.965707196972666" lon="12.597947836765961"><ele>68.0</ele><time>2026-03-29T08:17:24Z</time></trkpt><trkpt lat="41.96577623982559" lon="12.59805202001714"><ele>68.0</ele><time>2026-03-29T08:17:25Z</time></trkpt><trkpt lat="41.96584854349616" lon="12.59816984955256"><ele>68.33333333333334</ele><time>2026-03-29T08:17:26Z</time></trkpt><trkpt lat="41.96594155542655" lon="12.598323097609633"><ele>68.66666666666667</ele><time>2026-03-29T08:17:27Z</time></trkpt><trkpt lat="41.96604294143314" lon="12.598546772733204"><ele>69.0</ele><time>2026-03-29T08:17:28Z</time></trkpt><trkpt lat="41.96616925909361" lon="12.598751440753379"><ele>69.66666666666667</ele><time>2026-03-29T08:17:29Z</time></trkpt><trkpt lat="41.966264117238154" lon="12.59893909105825"><ele>70.33333333333334</ele><time>2026-03-29T08:17:30Z</time></trkpt><trkpt lat="41.96636022481269" lon="12.599118572490545"><ele>71.0</ele><time>2026-03-29T08:17:31Z</time></trkpt><trkpt lat="41.96645997704505" lon="12.59930081515542"><ele>71.0</ele><time>2026-03-29T08:17:32Z</time></trkpt><trkpt lat="41.96655504523703" lon="12.599476517516315"><ele>71.0</ele><time>2026-03-29T08:17:33Z</time></trkpt><trkpt lat="41.96663988040065" lon="12.599632483562583"><ele>71.0</ele><time>2026-03-29T08:17:34Z</time></trkpt><trkpt lat="41.966722869027876" lon="12.599788081922176"><ele>71.0</ele><time>2026-03-29T08:17:35Z</time></trkpt><trkpt lat="41.966815936248075" lon="12.599960001395575"><ele>72.33333333333334</ele><time>2026-03-29T08:17:36Z</time></trkpt><trkpt lat="41.96693536544671" lon="12.600172739789988"><ele>73.66666666666667</ele><time>2026-03-29T08:17:37Z</time></trkpt><trkpt lat="41.96705233607725" lon="12.600404486108967"><ele>75.0</ele><time>2026-03-29T08:17:38Z</time></trkpt><trkpt lat="41.96716913170377" lon="12.600626869738612"><ele>75.33333333333333</ele><time>2026-03-29T08:17:39Z</time></trkpt><trkpt lat="41.967310750373315" lon="12.60088232443001"><ele>75.66666666666666</ele><time>2026-03-29T08:17:40Z</time></trkpt><trkpt lat="41.96742551655381" lon="12.60110970163764"><ele>76.0</ele><time>2026-03-29T08:17:41Z</time></trkpt><trkpt lat="41.9675273232825" lon="12.601308642153032"><ele>76.0</ele><time>2026-03-29T08:17:42Z</time></trkpt><trkpt lat="41.967613438192224" lon="12.601463040596279"><ele>76.0</ele><time>2026-03-29T08:17:43Z</time></trkpt><trkpt lat="41.96768658718056" lon="12.601601627250478"><ele>76.0</ele><time>2026-03-29T08:17:44Z</time></trkpt><trkpt lat="41.967758573277045" lon="12.601737935226778"><ele>76.0</ele><time>2026-03-29T08:17:45Z</time></trkpt><trkpt lat="41.96783219142042" lon="12.601869823552478"><ele>76.0</ele><time>2026-03-29T08:17:46Z</time></trkpt><trkpt lat="41.96789602346083" lon="12.601986181443328"><ele>76.0</ele><time>2026-03-29T08:17:47Z</time></trkpt><trkpt lat="41.96795209438643" lon="12.60209365406564"><ele>76.0</ele><time>2026-03-29T08:17:48Z</time></trkpt><trkpt lat="41.968016454828515" lon="12.602214756701708"><ele>76.0</ele><time>2026-03-29T08:17:49Z</time></trkpt><trkpt lat="41.9680925345265" lon="12.602358083597851"><ele>76.0</ele><time>2026-03-29T08:17:50Z</time></trkpt><trkpt lat="41.96814755864548" lon="12.602493537492776"><ele>76.0</ele><time>2026-03-29T08:17:51Z</time></trkpt><trkpt lat="41.96818733636546" lon="12.602597136601947"><ele>76.0</ele><time>2026-03-29T08:17:52Z</time></trkpt><trkpt lat="41.96821795713598" lon="12.602688869217882"><ele>76.0</ele><time>2026-03-29T08:17:53Z</time></trkpt><trkpt lat="41.96824298845121" lon="12.602774275648086"><ele>76.0</ele><time>2026-03-29T08:17:54Z</time></trkpt><trkpt lat="41.96826823905539" lon="12.602860913178896"><ele>76.0</ele><time>2026-03-29T08:17:55Z</time></trkpt><trkpt lat="41.968292602754744" lon="12.602949944238704"><ele>76.0</ele><time>2026-03-29T08:17:56Z</time></trkpt><trkpt lat="41.96833071322347" lon="12.603099296690505"><ele>75.8</ele><time>2026-03-29T08:17:58Z</time></trkpt><trkpt lat="41.9683745478517" lon="12.603246558238773"><ele>75.6</ele><time>2026-03-29T08:18:00Z</time></trkpt><trkpt lat="41.968401422091006" lon="12.603352430688565"><ele>75.4</ele><time>2026-03-29T08:18:01Z</time></trkpt><trkpt lat="41.96843106972517" lon="12.603478292866104"><ele>75.2</ele><time>2026-03-29T08:18:02Z</time></trkpt><trkpt lat="41.968462882698944" lon="12.603612130588308"><ele>75.0</ele><time>2026-03-29T08:18:03Z</time></trkpt><trkpt lat="41.968498524779775" lon="12.603757377656338"><ele>74.8</ele><time>2026-03-29T08:18:04Z</time></trkpt><trkpt lat="41.968533689168666" lon="12.603894437383774"><ele>74.6</ele><time>2026-03-29T08:18:05Z</time></trkpt><trkpt lat="41.96856765150004" lon="12.604031253411241"><ele>74.4</ele><time>2026-03-29T08:18:06Z</time></trkpt><trkpt lat="41.96860391106277" lon="12.604175204198777"><ele>74.2</ele><time>2026-03-29T08:18:07Z</time></trkpt><trkpt lat="41.96864382604506" lon="12.604322723299667"><ele>74.0</ele><time>2026-03-29T08:18:08Z</time></trkpt><trkpt lat="41.96868024488347" lon="12.60446254889544"><ele>73.75</ele><time>2026-03-29T08:18:09Z</time></trkpt><trkpt lat="41.96871751744565" lon="12.604608980858231"><ele>73.5</ele><time>2026-03-29T08:18:10Z</time></trkpt><trkpt lat="41.968757625008195" lon="12.604763576631184"><ele>73.25</ele><time>2026-03-29T08:18:11Z</time></trkpt><trkpt lat="41.968796973566164" lon="12.60491619901721"><ele>73.0</ele><time>2026-03-29T08:18:12Z</time></trkpt><trkpt lat="41.968829692914014" lon="12.605043040628152"><ele>73.0</ele><time>2026-03-29T08:18:13Z</time></trkpt><trkpt lat="41.9688600053657" lon="12.60516195084658"><ele>73.0</ele><time>2026-03-29T08:18:14Z</time></trkpt><trkpt lat="41.968889856630334" lon="12.60527019403536"><ele>73.0</ele><time>2026-03-29T08:18:15Z</time></trkpt><trkpt lat="41.96891895698626" lon="12.6053836342875"><ele>73.0</ele><time>2026-03-29T08:18:16Z</time></trkpt><trkpt lat="41.96894278487757" lon="12.605484708331158"><ele>73.0</ele><time>2026-03-29T08:18:17Z</time></trkpt><trkpt lat="41.968964858001264" lon="12.605569683199162"><ele>73.0</ele><time>2026-03-29T08:18:18Z</time></trkpt><trkpt lat="41.96899397197677" lon="12.605690627802142"><ele>73.0</ele><time>2026-03-29T08:18:19.999Z</time></trkpt><trkpt lat="41.96901501655977" lon="12.605772612499502"><ele>73.0</ele><time>2026-03-29T08:18:21.999Z</time></trkpt><trkpt lat="41.96904753004904" lon="12.605880553682862"><ele>73.0</ele><time>2026-03-29T08:18:24.999Z</time></trkpt><trkpt lat="41.969066363033384" lon="12.606009509767558"><ele>73.0</ele><time>2026-03-29T08:18:41.999Z</time></trkpt><trkpt lat="41.96909613191974" lon="12.60608438690057"><ele>73.0</ele><time>2026-03-29T08:18:42.999Z</time></trkpt><trkpt lat="41.96910947817592" lon="12.60616729929015"><ele>73.0</ele><time>2026-03-29T08:18:43.999Z</time></trkpt><trkpt lat="41.96913568258453" lon="12.606270959352907"><ele>73.5</ele><time>2026-03-29T08:18:44.999Z</time></trkpt><trkpt lat="41.96916893568994" lon="12.606407923121129"><ele>74.0</ele><time>2026-03-29T08:18:45.999Z</time></trkpt><trkpt lat="41.969208558369075" lon="12.606563195949441"><ele>74.5</ele><time>2026-03-29T08:18:46.999Z</time></trkpt><trkpt lat="41.969248679219554" lon="12.606727666838378"><ele>75.0</ele><time>2026-03-29T08:18:47.999Z</time></trkpt><trkpt lat="41.969290227295254" lon="12.606904907290048"><ele>72.33333333333333</ele><time>2026-03-29T08:18:48.999Z</time></trkpt><trkpt lat="41.969338244620275" lon="12.607094568818166"><ele>69.66666666666666</ele><time>2026-03-29T08:18:49.999Z</time></trkpt><trkpt lat="41.96938676633057" lon="12.607302840504913"><ele>67.0</ele><time>2026-03-29T08:18:50.999Z</time></trkpt><trkpt lat="41.96943634687505" lon="12.607519654055682"><ele>67.0</ele><time>2026-03-29T08:18:51.999Z</time></trkpt><trkpt lat="41.96949088603628" lon="12.607750236900047"><ele>67.0</ele><time>2026-03-29T08:18:52.999Z</time></trkpt><trkpt lat="41.96954437574419" lon="12.607975017568162"><ele>67.0</ele><time>2026-03-29T08:18:53.999Z</time></trkpt><trkpt lat="41.96959516445714" lon="12.608189211045215"><ele>68.0</ele><time>2026-03-29T08:18:54.999Z</time></trkpt><trkpt lat="41.969643926058495" lon="12.608392140577775"><ele>69.0</ele><time>2026-03-29T08:18:55.999Z</time></trkpt><trkpt lat="41.96969077556822" lon="12.608585954292773"><ele>70.0</ele><time>2026-03-29T08:18:56.999Z</time></trkpt><trkpt lat="41.96974004126794" lon="12.608787281349333"><ele>70.66666666666666</ele><time>2026-03-29T08:18:57.999Z</time></trkpt><trkpt lat="41.969789232991005" lon="12.608991418161605"><ele>71.33333333333333</ele><time>2026-03-29T08:18:58.999Z</time></trkpt><trkpt lat="41.9698396824313" lon="12.609200297780614"><ele>72.0</ele><time>2026-03-29T08:18:59.999Z</time></trkpt><trkpt lat="41.96988855504868" lon="12.609412258932707"><ele>73.0</ele><time>2026-03-29T08:19:00.999Z</time></trkpt><trkpt lat="41.96993739780625" lon="12.609626373234777"><ele>74.0</ele><time>2026-03-29T08:19:01.999Z</time></trkpt><trkpt lat="41.96998908052716" lon="12.609838519321634"><ele>75.0</ele><time>2026-03-29T08:19:02.999Z</time></trkpt><trkpt lat="41.97003777965968" lon="12.610032925236483"><ele>75.0</ele><time>2026-03-29T08:19:03.999Z</time></trkpt><trkpt lat="41.97008593944749" lon="12.610223891110138"><ele>75.0</ele><time>2026-03-29T08:19:04.999Z</time></trkpt><trkpt lat="41.970130778803515" lon="12.610417910933807"><ele>75.0</ele><time>2026-03-29T08:19:05.999Z</time></trkpt><trkpt lat="41.97017368003973" lon="12.610619143817713"><ele>75.5</ele><time>2026-03-29T08:19:06.999Z</time></trkpt><trkpt lat="41.97020476282223" lon="12.610806136074448"><ele>76.0</ele><time>2026-03-29T08:19:07.999Z</time></trkpt><trkpt lat="41.97021706045988" lon="12.61097125557206"><ele>76.5</ele><time>2026-03-29T08:19:08.999Z</time></trkpt><trkpt lat="41.97020947817767" lon="12.611106168260843"><ele>77.0</ele><time>2026-03-29T08:19:09.999Z</time></trkpt><trkpt lat="41.970198329823916" lon="12.611217239425043"><ele>77.0</ele><time>2026-03-29T08:19:10.999Z</time></trkpt><trkpt lat="41.9701701875597" lon="12.61131973828504"><ele>77.0</ele><time>2026-03-29T08:19:11.999Z</time></trkpt><trkpt lat="41.97012464631743" lon="12.611433980257745"><ele>77.0</ele><time>2026-03-29T08:19:12.999Z</time></trkpt><trkpt lat="41.970058276843226" lon="12.611544861640068"><ele>77.0</ele><time>2026-03-29T08:19:13.999Z</time></trkpt><trkpt lat="41.969961829021116" lon="12.611660661247132"><ele>77.0</ele><time>2026-03-29T08:19:15Z</time></trkpt><trkpt lat="41.96985570907303" lon="12.61175241860489"><ele>77.0</ele><time>2026-03-29T08:19:16Z</time></trkpt><trkpt lat="41.969751261269586" lon="12.6118387435767"><ele>77.0</ele><time>2026-03-29T08:19:17Z</time></trkpt><trkpt lat="41.96964984683169" lon="12.611919752485562"><ele>77.0</ele><time>2026-03-29T08:19:18Z</time></trkpt><trkpt lat="41.96955892608405" lon="12.611989980994203"><ele>77.0</ele><time>2026-03-29T08:19:19Z</time></trkpt><trkpt lat="41.96945996339504" lon="12.612049518311137"><ele>77.25</ele><time>2026-03-29T08:19:20Z</time></trkpt><trkpt lat="41.96934005224944" lon="12.612076193976936"><ele>77.5</ele><time>2026-03-29T08:19:21Z</time></trkpt><trkpt lat="41.969212749254766" lon="12.612076544167314"><ele>77.75</ele><time>2026-03-29T08:19:22Z</time></trkpt><trkpt lat="41.96908402433787" lon="12.61204677134855"><ele>78.0</ele><time>2026-03-29T08:19:23Z</time></trkpt><trkpt lat="41.96894033283084" lon="12.612006544860565"><ele>77.33333333333333</ele><time>2026-03-29T08:19:24Z</time></trkpt><trkpt lat="41.96875630761912" lon="12.611958954656908"><ele>76.66666666666666</ele><time>2026-03-29T08:19:25Z</time></trkpt><trkpt lat="41.968553488891956" lon="12.61190446523256"><ele>76.0</ele><time>2026-03-29T08:19:26Z</time></trkpt><trkpt lat="41.96835759122226" lon="12.611850205527377"><ele>76.0</ele><time>2026-03-29T08:19:27Z</time></trkpt><trkpt lat="41.96817877416827" lon="12.611800683362375"><ele>76.0</ele><time>2026-03-29T08:19:28Z</time></trkpt><trkpt lat="41.96799099360799" lon="12.611748904778548"><ele>76.0</ele><time>2026-03-29T08:19:29Z</time></trkpt><trkpt lat="41.96779600253895" lon="12.611694070365177"><ele>76.0</ele><time>2026-03-29T08:19:30Z</time></trkpt><trkpt lat="41.967595544095595" lon="12.611636379615387"><ele>76.0</ele><time>2026-03-29T08:19:31Z</time></trkpt><trkpt lat="41.96739264685619" lon="12.611581327525263"><ele>76.0</ele><time>2026-03-29T08:19:32Z</time></trkpt><trkpt lat="41.96718843667562" lon="12.61152363497101"><ele>75.33333333333333</ele><time>2026-03-29T08:19:33Z</time></trkpt><trkpt lat="41.966985362589405" lon="12.611466594704872"><ele>74.66666666666667</ele><time>2026-03-29T08:19:34Z</time></trkpt><trkpt lat="41.96678358766749" lon="12.611410763638903"><ele>74.0</ele><time>2026-03-29T08:19:35Z</time></trkpt><trkpt lat="41.96659495042863" lon="12.611358627660454"><ele>73.66666666666667</ele><time>2026-03-29T08:19:36Z</time></trkpt><trkpt lat="41.966412439032844" lon="12.611306354835078"><ele>73.33333333333333</ele><time>2026-03-29T08:19:37Z</time></trkpt><trkpt lat="41.96622617827679" lon="12.611256555707286"><ele>73.0</ele><time>2026-03-29T08:19:38Z</time></trkpt><trkpt lat="41.96603956257167" lon="12.611202985824734"><ele>73.0</ele><time>2026-03-29T08:19:39Z</time></trkpt><trkpt lat="41.965861762517434" lon="12.611154687000576"><ele>73.0</ele><time>2026-03-29T08:19:40Z</time></trkpt><trkpt lat="41.965687813394936" lon="12.611107528075893"><ele>73.0</ele><time>2026-03-29T08:19:41Z</time></trkpt><trkpt lat="41.965511773671544" lon="12.611057891981266"><ele>73.0</ele><time>2026-03-29T08:19:42Z</time></trkpt><trkpt lat="41.96533696845039" lon="12.611007467346711"><ele>73.0</ele><time>2026-03-29T08:19:43Z</time></trkpt><trkpt lat="41.965157242256254" lon="12.610961458123235"><ele>73.0</ele><time>2026-03-29T08:19:44Z</time></trkpt><trkpt lat="41.964951910466965" lon="12.610920252272626"><ele>72.0</ele><time>2026-03-29T08:19:45Z</time></trkpt><trkpt lat="41.96474149150634" lon="12.610875150305397"><ele>71.0</ele><time>2026-03-29T08:19:46Z</time></trkpt><trkpt lat="41.96451272668241" lon="12.610822699986349"><ele>70.0</ele><time>2026-03-29T08:19:47Z</time></trkpt><trkpt lat="41.96426419289706" lon="12.610780972409303"><ele>68.0</ele><time>2026-03-29T08:19:48Z</time></trkpt><trkpt lat="41.964011364825225" lon="12.610752752435785"><ele>66.0</ele><time>2026-03-29T08:19:49Z</time></trkpt><trkpt lat="41.96377111972697" lon="12.610719961020235"><ele>66.0</ele><time>2026-03-29T08:19:50Z</time></trkpt><trkpt lat="41.96352535148989" lon="12.610689734647396"><ele>66.0</ele><time>2026-03-29T08:19:51Z</time></trkpt><trkpt lat="41.96326093810293" lon="12.61065595740564"><ele>65.0</ele><time>2026-03-29T08:19:52Z</time></trkpt><trkpt lat="41.96299682475558" lon="12.610616984120343"><ele>64.0</ele><time>2026-03-29T08:19:53Z</time></trkpt><trkpt lat="41.962754902491334" lon="12.61058255908277"><ele>63.5</ele><time>2026-03-29T08:19:54Z</time></trkpt><trkpt lat="41.96252903215632" lon="12.610541357804"><ele>63.0</ele><time>2026-03-29T08:19:55Z</time></trkpt><trkpt lat="41.9623029259924" lon="12.610503471164828"><ele>63.0</ele><time>2026-03-29T08:19:56Z</time></trkpt><trkpt lat="41.96207244363922" lon="12.610465014442966"><ele>63.0</ele><time>2026-03-29T08:19:57Z</time></trkpt><trkpt lat="41.961839711887215" lon="12.610423141188392"><ele>63.0</ele><time>2026-03-29T08:19:58Z</time></trkpt><trkpt lat="41.96161562994689" lon="12.610377918503719"><ele>63.0</ele><time>2026-03-29T08:19:59Z</time></trkpt><trkpt lat="41.9613983740339" lon="12.610304569338746"><ele>63.66666666666667</ele><time>2026-03-29T08:20:00Z</time></trkpt><trkpt lat="41.961188062199255" lon="12.610209075946111"><ele>64.33333333333334</ele><time>2026-03-29T08:20:01Z</time></trkpt><trkpt lat="41.96098367407649" lon="12.61008849223863"><ele>65.0</ele><time>2026-03-29T08:20:02Z</time></trkpt><trkpt lat="41.960781539130835" lon="12.609941899615901"><ele>65.5</ele><time>2026-03-29T08:20:03Z</time></trkpt><trkpt lat="41.96059175323786" lon="12.609771275416266"><ele>66.0</ele><time>2026-03-29T08:20:04Z</time></trkpt><trkpt lat="41.960413565989526" lon="12.609587155881433"><ele>65.33333333333333</ele><time>2026-03-29T08:20:05Z</time></trkpt><trkpt lat="41.96024620951193" lon="12.609390501989274"><ele>64.66666666666666</ele><time>2026-03-29T08:20:06Z</time></trkpt><trkpt lat="41.960086484947915" lon="12.609175022667582"><ele>64.0</ele><time>2026-03-29T08:20:07Z</time></trkpt><trkpt lat="41.959940280361536" lon="12.608936346887024"><ele>63.666666666666664</ele><time>2026-03-29T08:20:08Z</time></trkpt><trkpt lat="41.95981709426327" lon="12.60869423268785"><ele>63.33333333333333</ele><time>2026-03-29T08:20:09Z</time></trkpt><trkpt lat="41.95972214561147" lon="12.608475463422277"><ele>63.0</ele><time>2026-03-29T08:20:10Z</time></trkpt><trkpt lat="41.95966230286325" lon="12.608318472532446"><ele>62.599999999999994</ele><time>2026-03-29T08:20:11Z</time></trkpt><trkpt lat="41.95963379447369" lon="12.608199219659392"><ele>62.199999999999996</ele><time>2026-03-29T08:20:12Z</time></trkpt><trkpt lat="41.959628992337265" lon="12.608076952044554"><ele>61.8</ele><time>2026-03-29T08:20:13Z</time></trkpt><trkpt lat="41.95963287321164" lon="12.607940715305736"><ele>61.4</ele><time>2026-03-29T08:20:14Z</time></trkpt><trkpt lat="41.9596020245231" lon="12.607814387371077"><ele>61.0</ele><time>2026-03-29T08:20:15Z</time></trkpt><trkpt lat="41.959539186701406" lon="12.607731023088478"><ele>61.0</ele><time>2026-03-29T08:20:15.999Z</time></trkpt><trkpt lat="41.95945314137717" lon="12.60769969186265"><ele>60.99999999999999</ele><time>2026-03-29T08:20:16.999Z</time></trkpt><trkpt lat="41.95935816155428" lon="12.607730438811789"><ele>60.99999999999999</ele><time>2026-03-29T08:20:17.999Z</time></trkpt><trkpt lat="41.95928143686422" lon="12.607825145852384"><ele>61.0</ele><time>2026-03-29T08:20:18.999Z</time></trkpt><trkpt lat="41.95924723802869" lon="12.607960901514625"><ele>61.0</ele><time>2026-03-29T08:20:19.999Z</time></trkpt><trkpt lat="41.95924512781592" lon="12.608098914093393"><ele>61.0</ele><time>2026-03-29T08:20:20.999Z</time></trkpt><trkpt lat="41.959303518008085" lon="12.60822535052297"><ele>61.0</ele><time>2026-03-29T08:20:21.999Z</time></trkpt><trkpt lat="41.959420136645186" lon="12.608285685762208"><ele>61.0</ele><time>2026-03-29T08:20:22.999Z</time></trkpt><trkpt lat="41.959525934634726" lon="12.608337656971282"><ele>61.0</ele><time>2026-03-29T08:20:23.999Z</time></trkpt><trkpt lat="41.95962942074412" lon="12.608459248328197"><ele>61.0</ele><time>2026-03-29T08:20:24.999Z</time></trkpt><trkpt lat="41.95969660052822" lon="12.608604878918474"><ele>61.0</ele><time>2026-03-29T08:20:25.999Z</time></trkpt><trkpt lat="41.959775669436986" lon="12.608764097585887"><ele>61.0</ele><time>2026-03-29T08:20:26.999Z</time></trkpt><trkpt lat="41.95985642147798" lon="12.608915845667882"><ele>61.0</ele><time>2026-03-29T08:20:27.999Z</time></trkpt><trkpt lat="41.95993398592457" lon="12.609072880914859"><ele>61.5</ele><time>2026-03-29T08:20:28.999Z</time></trkpt><trkpt lat="41.96001746912602" lon="12.609224320923103"><ele>62.0</ele><time>2026-03-29T08:20:29.999Z</time></trkpt><trkpt lat="41.960111581048345" lon="12.609369620506136"><ele>62.5</ele><time>2026-03-29T08:20:30.999Z</time></trkpt><trkpt lat="41.96021013888976" lon="12.609508030852895"><ele>63.0</ele><time>2026-03-29T08:20:31.999Z</time></trkpt><trkpt lat="41.96032069943623" lon="12.609638259670637"><ele>64.0</ele><time>2026-03-29T08:20:32.999Z</time></trkpt><trkpt lat="41.960439390643494" lon="12.609768763995215"><ele>65.0</ele><time>2026-03-29T08:20:33.999Z</time></trkpt><trkpt lat="41.9605791002752" lon="12.609905605540039"><ele>66.0</ele><time>2026-03-29T08:20:34.999Z</time></trkpt><trkpt lat="41.960755585162545" lon="12.610056394966286"><ele>65.66666666666667</ele><time>2026-03-29T08:20:35.999Z</time></trkpt><trkpt lat="41.960940939466006" lon="12.61019539479936"><ele>65.33333333333334</ele><time>2026-03-29T08:20:36.999Z</time></trkpt><trkpt lat="41.961134545040075" lon="12.610288197839433"><ele>65.0</ele><time>2026-03-29T08:20:37.999Z</time></trkpt><trkpt lat="41.961310025863376" lon="12.610399937648015"><ele>64.33333333333334</ele><time>2026-03-29T08:20:38.999Z</time></trkpt><trkpt lat="41.96149273665009" lon="12.610468372784588"><ele>63.66666666666667</ele><time>2026-03-29T08:20:39.999Z</time></trkpt><trkpt lat="41.96167665784861" lon="12.610517231733043"><ele>63.0</ele><time>2026-03-29T08:20:40.999Z</time></trkpt><trkpt lat="41.96186550598626" lon="12.610556978240506"><ele>63.0</ele><time>2026-03-29T08:20:41.999Z</time></trkpt><trkpt lat="41.962067651827084" lon="12.6105862554028"><ele>63.0</ele><time>2026-03-29T08:20:42.999Z</time></trkpt><trkpt lat="41.96226721765954" lon="12.610609276879838"><ele>63.0</ele><time>2026-03-29T08:20:43.999Z</time></trkpt><trkpt lat="41.96245687865555" lon="12.610633047262665"><ele>63.33333333333333</ele><time>2026-03-29T08:20:44.999Z</time></trkpt><trkpt lat="41.96264069002861" lon="12.610658720501334"><ele>63.666666666666664</ele><time>2026-03-29T08:20:45.999Z</time></trkpt><trkpt lat="41.962824054768774" lon="12.610685225211288"><ele>64.0</ele><time>2026-03-29T08:20:46.999Z</time></trkpt><trkpt lat="41.96300530940011" lon="12.610713246983153"><ele>64.0</ele><time>2026-03-29T08:20:47.999Z</time></trkpt><trkpt lat="41.963188434294544" lon="12.610740526293652"><ele>64.0</ele><time>2026-03-29T08:20:48.999Z</time></trkpt><trkpt lat="41.963375912335785" lon="12.610769488934556"><ele>64.0</ele><time>2026-03-29T08:20:49.999Z</time></trkpt><trkpt lat="41.96356124729127" lon="12.610797259437645"><ele>64.66666666666666</ele><time>2026-03-29T08:20:50.999Z</time></trkpt><trkpt lat="41.96374808448408" lon="12.610823505905792"><ele>65.33333333333333</ele><time>2026-03-29T08:20:51.999Z</time></trkpt><trkpt lat="41.96392497672055" lon="12.610848265054033"><ele>66.0</ele><time>2026-03-29T08:20:52.999Z</time></trkpt><trkpt lat="41.96409966301684" lon="12.610873625464247"><ele>67.33333333333333</ele><time>2026-03-29T08:20:53.999Z</time></trkpt><trkpt lat="41.964282564344956" lon="12.610901409577433"><ele>68.66666666666666</ele><time>2026-03-29T08:20:54.999Z</time></trkpt><trkpt lat="41.96447958534181" lon="12.610929718196887"><ele>70.0</ele><time>2026-03-29T08:20:55.999Z</time></trkpt><trkpt lat="41.964667100896975" lon="12.610955952217676"><ele>70.0</ele><time>2026-03-29T08:20:56.999Z</time></trkpt><trkpt lat="41.964855491461414" lon="12.610987309365438"><ele>70.0</ele><time>2026-03-29T08:20:57.999Z</time></trkpt><trkpt lat="41.96504401746017" lon="12.611030296023994"><ele>70.0</ele><time>2026-03-29T08:20:58.999Z</time></trkpt><trkpt lat="41.96522817134649" lon="12.611081400528251"><ele>71.0</ele><time>2026-03-29T08:20:59.999Z</time></trkpt><trkpt lat="41.965409886887244" lon="12.611135145313176"><ele>72.0</ele><time>2026-03-29T08:21:00.999Z</time></trkpt><trkpt lat="41.96559267528351" lon="12.611187876534334"><ele>73.0</ele><time>2026-03-29T08:21:01.999Z</time></trkpt><trkpt lat="41.96577559230432" lon="12.611241298955402"><ele>73.0</ele><time>2026-03-29T08:21:02.999Z</time></trkpt><trkpt lat="41.96595399150966" lon="12.611292381243377"><ele>73.0</ele><time>2026-03-29T08:21:03.999Z</time></trkpt><trkpt lat="41.96613278129418" lon="12.611341647966205"><ele>73.0</ele><time>2026-03-29T08:21:04.999Z</time></trkpt><trkpt lat="41.966312201892784" lon="12.611390117176974"><ele>73.0</ele><time>2026-03-29T08:21:05.999Z</time></trkpt><trkpt lat="41.96648761188097" lon="12.611440176939858"><ele>73.0</ele><time>2026-03-29T08:21:06.999Z</time></trkpt><trkpt lat="41.96665620180926" lon="12.611488194329532"><ele>73.0</ele><time>2026-03-29T08:21:07.999Z</time></trkpt><trkpt lat="41.966824301660345" lon="12.61153699622964"><ele>73.33333333333333</ele><time>2026-03-29T08:21:08.999Z</time></trkpt><trkpt lat="41.96699576403705" lon="12.611583132892477"><ele>73.66666666666667</ele><time>2026-03-29T08:21:09.999Z</time></trkpt><trkpt lat="41.96717333570775" lon="12.611631809538586"><ele>74.0</ele><time>2026-03-29T08:21:10.999Z</time></trkpt><trkpt lat="41.9673511411006" lon="12.611679916512555"><ele>74.0</ele><time>2026-03-29T08:21:11.999Z</time></trkpt><trkpt lat="41.96752353332942" lon="12.611726945657313"><ele>74.0</ele><time>2026-03-29T08:21:12.999Z</time></trkpt><trkpt lat="41.96768866636289" lon="12.6117715571508"><ele>74.0</ele><time>2026-03-29T08:21:13.999Z</time></trkpt><trkpt lat="41.96785139896535" lon="12.611818518447079"><ele>74.66666666666667</ele><time>2026-03-29T08:21:14.999Z</time></trkpt><trkpt lat="41.9680275484527" lon="12.611868997358345"><ele>75.33333333333333</ele><time>2026-03-29T08:21:15.999Z</time></trkpt><trkpt lat="41.968209698425056" lon="12.61192059176873"><ele>76.0</ele><time>2026-03-29T08:21:16.999Z</time></trkpt><trkpt lat="41.968386141046274" lon="12.61197047330507"><ele>76.66666666666666</ele><time>2026-03-29T08:21:17.999Z</time></trkpt><trkpt lat="41.96855741580351" lon="12.612016516749426"><ele>77.33333333333333</ele><time>2026-03-29T08:21:18.999Z</time></trkpt><trkpt lat="41.96871317394555" lon="12.612059614017948"><ele>78.0</ele><time>2026-03-29T08:21:19.998Z</time></trkpt><trkpt lat="41.96886285474835" lon="12.612100366851589"><ele>78.0</ele><time>2026-03-29T08:21:21Z</time></trkpt><trkpt lat="41.96900977981066" lon="12.61214155156523"><ele>78.0</ele><time>2026-03-29T08:21:22Z</time></trkpt><trkpt lat="41.9691618903989" lon="12.612192500473391"><ele>78.0</ele><time>2026-03-29T08:21:23Z</time></trkpt><trkpt lat="41.9693068014723" lon="12.612275389472758"><ele>78.66666666666667</ele><time>2026-03-29T08:21:24Z</time></trkpt><trkpt lat="41.969446574060605" lon="12.612392731122089"><ele>79.33333333333334</ele><time>2026-03-29T08:21:25Z</time></trkpt><trkpt lat="41.96956208241276" lon="12.61254537761929"><ele>80.0</ele><time>2026-03-29T08:21:26Z</time></trkpt><trkpt lat="41.96965342161686" lon="12.612714252623011"><ele>80.0</ele><time>2026-03-29T08:21:27Z</time></trkpt><trkpt lat="41.969756534550854" lon="12.612881730372374"><ele>80.0</ele><time>2026-03-29T08:21:28Z</time></trkpt><trkpt lat="41.96988525885723" lon="12.61302913742181"><ele>80.0</ele><time>2026-03-29T08:21:29Z</time></trkpt><trkpt lat="41.97004264871294" lon="12.613134832854955"><ele>80.66666666666667</ele><time>2026-03-29T08:21:30Z</time></trkpt><trkpt lat="41.97022145413867" lon="12.613209212272906"><ele>81.33333333333333</ele><time>2026-03-29T08:21:31Z</time></trkpt><trkpt lat="41.970405798394935" lon="12.613259784563382"><ele>82.0</ele><time>2026-03-29T08:21:32Z</time></trkpt><trkpt lat="41.97056909966667" lon="12.613307645080727"><ele>82.0</ele><time>2026-03-29T08:21:33Z</time></trkpt><trkpt lat="41.97072363931438" lon="12.61332937370013"><ele>82.0</ele><time>2026-03-29T08:21:34Z</time></trkpt><trkpt lat="41.970866445798976" lon="12.613418642873983"><ele>82.0</ele><time>2026-03-29T08:21:35Z</time></trkpt><trkpt lat="41.971000168348844" lon="12.613522860426482"><ele>81.66666666666666</ele><time>2026-03-29T08:21:36Z</time></trkpt><trkpt lat="41.97111714694975" lon="12.613676278129008"><ele>81.33333333333333</ele><time>2026-03-29T08:21:37Z</time></trkpt><trkpt lat="41.97119990019639" lon="12.61385127314742"><ele>81.0</ele><time>2026-03-29T08:21:38Z</time></trkpt><trkpt lat="41.971277437822245" lon="12.614048798944756"><ele>81.0</ele><time>2026-03-29T08:21:39Z</time></trkpt><trkpt lat="41.97133085659712" lon="12.614262347384244"><ele>81.0</ele><time>2026-03-29T08:21:40Z</time></trkpt><trkpt lat="41.971359505723086" lon="12.614489573719107"><ele>81.0</ele><time>2026-03-29T08:21:41Z</time></trkpt><trkpt lat="41.97135571324036" lon="12.614720814139766"><ele>81.0</ele><time>2026-03-29T08:21:42Z</time></trkpt><trkpt lat="41.97132502699362" lon="12.614931583259494"><ele>81.0</ele><time>2026-03-29T08:21:43Z</time></trkpt><trkpt lat="41.97128270758054" lon="12.615129235785002"><ele>81.0</ele><time>2026-03-29T08:21:44Z</time></trkpt><trkpt lat="41.97122223482162" lon="12.615293163745749"><ele>81.0</ele><time>2026-03-29T08:21:45Z</time></trkpt><trkpt lat="41.97114841375544" lon="12.615450252313275"><ele>81.66666666666667</ele><time>2026-03-29T08:21:46Z</time></trkpt><trkpt lat="41.971046751239975" lon="12.615602249092278"><ele>82.33333333333334</ele><time>2026-03-29T08:21:47Z</time></trkpt><trkpt lat="41.97091431561414" lon="12.615743869760362"><ele>83.0</ele><time>2026-03-29T08:21:48Z</time></trkpt><trkpt lat="41.970754234478925" lon="12.615882366905398"><ele>82.66666666666667</ele><time>2026-03-29T08:21:49Z</time></trkpt><trkpt lat="41.970589252064634" lon="12.616013820534825"><ele>82.33333333333333</ele><time>2026-03-29T08:21:50Z</time></trkpt><trkpt lat="41.97042409113886" lon="12.616145045419472"><ele>82.0</ele><time>2026-03-29T08:21:51Z</time></trkpt><trkpt lat="41.97025012159385" lon="12.616283563664194"><ele>82.0</ele><time>2026-03-29T08:21:52Z</time></trkpt><trkpt lat="41.970060942368924" lon="12.616435038105458"><ele>82.0</ele><time>2026-03-29T08:21:53Z</time></trkpt><trkpt lat="41.96988537879969" lon="12.616583174517906"><ele>82.0</ele><time>2026-03-29T08:21:54Z</time></trkpt><trkpt lat="41.96971014735887" lon="12.616731980725053"><ele>81.33333333333333</ele><time>2026-03-29T08:21:55Z</time></trkpt><trkpt lat="41.96954513811906" lon="12.616846421318495"><ele>80.66666666666667</ele><time>2026-03-29T08:21:56Z</time></trkpt><trkpt lat="41.96939150074668" lon="12.616966987995665"><ele>80.0</ele><time>2026-03-29T08:21:57Z</time></trkpt><trkpt lat="41.96925124582037" lon="12.617118517537108"><ele>79.66666666666667</ele><time>2026-03-29T08:21:58Z</time></trkpt><trkpt lat="41.96912843795439" lon="12.61729287355015"><ele>79.33333333333333</ele><time>2026-03-29T08:21:59Z</time></trkpt><trkpt lat="41.96903424759203" lon="12.617469977207586"><ele>79.0</ele><time>2026-03-29T08:22:00Z</time></trkpt><trkpt lat="41.96896910856389" lon="12.617634268520375"><ele>79.0</ele><time>2026-03-29T08:22:01Z</time></trkpt><trkpt lat="41.96892355607302" lon="12.617781567221101"><ele>79.0</ele><time>2026-03-29T08:22:02Z</time></trkpt><trkpt lat="41.968894184518824" lon="12.617916932017833"><ele>79.0</ele><time>2026-03-29T08:22:03Z</time></trkpt><trkpt lat="41.96886855383669" lon="12.618031588872118"><ele>79.0</ele><time>2026-03-29T08:22:04Z</time></trkpt><trkpt lat="41.96884398525304" lon="12.61811680796641"><ele>79.0</ele><time>2026-03-29T08:22:05Z</time></trkpt><trkpt lat="41.96879621192433" lon="12.618257391731044"><ele>78.4</ele><time>2026-03-29T08:22:07Z</time></trkpt><trkpt lat="41.96875694657248" lon="12.618326323421833"><ele>77.80000000000001</ele><time>2026-03-29T08:22:08Z</time></trkpt><trkpt lat="41.968681706572035" lon="12.61837963744553"><ele>77.19999999999999</ele><time>2026-03-29T08:22:09Z</time></trkpt><trkpt lat="41.96859897740535" lon="12.618437837784619"><ele>76.6</ele><time>2026-03-29T08:22:10Z</time></trkpt><trkpt lat="41.968535652757645" lon="12.618550488926772"><ele>76.0</ele><time>2026-03-29T08:22:11Z</time></trkpt><trkpt lat="41.96851113618176" lon="12.618689809803666"><ele>74.75</ele><time>2026-03-29T08:22:12Z</time></trkpt><trkpt lat="41.968477507373" lon="12.618808736446068"><ele>73.5</ele><time>2026-03-29T08:22:13Z</time></trkpt><trkpt lat="41.96828852881406" lon="12.618827309041926"><ele>72.25</ele><time>2026-03-29T08:22:14Z</time></trkpt><trkpt lat="41.96816670939437" lon="12.618870575423706"><ele>71.0</ele><time>2026-03-29T08:22:15Z</time></trkpt><trkpt lat="41.968028568561195" lon="12.618934388503394"><ele>71.0</ele><time>2026-03-29T08:22:16Z</time></trkpt><trkpt lat="41.96788048909933" lon="12.619028468859705"><ele>71.0</ele><time>2026-03-29T08:22:17Z</time></trkpt><trkpt lat="41.96772225433116" lon="12.619148596356931"><ele>71.0</ele><time>2026-03-29T08:22:18Z</time></trkpt><trkpt lat="41.96754484600677" lon="12.619293499804701"><ele>70.33333333333334</ele><time>2026-03-29T08:22:19Z</time></trkpt><trkpt lat="41.967364273993354" lon="12.619447471157867"><ele>69.66666666666667</ele><time>2026-03-29T08:22:20Z</time></trkpt><trkpt lat="41.96719315647588" lon="12.619587949466519"><ele>69.0</ele><time>2026-03-29T08:22:21Z</time></trkpt><trkpt lat="41.96703496522216" lon="12.619720138567253"><ele>68.66666666666667</ele><time>2026-03-29T08:22:21.999Z</time></trkpt><trkpt lat="41.96688933876854" lon="12.619837895288814"><ele>68.33333333333334</ele><time>2026-03-29T08:22:22.999Z</time></trkpt><trkpt lat="41.96674177688671" lon="12.619950241099083"><ele>68.0</ele><time>2026-03-29T08:22:23.999Z</time></trkpt><trkpt lat="41.96657755346422" lon="12.620041949102653"><ele>67.0</ele><time>2026-03-29T08:22:24.999Z</time></trkpt><trkpt lat="41.966385321872195" lon="12.620106954833354"><ele>66.0</ele><time>2026-03-29T08:22:25.999Z</time></trkpt><trkpt lat="41.9661598555295" lon="12.620115127918162"><ele>65.0</ele><time>2026-03-29T08:22:26.999Z</time></trkpt><trkpt lat="41.965924460986706" lon="12.620082665393117"><ele>63.0</ele><time>2026-03-29T08:22:27.999Z</time></trkpt><trkpt lat="41.965677327471795" lon="12.620023681540689"><ele>61.0</ele><time>2026-03-29T08:22:28.999Z</time></trkpt><trkpt lat="41.965403111513865" lon="12.619938263117355"><ele>61.0</ele><time>2026-03-29T08:22:29.999Z</time></trkpt><trkpt lat="41.96511853370605" lon="12.619865529882913"><ele>61.0</ele><time>2026-03-29T08:22:30.999Z</time></trkpt><trkpt lat="41.9648280818606" lon="12.619804603967081"><ele>60.0</ele><time>2026-03-29T08:22:31.999Z</time></trkpt><trkpt lat="41.96453035978569" lon="12.619743379655228"><ele>59.0</ele><time>2026-03-29T08:22:32.999Z</time></trkpt><trkpt lat="41.964262546444075" lon="12.619683910575873"><ele>58.0</ele><time>2026-03-29T08:22:33.999Z</time></trkpt><trkpt lat="41.96401693389447" lon="12.619634423032638"><ele>57.0</ele><time>2026-03-29T08:22:34.999Z</time></trkpt><trkpt lat="41.963812024763236" lon="12.619589494412192"><ele>57.0</ele><time>2026-03-29T08:22:35.999Z</time></trkpt><trkpt lat="41.96361321361785" lon="12.619559956521986"><ele>57.0</ele><time>2026-03-29T08:22:36.999Z</time></trkpt><trkpt lat="41.96340664670565" lon="12.619549445449689"><ele>57.0</ele><time>2026-03-29T08:22:37.999Z</time></trkpt><trkpt lat="41.963194229358876" lon="12.619576853673019"><ele>55.66666666666667</ele><time>2026-03-29T08:22:38.999Z</time></trkpt><trkpt lat="41.96299326970473" lon="12.619640722749295"><ele>54.333333333333336</ele><time>2026-03-29T08:22:39.999Z</time></trkpt><trkpt lat="41.962799170526566" lon="12.61973547499981"><ele>53.0</ele><time>2026-03-29T08:22:40.999Z</time></trkpt><trkpt lat="41.96261225999369" lon="12.619866227462659"><ele>51.0</ele><time>2026-03-29T08:22:41.999Z</time></trkpt><trkpt lat="41.96243302254519" lon="12.620037378028432"><ele>49.0</ele><time>2026-03-29T08:22:42.999Z</time></trkpt><trkpt lat="41.96227547727399" lon="12.62023853108161"><ele>47.0</ele><time>2026-03-29T08:22:43.999Z</time></trkpt><trkpt lat="41.96213524244758" lon="12.620468147532241"><ele>47.0</ele><time>2026-03-29T08:22:44.999Z</time></trkpt><trkpt lat="41.96201504250517" lon="12.620721961258822"><ele>47.0</ele><time>2026-03-29T08:22:45.999Z</time></trkpt><trkpt lat="41.96192461873075" lon="12.621001217445489"><ele>46.666666666666664</ele><time>2026-03-29T08:22:46.999Z</time></trkpt><trkpt lat="41.96187087835093" lon="12.621276013413311"><ele>46.333333333333336</ele><time>2026-03-29T08:22:47.999Z</time></trkpt><trkpt lat="41.961850558742135" lon="12.621524886050116"><ele>46.0</ele><time>2026-03-29T08:22:48.999Z</time></trkpt><trkpt lat="41.961835259580695" lon="12.621764399806844"><ele>45.333333333333336</ele><time>2026-03-29T08:22:49.999Z</time></trkpt><trkpt lat="41.96181453628924" lon="12.62199488250971"><ele>44.666666666666664</ele><time>2026-03-29T08:22:50.999Z</time></trkpt><trkpt lat="41.9617840719826" lon="12.622211424327013"><ele>44.0</ele><time>2026-03-29T08:22:51.999Z</time></trkpt><trkpt lat="41.96172377824861" lon="12.62243020750709"><ele>44.0</ele><time>2026-03-29T08:22:52.999Z</time></trkpt><trkpt lat="41.96162466926351" lon="12.62264893804409"><ele>44.0</ele><time>2026-03-29T08:22:53.999Z</time></trkpt><trkpt lat="41.96151463988822" lon="12.622842464865236"><ele>44.0</ele><time>2026-03-29T08:22:54.999Z</time></trkpt><trkpt lat="41.961399810376825" lon="12.623002195686645"><ele>42.25</ele><time>2026-03-29T08:22:55.999Z</time></trkpt><trkpt lat="41.961280142920636" lon="12.6231232247939"><ele>40.5</ele><time>2026-03-29T08:22:56.999Z</time></trkpt><trkpt lat="41.96116990986185" lon="12.623229833965512"><ele>38.75</ele><time>2026-03-29T08:22:57.999Z</time></trkpt><trkpt lat="41.96107636781569" lon="12.623313138614193"><ele>37.0</ele><time>2026-03-29T08:22:58.999Z</time></trkpt><trkpt lat="41.96099010352797" lon="12.623388810440199"><ele>37.0</ele><time>2026-03-29T08:22:59.999Z</time></trkpt><trkpt lat="41.960908972286866" lon="12.623465347083096"><ele>37.0</ele><time>2026-03-29T08:23:00.999Z</time></trkpt><trkpt lat="41.96083100514979" lon="12.623527056775751"><ele>37.0</ele><time>2026-03-29T08:23:01.999Z</time></trkpt><trkpt lat="41.96074930225244" lon="12.623563272835902"><ele>37.0</ele><time>2026-03-29T08:23:02.999Z</time></trkpt><trkpt lat="41.96070340755173" lon="12.623624296587526"><ele>37.0</ele><time>2026-03-29T08:23:03.999Z</time></trkpt><trkpt lat="41.96060920463115" lon="12.623719940907948"><ele>37.2</ele><time>2026-03-29T08:23:05.999Z</time></trkpt><trkpt lat="41.96049503185442" lon="12.623672577596722"><ele>37.400000000000006</ele><time>2026-03-29T08:23:06.999Z</time></trkpt><trkpt lat="41.96046760403115" lon="12.623763664614405"><ele>37.599999999999994</ele><time>2026-03-29T08:23:07.999Z</time></trkpt><trkpt lat="41.96047806524432" lon="12.62386230761785"><ele>37.8</ele><time>2026-03-29T08:23:08.999Z</time></trkpt><trkpt lat="41.96055640175576" lon="12.623994681076375"><ele>38.0</ele><time>2026-03-29T08:23:10.999Z</time></trkpt><trkpt lat="41.96062547929173" lon="12.62405259392686"><ele>38.0</ele><time>2026-03-29T08:23:11.999Z</time></trkpt><trkpt lat="41.96068322674567" lon="12.62412448449402"><ele>38.0</ele><time>2026-03-29T08:23:12.999Z</time></trkpt><trkpt lat="41.96072303233087" lon="12.624222250223443"><ele>38.0</ele><time>2026-03-29T08:23:13.999Z</time></trkpt><trkpt lat="41.96074409259329" lon="12.62433720758012"><ele>38.0</ele><time>2026-03-29T08:23:14.999Z</time></trkpt><trkpt lat="41.96077162601504" lon="12.624469564885922"><ele>38.0</ele><time>2026-03-29T08:23:15.999Z</time></trkpt><trkpt lat="41.96081105705514" lon="12.624650549873847"><ele>37.666666666666664</ele><time>2026-03-29T08:23:16.999Z</time></trkpt><trkpt lat="41.960860982439456" lon="12.624821784651553"><ele>37.333333333333336</ele><time>2026-03-29T08:23:17.999Z</time></trkpt><trkpt lat="41.96090939126456" lon="12.624990695465854"><ele>37.0</ele><time>2026-03-29T08:23:18.999Z</time></trkpt><trkpt lat="41.960984248833945" lon="12.625209023841597"><ele>38.333333333333336</ele><time>2026-03-29T08:23:19.999Z</time></trkpt><trkpt lat="41.96107979347789" lon="12.625454035154164"><ele>39.666666666666664</ele><time>2026-03-29T08:23:20.999Z</time></trkpt><trkpt lat="41.96119016631334" lon="12.625705804251185"><ele>41.0</ele><time>2026-03-29T08:23:21.999Z</time></trkpt><trkpt lat="41.96129164679598" lon="12.625968006896617"><ele>38.0</ele><time>2026-03-29T08:23:22.999Z</time></trkpt><trkpt lat="41.96138126622485" lon="12.62620507059549"><ele>35.0</ele><time>2026-03-29T08:23:23.999Z</time></trkpt><trkpt lat="41.96147406229371" lon="12.626432096559231"><ele>32.0</ele><time>2026-03-29T08:23:24.998Z</time></trkpt><trkpt lat="41.96157655767774" lon="12.62663214767389"><ele>32.0</ele><time>2026-03-29T08:23:25.998Z</time></trkpt><trkpt lat="41.96169970842951" lon="12.626822746379014"><ele>32.0</ele><time>2026-03-29T08:23:27Z</time></trkpt><trkpt lat="41.96185009954169" lon="12.626986131197192"><ele>32.0</ele><time>2026-03-29T08:23:28Z</time></trkpt><trkpt lat="41.962033039702106" lon="12.627107652659635"><ele>32.0</ele><time>2026-03-29T08:23:29Z</time></trkpt><trkpt lat="41.96223316222702" lon="12.627187992903393"><ele>32.0</ele><time>2026-03-29T08:23:30Z</time></trkpt><trkpt lat="41.9624544964858" lon="12.627229456924827"><ele>32.0</ele><time>2026-03-29T08:23:31Z</time></trkpt><trkpt lat="41.962676968139164" lon="12.627267457761997"><ele>33.0</ele><time>2026-03-29T08:23:32Z</time></trkpt><trkpt lat="41.96290437349356" lon="12.627312205072673"><ele>34.0</ele><time>2026-03-29T08:23:33Z</time></trkpt><trkpt lat="41.963136149026724" lon="12.627352450536227"><ele>34.66666666666667</ele><time>2026-03-29T08:23:34Z</time></trkpt><trkpt lat="41.96336607117524" lon="12.627403611165628"><ele>35.333333333333336</ele><time>2026-03-29T08:23:35Z</time></trkpt><trkpt lat="41.96356719052613" lon="12.627439024079187"><ele>36.0</ele><time>2026-03-29T08:23:36Z</time></trkpt><trkpt lat="41.96375395709514" lon="12.627474799714292"><ele>36.0</ele><time>2026-03-29T08:23:37Z</time></trkpt><trkpt lat="41.963928775957044" lon="12.627508983461388"><ele>36.0</ele><time>2026-03-29T08:23:38Z</time></trkpt><trkpt lat="41.9640894864942" lon="12.627544518999455"><ele>36.0</ele><time>2026-03-29T08:23:39Z</time></trkpt><trkpt lat="41.9642477469476" lon="12.627577253337344"><ele>36.0</ele><time>2026-03-29T08:23:40Z</time></trkpt><trkpt lat="41.96440590667132" lon="12.627612646449128"><ele>36.0</ele><time>2026-03-29T08:23:41Z</time></trkpt><trkpt lat="41.96457652510635" lon="12.627672471738196"><ele>36.0</ele><time>2026-03-29T08:23:42Z</time></trkpt><trkpt lat="41.964754684638976" lon="12.627760565645916"><ele>35.333333333333336</ele><time>2026-03-29T08:23:43Z</time></trkpt><trkpt lat="41.96492757952178" lon="12.627866660691891"><ele>34.66666666666667</ele><time>2026-03-29T08:23:44Z</time></trkpt><trkpt lat="41.965093985857244" lon="12.627975922518987"><ele>34.0</ele><time>2026-03-29T08:23:45Z</time></trkpt><trkpt lat="41.96526553634571" lon="12.628090118653095"><ele>33.66666666666667</ele><time>2026-03-29T08:23:46Z</time></trkpt><trkpt lat="41.965434972334876" lon="12.628214610862832"><ele>33.333333333333336</ele><time>2026-03-29T08:23:47Z</time></trkpt><trkpt lat="41.96559615261322" lon="12.628337646442244"><ele>33.0</ele><time>2026-03-29T08:23:48Z</time></trkpt><trkpt lat="41.96575442407816" lon="12.628464384541608"><ele>33.0</ele><time>2026-03-29T08:23:49Z</time></trkpt><trkpt lat="41.96591089215131" lon="12.628594728194463"><ele>33.0</ele><time>2026-03-29T08:23:50Z</time></trkpt><trkpt lat="41.96606369463043" lon="12.628725742189125"><ele>33.0</ele><time>2026-03-29T08:23:51Z</time></trkpt><trkpt lat="41.966203415338185" lon="12.628849308276795"><ele>33.666666666666664</ele><time>2026-03-29T08:23:52Z</time></trkpt><trkpt lat="41.96632935298982" lon="12.628962541635337"><ele>34.33333333333333</ele><time>2026-03-29T08:23:53Z</time></trkpt><trkpt lat="41.96645301775236" lon="12.629073314053766"><ele>35.0</ele><time>2026-03-29T08:23:54Z</time></trkpt><trkpt lat="41.9665774772052" lon="12.62919211534873"><ele>35.0</ele><time>2026-03-29T08:23:55Z</time></trkpt><trkpt lat="41.966696031663794" lon="12.62932107420874"><ele>35.0</ele><time>2026-03-29T08:23:56Z</time></trkpt><trkpt lat="41.966805085415835" lon="12.629473798730091"><ele>35.0</ele><time>2026-03-29T08:23:57Z</time></trkpt><trkpt lat="41.96690946557129" lon="12.62965556696927"><ele>35.666666666666664</ele><time>2026-03-29T08:23:58Z</time></trkpt><trkpt lat="41.967016635858606" lon="12.629852447853613"><ele>36.333333333333336</ele><time>2026-03-29T08:23:59Z</time></trkpt><trkpt lat="41.96712663851504" lon="12.630055567672903"><ele>37.0</ele><time>2026-03-29T08:24:00Z</time></trkpt><trkpt lat="41.96723225566279" lon="12.630251195714026"><ele>36.66666666666667</ele><time>2026-03-29T08:24:01Z</time></trkpt><trkpt lat="41.96733127812354" lon="12.63043843614061"><ele>36.333333333333336</ele><time>2026-03-29T08:24:02Z</time></trkpt><trkpt lat="41.96743410027845" lon="12.630627734171592"><ele>36.0</ele><time>2026-03-29T08:24:03Z</time></trkpt><trkpt lat="41.96754140594296" lon="12.630821974686887"><ele>36.333333333333336</ele><time>2026-03-29T08:24:04Z</time></trkpt><trkpt lat="41.96765384740199" lon="12.631026203090189"><ele>36.66666666666667</ele><time>2026-03-29T08:24:05Z</time></trkpt><trkpt lat="41.96776361142069" lon="12.631227459397163"><ele>37.0</ele><time>2026-03-29T08:24:06Z</time></trkpt><trkpt lat="41.96787158230299" lon="12.63142273964751"><ele>37.0</ele><time>2026-03-29T08:24:07Z</time></trkpt><trkpt lat="41.96797954579318" lon="12.631618740613298"><ele>37.0</ele><time>2026-03-29T08:24:08Z</time></trkpt><trkpt lat="41.96808727683629" lon="12.631813389393649"><ele>37.0</ele><time>2026-03-29T08:24:09Z</time></trkpt><trkpt lat="41.96818834713277" lon="12.631997488972365"><ele>36.66666666666667</ele><time>2026-03-29T08:24:10Z</time></trkpt><trkpt lat="41.96828176241475" lon="12.632161580527649"><ele>36.333333333333336</ele><time>2026-03-29T08:24:11Z</time></trkpt><trkpt lat="41.96837620819548" lon="12.63233009844039"><ele>36.0</ele><time>2026-03-29T08:24:12Z</time></trkpt><trkpt lat="41.96848581733663" lon="12.63250540691853"><ele>36.0</ele><time>2026-03-29T08:24:13Z</time></trkpt><trkpt lat="41.96861060914356" lon="12.632670070340197"><ele>36.0</ele><time>2026-03-29T08:24:14Z</time></trkpt><trkpt lat="41.96874188522485" lon="12.632833097543259"><ele>36.0</ele><time>2026-03-29T08:24:15Z</time></trkpt><trkpt lat="41.968869550783204" lon="12.632986004149977"><ele>36.0</ele><time>2026-03-29T08:24:16Z</time></trkpt><trkpt lat="41.968992232092916" lon="12.633142292095908"><ele>36.0</ele><time>2026-03-29T08:24:17Z</time></trkpt><trkpt lat="41.969118540148955" lon="12.633305315998706"><ele>36.0</ele><time>2026-03-29T08:24:18Z</time></trkpt><trkpt lat="41.9692437254839" lon="12.633470351660062"><ele>37.0</ele><time>2026-03-29T08:24:19Z</time></trkpt><trkpt lat="41.96937450730805" lon="12.633642435901319"><ele>38.0</ele><time>2026-03-29T08:24:19.999Z</time></trkpt><trkpt lat="41.96950207544777" lon="12.633816861430848"><ele>39.0</ele><time>2026-03-29T08:24:20.999Z</time></trkpt><trkpt lat="41.96962216236635" lon="12.633981529155502"><ele>39.0</ele><time>2026-03-29T08:24:21.999Z</time></trkpt><trkpt lat="41.96973386639996" lon="12.634135621660056"><ele>39.0</ele><time>2026-03-29T08:24:22.999Z</time></trkpt><trkpt lat="41.969839742510885" lon="12.634277425915352"><ele>39.0</ele><time>2026-03-29T08:24:23.999Z</time></trkpt><trkpt lat="41.96994056377969" lon="12.634421862756973"><ele>41.0</ele><time>2026-03-29T08:24:24.999Z</time></trkpt><trkpt lat="41.97003861813208" lon="12.634574661786663"><ele>43.0</ele><time>2026-03-29T08:24:25.999Z</time></trkpt><trkpt lat="41.970141821709035" lon="12.634739500660919"><ele>45.0</ele><time>2026-03-29T08:24:26.999Z</time></trkpt><trkpt lat="41.97024538640455" lon="12.634912739839558"><ele>45.0</ele><time>2026-03-29T08:24:27.999Z</time></trkpt><trkpt lat="41.97035130716044" lon="12.635097270646751"><ele>45.0</ele><time>2026-03-29T08:24:28.999Z</time></trkpt><trkpt lat="41.97045356830018" lon="12.635286136171343"><ele>45.0</ele><time>2026-03-29T08:24:29.999Z</time></trkpt><trkpt lat="41.97055183841125" lon="12.635479936243357"><ele>43.333333333333336</ele><time>2026-03-29T08:24:30.999Z</time></trkpt><trkpt lat="41.97064358705889" lon="12.635671834129514"><ele>41.66666666666667</ele><time>2026-03-29T08:24:31.999Z</time></trkpt><trkpt lat="41.970726037599945" lon="12.6358607851191"><ele>40.0</ele><time>2026-03-29T08:24:32.999Z</time></trkpt><trkpt lat="41.970799484733675" lon="12.636044978228444"><ele>42.66666666666667</ele><time>2026-03-29T08:24:33.999Z</time></trkpt><trkpt lat="41.97087946535385" lon="12.636230870188628"><ele>45.333333333333336</ele><time>2026-03-29T08:24:34.999Z</time></trkpt><trkpt lat="41.97096623861832" lon="12.636427830161951"><ele>48.0</ele><time>2026-03-29T08:24:35.999Z</time></trkpt><trkpt lat="41.971058608469235" lon="12.636638684902149"><ele>48.0</ele><time>2026-03-29T08:24:36.999Z</time></trkpt><trkpt lat="41.97115324200964" lon="12.636866562990965"><ele>48.0</ele><time>2026-03-29T08:24:37.999Z</time></trkpt><trkpt lat="41.97124928392404" lon="12.63709959673969"><ele>48.0</ele><time>2026-03-29T08:24:38.999Z</time></trkpt><trkpt lat="41.97134932326567" lon="12.63733673679358"><ele>46.0</ele><time>2026-03-29T08:24:39.999Z</time></trkpt><trkpt lat="41.97146001733049" lon="12.637590932090173"><ele>44.0</ele><time>2026-03-29T08:24:40.999Z</time></trkpt><trkpt lat="41.9715631242576" lon="12.63784385671077"><ele>42.0</ele><time>2026-03-29T08:24:41.999Z</time></trkpt><trkpt lat="41.97166430800675" lon="12.638091345020532"><ele>46.0</ele><time>2026-03-29T08:24:42.999Z</time></trkpt><trkpt lat="41.97177408369773" lon="12.63836036677735"><ele>50.0</ele><time>2026-03-29T08:24:43.999Z</time></trkpt><trkpt lat="41.97188255265816" lon="12.638632069397204"><ele>48.333333333333336</ele><time>2026-03-29T08:24:44.999Z</time></trkpt><trkpt lat="41.97199009782277" lon="12.638901608578616"><ele>46.66666666666667</ele><time>2026-03-29T08:24:45.999Z</time></trkpt><trkpt lat="41.97209154783627" lon="12.63915627550889"><ele>45.0</ele><time>2026-03-29T08:24:46.999Z</time></trkpt><trkpt lat="41.97218689376951" lon="12.639397140930203"><ele>44.333333333333336</ele><time>2026-03-29T08:24:47.999Z</time></trkpt><trkpt lat="41.972275363871255" lon="12.639631423314276"><ele>43.66666666666667</ele><time>2026-03-29T08:24:48.999Z</time></trkpt><trkpt lat="41.972362076121335" lon="12.639871352598266"><ele>43.0</ele><time>2026-03-29T08:24:49.999Z</time></trkpt><trkpt lat="41.97244379138544" lon="12.640116593361444"><ele>42.66666666666667</ele><time>2026-03-29T08:24:50.999Z</time></trkpt><trkpt lat="41.97252253860462" lon="12.640363609169462"><ele>42.333333333333336</ele><time>2026-03-29T08:24:51.999Z</time></trkpt><trkpt lat="41.9725983852839" lon="12.640611109618726"><ele>42.0</ele><time>2026-03-29T08:24:52.999Z</time></trkpt><trkpt lat="41.97268023798151" lon="12.640862289990684"><ele>42.666666666666664</ele><time>2026-03-29T08:24:53.999Z</time></trkpt><trkpt lat="41.972774093344114" lon="12.641114919721156"><ele>43.33333333333333</ele><time>2026-03-29T08:24:54.999Z</time></trkpt><trkpt lat="41.97287835728797" lon="12.641358605451304"><ele>44.0</ele><time>2026-03-29T08:24:55.999Z</time></trkpt><trkpt lat="41.972990469807854" lon="12.641592495788366"><ele>44.0</ele><time>2026-03-29T08:24:56.999Z</time></trkpt><trkpt lat="41.97310135058516" lon="12.641802235259165"><ele>44.0</ele><time>2026-03-29T08:24:57.999Z</time></trkpt><trkpt lat="41.97320805835374" lon="12.641997553976996"><ele>44.0</ele><time>2026-03-29T08:24:58.999Z</time></trkpt><trkpt lat="41.973308548687164" lon="12.64217137165219"><ele>44.75</ele><time>2026-03-29T08:24:59.999Z</time></trkpt><trkpt lat="41.97340446342247" lon="12.642336593865314"><ele>45.5</ele><time>2026-03-29T08:25:00.999Z</time></trkpt><trkpt lat="41.973494055358856" lon="12.642493896501607"><ele>46.25</ele><time>2026-03-29T08:25:01.999Z</time></trkpt><trkpt lat="41.97357596612873" lon="12.642637774510435"><ele>47.0</ele><time>2026-03-29T08:25:02.999Z</time></trkpt><trkpt lat="41.973647249829746" lon="12.642764417717014"><ele>47.0</ele><time>2026-03-29T08:25:03.999Z</time></trkpt><trkpt lat="41.97371720171028" lon="12.64288958144796"><ele>47.0</ele><time>2026-03-29T08:25:04.999Z</time></trkpt><trkpt lat="41.97377929700977" lon="12.643002202372548"><ele>47.0</ele><time>2026-03-29T08:25:05.999Z</time></trkpt><trkpt lat="41.97383513875889" lon="12.64310346474031"><ele>47.0</ele><time>2026-03-29T08:25:06.999Z</time></trkpt><trkpt lat="41.973891108166384" lon="12.643195297268704"><ele>47.0</ele><time>2026-03-29T08:25:07.999Z</time></trkpt><trkpt lat="41.97395846370369" lon="12.643299339890614"><ele>47.0</ele><time>2026-03-29T08:25:08.999Z</time></trkpt><trkpt lat="41.97402849559069" lon="12.643416144393694"><ele>47.0</ele><time>2026-03-29T08:25:09.999Z</time></trkpt><trkpt lat="41.97409495914325" lon="12.643534069451812"><ele>47.0</ele><time>2026-03-29T08:25:10.999Z</time></trkpt><trkpt lat="41.974160123062376" lon="12.643648582874016"><ele>47.0</ele><time>2026-03-29T08:25:11.999Z</time></trkpt><trkpt lat="41.97422230412127" lon="12.643754914368312"><ele>47.0</ele><time>2026-03-29T08:25:12.999Z</time></trkpt><trkpt lat="41.97427943719253" lon="12.643856065852198"><ele>46.8</ele><time>2026-03-29T08:25:13.999Z</time></trkpt><trkpt lat="41.974343430743524" lon="12.643963805869351"><ele>46.6</ele><time>2026-03-29T08:25:14.999Z</time></trkpt><trkpt lat="41.974414182192774" lon="12.644072839372733"><ele>46.4</ele><time>2026-03-29T08:25:15.999Z</time></trkpt><trkpt lat="41.97447680959333" lon="12.644178044350276"><ele>46.199999999999996</ele><time>2026-03-29T08:25:16.999Z</time></trkpt><trkpt lat="41.97452326212788" lon="12.644276551028005"><ele>46.0</ele><time>2026-03-29T08:25:17.999Z</time></trkpt><trkpt lat="41.97457825484213" lon="12.644369586741991"><ele>46.0</ele><time>2026-03-29T08:25:18.999Z</time></trkpt><trkpt lat="41.974633482721174" lon="12.644463824136897"><ele>46.0</ele><time>2026-03-29T08:25:19.999Z</time></trkpt><trkpt lat="41.974680899789504" lon="12.644541783764732"><ele>46.0</ele><time>2026-03-29T08:25:20.999Z</time></trkpt><trkpt lat="41.97473837634273" lon="12.644630217988318"><ele>46.0</ele><time>2026-03-29T08:25:21.999Z</time></trkpt><trkpt lat="41.97479735396871" lon="12.644726902161358"><ele>46.0</ele><time>2026-03-29T08:25:22.998Z</time></trkpt><trkpt lat="41.97486811933486" lon="12.644821438044152"><ele>46.0</ele><time>2026-03-29T08:25:23.998Z</time></trkpt><trkpt lat="41.97493753139784" lon="12.644921207303423"><ele>46.0</ele><time>2026-03-29T08:25:24.998Z</time></trkpt><trkpt lat="41.97501532693411" lon="12.645020657891482"><ele>46.0</ele><time>2026-03-29T08:25:25.998Z</time></trkpt><trkpt lat="41.975093909246965" lon="12.645127892490256"><ele>46.0</ele><time>2026-03-29T08:25:26.998Z</time></trkpt><trkpt lat="41.97517008917047" lon="12.645241431544921"><ele>46.0</ele><time>2026-03-29T08:25:27.998Z</time></trkpt><trkpt lat="41.97524615821682" lon="12.645351212437662"><ele>46.0</ele><time>2026-03-29T08:25:28.998Z</time></trkpt><trkpt lat="41.97531777599054" lon="12.645463150876168"><ele>45.75</ele><time>2026-03-29T08:25:29.998Z</time></trkpt><trkpt lat="41.9753882204132" lon="12.645585056435836"><ele>45.5</ele><time>2026-03-29T08:25:30.998Z</time></trkpt><trkpt lat="41.97544250548123" lon="12.645721574132363"><ele>45.25</ele><time>2026-03-29T08:25:31.998Z</time></trkpt><trkpt lat="41.97548574611078" lon="12.645874558790084"><ele>45.0</ele><time>2026-03-29T08:25:33Z</time></trkpt><trkpt lat="41.97550603647487" lon="12.646033186978842"><ele>45.4</ele><time>2026-03-29T08:25:34Z</time></trkpt><trkpt lat="41.97550739735798" lon="12.64619168975256"><ele>45.8</ele><time>2026-03-29T08:25:35Z</time></trkpt><trkpt lat="41.97550659448875" lon="12.64634772263431"><ele>46.2</ele><time>2026-03-29T08:25:36Z</time></trkpt><trkpt lat="41.97550245626605" lon="12.646494132626309"><ele>46.6</ele><time>2026-03-29T08:25:37Z</time></trkpt><trkpt lat="41.975491173629806" lon="12.64661640503625"><ele>47.0</ele><time>2026-03-29T08:25:38Z</time></trkpt><trkpt lat="41.97548120050869" lon="12.646731293208155"><ele>47.0</ele><time>2026-03-29T08:25:39Z</time></trkpt><trkpt lat="41.975470438383866" lon="12.646858408561553"><ele>47.0</ele><time>2026-03-29T08:25:40Z</time></trkpt><trkpt lat="41.97545906221707" lon="12.646986577911974"><ele>47.0</ele><time>2026-03-29T08:25:41Z</time></trkpt><trkpt lat="41.97544591828786" lon="12.647092120776056"><ele>47.0</ele><time>2026-03-29T08:25:42Z</time></trkpt><trkpt lat="41.97543011712306" lon="12.647186738527335"><ele>47.0</ele><time>2026-03-29T08:25:43Z</time></trkpt><trkpt lat="41.97542382546876" lon="12.647281635166925"><ele>47.0</ele><time>2026-03-29T08:25:44Z</time></trkpt><trkpt lat="41.97541252203834" lon="12.647374150175324"><ele>48.0</ele><time>2026-03-29T08:25:45Z</time></trkpt><trkpt lat="41.97539566691622" lon="12.647540338167444"><ele>49.0</ele><time>2026-03-29T08:25:47Z</time></trkpt><trkpt lat="41.975381950468226" lon="12.647661204958215"><ele>50.0</ele><time>2026-03-29T08:25:48Z</time></trkpt><trkpt lat="41.97536724244429" lon="12.64779817557572"><ele>51.0</ele><time>2026-03-29T08:25:49Z</time></trkpt><trkpt lat="41.97535377548757" lon="12.647940039691086"><ele>52.0</ele><time>2026-03-29T08:25:50Z</time></trkpt><trkpt lat="41.975342893749456" lon="12.64808080813765"><ele>52.2</ele><time>2026-03-29T08:25:51Z</time></trkpt><trkpt lat="41.97533804660489" lon="12.648208576967484"><ele>52.400000000000006</ele><time>2026-03-29T08:25:52Z</time></trkpt><trkpt lat="41.97533893740571" lon="12.648333200807171"><ele>52.599999999999994</ele><time>2026-03-29T08:25:53Z</time></trkpt><trkpt lat="41.97534354495583" lon="12.648480383151211"><ele>52.8</ele><time>2026-03-29T08:25:54Z</time></trkpt><trkpt lat="41.97535017020832" lon="12.648639128042161"><ele>53.0</ele><time>2026-03-29T08:25:55Z</time></trkpt><trkpt lat="41.975365484762165" lon="12.648809993108008"><ele>52.25</ele><time>2026-03-29T08:25:56Z</time></trkpt><trkpt lat="41.97538214793097" lon="12.648979289425045"><ele>51.5</ele><time>2026-03-29T08:25:57Z</time></trkpt><trkpt lat="41.975396106233426" lon="12.649140898708241"><ele>50.75</ele><time>2026-03-29T08:25:58Z</time></trkpt><trkpt lat="41.97541540736567" lon="12.649298930093543"><ele>50.0</ele><time>2026-03-29T08:25:59Z</time></trkpt><trkpt lat="41.9754361454049" lon="12.649460223910856"><ele>50.0</ele><time>2026-03-29T08:26:00Z</time></trkpt><trkpt lat="41.97546466168606" lon="12.649631663922642"><ele>50.0</ele><time>2026-03-29T08:26:01Z</time></trkpt><trkpt lat="41.97548395666713" lon="12.649841393188964"><ele>50.0</ele><time>2026-03-29T08:26:02Z</time></trkpt><trkpt lat="41.975533808878964" lon="12.650040812087262"><ele>50.0</ele><time>2026-03-29T08:26:03Z</time></trkpt><trkpt lat="41.97556705670615" lon="12.650223458540914"><ele>50.4</ele><time>2026-03-29T08:26:04Z</time></trkpt><trkpt lat="41.975609592445124" lon="12.65037726731859"><ele>50.8</ele><time>2026-03-29T08:26:05Z</time></trkpt><trkpt lat="41.975664220275945" lon="12.650506458480468"><ele>51.2</ele><time>2026-03-29T08:26:06Z</time></trkpt><trkpt lat="41.975729503208235" lon="12.65061700315729"><ele>51.6</ele><time>2026-03-29T08:26:07Z</time></trkpt><trkpt lat="41.97580712379319" lon="12.650720938070725"><ele>52.0</ele><time>2026-03-29T08:26:08Z</time></trkpt><trkpt lat="41.97590731618241" lon="12.650829053937889"><ele>52.0</ele><time>2026-03-29T08:26:09Z</time></trkpt><trkpt lat="41.97601495917492" lon="12.650925736911763"><ele>52.0</ele><time>2026-03-29T08:26:10Z</time></trkpt><trkpt lat="41.9761226274114" lon="12.651016828418898"><ele>52.0</ele><time>2026-03-29T08:26:11Z</time></trkpt><trkpt lat="41.97622620505226" lon="12.651108668684069"><ele>52.0</ele><time>2026-03-29T08:26:12Z</time></trkpt><trkpt lat="41.97631509860199" lon="12.651190007010817"><ele>52.400000000000006</ele><time>2026-03-29T08:26:13Z</time></trkpt><trkpt lat="41.976395679036145" lon="12.651260051940728"><ele>52.800000000000004</ele><time>2026-03-29T08:26:14Z</time></trkpt><trkpt lat="41.976470827560036" lon="12.651322971342314"><ele>53.2</ele><time>2026-03-29T08:26:15Z</time></trkpt><trkpt lat="41.97653976231732" lon="12.651381339418903"><ele>53.6</ele><time>2026-03-29T08:26:16Z</time></trkpt><trkpt lat="41.97663780262819" lon="12.651465174547203"><ele>54.0</ele><time>2026-03-29T08:26:18Z</time></trkpt><trkpt lat="41.97673382103303" lon="12.65154624383898"><ele>54.0</ele><time>2026-03-29T08:26:20Z</time></trkpt><trkpt lat="41.97684398877575" lon="12.651639461884677"><ele>54.00000000000001</ele><time>2026-03-29T08:26:22Z</time></trkpt><trkpt lat="41.97691238122842" lon="12.65169891899327"><ele>54.00000000000001</ele><time>2026-03-29T08:26:23Z</time></trkpt><trkpt lat="41.97699228887121" lon="12.651763995247377"><ele>54.0</ele><time>2026-03-29T08:26:24Z</time></trkpt><trkpt lat="41.97707112065213" lon="12.651821498184676"><ele>54.0</ele><time>2026-03-29T08:26:25Z</time></trkpt><trkpt lat="41.977160537759026" lon="12.651890723863273"><ele>52.800000000000004</ele><time>2026-03-29T08:26:26Z</time></trkpt><trkpt lat="41.97724725113533" lon="12.651962789828284"><ele>51.60000000000001</ele><time>2026-03-29T08:26:27Z</time></trkpt><trkpt lat="41.977341030842766" lon="12.65203518153791"><ele>50.4</ele><time>2026-03-29T08:26:28Z</time></trkpt><trkpt lat="41.97742981591611" lon="12.65213048007202"><ele>49.2</ele><time>2026-03-29T08:26:29Z</time></trkpt><trkpt lat="41.97752937720656" lon="12.652208746415416"><ele>48.0</ele><time>2026-03-29T08:26:30Z</time></trkpt><trkpt lat="41.97763234144846" lon="12.65228968787615"><ele>48.0</ele><time>2026-03-29T08:26:31Z</time></trkpt><trkpt lat="41.97774204416546" lon="12.652375922640475"><ele>48.0</ele><time>2026-03-29T08:26:31.999Z</time></trkpt><trkpt lat="41.977852194055515" lon="12.652460570447799"><ele>48.0</ele><time>2026-03-29T08:26:32.999Z</time></trkpt><trkpt lat="41.97795484859978" lon="12.652539053230504"><ele>48.0</ele><time>2026-03-29T08:26:33.999Z</time></trkpt><trkpt lat="41.97804808698349" lon="12.652610342573334"><ele>48.0</ele><time>2026-03-29T08:26:34.999Z</time></trkpt><trkpt lat="41.97814014997498" lon="12.652680735677375"><ele>48.0</ele><time>2026-03-29T08:26:35.999Z</time></trkpt><trkpt lat="41.97822608097956" lon="12.65274644013074"><ele>48.0</ele><time>2026-03-29T08:26:36.999Z</time></trkpt><trkpt lat="41.9783047087809" lon="12.652806550513015"><ele>48.0</ele><time>2026-03-29T08:26:37.999Z</time></trkpt><trkpt lat="41.97837801894036" lon="12.65286259156658"><ele>48.0</ele><time>2026-03-29T08:26:38.999Z</time></trkpt><trkpt lat="41.97846080711791" lon="12.652924934736966"><ele>48.0</ele><time>2026-03-29T08:26:39.999Z</time></trkpt><trkpt lat="41.97855579634978" lon="12.652996581364203"><ele>48.0</ele><time>2026-03-29T08:26:40.999Z</time></trkpt><trkpt lat="41.978650285714195" lon="12.65306732845012"><ele>48.0</ele><time>2026-03-29T08:26:41.999Z</time></trkpt><trkpt lat="41.97874916408338" lon="12.65311903901669"><ele>48.0</ele><time>2026-03-29T08:26:42.999Z</time></trkpt><trkpt lat="41.97884977934287" lon="12.653198123508664"><ele>48.0</ele><time>2026-03-29T08:26:43.999Z</time></trkpt><trkpt lat="41.97897253804097" lon="12.6533201221323"><ele>48.0</ele><time>2026-03-29T08:26:44.999Z</time></trkpt><trkpt lat="41.97910781509439" lon="12.653451335196525"><ele>48.0</ele><time>2026-03-29T08:26:45.999Z</time></trkpt><trkpt lat="41.97924107620147" lon="12.65357199612242"><ele>48.0</ele><time>2026-03-29T08:26:46.999Z</time></trkpt><trkpt lat="41.97934342020245" lon="12.653697676761645"><ele>47.599999999999994</ele><time>2026-03-29T08:26:47.999Z</time></trkpt><trkpt lat="41.97943961795282" lon="12.65381158545672"><ele>47.199999999999996</ele><time>2026-03-29T08:26:48.999Z</time></trkpt><trkpt lat="41.9795239379561" lon="12.653915149477918"><ele>46.8</ele><time>2026-03-29T08:26:49.999Z</time></trkpt><trkpt lat="41.97959964042599" lon="12.65400550569331"><ele>46.4</ele><time>2026-03-29T08:26:50.999Z</time></trkpt><trkpt lat="41.97967713476323" lon="12.654095464956299"><ele>46.0</ele><time>2026-03-29T08:26:51.999Z</time></trkpt><trkpt lat="41.97975520932892" lon="12.654190005768646"><ele>46.0</ele><time>2026-03-29T08:26:52.999Z</time></trkpt><trkpt lat="41.97983824601716" lon="12.65428691898811"><ele>46.0</ele><time>2026-03-29T08:26:53.999Z</time></trkpt><trkpt lat="41.97992443900811" lon="12.65439022160334"><ele>46.0</ele><time>2026-03-29T08:26:54.999Z</time></trkpt><trkpt lat="41.98001197070102" lon="12.65449510389773"><ele>46.0</ele><time>2026-03-29T08:26:55.999Z</time></trkpt><trkpt lat="41.98009088655009" lon="12.654588682724103"><ele>46.0</ele><time>2026-03-29T08:26:56.999Z</time></trkpt><trkpt lat="41.98015953806031" lon="12.654670690249525"><ele>46.4</ele><time>2026-03-29T08:26:57.999Z</time></trkpt><trkpt lat="41.98022902655737" lon="12.65475253936368"><ele>46.8</ele><time>2026-03-29T08:26:58.999Z</time></trkpt><trkpt lat="41.98029950110273" lon="12.654835364029124"><ele>47.199999999999996</ele><time>2026-03-29T08:26:59.999Z</time></trkpt><trkpt lat="41.98036633411658" lon="12.65491522862506"><ele>47.599999999999994</ele><time>2026-03-29T08:27:00.999Z</time></trkpt><trkpt lat="41.98045076705808" lon="12.655015287164867"><ele>48.0</ele><time>2026-03-29T08:27:01.999Z</time></trkpt><trkpt lat="41.980553292741575" lon="12.655127261788667"><ele>48.0</ele><time>2026-03-29T08:27:02.999Z</time></trkpt><trkpt lat="41.98065008853066" lon="12.655268285530553"><ele>48.0</ele><time>2026-03-29T08:27:03.999Z</time></trkpt><trkpt lat="41.980748684493925" lon="12.655354454806929"><ele>48.0</ele><time>2026-03-29T08:27:04.999Z</time></trkpt><trkpt lat="41.98082137117935" lon="12.655446662867224"><ele>48.0</ele><time>2026-03-29T08:27:05.999Z</time></trkpt><trkpt lat="41.98088414064197" lon="12.655521877683096"><ele>48.0</ele><time>2026-03-29T08:27:06.999Z</time></trkpt><trkpt lat="41.98094304010102" lon="12.655589559467062"><ele>49.333333333333336</ele><time>2026-03-29T08:27:07.999Z</time></trkpt><trkpt lat="41.981001498110466" lon="12.655657212828348"><ele>50.66666666666667</ele><time>2026-03-29T08:27:08.999Z</time></trkpt><trkpt lat="41.98107100379982" lon="12.655739846517978"><ele>52.0</ele><time>2026-03-29T08:27:09.999Z</time></trkpt><trkpt lat="41.981139031737875" lon="12.655824730499221"><ele>53.333333333333336</ele><time>2026-03-29T08:27:10.999Z</time></trkpt><trkpt lat="41.98120728685334" lon="12.655899195743105"><ele>54.66666666666667</ele><time>2026-03-29T08:27:11.999Z</time></trkpt><trkpt lat="41.981264754186014" lon="12.655957638791365"><ele>56.0</ele><time>2026-03-29T08:27:12.999Z</time></trkpt><trkpt lat="41.98134262746271" lon="12.656070234282732"><ele>56.8</ele><time>2026-03-29T08:27:14.999Z</time></trkpt><trkpt lat="41.9814214734237" lon="12.656147430622301"><ele>57.599999999999994</ele><time>2026-03-29T08:27:16.999Z</time></trkpt><trkpt lat="41.98151748573825" lon="12.656242423348075"><ele>58.4</ele><time>2026-03-29T08:27:18.999Z</time></trkpt><trkpt lat="41.981626155957926" lon="12.6563487112349"><ele>59.2</ele><time>2026-03-29T08:27:20.999Z</time></trkpt><trkpt lat="41.98168636385409" lon="12.656408424321661"><ele>60.0</ele><time>2026-03-29T08:27:21.999Z</time></trkpt><trkpt lat="41.981744664919724" lon="12.656463456195254"><ele>60.0</ele><time>2026-03-29T08:27:22.999Z</time></trkpt><trkpt lat="41.98180335401788" lon="12.656518854302046"><ele>60.0</ele><time>2026-03-29T08:27:23.999Z</time></trkpt><trkpt lat="41.98186868699276" lon="12.656580523915196"><ele>60.0</ele><time>2026-03-29T08:27:24.999Z</time></trkpt><trkpt lat="41.98193149495845" lon="12.656639171532534"><ele>60.0</ele><time>2026-03-29T08:27:25.999Z</time></trkpt><trkpt lat="41.98199540917205" lon="12.656699007071365"><ele>60.0</ele><time>2026-03-29T08:27:26.999Z</time></trkpt><trkpt lat="41.982064026629615" lon="12.656763245712197"><ele>60.0</ele><time>2026-03-29T08:27:27.999Z</time></trkpt><trkpt lat="41.98213721993017" lon="12.656831768223729"><ele>60.0</ele><time>2026-03-29T08:27:28.999Z</time></trkpt><trkpt lat="41.98220054722051" lon="12.656887814723019"><ele>60.0</ele><time>2026-03-29T08:27:29.999Z</time></trkpt><trkpt lat="41.98226034255133" lon="12.656940864347092"><ele>60.0</ele><time>2026-03-29T08:27:30.999Z</time></trkpt><trkpt lat="41.98235052308419" lon="12.65702085152839"><ele>60.0</ele><time>2026-03-29T08:27:32.999Z</time></trkpt><trkpt lat="41.98244232668351" lon="12.657070741727921"><ele>60.0</ele><time>2026-03-29T08:27:34.998Z</time></trkpt><trkpt lat="41.98250878409394" lon="12.657126695796414"><ele>60.0</ele><time>2026-03-29T08:27:36.998Z</time></trkpt><trkpt lat="41.98256208205941" lon="12.657175029263339"><ele>59.0</ele><time>2026-03-29T08:27:39Z</time></trkpt><trkpt lat="41.982663889754" lon="12.657263325177167"><ele>58.0</ele><time>2026-03-29T08:27:41Z</time></trkpt><trkpt lat="41.98274488843124" lon="12.657365998083431"><ele>57.0</ele><time>2026-03-29T08:27:43Z</time></trkpt><trkpt lat="41.98280919463151" lon="12.657421746346673"><ele>56.0</ele><time>2026-03-29T08:27:44Z</time></trkpt><trkpt lat="41.98288138787645" lon="12.657484332038823"><ele>55.0</ele><time>2026-03-29T08:27:45Z</time></trkpt><trkpt lat="41.98296638886054" lon="12.657530155402206"><ele>55.0</ele><time>2026-03-29T08:27:46Z</time></trkpt><trkpt lat="41.98304609299045" lon="12.657623192330881"><ele>55.0</ele><time>2026-03-29T08:27:47Z</time></trkpt><trkpt lat="41.983121861673915" lon="12.65768621134323"><ele>55.0</ele><time>2026-03-29T08:27:48Z</time></trkpt><trkpt lat="41.983192433410366" lon="12.657740075982167"><ele>55.0</ele><time>2026-03-29T08:27:49Z</time></trkpt><trkpt lat="41.983273954665734" lon="12.657789951900467"><ele>55.0</ele><time>2026-03-29T08:27:50Z</time></trkpt><trkpt lat="41.98337636128134" lon="12.657840980807366"><ele>53.75</ele><time>2026-03-29T08:27:51Z</time></trkpt><trkpt lat="41.98349181124271" lon="12.657892187502062"><ele>52.5</ele><time>2026-03-29T08:27:52Z</time></trkpt><trkpt lat="41.98362793099383" lon="12.657940485598026"><ele>51.25</ele><time>2026-03-29T08:27:53Z</time></trkpt><trkpt lat="41.98376217009919" lon="12.65799097344522"><ele>50.0</ele><time>2026-03-29T08:27:54Z</time></trkpt><trkpt lat="41.98389682870771" lon="12.658022883339328"><ele>50.0</ele><time>2026-03-29T08:27:55Z</time></trkpt><trkpt lat="41.984006996207555" lon="12.658096520751343"><ele>50.0</ele><time>2026-03-29T08:27:56Z</time></trkpt><trkpt lat="41.984119572649725" lon="12.658151887762303"><ele>50.0</ele><time>2026-03-29T08:27:57Z</time></trkpt><trkpt lat="41.984234815413856" lon="12.658213885730875"><ele>50.0</ele><time>2026-03-29T08:27:58Z</time></trkpt><trkpt lat="41.98435628524686" lon="12.658278666574992"><ele>50.5</ele><time>2026-03-29T08:27:59Z</time></trkpt><trkpt lat="41.98446768865761" lon="12.658337340803511"><ele>51.0</ele><time>2026-03-29T08:28:00Z</time></trkpt><trkpt lat="41.98458579338851" lon="12.658397193797892"><ele>51.5</ele><time>2026-03-29T08:28:01Z</time></trkpt><trkpt lat="41.98475286194861" lon="12.65848516146463"><ele>52.0</ele><time>2026-03-29T08:28:02Z</time></trkpt><trkpt lat="41.98493355390924" lon="12.658583669407122"><ele>53.0</ele><time>2026-03-29T08:28:03Z</time></trkpt><trkpt lat="41.98508605636072" lon="12.658695058186337"><ele>54.0</ele><time>2026-03-29T08:28:04Z</time></trkpt><trkpt lat="41.985224644843115" lon="12.658795411399737"><ele>55.0</ele><time>2026-03-29T08:28:05Z</time></trkpt><trkpt lat="41.985352802420884" lon="12.658869929876062"><ele>55.0</ele><time>2026-03-29T08:28:06Z</time></trkpt><trkpt lat="41.98547511676713" lon="12.658957828247605"><ele>55.0</ele><time>2026-03-29T08:28:07Z</time></trkpt><trkpt lat="41.98558801528058" lon="12.659039347479231"><ele>55.0</ele><time>2026-03-29T08:28:08Z</time></trkpt><trkpt lat="41.9856903685369" lon="12.659113089601608"><ele>55.0</ele><time>2026-03-29T08:28:09Z</time></trkpt><trkpt lat="41.98580120897365" lon="12.659184758005365"><ele>56.25</ele><time>2026-03-29T08:28:10Z</time></trkpt><trkpt lat="41.98591212058016" lon="12.659278552283027"><ele>57.5</ele><time>2026-03-29T08:28:11Z</time></trkpt><trkpt lat="41.98603773637895" lon="12.659331634572833"><ele>58.75</ele><time>2026-03-29T08:28:12Z</time></trkpt><trkpt lat="41.98617207176755" lon="12.659347380105553"><ele>60.0</ele><time>2026-03-29T08:28:13Z</time></trkpt><trkpt lat="41.98631039681132" lon="12.65937015719815"><ele>60.0</ele><time>2026-03-29T08:28:14Z</time></trkpt><trkpt lat="41.9864532350748" lon="12.659386516478211"><ele>60.0</ele><time>2026-03-29T08:28:15Z</time></trkpt><trkpt lat="41.98658022330867" lon="12.659401604869934"><ele>60.0</ele><time>2026-03-29T08:28:16Z</time></trkpt><trkpt lat="41.98670379720836" lon="12.6594122852895"><ele>60.0</ele><time>2026-03-29T08:28:17Z</time></trkpt><trkpt lat="41.98682528218154" lon="12.659423056538119"><ele>60.0</ele><time>2026-03-29T08:28:18Z</time></trkpt><trkpt lat="41.98694065392385" lon="12.659434513444669"><ele>60.0</ele><time>2026-03-29T08:28:19Z</time></trkpt><trkpt lat="41.987065671238646" lon="12.659448532912316"><ele>60.0</ele><time>2026-03-29T08:28:20Z</time></trkpt><trkpt lat="41.987196834644045" lon="12.659468320358894"><ele>60.0</ele><time>2026-03-29T08:28:21Z</time></trkpt><trkpt lat="41.98733162395489" lon="12.659494831116604"><ele>59.0</ele><time>2026-03-29T08:28:22Z</time></trkpt><trkpt lat="41.98746900428801" lon="12.659534203760316"><ele>58.0</ele><time>2026-03-29T08:28:23Z</time></trkpt><trkpt lat="41.98760910227162" lon="12.659582902808092"><ele>57.0</ele><time>2026-03-29T08:28:24Z</time></trkpt><trkpt lat="41.98773760711019" lon="12.659673891404413"><ele>56.0</ele><time>2026-03-29T08:28:25Z</time></trkpt><trkpt lat="41.98787175564944" lon="12.659752698572486"><ele>56.0</ele><time>2026-03-29T08:28:26Z</time></trkpt><trkpt lat="41.98801203777222" lon="12.659819818232721"><ele>56.0</ele><time>2026-03-29T08:28:27Z</time></trkpt><trkpt lat="41.988139716076596" lon="12.659904254790495"><ele>56.0</ele><time>2026-03-29T08:28:28Z</time></trkpt><trkpt lat="41.98826415520775" lon="12.659992198146954"><ele>56.0</ele><time>2026-03-29T08:28:29Z</time></trkpt><trkpt lat="41.98839432431529" lon="12.660087354556842"><ele>55.75</ele><time>2026-03-29T08:28:30Z</time></trkpt><trkpt lat="41.98852490140841" lon="12.660189278003203"><ele>55.5</ele><time>2026-03-29T08:28:31Z</time></trkpt><trkpt lat="41.988653208292774" lon="12.660292766810077"><ele>55.25</ele><time>2026-03-29T08:28:32Z</time></trkpt><trkpt lat="41.98877838078267" lon="12.660392182574519"><ele>55.0</ele><time>2026-03-29T08:28:33Z</time></trkpt><trkpt lat="41.988881459501954" lon="12.660505713040834"><ele>55.0</ele><time>2026-03-29T08:28:34Z</time></trkpt><trkpt lat="41.989004181572085" lon="12.66056871644567"><ele>55.0</ele><time>2026-03-29T08:28:35Z</time></trkpt><trkpt lat="41.98912580297762" lon="12.660663549587522"><ele>55.0</ele><time>2026-03-29T08:28:35.999Z</time></trkpt><trkpt lat="41.98925410238351" lon="12.660765428810185"><ele>55.0</ele><time>2026-03-29T08:28:36.999Z</time></trkpt><trkpt lat="41.98938213460326" lon="12.660862782303141"><ele>55.25</ele><time>2026-03-29T08:28:37.999Z</time></trkpt><trkpt lat="41.98949691997796" lon="12.660953475728917"><ele>55.5</ele><time>2026-03-29T08:28:38.999Z</time></trkpt><trkpt lat="41.98959511872985" lon="12.661032274016254"><ele>55.75</ele><time>2026-03-29T08:28:39.999Z</time></trkpt><trkpt lat="41.989686582704685" lon="12.661105850377652"><ele>56.0</ele><time>2026-03-29T08:28:40.999Z</time></trkpt><trkpt lat="41.989780188807416" lon="12.661177466640838"><ele>56.0</ele><time>2026-03-29T08:28:41.999Z</time></trkpt><trkpt lat="41.989870108458966" lon="12.661249202643962"><ele>55.99999999999999</ele><time>2026-03-29T08:28:42.999Z</time></trkpt><trkpt lat="41.98996617496213" lon="12.661324973773919"><ele>55.99999999999999</ele><time>2026-03-29T08:28:43.999Z</time></trkpt><trkpt lat="41.99006129487993" lon="12.661398429884665"><ele>56.0</ele><time>2026-03-29T08:28:44.999Z</time></trkpt><trkpt lat="41.99015097734029" lon="12.661466146803669"><ele>56.0</ele><time>2026-03-29T08:28:45.999Z</time></trkpt><trkpt lat="41.99024489708559" lon="12.661537138112726"><ele>57.0</ele><time>2026-03-29T08:28:46.999Z</time></trkpt><trkpt lat="41.9903476856012" lon="12.661619347095076"><ele>58.0</ele><time>2026-03-29T08:28:47.999Z</time></trkpt><trkpt lat="41.99045671783904" lon="12.661706678796085"><ele>59.0</ele><time>2026-03-29T08:28:48.999Z</time></trkpt><trkpt lat="41.990556934972126" lon="12.6617856438288"><ele>60.0</ele><time>2026-03-29T08:28:49.999Z</time></trkpt><trkpt lat="41.99064376415413" lon="12.66185690215205"><ele>60.0</ele><time>2026-03-29T08:28:50.999Z</time></trkpt><trkpt lat="41.99072366388347" lon="12.661917452443932"><ele>60.0</ele><time>2026-03-29T08:28:51.999Z</time></trkpt><trkpt lat="41.99078737801681" lon="12.661990508087205"><ele>60.0</ele><time>2026-03-29T08:28:52.999Z</time></trkpt><trkpt lat="41.99085707075808" lon="12.662046055008354"><ele>60.0</ele><time>2026-03-29T08:28:53.999Z</time></trkpt><trkpt lat="41.99093125134168" lon="12.662079541618798"><ele>60.0</ele><time>2026-03-29T08:28:54.999Z</time></trkpt><trkpt lat="41.99099144454583" lon="12.66212671664297"><ele>60.0</ele><time>2026-03-29T08:28:55.999Z</time></trkpt><trkpt lat="41.99106049863571" lon="12.662179635225213"><ele>60.2</ele><time>2026-03-29T08:28:56.999Z</time></trkpt><trkpt lat="41.99112955720293" lon="12.662258861263753"><ele>60.4</ele><time>2026-03-29T08:28:57.999Z</time></trkpt><trkpt lat="41.99121836648313" lon="12.662300937994276"><ele>60.599999999999994</ele><time>2026-03-29T08:28:58.999Z</time></trkpt><trkpt lat="41.99130208488141" lon="12.662367051429946"><ele>60.8</ele><time>2026-03-29T08:28:59.999Z</time></trkpt><trkpt lat="41.99138540082322" lon="12.662431797066414"><ele>61.0</ele><time>2026-03-29T08:29:00.999Z</time></trkpt><trkpt lat="41.99146631569178" lon="12.662498064075278"><ele>61.0</ele><time>2026-03-29T08:29:01.999Z</time></trkpt><trkpt lat="41.991549052629644" lon="12.66256364258897"><ele>60.99999999999999</ele><time>2026-03-29T08:29:02.999Z</time></trkpt><trkpt lat="41.9916444463941" lon="12.662636012659855"><ele>60.99999999999999</ele><time>2026-03-29T08:29:03.999Z</time></trkpt><trkpt lat="41.99174684666578" lon="12.662712341144164"><ele>61.0</ele><time>2026-03-29T08:29:04.999Z</time></trkpt><trkpt lat="41.99185007416957" lon="12.662791598196597"><ele>61.0</ele><time>2026-03-29T08:29:05.999Z</time></trkpt><trkpt lat="41.99195725618375" lon="12.662878250382738"><ele>61.0</ele><time>2026-03-29T08:29:06.999Z</time></trkpt><trkpt lat="41.99206993763221" lon="12.662966172480987"><ele>61.0</ele><time>2026-03-29T08:29:07.999Z</time></trkpt><trkpt lat="41.99218349616903" lon="12.66305513606104"><ele>61.0</ele><time>2026-03-29T08:29:08.999Z</time></trkpt><trkpt lat="41.99229878606246" lon="12.663145350537839"><ele>61.0</ele><time>2026-03-29T08:29:09.999Z</time></trkpt><trkpt lat="41.99241563311126" lon="12.663233453205287"><ele>61.5</ele><time>2026-03-29T08:29:10.999Z</time></trkpt><trkpt lat="41.99253405701052" lon="12.663328192063844"><ele>62.0</ele><time>2026-03-29T08:29:11.999Z</time></trkpt><trkpt lat="41.99265723908878" lon="12.663424466667957"><ele>62.5</ele><time>2026-03-29T08:29:12.999Z</time></trkpt><trkpt lat="41.99278137756497" lon="12.663519736955083"><ele>63.0</ele><time>2026-03-29T08:29:13.999Z</time></trkpt><trkpt lat="41.992902539801435" lon="12.663609237009524"><ele>62.5</ele><time>2026-03-29T08:29:14.999Z</time></trkpt><trkpt lat="41.99301091346917" lon="12.663718543093385"><ele>62.0</ele><time>2026-03-29T08:29:15.999Z</time></trkpt><trkpt lat="41.99313655817758" lon="12.66379150137923"><ele>61.5</ele><time>2026-03-29T08:29:16.999Z</time></trkpt><trkpt lat="41.99325761313149" lon="12.663892491419578"><ele>61.0</ele><time>2026-03-29T08:29:17.999Z</time></trkpt><trkpt lat="41.99333658677803" lon="12.66394785813271"><ele>62.0</ele><time>2026-03-29T08:29:18.999Z</time></trkpt><trkpt lat="41.99344955203312" lon="12.664037916532827"><ele>63.0</ele><time>2026-03-29T08:29:19.999Z</time></trkpt><trkpt lat="41.99355615218563" lon="12.66412178169027"><ele>64.0</ele><time>2026-03-29T08:29:20.999Z</time></trkpt><trkpt lat="41.99367052656206" lon="12.664211754077638"><ele>65.0</ele><time>2026-03-29T08:29:21.999Z</time></trkpt><trkpt lat="41.993789464035245" lon="12.664301809157461"><ele>65.0</ele><time>2026-03-29T08:29:22.999Z</time></trkpt><trkpt lat="41.99391205210945" lon="12.664394239029216"><ele>65.0</ele><time>2026-03-29T08:29:23.999Z</time></trkpt><trkpt lat="41.994035216878004" lon="12.66448626778428"><ele>65.0</ele><time>2026-03-29T08:29:24.999Z</time></trkpt><trkpt lat="41.99415331500621" lon="12.664582889643954"><ele>65.0</ele><time>2026-03-29T08:29:25.999Z</time></trkpt><trkpt lat="41.9942718414104" lon="12.664670687770291"><ele>64.25</ele><time>2026-03-29T08:29:26.999Z</time></trkpt><trkpt lat="41.994386101344105" lon="12.664765498415942"><ele>63.5</ele><time>2026-03-29T08:29:27.999Z</time></trkpt><trkpt lat="41.99450312597544" lon="12.664852221840627"><ele>62.75</ele><time>2026-03-29T08:29:28.999Z</time></trkpt><trkpt lat="41.99462424891098" lon="12.664941882986401"><ele>62.0</ele><time>2026-03-29T08:29:29.999Z</time></trkpt><trkpt lat="41.994752986617506" lon="12.665036644768064"><ele>62.0</ele><time>2026-03-29T08:29:30.999Z</time></trkpt><trkpt lat="41.99488026520861" lon="12.66513347590385"><ele>62.0</ele><time>2026-03-29T08:29:31.999Z</time></trkpt><trkpt lat="41.99500174906638" lon="12.665233914828827"><ele>62.0</ele><time>2026-03-29T08:29:32.999Z</time></trkpt><trkpt lat="41.99512061947835" lon="12.665324668919101"><ele>62.0</ele><time>2026-03-29T08:29:33.999Z</time></trkpt><trkpt lat="41.99524832510399" lon="12.665417043717314"><ele>62.0</ele><time>2026-03-29T08:29:34.999Z</time></trkpt><trkpt lat="41.995373217805074" lon="12.665509161452903"><ele>62.0</ele><time>2026-03-29T08:29:35.999Z</time></trkpt><trkpt lat="41.99549509100343" lon="12.665599148326613"><ele>62.0</ele><time>2026-03-29T08:29:36.998Z</time></trkpt><trkpt lat="41.99561362804328" lon="12.665694331430645"><ele>62.0</ele><time>2026-03-29T08:29:37.998Z</time></trkpt><trkpt lat="41.995735784633816" lon="12.665793791807085"><ele>62.5</ele><time>2026-03-29T08:29:38.998Z</time></trkpt><trkpt lat="41.995856422003385" lon="12.665886753046006"><ele>63.0</ele><time>2026-03-29T08:29:39.998Z</time></trkpt><trkpt lat="41.99598753774376" lon="12.665982158380908"><ele>63.5</ele><time>2026-03-29T08:29:40.998Z</time></trkpt><trkpt lat="41.99611740756208" lon="12.666079408272509"><ele>64.0</ele><time>2026-03-29T08:29:41.998Z</time></trkpt><trkpt lat="41.99624788056289" lon="12.666180567116596"><ele>64.0</ele><time>2026-03-29T08:29:42.998Z</time></trkpt><trkpt lat="41.996380511218305" lon="12.666284600145087"><ele>64.0</ele><time>2026-03-29T08:29:43.998Z</time></trkpt><trkpt lat="41.99652452092484" lon="12.666397774038577"><ele>64.0</ele><time>2026-03-29T08:29:45Z</time></trkpt><trkpt lat="41.9966642152367" lon="12.666510959808674"><ele>64.66666666666666</ele><time>2026-03-29T08:29:46Z</time></trkpt><trkpt lat="41.99680676489983" lon="12.666624068290979"><ele>65.33333333333333</ele><time>2026-03-29T08:29:47Z</time></trkpt><trkpt lat="41.99695613649866" lon="12.666739244471115"><ele>66.0</ele><time>2026-03-29T08:29:48Z</time></trkpt><trkpt lat="41.997115375180194" lon="12.666852962713918"><ele>65.0</ele><time>2026-03-29T08:29:49Z</time></trkpt><trkpt lat="41.997285114261835" lon="12.666955516562647"><ele>64.0</ele><time>2026-03-29T08:29:50Z</time></trkpt><trkpt lat="41.997464921360844" lon="12.667047538091056"><ele>63.0</ele><time>2026-03-29T08:29:51Z</time></trkpt><trkpt lat="41.99764849946954" lon="12.66713760414223"><ele>63.0</ele><time>2026-03-29T08:29:52Z</time></trkpt><trkpt lat="41.99783322375656" lon="12.66722972715987"><ele>63.0</ele><time>2026-03-29T08:29:53Z</time></trkpt><trkpt lat="41.998009274286886" lon="12.667320319363188"><ele>63.0</ele><time>2026-03-29T08:29:54Z</time></trkpt><trkpt lat="41.99818023640683" lon="12.667404275346405"><ele>65.33333333333333</ele><time>2026-03-29T08:29:55Z</time></trkpt><trkpt lat="41.99833988573053" lon="12.66748307267054"><ele>67.66666666666666</ele><time>2026-03-29T08:29:56Z</time></trkpt><trkpt lat="41.99848935172074" lon="12.667556021198866"><ele>70.0</ele><time>2026-03-29T08:29:57Z</time></trkpt><trkpt lat="41.998621546596084" lon="12.667626786008416"><ele>70.0</ele><time>2026-03-29T08:29:58Z</time></trkpt><trkpt lat="41.99874939264291" lon="12.667691956563152"><ele>70.0</ele><time>2026-03-29T08:29:59Z</time></trkpt><trkpt lat="41.99887576169397" lon="12.667754630544604"><ele>70.0</ele><time>2026-03-29T08:30:00Z</time></trkpt><trkpt lat="41.998985497384226" lon="12.667837597985534"><ele>70.0</ele><time>2026-03-29T08:30:01Z</time></trkpt><trkpt lat="41.99908071107076" lon="12.667886413347436"><ele>68.83333333333333</ele><time>2026-03-29T08:30:02Z</time></trkpt><trkpt lat="41.99914387951365" lon="12.66790489597127"><ele>67.66666666666666</ele><time>2026-03-29T08:30:03Z</time></trkpt><trkpt lat="41.999244824988594" lon="12.667977356123933"><ele>66.5</ele><time>2026-03-29T08:30:05Z</time></trkpt><trkpt lat="41.9993307507363" lon="12.668003523608537"><ele>65.33333333333333</ele><time>2026-03-29T08:30:06Z</time></trkpt><trkpt lat="41.99939272207128" lon="12.668059302165874"><ele>64.16666666666667</ele><time>2026-03-29T08:30:07Z</time></trkpt><trkpt lat="41.999467347736044" lon="12.66807167638483"><ele>63.0</ele><time>2026-03-29T08:30:08Z</time></trkpt><trkpt lat="41.99951419048812" lon="12.668214104674949"><ele>62.75</ele><time>2026-03-29T08:30:09Z</time></trkpt><trkpt lat="41.999597655571115" lon="12.668283935306022"><ele>62.5</ele><time>2026-03-29T08:30:10Z</time></trkpt><trkpt lat="41.999684749602466" lon="12.668377284032093"><ele>62.25</ele><time>2026-03-29T08:30:11Z</time></trkpt><trkpt lat="41.99978733438688" lon="12.668487577441605"><ele>62.0</ele><time>2026-03-29T08:30:12Z</time></trkpt><trkpt lat="41.99991928503825" lon="12.668583534767823"><ele>62.25</ele><time>2026-03-29T08:30:13Z</time></trkpt><trkpt lat="42.00004425120406" lon="12.668666422971917"><ele>62.5</ele><time>2026-03-29T08:30:14Z</time></trkpt><trkpt lat="42.00015616098295" lon="12.668725284902314"><ele>62.75</ele><time>2026-03-29T08:30:15Z</time></trkpt><trkpt lat="42.000256227137584" lon="12.668800528914293"><ele>63.0</ele><time>2026-03-29T08:30:16Z</time></trkpt><trkpt lat="42.00036558544497" lon="12.668884785974944"><ele>63.0</ele><time>2026-03-29T08:30:17Z</time></trkpt><trkpt lat="42.00047925759501" lon="12.668976921395522"><ele>63.0</ele><time>2026-03-29T08:30:18Z</time></trkpt><trkpt lat="42.00059872689662" lon="12.669083341962304"><ele>63.0</ele><time>2026-03-29T08:30:19Z</time></trkpt><trkpt lat="42.00071769989375" lon="12.669203871813815"><ele>63.0</ele><time>2026-03-29T08:30:20Z</time></trkpt><trkpt lat="42.000837034869484" lon="12.669339413124364"><ele>63.66666666666667</ele><time>2026-03-29T08:30:21Z</time></trkpt><trkpt lat="42.00095694315351" lon="12.669479412105115"><ele>64.33333333333334</ele><time>2026-03-29T08:30:22Z</time></trkpt><trkpt lat="42.001076892423754" lon="12.66962071613689"><ele>65.0</ele><time>2026-03-29T08:30:23Z</time></trkpt><trkpt lat="42.00119524693734" lon="12.669766105319784"><ele>65.0</ele><time>2026-03-29T08:30:24Z</time></trkpt><trkpt lat="42.00131022327393" lon="12.669909594869946"><ele>65.0</ele><time>2026-03-29T08:30:25Z</time></trkpt><trkpt lat="42.00141997248713" lon="12.670039364127977"><ele>65.0</ele><time>2026-03-29T08:30:26Z</time></trkpt><trkpt lat="42.0015323162838" lon="12.67016585661146"><ele>65.0</ele><time>2026-03-29T08:30:27Z</time></trkpt><trkpt lat="42.001651440305686" lon="12.670291316560112"><ele>66.66666666666667</ele><time>2026-03-29T08:30:28Z</time></trkpt><trkpt lat="42.001770619215755" lon="12.670415820901612"><ele>68.33333333333333</ele><time>2026-03-29T08:30:29Z</time></trkpt><trkpt lat="42.00189400114673" lon="12.670545461308429"><ele>70.0</ele><time>2026-03-29T08:30:30Z</time></trkpt><trkpt lat="42.002021910632884" lon="12.670683703390635"><ele>70.0</ele><time>2026-03-29T08:30:31Z</time></trkpt><trkpt lat="42.00214822279922" lon="12.670825619922306"><ele>70.0</ele><time>2026-03-29T08:30:32Z</time></trkpt><trkpt lat="42.002261510870504" lon="12.670981796304392"><ele>70.0</ele><time>2026-03-29T08:30:33Z</time></trkpt><trkpt lat="42.00235674607569" lon="12.671128376774613"><ele>69.75</ele><time>2026-03-29T08:30:34Z</time></trkpt><trkpt lat="42.00245661735357" lon="12.671257500683593"><ele>69.5</ele><time>2026-03-29T08:30:35Z</time></trkpt><trkpt lat="42.002562833240525" lon="12.671353803109733"><ele>69.25</ele><time>2026-03-29T08:30:36Z</time></trkpt><trkpt lat="42.002643736435395" lon="12.671449591746267"><ele>69.0</ele><time>2026-03-29T08:30:37Z</time></trkpt><trkpt lat="42.00270849874779" lon="12.671542430645756"><ele>69.0</ele><time>2026-03-29T08:30:38Z</time></trkpt><trkpt lat="42.00276185175902" lon="12.671631792765854"><ele>69.0</ele><time>2026-03-29T08:30:38.999Z</time></trkpt><trkpt lat="42.002816877516324" lon="12.671704920760487"><ele>69.0</ele><time>2026-03-29T08:30:39.999Z</time></trkpt><trkpt lat="42.00278742774681" lon="12.67184745246377"><ele>69.0</ele><time>2026-03-29T08:30:40.999Z</time></trkpt><trkpt lat="42.00278742774712" lon="12.671954569213137"><ele>69.0</ele><time>2026-03-29T08:30:41.999Z</time></trkpt><trkpt lat="42.0030038191564" lon="12.67194772584079"><ele>68.75</ele><time>2026-03-29T08:30:42.999Z</time></trkpt><trkpt lat="42.00308185112929" lon="12.67204704297787"><ele>68.5</ele><time>2026-03-29T08:30:43.999Z</time></trkpt><trkpt lat="42.00317961847377" lon="12.672155490229748"><ele>68.25</ele><time>2026-03-29T08:30:44.999Z</time></trkpt><trkpt lat="42.00328850881338" lon="12.672289346858204"><ele>68.0</ele><time>2026-03-29T08:30:45.999Z</time></trkpt><trkpt lat="42.003397950377895" lon="12.672444486218305"><ele>68.0</ele><time>2026-03-29T08:30:46.999Z</time></trkpt><trkpt lat="42.003511372058874" lon="12.672582703679975"><ele>68.0</ele><time>2026-03-29T08:30:47.999Z</time></trkpt><trkpt lat="42.00362811590641" lon="12.672707489271511"><ele>68.0</ele><time>2026-03-29T08:30:48.999Z</time></trkpt><trkpt lat="42.00374240719949" lon="12.672809338969397"><ele>68.0</ele><time>2026-03-29T08:30:49.999Z</time></trkpt><trkpt lat="42.00386447625067" lon="12.672901220394378"><ele>68.66666666666667</ele><time>2026-03-29T08:30:50.999Z</time></trkpt><trkpt lat="42.00399617100757" lon="12.672994304192816"><ele>69.33333333333333</ele><time>2026-03-29T08:30:51.999Z</time></trkpt><trkpt lat="42.00413206349951" lon="12.67309660181491"><ele>70.0</ele><time>2026-03-29T08:30:52.999Z</time></trkpt><trkpt lat="42.00426574158397" lon="12.67320724787244"><ele>70.0</ele><time>2026-03-29T08:30:53.999Z</time></trkpt><trkpt lat="42.004399596832286" lon="12.673321569937"><ele>70.0</ele><time>2026-03-29T08:30:54.999Z</time></trkpt><trkpt lat="42.00452591549474" lon="12.673433210247461"><ele>70.0</ele><time>2026-03-29T08:30:55.999Z</time></trkpt><trkpt lat="42.00465734287229" lon="12.67355389999889"><ele>69.66666666666666</ele><time>2026-03-29T08:30:56.999Z</time></trkpt><trkpt lat="42.00478795950553" lon="12.673683817158624"><ele>69.33333333333333</ele><time>2026-03-29T08:30:57.999Z</time></trkpt><trkpt lat="42.0049191251009" lon="12.673823225527423"><ele>69.0</ele><time>2026-03-29T08:30:58.999Z</time></trkpt><trkpt lat="42.00504096416974" lon="12.673961057865705"><ele>69.0</ele><time>2026-03-29T08:30:59.999Z</time></trkpt><trkpt lat="42.00515769683111" lon="12.674096370595947"><ele>69.0</ele><time>2026-03-29T08:31:00.999Z</time></trkpt><trkpt lat="42.00526695449525" lon="12.674229583452062"><ele>69.0</ele><time>2026-03-29T08:31:01.999Z</time></trkpt><trkpt lat="42.00537461382122" lon="12.674373710072125"><ele>69.0</ele><time>2026-03-29T08:31:02.999Z</time></trkpt><trkpt lat="42.00547680156166" lon="12.674529481606394"><ele>69.0</ele><time>2026-03-29T08:31:03.999Z</time></trkpt><trkpt lat="42.00556780161268" lon="12.67469575134968"><ele>69.0</ele><time>2026-03-29T08:31:04.999Z</time></trkpt><trkpt lat="42.005648274730405" lon="12.674867713716266"><ele>69.0</ele><time>2026-03-29T08:31:05.999Z</time></trkpt><trkpt lat="42.005727404473014" lon="12.67504719999952"><ele>69.0</ele><time>2026-03-29T08:31:06.999Z</time></trkpt><trkpt lat="42.00579611260534" lon="12.675233913372304"><ele>69.0</ele><time>2026-03-29T08:31:07.999Z</time></trkpt><trkpt lat="42.00584715542147" lon="12.675435806389904"><ele>70.66666666666667</ele><time>2026-03-29T08:31:08.999Z</time></trkpt><trkpt lat="42.00587111134321" lon="12.6756506923091"><ele>72.33333333333334</ele><time>2026-03-29T08:31:09.999Z</time></trkpt><trkpt lat="42.00587878798761" lon="12.675867030053457"><ele>74.0</ele><time>2026-03-29T08:31:10.999Z</time></trkpt><trkpt lat="42.005891064265924" lon="12.676076964097023"><ele>73.25</ele><time>2026-03-29T08:31:11.999Z</time></trkpt><trkpt lat="42.00591678700582" lon="12.676277821849629"><ele>72.5</ele><time>2026-03-29T08:31:12.999Z</time></trkpt><trkpt lat="42.00595434589996" lon="12.676471933589246"><ele>71.75</ele><time>2026-03-29T08:31:13.999Z</time></trkpt><trkpt lat="42.00601056811173" lon="12.676654995202309"><ele>71.0</ele><time>2026-03-29T08:31:14.999Z</time></trkpt><trkpt lat="42.006089004626226" lon="12.676843603702213"><ele>71.33333333333334</ele><time>2026-03-29T08:31:15.999Z</time></trkpt><trkpt lat="42.006174933689984" lon="12.677041122040892"><ele>71.66666666666667</ele><time>2026-03-29T08:31:16.999Z</time></trkpt><trkpt lat="42.00626084435097" lon="12.677233084260346"><ele>72.0</ele><time>2026-03-29T08:31:17.999Z</time></trkpt><trkpt lat="42.00634760374856" lon="12.677421516731505"><ele>72.0</ele><time>2026-03-29T08:31:18.999Z</time></trkpt><trkpt lat="42.00643658754249" lon="12.677606651322504"><ele>72.0</ele><time>2026-03-29T08:31:19.999Z</time></trkpt><trkpt lat="42.00652937286691" lon="12.67779915819272"><ele>72.0</ele><time>2026-03-29T08:31:20.999Z</time></trkpt><trkpt lat="42.00662450280137" lon="12.677996639589999"><ele>72.33333333333333</ele><time>2026-03-29T08:31:21.999Z</time></trkpt><trkpt lat="42.006723513244054" lon="12.678201946913084"><ele>72.66666666666666</ele><time>2026-03-29T08:31:22.999Z</time></trkpt><trkpt lat="42.0068242103777" lon="12.678407818689307"><ele>73.0</ele><time>2026-03-29T08:31:23.999Z</time></trkpt><trkpt lat="42.006917375163646" lon="12.678603533332916"><ele>73.0</ele><time>2026-03-29T08:31:24.999Z</time></trkpt><trkpt lat="42.007004735741894" lon="12.678784567382923"><ele>73.0</ele><time>2026-03-29T08:31:25.999Z</time></trkpt><trkpt lat="42.00708899328708" lon="12.678955958353956"><ele>73.0</ele><time>2026-03-29T08:31:26.999Z</time></trkpt><trkpt lat="42.00717068569443" lon="12.67912709735089"><ele>73.0</ele><time>2026-03-29T08:31:27.999Z</time></trkpt><trkpt lat="42.00725509447362" lon="12.679309032855134"><ele>73.0</ele><time>2026-03-29T08:31:28.999Z</time></trkpt><trkpt lat="42.00734122509883" lon="12.679500627603456"><ele>73.0</ele><time>2026-03-29T08:31:29.999Z</time></trkpt><trkpt lat="42.007429262824154" lon="12.679697694650214"><ele>73.25</ele><time>2026-03-29T08:31:30.999Z</time></trkpt><trkpt lat="42.00750871023794" lon="12.679866790574188"><ele>73.5</ele><time>2026-03-29T08:31:31.999Z</time></trkpt><trkpt lat="42.0075855175628" lon="12.68002300532236"><ele>73.75</ele><time>2026-03-29T08:31:32.999Z</time></trkpt><trkpt lat="42.00766056034952" lon="12.680163397739001"><ele>74.0</ele><time>2026-03-29T08:31:33.999Z</time></trkpt><trkpt lat="42.00774126306267" lon="12.680276872708772"><ele>74.0</ele><time>2026-03-29T08:31:34.999Z</time></trkpt><trkpt lat="42.007859254319534" lon="12.680361334144672"><ele>74.0</ele><time>2026-03-29T08:31:35.999Z</time></trkpt><trkpt lat="42.00799672822228" lon="12.680418544428358"><ele>74.0</ele><time>2026-03-29T08:31:36.999Z</time></trkpt><trkpt lat="42.00813438820739" lon="12.680436143784256"><ele>74.0</ele><time>2026-03-29T08:31:37.999Z</time></trkpt><trkpt lat="42.00827183380373" lon="12.680440428063427"><ele>75.66666666666667</ele><time>2026-03-29T08:31:38.999Z</time></trkpt><trkpt lat="42.008418725039704" lon="12.68044534302719"><ele>77.33333333333333</ele><time>2026-03-29T08:31:39.998Z</time></trkpt><trkpt lat="42.00857904683425" lon="12.68043660526222"><ele>79.0</ele><time>2026-03-29T08:31:40.998Z</time></trkpt><trkpt lat="42.008763503204136" lon="12.680444646033015"><ele>79.0</ele><time>2026-03-29T08:31:41.998Z</time></trkpt><trkpt lat="42.00895855128705" lon="12.680465741545426"><ele>79.0</ele><time>2026-03-29T08:31:42.998Z</time></trkpt><trkpt lat="42.00913816874432" lon="12.680490408414338"><ele>79.0</ele><time>2026-03-29T08:31:43.998Z</time></trkpt><trkpt lat="42.009309867443925" lon="12.680514115474024"><ele>80.66666666666666</ele><time>2026-03-29T08:31:44.998Z</time></trkpt><trkpt lat="42.009481371754326" lon="12.68053526829728"><ele>82.33333333333333</ele><time>2026-03-29T08:31:45.998Z</time></trkpt><trkpt lat="42.009652877102745" lon="12.680552311098861"><ele>84.0</ele><time>2026-03-29T08:31:46.998Z</time></trkpt><trkpt lat="42.009835306600685" lon="12.680553882177414"><ele>84.66666666666667</ele><time>2026-03-29T08:31:47.998Z</time></trkpt><trkpt lat="42.01002089128831" lon="12.680535173581713"><ele>85.33333333333334</ele><time>2026-03-29T08:31:48.998Z</time></trkpt><trkpt lat="42.01019587951237" lon="12.680502108780143"><ele>86.0</ele><time>2026-03-29T08:31:49.998Z</time></trkpt><trkpt lat="42.01036783509234" lon="12.680474789059653"><ele>86.0</ele><time>2026-03-29T08:31:51Z</time></trkpt><trkpt lat="42.01052785503484" lon="12.680484665353099"><ele>86.0</ele><time>2026-03-29T08:31:52Z</time></trkpt><trkpt lat="42.01068572710717" lon="12.680458782808318"><ele>86.0</ele><time>2026-03-29T08:31:53Z</time></trkpt><trkpt lat="42.010836793139475" lon="12.68045483488576"><ele>86.75</ele><time>2026-03-29T08:31:54Z</time></trkpt><trkpt lat="42.01097812592879" lon="12.680448272885503"><ele>87.5</ele><time>2026-03-29T08:31:55Z</time></trkpt><trkpt lat="42.01112175009088" lon="12.680440859749796"><ele>88.25</ele><time>2026-03-29T08:31:56Z</time></trkpt><trkpt lat="42.011262867329926" lon="12.680435589899092"><ele>89.0</ele><time>2026-03-29T08:31:57Z</time></trkpt><trkpt lat="42.01140541099767" lon="12.680432277154786"><ele>89.0</ele><time>2026-03-29T08:31:58Z</time></trkpt><trkpt lat="42.01155061276185" lon="12.680452679910593"><ele>89.0</ele><time>2026-03-29T08:31:59Z</time></trkpt><trkpt lat="42.01170376917972" lon="12.680510726500419"><ele>89.0</ele><time>2026-03-29T08:32:00Z</time></trkpt><trkpt lat="42.01186728958036" lon="12.680597787149573"><ele>90.66666666666667</ele><time>2026-03-29T08:32:01Z</time></trkpt><trkpt lat="42.012035801433704" lon="12.680715644541408"><ele>92.33333333333333</ele><time>2026-03-29T08:32:02Z</time></trkpt><trkpt lat="42.012207820836416" lon="12.680851151446555"><ele>94.0</ele><time>2026-03-29T08:32:03Z</time></trkpt><trkpt lat="42.01238705834844" lon="12.680981765402944"><ele>97.66666666666666</ele><time>2026-03-29T08:32:04Z</time></trkpt><trkpt lat="42.012568627931486" lon="12.681128423751616"><ele>101.33333333333333</ele><time>2026-03-29T08:32:05Z</time></trkpt><trkpt lat="42.01276075094395" lon="12.68125891527646"><ele>105.0</ele><time>2026-03-29T08:32:06Z</time></trkpt><trkpt lat="42.01296495656169" lon="12.681388983280636"><ele>105.0</ele><time>2026-03-29T08:32:07Z</time></trkpt><trkpt lat="42.01314286444279" lon="12.681492080407558"><ele>105.0</ele><time>2026-03-29T08:32:08Z</time></trkpt><trkpt lat="42.013318569192336" lon="12.681667405233087"><ele>105.0</ele><time>2026-03-29T08:32:09Z</time></trkpt><trkpt lat="42.01349246676392" lon="12.68183695231007"><ele>108.33333333333334</ele><time>2026-03-29T08:32:10Z</time></trkpt><trkpt lat="42.01366842038812" lon="12.6820093064496"><ele>111.66666666666667</ele><time>2026-03-29T08:32:11Z</time></trkpt><trkpt lat="42.013832714121534" lon="12.6821677857367"><ele>115.0</ele><time>2026-03-29T08:32:12Z</time></trkpt><trkpt lat="42.01397556184207" lon="12.682313130097395"><ele>115.0</ele><time>2026-03-29T08:32:13Z</time></trkpt><trkpt lat="42.014094038834116" lon="12.682459518319877"><ele>115.0</ele><time>2026-03-29T08:32:14Z</time></trkpt><trkpt lat="42.014191260294" lon="12.682629820385516"><ele>115.0</ele><time>2026-03-29T08:32:15Z</time></trkpt><trkpt lat="42.014264122640796" lon="12.682815641534773"><ele>118.66666666666667</ele><time>2026-03-29T08:32:16Z</time></trkpt><trkpt lat="42.01430590119838" lon="12.683022574175139"><ele>122.33333333333334</ele><time>2026-03-29T08:32:17Z</time></trkpt><trkpt lat="42.014380298310684" lon="12.683232351440953"><ele>126.0</ele><time>2026-03-29T08:32:18Z</time></trkpt><trkpt lat="42.0144503945435" lon="12.683438260179829"><ele>126.66666666666666</ele><time>2026-03-29T08:32:19Z</time></trkpt><trkpt lat="42.01451492702415" lon="12.683642649528727"><ele>127.33333333333333</ele><time>2026-03-29T08:32:20Z</time></trkpt><trkpt lat="42.01455739835655" lon="12.683851901329943"><ele>128.0</ele><time>2026-03-29T08:32:21Z</time></trkpt><trkpt lat="42.01459201919827" lon="12.684068506065177"><ele>128.0</ele><time>2026-03-29T08:32:22Z</time></trkpt><trkpt lat="42.014623867714256" lon="12.684276762432635"><ele>128.0</ele><time>2026-03-29T08:32:23Z</time></trkpt><trkpt lat="42.01463670012923" lon="12.684467084151565"><ele>128.0</ele><time>2026-03-29T08:32:24Z</time></trkpt><trkpt lat="42.01466649529383" lon="12.684620771670414"><ele>128.0</ele><time>2026-03-29T08:32:25Z</time></trkpt><trkpt lat="42.0147319813192" lon="12.684769978236977"><ele>128.0</ele><time>2026-03-29T08:32:26Z</time></trkpt><trkpt lat="42.01483548304154" lon="12.684912760166833"><ele>128.0</ele><time>2026-03-29T08:32:27Z</time></trkpt><trkpt lat="42.01496563414825" lon="12.685051207556132"><ele>128.0</ele><time>2026-03-29T08:32:28Z</time></trkpt><trkpt lat="42.01510558205544" lon="12.685166912146421"><ele>131.0</ele><time>2026-03-29T08:32:29Z</time></trkpt><trkpt lat="42.015253479537826" lon="12.685263832497698"><ele>134.0</ele><time>2026-03-29T08:32:30Z</time></trkpt><trkpt lat="42.01541112725359" lon="12.685338808136178"><ele>137.0</ele><time>2026-03-29T08:32:31Z</time></trkpt><trkpt lat="42.015564787834535" lon="12.685398223578638"><ele>137.0</ele><time>2026-03-29T08:32:32Z</time></trkpt><trkpt lat="42.015703775371286" lon="12.685449041819655"><ele>137.0</ele><time>2026-03-29T08:32:32.999Z</time></trkpt><trkpt lat="42.01583828586368" lon="12.68550980093845"><ele>137.0</ele><time>2026-03-29T08:32:33.999Z</time></trkpt><trkpt lat="42.01598297392872" lon="12.685577379583583"><ele>137.0</ele><time>2026-03-29T08:32:34.999Z</time></trkpt><trkpt lat="42.01612469696648" lon="12.685681082784381"><ele>138.0</ele><time>2026-03-29T08:32:35.999Z</time></trkpt><trkpt lat="42.016275333917974" lon="12.685792753175724"><ele>139.0</ele><time>2026-03-29T08:32:36.999Z</time></trkpt><trkpt lat="42.016421602213" lon="12.685911645049082"><ele>140.0</ele><time>2026-03-29T08:32:37.999Z</time></trkpt><trkpt lat="42.01655700062751" lon="12.686023991126032"><ele>137.33333333333331</ele><time>2026-03-29T08:32:38.999Z</time></trkpt><trkpt lat="42.016683835177794" lon="12.686154556254959"><ele>134.66666666666666</ele><time>2026-03-29T08:32:39.999Z</time></trkpt><trkpt lat="42.016803493371164" lon="12.686310129896043"><ele>132.0</ele><time>2026-03-29T08:32:40.999Z</time></trkpt><trkpt lat="42.016914617912526" lon="12.686491347831016"><ele>132.0</ele><time>2026-03-29T08:32:41.999Z</time></trkpt><trkpt lat="42.017017484210896" lon="12.686677663040133"><ele>132.0</ele><time>2026-03-29T08:32:42.999Z</time></trkpt><trkpt lat="42.01711966472707" lon="12.686858241726375"><ele>132.0</ele><time>2026-03-29T08:32:43.999Z</time></trkpt><trkpt lat="42.01723142084372" lon="12.687044828772946"><ele>130.0</ele><time>2026-03-29T08:32:44.999Z</time></trkpt><trkpt lat="42.017352895661034" lon="12.687221897686541"><ele>128.0</ele><time>2026-03-29T08:32:45.999Z</time></trkpt><trkpt lat="42.01749016574189" lon="12.687382450103344"><ele>126.0</ele><time>2026-03-29T08:32:46.999Z</time></trkpt><trkpt lat="42.017641903818635" lon="12.687527601963644"><ele>125.33333333333334</ele><time>2026-03-29T08:32:47.999Z</time></trkpt><trkpt lat="42.017808174325026" lon="12.687650757996693"><ele>124.66666666666667</ele><time>2026-03-29T08:32:48.999Z</time></trkpt><trkpt lat="42.017993493129744" lon="12.6877453363423"><ele>124.0</ele><time>2026-03-29T08:32:49.999Z</time></trkpt><trkpt lat="42.01819848148191" lon="12.687802101113999"><ele>122.0</ele><time>2026-03-29T08:32:50.999Z</time></trkpt><trkpt lat="42.018411306768066" lon="12.68783792311603"><ele>120.0</ele><time>2026-03-29T08:32:51.999Z</time></trkpt><trkpt lat="42.0186253199866" lon="12.687870584685445"><ele>118.0</ele><time>2026-03-29T08:32:52.999Z</time></trkpt><trkpt lat="42.01884544958118" lon="12.687927752116792"><ele>118.0</ele><time>2026-03-29T08:32:53.999Z</time></trkpt><trkpt lat="42.01904886165836" lon="12.68796453085657"><ele>118.0</ele><time>2026-03-29T08:32:54.999Z</time></trkpt><trkpt lat="42.01923895721929" lon="12.688004147214162"><ele>118.0</ele><time>2026-03-29T08:32:55.999Z</time></trkpt><trkpt lat="42.019428263241764" lon="12.688025892450458"><ele>119.0</ele><time>2026-03-29T08:32:56.999Z</time></trkpt><trkpt lat="42.01961974643525" lon="12.688077309480596"><ele>120.0</ele><time>2026-03-29T08:32:57.999Z</time></trkpt><trkpt lat="42.019817835744675" lon="12.688134502278773"><ele>121.0</ele><time>2026-03-29T08:32:58.999Z</time></trkpt><trkpt lat="42.02002167648168" lon="12.688194954557883"><ele>122.33333333333334</ele><time>2026-03-29T08:32:59.999Z</time></trkpt><trkpt lat="42.020218463128614" lon="12.688254738932093"><ele>123.66666666666666</ele><time>2026-03-29T08:33:00.999Z</time></trkpt><trkpt lat="42.02040523522573" lon="12.6883166368155"><ele>125.0</ele><time>2026-03-29T08:33:01.999Z</time></trkpt><trkpt lat="42.02059055507344" lon="12.688386058663188"><ele>125.0</ele><time>2026-03-29T08:33:02.999Z</time></trkpt><trkpt lat="42.02078145680261" lon="12.68846323926496"><ele>125.0</ele><time>2026-03-29T08:33:03.999Z</time></trkpt><trkpt lat="42.020980311991785" lon="12.688546569216884"><ele>125.0</ele><time>2026-03-29T08:33:04.999Z</time></trkpt><trkpt lat="42.021185671602815" lon="12.68862207306914"><ele>124.66666666666666</ele><time>2026-03-29T08:33:05.999Z</time></trkpt><trkpt lat="42.02139391749032" lon="12.688686471502152"><ele>124.33333333333334</ele><time>2026-03-29T08:33:06.999Z</time></trkpt><trkpt lat="42.02160416977544" lon="12.688746179983854"><ele>124.0</ele><time>2026-03-29T08:33:07.999Z</time></trkpt><trkpt lat="42.021814658426464" lon="12.68880332960624"><ele>122.33333333333334</ele><time>2026-03-29T08:33:08.999Z</time></trkpt><trkpt lat="42.02202710872237" lon="12.688860345390262"><ele>120.66666666666666</ele><time>2026-03-29T08:33:09.999Z</time></trkpt><trkpt lat="42.02224128303251" lon="12.688913919383738"><ele>119.0</ele><time>2026-03-29T08:33:10.999Z</time></trkpt><trkpt lat="42.0224543951778" lon="12.688961807471651"><ele>119.0</ele><time>2026-03-29T08:33:11.999Z</time></trkpt><trkpt lat="42.02266376382583" lon="12.688992538936802"><ele>119.0</ele><time>2026-03-29T08:33:12.999Z</time></trkpt><trkpt lat="42.0228756437021" lon="12.68901646756037"><ele>119.0</ele><time>2026-03-29T08:33:13.999Z</time></trkpt><trkpt lat="42.02307885890615" lon="12.68903370637599"><ele>119.0</ele><time>2026-03-29T08:33:14.999Z</time></trkpt><trkpt lat="42.023277308766986" lon="12.689044014272628"><ele>119.0</ele><time>2026-03-29T08:33:15.999Z</time></trkpt><trkpt lat="42.02347639036796" lon="12.689057514263958"><ele>119.0</ele><time>2026-03-29T08:33:16.999Z</time></trkpt><trkpt lat="42.023672671073875" lon="12.689072576392673"><ele>118.66666666666666</ele><time>2026-03-29T08:33:17.999Z</time></trkpt><trkpt lat="42.023881280401" lon="12.68908840919352"><ele>118.33333333333334</ele><time>2026-03-29T08:33:18.999Z</time></trkpt><trkpt lat="42.024093825254496" lon="12.689106447210857"><ele>118.0</ele><time>2026-03-29T08:33:19.999Z</time></trkpt><trkpt lat="42.024306613404754" lon="12.689120534693334"><ele>117.0</ele><time>2026-03-29T08:33:20.999Z</time></trkpt><trkpt lat="42.024525526008134" lon="12.689131053163791"><ele>116.0</ele><time>2026-03-29T08:33:21.999Z</time></trkpt><trkpt lat="42.02474809867547" lon="12.68914612327376"><ele>115.0</ele><time>2026-03-29T08:33:22.999Z</time></trkpt><trkpt lat="42.02498834432304" lon="12.689170899336707"><ele>115.0</ele><time>2026-03-29T08:33:23.999Z</time></trkpt><trkpt lat="42.025233538144356" lon="12.68923772493611"><ele>115.0</ele><time>2026-03-29T08:33:24.999Z</time></trkpt><trkpt lat="42.02547734290507" lon="12.689291973722606"><ele>115.0</ele><time>2026-03-29T08:33:25.999Z</time></trkpt><trkpt lat="42.02572316856238" lon="12.689317337396053"><ele>115.0</ele><time>2026-03-29T08:33:26.999Z</time></trkpt><trkpt lat="42.025950456165944" lon="12.689370397053626"><ele>114.66666666666667</ele><time>2026-03-29T08:33:27.999Z</time></trkpt><trkpt lat="42.02617345192286" lon="12.689423174032703"><ele>114.33333333333334</ele><time>2026-03-29T08:33:28.999Z</time></trkpt><trkpt lat="42.026384206201925" lon="12.689472375750395"><ele>114.0</ele><time>2026-03-29T08:33:29.999Z</time></trkpt><trkpt lat="42.0265890202983" lon="12.689547768672657"><ele>115.66666666666666</ele><time>2026-03-29T08:33:30.999Z</time></trkpt><trkpt lat="42.02679586510429" lon="12.689588385504921"><ele>117.33333333333333</ele><time>2026-03-29T08:33:31.999Z</time></trkpt><trkpt lat="42.026994481817" lon="12.689683262092132"><ele>119.0</ele><time>2026-03-29T08:33:32.998Z</time></trkpt><trkpt lat="42.02717519059965" lon="12.68983538756335"><ele>119.0</ele><time>2026-03-29T08:33:33.998Z</time></trkpt><trkpt lat="42.027354696716" lon="12.690000741216954"><ele>119.0</ele><time>2026-03-29T08:33:34.998Z</time></trkpt><trkpt lat="42.02752849814661" lon="12.69020378410678"><ele>119.0</ele><time>2026-03-29T08:33:35.998Z</time></trkpt><trkpt lat="42.027700559679474" lon="12.69041093032768"><ele>120.0</ele><time>2026-03-29T08:33:36.998Z</time></trkpt><trkpt lat="42.02783999429196" lon="12.690632895985816"><ele>121.0</ele><time>2026-03-29T08:33:37.998Z</time></trkpt><trkpt lat="42.027962968622646" lon="12.690851769223105"><ele>122.0</ele><time>2026-03-29T08:33:38.998Z</time></trkpt><trkpt lat="42.028076646336245" lon="12.691058911877587"><ele>122.66666666666666</ele><time>2026-03-29T08:33:39.998Z</time></trkpt><trkpt lat="42.02819023479342" lon="12.691256897300267"><ele>123.33333333333334</ele><time>2026-03-29T08:33:40.998Z</time></trkpt><trkpt lat="42.02830196445539" lon="12.691451165060812"><ele>124.0</ele><time>2026-03-29T08:33:41.998Z</time></trkpt><trkpt lat="42.02841456604544" lon="12.691640277477171"><ele>124.0</ele><time>2026-03-29T08:33:42.998Z</time></trkpt><trkpt lat="42.02853530213216" lon="12.691829501572805"><ele>124.0</ele><time>2026-03-29T08:33:43.998Z</time></trkpt><trkpt lat="42.02866582813082" lon="12.692006979985004"><ele>124.0</ele><time>2026-03-29T08:33:44.998Z</time></trkpt><trkpt lat="42.02880635788701" lon="12.692174810474246"><ele>125.0</ele><time>2026-03-29T08:33:45.998Z</time></trkpt><trkpt lat="42.02895447181031" lon="12.692321279271628"><ele>126.0</ele><time>2026-03-29T08:33:46.998Z</time></trkpt><trkpt lat="42.02907701616303" lon="12.692469765637068"><ele>127.0</ele><time>2026-03-29T08:33:47.998Z</time></trkpt><trkpt lat="42.029196893248155" lon="12.69258466325049"><ele>129.33333333333334</ele><time>2026-03-29T08:33:48.998Z</time></trkpt><trkpt lat="42.02931565183744" lon="12.692693438483934"><ele>131.66666666666666</ele><time>2026-03-29T08:33:49.998Z</time></trkpt><trkpt lat="42.02946492290005" lon="12.692809143593955"><ele>134.0</ele><time>2026-03-29T08:33:50.998Z</time></trkpt><trkpt lat="42.02963414073353" lon="12.6928831882249"><ele>136.25</ele><time>2026-03-29T08:33:51.998Z</time></trkpt><trkpt lat="42.02977235331804" lon="12.692976832723547"><ele>138.5</ele><time>2026-03-29T08:33:52.998Z</time></trkpt><trkpt lat="42.029893040465986" lon="12.693075252371385"><ele>140.75</ele><time>2026-03-29T08:33:53.998Z</time></trkpt><trkpt lat="42.030004344240574" lon="12.693185611052803"><ele>143.0</ele><time>2026-03-29T08:33:54.998Z</time></trkpt><trkpt lat="42.030117537664545" lon="12.693294020400788"><ele>143.75</ele><time>2026-03-29T08:33:55.998Z</time></trkpt><trkpt lat="42.030230973829035" lon="12.693397184720117"><ele>144.5</ele><time>2026-03-29T08:33:57Z</time></trkpt><trkpt lat="42.03035387429703" lon="12.693487179479192"><ele>145.25</ele><time>2026-03-29T08:33:58Z</time></trkpt><trkpt lat="42.030488356743625" lon="12.693563377613518"><ele>146.0</ele><time>2026-03-29T08:33:59Z</time></trkpt><trkpt lat="42.03063988951346" lon="12.693619433177215"><ele>147.66666666666666</ele><time>2026-03-29T08:34:00Z</time></trkpt><trkpt lat="42.03081335790726" lon="12.693655646444418"><ele>149.33333333333334</ele><time>2026-03-29T08:34:01Z</time></trkpt><trkpt lat="42.03099972577187" lon="12.693671088487017"><ele>151.0</ele><time>2026-03-29T08:34:02Z</time></trkpt><trkpt lat="42.031166566354706" lon="12.693679009075883"><ele>151.0</ele><time>2026-03-29T08:34:03Z</time></trkpt><trkpt lat="42.031320920573116" lon="12.693685194888827"><ele>151.0</ele><time>2026-03-29T08:34:04Z</time></trkpt><trkpt lat="42.03147918394919" lon="12.693673400882977"><ele>151.0</ele><time>2026-03-29T08:34:05Z</time></trkpt><trkpt lat="42.03163805427129" lon="12.693649123768324"><ele>152.33333333333334</ele><time>2026-03-29T08:34:06Z</time></trkpt><trkpt lat="42.03179119594325" lon="12.693615563431209"><ele>153.66666666666666</ele><time>2026-03-29T08:34:07Z</time></trkpt><trkpt lat="42.03193887630675" lon="12.693581467663057"><ele>155.0</ele><time>2026-03-29T08:34:08Z</time></trkpt><trkpt lat="42.03209728790216" lon="12.693583067235787"><ele>155.0</ele><time>2026-03-29T08:34:09Z</time></trkpt><trkpt lat="42.03224099792882" lon="12.693668166752465"><ele>155.0</ele><time>2026-03-29T08:34:10Z</time></trkpt><trkpt lat="42.03238633559988" lon="12.693754537760741"><ele>155.0</ele><time>2026-03-29T08:34:11Z</time></trkpt><trkpt lat="42.03254894563194" lon="12.69385507368704"><ele>156.33333333333331</ele><time>2026-03-29T08:34:12Z</time></trkpt><trkpt lat="42.03273245982763" lon="12.693969787674664"><ele>157.66666666666666</ele><time>2026-03-29T08:34:13Z</time></trkpt><trkpt lat="42.03294515197275" lon="12.694101733371705"><ele>159.0</ele><time>2026-03-29T08:34:14Z</time></trkpt><trkpt lat="42.03317026242645" lon="12.694220991640627"><ele>161.0</ele><time>2026-03-29T08:34:15Z</time></trkpt><trkpt lat="42.03337856618748" lon="12.694357852168519"><ele>163.0</ele><time>2026-03-29T08:34:16Z</time></trkpt><trkpt lat="42.03358218691711" lon="12.694481909454396"><ele>163.0</ele><time>2026-03-29T08:34:17Z</time></trkpt><trkpt lat="42.0337817713068" lon="12.694602825837462"><ele>163.0</ele><time>2026-03-29T08:34:18Z</time></trkpt><trkpt lat="42.03398694860653" lon="12.694726146934487"><ele>163.0</ele><time>2026-03-29T08:34:19Z</time></trkpt><trkpt lat="42.03419249986587" lon="12.694851677757464"><ele>165.33333333333334</ele><time>2026-03-29T08:34:20Z</time></trkpt><trkpt lat="42.03439509879925" lon="12.6949744005848"><ele>167.66666666666666</ele><time>2026-03-29T08:34:21Z</time></trkpt><trkpt lat="42.03459468965229" lon="12.695095918279883"><ele>170.0</ele><time>2026-03-29T08:34:22Z</time></trkpt><trkpt lat="42.03479950413613" lon="12.695221942243704"><ele>172.0</ele><time>2026-03-29T08:34:23Z</time></trkpt><trkpt lat="42.03499102387716" lon="12.695342744962035"><ele>174.0</ele><time>2026-03-29T08:34:24Z</time></trkpt><trkpt lat="42.03516490104529" lon="12.695467649919458"><ele>176.0</ele><time>2026-03-29T08:34:25Z</time></trkpt><trkpt lat="42.0353277060668" lon="12.695611974540066"><ele>176.0</ele><time>2026-03-29T08:34:26Z</time></trkpt><trkpt lat="42.035465335283554" lon="12.695770220107033"><ele>176.0</ele><time>2026-03-29T08:34:27Z</time></trkpt><trkpt lat="42.03559100952439" lon="12.695905238482611"><ele>176.0</ele><time>2026-03-29T08:34:28Z</time></trkpt><trkpt lat="42.03571827469086" lon="12.696014947727942"><ele>176.0</ele><time>2026-03-29T08:34:29Z</time></trkpt><trkpt lat="42.03585140108721" lon="12.696104358548972"><ele>176.0</ele><time>2026-03-29T08:34:30Z</time></trkpt><trkpt lat="42.03600281460891" lon="12.696184629839125"><ele>176.0</ele><time>2026-03-29T08:34:31Z</time></trkpt><trkpt lat="42.03617119954221" lon="12.696238558536338"><ele>176.0</ele><time>2026-03-29T08:34:32Z</time></trkpt><trkpt lat="42.03632801950538" lon="12.696272359512268"><ele>176.0</ele><time>2026-03-29T08:34:33Z</time></trkpt><trkpt lat="42.03645713139667" lon="12.696298822984073"><ele>176.0</ele><time>2026-03-29T08:34:34Z</time></trkpt><trkpt lat="42.03655568037065" lon="12.696341670727664"><ele>176.0</ele><time>2026-03-29T08:34:35Z</time></trkpt><trkpt lat="42.03664320343299" lon="12.6963691962355"><ele>176.0</ele><time>2026-03-29T08:34:36Z</time></trkpt><trkpt lat="42.03673254445004" lon="12.696379221856398"><ele>176.0</ele><time>2026-03-29T08:34:37Z</time></trkpt><trkpt lat="42.03682377014187" lon="12.696417436327456"><ele>176.0</ele><time>2026-03-29T08:34:38Z</time></trkpt><trkpt lat="42.03693094241033" lon="12.696463713479375"><ele>176.0</ele><time>2026-03-29T08:34:39Z</time></trkpt><trkpt lat="42.037048571865405" lon="12.696514279051161"><ele>176.0</ele><time>2026-03-29T08:34:40Z</time></trkpt><trkpt lat="42.0371791498154" lon="12.696558878288693"><ele>176.0</ele><time>2026-03-29T08:34:41Z</time></trkpt><trkpt lat="42.0373090856035" lon="12.696594437805542"><ele>176.0</ele><time>2026-03-29T08:34:41.999Z</time></trkpt><trkpt lat="42.03743583513286" lon="12.696632635771754"><ele>176.0</ele><time>2026-03-29T08:34:42.999Z</time></trkpt><trkpt lat="42.03755447726478" lon="12.696668477635237"><ele>176.0</ele><time>2026-03-29T08:34:43.999Z</time></trkpt><trkpt lat="42.037679115791946" lon="12.696706302375537"><ele>175.75</ele><time>2026-03-29T08:34:44.999Z</time></trkpt><trkpt lat="42.03780498890935" lon="12.696742885411691"><ele>175.5</ele><time>2026-03-29T08:34:45.999Z</time></trkpt><trkpt lat="42.03792310333727" lon="12.696775394525371"><ele>175.25</ele><time>2026-03-29T08:34:46.999Z</time></trkpt><trkpt lat="42.038040217101035" lon="12.696809075634965"><ele>175.0</ele><time>2026-03-29T08:34:47.999Z</time></trkpt><trkpt lat="42.03816112718566" lon="12.696844389083997"><ele>175.0</ele><time>2026-03-29T08:34:48.999Z</time></trkpt><trkpt lat="42.0382836192835" lon="12.696875358482288"><ele>175.0</ele><time>2026-03-29T08:34:49.999Z</time></trkpt><trkpt lat="42.03840293009959" lon="12.696907370106604"><ele>175.0</ele><time>2026-03-29T08:34:50.999Z</time></trkpt><trkpt lat="42.038528648709494" lon="12.696939476880441"><ele>175.0</ele><time>2026-03-29T08:34:51.999Z</time></trkpt><trkpt lat="42.03865496832819" lon="12.696969161098078"><ele>176.25</ele><time>2026-03-29T08:34:52.999Z</time></trkpt><trkpt lat="42.03877566880398" lon="12.696997711426883"><ele>177.5</ele><time>2026-03-29T08:34:53.999Z</time></trkpt><trkpt lat="42.038890730505976" lon="12.697027547214626"><ele>178.75</ele><time>2026-03-29T08:34:54.999Z</time></trkpt><trkpt lat="42.03900466994389" lon="12.697078314407475"><ele>180.0</ele><time>2026-03-29T08:34:55.999Z</time></trkpt><trkpt lat="42.039126724050654" lon="12.69710391875504"><ele>180.0</ele><time>2026-03-29T08:34:56.999Z</time></trkpt><trkpt lat="42.03925851773656" lon="12.697129468150747"><ele>180.0</ele><time>2026-03-29T08:34:57.999Z</time></trkpt><trkpt lat="42.039392376602166" lon="12.697150243582316"><ele>180.0</ele><time>2026-03-29T08:34:58.999Z</time></trkpt><trkpt lat="42.039527999778045" lon="12.697165307824948"><ele>180.0</ele><time>2026-03-29T08:34:59.999Z</time></trkpt><trkpt lat="42.039664468939975" lon="12.697178148059402"><ele>180.0</ele><time>2026-03-29T08:35:00.999Z</time></trkpt><trkpt lat="42.0398148480058" lon="12.697190691808627"><ele>180.0</ele><time>2026-03-29T08:35:01.999Z</time></trkpt><trkpt lat="42.03996923905328" lon="12.69720383710029"><ele>180.0</ele><time>2026-03-29T08:35:02.999Z</time></trkpt><trkpt lat="42.04012401150191" lon="12.697216320881635"><ele>179.0</ele><time>2026-03-29T08:35:03.999Z</time></trkpt><trkpt lat="42.04028468838238" lon="12.697229282584264"><ele>178.0</ele><time>2026-03-29T08:35:04.999Z</time></trkpt><trkpt lat="42.04045594544406" lon="12.697243097786174"><ele>177.0</ele><time>2026-03-29T08:35:05.999Z</time></trkpt><trkpt lat="42.04063854835254" lon="12.697264558581264"><ele>176.33333333333334</ele><time>2026-03-29T08:35:06.999Z</time></trkpt><trkpt lat="42.04081631391504" lon="12.69729342459454"><ele>175.66666666666669</ele><time>2026-03-29T08:35:07.999Z</time></trkpt><trkpt lat="42.04099124891316" lon="12.697325100569065"><ele>175.0</ele><time>2026-03-29T08:35:08.999Z</time></trkpt><trkpt lat="42.041166990596956" lon="12.69737532586075"><ele>175.0</ele><time>2026-03-29T08:35:09.999Z</time></trkpt><trkpt lat="42.041349843042894" lon="12.697459523872695"><ele>175.0</ele><time>2026-03-29T08:35:10.999Z</time></trkpt><trkpt lat="42.04154539055708" lon="12.697569566554094"><ele>175.0</ele><time>2026-03-29T08:35:11.999Z</time></trkpt><trkpt lat="42.04175316729992" lon="12.69767169353232"><ele>171.0</ele><time>2026-03-29T08:35:12.999Z</time></trkpt><trkpt lat="42.041954038313385" lon="12.6978146534296"><ele>167.0</ele><time>2026-03-29T08:35:13.999Z</time></trkpt><trkpt lat="42.042165567330066" lon="12.69794010795514"><ele>167.0</ele><time>2026-03-29T08:35:14.999Z</time></trkpt><trkpt lat="42.042381651871075" lon="12.698069541473027"><ele>167.0</ele><time>2026-03-29T08:35:15.999Z</time></trkpt><trkpt lat="42.04259412635699" lon="12.698196306579195"><ele>166.66666666666666</ele><time>2026-03-29T08:35:16.999Z</time></trkpt><trkpt lat="42.04279001539279" lon="12.69831317649934"><ele>166.33333333333334</ele><time>2026-03-29T08:35:17.999Z</time></trkpt><trkpt lat="42.04298507731611" lon="12.698408673196242"><ele>166.0</ele><time>2026-03-29T08:35:18.999Z</time></trkpt><trkpt lat="42.043164795026655" lon="12.69851982531128"><ele>164.0</ele><time>2026-03-29T08:35:19.999Z</time></trkpt><trkpt lat="42.043349079520375" lon="12.698625917570363"><ele>162.0</ele><time>2026-03-29T08:35:20.999Z</time></trkpt><trkpt lat="42.04354221743669" lon="12.698729004660043"><ele>160.0</ele><time>2026-03-29T08:35:21.999Z</time></trkpt><trkpt lat="42.04374285190912" lon="12.698840297809609"><ele>160.0</ele><time>2026-03-29T08:35:22.999Z</time></trkpt><trkpt lat="42.04396097757975" lon="12.698912004490298"><ele>160.0</ele><time>2026-03-29T08:35:23.999Z</time></trkpt><trkpt lat="42.04416950441333" lon="12.698965509676562"><ele>160.0</ele><time>2026-03-29T08:35:24.999Z</time></trkpt><trkpt lat="42.04435863450208" lon="12.698988525291178"><ele>160.0</ele><time>2026-03-29T08:35:25.999Z</time></trkpt><trkpt lat="42.04452455768738" lon="12.699029064295598"><ele>160.0</ele><time>2026-03-29T08:35:26.999Z</time></trkpt><trkpt lat="42.044697189142425" lon="12.699064531126366"><ele>160.0</ele><time>2026-03-29T08:35:27.999Z</time></trkpt><trkpt lat="42.0448805093561" lon="12.699095469600175"><ele>158.66666666666669</ele><time>2026-03-29T08:35:28.999Z</time></trkpt><trkpt lat="42.045080699542375" lon="12.699058910671592"><ele>157.33333333333334</ele><time>2026-03-29T08:35:29.999Z</time></trkpt><trkpt lat="42.0452739737901" lon="12.698960457023768"><ele>156.0</ele><time>2026-03-29T08:35:30.999Z</time></trkpt><trkpt lat="42.04544280949897" lon="12.698853203270646"><ele>156.0</ele><time>2026-03-29T08:35:31.999Z</time></trkpt><trkpt lat="42.045612905585564" lon="12.698778308572928"><ele>156.0</ele><time>2026-03-29T08:35:32.999Z</time></trkpt><trkpt lat="42.04578589757943" lon="12.698712159315845"><ele>156.0</ele><time>2026-03-29T08:35:33.999Z</time></trkpt><trkpt lat="42.04598327134341" lon="12.698672535826708"><ele>156.0</ele><time>2026-03-29T08:35:34.999Z</time></trkpt><trkpt lat="42.046173839787365" lon="12.69866826957498"><ele>156.0</ele><time>2026-03-29T08:35:35.999Z</time></trkpt><trkpt lat="42.04635277972632" lon="12.698688688644957"><ele>156.0</ele><time>2026-03-29T08:35:36.999Z</time></trkpt><trkpt lat="42.046521149714835" lon="12.698724226978124"><ele>154.33333333333334</ele><time>2026-03-29T08:35:37.999Z</time></trkpt><trkpt lat="42.04668783478394" lon="12.698771804388251"><ele>152.66666666666669</ele><time>2026-03-29T08:35:38.999Z</time></trkpt><trkpt lat="42.04684055014242" lon="12.698833086527106"><ele>151.0</ele><time>2026-03-29T08:35:39.999Z</time></trkpt><trkpt lat="42.04698714120414" lon="12.698909310643995"><ele>151.0</ele><time>2026-03-29T08:35:40.999Z</time></trkpt><trkpt lat="42.04713476091725" lon="12.6990057137217"><ele>151.0</ele><time>2026-03-29T08:35:41.999Z</time></trkpt><trkpt lat="42.04727703099083" lon="12.699121697701498"><ele>151.0</ele><time>2026-03-29T08:35:42.999Z</time></trkpt><trkpt lat="42.047412741909284" lon="12.699242926308507"><ele>150.33333333333334</ele><time>2026-03-29T08:35:43.998Z</time></trkpt><trkpt lat="42.04754766081733" lon="12.699339231751814"><ele>149.66666666666666</ele><time>2026-03-29T08:35:44.998Z</time></trkpt><trkpt lat="42.04767095116423" lon="12.699446127987642"><ele>149.0</ele><time>2026-03-29T08:35:45.998Z</time></trkpt><trkpt lat="42.047808370352755" lon="12.699541679271475"><ele>149.0</ele><time>2026-03-29T08:35:46.998Z</time></trkpt><trkpt lat="42.047950137949954" lon="12.69962915904755"><ele>149.0</ele><time>2026-03-29T08:35:47.998Z</time></trkpt><trkpt lat="42.048093651646624" lon="12.69970613355572"><ele>149.0</ele><time>2026-03-29T08:35:48.998Z</time></trkpt><trkpt lat="42.04821449573134" lon="12.69979798354067"><ele>149.0</ele><time>2026-03-29T08:35:49.998Z</time></trkpt><trkpt lat="42.04832982454219" lon="12.699838874315367"><ele>148.0</ele><time>2026-03-29T08:35:50.998Z</time></trkpt><trkpt lat="42.04843097398448" lon="12.699900128327197"><ele>147.0</ele><time>2026-03-29T08:35:51.998Z</time></trkpt><trkpt lat="42.048540637328365" lon="12.699964508038981"><ele>146.0</ele><time>2026-03-29T08:35:52.998Z</time></trkpt><trkpt lat="42.04866976708205" lon="12.700033301302582"><ele>145.0</ele><time>2026-03-29T08:35:53.998Z</time></trkpt><trkpt lat="42.04880582869548" lon="12.700106367911113"><ele>145.0</ele><time>2026-03-29T08:35:54.998Z</time></trkpt><trkpt lat="42.048948953957016" lon="12.700186685255535"><ele>145.0</ele><time>2026-03-29T08:35:55.998Z</time></trkpt><trkpt lat="42.049094056633486" lon="12.700295965986111"><ele>145.0</ele><time>2026-03-29T08:35:56.998Z</time></trkpt><trkpt lat="42.0492651776779" lon="12.700404759158005"><ele>143.33333333333334</ele><time>2026-03-29T08:35:57.998Z</time></trkpt><trkpt lat="42.04945596069899" lon="12.700532131491778"><ele>141.66666666666666</ele><time>2026-03-29T08:35:58.998Z</time></trkpt><trkpt lat="42.04965649860009" lon="12.70066597260307"><ele>140.0</ele><time>2026-03-29T08:35:59.998Z</time></trkpt><trkpt lat="42.04986378058012" lon="12.700781504757257"><ele>139.66666666666666</ele><time>2026-03-29T08:36:00.998Z</time></trkpt><trkpt lat="42.05006252061977" lon="12.700913134194103"><ele>139.33333333333334</ele><time>2026-03-29T08:36:01.998Z</time></trkpt><trkpt lat="42.0502460821631" lon="12.701033878950893"><ele>139.0</ele><time>2026-03-29T08:36:03Z</time></trkpt><trkpt lat="42.050416186868745" lon="12.701148091915055"><ele>137.66666666666669</ele><time>2026-03-29T08:36:04Z</time></trkpt><trkpt lat="42.050578891073684" lon="12.7012644045881"><ele>136.33333333333334</ele><time>2026-03-29T08:36:05Z</time></trkpt><trkpt lat="42.050733848835854" lon="12.701378815196579"><ele>135.0</ele><time>2026-03-29T08:36:06Z</time></trkpt><trkpt lat="42.05089043257908" lon="12.701489428302143"><ele>135.0</ele><time>2026-03-29T08:36:07Z</time></trkpt><trkpt lat="42.05105776345968" lon="12.701597361837976"><ele>135.0</ele><time>2026-03-29T08:36:08Z</time></trkpt><trkpt lat="42.05123671188821" lon="12.701686844395415"><ele>135.0</ele><time>2026-03-29T08:36:09Z</time></trkpt><trkpt lat="42.05142903803164" lon="12.701761716148788"><ele>135.33333333333334</ele><time>2026-03-29T08:36:10Z</time></trkpt><trkpt lat="42.05162978628793" lon="12.7018277163706"><ele>135.66666666666669</ele><time>2026-03-29T08:36:11Z</time></trkpt><trkpt lat="42.0518326192467" lon="12.70191251562566"><ele>136.0</ele><time>2026-03-29T08:36:12Z</time></trkpt><trkpt lat="42.052042504853056" lon="12.701952607495198"><ele>133.33333333333334</ele><time>2026-03-29T08:36:13Z</time></trkpt><trkpt lat="42.05225354983223" lon="12.702013615195298"><ele>130.66666666666666</ele><time>2026-03-29T08:36:14Z</time></trkpt><trkpt lat="42.05245768005378" lon="12.7020708062122"><ele>128.0</ele><time>2026-03-29T08:36:15Z</time></trkpt><trkpt lat="42.0526544861414" lon="12.702122826797178"><ele>127.33333333333333</ele><time>2026-03-29T08:36:16Z</time></trkpt><trkpt lat="42.052847922132194" lon="12.70217431009377"><ele>126.66666666666666</ele><time>2026-03-29T08:36:17Z</time></trkpt><trkpt lat="42.05302950023303" lon="12.70222416624801"><ele>126.0</ele><time>2026-03-29T08:36:18Z</time></trkpt><trkpt lat="42.05321561053527" lon="12.702275431737812"><ele>125.0</ele><time>2026-03-29T08:36:19Z</time></trkpt><trkpt lat="42.05341005770402" lon="12.702327985829234"><ele>124.0</ele><time>2026-03-29T08:36:20Z</time></trkpt><trkpt lat="42.05360558772938" lon="12.702404172923062"><ele>123.0</ele><time>2026-03-29T08:36:21Z</time></trkpt><trkpt lat="42.05380356987745" lon="12.702459563930116"><ele>123.0</ele><time>2026-03-29T08:36:22Z</time></trkpt><trkpt lat="42.05400506697092" lon="12.702517831272822"><ele>123.0</ele><time>2026-03-29T08:36:23Z</time></trkpt><trkpt lat="42.05420768601905" lon="12.70257718616294"><ele>123.0</ele><time>2026-03-29T08:36:24Z</time></trkpt><trkpt lat="42.05441258789924" lon="12.702617404898117"><ele>122.66666666666666</ele><time>2026-03-29T08:36:25Z</time></trkpt><trkpt lat="42.054611229603616" lon="12.702677986057797"><ele>122.33333333333333</ele><time>2026-03-29T08:36:26Z</time></trkpt><trkpt lat="42.05480656008383" lon="12.702725040296883"><ele>122.0</ele><time>2026-03-29T08:36:27Z</time></trkpt><trkpt lat="42.05500490663623" lon="12.702746497428926"><ele>122.0</ele><time>2026-03-29T08:36:28Z</time></trkpt><trkpt lat="42.05521107800747" lon="12.702738438276853"><ele>122.0</ele><time>2026-03-29T08:36:29Z</time></trkpt><trkpt lat="42.05542186840452" lon="12.702721876087104"><ele>122.0</ele><time>2026-03-29T08:36:30Z</time></trkpt><trkpt lat="42.05562739947295" lon="12.702685744484196"><ele>121.66666666666666</ele><time>2026-03-29T08:36:31Z</time></trkpt><trkpt lat="42.05582949146533" lon="12.702655397519171"><ele>121.33333333333334</ele><time>2026-03-29T08:36:32Z</time></trkpt><trkpt lat="42.056035598103264" lon="12.702654731698095"><ele>121.0</ele><time>2026-03-29T08:36:33Z</time></trkpt><trkpt lat="42.05624486776377" lon="12.702706333441876"><ele>119.33333333333334</ele><time>2026-03-29T08:36:34Z</time></trkpt><trkpt lat="42.05644602905814" lon="12.702795746746483"><ele>117.66666666666666</ele><time>2026-03-29T08:36:35Z</time></trkpt><trkpt lat="42.05664019855705" lon="12.702906225116704"><ele>116.0</ele><time>2026-03-29T08:36:36Z</time></trkpt><trkpt lat="42.05682668899729" lon="12.702992491197678"><ele>116.0</ele><time>2026-03-29T08:36:37Z</time></trkpt><trkpt lat="42.05699425272266" lon="12.703106708084771"><ele>116.0</ele><time>2026-03-29T08:36:38Z</time></trkpt><trkpt lat="42.05715760455729" lon="12.703257805901622"><ele>116.0</ele><time>2026-03-29T08:36:39Z</time></trkpt><trkpt lat="42.05730235242344" lon="12.703472845675911"><ele>116.66666666666666</ele><time>2026-03-29T08:36:40Z</time></trkpt><trkpt lat="42.05742953327869" lon="12.70370044513915"><ele>117.33333333333334</ele><time>2026-03-29T08:36:41Z</time></trkpt><trkpt lat="42.05757496333752" lon="12.703901033717841"><ele>118.0</ele><time>2026-03-29T08:36:42Z</time></trkpt><trkpt lat="42.0577332086595" lon="12.704062412717036"><ele>118.0</ele><time>2026-03-29T08:36:43Z</time></trkpt><trkpt lat="42.05790621202398" lon="12.704199073668933"><ele>118.0</ele><time>2026-03-29T08:36:44Z</time></trkpt><trkpt lat="42.05811112939748" lon="12.704319665759872"><ele>118.0</ele><time>2026-03-29T08:36:45Z</time></trkpt><trkpt lat="42.05830689608313" lon="12.70446070392475"><ele>118.0</ele><time>2026-03-29T08:36:46Z</time></trkpt><trkpt lat="42.05849149491235" lon="12.704578329038922"><ele>118.0</ele><time>2026-03-29T08:36:47Z</time></trkpt><trkpt lat="42.058667117636716" lon="12.704690234535821"><ele>118.0</ele><time>2026-03-29T08:36:48Z</time></trkpt><trkpt lat="42.058843171579845" lon="12.704802414652962"><ele>118.0</ele><time>2026-03-29T08:36:49Z</time></trkpt><trkpt lat="42.059019872521674" lon="12.704914960673742"><ele>118.0</ele><time>2026-03-29T08:36:49.999Z</time></trkpt><trkpt lat="42.05918462306254" lon="12.705024606885912"><ele>118.0</ele><time>2026-03-29T08:36:50.999Z</time></trkpt><trkpt lat="42.05934441302692" lon="12.70513573640319"><ele>119.0</ele><time>2026-03-29T08:36:51.999Z</time></trkpt><trkpt lat="42.059507372407154" lon="12.705261431325658"><ele>120.0</ele><time>2026-03-29T08:36:52.999Z</time></trkpt><trkpt lat="42.059661896972614" lon="12.705410786003755"><ele>121.0</ele><time>2026-03-29T08:36:53.999Z</time></trkpt><trkpt lat="42.05981975833946" lon="12.705579223050195"><ele>119.33333333333334</ele><time>2026-03-29T08:36:54.999Z</time></trkpt><trkpt lat="42.05995396239307" lon="12.705781637944764"><ele>117.66666666666666</ele><time>2026-03-29T08:36:55.999Z</time></trkpt><trkpt lat="42.0600797800813" lon="12.705977622200537"><ele>116.0</ele><time>2026-03-29T08:36:56.999Z</time></trkpt><trkpt lat="42.06020501093419" lon="12.70618764445601"><ele>116.0</ele><time>2026-03-29T08:36:57.999Z</time></trkpt><trkpt lat="42.06032455815478" lon="12.706411730340802"><ele>116.0</ele><time>2026-03-29T08:36:58.999Z</time></trkpt><trkpt lat="42.06043136092652" lon="12.706648299635816"><ele>116.0</ele><time>2026-03-29T08:36:59.999Z</time></trkpt><trkpt lat="42.060528628406345" lon="12.706880052580384"><ele>117.33333333333333</ele><time>2026-03-29T08:37:00.999Z</time></trkpt><trkpt lat="42.06058976412251" lon="12.707119353249249"><ele>118.66666666666666</ele><time>2026-03-29T08:37:01.999Z</time></trkpt><trkpt lat="42.060629530168285" lon="12.707360399822987"><ele>120.0</ele><time>2026-03-29T08:37:02.999Z</time></trkpt><trkpt lat="42.060644440878086" lon="12.707634800581275"><ele>119.66666666666666</ele><time>2026-03-29T08:37:03.999Z</time></trkpt><trkpt lat="42.060615431135645" lon="12.707893440563726"><ele>119.33333333333333</ele><time>2026-03-29T08:37:04.999Z</time></trkpt><trkpt lat="42.06059248401603" lon="12.708136164873002"><ele>119.0</ele><time>2026-03-29T08:37:05.999Z</time></trkpt><trkpt lat="42.060587503693355" lon="12.70838266101993"><ele>117.33333333333333</ele><time>2026-03-29T08:37:06.999Z</time></trkpt><trkpt lat="42.060584817870776" lon="12.708642515767192"><ele>115.66666666666666</ele><time>2026-03-29T08:37:07.999Z</time></trkpt><trkpt lat="42.06056868071742" lon="12.7089069823118"><ele>114.0</ele><time>2026-03-29T08:37:08.999Z</time></trkpt><trkpt lat="42.06054800583663" lon="12.70917455552228"><ele>114.0</ele><time>2026-03-29T08:37:09.999Z</time></trkpt><trkpt lat="42.06053363383498" lon="12.709449989661643"><ele>114.0</ele><time>2026-03-29T08:37:10.999Z</time></trkpt><trkpt lat="42.060516470189434" lon="12.70971988488787"><ele>114.0</ele><time>2026-03-29T08:37:11.999Z</time></trkpt><trkpt lat="42.06049907899796" lon="12.7099694900752"><ele>114.0</ele><time>2026-03-29T08:37:12.999Z</time></trkpt><trkpt lat="42.060484579066284" lon="12.710212810753964"><ele>114.0</ele><time>2026-03-29T08:37:13.999Z</time></trkpt><trkpt lat="42.060468013697374" lon="12.710443428898383"><ele>114.0</ele><time>2026-03-29T08:37:14.999Z</time></trkpt><trkpt lat="42.06045305973763" lon="12.71065332202073"><ele>113.75</ele><time>2026-03-29T08:37:15.999Z</time></trkpt><trkpt lat="42.06043617206848" lon="12.710853906865898"><ele>113.5</ele><time>2026-03-29T08:37:16.999Z</time></trkpt><trkpt lat="42.060419310709676" lon="12.711056556566858"><ele>113.25</ele><time>2026-03-29T08:37:17.999Z</time></trkpt><trkpt lat="42.06040032858616" lon="12.71125179412073"><ele>113.0</ele><time>2026-03-29T08:37:18.999Z</time></trkpt><trkpt lat="42.06038226289233" lon="12.711444315867865"><ele>112.0</ele><time>2026-03-29T08:37:19.999Z</time></trkpt><trkpt lat="42.06036110868863" lon="12.71162738720519"><ele>111.0</ele><time>2026-03-29T08:37:20.999Z</time></trkpt><trkpt lat="42.060339792504614" lon="12.711817708650438"><ele>110.0</ele><time>2026-03-29T08:37:21.999Z</time></trkpt><trkpt lat="42.060311733144225" lon="12.71201856710099"><ele>109.0</ele><time>2026-03-29T08:37:22.999Z</time></trkpt><trkpt lat="42.06026596790965" lon="12.712219953392927"><ele>107.66666666666667</ele><time>2026-03-29T08:37:23.999Z</time></trkpt><trkpt lat="42.06019127761452" lon="12.712420513789477"><ele>106.33333333333334</ele><time>2026-03-29T08:37:24.999Z</time></trkpt><trkpt lat="42.060100636138806" lon="12.71261136937839"><ele>105.0</ele><time>2026-03-29T08:37:25.999Z</time></trkpt><trkpt lat="42.060005456675256" lon="12.712774181155085"><ele>107.0</ele><time>2026-03-29T08:37:26.999Z</time></trkpt><trkpt lat="42.05991524696064" lon="12.712924152813125"><ele>109.0</ele><time>2026-03-29T08:37:27.999Z</time></trkpt><trkpt lat="42.05981859204344" lon="12.713066449180321"><ele>111.0</ele><time>2026-03-29T08:37:28.999Z</time></trkpt><trkpt lat="42.059703617240444" lon="12.713200495486307"><ele>113.0</ele><time>2026-03-29T08:37:29.999Z</time></trkpt><trkpt lat="42.05957672111674" lon="12.71332636767077"><ele>113.0</ele><time>2026-03-29T08:37:30.999Z</time></trkpt><trkpt lat="42.059443930425275" lon="12.713449409674732"><ele>113.0</ele><time>2026-03-29T08:37:31.999Z</time></trkpt><trkpt lat="42.059300832002066" lon="12.713570247664348"><ele>113.0</ele><time>2026-03-29T08:37:32.999Z</time></trkpt><trkpt lat="42.059149799621494" lon="12.71368696614372"><ele>111.0</ele><time>2026-03-29T08:37:33.999Z</time></trkpt><trkpt lat="42.05899371733168" lon="12.713799960278438"><ele>109.0</ele><time>2026-03-29T08:37:34.999Z</time></trkpt><trkpt lat="42.058832289219005" lon="12.713913615388607"><ele>107.0</ele><time>2026-03-29T08:37:35.999Z</time></trkpt><trkpt lat="42.058671163008924" lon="12.714017665609742"><ele>107.0</ele><time>2026-03-29T08:37:36.999Z</time></trkpt><trkpt lat="42.05851207865034" lon="12.714117160539173"><ele>107.0</ele><time>2026-03-29T08:37:37.999Z</time></trkpt><trkpt lat="42.058364254654386" lon="12.714205670245601"><ele>107.0</ele><time>2026-03-29T08:37:38.999Z</time></trkpt><trkpt lat="42.0582223552602" lon="12.7142882488848"><ele>106.66666666666666</ele><time>2026-03-29T08:37:39.999Z</time></trkpt><trkpt lat="42.058083818433545" lon="12.7143667637676"><ele>106.33333333333334</ele><time>2026-03-29T08:37:40.999Z</time></trkpt><trkpt lat="42.057943557252315" lon="12.714449519777755"><ele>106.0</ele><time>2026-03-29T08:37:41.999Z</time></trkpt><trkpt lat="42.057803281521636" lon="12.714532030606751"><ele>106.0</ele><time>2026-03-29T08:37:42.999Z</time></trkpt><trkpt lat="42.057667919195424" lon="12.714614651850958"><ele>106.0</ele><time>2026-03-29T08:37:43.999Z</time></trkpt><trkpt lat="42.05753336091936" lon="12.714698790830756"><ele>106.0</ele><time>2026-03-29T08:37:44.999Z</time></trkpt><trkpt lat="42.057413872511624" lon="12.714783120282904"><ele>106.0</ele><time>2026-03-29T08:37:45.999Z</time></trkpt><trkpt lat="42.05730277032111" lon="12.714889457994284"><ele>105.5</ele><time>2026-03-29T08:37:46.999Z</time></trkpt><trkpt lat="42.0572000689315" lon="12.715016180267376"><ele>105.0</ele><time>2026-03-29T08:37:47.999Z</time></trkpt><trkpt lat="42.05710803432523" lon="12.715163844772203"><ele>104.5</ele><time>2026-03-29T08:37:48.999Z</time></trkpt><trkpt lat="42.057038881860656" lon="12.715344796290022"><ele>104.0</ele><time>2026-03-29T08:37:49.999Z</time></trkpt><trkpt lat="42.05698746742385" lon="12.715550143618747"><ele>104.0</ele><time>2026-03-29T08:37:50.998Z</time></trkpt><trkpt lat="42.05695926132797" lon="12.715769125107538"><ele>104.0</ele><time>2026-03-29T08:37:51.998Z</time></trkpt><trkpt lat="42.056955868775276" lon="12.71598451610175"><ele>104.0</ele><time>2026-03-29T08:37:52.998Z</time></trkpt><trkpt lat="42.056959507826356" lon="12.716189485688481"><ele>104.5</ele><time>2026-03-29T08:37:53.998Z</time></trkpt><trkpt lat="42.05695102461206" lon="12.716391545384186"><ele>105.0</ele><time>2026-03-29T08:37:54.998Z</time></trkpt><trkpt lat="42.0569166555631" lon="12.716580780555233"><ele>105.5</ele><time>2026-03-29T08:37:55.998Z</time></trkpt><trkpt lat="42.05684545028137" lon="12.716764861893902"><ele>106.0</ele><time>2026-03-29T08:37:56.998Z</time></trkpt><trkpt lat="42.05676965363257" lon="12.716954853929986"><ele>106.33333333333334</ele><time>2026-03-29T08:37:57.998Z</time></trkpt><trkpt lat="42.056704272260404" lon="12.7171566036897"><ele>106.66666666666666</ele><time>2026-03-29T08:37:58.998Z</time></trkpt><trkpt lat="42.05664899136092" lon="12.717371148226833"><ele>107.0</ele><time>2026-03-29T08:37:59.998Z</time></trkpt><trkpt lat="42.05661749213244" lon="12.717591983888846"><ele>107.0</ele><time>2026-03-29T08:38:00.998Z</time></trkpt><trkpt lat="42.0566110671289" lon="12.717820930162247"><ele>107.0</ele><time>2026-03-29T08:38:01.998Z</time></trkpt><trkpt lat="42.05662513820932" lon="12.718058188700443"><ele>107.0</ele><time>2026-03-29T08:38:02.998Z</time></trkpt><trkpt lat="42.05665034860864" lon="12.718295485163994"><ele>107.33333333333333</ele><time>2026-03-29T08:38:03.998Z</time></trkpt><trkpt lat="42.056678067730374" lon="12.718517259116293"><ele>107.66666666666666</ele><time>2026-03-29T08:38:04.998Z</time></trkpt><trkpt lat="42.05670335217911" lon="12.718740893867675"><ele>108.0</ele><time>2026-03-29T08:38:05.998Z</time></trkpt><trkpt lat="42.05672503260992" lon="12.718976288250266"><ele>108.0</ele><time>2026-03-29T08:38:06.998Z</time></trkpt><trkpt lat="42.05676687245433" lon="12.719143262600097"><ele>108.0</ele><time>2026-03-29T08:38:07.998Z</time></trkpt><trkpt lat="42.056750246945754" lon="12.719372886104058"><ele>108.0</ele><time>2026-03-29T08:38:09Z</time></trkpt><trkpt lat="42.05670929269734" lon="12.719609171287793"><ele>109.0</ele><time>2026-03-29T08:38:10Z</time></trkpt><trkpt lat="42.05666870260238" lon="12.719870824964346"><ele>110.0</ele><time>2026-03-29T08:38:11Z</time></trkpt><trkpt lat="42.05660586825263" lon="12.720127477351552"><ele>111.0</ele><time>2026-03-29T08:38:12Z</time></trkpt><trkpt lat="42.05654513423301" lon="12.720402202890481"><ele>111.66666666666666</ele><time>2026-03-29T08:38:13Z</time></trkpt><trkpt lat="42.05648801724517" lon="12.72067933807702"><ele>112.33333333333333</ele><time>2026-03-29T08:38:14Z</time></trkpt><trkpt lat="42.056436956464196" lon="12.720949513557535"><ele>113.0</ele><time>2026-03-29T08:38:15Z</time></trkpt><trkpt lat="42.056393352569316" lon="12.721183783865573"><ele>113.0</ele><time>2026-03-29T08:38:16Z</time></trkpt><trkpt lat="42.056358747222525" lon="12.721428316821825"><ele>113.0</ele><time>2026-03-29T08:38:17Z</time></trkpt><trkpt lat="42.056338310590895" lon="12.72168679221615"><ele>113.0</ele><time>2026-03-29T08:38:18Z</time></trkpt><trkpt lat="42.056319895959746" lon="12.72197249267658"><ele>113.5</ele><time>2026-03-29T08:38:19Z</time></trkpt><trkpt lat="42.05629699102483" lon="12.722273754630391"><ele>114.0</ele><time>2026-03-29T08:38:20Z</time></trkpt><trkpt lat="42.056277471543396" lon="12.722586027144757"><ele>114.5</ele><time>2026-03-29T08:38:21Z</time></trkpt><trkpt lat="42.05625466091049" lon="12.722898572317442"><ele>115.0</ele><time>2026-03-29T08:38:22Z</time></trkpt><trkpt lat="42.05624112397627" lon="12.723212435680667"><ele>115.0</ele><time>2026-03-29T08:38:23Z</time></trkpt><trkpt lat="42.056240332518136" lon="12.72351807747355"><ele>115.0</ele><time>2026-03-29T08:38:24Z</time></trkpt><trkpt lat="42.05623655946396" lon="12.723791455817654"><ele>115.0</ele><time>2026-03-29T08:38:25Z</time></trkpt><trkpt lat="42.05621920315735" lon="12.724053245941226"><ele>115.66666666666667</ele><time>2026-03-29T08:38:26Z</time></trkpt><trkpt lat="42.05620833637465" lon="12.724325016876142"><ele>116.33333333333334</ele><time>2026-03-29T08:38:27Z</time></trkpt><trkpt lat="42.05621945112304" lon="12.724605143066784"><ele>117.0</ele><time>2026-03-29T08:38:28Z</time></trkpt><trkpt lat="42.056236115250215" lon="12.7248865714671"><ele>118.0</ele><time>2026-03-29T08:38:29Z</time></trkpt><trkpt lat="42.05620676050901" lon="12.725174193361394"><ele>119.0</ele><time>2026-03-29T08:38:30Z</time></trkpt><trkpt lat="42.056176712676354" lon="12.725488125185686"><ele>119.0</ele><time>2026-03-29T08:38:31Z</time></trkpt><trkpt lat="42.05613050675219" lon="12.725816854444835"><ele>119.0</ele><time>2026-03-29T08:38:32Z</time></trkpt><trkpt lat="42.05609240416373" lon="12.726149136474536"><ele>119.5</ele><time>2026-03-29T08:38:33Z</time></trkpt><trkpt lat="42.05605267035427" lon="12.726478563482063"><ele>120.0</ele><time>2026-03-29T08:38:34Z</time></trkpt><trkpt lat="42.0560167505621" lon="12.726800587544952"><ele>121.33333333333334</ele><time>2026-03-29T08:38:35Z</time></trkpt><trkpt lat="42.05597798114421" lon="12.727097683200991"><ele>122.66666666666667</ele><time>2026-03-29T08:38:36Z</time></trkpt><trkpt lat="42.05593581734757" lon="12.727372452598853"><ele>124.0</ele><time>2026-03-29T08:38:37Z</time></trkpt><trkpt lat="42.05589234111189" lon="12.72762826628281"><ele>125.33333333333334</ele><time>2026-03-29T08:38:38Z</time></trkpt><trkpt lat="42.05585211605396" lon="12.727886831293935"><ele>126.66666666666666</ele><time>2026-03-29T08:38:39Z</time></trkpt><trkpt lat="42.05583156693811" lon="12.72815869929254"><ele>128.0</ele><time>2026-03-29T08:38:40Z</time></trkpt><trkpt lat="42.055843307415586" lon="12.728441667953946"><ele>128.33333333333331</ele><time>2026-03-29T08:38:41Z</time></trkpt><trkpt lat="42.05588352189899" lon="12.728720155282788"><ele>128.66666666666666</ele><time>2026-03-29T08:38:42Z</time></trkpt><trkpt lat="42.05594724003362" lon="12.729006569495505"><ele>129.0</ele><time>2026-03-29T08:38:43Z</time></trkpt><trkpt lat="42.05602792556572" lon="12.729278576588316"><ele>129.0</ele><time>2026-03-29T08:38:44Z</time></trkpt><trkpt lat="42.05612528168822" lon="12.729552806893063"><ele>129.0</ele><time>2026-03-29T08:38:45Z</time></trkpt><trkpt lat="42.05622128339147" lon="12.729837392294609"><ele>129.0</ele><time>2026-03-29T08:38:46Z</time></trkpt><trkpt lat="42.056291133930564" lon="12.730121667675878"><ele>129.0</ele><time>2026-03-29T08:38:47Z</time></trkpt><trkpt lat="42.056333136081946" lon="12.730376785954093"><ele>129.0</ele><time>2026-03-29T08:38:48Z</time></trkpt><trkpt lat="42.05636148438992" lon="12.730598886165438"><ele>129.0</ele><time>2026-03-29T08:38:49Z</time></trkpt><trkpt lat="42.05639155763701" lon="12.730813529838278"><ele>129.0</ele><time>2026-03-29T08:38:50Z</time></trkpt><trkpt lat="42.05644363419642" lon="12.73104064380385"><ele>129.0</ele><time>2026-03-29T08:38:50.999Z</time></trkpt><trkpt lat="42.05653003918315" lon="12.731273007764734"><ele>132.66666666666666</ele><time>2026-03-29T08:38:51.999Z</time></trkpt><trkpt lat="42.05664056094552" lon="12.731490445022194"><ele>136.33333333333331</ele><time>2026-03-29T08:38:52.999Z</time></trkpt><trkpt lat="42.05675541858778" lon="12.731714928659828"><ele>140.0</ele><time>2026-03-29T08:38:53.999Z</time></trkpt><trkpt lat="42.056853069292856" lon="12.73196230809853"><ele>141.0</ele><time>2026-03-29T08:38:54.999Z</time></trkpt><trkpt lat="42.05693232480417" lon="12.732235965026906"><ele>142.0</ele><time>2026-03-29T08:38:55.999Z</time></trkpt><trkpt lat="42.057003768650745" lon="12.732507974347978"><ele>143.0</ele><time>2026-03-29T08:38:56.999Z</time></trkpt><trkpt lat="42.057063880088045" lon="12.732786241473041"><ele>145.33333333333331</ele><time>2026-03-29T08:38:57.999Z</time></trkpt><trkpt lat="42.0571178335825" lon="12.733066100242246"><ele>147.66666666666666</ele><time>2026-03-29T08:38:58.999Z</time></trkpt><trkpt lat="42.05717294407718" lon="12.733334809534885"><ele>150.0</ele><time>2026-03-29T08:38:59.999Z</time></trkpt><trkpt lat="42.057220221424174" lon="12.73358932051136"><ele>151.66666666666666</ele><time>2026-03-29T08:39:00.999Z</time></trkpt><trkpt lat="42.05727030554637" lon="12.73382564430659"><ele>153.33333333333331</ele><time>2026-03-29T08:39:01.999Z</time></trkpt><trkpt lat="42.05733086848319" lon="12.734051490057363"><ele>155.0</ele><time>2026-03-29T08:39:02.999Z</time></trkpt><trkpt lat="42.05740876809906" lon="12.73426605771244"><ele>153.33333333333331</ele><time>2026-03-29T08:39:03.999Z</time></trkpt><trkpt lat="42.05751122241748" lon="12.734468824708594"><ele>151.66666666666666</ele><time>2026-03-29T08:39:04.999Z</time></trkpt><trkpt lat="42.05763121028235" lon="12.734649109142579"><ele>150.0</ele><time>2026-03-29T08:39:05.999Z</time></trkpt><trkpt lat="42.05775835541083" lon="12.734804793237368"><ele>150.0</ele><time>2026-03-29T08:39:06.999Z</time></trkpt><trkpt lat="42.057894486886696" lon="12.73494640193455"><ele>150.0</ele><time>2026-03-29T08:39:07.999Z</time></trkpt><trkpt lat="42.058039952800215" lon="12.735082842847211"><ele>150.0</ele><time>2026-03-29T08:39:08.999Z</time></trkpt><trkpt lat="42.0581847804346" lon="12.735214174158552"><ele>144.66666666666666</ele><time>2026-03-29T08:39:09.999Z</time></trkpt><trkpt lat="42.058325424299525" lon="12.735352244679078"><ele>139.33333333333331</ele><time>2026-03-29T08:39:10.999Z</time></trkpt><trkpt lat="42.058456476140215" lon="12.735496233088687"><ele>134.0</ele><time>2026-03-29T08:39:11.999Z</time></trkpt><trkpt lat="42.05857278205428" lon="12.735671045508186"><ele>134.0</ele><time>2026-03-29T08:39:12.999Z</time></trkpt><trkpt lat="42.05866152518916" lon="12.735866901507723"><ele>134.0</ele><time>2026-03-29T08:39:13.999Z</time></trkpt><trkpt lat="42.05872680226995" lon="12.736061522964931"><ele>134.0</ele><time>2026-03-29T08:39:14.999Z</time></trkpt><trkpt lat="42.058743380997505" lon="12.736251949196475"><ele>133.33333333333331</ele><time>2026-03-29T08:39:15.999Z</time></trkpt><trkpt lat="42.05873053040267" lon="12.736457696027017"><ele>132.66666666666666</ele><time>2026-03-29T08:39:16.999Z</time></trkpt><trkpt lat="42.058678686399055" lon="12.736661928940574"><ele>132.0</ele><time>2026-03-29T08:39:17.999Z</time></trkpt><trkpt lat="42.05863749554525" lon="12.736843809057694"><ele>132.0</ele><time>2026-03-29T08:39:18.999Z</time></trkpt><trkpt lat="42.05863961743514" lon="12.737010449861872"><ele>132.0</ele><time>2026-03-29T08:39:19.999Z</time></trkpt><trkpt lat="42.0586725130056" lon="12.737174746402859"><ele>132.0</ele><time>2026-03-29T08:39:20.999Z</time></trkpt><trkpt lat="42.05872759167212" lon="12.737344384378119"><ele>132.0</ele><time>2026-03-29T08:39:21.999Z</time></trkpt><trkpt lat="42.05883537972824" lon="12.73749749100483"><ele>132.0</ele><time>2026-03-29T08:39:22.999Z</time></trkpt><trkpt lat="42.05897335644799" lon="12.737641104089327"><ele>132.0</ele><time>2026-03-29T08:39:23.999Z</time></trkpt><trkpt lat="42.05913250155083" lon="12.737789060987929"><ele>132.0</ele><time>2026-03-29T08:39:24.999Z</time></trkpt><trkpt lat="42.05928631167044" lon="12.737948156354149"><ele>129.33333333333334</ele><time>2026-03-29T08:39:25.999Z</time></trkpt><trkpt lat="42.059439276541845" lon="12.738101125948754"><ele>126.66666666666667</ele><time>2026-03-29T08:39:26.999Z</time></trkpt><trkpt lat="42.059594111652615" lon="12.738239942482274"><ele>124.0</ele><time>2026-03-29T08:39:27.999Z</time></trkpt><trkpt lat="42.05974495285724" lon="12.73836453879876"><ele>124.0</ele><time>2026-03-29T08:39:28.999Z</time></trkpt><trkpt lat="42.05989628150793" lon="12.738494668446087"><ele>124.0</ele><time>2026-03-29T08:39:29.999Z</time></trkpt><trkpt lat="42.06004581973773" lon="12.738627890162178"><ele>124.0</ele><time>2026-03-29T08:39:30.999Z</time></trkpt><trkpt lat="42.06020505397111" lon="12.738769488197152"><ele>124.0</ele><time>2026-03-29T08:39:31.999Z</time></trkpt><trkpt lat="42.060369308591305" lon="12.738918322940842"><ele>124.0</ele><time>2026-03-29T08:39:32.999Z</time></trkpt><trkpt lat="42.060527263856436" lon="12.739073318799202"><ele>124.0</ele><time>2026-03-29T08:39:33.999Z</time></trkpt><trkpt lat="42.06067124580473" lon="12.739222322181131"><ele>124.0</ele><time>2026-03-29T08:39:34.999Z</time></trkpt><trkpt lat="42.06081012804373" lon="12.739363885583526"><ele>124.0</ele><time>2026-03-29T08:39:35.999Z</time></trkpt><trkpt lat="42.06093884568684" lon="12.739499595157358"><ele>124.0</ele><time>2026-03-29T08:39:36.999Z</time></trkpt><trkpt lat="42.0610647985641" lon="12.739634112918065"><ele>124.0</ele><time>2026-03-29T08:39:37.999Z</time></trkpt><trkpt lat="42.061186075502064" lon="12.739761720746888"><ele>124.0</ele><time>2026-03-29T08:39:38.999Z</time></trkpt><trkpt lat="42.06130114067369" lon="12.73989906623687"><ele>124.0</ele><time>2026-03-29T08:39:39.999Z</time></trkpt><trkpt lat="42.06139853788632" lon="12.740067272738893"><ele>124.66666666666667</ele><time>2026-03-29T08:39:40.999Z</time></trkpt><trkpt lat="42.06146727195223" lon="12.740268382488516"><ele>125.33333333333334</ele><time>2026-03-29T08:39:41.999Z</time></trkpt><trkpt lat="42.061518215213404" lon="12.740489441691755"><ele>126.0</ele><time>2026-03-29T08:39:42.999Z</time></trkpt><trkpt lat="42.06155286820949" lon="12.740730690157083"><ele>126.0</ele><time>2026-03-29T08:39:43.999Z</time></trkpt><trkpt lat="42.06159544531999" lon="12.740973242329412"><ele>126.0</ele><time>2026-03-29T08:39:44.999Z</time></trkpt><trkpt lat="42.0616467326806" lon="12.741221671333477"><ele>126.0</ele><time>2026-03-29T08:39:45.999Z</time></trkpt><trkpt lat="42.061699196530974" lon="12.741475605799254"><ele>126.0</ele><time>2026-03-29T08:39:46.999Z</time></trkpt><trkpt lat="42.06175481676998" lon="12.74173256554441"><ele>126.0</ele><time>2026-03-29T08:39:47.999Z</time></trkpt><trkpt lat="42.06181843641946" lon="12.741996201197153"><ele>126.0</ele><time>2026-03-29T08:39:48.999Z</time></trkpt><trkpt lat="42.06188739199679" lon="12.742264335279783"><ele>127.33333333333334</ele><time>2026-03-29T08:39:49.999Z</time></trkpt><trkpt lat="42.0619565897726" lon="12.74252550483149"><ele>128.66666666666669</ele><time>2026-03-29T08:39:50.999Z</time></trkpt><trkpt lat="42.06202626589254" lon="12.742772274038558"><ele>130.0</ele><time>2026-03-29T08:39:51.998Z</time></trkpt><trkpt lat="42.06209188578965" lon="12.742998994275617"><ele>131.5</ele><time>2026-03-29T08:39:52.998Z</time></trkpt><trkpt lat="42.06215232160293" lon="12.743199446179917"><ele>133.0</ele><time>2026-03-29T08:39:53.998Z</time></trkpt><trkpt lat="42.062208103322206" lon="12.743368642279625"><ele>134.5</ele><time>2026-03-29T08:39:54.998Z</time></trkpt><trkpt lat="42.062261700596906" lon="12.743520210075221"><ele>136.0</ele><time>2026-03-29T08:39:55.998Z</time></trkpt><trkpt lat="42.062311142356585" lon="12.74365883516071"><ele>138.25</ele><time>2026-03-29T08:39:56.998Z</time></trkpt><trkpt lat="42.062355878557675" lon="12.743787795736665"><ele>140.5</ele><time>2026-03-29T08:39:57.998Z</time></trkpt><trkpt lat="42.06240057377563" lon="12.743924034308336"><ele>142.75</ele><time>2026-03-29T08:39:58.998Z</time></trkpt><trkpt lat="42.062440553066416" lon="12.744076885328905"><ele>145.0</ele><time>2026-03-29T08:39:59.998Z</time></trkpt><trkpt lat="42.062469460475484" lon="12.744252263040025"><ele>149.0</ele><time>2026-03-29T08:40:00.998Z</time></trkpt><trkpt lat="42.06248504633519" lon="12.744457172333082"><ele>153.0</ele><time>2026-03-29T08:40:01.998Z</time></trkpt><trkpt lat="42.06248231364852" lon="12.744682291732612"><ele>157.0</ele><time>2026-03-29T08:40:02.998Z</time></trkpt><trkpt lat="42.0624688169594" lon="12.74490866614287"><ele>157.0</ele><time>2026-03-29T08:40:03.998Z</time></trkpt><trkpt lat="42.06244802308241" lon="12.745145208248092"><ele>157.0</ele><time>2026-03-29T08:40:04.998Z</time></trkpt><trkpt lat="42.062412632151364" lon="12.745369435278862"><ele>157.0</ele><time>2026-03-29T08:40:05.998Z</time></trkpt><trkpt lat="42.06237096961631" lon="12.74556897721686"><ele>160.0</ele><time>2026-03-29T08:40:06.998Z</time></trkpt><trkpt lat="42.06232215580439" lon="12.745752421205868"><ele>163.0</ele><time>2026-03-29T08:40:07.998Z</time></trkpt><trkpt lat="42.06226973205402" lon="12.745931182592217"><ele>166.0</ele><time>2026-03-29T08:40:08.998Z</time></trkpt><trkpt lat="42.06224140700527" lon="12.746114714378947"><ele>169.0</ele><time>2026-03-29T08:40:09.998Z</time></trkpt><trkpt lat="42.06224927258355" lon="12.746322746508387"><ele>173.33333333333334</ele><time>2026-03-29T08:40:10.998Z</time></trkpt><trkpt lat="42.06227698257829" lon="12.746549090538785"><ele>177.66666666666666</ele><time>2026-03-29T08:40:11.998Z</time></trkpt><trkpt lat="42.06230128465357" lon="12.746757032318568"><ele>182.0</ele><time>2026-03-29T08:40:12.998Z</time></trkpt><trkpt lat="42.06232353057133" lon="12.746949798783582"><ele>183.75</ele><time>2026-03-29T08:40:13.998Z</time></trkpt><trkpt lat="42.06234767609945" lon="12.74713602856768"><ele>185.5</ele><time>2026-03-29T08:40:15Z</time></trkpt><trkpt lat="42.062371796675976" lon="12.747303855275709"><ele>187.25</ele><time>2026-03-29T08:40:16Z</time></trkpt><trkpt lat="42.06239356282168" lon="12.747456504050298"><ele>189.0</ele><time>2026-03-29T08:40:17Z</time></trkpt><trkpt lat="42.06241575015257" lon="12.74761909712716"><ele>190.25</ele><time>2026-03-29T08:40:18Z</time></trkpt><trkpt lat="42.062429959274645" lon="12.747797296851594"><ele>191.5</ele><time>2026-03-29T08:40:19Z</time></trkpt><trkpt lat="42.062425134772916" lon="12.747977332898829"><ele>192.75</ele><time>2026-03-29T08:40:20Z</time></trkpt><trkpt lat="42.062382191692585" lon="12.748176143402391"><ele>194.0</ele><time>2026-03-29T08:40:21Z</time></trkpt><trkpt lat="42.062306000998085" lon="12.748358286219423"><ele>194.0</ele><time>2026-03-29T08:40:22Z</time></trkpt><trkpt lat="42.06220645599128" lon="12.748515652205825"><ele>194.0</ele><time>2026-03-29T08:40:23Z</time></trkpt><trkpt lat="42.0621057318928" lon="12.748643239692534"><ele>194.0</ele><time>2026-03-29T08:40:24Z</time></trkpt><trkpt lat="42.062018929386895" lon="12.748768105448951"><ele>194.0</ele><time>2026-03-29T08:40:25Z</time></trkpt><trkpt lat="42.061958555870696" lon="12.74889144503979"><ele>196.5</ele><time>2026-03-29T08:40:26Z</time></trkpt><trkpt lat="42.061892337181085" lon="12.74901732662345"><ele>199.0</ele><time>2026-03-29T08:40:27Z</time></trkpt><trkpt lat="42.06182093436106" lon="12.7491489215242"><ele>201.5</ele><time>2026-03-29T08:40:28Z</time></trkpt><trkpt lat="42.061753281351386" lon="12.749298472620643"><ele>204.0</ele><time>2026-03-29T08:40:29Z</time></trkpt><trkpt lat="42.061709929008856" lon="12.749473273215061"><ele>206.66666666666669</ele><time>2026-03-29T08:40:30Z</time></trkpt><trkpt lat="42.06169282315013" lon="12.749675632369796"><ele>209.33333333333334</ele><time>2026-03-29T08:40:31Z</time></trkpt><trkpt lat="42.06169863743213" lon="12.749897560180155"><ele>212.0</ele><time>2026-03-29T08:40:32Z</time></trkpt><trkpt lat="42.06170529633099" lon="12.750106845543158"><ele>212.39999999999998</ele><time>2026-03-29T08:40:33Z</time></trkpt><trkpt lat="42.06170715774263" lon="12.750288760652516"><ele>212.79999999999998</ele><time>2026-03-29T08:40:34Z</time></trkpt><trkpt lat="42.06170689751967" lon="12.750431467754362"><ele>213.2</ele><time>2026-03-29T08:40:35Z</time></trkpt><trkpt lat="42.06171287678663" lon="12.750550391051823"><ele>213.6</ele><time>2026-03-29T08:40:36Z</time></trkpt><trkpt lat="42.06172755444055" lon="12.75065633329086"><ele>214.0</ele><time>2026-03-29T08:40:37Z</time></trkpt><trkpt lat="42.06174747779774" lon="12.750776176914163"><ele>214.0</ele><time>2026-03-29T08:40:38Z</time></trkpt><trkpt lat="42.061774102173175" lon="12.750930362127699"><ele>214.0</ele><time>2026-03-29T08:40:39Z</time></trkpt><trkpt lat="42.06180895947676" lon="12.751109790724081"><ele>214.0</ele><time>2026-03-29T08:40:40Z</time></trkpt><trkpt lat="42.06184449336306" lon="12.751312820968163"><ele>214.0</ele><time>2026-03-29T08:40:41Z</time></trkpt><trkpt lat="42.06187811982318" lon="12.751524439227433"><ele>212.33333333333331</ele><time>2026-03-29T08:40:42Z</time></trkpt><trkpt lat="42.061906347366" lon="12.75173714460112"><ele>210.66666666666669</ele><time>2026-03-29T08:40:43Z</time></trkpt><trkpt lat="42.06193393370255" lon="12.751955897767793"><ele>209.0</ele><time>2026-03-29T08:40:44Z</time></trkpt><trkpt lat="42.06195952071271" lon="12.752160660405547"><ele>207.66666666666669</ele><time>2026-03-29T08:40:45Z</time></trkpt><trkpt lat="42.06198117052665" lon="12.752371607415405"><ele>206.33333333333331</ele><time>2026-03-29T08:40:46Z</time></trkpt><trkpt lat="42.06200215492568" lon="12.752588018684222"><ele>205.0</ele><time>2026-03-29T08:40:47Z</time></trkpt><trkpt lat="42.06202062317389" lon="12.7528099319884"><ele>205.0</ele><time>2026-03-29T08:40:48Z</time></trkpt><trkpt lat="42.06203079696422" lon="12.753041949605093"><ele>205.0</ele><time>2026-03-29T08:40:49Z</time></trkpt><trkpt lat="42.062018079816845" lon="12.753291962992051"><ele>205.0</ele><time>2026-03-29T08:40:50Z</time></trkpt><trkpt lat="42.0619854662453" lon="12.753552175845245"><ele>204.33333333333331</ele><time>2026-03-29T08:40:51Z</time></trkpt><trkpt lat="42.06194042115503" lon="12.753833213114513"><ele>203.66666666666669</ele><time>2026-03-29T08:40:52Z</time></trkpt><trkpt lat="42.061895686227075" lon="12.754108146453628"><ele>203.0</ele><time>2026-03-29T08:40:53Z</time></trkpt><trkpt lat="42.06184923654143" lon="12.754369489622235"><ele>202.0</ele><time>2026-03-29T08:40:54Z</time></trkpt><trkpt lat="42.06179638637788" lon="12.754635770706134"><ele>201.0</ele><time>2026-03-29T08:40:55Z</time></trkpt><trkpt lat="42.06173782436995" lon="12.754899893988803"><ele>200.0</ele><time>2026-03-29T08:40:56Z</time></trkpt><trkpt lat="42.06167148675144" lon="12.755151911252396"><ele>203.66666666666669</ele><time>2026-03-29T08:40:57Z</time></trkpt><trkpt lat="42.06160177887741" lon="12.755386827070415"><ele>207.33333333333331</ele><time>2026-03-29T08:40:58Z</time></trkpt><trkpt lat="42.06152501242047" lon="12.755617450859111"><ele>211.0</ele><time>2026-03-29T08:40:59Z</time></trkpt><trkpt lat="42.061445193026984" lon="12.755847490596615"><ele>207.33333333333331</ele><time>2026-03-29T08:41:00Z</time></trkpt><trkpt lat="42.06137077526579" lon="12.756078671429593"><ele>203.66666666666669</ele><time>2026-03-29T08:41:00.999Z</time></trkpt><trkpt lat="42.061306199075936" lon="12.756319678844108"><ele>200.0</ele><time>2026-03-29T08:41:01.999Z</time></trkpt><trkpt lat="42.061268370713805" lon="12.756572411789126"><ele>200.0</ele><time>2026-03-29T08:41:02.999Z</time></trkpt><trkpt lat="42.06125735397847" lon="12.756853036648835"><ele>200.0</ele><time>2026-03-29T08:41:03.999Z</time></trkpt><trkpt lat="42.06127865198203" lon="12.757149446024034"><ele>200.0</ele><time>2026-03-29T08:41:04.999Z</time></trkpt><trkpt lat="42.06131057331091" lon="12.757455351642792"><ele>206.66666666666669</ele><time>2026-03-29T08:41:05.999Z</time></trkpt><trkpt lat="42.061338838951215" lon="12.7577421530281"><ele>213.33333333333331</ele><time>2026-03-29T08:41:06.999Z</time></trkpt><trkpt lat="42.061360067471846" lon="12.758000611883297"><ele>220.0</ele><time>2026-03-29T08:41:07.999Z</time></trkpt><trkpt lat="42.06137773389556" lon="12.758237465503093"><ele>220.0</ele><time>2026-03-29T08:41:08.999Z</time></trkpt><trkpt lat="42.06139801188034" lon="12.758471341598028"><ele>220.0</ele><time>2026-03-29T08:41:09.999Z</time></trkpt><trkpt lat="42.06143695679782" lon="12.75870809499282"><ele>220.0</ele><time>2026-03-29T08:41:10.999Z</time></trkpt><trkpt lat="42.06152517497689" lon="12.758928187529413"><ele>221.33333333333331</ele><time>2026-03-29T08:41:11.999Z</time></trkpt><trkpt lat="42.061655937672334" lon="12.759113249624242"><ele>222.66666666666669</ele><time>2026-03-29T08:41:12.999Z</time></trkpt><trkpt lat="42.06179968990404" lon="12.759276496840219"><ele>224.0</ele><time>2026-03-29T08:41:13.999Z</time></trkpt><trkpt lat="42.06191615889604" lon="12.75942608788679"><ele>224.0</ele><time>2026-03-29T08:41:14.999Z</time></trkpt><trkpt lat="42.0620084319942" lon="12.759574029457374"><ele>224.0</ele><time>2026-03-29T08:41:15.999Z</time></trkpt><trkpt lat="42.06208319143108" lon="12.759742227809173"><ele>224.0</ele><time>2026-03-29T08:41:16.999Z</time></trkpt><trkpt lat="42.06211385858921" lon="12.75993924725311"><ele>224.0</ele><time>2026-03-29T08:41:17.999Z</time></trkpt><trkpt lat="42.062122059118494" lon="12.760147943650914"><ele>226.5</ele><time>2026-03-29T08:41:18.999Z</time></trkpt><trkpt lat="42.06214163716707" lon="12.76034738619719"><ele>229.0</ele><time>2026-03-29T08:41:19.999Z</time></trkpt><trkpt lat="42.062163097068776" lon="12.760531076508322"><ele>231.5</ele><time>2026-03-29T08:41:20.999Z</time></trkpt><trkpt lat="42.0621618828965" lon="12.760693384128219"><ele>234.0</ele><time>2026-03-29T08:41:21.999Z</time></trkpt><trkpt lat="42.062126973671255" lon="12.760848346610805"><ele>234.0</ele><time>2026-03-29T08:41:22.999Z</time></trkpt><trkpt lat="42.06209962387891" lon="12.761025779738587"><ele>234.0</ele><time>2026-03-29T08:41:23.999Z</time></trkpt><trkpt lat="42.062033865862674" lon="12.761199379974427"><ele>234.0</ele><time>2026-03-29T08:41:24.999Z</time></trkpt><trkpt lat="42.06196471990971" lon="12.761348121568833"><ele>234.0</ele><time>2026-03-29T08:41:25.999Z</time></trkpt><trkpt lat="42.06188805600039" lon="12.761490919053728"><ele>232.75</ele><time>2026-03-29T08:41:26.999Z</time></trkpt><trkpt lat="42.061777014019675" lon="12.761620956402382"><ele>231.5</ele><time>2026-03-29T08:41:27.999Z</time></trkpt><trkpt lat="42.06164262532444" lon="12.761707886210278"><ele>230.25</ele><time>2026-03-29T08:41:28.999Z</time></trkpt><trkpt lat="42.061495743983976" lon="12.761749368973883"><ele>229.0</ele><time>2026-03-29T08:41:29.999Z</time></trkpt><trkpt lat="42.06137289592616" lon="12.761791243394425"><ele>232.79999999999998</ele><time>2026-03-29T08:41:30.999Z</time></trkpt><trkpt lat="42.06127833764095" lon="12.761853117872102"><ele>236.59999999999997</ele><time>2026-03-29T08:41:31.999Z</time></trkpt><trkpt lat="42.061237204319845" lon="12.761988112692165"><ele>240.4</ele><time>2026-03-29T08:41:32.999Z</time></trkpt><trkpt lat="42.06122973373337" lon="12.762135694376587"><ele>244.2</ele><time>2026-03-29T08:41:33.999Z</time></trkpt><trkpt lat="42.06126304965053" lon="12.762286316981792"><ele>248.0</ele><time>2026-03-29T08:41:34.999Z</time></trkpt><trkpt lat="42.06128528633491" lon="12.762456916362256"><ele>248.0</ele><time>2026-03-29T08:41:35.999Z</time></trkpt><trkpt lat="42.06127483259379" lon="12.762653568555207"><ele>248.0</ele><time>2026-03-29T08:41:36.999Z</time></trkpt><trkpt lat="42.06124238750961" lon="12.762849827806159"><ele>248.0</ele><time>2026-03-29T08:41:37.999Z</time></trkpt><trkpt lat="42.061189370358555" lon="12.763023790768065"><ele>248.0</ele><time>2026-03-29T08:41:38.999Z</time></trkpt><trkpt lat="42.06113389804578" lon="12.763170812069692"><ele>248.8</ele><time>2026-03-29T08:41:39.999Z</time></trkpt><trkpt lat="42.06109225256831" lon="12.763303271436241"><ele>249.60000000000002</ele><time>2026-03-29T08:41:40.999Z</time></trkpt><trkpt lat="42.06106358339506" lon="12.76342404023466"><ele>250.39999999999998</ele><time>2026-03-29T08:41:41.999Z</time></trkpt><trkpt lat="42.06105478326294" lon="12.763540335657247"><ele>251.2</ele><time>2026-03-29T08:41:42.999Z</time></trkpt><trkpt lat="42.061078853047526" lon="12.763661726082281"><ele>252.0</ele><time>2026-03-29T08:41:43.999Z</time></trkpt><trkpt lat="42.061151345079736" lon="12.763761547948041"><ele>252.75</ele><time>2026-03-29T08:41:44.999Z</time></trkpt><trkpt lat="42.061257464370755" lon="12.76381310057185"><ele>253.5</ele><time>2026-03-29T08:41:45.999Z</time></trkpt><trkpt lat="42.06137978864181" lon="12.763844769292849"><ele>254.25</ele><time>2026-03-29T08:41:46.999Z</time></trkpt><trkpt lat="42.06150845449502" lon="12.763878071115055"><ele>255.0</ele><time>2026-03-29T08:41:47.999Z</time></trkpt><trkpt lat="42.06163223099437" lon="12.763902867144505"><ele>253.8</ele><time>2026-03-29T08:41:48.999Z</time></trkpt><trkpt lat="42.06174786834277" lon="12.76392396598838"><ele>252.6</ele><time>2026-03-29T08:41:49.999Z</time></trkpt><trkpt lat="42.06185233632639" lon="12.763945828753354"><ele>251.39999999999998</ele><time>2026-03-29T08:41:50.999Z</time></trkpt><trkpt lat="42.061941451082106" lon="12.763964935122004"><ele>250.2</ele><time>2026-03-29T08:41:51.999Z</time></trkpt><trkpt lat="42.062030430786756" lon="12.763985650522644"><ele>249.0</ele><time>2026-03-29T08:41:52.999Z</time></trkpt><trkpt lat="42.06209950586677" lon="12.764009665468986"><ele>249.0</ele><time>2026-03-29T08:41:53.999Z</time></trkpt><trkpt lat="42.06216444867272" lon="12.764054930240752"><ele>248.99999999999997</ele><time>2026-03-29T08:41:54.999Z</time></trkpt><trkpt lat="42.06220799542221" lon="12.764129851278515"><ele>248.99999999999997</ele><time>2026-03-29T08:41:55.999Z</time></trkpt><trkpt lat="42.062216418706896" lon="12.764230983145739"><ele>249.0</ele><time>2026-03-29T08:41:56.999Z</time></trkpt><trkpt lat="42.062206543399526" lon="12.764333090823609"><ele>249.0</ele><time>2026-03-29T08:41:57.999Z</time></trkpt><trkpt lat="42.06220474833999" lon="12.764611841901978"><ele>252.25</ele><time>2026-03-29T08:41:58.999Z</time></trkpt><trkpt lat="42.06218312499773" lon="12.76481046452626"><ele>255.5</ele><time>2026-03-29T08:41:59.999Z</time></trkpt><trkpt lat="42.06217540512722" lon="12.765005010816386"><ele>258.75</ele><time>2026-03-29T08:42:00.999Z</time></trkpt><trkpt lat="42.062150748014034" lon="12.765182561090763"><ele>262.0</ele><time>2026-03-29T08:42:01.998Z</time></trkpt><trkpt lat="42.0622919061643" lon="12.765353052487642"><ele>262.25</ele><time>2026-03-29T08:42:02.998Z</time></trkpt><trkpt lat="42.062369362442766" lon="12.76549270870152"><ele>262.5</ele><time>2026-03-29T08:42:03.998Z</time></trkpt><trkpt lat="42.06244615304282" lon="12.765622148970653"><ele>262.75</ele><time>2026-03-29T08:42:04.998Z</time></trkpt><trkpt lat="42.062541715308456" lon="12.765738874036801"><ele>263.0</ele><time>2026-03-29T08:42:05.998Z</time></trkpt><trkpt lat="42.062663503465366" lon="12.765844664541103"><ele>263.0</ele><time>2026-03-29T08:42:06.998Z</time></trkpt><trkpt lat="42.06278152443947" lon="12.765945225811986"><ele>263.0</ele><time>2026-03-29T08:42:07.998Z</time></trkpt><trkpt lat="42.062875552984096" lon="12.76604735752577"><ele>263.0</ele><time>2026-03-29T08:42:08.998Z</time></trkpt><trkpt lat="42.062943273079874" lon="12.766173911787982"><ele>263.0</ele><time>2026-03-29T08:42:09.998Z</time></trkpt><trkpt lat="42.06297603869985" lon="12.766317786644239"><ele>263.0</ele><time>2026-03-29T08:42:10.998Z</time></trkpt><trkpt lat="42.062986846056646" lon="12.766466319649785"><ele>263.0</ele><time>2026-03-29T08:42:11.998Z</time></trkpt><trkpt lat="42.062991182502124" lon="12.766598567214855"><ele>263.0</ele><time>2026-03-29T08:42:12.998Z</time></trkpt><trkpt lat="42.06298905117422" lon="12.766706551847449"><ele>263.0</ele><time>2026-03-29T08:42:13.998Z</time></trkpt><trkpt lat="42.06298163090208" lon="12.766820572152314"><ele>263.0</ele><time>2026-03-29T08:42:14.998Z</time></trkpt><trkpt lat="42.06296468144528" lon="12.766921188759808"><ele>263.0</ele><time>2026-03-29T08:42:15.998Z</time></trkpt><trkpt lat="42.06294661291233" lon="12.767016507367593"><ele>263.0</ele><time>2026-03-29T08:42:16.998Z</time></trkpt><trkpt lat="42.062955045933855" lon="12.76711589944286"><ele>263.0</ele><time>2026-03-29T08:42:17.998Z</time></trkpt><trkpt lat="42.06298146965414" lon="12.767213546084285"><ele>263.0</ele><time>2026-03-29T08:42:18.998Z</time></trkpt><trkpt lat="42.06300750628092" lon="12.767322661551518"><ele>263.0</ele><time>2026-03-29T08:42:21Z</time></trkpt><trkpt lat="42.06301480759762" lon="12.767423373717081"><ele>263.0</ele><time>2026-03-29T08:42:22Z</time></trkpt><trkpt lat="42.06302015570719" lon="12.767561498068483"><ele>262.75</ele><time>2026-03-29T08:42:23Z</time></trkpt><trkpt lat="42.06303198685045" lon="12.767721591790893"><ele>262.5</ele><time>2026-03-29T08:42:24Z</time></trkpt><trkpt lat="42.063019773260656" lon="12.767894387361526"><ele>262.25</ele><time>2026-03-29T08:42:25Z</time></trkpt><trkpt lat="42.063025442255494" lon="12.768084407643498"><ele>262.0</ele><time>2026-03-29T08:42:26Z</time></trkpt><trkpt lat="42.06304133019612" lon="12.768280277879468"><ele>262.0</ele><time>2026-03-29T08:42:27Z</time></trkpt><trkpt lat="42.063037578973514" lon="12.768473398695733"><ele>262.0</ele><time>2026-03-29T08:42:28Z</time></trkpt><trkpt lat="42.063044080172936" lon="12.768664393258108"><ele>262.0</ele><time>2026-03-29T08:42:29Z</time></trkpt><trkpt lat="42.06305016081892" lon="12.76885901335137"><ele>262.0</ele><time>2026-03-29T08:42:30Z</time></trkpt><trkpt lat="42.06305402937123" lon="12.76904996277941"><ele>262.5</ele><time>2026-03-29T08:42:31Z</time></trkpt><trkpt lat="42.063059069628316" lon="12.769226799089193"><ele>263.0</ele><time>2026-03-29T08:42:32Z</time></trkpt><trkpt lat="42.063064885546865" lon="12.769377756890906"><ele>263.5</ele><time>2026-03-29T08:42:33Z</time></trkpt><trkpt lat="42.063066328929914" lon="12.769515482420609"><ele>264.0</ele><time>2026-03-29T08:42:34Z</time></trkpt><trkpt lat="42.06306939703536" lon="12.76965670262663"><ele>264.59999999999997</ele><time>2026-03-29T08:42:35Z</time></trkpt><trkpt lat="42.06307343955461" lon="12.769776107957165"><ele>265.2</ele><time>2026-03-29T08:42:36Z</time></trkpt><trkpt lat="42.06307808720804" lon="12.769925883791851"><ele>265.79999999999995</ele><time>2026-03-29T08:42:38Z</time></trkpt><trkpt lat="42.06308216715814" lon="12.77003446441036"><ele>266.4</ele><time>2026-03-29T08:42:40Z</time></trkpt><trkpt lat="42.06308739090779" lon="12.770195834872506"><ele>267.0</ele><time>2026-03-29T08:42:42Z</time></trkpt><trkpt lat="42.06308885935079" lon="12.770293592779614"><ele>267.8333333333333</ele><time>2026-03-29T08:42:43Z</time></trkpt><trkpt lat="42.063091239421325" lon="12.770387164065502"><ele>268.6666666666667</ele><time>2026-03-29T08:42:44Z</time></trkpt><trkpt lat="42.06308974081296" lon="12.770474983364538"><ele>269.5</ele><time>2026-03-29T08:42:45Z</time></trkpt><trkpt lat="42.063080307621995" lon="12.770631281789454"><ele>270.33333333333337</ele><time>2026-03-29T08:42:47Z</time></trkpt><trkpt lat="42.06306947558053" lon="12.770728943462998"><ele>271.1666666666667</ele><time>2026-03-29T08:42:49Z</time></trkpt><trkpt lat="42.06305843315837" lon="12.770831703325058"><ele>272.0</ele><time>2026-03-29T08:42:51Z</time></trkpt><trkpt lat="42.063005352865986" lon="12.770987832118722"><ele>273.6</ele><time>2026-03-29T08:42:53Z</time></trkpt><trkpt lat="42.06295407423602" lon="12.771060941080695"><ele>275.2</ele><time>2026-03-29T08:42:54Z</time></trkpt><trkpt lat="42.06288999571529" lon="12.771117962219858"><ele>276.8</ele><time>2026-03-29T08:42:55Z</time></trkpt><trkpt lat="42.06280379602062" lon="12.771145357474646"><ele>278.4</ele><time>2026-03-29T08:42:56Z</time></trkpt><trkpt lat="42.0627022368106" lon="12.771154866958701"><ele>280.0</ele><time>2026-03-29T08:42:57Z</time></trkpt><trkpt lat="42.062588587038285" lon="12.771174124520126"><ele>280.0</ele><time>2026-03-29T08:42:58Z</time></trkpt><trkpt lat="42.06245905608144" lon="12.771198350314148"><ele>280.0</ele><time>2026-03-29T08:42:59Z</time></trkpt><trkpt lat="42.062328971368295" lon="12.771223679138407"><ele>280.0</ele><time>2026-03-29T08:43:00Z</time></trkpt><trkpt lat="42.06220235849747" lon="12.771246770213686"><ele>280.0</ele><time>2026-03-29T08:43:01Z</time></trkpt><trkpt lat="42.06207190043861" lon="12.771268692652518"><ele>280.0</ele><time>2026-03-29T08:43:02Z</time></trkpt><trkpt lat="42.06194830277681" lon="12.771283406607623"><ele>280.0</ele><time>2026-03-29T08:43:03Z</time></trkpt><trkpt lat="42.06182647028686" lon="12.771282838865504"><ele>280.0</ele><time>2026-03-29T08:43:04Z</time></trkpt><trkpt lat="42.06170980448324" lon="12.77123327678311"><ele>280.0</ele><time>2026-03-29T08:43:05Z</time></trkpt><trkpt lat="42.06157975592908" lon="12.771189417934178"><ele>279.25</ele><time>2026-03-29T08:43:06Z</time></trkpt><trkpt lat="42.061454830422946" lon="12.771094737277773"><ele>278.5</ele><time>2026-03-29T08:43:06.999Z</time></trkpt><trkpt lat="42.06133347888185" lon="12.770974728427923"><ele>277.75</ele><time>2026-03-29T08:43:07.999Z</time></trkpt><trkpt lat="42.06122199669443" lon="12.770832605000585"><ele>277.0</ele><time>2026-03-29T08:43:08.999Z</time></trkpt><trkpt lat="42.061115273875096" lon="12.770696330234406"><ele>277.0</ele><time>2026-03-29T08:43:09.999Z</time></trkpt><trkpt lat="42.0610119672378" lon="12.770569569840116"><ele>277.0</ele><time>2026-03-29T08:43:10.999Z</time></trkpt><trkpt lat="42.06090791171293" lon="12.770439140582099"><ele>277.0</ele><time>2026-03-29T08:43:11.999Z</time></trkpt><trkpt lat="42.060803620394985" lon="12.770314274646353"><ele>277.0</ele><time>2026-03-29T08:43:12.999Z</time></trkpt><trkpt lat="42.06069465194215" lon="12.770201218710175"><ele>275.75</ele><time>2026-03-29T08:43:13.999Z</time></trkpt><trkpt lat="42.06058103772726" lon="12.77011048455129"><ele>274.5</ele><time>2026-03-29T08:43:14.999Z</time></trkpt><trkpt lat="42.06044760830532" lon="12.770052382952391"><ele>273.25</ele><time>2026-03-29T08:43:15.999Z</time></trkpt><trkpt lat="42.06030347884267" lon="12.770017208728305"><ele>272.0</ele><time>2026-03-29T08:43:16.999Z</time></trkpt><trkpt lat="42.0601564924872" lon="12.770015597704244"><ele>272.0</ele><time>2026-03-29T08:43:17.999Z</time></trkpt><trkpt lat="42.060017896441806" lon="12.770051252290576"><ele>272.0</ele><time>2026-03-29T08:43:18.999Z</time></trkpt><trkpt lat="42.05988208609274" lon="12.770119027519929"><ele>272.0</ele><time>2026-03-29T08:43:19.999Z</time></trkpt><trkpt lat="42.05973661198733" lon="12.770232527255649"><ele>272.33333333333337</ele><time>2026-03-29T08:43:20.999Z</time></trkpt><trkpt lat="42.05955124369794" lon="12.770356620049121"><ele>272.6666666666667</ele><time>2026-03-29T08:43:21.999Z</time></trkpt><trkpt lat="42.0593452950855" lon="12.770493984608391"><ele>273.0</ele><time>2026-03-29T08:43:22.999Z</time></trkpt><trkpt lat="42.05914444718553" lon="12.770649071492151"><ele>270.6666666666667</ele><time>2026-03-29T08:43:23.999Z</time></trkpt><trkpt lat="42.05894330738191" lon="12.770768321933907"><ele>268.33333333333337</ele><time>2026-03-29T08:43:24.999Z</time></trkpt><trkpt lat="42.05876286505116" lon="12.770885582402215"><ele>266.0</ele><time>2026-03-29T08:43:25.999Z</time></trkpt><trkpt lat="42.058597124019826" lon="12.770996804776885"><ele>268.0</ele><time>2026-03-29T08:43:26.999Z</time></trkpt><trkpt lat="42.05844394257529" lon="12.771098364888806"><ele>270.0</ele><time>2026-03-29T08:43:27.999Z</time></trkpt><trkpt lat="42.0583128329605" lon="12.771184271301848"><ele>272.0</ele><time>2026-03-29T08:43:28.999Z</time></trkpt><trkpt lat="42.05819005263897" lon="12.771261313395557"><ele>272.0</ele><time>2026-03-29T08:43:29.999Z</time></trkpt><trkpt lat="42.058048878987556" lon="12.771323872912982"><ele>272.0</ele><time>2026-03-29T08:43:30.999Z</time></trkpt><trkpt lat="42.05788350024266" lon="12.771320742938647"><ele>272.0</ele><time>2026-03-29T08:43:31.999Z</time></trkpt><trkpt lat="42.057699960666355" lon="12.771328745830319"><ele>272.0</ele><time>2026-03-29T08:43:32.999Z</time></trkpt><trkpt lat="42.05752382791612" lon="12.771312921560082"><ele>272.0</ele><time>2026-03-29T08:43:33.999Z</time></trkpt><trkpt lat="42.057357178732936" lon="12.771331358714809"><ele>272.0</ele><time>2026-03-29T08:43:34.999Z</time></trkpt><trkpt lat="42.05718256044525" lon="12.771395914958914"><ele>270.0</ele><time>2026-03-29T08:43:35.999Z</time></trkpt><trkpt lat="42.057002528509514" lon="12.771497131727651"><ele>268.0</ele><time>2026-03-29T08:43:36.999Z</time></trkpt><trkpt lat="42.056820828783515" lon="12.771638637215109"><ele>266.0</ele><time>2026-03-29T08:43:37.999Z</time></trkpt><trkpt lat="42.05664263860759" lon="12.771802248844912"><ele>267.5</ele><time>2026-03-29T08:43:38.999Z</time></trkpt><trkpt lat="42.05645292368567" lon="12.771984218432296"><ele>269.0</ele><time>2026-03-29T08:43:39.999Z</time></trkpt><trkpt lat="42.056268722189266" lon="12.772174807315807"><ele>269.0</ele><time>2026-03-29T08:43:40.999Z</time></trkpt><trkpt lat="42.056082255198646" lon="12.77237414764389"><ele>269.0</ele><time>2026-03-29T08:43:41.999Z</time></trkpt><trkpt lat="42.05590503460816" lon="12.772565216312291"><ele>268.0</ele><time>2026-03-29T08:43:42.999Z</time></trkpt><trkpt lat="42.05574337263442" lon="12.772739591234426"><ele>267.0</ele><time>2026-03-29T08:43:43.999Z</time></trkpt><trkpt lat="42.055590999807976" lon="12.77289873108312"><ele>266.0</ele><time>2026-03-29T08:43:44.999Z</time></trkpt><trkpt lat="42.05544056804143" lon="12.773062929313516"><ele>266.0</ele><time>2026-03-29T08:43:45.999Z</time></trkpt><trkpt lat="42.055275932305875" lon="12.77324122788182"><ele>266.0</ele><time>2026-03-29T08:43:46.999Z</time></trkpt><trkpt lat="42.055108086611746" lon="12.773417211439064"><ele>266.0</ele><time>2026-03-29T08:43:47.999Z</time></trkpt><trkpt lat="42.05491277379426" lon="12.773582503884288"><ele>267.6666666666667</ele><time>2026-03-29T08:43:48.999Z</time></trkpt><trkpt lat="42.05471356991679" lon="12.773745872117853"><ele>269.3333333333333</ele><time>2026-03-29T08:43:49.999Z</time></trkpt><trkpt lat="42.05452174073065" lon="12.773869729147972"><ele>271.0</ele><time>2026-03-29T08:43:50.999Z</time></trkpt><trkpt lat="42.05433772073585" lon="12.773982572863632"><ele>271.0</ele><time>2026-03-29T08:43:51.999Z</time></trkpt><trkpt lat="42.05415550262566" lon="12.774092574019468"><ele>271.0</ele><time>2026-03-29T08:43:52.999Z</time></trkpt><trkpt lat="42.053963536235656" lon="12.77419183410902"><ele>271.0</ele><time>2026-03-29T08:43:53.999Z</time></trkpt><trkpt lat="42.05377886827388" lon="12.774261547785738"><ele>271.0</ele><time>2026-03-29T08:43:54.999Z</time></trkpt><trkpt lat="42.05359159966785" lon="12.77432665130778"><ele>271.0</ele><time>2026-03-29T08:43:55.999Z</time></trkpt><trkpt lat="42.05341263611161" lon="12.77440691099079"><ele>271.0</ele><time>2026-03-29T08:43:56.999Z</time></trkpt><trkpt lat="42.05323468853053" lon="12.774502074042498"><ele>271.0</ele><time>2026-03-29T08:43:57.999Z</time></trkpt><trkpt lat="42.05306404849265" lon="12.774594403705294"><ele>271.0</ele><time>2026-03-29T08:43:58.999Z</time></trkpt><trkpt lat="42.05288872911293" lon="12.774698178561314"><ele>271.0</ele><time>2026-03-29T08:43:59.999Z</time></trkpt><trkpt lat="42.052715504786484" lon="12.774827284420528"><ele>271.0</ele><time>2026-03-29T08:44:00.999Z</time></trkpt><trkpt lat="42.05254307147295" lon="12.774979173628639"><ele>271.0</ele><time>2026-03-29T08:44:01.999Z</time></trkpt><trkpt lat="42.05237396294312" lon="12.77513921817422"><ele>271.0</ele><time>2026-03-29T08:44:02.999Z</time></trkpt><trkpt lat="42.052205747112005" lon="12.775300976028499"><ele>271.0</ele><time>2026-03-29T08:44:03.999Z</time></trkpt><trkpt lat="42.0520300068755" lon="12.77546060775227"><ele>271.0</ele><time>2026-03-29T08:44:04.999Z</time></trkpt><trkpt lat="42.051846169020635" lon="12.775597172137353"><ele>271.0</ele><time>2026-03-29T08:44:05.999Z</time></trkpt><trkpt lat="42.051641724468276" lon="12.77569456476861"><ele>271.66666666666663</ele><time>2026-03-29T08:44:06.998Z</time></trkpt><trkpt lat="42.0514313959664" lon="12.775778558994366"><ele>272.3333333333333</ele><time>2026-03-29T08:44:07.998Z</time></trkpt><trkpt lat="42.051239414489665" lon="12.775832417671488"><ele>273.0</ele><time>2026-03-29T08:44:08.998Z</time></trkpt><trkpt lat="42.0510712039275" lon="12.775879481610453"><ele>273.0</ele><time>2026-03-29T08:44:09.998Z</time></trkpt><trkpt lat="42.05091446080419" lon="12.775928319971927"><ele>273.0</ele><time>2026-03-29T08:44:10.998Z</time></trkpt><trkpt lat="42.05077279907068" lon="12.775991952619593"><ele>273.0</ele><time>2026-03-29T08:44:11.998Z</time></trkpt><trkpt lat="42.05064786100213" lon="12.776072769527202"><ele>273.0</ele><time>2026-03-29T08:44:12.998Z</time></trkpt><trkpt lat="42.05054047270609" lon="12.776172984443376"><ele>274.0</ele><time>2026-03-29T08:44:13.998Z</time></trkpt><trkpt lat="42.05044856976756" lon="12.776297274451133"><ele>275.0</ele><time>2026-03-29T08:44:14.998Z</time></trkpt><trkpt lat="42.05036975512945" lon="12.77644315158796"><ele>276.0</ele><time>2026-03-29T08:44:15.998Z</time></trkpt><trkpt lat="42.050296801572514" lon="12.776606704608838"><ele>277.0</ele><time>2026-03-29T08:44:16.998Z</time></trkpt><trkpt lat="42.050214523192686" lon="12.776794884804692"><ele>277.66666666666663</ele><time>2026-03-29T08:44:17.998Z</time></trkpt><trkpt lat="42.05012515982051" lon="12.776993953285096"><ele>278.3333333333333</ele><time>2026-03-29T08:44:18.998Z</time></trkpt><trkpt lat="42.05003842190193" lon="12.777192543419606"><ele>279.0</ele><time>2026-03-29T08:44:19.998Z</time></trkpt><trkpt lat="42.049944867625996" lon="12.777393904332028"><ele>279.0</ele><time>2026-03-29T08:44:20.998Z</time></trkpt><trkpt lat="42.04984472772557" lon="12.777583018501007"><ele>279.0</ele><time>2026-03-29T08:44:21.998Z</time></trkpt><trkpt lat="42.049743529991694" lon="12.777759819696524"><ele>279.0</ele><time>2026-03-29T08:44:22.998Z</time></trkpt><trkpt lat="42.04964054375535" lon="12.777932924395387"><ele>280.6666666666667</ele><time>2026-03-29T08:44:23.998Z</time></trkpt><trkpt lat="42.04953029440689" lon="12.778105652099915"><ele>282.33333333333337</ele><time>2026-03-29T08:44:24.998Z</time></trkpt><trkpt lat="42.04941248362522" lon="12.778272300299069"><ele>284.0</ele><time>2026-03-29T08:44:25.998Z</time></trkpt><trkpt lat="42.049278383405095" lon="12.778433908572515"><ele>285.33333333333337</ele><time>2026-03-29T08:44:27Z</time></trkpt><trkpt lat="42.04912015289321" lon="12.77857902745456"><ele>286.6666666666667</ele><time>2026-03-29T08:44:28Z</time></trkpt><trkpt lat="42.0489355748086" lon="12.77869649022221"><ele>288.0</ele><time>2026-03-29T08:44:29Z</time></trkpt><trkpt lat="42.04874842951625" lon="12.778791178408738"><ele>288.0</ele><time>2026-03-29T08:44:30Z</time></trkpt><trkpt lat="42.04856692128723" lon="12.778868059221573"><ele>288.0</ele><time>2026-03-29T08:44:31Z</time></trkpt><trkpt lat="42.04839105707775" lon="12.77893002790528"><ele>288.0</ele><time>2026-03-29T08:44:32Z</time></trkpt><trkpt lat="42.04821115401904" lon="12.7789727840243"><ele>288.0</ele><time>2026-03-29T08:44:33Z</time></trkpt><trkpt lat="42.04802771572311" lon="12.779004927963424"><ele>288.0</ele><time>2026-03-29T08:44:34Z</time></trkpt><trkpt lat="42.047827657516486" lon="12.779036983468494"><ele>288.0</ele><time>2026-03-29T08:44:35Z</time></trkpt><trkpt lat="42.047607988843104" lon="12.779078852062241"><ele>286.5</ele><time>2026-03-29T08:44:36Z</time></trkpt><trkpt lat="42.047380574483725" lon="12.779109604625898"><ele>285.0</ele><time>2026-03-29T08:44:37Z</time></trkpt><trkpt lat="42.04715260384598" lon="12.77912663707027"><ele>285.0</ele><time>2026-03-29T08:44:38Z</time></trkpt><trkpt lat="42.046930629243015" lon="12.779148686423605"><ele>285.0</ele><time>2026-03-29T08:44:39Z</time></trkpt><trkpt lat="42.04672481001029" lon="12.779177992666032"><ele>285.0</ele><time>2026-03-29T08:44:40Z</time></trkpt><trkpt lat="42.0465284721003" lon="12.779222892691493"><ele>285.3333333333333</ele><time>2026-03-29T08:44:41Z</time></trkpt><trkpt lat="42.04633932231632" lon="12.779292130889356"><ele>285.66666666666663</ele><time>2026-03-29T08:44:42Z</time></trkpt><trkpt lat="42.04614928789644" lon="12.779395528763782"><ele>286.0</ele><time>2026-03-29T08:44:43Z</time></trkpt><trkpt lat="42.04596808720898" lon="12.77954052039129"><ele>285.66666666666663</ele><time>2026-03-29T08:44:44Z</time></trkpt><trkpt lat="42.045805881268464" lon="12.779727947989482"><ele>285.3333333333333</ele><time>2026-03-29T08:44:45Z</time></trkpt><trkpt lat="42.04565829843933" lon="12.779963150528589"><ele>285.0</ele><time>2026-03-29T08:44:46Z</time></trkpt><trkpt lat="42.045530172224815" lon="12.780231020906541"><ele>285.0</ele><time>2026-03-29T08:44:47Z</time></trkpt><trkpt lat="42.04540061238771" lon="12.780504393329638"><ele>285.0</ele><time>2026-03-29T08:44:48Z</time></trkpt><trkpt lat="42.045261845749934" lon="12.780763846906328"><ele>285.0</ele><time>2026-03-29T08:44:49Z</time></trkpt><trkpt lat="42.04512416427926" lon="12.781013035766243"><ele>285.0</ele><time>2026-03-29T08:44:50Z</time></trkpt><trkpt lat="42.044992982372506" lon="12.781252882744761"><ele>285.3333333333333</ele><time>2026-03-29T08:44:51Z</time></trkpt><trkpt lat="42.0448668954665" lon="12.781480143995992"><ele>285.66666666666663</ele><time>2026-03-29T08:44:52Z</time></trkpt><trkpt lat="42.04474424428396" lon="12.781699903238342"><ele>286.0</ele><time>2026-03-29T08:44:53Z</time></trkpt><trkpt lat="42.04462607960038" lon="12.781909843391885"><ele>286.0</ele><time>2026-03-29T08:44:54Z</time></trkpt><trkpt lat="42.04450871341499" lon="12.782110241136838"><ele>286.0</ele><time>2026-03-29T08:44:55Z</time></trkpt><trkpt lat="42.044393262795104" lon="12.782314515285938"><ele>286.0</ele><time>2026-03-29T08:44:56Z</time></trkpt><trkpt lat="42.04427531208926" lon="12.782522867401244"><ele>288.0</ele><time>2026-03-29T08:44:57Z</time></trkpt><trkpt lat="42.044156416323595" lon="12.782732575133664"><ele>290.0</ele><time>2026-03-29T08:44:58Z</time></trkpt><trkpt lat="42.04403062695696" lon="12.782943927352589"><ele>292.0</ele><time>2026-03-29T08:44:59Z</time></trkpt><trkpt lat="42.043893543834216" lon="12.783155598648912"><ele>290.0</ele><time>2026-03-29T08:45:00Z</time></trkpt><trkpt lat="42.04374331269306" lon="12.783361487849174"><ele>288.0</ele><time>2026-03-29T08:45:01Z</time></trkpt><trkpt lat="42.0435867900802" lon="12.783566558325017"><ele>286.0</ele><time>2026-03-29T08:45:02Z</time></trkpt><trkpt lat="42.04341880118404" lon="12.783754947463159"><ele>282.3333333333333</ele><time>2026-03-29T08:45:03Z</time></trkpt><trkpt lat="42.043243958972916" lon="12.78392904095687"><ele>278.6666666666667</ele><time>2026-03-29T08:45:04Z</time></trkpt><trkpt lat="42.04306202055488" lon="12.784090933578051"><ele>275.0</ele><time>2026-03-29T08:45:05Z</time></trkpt><trkpt lat="42.04288068188675" lon="12.784237059912382"><ele>276.6666666666667</ele><time>2026-03-29T08:45:06Z</time></trkpt><trkpt lat="42.04270193951425" lon="12.784357094857903"><ele>278.3333333333333</ele><time>2026-03-29T08:45:07Z</time></trkpt><trkpt lat="42.04251105574546" lon="12.784440858004746"><ele>280.0</ele><time>2026-03-29T08:45:08Z</time></trkpt><trkpt lat="42.042301013122604" lon="12.784473344683496"><ele>280.0</ele><time>2026-03-29T08:45:09Z</time></trkpt><trkpt lat="42.042081031071596" lon="12.784447281232124"><ele>280.0</ele><time>2026-03-29T08:45:10Z</time></trkpt><trkpt lat="42.041866248229134" lon="12.784381583290752"><ele>280.0</ele><time>2026-03-29T08:45:10.999Z</time></trkpt><trkpt lat="42.041647114626244" lon="12.784285303435588"><ele>277.0</ele><time>2026-03-29T08:45:11.999Z</time></trkpt><trkpt lat="42.041454605101144" lon="12.784168227181539"><ele>274.0</ele><time>2026-03-29T08:45:12.999Z</time></trkpt><trkpt lat="42.041288181358645" lon="12.784051498305708"><ele>271.0</ele><time>2026-03-29T08:45:13.999Z</time></trkpt><trkpt lat="42.04114218836118" lon="12.783961244750914"><ele>271.0</ele><time>2026-03-29T08:45:14.999Z</time></trkpt><trkpt lat="42.04099526819663" lon="12.783914791800772"><ele>271.0</ele><time>2026-03-29T08:45:15.999Z</time></trkpt><trkpt lat="42.04083549271324" lon="12.783924999632475"><ele>271.0</ele><time>2026-03-29T08:45:16.999Z</time></trkpt><trkpt lat="42.04068202957088" lon="12.783995176899921"><ele>270.3333333333333</ele><time>2026-03-29T08:45:17.999Z</time></trkpt><trkpt lat="42.04054505546735" lon="12.784127475841467"><ele>269.6666666666667</ele><time>2026-03-29T08:45:18.999Z</time></trkpt><trkpt lat="42.040432971192075" lon="12.784326178458848"><ele>269.0</ele><time>2026-03-29T08:45:19.999Z</time></trkpt><trkpt lat="42.04032599756756" lon="12.784534238464198"><ele>269.0</ele><time>2026-03-29T08:45:20.999Z</time></trkpt><trkpt lat="42.040198606861836" lon="12.784692837631251"><ele>269.0</ele><time>2026-03-29T08:45:21.999Z</time></trkpt><trkpt lat="42.04004084484005" lon="12.784791852043789"><ele>269.0</ele><time>2026-03-29T08:45:22.999Z</time></trkpt><trkpt lat="42.039866690471015" lon="12.784865993856654"><ele>269.0</ele><time>2026-03-29T08:45:23.999Z</time></trkpt><trkpt lat="42.039672119231255" lon="12.784882057156231"><ele>269.0</ele><time>2026-03-29T08:45:24.999Z</time></trkpt><trkpt lat="42.0394725278048" lon="12.784848511511887"><ele>269.0</ele><time>2026-03-29T08:45:25.999Z</time></trkpt><trkpt lat="42.03927440970265" lon="12.784802387689712"><ele>268.0</ele><time>2026-03-29T08:45:26.999Z</time></trkpt><trkpt lat="42.039096595802185" lon="12.784729956080596"><ele>267.0</ele><time>2026-03-29T08:45:27.999Z</time></trkpt><trkpt lat="42.03893176392791" lon="12.784672471501102"><ele>266.0</ele><time>2026-03-29T08:45:28.999Z</time></trkpt><trkpt lat="42.03875970715511" lon="12.784615747976494"><ele>266.0</ele><time>2026-03-29T08:45:29.999Z</time></trkpt><trkpt lat="42.03858133712779" lon="12.784558709101063"><ele>266.0</ele><time>2026-03-29T08:45:30.999Z</time></trkpt><trkpt lat="42.03840306137299" lon="12.784519552258729"><ele>266.0</ele><time>2026-03-29T08:45:31.999Z</time></trkpt><trkpt lat="42.03821816452591" lon="12.784509900011535"><ele>263.6666666666667</ele><time>2026-03-29T08:45:32.999Z</time></trkpt><trkpt lat="42.03804647934093" lon="12.784539164858591"><ele>261.3333333333333</ele><time>2026-03-29T08:45:33.999Z</time></trkpt><trkpt lat="42.03786937316147" lon="12.78462496354336"><ele>259.0</ele><time>2026-03-29T08:45:34.999Z</time></trkpt><trkpt lat="42.03768646262969" lon="12.784766032205209"><ele>259.0</ele><time>2026-03-29T08:45:35.999Z</time></trkpt><trkpt lat="42.03753173575563" lon="12.784922766417473"><ele>259.0</ele><time>2026-03-29T08:45:36.999Z</time></trkpt><trkpt lat="42.037364882974195" lon="12.785088729234529"><ele>259.0</ele><time>2026-03-29T08:45:37.999Z</time></trkpt><trkpt lat="42.03720851102051" lon="12.785220653017749"><ele>259.66666666666663</ele><time>2026-03-29T08:45:38.999Z</time></trkpt><trkpt lat="42.03705486056466" lon="12.785345905917303"><ele>260.3333333333333</ele><time>2026-03-29T08:45:39.999Z</time></trkpt><trkpt lat="42.0368442039118" lon="12.785455755210632"><ele>261.0</ele><time>2026-03-29T08:45:40.999Z</time></trkpt><trkpt lat="42.03663396819311" lon="12.785547895062683"><ele>258.5</ele><time>2026-03-29T08:45:41.999Z</time></trkpt><trkpt lat="42.03640246683054" lon="12.785596614948584"><ele>256.0</ele><time>2026-03-29T08:45:42.999Z</time></trkpt><trkpt lat="42.03614939747837" lon="12.78564656502742"><ele>256.0</ele><time>2026-03-29T08:45:43.999Z</time></trkpt><trkpt lat="42.035901280042076" lon="12.785653939471487"><ele>256.0</ele><time>2026-03-29T08:45:44.999Z</time></trkpt><trkpt lat="42.03568330847579" lon="12.785683712306332"><ele>254.33333333333331</ele><time>2026-03-29T08:45:45.999Z</time></trkpt><trkpt lat="42.0354827566824" lon="12.785693071388677"><ele>252.66666666666669</ele><time>2026-03-29T08:45:46.999Z</time></trkpt><trkpt lat="42.035305283541774" lon="12.785730575154458"><ele>251.0</ele><time>2026-03-29T08:45:47.999Z</time></trkpt><trkpt lat="42.03514530318147" lon="12.785796474820026"><ele>251.0</ele><time>2026-03-29T08:45:48.999Z</time></trkpt><trkpt lat="42.0349758826411" lon="12.785934178131619"><ele>251.0</ele><time>2026-03-29T08:45:49.999Z</time></trkpt><trkpt lat="42.034804003919824" lon="12.786128149341955"><ele>251.0</ele><time>2026-03-29T08:45:50.999Z</time></trkpt><trkpt lat="42.0346216957613" lon="12.78632791645725"><ele>251.0</ele><time>2026-03-29T08:45:51.999Z</time></trkpt><trkpt lat="42.03443359888877" lon="12.786519173751726"><ele>251.0</ele><time>2026-03-29T08:45:52.999Z</time></trkpt><trkpt lat="42.03426384838278" lon="12.786691396672614"><ele>251.0</ele><time>2026-03-29T08:45:53.999Z</time></trkpt><trkpt lat="42.03410725869963" lon="12.786855319298587"><ele>251.0</ele><time>2026-03-29T08:45:54.999Z</time></trkpt><trkpt lat="42.03394852755273" lon="12.787021841114614"><ele>251.0</ele><time>2026-03-29T08:45:55.999Z</time></trkpt><trkpt lat="42.03377183092924" lon="12.787203942999701"><ele>251.0</ele><time>2026-03-29T08:45:56.999Z</time></trkpt><trkpt lat="42.03360203869438" lon="12.787371355969867"><ele>251.0</ele><time>2026-03-29T08:45:57.999Z</time></trkpt><trkpt lat="42.03344085626526" lon="12.787531340862696"><ele>251.0</ele><time>2026-03-29T08:45:58.999Z</time></trkpt><trkpt lat="42.03328858024882" lon="12.787679630160161"><ele>251.0</ele><time>2026-03-29T08:45:59.999Z</time></trkpt><trkpt lat="42.03312847273558" lon="12.787832415149461"><ele>250.33333333333334</ele><time>2026-03-29T08:46:00.999Z</time></trkpt><trkpt lat="42.0329733453465" lon="12.787992273609559"><ele>249.66666666666669</ele><time>2026-03-29T08:46:01.999Z</time></trkpt><trkpt lat="42.03282259038683" lon="12.788151442224041"><ele>249.0</ele><time>2026-03-29T08:46:02.999Z</time></trkpt><trkpt lat="42.03268244781944" lon="12.788303408689588"><ele>249.0</ele><time>2026-03-29T08:46:03.999Z</time></trkpt><trkpt lat="42.03253311946665" lon="12.788491227582007"><ele>249.0</ele><time>2026-03-29T08:46:04.999Z</time></trkpt><trkpt lat="42.0323748338953" lon="12.788700951752626"><ele>249.0</ele><time>2026-03-29T08:46:05.999Z</time></trkpt><trkpt lat="42.032230139051165" lon="12.788891729989826"><ele>248.0</ele><time>2026-03-29T08:46:06.999Z</time></trkpt><trkpt lat="42.03208545009581" lon="12.789083628659897"><ele>247.0</ele><time>2026-03-29T08:46:07.999Z</time></trkpt><trkpt lat="42.031954294594904" lon="12.789300860789119"><ele>246.0</ele><time>2026-03-29T08:46:08.999Z</time></trkpt><trkpt lat="42.0318372066075" lon="12.789547332369544"><ele>246.0</ele><time>2026-03-29T08:46:09.999Z</time></trkpt><trkpt lat="42.031732768430565" lon="12.789814487074239"><ele>246.0</ele><time>2026-03-29T08:46:10.999Z</time></trkpt><trkpt lat="42.031637384253074" lon="12.790099238215854"><ele>243.0</ele><time>2026-03-29T08:46:11.998Z</time></trkpt><trkpt lat="42.031551138532826" lon="12.790390059975804"><ele>240.0</ele><time>2026-03-29T08:46:12.998Z</time></trkpt><trkpt lat="42.03147037474718" lon="12.790661235882"><ele>240.0</ele><time>2026-03-29T08:46:13.998Z</time></trkpt><trkpt lat="42.03139472402464" lon="12.79091359498168"><ele>240.0</ele><time>2026-03-29T08:46:14.998Z</time></trkpt><trkpt lat="42.03132034958924" lon="12.79116171814197"><ele>240.0</ele><time>2026-03-29T08:46:15.998Z</time></trkpt><trkpt lat="42.03125179728544" lon="12.791398343526861"><ele>242.0</ele><time>2026-03-29T08:46:16.998Z</time></trkpt><trkpt lat="42.03118571224325" lon="12.791617815264013"><ele>244.0</ele><time>2026-03-29T08:46:17.998Z</time></trkpt><trkpt lat="42.03112304755246" lon="12.791825120567388"><ele>246.0</ele><time>2026-03-29T08:46:18.998Z</time></trkpt><trkpt lat="42.03106500949399" lon="12.792024520727919"><ele>247.25</ele><time>2026-03-29T08:46:19.998Z</time></trkpt><trkpt lat="42.03101173273808" lon="12.792209952083718"><ele>248.5</ele><time>2026-03-29T08:46:20.998Z</time></trkpt><trkpt lat="42.03096388998223" lon="12.792381951935061"><ele>249.75</ele><time>2026-03-29T08:46:21.998Z</time></trkpt><trkpt lat="42.030920192851276" lon="12.792527744359559"><ele>251.0</ele><time>2026-03-29T08:46:22.998Z</time></trkpt><trkpt lat="42.0308810706628" lon="12.792658610437485"><ele>251.20000000000002</ele><time>2026-03-29T08:46:23.998Z</time></trkpt><trkpt lat="42.030839863651586" lon="12.79278105947965"><ele>251.40000000000003</ele><time>2026-03-29T08:46:24.998Z</time></trkpt><trkpt lat="42.03080326260704" lon="12.792886897651243"><ele>251.6</ele><time>2026-03-29T08:46:25.998Z</time></trkpt><trkpt lat="42.03077402587844" lon="12.792972362173174"><ele>251.8</ele><time>2026-03-29T08:46:26.998Z</time></trkpt><trkpt lat="42.030693366137825" lon="12.79310299206203"><ele>252.0</ele><time>2026-03-29T08:46:28.998Z</time></trkpt><trkpt lat="42.03067729318747" lon="12.793243874875419"><ele>252.0</ele><time>2026-03-29T08:46:30.998Z</time></trkpt><trkpt lat="42.03071884693196" lon="12.79330823874083"><ele>252.0</ele><time>2026-03-29T08:46:31.998Z</time></trkpt><trkpt lat="42.03079343744852" lon="12.793400703307293"><ele>252.0</ele><time>2026-03-29T08:46:34Z</time></trkpt><trkpt lat="42.030809341421154" lon="12.793484002659133"><ele>252.0</ele><time>2026-03-29T08:46:35Z</time></trkpt><trkpt lat="42.0308224747869" lon="12.793596978798814"><ele>252.0</ele><time>2026-03-29T08:46:36Z</time></trkpt><trkpt lat="42.030826195050075" lon="12.793720929640362"><ele>252.0</ele><time>2026-03-29T08:46:37Z</time></trkpt><trkpt lat="42.03081235377148" lon="12.793858569880587"><ele>252.25</ele><time>2026-03-29T08:46:38Z</time></trkpt><trkpt lat="42.0307744443815" lon="12.794011489212366"><ele>252.5</ele><time>2026-03-29T08:46:39Z</time></trkpt><trkpt lat="42.030719911751014" lon="12.794169973417034"><ele>252.75</ele><time>2026-03-29T08:46:40Z</time></trkpt><trkpt lat="42.030650405989164" lon="12.794332202208347"><ele>253.0</ele><time>2026-03-29T08:46:41Z</time></trkpt><trkpt lat="42.030574643119216" lon="12.794487151846202"><ele>253.0</ele><time>2026-03-29T08:46:42Z</time></trkpt><trkpt lat="42.03050285974003" lon="12.794617674177548"><ele>253.0</ele><time>2026-03-29T08:46:43Z</time></trkpt><trkpt lat="42.030438203049236" lon="12.794750431249783"><ele>253.0</ele><time>2026-03-29T08:46:44Z</time></trkpt><trkpt lat="42.03038304347815" lon="12.794868593440132"><ele>253.0</ele><time>2026-03-29T08:46:45Z</time></trkpt><trkpt lat="42.03032708574908" lon="12.794993399550542"><ele>252.99999999999997</ele><time>2026-03-29T08:46:46Z</time></trkpt><trkpt lat="42.03027600823608" lon="12.79510374470452"><ele>253.0</ele><time>2026-03-29T08:46:47Z</time></trkpt><trkpt lat="42.03023776066413" lon="12.795182697440477"><ele>253.0</ele><time>2026-03-29T08:46:48Z</time></trkpt><trkpt lat="42.03019432752969" lon="12.795279585534788"><ele>253.0</ele><time>2026-03-29T08:46:50Z</time></trkpt><trkpt lat="42.030157379091946" lon="12.795359289479668"><ele>252.99999999999997</ele><time>2026-03-29T08:46:53Z</time></trkpt><trkpt lat="42.03013562550584" lon="12.795453307222264"><ele>253.0</ele><time>2026-03-29T08:46:55Z</time></trkpt><trkpt lat="42.030040848945106" lon="12.79548867400077"><ele>253.8</ele><time>2026-03-29T08:46:56Z</time></trkpt><trkpt lat="42.03021131402887" lon="12.795568587380101"><ele>254.60000000000002</ele><time>2026-03-29T08:46:57Z</time></trkpt><trkpt lat="42.03027243702404" lon="12.795604030211157"><ele>255.39999999999998</ele><time>2026-03-29T08:46:58Z</time></trkpt><trkpt lat="42.03034341952316" lon="12.795655048474016"><ele>256.2</ele><time>2026-03-29T08:46:59Z</time></trkpt><trkpt lat="42.0304125885812" lon="12.79571019086013"><ele>257.0</ele><time>2026-03-29T08:47:00Z</time></trkpt><trkpt lat="42.030480933751775" lon="12.795767573066072"><ele>257.0</ele><time>2026-03-29T08:47:01Z</time></trkpt><trkpt lat="42.030546928251376" lon="12.79582914185237"><ele>257.0</ele><time>2026-03-29T08:47:02Z</time></trkpt><trkpt lat="42.03063631671389" lon="12.795909775270568"><ele>257.0</ele><time>2026-03-29T08:47:04Z</time></trkpt><trkpt lat="42.03074520461715" lon="12.795991184167669"><ele>257.0</ele><time>2026-03-29T08:47:06Z</time></trkpt><trkpt lat="42.030805426698535" lon="12.796039918447802"><ele>257.0</ele><time>2026-03-29T08:47:07Z</time></trkpt><trkpt lat="42.03087405912451" lon="12.796098742471328"><ele>258.6</ele><time>2026-03-29T08:47:08Z</time></trkpt><trkpt lat="42.03093863348242" lon="12.796161966383266"><ele>260.2</ele><time>2026-03-29T08:47:09Z</time></trkpt><trkpt lat="42.03100654894449" lon="12.796230481836336"><ele>261.8</ele><time>2026-03-29T08:47:10Z</time></trkpt><trkpt lat="42.03108294001168" lon="12.796309327528494"><ele>263.4</ele><time>2026-03-29T08:47:11Z</time></trkpt><trkpt lat="42.031155612682625" lon="12.796402125319723"><ele>265.0</ele><time>2026-03-29T08:47:11.999Z</time></trkpt><trkpt lat="42.0312247134181" lon="12.796508751309235"><ele>265.0</ele><time>2026-03-29T08:47:12.999Z</time></trkpt><trkpt lat="42.031283941829656" lon="12.796629534712539"><ele>265.0</ele><time>2026-03-29T08:47:13.999Z</time></trkpt><trkpt lat="42.0313210291045" lon="12.796771399929435"><ele>265.0</ele><time>2026-03-29T08:47:14.999Z</time></trkpt><trkpt lat="42.03134295002551" lon="12.796928695877929"><ele>265.0</ele><time>2026-03-29T08:47:15.999Z</time></trkpt><trkpt lat="42.03135190545309" lon="12.797090905842921"><ele>266.75</ele><time>2026-03-29T08:47:16.999Z</time></trkpt><trkpt lat="42.03134375293602" lon="12.79727765291163"><ele>268.5</ele><time>2026-03-29T08:47:17.999Z</time></trkpt><trkpt lat="42.03132484171675" lon="12.797483315384403"><ele>270.25</ele><time>2026-03-29T08:47:18.999Z</time></trkpt><trkpt lat="42.031306253405646" lon="12.797692061023524"><ele>272.0</ele><time>2026-03-29T08:47:19.999Z</time></trkpt><trkpt lat="42.03129364481227" lon="12.79789271253563"><ele>273.5</ele><time>2026-03-29T08:47:20.999Z</time></trkpt><trkpt lat="42.03128338420311" lon="12.798081540385178"><ele>275.0</ele><time>2026-03-29T08:47:21.999Z</time></trkpt><trkpt lat="42.03127399215579" lon="12.798266310565463"><ele>276.5</ele><time>2026-03-29T08:47:22.999Z</time></trkpt><trkpt lat="42.031264950968804" lon="12.79845140773476"><ele>278.0</ele><time>2026-03-29T08:47:23.999Z</time></trkpt><trkpt lat="42.0312555664075" lon="12.798641658864677"><ele>280.0</ele><time>2026-03-29T08:47:24.999Z</time></trkpt><trkpt lat="42.031242809456565" lon="12.798835667817766"><ele>282.0</ele><time>2026-03-29T08:47:25.999Z</time></trkpt><trkpt lat="42.03122861770484" lon="12.799027317710808"><ele>284.0</ele><time>2026-03-29T08:47:26.999Z</time></trkpt><trkpt lat="42.031210184519715" lon="12.79922332767203"><ele>286.0</ele><time>2026-03-29T08:47:27.999Z</time></trkpt><trkpt lat="42.031180641935244" lon="12.799418476686983"><ele>289.3333333333333</ele><time>2026-03-29T08:47:28.999Z</time></trkpt><trkpt lat="42.03112698601485" lon="12.799606443925558"><ele>292.6666666666667</ele><time>2026-03-29T08:47:29.999Z</time></trkpt><trkpt lat="42.03104785414775" lon="12.799779086826621"><ele>296.0</ele><time>2026-03-29T08:47:30.999Z</time></trkpt><trkpt lat="42.030938722713636" lon="12.79992291674992"><ele>295.6666666666667</ele><time>2026-03-29T08:47:31.999Z</time></trkpt><trkpt lat="42.03080537109424" lon="12.800034435138855"><ele>295.3333333333333</ele><time>2026-03-29T08:47:32.999Z</time></trkpt><trkpt lat="42.030650071074085" lon="12.800114885288009"><ele>295.0</ele><time>2026-03-29T08:47:33.999Z</time></trkpt><trkpt lat="42.030471862532764" lon="12.800162587733064"><ele>296.0</ele><time>2026-03-29T08:47:34.999Z</time></trkpt><trkpt lat="42.030286204463664" lon="12.800189801872879"><ele>297.0</ele><time>2026-03-29T08:47:35.999Z</time></trkpt><trkpt lat="42.03011045958271" lon="12.800228112992107"><ele>298.0</ele><time>2026-03-29T08:47:36.999Z</time></trkpt><trkpt lat="42.02994290771841" lon="12.800298025636005"><ele>298.0</ele><time>2026-03-29T08:47:37.999Z</time></trkpt><trkpt lat="42.029792967696935" lon="12.800412268669369"><ele>298.0</ele><time>2026-03-29T08:47:38.999Z</time></trkpt><trkpt lat="42.02964158769766" lon="12.800518054236766"><ele>298.0</ele><time>2026-03-29T08:47:39.999Z</time></trkpt><trkpt lat="42.029486329793855" lon="12.80064624962878"><ele>298.0</ele><time>2026-03-29T08:47:40.999Z</time></trkpt><trkpt lat="42.029449989714855" lon="12.800983800739697"><ele>298.0</ele><time>2026-03-29T08:47:41.999Z</time></trkpt><trkpt lat="42.02937274099471" lon="12.801231489891398"><ele>301.3333333333333</ele><time>2026-03-29T08:47:42.999Z</time></trkpt><trkpt lat="42.02929637439215" lon="12.801494254422519"><ele>304.6666666666667</ele><time>2026-03-29T08:47:43.999Z</time></trkpt><trkpt lat="42.02921332241569" lon="12.801750884292234"><ele>308.0</ele><time>2026-03-29T08:47:44.999Z</time></trkpt><trkpt lat="42.02912221167671" lon="12.80199380011769"><ele>308.33333333333337</ele><time>2026-03-29T08:47:45.999Z</time></trkpt><trkpt lat="42.02902590896977" lon="12.802236017342008"><ele>308.6666666666667</ele><time>2026-03-29T08:47:46.999Z</time></trkpt><trkpt lat="42.028907839041196" lon="12.802484716826466"><ele>309.0</ele><time>2026-03-29T08:47:47.999Z</time></trkpt><trkpt lat="42.028773066481314" lon="12.802727337404072"><ele>311.6666666666667</ele><time>2026-03-29T08:47:48.999Z</time></trkpt><trkpt lat="42.028633004085286" lon="12.802970330283342"><ele>314.33333333333337</ele><time>2026-03-29T08:47:49.999Z</time></trkpt><trkpt lat="42.028499384067146" lon="12.80320704449246"><ele>317.0</ele><time>2026-03-29T08:47:50.999Z</time></trkpt><trkpt lat="42.02837963375004" lon="12.803425576476567"><ele>315.6666666666667</ele><time>2026-03-29T08:47:51.999Z</time></trkpt><trkpt lat="42.028275831058956" lon="12.803645813340745"><ele>314.3333333333333</ele><time>2026-03-29T08:47:52.999Z</time></trkpt><trkpt lat="42.02819382639725" lon="12.803880590531087"><ele>313.0</ele><time>2026-03-29T08:47:53.999Z</time></trkpt><trkpt lat="42.0281321404343" lon="12.804132312704638"><ele>314.0</ele><time>2026-03-29T08:47:54.999Z</time></trkpt><trkpt lat="42.02810254401264" lon="12.804390077806262"><ele>315.0</ele><time>2026-03-29T08:47:55.999Z</time></trkpt><trkpt lat="42.02809337925693" lon="12.804651635204214"><ele>316.0</ele><time>2026-03-29T08:47:56.999Z</time></trkpt><trkpt lat="42.02810424529691" lon="12.804920703251875"><ele>317.3333333333333</ele><time>2026-03-29T08:47:57.999Z</time></trkpt><trkpt lat="42.02813331793299" lon="12.805177279027408"><ele>318.6666666666667</ele><time>2026-03-29T08:47:58.999Z</time></trkpt><trkpt lat="42.0281656184427" lon="12.805400303570554"><ele>320.0</ele><time>2026-03-29T08:47:59.999Z</time></trkpt><trkpt lat="42.02818645492722" lon="12.805591050586447"><ele>320.0</ele><time>2026-03-29T08:48:00.999Z</time></trkpt><trkpt lat="42.02819530818185" lon="12.805761837181098"><ele>320.0</ele><time>2026-03-29T08:48:01.999Z</time></trkpt><trkpt lat="42.028194436960625" lon="12.805913378124538"><ele>320.0</ele><time>2026-03-29T08:48:02.999Z</time></trkpt><trkpt lat="42.028181513806835" lon="12.80605933004495"><ele>320.0</ele><time>2026-03-29T08:48:03.999Z</time></trkpt><trkpt lat="42.02814539922755" lon="12.806201950702514"><ele>322.5</ele><time>2026-03-29T08:48:04.999Z</time></trkpt><trkpt lat="42.02808618334242" lon="12.806342232081304"><ele>325.0</ele><time>2026-03-29T08:48:05.999Z</time></trkpt><trkpt lat="42.02801056813651" lon="12.80647784848093"><ele>327.5</ele><time>2026-03-29T08:48:06.999Z</time></trkpt><trkpt lat="42.02793883924639" lon="12.806592355283765"><ele>330.0</ele><time>2026-03-29T08:48:07.999Z</time></trkpt><trkpt lat="42.02787835744593" lon="12.806692649743052"><ele>330.0</ele><time>2026-03-29T08:48:08.999Z</time></trkpt><trkpt lat="42.02781205283974" lon="12.806781806189836"><ele>330.0</ele><time>2026-03-29T08:48:09.999Z</time></trkpt><trkpt lat="42.02775205950381" lon="12.806877279572468"><ele>330.0</ele><time>2026-03-29T08:48:10.999Z</time></trkpt><trkpt lat="42.027701087390184" lon="12.806959699258284"><ele>330.0</ele><time>2026-03-29T08:48:11.999Z</time></trkpt><trkpt lat="42.02766248316428" lon="12.807029721243257"><ele>330.0</ele><time>2026-03-29T08:48:12.998Z</time></trkpt><trkpt lat="42.02758518627619" lon="12.807131554792154"><ele>330.0</ele><time>2026-03-29T08:48:14.998Z</time></trkpt><trkpt lat="42.027529310965754" lon="12.807196272003642"><ele>329.0</ele><time>2026-03-29T08:48:15.998Z</time></trkpt><trkpt lat="42.02747105650626" lon="12.807244193120642"><ele>328.0</ele><time>2026-03-29T08:48:16.998Z</time></trkpt><trkpt lat="42.0274040449911" lon="12.807300405319243"><ele>327.0</ele><time>2026-03-29T08:48:17.998Z</time></trkpt><trkpt lat="42.02734263456265" lon="12.807361674530107"><ele>326.0</ele><time>2026-03-29T08:48:18.998Z</time></trkpt><trkpt lat="42.02728610499157" lon="12.807453698113129"><ele>325.0</ele><time>2026-03-29T08:48:19.998Z</time></trkpt><trkpt lat="42.02723885549426" lon="12.807543038651394"><ele>324.0</ele><time>2026-03-29T08:48:20.998Z</time></trkpt><trkpt lat="42.027191394005506" lon="12.80762895262244"><ele>324.3333333333333</ele><time>2026-03-29T08:48:21.998Z</time></trkpt><trkpt lat="42.02714200658283" lon="12.807710642973413"><ele>324.6666666666667</ele><time>2026-03-29T08:48:22.998Z</time></trkpt><trkpt lat="42.02708826872132" lon="12.807788174222292"><ele>325.0</ele><time>2026-03-29T08:48:23.998Z</time></trkpt><trkpt lat="42.027031863007046" lon="12.807873519924872"><ele>325.33333333333337</ele><time>2026-03-29T08:48:24.998Z</time></trkpt><trkpt lat="42.02695830369821" lon="12.807956703347903"><ele>325.6666666666667</ele><time>2026-03-29T08:48:25.998Z</time></trkpt><trkpt lat="42.02688579094762" lon="12.808040424067332"><ele>326.0</ele><time>2026-03-29T08:48:26.998Z</time></trkpt><trkpt lat="42.02680435979819" lon="12.808137931271881"><ele>326.0</ele><time>2026-03-29T08:48:27.998Z</time></trkpt><trkpt lat="42.02671503030411" lon="12.808243745641839"><ele>326.0</ele><time>2026-03-29T08:48:28.998Z</time></trkpt><trkpt lat="42.026624677933604" lon="12.808347084243648"><ele>326.0</ele><time>2026-03-29T08:48:29.998Z</time></trkpt><trkpt lat="42.026541947658735" lon="12.808450794591748"><ele>326.0</ele><time>2026-03-29T08:48:30.998Z</time></trkpt><trkpt lat="42.026469818730014" lon="12.8085463199884"><ele>326.6</ele><time>2026-03-29T08:48:31.998Z</time></trkpt><trkpt lat="42.026393338237106" lon="12.808631288449977"><ele>327.20000000000005</ele><time>2026-03-29T08:48:32.998Z</time></trkpt><trkpt lat="42.02631354826381" lon="12.80872306131586"><ele>327.79999999999995</ele><time>2026-03-29T08:48:33.998Z</time></trkpt><trkpt lat="42.02623145008692" lon="12.808801231014067"><ele>328.4</ele><time>2026-03-29T08:48:34.998Z</time></trkpt><trkpt lat="42.026147715800334" lon="12.808858839127145"><ele>329.0</ele><time>2026-03-29T08:48:35.998Z</time></trkpt><trkpt lat="42.026072747680104" lon="12.808901119208642"><ele>329.0</ele><time>2026-03-29T08:48:36.998Z</time></trkpt><trkpt lat="42.02601241449915" lon="12.80893254206181"><ele>329.0</ele><time>2026-03-29T08:48:37.998Z</time></trkpt><trkpt lat="42.025931563022326" lon="12.808968425944492"><ele>329.0</ele><time>2026-03-29T08:48:40Z</time></trkpt><trkpt lat="42.02584848073046" lon="12.808996182920389"><ele>329.0</ele><time>2026-03-29T08:48:43Z</time></trkpt><trkpt lat="42.02576749819404" lon="12.808876412363148"><ele>329.0</ele><time>2026-03-29T08:48:45Z</time></trkpt><trkpt lat="42.025713016113286" lon="12.808818253644375"><ele>329.0</ele><time>2026-03-29T08:48:47Z</time></trkpt><trkpt lat="42.02562788437112" lon="12.808770273144999"><ele>328.0</ele><time>2026-03-29T08:48:49Z</time></trkpt><trkpt lat="42.02553208784263" lon="12.808698807776874"><ele>327.0</ele><time>2026-03-29T08:48:51Z</time></trkpt><trkpt lat="42.02542101146653" lon="12.808634557065423"><ele>326.0</ele><time>2026-03-29T08:48:53Z</time></trkpt><trkpt lat="42.02536286774871" lon="12.808600153500143"><ele>325.0</ele><time>2026-03-29T08:48:54Z</time></trkpt><trkpt lat="42.025290545047525" lon="12.808538504721927"><ele>324.0</ele><time>2026-03-29T08:48:56Z</time></trkpt><trkpt lat="42.025224567568024" lon="12.808486198943436"><ele>324.0</ele><time>2026-03-29T08:48:58Z</time></trkpt><trkpt lat="42.02516010712135" lon="12.808449142760704"><ele>324.0</ele><time>2026-03-29T08:49:00Z</time></trkpt><trkpt lat="42.02509368875418" lon="12.808428732372313"><ele>324.0</ele><time>2026-03-29T08:49:04Z</time></trkpt><trkpt lat="42.025080555203" lon="12.808606152709789"><ele>324.0</ele><time>2026-03-29T08:49:06Z</time></trkpt><trkpt lat="42.02508077442473" lon="12.808713324324508"><ele>324.0</ele><time>2026-03-29T08:49:07Z</time></trkpt><trkpt lat="42.025059042725715" lon="12.808830495955057"><ele>324.0</ele><time>2026-03-29T08:49:08Z</time></trkpt><trkpt lat="42.0249952066856" lon="12.808919581937378"><ele>322.75</ele><time>2026-03-29T08:49:09Z</time></trkpt><trkpt lat="42.02492087805243" lon="12.809003231239634"><ele>321.5</ele><time>2026-03-29T08:49:10Z</time></trkpt><trkpt lat="42.024827193042604" lon="12.809087624762183"><ele>320.25</ele><time>2026-03-29T08:49:11Z</time></trkpt><trkpt lat="42.02472185839209" lon="12.80918445836362"><ele>319.0</ele><time>2026-03-29T08:49:12Z</time></trkpt><trkpt lat="42.02461950866503" lon="12.809276816732167"><ele>322.3333333333333</ele><time>2026-03-29T08:49:13Z</time></trkpt><trkpt lat="42.02450755679453" lon="12.809377973843423"><ele>325.6666666666667</ele><time>2026-03-29T08:49:14Z</time></trkpt><trkpt lat="42.02439766456273" lon="12.809480239781205"><ele>329.0</ele><time>2026-03-29T08:49:15Z</time></trkpt><trkpt lat="42.024225343172425" lon="12.809716917497372"><ele>329.0</ele><time>2026-03-29T08:49:17Z</time></trkpt><trkpt lat="42.024166649690926" lon="12.809863156750312"><ele>329.0</ele><time>2026-03-29T08:49:18Z</time></trkpt><trkpt lat="42.02414246404603" lon="12.81002969287348"><ele>329.0</ele><time>2026-03-29T08:49:19Z</time></trkpt><trkpt lat="42.02414485313884" lon="12.81021583398226"><ele>329.0</ele><time>2026-03-29T08:49:19.999Z</time></trkpt><trkpt lat="42.0241269475301" lon="12.810395728522511"><ele>331.5</ele><time>2026-03-29T08:49:20.999Z</time></trkpt><trkpt lat="42.024096149056156" lon="12.810542783859807"><ele>334.0</ele><time>2026-03-29T08:49:21.999Z</time></trkpt><trkpt lat="42.02403661098755" lon="12.810682543664376"><ele>336.5</ele><time>2026-03-29T08:49:22.999Z</time></trkpt><trkpt lat="42.0239248064628" lon="12.810766425457862"><ele>339.0</ele><time>2026-03-29T08:49:23.999Z</time></trkpt><trkpt lat="42.023822241468075" lon="12.810796600891297"><ele>339.0</ele><time>2026-03-29T08:49:24.999Z</time></trkpt><trkpt lat="42.02371875477215" lon="12.810738381379133"><ele>339.0</ele><time>2026-03-29T08:49:25.999Z</time></trkpt><trkpt lat="42.02360416454884" lon="12.810608787307146"><ele>339.0</ele><time>2026-03-29T08:49:26.999Z</time></trkpt><trkpt lat="42.023486242308294" lon="12.810525504185254"><ele>339.0</ele><time>2026-03-29T08:49:27.999Z</time></trkpt><trkpt lat="42.023353587101234" lon="12.810469976121974"><ele>336.5</ele><time>2026-03-29T08:49:28.999Z</time></trkpt><trkpt lat="42.02320347634932" lon="12.810476385380086"><ele>334.0</ele><time>2026-03-29T08:49:29.999Z</time></trkpt><trkpt lat="42.023056710510076" lon="12.810532762978326"><ele>331.5</ele><time>2026-03-29T08:49:30.999Z</time></trkpt><trkpt lat="42.02292384170563" lon="12.810612032066292"><ele>329.0</ele><time>2026-03-29T08:49:31.999Z</time></trkpt><trkpt lat="42.02281412776434" lon="12.810730452758897"><ele>329.0</ele><time>2026-03-29T08:49:32.999Z</time></trkpt><trkpt lat="42.022703973669444" lon="12.810892119223714"><ele>329.0</ele><time>2026-03-29T08:49:33.999Z</time></trkpt><trkpt lat="42.02256050619149" lon="12.811045544407865"><ele>329.0</ele><time>2026-03-29T08:49:34.999Z</time></trkpt><trkpt lat="42.0224110713325" lon="12.81116207799573"><ele>334.33333333333337</ele><time>2026-03-29T08:49:35.999Z</time></trkpt><trkpt lat="42.022251906307496" lon="12.811200032282702"><ele>339.6666666666667</ele><time>2026-03-29T08:49:36.999Z</time></trkpt><trkpt lat="42.02210141606855" lon="12.811267700005361"><ele>345.0</ele><time>2026-03-29T08:49:37.999Z</time></trkpt><trkpt lat="42.021955684527576" lon="12.811353460277436"><ele>345.0</ele><time>2026-03-29T08:49:38.999Z</time></trkpt><trkpt lat="42.0218206782661" lon="12.811494944797246"><ele>345.0</ele><time>2026-03-29T08:49:39.999Z</time></trkpt><trkpt lat="42.02168925445147" lon="12.811646507727833"><ele>345.0</ele><time>2026-03-29T08:49:40.999Z</time></trkpt><trkpt lat="42.02156357010623" lon="12.811794438642217"><ele>345.6666666666667</ele><time>2026-03-29T08:49:41.999Z</time></trkpt><trkpt lat="42.021444157069105" lon="12.811949039069807"><ele>346.33333333333337</ele><time>2026-03-29T08:49:42.999Z</time></trkpt><trkpt lat="42.02133189189311" lon="12.812101410209985"><ele>347.0</ele><time>2026-03-29T08:49:43.999Z</time></trkpt><trkpt lat="42.02122213718282" lon="12.81224454399819"><ele>347.0</ele><time>2026-03-29T08:49:44.999Z</time></trkpt><trkpt lat="42.02110695312127" lon="12.81239333282091"><ele>347.0</ele><time>2026-03-29T08:49:45.999Z</time></trkpt><trkpt lat="42.02099440105348" lon="12.812547613712074"><ele>347.0</ele><time>2026-03-29T08:49:46.999Z</time></trkpt><trkpt lat="42.020879440447445" lon="12.812701760814239"><ele>344.6666666666667</ele><time>2026-03-29T08:49:47.999Z</time></trkpt><trkpt lat="42.020771441860504" lon="12.812875441650212"><ele>342.3333333333333</ele><time>2026-03-29T08:49:48.999Z</time></trkpt><trkpt lat="42.020667395595865" lon="12.813049512219383"><ele>340.0</ele><time>2026-03-29T08:49:49.999Z</time></trkpt><trkpt lat="42.02057071175206" lon="12.813216575021505"><ele>340.0</ele><time>2026-03-29T08:49:50.999Z</time></trkpt><trkpt lat="42.020477903963275" lon="12.813383463005975"><ele>340.0</ele><time>2026-03-29T08:49:51.999Z</time></trkpt><trkpt lat="42.020396585013735" lon="12.813556868433837"><ele>340.0</ele><time>2026-03-29T08:49:52.999Z</time></trkpt><trkpt lat="42.02033461907446" lon="12.813722096215157"><ele>340.0</ele><time>2026-03-29T08:49:53.999Z</time></trkpt><trkpt lat="42.020286233245336" lon="12.813870998681407"><ele>343.5</ele><time>2026-03-29T08:49:54.999Z</time></trkpt><trkpt lat="42.02023547793325" lon="12.814007160413738"><ele>347.0</ele><time>2026-03-29T08:49:55.999Z</time></trkpt><trkpt lat="42.02017540964312" lon="12.814142348900148"><ele>350.5</ele><time>2026-03-29T08:49:56.999Z</time></trkpt><trkpt lat="42.02010027336513" lon="12.814270054446697"><ele>354.0</ele><time>2026-03-29T08:49:57.999Z</time></trkpt><trkpt lat="42.020021108656586" lon="12.814391227471626"><ele>352.2</ele><time>2026-03-29T08:49:58.999Z</time></trkpt><trkpt lat="42.019948147583165" lon="12.814505827229999"><ele>350.4</ele><time>2026-03-29T08:49:59.999Z</time></trkpt><trkpt lat="42.019881431194484" lon="12.814610784760129"><ele>348.6</ele><time>2026-03-29T08:50:00.999Z</time></trkpt><trkpt lat="42.01982142914315" lon="12.81470797064314"><ele>346.8</ele><time>2026-03-29T08:50:01.999Z</time></trkpt><trkpt lat="42.01977039433162" lon="12.814814119989641"><ele>345.0</ele><time>2026-03-29T08:50:02.999Z</time></trkpt><trkpt lat="42.01972599825723" lon="12.814938229179758"><ele>345.0</ele><time>2026-03-29T08:50:03.999Z</time></trkpt><trkpt lat="42.01968861858146" lon="12.815088432756118"><ele>345.0</ele><time>2026-03-29T08:50:04.999Z</time></trkpt><trkpt lat="42.01965791531815" lon="12.815253645666544"><ele>345.0</ele><time>2026-03-29T08:50:05.999Z</time></trkpt><trkpt lat="42.019622512353" lon="12.81541321140944"><ele>345.0</ele><time>2026-03-29T08:50:06.999Z</time></trkpt><trkpt lat="42.019586034584485" lon="12.815572358890597"><ele>347.0</ele><time>2026-03-29T08:50:07.999Z</time></trkpt><trkpt lat="42.01954563286062" lon="12.815724131786391"><ele>349.0</ele><time>2026-03-29T08:50:08.999Z</time></trkpt><trkpt lat="42.019505486513744" lon="12.815850845003338"><ele>351.0</ele><time>2026-03-29T08:50:09.999Z</time></trkpt><trkpt lat="42.01947061622794" lon="12.815951898758762"><ele>353.0</ele><time>2026-03-29T08:50:10.999Z</time></trkpt><trkpt lat="42.01942838575792" lon="12.816077659137887"><ele>355.0</ele><time>2026-03-29T08:50:12.999Z</time></trkpt><trkpt lat="42.01939337653678" lon="12.81618463698294"><ele>356.66666666666663</ele><time>2026-03-29T08:50:14.999Z</time></trkpt><trkpt lat="42.01936167012628" lon="12.816260678623792"><ele>358.3333333333333</ele><time>2026-03-29T08:50:15.999Z</time></trkpt><trkpt lat="42.01932161742212" lon="12.816345254748265"><ele>360.0</ele><time>2026-03-29T08:50:16.999Z</time></trkpt><trkpt lat="42.01927892435495" lon="12.816437455603797"><ele>361.6666666666667</ele><time>2026-03-29T08:50:17.999Z</time></trkpt><trkpt lat="42.01923380407795" lon="12.81653444844759"><ele>363.33333333333337</ele><time>2026-03-29T08:50:18.999Z</time></trkpt><trkpt lat="42.01918189155891" lon="12.816640175632912"><ele>365.0</ele><time>2026-03-29T08:50:19.999Z</time></trkpt><trkpt lat="42.01912692316547" lon="12.8167472422186"><ele>367.8</ele><time>2026-03-29T08:50:20.998Z</time></trkpt><trkpt lat="42.019067973587276" lon="12.816862885165348"><ele>370.6</ele><time>2026-03-29T08:50:21.998Z</time></trkpt><trkpt lat="42.01901027348301" lon="12.816987941888831"><ele>373.4</ele><time>2026-03-29T08:50:22.998Z</time></trkpt><trkpt lat="42.018964812827775" lon="12.817119000589761"><ele>376.2</ele><time>2026-03-29T08:50:23.998Z</time></trkpt><trkpt lat="42.01893641746953" lon="12.817274201328976"><ele>379.0</ele><time>2026-03-29T08:50:24.998Z</time></trkpt><trkpt lat="42.01892880869811" lon="12.817444068070936"><ele>379.0</ele><time>2026-03-29T08:50:25.998Z</time></trkpt><trkpt lat="42.018943837704626" lon="12.817605040536783"><ele>379.0</ele><time>2026-03-29T08:50:26.998Z</time></trkpt><trkpt lat="42.01897923769872" lon="12.817736941507297"><ele>379.0</ele><time>2026-03-29T08:50:27.998Z</time></trkpt><trkpt lat="42.01902098629189" lon="12.817856789200109"><ele>379.0</ele><time>2026-03-29T08:50:28.998Z</time></trkpt><trkpt lat="42.01903679826701" lon="12.817975491434833"><ele>379.0</ele><time>2026-03-29T08:50:29.998Z</time></trkpt><trkpt lat="42.019061372241715" lon="12.818075091327863"><ele>382.16666666666663</ele><time>2026-03-29T08:50:30.998Z</time></trkpt><trkpt lat="42.019079269056554" lon="12.818158736306415"><ele>385.3333333333333</ele><time>2026-03-29T08:50:31.998Z</time></trkpt><trkpt lat="42.019034895727735" lon="12.818239081203547"><ele>388.5</ele><time>2026-03-29T08:50:32.998Z</time></trkpt><trkpt lat="42.01895826333665" lon="12.818274458596301"><ele>391.66666666666663</ele><time>2026-03-29T08:50:33.998Z</time></trkpt><trkpt lat="42.01886444546637" lon="12.818220077943229"><ele>394.8333333333333</ele><time>2026-03-29T08:50:34.998Z</time></trkpt><trkpt lat="42.01880118865759" lon="12.818097787143017"><ele>398.0</ele><time>2026-03-29T08:50:35.998Z</time></trkpt><trkpt lat="42.01870413575335" lon="12.817970029855006"><ele>398.0</ele><time>2026-03-29T08:50:36.998Z</time></trkpt><trkpt lat="42.018592549198644" lon="12.817777651376977"><ele>398.0</ele><time>2026-03-29T08:50:37.998Z</time></trkpt><trkpt lat="42.01848425533354" lon="12.817581609928444"><ele>398.0</ele><time>2026-03-29T08:50:38.998Z</time></trkpt><trkpt lat="42.018402766676644" lon="12.817420951490684"><ele>394.2</ele><time>2026-03-29T08:50:39.998Z</time></trkpt><trkpt lat="42.01833446317106" lon="12.817290805861855"><ele>390.4</ele><time>2026-03-29T08:50:40.998Z</time></trkpt><trkpt lat="42.01827736045682" lon="12.817191700352767"><ele>386.59999999999997</ele><time>2026-03-29T08:50:41.998Z</time></trkpt><trkpt lat="42.01821001279244" lon="12.817109510538565"><ele>382.79999999999995</ele><time>2026-03-29T08:50:42.998Z</time></trkpt><trkpt lat="42.01811374418098" lon="12.817064948818308"><ele>379.0</ele><time>2026-03-29T08:50:43.998Z</time></trkpt><trkpt lat="42.01800636945984" lon="12.817080296898913"><ele>378.66666666666663</ele><time>2026-03-29T08:50:45Z</time></trkpt><trkpt lat="42.01789344986944" lon="12.817164392297961"><ele>378.3333333333333</ele><time>2026-03-29T08:50:46Z</time></trkpt><trkpt lat="42.017767656574534" lon="12.817299750598776"><ele>378.0</ele><time>2026-03-29T08:50:47Z</time></trkpt><trkpt lat="42.01762942481572" lon="12.817464048124933"><ele>378.0</ele><time>2026-03-29T08:50:48Z</time></trkpt><trkpt lat="42.01748997167215" lon="12.81763066717531"><ele>378.0</ele><time>2026-03-29T08:50:49Z</time></trkpt><trkpt lat="42.01735150110937" lon="12.81780373010063"><ele>378.0</ele><time>2026-03-29T08:50:50Z</time></trkpt><trkpt lat="42.017229549300176" lon="12.817955581086425"><ele>383.0</ele><time>2026-03-29T08:50:51Z</time></trkpt><trkpt lat="42.017104152165665" lon="12.81809603638403"><ele>388.0</ele><time>2026-03-29T08:50:52Z</time></trkpt><trkpt lat="42.016979708413906" lon="12.818216372635566"><ele>393.0</ele><time>2026-03-29T08:50:53Z</time></trkpt><trkpt lat="42.01685755061141" lon="12.818313967039282"><ele>393.0</ele><time>2026-03-29T08:50:54Z</time></trkpt><trkpt lat="42.01675030543585" lon="12.818383231968534"><ele>393.0</ele><time>2026-03-29T08:50:55Z</time></trkpt><trkpt lat="42.01664749776712" lon="12.818440501234635"><ele>393.0</ele><time>2026-03-29T08:50:56Z</time></trkpt><trkpt lat="42.01654529520194" lon="12.818490907783989"><ele>393.0</ele><time>2026-03-29T08:50:57Z</time></trkpt><trkpt lat="42.01645628013603" lon="12.818513364779012"><ele>393.0</ele><time>2026-03-29T08:50:58Z</time></trkpt><trkpt lat="42.01638198083371" lon="12.818521344092837"><ele>395.3333333333333</ele><time>2026-03-29T08:50:59Z</time></trkpt><trkpt lat="42.01631321024403" lon="12.818519338611786"><ele>397.66666666666663</ele><time>2026-03-29T08:51:00Z</time></trkpt><trkpt lat="42.016254788327004" lon="12.818475566353179"><ele>400.0</ele><time>2026-03-29T08:51:01Z</time></trkpt><trkpt lat="42.016226789722566" lon="12.818363388612383"><ele>402.3333333333333</ele><time>2026-03-29T08:51:02Z</time></trkpt><trkpt lat="42.01625106753856" lon="12.818228702320813"><ele>404.66666666666663</ele><time>2026-03-29T08:51:03Z</time></trkpt><trkpt lat="42.016339803817765" lon="12.818114277354866"><ele>407.0</ele><time>2026-03-29T08:51:04Z</time></trkpt><trkpt lat="42.01638375522542" lon="12.817981213596077"><ele>407.0</ele><time>2026-03-29T08:51:05Z</time></trkpt><trkpt lat="42.01640560348625" lon="12.817846856556804"><ele>407.0</ele><time>2026-03-29T08:51:06Z</time></trkpt><trkpt lat="42.01641972687441" lon="12.817704677907109"><ele>407.0</ele><time>2026-03-29T08:51:07Z</time></trkpt><trkpt lat="42.01641287091023" lon="12.8175549709734"><ele>407.0</ele><time>2026-03-29T08:51:08Z</time></trkpt><trkpt lat="42.016388739246075" lon="12.81739444026375"><ele>407.0</ele><time>2026-03-29T08:51:09Z</time></trkpt><trkpt lat="42.01635723020776" lon="12.817180340123354"><ele>411.3333333333333</ele><time>2026-03-29T08:51:10Z</time></trkpt><trkpt lat="42.01626334369582" lon="12.81695485397552"><ele>415.66666666666663</ele><time>2026-03-29T08:51:11Z</time></trkpt><trkpt lat="42.01623530943515" lon="12.816717552247495"><ele>420.0</ele><time>2026-03-29T08:51:12Z</time></trkpt><trkpt lat="42.016205828282445" lon="12.816470671331288"><ele>421.0</ele><time>2026-03-29T08:51:13Z</time></trkpt><trkpt lat="42.01614664287949" lon="12.81621067766838"><ele>422.0</ele><time>2026-03-29T08:51:14Z</time></trkpt><trkpt lat="42.01609403590571" lon="12.815949438202152"><ele>423.0</ele><time>2026-03-29T08:51:15Z</time></trkpt><trkpt lat="42.0160339430614" lon="12.815739550137424"><ele>424.5</ele><time>2026-03-29T08:51:16Z</time></trkpt><trkpt lat="42.01597646123216" lon="12.815578927391803"><ele>426.0</ele><time>2026-03-29T08:51:17Z</time></trkpt><trkpt lat="42.01591285045111" lon="12.815461037056773"><ele>427.5</ele><time>2026-03-29T08:51:18Z</time></trkpt><trkpt lat="42.015820473875735" lon="12.815368368121304"><ele>429.0</ele><time>2026-03-29T08:51:19Z</time></trkpt><trkpt lat="42.01568671047121" lon="12.815308331690781"><ele>429.0</ele><time>2026-03-29T08:51:20Z</time></trkpt><trkpt lat="42.015548263674305" lon="12.8152156695702"><ele>429.0</ele><time>2026-03-29T08:51:21Z</time></trkpt><trkpt lat="42.01542962490798" lon="12.815069976793733"><ele>429.0</ele><time>2026-03-29T08:51:22Z</time></trkpt><trkpt lat="42.01529526084869" lon="12.814924576945518"><ele>428.66666666666663</ele><time>2026-03-29T08:51:23Z</time></trkpt><trkpt lat="42.01515158867541" lon="12.81479600074427"><ele>428.3333333333333</ele><time>2026-03-29T08:51:24Z</time></trkpt><trkpt lat="42.0150077264024" lon="12.814662862343136"><ele>428.0</ele><time>2026-03-29T08:51:24.999Z</time></trkpt><trkpt lat="42.01486553183077" lon="12.814529651080575"><ele>428.0</ele><time>2026-03-29T08:51:25.999Z</time></trkpt><trkpt lat="42.01472025297352" lon="12.814399593736322"><ele>428.0</ele><time>2026-03-29T08:51:26.999Z</time></trkpt><trkpt lat="42.01455897078572" lon="12.814278148303105"><ele>428.0</ele><time>2026-03-29T08:51:27.999Z</time></trkpt><trkpt lat="42.01437785488041" lon="12.814172271089967"><ele>427.0</ele><time>2026-03-29T08:51:28.999Z</time></trkpt><trkpt lat="42.01420384759043" lon="12.814088874980042"><ele>426.0</ele><time>2026-03-29T08:51:29.999Z</time></trkpt><trkpt lat="42.0140530472317" lon="12.814005389549402"><ele>425.0</ele><time>2026-03-29T08:51:30.999Z</time></trkpt><trkpt lat="42.01390771348426" lon="12.813919186940247"><ele>425.0</ele><time>2026-03-29T08:51:31.999Z</time></trkpt><trkpt lat="42.013764217364624" lon="12.813828290193918"><ele>425.0</ele><time>2026-03-29T08:51:32.999Z</time></trkpt><trkpt lat="42.013621679225416" lon="12.813735433076928"><ele>425.0</ele><time>2026-03-29T08:51:33.999Z</time></trkpt><trkpt lat="42.01347187092637" lon="12.813658403289349"><ele>424.0</ele><time>2026-03-29T08:51:34.999Z</time></trkpt><trkpt lat="42.01331845215222" lon="12.813610563659857"><ele>423.0</ele><time>2026-03-29T08:51:35.999Z</time></trkpt><trkpt lat="42.01318738347018" lon="12.813589503156589"><ele>422.0</ele><time>2026-03-29T08:51:36.999Z</time></trkpt><trkpt lat="42.013077050164455" lon="12.813594635028286"><ele>421.0</ele><time>2026-03-29T08:51:37.999Z</time></trkpt><trkpt lat="42.012965454414285" lon="12.813648637295126"><ele>421.0</ele><time>2026-03-29T08:51:38.999Z</time></trkpt><trkpt lat="42.01284515452875" lon="12.813777064714714"><ele>421.0</ele><time>2026-03-29T08:51:39.999Z</time></trkpt><trkpt lat="42.012718842783855" lon="12.81394302367084"><ele>421.0</ele><time>2026-03-29T08:51:40.999Z</time></trkpt><trkpt lat="42.01259211594674" lon="12.814108084107875"><ele>422.0</ele><time>2026-03-29T08:51:41.999Z</time></trkpt><trkpt lat="42.01246656177248" lon="12.814263839066143"><ele>423.0</ele><time>2026-03-29T08:51:42.999Z</time></trkpt><trkpt lat="42.01234902379435" lon="12.814405397933404"><ele>424.0</ele><time>2026-03-29T08:51:43.999Z</time></trkpt><trkpt lat="42.01222281248702" lon="12.814517120548139"><ele>424.0</ele><time>2026-03-29T08:51:44.999Z</time></trkpt><trkpt lat="42.01209022660838" lon="12.814572103326753"><ele>424.0</ele><time>2026-03-29T08:51:45.999Z</time></trkpt><trkpt lat="42.01195000386071" lon="12.814544794810546"><ele>424.0</ele><time>2026-03-29T08:51:46.999Z</time></trkpt><trkpt lat="42.01182512207799" lon="12.814462136174166"><ele>424.0</ele><time>2026-03-29T08:51:47.999Z</time></trkpt><trkpt lat="42.01171735686243" lon="12.814317710465184"><ele>424.6666666666667</ele><time>2026-03-29T08:51:48.999Z</time></trkpt><trkpt lat="42.01162262439879" lon="12.814118870458007"><ele>425.33333333333337</ele><time>2026-03-29T08:51:49.999Z</time></trkpt><trkpt lat="42.01156298413133" lon="12.813895169643521"><ele>426.0</ele><time>2026-03-29T08:51:50.999Z</time></trkpt><trkpt lat="42.01151595123296" lon="12.813709281400262"><ele>426.0</ele><time>2026-03-29T08:51:51.999Z</time></trkpt><trkpt lat="42.01147819470651" lon="12.813560563104721"><ele>426.0</ele><time>2026-03-29T08:51:52.999Z</time></trkpt><trkpt lat="42.01139440344525" lon="12.813463019548966"><ele>426.0</ele><time>2026-03-29T08:51:53.999Z</time></trkpt><trkpt lat="42.0112741899171" lon="12.813396776631762"><ele>426.0</ele><time>2026-03-29T08:51:54.999Z</time></trkpt><trkpt lat="42.011154508375725" lon="12.813402202707103"><ele>426.0</ele><time>2026-03-29T08:51:55.999Z</time></trkpt><trkpt lat="42.01105533351876" lon="12.813475551576952"><ele>426.0</ele><time>2026-03-29T08:51:56.999Z</time></trkpt><trkpt lat="42.01097369387821" lon="12.813608580016222"><ele>426.0</ele><time>2026-03-29T08:51:57.999Z</time></trkpt><trkpt lat="42.01091061641291" lon="12.813797190893439"><ele>426.0</ele><time>2026-03-29T08:51:58.999Z</time></trkpt><trkpt lat="42.010869054883266" lon="12.81401959371985"><ele>426.0</ele><time>2026-03-29T08:51:59.999Z</time></trkpt><trkpt lat="42.01084930966368" lon="12.814249419689343"><ele>426.0</ele><time>2026-03-29T08:52:00.999Z</time></trkpt><trkpt lat="42.01084854733938" lon="12.81446500190865"><ele>426.0</ele><time>2026-03-29T08:52:01.999Z</time></trkpt><trkpt lat="42.01086665830321" lon="12.814674773113245"><ele>426.25</ele><time>2026-03-29T08:52:02.999Z</time></trkpt><trkpt lat="42.01090899113239" lon="12.814856070089087"><ele>426.5</ele><time>2026-03-29T08:52:03.999Z</time></trkpt><trkpt lat="42.01097074065248" lon="12.814997986081496"><ele>426.75</ele><time>2026-03-29T08:52:04.999Z</time></trkpt><trkpt lat="42.011060067765136" lon="12.815119956611223"><ele>427.0</ele><time>2026-03-29T08:52:05.999Z</time></trkpt><trkpt lat="42.01118613157983" lon="12.81520374201914"><ele>426.33333333333337</ele><time>2026-03-29T08:52:06.999Z</time></trkpt><trkpt lat="42.01131907285901" lon="12.815312219887492"><ele>425.66666666666663</ele><time>2026-03-29T08:52:07.999Z</time></trkpt><trkpt lat="42.01142351809158" lon="12.815444763706807"><ele>425.0</ele><time>2026-03-29T08:52:08.999Z</time></trkpt><trkpt lat="42.01153082979422" lon="12.81558962142077"><ele>425.0</ele><time>2026-03-29T08:52:09.999Z</time></trkpt><trkpt lat="42.01159082944733" lon="12.81579465447332"><ele>425.0</ele><time>2026-03-29T08:52:10.999Z</time></trkpt><trkpt lat="42.01165341906254" lon="12.81598976461424"><ele>425.0</ele><time>2026-03-29T08:52:11.999Z</time></trkpt><trkpt lat="42.01171057376835" lon="12.816157415856184"><ele>426.2</ele><time>2026-03-29T08:52:12.999Z</time></trkpt><trkpt lat="42.01173880075943" lon="12.816306884501422"><ele>427.4</ele><time>2026-03-29T08:52:13.999Z</time></trkpt><trkpt lat="42.01173334154179" lon="12.81644185446126"><ele>428.6</ele><time>2026-03-29T08:52:14.999Z</time></trkpt><trkpt lat="42.01173140276486" lon="12.816577218735546"><ele>429.8</ele><time>2026-03-29T08:52:15.999Z</time></trkpt><trkpt lat="42.01168064175474" lon="12.816692284599618"><ele>431.0</ele><time>2026-03-29T08:52:16.999Z</time></trkpt><trkpt lat="42.01161758062506" lon="12.816773405159655"><ele>433.4</ele><time>2026-03-29T08:52:17.999Z</time></trkpt><trkpt lat="42.011555984945346" lon="12.816821411790212"><ele>435.8</ele><time>2026-03-29T08:52:18.999Z</time></trkpt><trkpt lat="42.011478897137316" lon="12.816875506734249"><ele>438.19999999999993</ele><time>2026-03-29T08:52:19.999Z</time></trkpt><trkpt lat="42.0113877001059" lon="12.81693515002141"><ele>440.59999999999997</ele><time>2026-03-29T08:52:20.999Z</time></trkpt><trkpt lat="42.01129037920767" lon="12.817029915874091"><ele>443.0</ele><time>2026-03-29T08:52:21.999Z</time></trkpt><trkpt lat="42.01119085839231" lon="12.817168243729283"><ele>443.0</ele><time>2026-03-29T08:52:22.999Z</time></trkpt><trkpt lat="42.011090308012804" lon="12.817343408220998"><ele>443.0</ele><time>2026-03-29T08:52:23.999Z</time></trkpt><trkpt lat="42.01098805578328" lon="12.817499919483629"><ele>443.0</ele><time>2026-03-29T08:52:24.999Z</time></trkpt><trkpt lat="42.010883507260864" lon="12.817634939347736"><ele>449.0</ele><time>2026-03-29T08:52:25.998Z</time></trkpt><trkpt lat="42.01075472405988" lon="12.817728259597793"><ele>455.0</ele><time>2026-03-29T08:52:26.998Z</time></trkpt><trkpt lat="42.010605039048464" lon="12.81777880919084"><ele>461.0</ele><time>2026-03-29T08:52:27.998Z</time></trkpt><trkpt lat="42.01043400005732" lon="12.81780101512507"><ele>461.0</ele><time>2026-03-29T08:52:28.998Z</time></trkpt><trkpt lat="42.01023747580682" lon="12.817802162178307"><ele>461.0</ele><time>2026-03-29T08:52:29.998Z</time></trkpt><trkpt lat="42.0100334818412" lon="12.817792851120341"><ele>461.0</ele><time>2026-03-29T08:52:30.998Z</time></trkpt><trkpt lat="42.00985625281673" lon="12.81777203465639"><ele>457.25</ele><time>2026-03-29T08:52:31.998Z</time></trkpt><trkpt lat="42.009708929308914" lon="12.817741385939897"><ele>453.5</ele><time>2026-03-29T08:52:32.998Z</time></trkpt><trkpt lat="42.009602172674036" lon="12.817719056097808"><ele>449.75</ele><time>2026-03-29T08:52:33.998Z</time></trkpt><trkpt lat="42.00951140285136" lon="12.817731321535023"><ele>446.0</ele><time>2026-03-29T08:52:34.998Z</time></trkpt><trkpt lat="42.00941380028052" lon="12.817812158627083"><ele>446.0</ele><time>2026-03-29T08:52:35.998Z</time></trkpt><trkpt lat="42.009330166865084" lon="12.8179642417121"><ele>446.0</ele><time>2026-03-29T08:52:36.998Z</time></trkpt><trkpt lat="42.009284968396415" lon="12.81816137299986"><ele>446.0</ele><time>2026-03-29T08:52:37.998Z</time></trkpt><trkpt lat="42.00927347872101" lon="12.818373592858144"><ele>446.66666666666663</ele><time>2026-03-29T08:52:38.998Z</time></trkpt><trkpt lat="42.00928002397508" lon="12.818588868898601"><ele>447.33333333333337</ele><time>2026-03-29T08:52:39.998Z</time></trkpt><trkpt lat="42.00932137071016" lon="12.818809190730649"><ele>448.0</ele><time>2026-03-29T08:52:40.998Z</time></trkpt><trkpt lat="42.009339959849406" lon="12.819027136640603"><ele>448.0</ele><time>2026-03-29T08:52:41.998Z</time></trkpt><trkpt lat="42.00930156835096" lon="12.81922301909533"><ele>448.0</ele><time>2026-03-29T08:52:42.998Z</time></trkpt><trkpt lat="42.009258559398496" lon="12.819403809288286"><ele>448.0</ele><time>2026-03-29T08:52:43.998Z</time></trkpt><trkpt lat="42.00928236900719" lon="12.819550419855029"><ele>448.0</ele><time>2026-03-29T08:52:44.998Z</time></trkpt><trkpt lat="42.00937477084354" lon="12.819670492838261"><ele>448.4</ele><time>2026-03-29T08:52:45.998Z</time></trkpt><trkpt lat="42.00948898378229" lon="12.81978177199346"><ele>448.79999999999995</ele><time>2026-03-29T08:52:46.998Z</time></trkpt><trkpt lat="42.009605374167165" lon="12.819850032481124"><ele>449.2</ele><time>2026-03-29T08:52:47.998Z</time></trkpt><trkpt lat="42.009657564068476" lon="12.819936381790985"><ele>449.6</ele><time>2026-03-29T08:52:48.998Z</time></trkpt><trkpt lat="42.00969907790966" lon="12.820004148651295"><ele>450.0</ele><time>2026-03-29T08:52:49.998Z</time></trkpt><trkpt lat="42.00974583987395" lon="12.820094248590372"><ele>451.6</ele><time>2026-03-29T08:52:51Z</time></trkpt><trkpt lat="42.009755778390016" lon="12.820239786816725"><ele>453.2</ele><time>2026-03-29T08:52:52Z</time></trkpt><trkpt lat="42.00973417008554" lon="12.820375492084462"><ele>454.79999999999995</ele><time>2026-03-29T08:52:53Z</time></trkpt><trkpt lat="42.00968513006479" lon="12.820480191046412"><ele>456.4</ele><time>2026-03-29T08:52:54Z</time></trkpt><trkpt lat="42.00962079069998" lon="12.820569411379731"><ele>458.0</ele><time>2026-03-29T08:52:55Z</time></trkpt><trkpt lat="42.00951948173417" lon="12.820693019306331"><ele>458.0</ele><time>2026-03-29T08:52:56Z</time></trkpt><trkpt lat="42.00939233666397" lon="12.820845447971868"><ele>458.0</ele><time>2026-03-29T08:52:57Z</time></trkpt><trkpt lat="42.00926219627854" lon="12.821013039025818"><ele>458.0</ele><time>2026-03-29T08:52:58Z</time></trkpt><trkpt lat="42.00913173247321" lon="12.821201903443757"><ele>458.3333333333333</ele><time>2026-03-29T08:52:59Z</time></trkpt><trkpt lat="42.00902266135827" lon="12.821383540079411"><ele>458.66666666666663</ele><time>2026-03-29T08:53:00Z</time></trkpt><trkpt lat="42.00892113974767" lon="12.821547692070238"><ele>459.0</ele><time>2026-03-29T08:53:01Z</time></trkpt><trkpt lat="42.00880393290107" lon="12.82167317037983"><ele>459.0</ele><time>2026-03-29T08:53:02Z</time></trkpt><trkpt lat="42.00867168007442" lon="12.821753447539258"><ele>459.0</ele><time>2026-03-29T08:53:03Z</time></trkpt><trkpt lat="42.008562137610646" lon="12.82184748080656"><ele>459.0</ele><time>2026-03-29T08:53:04Z</time></trkpt><trkpt lat="42.008497701024716" lon="12.821997031560095"><ele>459.0</ele><time>2026-03-29T08:53:05Z</time></trkpt><trkpt lat="42.008478318879824" lon="12.822193133542369"><ele>459.0</ele><time>2026-03-29T08:53:06Z</time></trkpt><trkpt lat="42.00851483201633" lon="12.822398096975025"><ele>459.0</ele><time>2026-03-29T08:53:07Z</time></trkpt><trkpt lat="42.00858485549533" lon="12.822605572900702"><ele>459.0</ele><time>2026-03-29T08:53:08Z</time></trkpt><trkpt lat="42.00868661290599" lon="12.822816951635433"><ele>459.0</ele><time>2026-03-29T08:53:09Z</time></trkpt><trkpt lat="42.008804993009406" lon="12.823004891357858"><ele>459.0</ele><time>2026-03-29T08:53:10Z</time></trkpt><trkpt lat="42.008947236422564" lon="12.82316571717361"><ele>459.0</ele><time>2026-03-29T08:53:11Z</time></trkpt><trkpt lat="42.00909919570012" lon="12.823294863642413"><ele>459.33333333333337</ele><time>2026-03-29T08:53:12Z</time></trkpt><trkpt lat="42.0092653833949" lon="12.823387286508934"><ele>459.6666666666667</ele><time>2026-03-29T08:53:13Z</time></trkpt><trkpt lat="42.00946689749182" lon="12.823445535588899"><ele>460.0</ele><time>2026-03-29T08:53:14Z</time></trkpt><trkpt lat="42.00966829360853" lon="12.823496393922516"><ele>460.0</ele><time>2026-03-29T08:53:15Z</time></trkpt><trkpt lat="42.00986413972713" lon="12.823544280088738"><ele>460.0</ele><time>2026-03-29T08:53:16Z</time></trkpt><trkpt lat="42.01006397754703" lon="12.823594131272676"><ele>460.0</ele><time>2026-03-29T08:53:17Z</time></trkpt><trkpt lat="42.01026204494027" lon="12.823654445314936"><ele>461.6666666666667</ele><time>2026-03-29T08:53:18Z</time></trkpt><trkpt lat="42.0104509043752" lon="12.823703365423604"><ele>463.33333333333337</ele><time>2026-03-29T08:53:19Z</time></trkpt><trkpt lat="42.01063034229889" lon="12.823753219454122"><ele>465.0</ele><time>2026-03-29T08:53:20Z</time></trkpt><trkpt lat="42.01080282746445" lon="12.823800138784508"><ele>468.33333333333337</ele><time>2026-03-29T08:53:21Z</time></trkpt><trkpt lat="42.01097248485108" lon="12.823868155014829"><ele>471.6666666666667</ele><time>2026-03-29T08:53:22Z</time></trkpt><trkpt lat="42.011150212864266" lon="12.823896461380864"><ele>475.0</ele><time>2026-03-29T08:53:23Z</time></trkpt><trkpt lat="42.01132317154791" lon="12.823953080680868"><ele>475.0</ele><time>2026-03-29T08:53:24Z</time></trkpt><trkpt lat="42.011498227689174" lon="12.824005903789168"><ele>475.0</ele><time>2026-03-29T08:53:25Z</time></trkpt><trkpt lat="42.011671274924595" lon="12.824053984579953"><ele>475.0</ele><time>2026-03-29T08:53:26Z</time></trkpt><trkpt lat="42.01185325698444" lon="12.824092553485409"><ele>478.6666666666667</ele><time>2026-03-29T08:53:26.999Z</time></trkpt><trkpt lat="42.01204502451236" lon="12.824125613616514"><ele>482.33333333333337</ele><time>2026-03-29T08:53:27.999Z</time></trkpt><trkpt lat="42.012221165573266" lon="12.82414226628386"><ele>486.0</ele><time>2026-03-29T08:53:28.999Z</time></trkpt><trkpt lat="42.0123740565996" lon="12.824146710425948"><ele>488.66666666666663</ele><time>2026-03-29T08:53:29.999Z</time></trkpt><trkpt lat="42.01253131028813" lon="12.824146426447838"><ele>491.3333333333333</ele><time>2026-03-29T08:53:30.999Z</time></trkpt><trkpt lat="42.01267933829786" lon="12.824131217200474"><ele>494.0</ele><time>2026-03-29T08:53:31.999Z</time></trkpt><trkpt lat="42.012835702016716" lon="12.824055771494628"><ele>494.0</ele><time>2026-03-29T08:53:32.999Z</time></trkpt><trkpt lat="42.01299292280585" lon="12.823936590786086"><ele>494.0</ele><time>2026-03-29T08:53:33.999Z</time></trkpt><trkpt lat="42.01314216877014" lon="12.823873464828727"><ele>494.0</ele><time>2026-03-29T08:53:34.999Z</time></trkpt><trkpt lat="42.01325728573682" lon="12.823835488053454"><ele>495.5</ele><time>2026-03-29T08:53:35.999Z</time></trkpt><trkpt lat="42.01336076791275" lon="12.823822236943382"><ele>497.0</ele><time>2026-03-29T08:53:36.999Z</time></trkpt><trkpt lat="42.01345419156301" lon="12.823911723561954"><ele>498.5</ele><time>2026-03-29T08:53:37.999Z</time></trkpt><trkpt lat="42.01351787610221" lon="12.824043412433149"><ele>500.0</ele><time>2026-03-29T08:53:38.999Z</time></trkpt><trkpt lat="42.01356997949416" lon="12.824194957656399"><ele>502.25</ele><time>2026-03-29T08:53:39.999Z</time></trkpt><trkpt lat="42.013564963647724" lon="12.82438819068735"><ele>504.5</ele><time>2026-03-29T08:53:40.999Z</time></trkpt><trkpt lat="42.01356697391636" lon="12.824562816370648"><ele>506.75</ele><time>2026-03-29T08:53:41.999Z</time></trkpt><trkpt lat="42.013620888336916" lon="12.82470006946"><ele>509.0</ele><time>2026-03-29T08:53:42.999Z</time></trkpt><trkpt lat="42.01371110154083" lon="12.824793800389097"><ele>509.0</ele><time>2026-03-29T08:53:43.999Z</time></trkpt><trkpt lat="42.013835423792735" lon="12.824829944432413"><ele>509.0</ele><time>2026-03-29T08:53:44.999Z</time></trkpt><trkpt lat="42.01398298339409" lon="12.824801749594483"><ele>509.0</ele><time>2026-03-29T08:53:45.999Z</time></trkpt><trkpt lat="42.01411842014427" lon="12.824767140376633"><ele>509.0</ele><time>2026-03-29T08:53:46.999Z</time></trkpt><trkpt lat="42.0142043575131" lon="12.824727376811133"><ele>509.79999999999995</ele><time>2026-03-29T08:53:47.999Z</time></trkpt><trkpt lat="42.01431286459939" lon="12.824720716560698"><ele>510.59999999999997</ele><time>2026-03-29T08:53:49.999Z</time></trkpt><trkpt lat="42.01436376142062" lon="12.824778414853958"><ele>511.4</ele><time>2026-03-29T08:53:50.999Z</time></trkpt><trkpt lat="42.01436693198321" lon="12.824913844453025"><ele>512.1999999999999</ele><time>2026-03-29T08:53:51.999Z</time></trkpt><trkpt lat="42.014301849670346" lon="12.825038242094683"><ele>513.0</ele><time>2026-03-29T08:53:52.999Z</time></trkpt><trkpt lat="42.01419994074844" lon="12.82513498571378"><ele>513.5</ele><time>2026-03-29T08:53:53.999Z</time></trkpt><trkpt lat="42.014088406289986" lon="12.825200619095073"><ele>514.0</ele><time>2026-03-29T08:53:54.999Z</time></trkpt><trkpt lat="42.013979646623866" lon="12.825217974789417"><ele>514.5</ele><time>2026-03-29T08:53:55.999Z</time></trkpt><trkpt lat="42.01386948425261" lon="12.825158292773377"><ele>515.0</ele><time>2026-03-29T08:53:56.999Z</time></trkpt><trkpt lat="42.01374985232426" lon="12.825073919270421"><ele>513.8</ele><time>2026-03-29T08:53:57.999Z</time></trkpt><trkpt lat="42.01361978018292" lon="12.82500858819855"><ele>512.6</ele><time>2026-03-29T08:53:58.999Z</time></trkpt><trkpt lat="42.013496943101764" lon="12.824976974056778"><ele>511.4</ele><time>2026-03-29T08:53:59.999Z</time></trkpt><trkpt lat="42.01339399852717" lon="12.824981497178863"><ele>510.2</ele><time>2026-03-29T08:54:00.999Z</time></trkpt><trkpt lat="42.013319639130934" lon="12.825025164800822"><ele>509.0</ele><time>2026-03-29T08:54:01.999Z</time></trkpt><trkpt lat="42.013263598831564" lon="12.825125995100342"><ele>507.5</ele><time>2026-03-29T08:54:02.999Z</time></trkpt><trkpt lat="42.01324372559978" lon="12.825271846571221"><ele>506.0</ele><time>2026-03-29T08:54:03.999Z</time></trkpt><trkpt lat="42.01325877619068" lon="12.8254556497239"><ele>504.5</ele><time>2026-03-29T08:54:04.999Z</time></trkpt><trkpt lat="42.01324762709158" lon="12.825674147825875"><ele>503.0</ele><time>2026-03-29T08:54:05.999Z</time></trkpt><trkpt lat="42.013253813414714" lon="12.825946596656335"><ele>507.0</ele><time>2026-03-29T08:54:06.999Z</time></trkpt><trkpt lat="42.013253024205014" lon="12.826239735031539"><ele>511.0</ele><time>2026-03-29T08:54:07.999Z</time></trkpt><trkpt lat="42.013264838608386" lon="12.826508186679364"><ele>515.0</ele><time>2026-03-29T08:54:08.999Z</time></trkpt><trkpt lat="42.01324943219885" lon="12.826722742134681"><ele>517.25</ele><time>2026-03-29T08:54:09.999Z</time></trkpt><trkpt lat="42.0132501357032" lon="12.826884155587301"><ele>519.5</ele><time>2026-03-29T08:54:10.999Z</time></trkpt><trkpt lat="42.01322521747209" lon="12.827054654880879"><ele>521.75</ele><time>2026-03-29T08:54:11.999Z</time></trkpt><trkpt lat="42.013173361638295" lon="12.827166510154658"><ele>524.0</ele><time>2026-03-29T08:54:12.999Z</time></trkpt><trkpt lat="42.013056244264654" lon="12.82719748692401"><ele>524.0</ele><time>2026-03-29T08:54:13.999Z</time></trkpt><trkpt lat="42.01292575769945" lon="12.827183069055925"><ele>524.0</ele><time>2026-03-29T08:54:14.999Z</time></trkpt><trkpt lat="42.01275743770294" lon="12.827173696130455"><ele>524.0</ele><time>2026-03-29T08:54:15.999Z</time></trkpt><trkpt lat="42.012610306826616" lon="12.827207252524016"><ele>524.0</ele><time>2026-03-29T08:54:16.999Z</time></trkpt><trkpt lat="42.01248457874617" lon="12.827268126278476"><ele>524.0</ele><time>2026-03-29T08:54:17.999Z</time></trkpt><trkpt lat="42.01241156359798" lon="12.827360994241568"><ele>524.0</ele><time>2026-03-29T08:54:18.999Z</time></trkpt><trkpt lat="42.01238785583473" lon="12.82751127977985"><ele>524.0</ele><time>2026-03-29T08:54:19.999Z</time></trkpt><trkpt lat="42.01245438999231" lon="12.827664604078096"><ele>524.0</ele><time>2026-03-29T08:54:20.999Z</time></trkpt><trkpt lat="42.01254902895254" lon="12.82777034815264"><ele>524.0</ele><time>2026-03-29T08:54:21.999Z</time></trkpt><trkpt lat="42.012673629893804" lon="12.82782064543782"><ele>524.0</ele><time>2026-03-29T08:54:22.999Z</time></trkpt><trkpt lat="42.01282133262849" lon="12.827771052343934"><ele>524.0</ele><time>2026-03-29T08:54:23.999Z</time></trkpt><trkpt lat="42.01297821313055" lon="12.82767678436771"><ele>524.0</ele><time>2026-03-29T08:54:24.999Z</time></trkpt><trkpt lat="42.01312988691411" lon="12.82755229534138"><ele>524.0</ele><time>2026-03-29T08:54:25.999Z</time></trkpt><trkpt lat="42.01328806644" lon="12.827404077755224"><ele>524.0</ele><time>2026-03-29T08:54:26.999Z</time></trkpt><trkpt lat="42.013451695531586" lon="12.827249371913751"><ele>526.5</ele><time>2026-03-29T08:54:27.998Z</time></trkpt><trkpt lat="42.01360515658566" lon="12.827135159063642"><ele>529.0</ele><time>2026-03-29T08:54:28.998Z</time></trkpt><trkpt lat="42.01372465110025" lon="12.827030559278354"><ele>531.5</ele><time>2026-03-29T08:54:29.998Z</time></trkpt><trkpt lat="42.01384430246672" lon="12.826960778929205"><ele>534.0</ele><time>2026-03-29T08:54:30.998Z</time></trkpt><trkpt lat="42.01397188676012" lon="12.82694736345122"><ele>534.0</ele><time>2026-03-29T08:54:31.998Z</time></trkpt><trkpt lat="42.014073896156134" lon="12.826901646599884"><ele>534.0</ele><time>2026-03-29T08:54:32.998Z</time></trkpt><trkpt lat="42.014171291417625" lon="12.826799018357432"><ele>534.0</ele><time>2026-03-29T08:54:33.998Z</time></trkpt><trkpt lat="42.01429395138073" lon="12.826653541320374"><ele>534.0</ele><time>2026-03-29T08:54:34.998Z</time></trkpt><trkpt lat="42.0144299564416" lon="12.826481160794025"><ele>536.3333333333334</ele><time>2026-03-29T08:54:35.998Z</time></trkpt><trkpt lat="42.014610803755744" lon="12.826353967139555"><ele>538.6666666666667</ele><time>2026-03-29T08:54:36.998Z</time></trkpt><trkpt lat="42.01480349596286" lon="12.82621297276717"><ele>541.0</ele><time>2026-03-29T08:54:37.998Z</time></trkpt><trkpt lat="42.01497187958635" lon="12.826108574561257"><ele>540.75</ele><time>2026-03-29T08:54:38.998Z</time></trkpt><trkpt lat="42.01512003747917" lon="12.826062361347509"><ele>540.5</ele><time>2026-03-29T08:54:39.998Z</time></trkpt><trkpt lat="42.01525295897417" lon="12.826013780872893"><ele>540.25</ele><time>2026-03-29T08:54:40.998Z</time></trkpt><trkpt lat="42.01538338452549" lon="12.825928093282467"><ele>540.0</ele><time>2026-03-29T08:54:41.998Z</time></trkpt><trkpt lat="42.01549544614665" lon="12.825818731535064"><ele>540.0</ele><time>2026-03-29T08:54:42.998Z</time></trkpt><trkpt lat="42.01556053674904" lon="12.825681210085255"><ele>540.0</ele><time>2026-03-29T08:54:43.998Z</time></trkpt><trkpt lat="42.01560505016106" lon="12.825595679231672"><ele>540.0</ele><time>2026-03-29T08:54:44.998Z</time></trkpt><trkpt lat="42.015657529931744" lon="12.825547647323381"><ele>540.0</ele><time>2026-03-29T08:54:45.998Z</time></trkpt><trkpt lat="42.015756170055276" lon="12.825686067343586"><ele>540.0</ele><time>2026-03-29T08:54:47.998Z</time></trkpt><trkpt lat="42.01575947649724" lon="12.825821657679493"><ele>540.0</ele><time>2026-03-29T08:54:48.998Z</time></trkpt><trkpt lat="42.01564692585416" lon="12.82593371667583"><ele>540.0</ele><time>2026-03-29T08:54:49.998Z</time></trkpt><trkpt lat="42.015531399049046" lon="12.826031805288407"><ele>540.0</ele><time>2026-03-29T08:54:50.998Z</time></trkpt><trkpt lat="42.015377859954825" lon="12.826107970476079"><ele>540.0</ele><time>2026-03-29T08:54:51.998Z</time></trkpt><trkpt lat="42.015224337717584" lon="12.826187175415523"><ele>540.3333333333334</ele><time>2026-03-29T08:54:52.998Z</time></trkpt><trkpt lat="42.01507464120046" lon="12.8263012336965"><ele>540.6666666666667</ele><time>2026-03-29T08:54:53.998Z</time></trkpt><trkpt lat="42.014921932243844" lon="12.826459663906395"><ele>541.0</ele><time>2026-03-29T08:54:54.998Z</time></trkpt><trkpt lat="42.01477877888908" lon="12.826665547449577"><ele>545.6666666666667</ele><time>2026-03-29T08:54:55.998Z</time></trkpt><trkpt lat="42.014646595672446" lon="12.826868350370201"><ele>550.3333333333334</ele><time>2026-03-29T08:54:57Z</time></trkpt><trkpt lat="42.014529828641734" lon="12.827083386366427"><ele>555.0</ele><time>2026-03-29T08:54:58Z</time></trkpt><trkpt lat="42.014423915186214" lon="12.82730267205732"><ele>555.0</ele><time>2026-03-29T08:54:59Z</time></trkpt><trkpt lat="42.014323616549035" lon="12.827513015819639"><ele>555.0</ele><time>2026-03-29T08:55:00Z</time></trkpt><trkpt lat="42.01422887586612" lon="12.827725423415659"><ele>555.0</ele><time>2026-03-29T08:55:01Z</time></trkpt><trkpt lat="42.01415238025324" lon="12.827969786367227"><ele>555.0</ele><time>2026-03-29T08:55:02Z</time></trkpt><trkpt lat="42.01409558121375" lon="12.82822611703687"><ele>555.0</ele><time>2026-03-29T08:55:03Z</time></trkpt><trkpt lat="42.01406047318556" lon="12.828452715727368"><ele>555.0</ele><time>2026-03-29T08:55:04Z</time></trkpt><trkpt lat="42.01402254038235" lon="12.828684898898752"><ele>555.0</ele><time>2026-03-29T08:55:05Z</time></trkpt><trkpt lat="42.013918941103114" lon="12.828877099757364"><ele>555.0</ele><time>2026-03-29T08:55:06Z</time></trkpt><trkpt lat="42.01379143781318" lon="12.82904719555443"><ele>555.0</ele><time>2026-03-29T08:55:07Z</time></trkpt><trkpt lat="42.013686213637996" lon="12.829238571848213"><ele>557.2</ele><time>2026-03-29T08:55:08Z</time></trkpt><trkpt lat="42.01359001216398" lon="12.829371249840456"><ele>559.4</ele><time>2026-03-29T08:55:09Z</time></trkpt><trkpt lat="42.0135345431174" lon="12.82947883817842"><ele>561.6</ele><time>2026-03-29T08:55:10Z</time></trkpt><trkpt lat="42.013490475908945" lon="12.829600685272073"><ele>563.8</ele><time>2026-03-29T08:55:12Z</time></trkpt><trkpt lat="42.01344979912093" lon="12.829673438886488"><ele>566.0</ele><time>2026-03-29T08:55:14Z</time></trkpt><trkpt lat="42.01338181599685" lon="12.82969889675499"><ele>566.0</ele><time>2026-03-29T08:55:17Z</time></trkpt><trkpt lat="42.01331845014187" lon="12.829660047231396"><ele>566.0</ele><time>2026-03-29T08:55:20Z</time></trkpt><trkpt lat="42.01328724962979" lon="12.829763738839583"><ele>566.0</ele><time>2026-03-29T08:55:21Z</time></trkpt><trkpt lat="42.01338675303277" lon="12.829817812600949"><ele>566.0</ele><time>2026-03-29T08:58:15.999Z</time></trkpt><trkpt lat="42.013331109766845" lon="12.829666592921985"><ele>566.0</ele><time>2026-03-29T08:58:17.999Z</time></trkpt><trkpt lat="42.01328880407462" lon="12.829863105371551"><ele>567.6666666666666</ele><time>2026-03-29T09:05:42Z</time></trkpt><trkpt lat="42.01327441060635" lon="12.82996152175223"><ele>569.3333333333333</ele><time>2026-03-29T09:05:45Z</time></trkpt><trkpt lat="42.01329496669453" lon="12.830067493605794"><ele>571.0</ele><time>2026-03-29T09:05:48Z</time></trkpt><trkpt lat="42.0133224306211" lon="12.830166693049534"><ele>572.6666666666666</ele><time>2026-03-29T09:05:57Z</time></trkpt><trkpt lat="42.013356240776154" lon="12.83029486835146"><ele>574.3333333333334</ele><time>2026-03-29T09:05:59.999Z</time></trkpt><trkpt lat="42.013358117295844" lon="12.830383105212896"><ele>576.0</ele><time>2026-03-29T09:06:00.999Z</time></trkpt><trkpt lat="42.01336075197422" lon="12.830475462888874"><ele>576.0</ele><time>2026-03-29T09:06:01.999Z</time></trkpt><trkpt lat="42.013366002913344" lon="12.830565335866856"><ele>576.0</ele><time>2026-03-29T09:06:02.999Z</time></trkpt><trkpt lat="42.01336966258778" lon="12.8306653999443"><ele>576.0</ele><time>2026-03-29T09:06:03.999Z</time></trkpt><trkpt lat="42.01336959563104" lon="12.830767628348582"><ele>576.0</ele><time>2026-03-29T09:06:04.999Z</time></trkpt><trkpt lat="42.013370866171634" lon="12.830872469994542"><ele>576.0</ele><time>2026-03-29T09:06:05.999Z</time></trkpt><trkpt lat="42.01337405689903" lon="12.830977107880921"><ele>576.0</ele><time>2026-03-29T09:06:06.999Z</time></trkpt><trkpt lat="42.01335792560714" lon="12.831080501875604"><ele>573.6</ele><time>2026-03-29T09:06:07.999Z</time></trkpt><trkpt lat="42.01335528608647" lon="12.831196969427074"><ele>571.2</ele><time>2026-03-29T09:06:08.999Z</time></trkpt><trkpt lat="42.01334323939226" lon="12.831327930638865"><ele>568.8</ele><time>2026-03-29T09:06:09.999Z</time></trkpt><trkpt lat="42.013314747570206" lon="12.831453728470933"><ele>566.4</ele><time>2026-03-29T09:06:10.999Z</time></trkpt><trkpt lat="42.01325984653327" lon="12.831561396940888"><ele>564.0</ele><time>2026-03-29T09:06:11.999Z</time></trkpt><trkpt lat="42.01317987969255" lon="12.831659378647318"><ele>564.0</ele><time>2026-03-29T09:06:12.999Z</time></trkpt><trkpt lat="42.01308482936887" lon="12.831717368907041"><ele>564.0</ele><time>2026-03-29T09:06:13.999Z</time></trkpt><trkpt lat="42.01300170714207" lon="12.831775697918768"><ele>564.0</ele><time>2026-03-29T09:06:14.999Z</time></trkpt><trkpt lat="42.01291760925604" lon="12.83183849066324"><ele>564.0</ele><time>2026-03-29T09:06:15.999Z</time></trkpt><trkpt lat="42.01284063716017" lon="12.831917849155316"><ele>564.0</ele><time>2026-03-29T09:06:16.999Z</time></trkpt><trkpt lat="42.01278032074518" lon="12.832033445923901"><ele>567.0</ele><time>2026-03-29T09:06:17.999Z</time></trkpt><trkpt lat="42.01272838998087" lon="12.832163268204393"><ele>570.0</ele><time>2026-03-29T09:06:18.999Z</time></trkpt><trkpt lat="42.0126970590283" lon="12.83230316560431"><ele>573.0</ele><time>2026-03-29T09:06:19.999Z</time></trkpt><trkpt lat="42.012652745250506" lon="12.832435287345776"><ele>576.0</ele><time>2026-03-29T09:06:20.999Z</time></trkpt><trkpt lat="42.01264072252635" lon="12.832595365664199"><ele>579.0</ele><time>2026-03-29T09:06:21.999Z</time></trkpt><trkpt lat="42.012612326072684" lon="12.832761730255502"><ele>581.75</ele><time>2026-03-29T09:06:22.999Z</time></trkpt><trkpt lat="42.012594939219056" lon="12.832936619130574"><ele>584.5</ele><time>2026-03-29T09:06:23.999Z</time></trkpt><trkpt lat="42.012587106355845" lon="12.833122941738718"><ele>587.25</ele><time>2026-03-29T09:06:24.999Z</time></trkpt><trkpt lat="42.012588201093294" lon="12.83330996467361"><ele>590.0</ele><time>2026-03-29T09:06:25.999Z</time></trkpt><trkpt lat="42.012575566847275" lon="12.833501162204572"><ele>592.75</ele><time>2026-03-29T09:06:26.999Z</time></trkpt><trkpt lat="42.01257412572036" lon="12.833694703975574"><ele>595.5</ele><time>2026-03-29T09:06:27.999Z</time></trkpt><trkpt lat="42.012561501742866" lon="12.833884670411766"><ele>598.25</ele><time>2026-03-29T09:06:28.999Z</time></trkpt><trkpt lat="42.01253998617489" lon="12.834059206511718"><ele>601.0</ele><time>2026-03-29T09:06:29.999Z</time></trkpt><trkpt lat="42.01250123120947" lon="12.834223280117588"><ele>602.75</ele><time>2026-03-29T09:06:30.999Z</time></trkpt><trkpt lat="42.01243286925691" lon="12.834363706924298"><ele>604.5</ele><time>2026-03-29T09:06:31.999Z</time></trkpt><trkpt lat="42.012334378145056" lon="12.83448888785168"><ele>606.25</ele><time>2026-03-29T09:06:32.999Z</time></trkpt><trkpt lat="42.01220174653789" lon="12.834571854220195"><ele>608.0</ele><time>2026-03-29T09:06:33.999Z</time></trkpt><trkpt lat="42.01205297563738" lon="12.834628293886478"><ele>608.0</ele><time>2026-03-29T09:06:34.999Z</time></trkpt><trkpt lat="42.01189875737672" lon="12.834646928609384"><ele>608.0</ele><time>2026-03-29T09:06:35.999Z</time></trkpt><trkpt lat="42.01175635159726" lon="12.834616357880527"><ele>608.0</ele><time>2026-03-29T09:06:36.999Z</time></trkpt><trkpt lat="42.01163680128843" lon="12.834554945346564"><ele>608.0</ele><time>2026-03-29T09:06:37.999Z</time></trkpt><trkpt lat="42.01154327444916" lon="12.834542895147484"><ele>602.6</ele><time>2026-03-29T09:06:38.999Z</time></trkpt><trkpt lat="42.0114719200405" lon="12.834518049713305"><ele>597.1999999999999</ele><time>2026-03-29T09:06:39.999Z</time></trkpt><trkpt lat="42.011392768400526" lon="12.834579872129341"><ele>591.8</ele><time>2026-03-29T09:06:40.999Z</time></trkpt><trkpt lat="42.01134988610176" lon="12.83473222389072"><ele>586.4</ele><time>2026-03-29T09:06:41.999Z</time></trkpt><trkpt lat="42.01133917768566" lon="12.834880451138417"><ele>581.0</ele><time>2026-03-29T09:06:42.999Z</time></trkpt><trkpt lat="42.01136357030485" lon="12.83503035803541"><ele>579.75</ele><time>2026-03-29T09:06:43.999Z</time></trkpt><trkpt lat="42.011396568833305" lon="12.835180909661373"><ele>578.5</ele><time>2026-03-29T09:06:44.999Z</time></trkpt><trkpt lat="42.011421034804975" lon="12.835329021912951"><ele>577.25</ele><time>2026-03-29T09:06:45.999Z</time></trkpt><trkpt lat="42.01143566667979" lon="12.835485760654247"><ele>576.0</ele><time>2026-03-29T09:06:46.999Z</time></trkpt><trkpt lat="42.0114697498256" lon="12.835655512795087"><ele>576.0</ele><time>2026-03-29T09:06:47.999Z</time></trkpt><trkpt lat="42.01152309361123" lon="12.83583034211171"><ele>576.0</ele><time>2026-03-29T09:06:48.999Z</time></trkpt><trkpt lat="42.01156288375465" lon="12.836009128253366"><ele>576.0</ele><time>2026-03-29T09:06:49.999Z</time></trkpt><trkpt lat="42.01158625393088" lon="12.83619318919119"><ele>576.0</ele><time>2026-03-29T09:06:50.999Z</time></trkpt><trkpt lat="42.01162823179103" lon="12.836373038138488"><ele>582.0</ele><time>2026-03-29T09:06:51.999Z</time></trkpt><trkpt lat="42.01169220340128" lon="12.836535266314604"><ele>588.0</ele><time>2026-03-29T09:06:52.999Z</time></trkpt><trkpt lat="42.01175358984386" lon="12.836704774589048"><ele>594.0</ele><time>2026-03-29T09:06:53.999Z</time></trkpt><trkpt lat="42.01182452457428" lon="12.836873039167752"><ele>600.0</ele><time>2026-03-29T09:06:54.999Z</time></trkpt><trkpt lat="42.011899939145486" lon="12.837042334507105"><ele>600.0</ele><time>2026-03-29T09:06:55.999Z</time></trkpt><trkpt lat="42.011983131587655" lon="12.837209100632846"><ele>600.0</ele><time>2026-03-29T09:06:56.999Z</time></trkpt><trkpt lat="42.01208693897391" lon="12.837373584480051"><ele>600.0</ele><time>2026-03-29T09:06:57.999Z</time></trkpt><trkpt lat="42.012208939228785" lon="12.837514823305614"><ele>600.0</ele><time>2026-03-29T09:06:58.998Z</time></trkpt><trkpt lat="42.01231887164982" lon="12.837620170135814"><ele>600.0</ele><time>2026-03-29T09:06:59.998Z</time></trkpt><trkpt lat="42.01240539053107" lon="12.837714849857626"><ele>600.0</ele><time>2026-03-29T09:07:00.998Z</time></trkpt><trkpt lat="42.012463023944356" lon="12.837844139905831"><ele>600.0</ele><time>2026-03-29T09:07:01.998Z</time></trkpt><trkpt lat="42.01248974019224" lon="12.83798081779494"><ele>603.25</ele><time>2026-03-29T09:07:02.998Z</time></trkpt><trkpt lat="42.01249747321437" lon="12.8381258473904"><ele>606.5</ele><time>2026-03-29T09:07:03.998Z</time></trkpt><trkpt lat="42.01241192834904" lon="12.838240985915908"><ele>609.75</ele><time>2026-03-29T09:07:04.998Z</time></trkpt><trkpt lat="42.01231510429234" lon="12.83832304642929"><ele>613.0</ele><time>2026-03-29T09:07:05.998Z</time></trkpt><trkpt lat="42.01219411126629" lon="12.838357613283273"><ele>613.0</ele><time>2026-03-29T09:07:06.998Z</time></trkpt><trkpt lat="42.01207275579215" lon="12.838453178045159"><ele>613.0</ele><time>2026-03-29T09:07:07.998Z</time></trkpt><trkpt lat="42.01195442972372" lon="12.838487261282813"><ele>613.0</ele><time>2026-03-29T09:07:08.998Z</time></trkpt><trkpt lat="42.01184164289152" lon="12.838537659250493"><ele>613.0</ele><time>2026-03-29T09:07:09.998Z</time></trkpt><trkpt lat="42.011741701773694" lon="12.838582469889474"><ele>614.1999999999999</ele><time>2026-03-29T09:07:10.998Z</time></trkpt><trkpt lat="42.01165015342374" lon="12.83863232369187"><ele>615.4</ele><time>2026-03-29T09:07:11.998Z</time></trkpt><trkpt lat="42.01155865432235" lon="12.838706889378285"><ele>616.5999999999999</ele><time>2026-03-29T09:07:12.998Z</time></trkpt><trkpt lat="42.01148797738269" lon="12.838825968448289"><ele>617.8</ele><time>2026-03-29T09:07:13.998Z</time></trkpt><trkpt lat="42.01144964048892" lon="12.838974691828355"><ele>619.0</ele><time>2026-03-29T09:07:14.998Z</time></trkpt><trkpt lat="42.01143946645881" lon="12.839126470162414"><ele>619.0</ele><time>2026-03-29T09:07:15.998Z</time></trkpt><trkpt lat="42.01144523885709" lon="12.839257448827315"><ele>619.0</ele><time>2026-03-29T09:07:16.998Z</time></trkpt><trkpt lat="42.0114782562691" lon="12.839384323394999"><ele>619.0</ele><time>2026-03-29T09:07:17.998Z</time></trkpt><trkpt lat="42.01154366395573" lon="12.839494270511043"><ele>619.0</ele><time>2026-03-29T09:07:18.998Z</time></trkpt><trkpt lat="42.011631124276555" lon="12.839592345889217"><ele>619.0</ele><time>2026-03-29T09:07:19.998Z</time></trkpt><trkpt lat="42.011724782212795" lon="12.839669482749457"><ele>621.0</ele><time>2026-03-29T09:07:20.998Z</time></trkpt><trkpt lat="42.01181415754762" lon="12.839727397599013"><ele>623.0</ele><time>2026-03-29T09:07:21.998Z</time></trkpt><trkpt lat="42.01191284994653" lon="12.839757328254477"><ele>625.0</ele><time>2026-03-29T09:07:22.998Z</time></trkpt><trkpt lat="42.01201730319725" lon="12.839807804664517"><ele>627.0</ele><time>2026-03-29T09:07:23.998Z</time></trkpt><trkpt lat="42.01214626800762" lon="12.839874241152648"><ele>629.0</ele><time>2026-03-29T09:07:24.998Z</time></trkpt><trkpt lat="42.01220307073817" lon="12.839918686877812"><ele>629.0</ele><time>2026-03-29T09:07:25.998Z</time></trkpt><trkpt lat="42.0122841004871" lon="12.840023860000153"><ele>629.0</ele><time>2026-03-29T09:07:26.998Z</time></trkpt><trkpt lat="42.01221724832137" lon="12.840192950078885"><ele>629.0</ele><time>2026-03-29T09:07:27.998Z</time></trkpt><trkpt lat="42.01225127152791" lon="12.840325412773613"><ele>629.0</ele><time>2026-03-29T09:07:29.998Z</time></trkpt><trkpt lat="42.01211014887128" lon="12.840339764153319"><ele>630.6666666666666</ele><time>2026-03-29T09:07:31.998Z</time></trkpt><trkpt lat="42.012047520848306" lon="12.840383546037074"><ele>632.3333333333333</ele><time>2026-03-29T09:07:33Z</time></trkpt><trkpt lat="42.011979466971866" lon="12.840326776875411"><ele>634.0</ele><time>2026-03-29T09:07:34Z</time></trkpt><trkpt lat="42.01187859668171" lon="12.840319233420184"><ele>635.6666666666666</ele><time>2026-03-29T09:07:35Z</time></trkpt><trkpt lat="42.01178863656064" lon="12.84031622338491"><ele>637.3333333333334</ele><time>2026-03-29T09:07:36Z</time></trkpt><trkpt lat="42.011694794164086" lon="12.840311251823882"><ele>639.0</ele><time>2026-03-29T09:07:37Z</time></trkpt><trkpt lat="42.01158107336099" lon="12.840302526067996"><ele>639.0</ele><time>2026-03-29T09:07:38Z</time></trkpt><trkpt lat="42.0114808642337" lon="12.840302324936456"><ele>639.0</ele><time>2026-03-29T09:07:39Z</time></trkpt><trkpt lat="42.011378791084184" lon="12.840324050805062"><ele>639.0</ele><time>2026-03-29T09:07:40Z</time></trkpt><trkpt lat="42.011273448993265" lon="12.840346195651549"><ele>639.0</ele><time>2026-03-29T09:07:41Z</time></trkpt><trkpt lat="42.01116799014338" lon="12.84037256028668"><ele>639.0</ele><time>2026-03-29T09:07:42Z</time></trkpt><trkpt lat="42.01107559566505" lon="12.840394996086877"><ele>639.0</ele><time>2026-03-29T09:07:43Z</time></trkpt><trkpt lat="42.01098210094565" lon="12.840414912449258"><ele>639.0</ele><time>2026-03-29T09:07:44Z</time></trkpt><trkpt lat="42.01089634773151" lon="12.840425148410203"><ele>639.0</ele><time>2026-03-29T09:07:45Z</time></trkpt><trkpt lat="42.010793620089224" lon="12.840424638032475"><ele>639.0</ele><time>2026-03-29T09:07:47Z</time></trkpt><trkpt lat="42.010698314520496" lon="12.840417367656544"><ele>639.0</ele><time>2026-03-29T09:07:48Z</time></trkpt><trkpt lat="42.01059435632649" lon="12.840385923841522"><ele>637.5</ele><time>2026-03-29T09:07:49Z</time></trkpt><trkpt lat="42.01055038461391" lon="12.84045069442934"><ele>636.0</ele><time>2026-03-29T09:07:50.999Z</time></trkpt><trkpt lat="42.01046842802906" lon="12.840488232242091"><ele>634.5</ele><time>2026-03-29T09:07:52.999Z</time></trkpt><trkpt lat="42.01040065010774" lon="12.84058092990215"><ele>633.0</ele><time>2026-03-29T09:07:54.999Z</time></trkpt><trkpt lat="42.0103576402285" lon="12.840643681653924"><ele>631.5</ele><time>2026-03-29T09:07:55.999Z</time></trkpt><trkpt lat="42.01030616894652" lon="12.840720889705445"><ele>630.0</ele><time>2026-03-29T09:07:56.999Z</time></trkpt><trkpt lat="42.0102541000922" lon="12.840798993027935"><ele>630.0</ele><time>2026-03-29T09:07:57.999Z</time></trkpt><trkpt lat="42.010200145577016" lon="12.840881636918636"><ele>630.0</ele><time>2026-03-29T09:07:58.999Z</time></trkpt><trkpt lat="42.01014884366725" lon="12.840962342265547"><ele>630.0</ele><time>2026-03-29T09:07:59.999Z</time></trkpt><trkpt lat="42.0100966366515" lon="12.841044471507939"><ele>630.0</ele><time>2026-03-29T09:08:00.999Z</time></trkpt><trkpt lat="42.01004789515153" lon="12.841119791384466"><ele>630.0</ele><time>2026-03-29T09:08:01.999Z</time></trkpt><trkpt lat="42.01000961813774" lon="12.841212193382317"><ele>630.0</ele><time>2026-03-29T09:08:02.999Z</time></trkpt><trkpt lat="42.0099519861553" lon="12.841298605676911"><ele>630.4</ele><time>2026-03-29T09:08:03.999Z</time></trkpt><trkpt lat="42.009894401877354" lon="12.841372303378709"><ele>630.8</ele><time>2026-03-29T09:08:04.999Z</time></trkpt><trkpt lat="42.0098372265459" lon="12.841456524573676"><ele>631.2</ele><time>2026-03-29T09:08:05.999Z</time></trkpt><trkpt lat="42.009774638513186" lon="12.84155875036498"><ele>631.6</ele><time>2026-03-29T09:08:06.999Z</time></trkpt><trkpt lat="42.00971978313102" lon="12.841670556979322"><ele>632.0</ele><time>2026-03-29T09:08:07.999Z</time></trkpt><trkpt lat="42.009689540565326" lon="12.841789566124726"><ele>632.0</ele><time>2026-03-29T09:08:08.999Z</time></trkpt><trkpt lat="42.009681545628304" lon="12.841927386427122"><ele>632.0</ele><time>2026-03-29T09:08:09.999Z</time></trkpt><trkpt lat="42.00970601572395" lon="12.842085797734498"><ele>632.0</ele><time>2026-03-29T09:08:10.999Z</time></trkpt><trkpt lat="42.00973565627485" lon="12.84224666809934"><ele>632.0</ele><time>2026-03-29T09:08:11.999Z</time></trkpt><trkpt lat="42.00973374154992" lon="12.84240977041905"><ele>632.0</ele><time>2026-03-29T09:08:12.999Z</time></trkpt><trkpt lat="42.0097340459888" lon="12.842559189337665"><ele>632.0</ele><time>2026-03-29T09:08:13.999Z</time></trkpt><trkpt lat="42.0097243967327" lon="12.842696544336535"><ele>632.0</ele><time>2026-03-29T09:08:14.999Z</time></trkpt><trkpt lat="42.00971078051615" lon="12.842856555936754"><ele>632.0</ele><time>2026-03-29T09:08:15.999Z</time></trkpt><trkpt lat="42.00968505271059" lon="12.842986006607193"><ele>632.0</ele><time>2026-03-29T09:08:16.999Z</time></trkpt><trkpt lat="42.00963031067243" lon="12.843065478834127"><ele>627.6</ele><time>2026-03-29T09:08:17.999Z</time></trkpt><trkpt lat="42.009552699927994" lon="12.843118440849237"><ele>623.2</ele><time>2026-03-29T09:08:18.999Z</time></trkpt><trkpt lat="42.0094576378668" lon="12.843169160604443"><ele>618.8</ele><time>2026-03-29T09:08:19.999Z</time></trkpt><trkpt lat="42.00934469442109" lon="12.843180959718316"><ele>614.4</ele><time>2026-03-29T09:08:20.999Z</time></trkpt><trkpt lat="42.00921417718898" lon="12.84319552055886"><ele>610.0</ele><time>2026-03-29T09:08:21.999Z</time></trkpt><trkpt lat="42.00909781094855" lon="12.843190451824851"><ele>609.0</ele><time>2026-03-29T09:08:22.999Z</time></trkpt><trkpt lat="42.008981048058686" lon="12.843182912154468"><ele>608.0</ele><time>2026-03-29T09:08:23.999Z</time></trkpt><trkpt lat="42.00885791057116" lon="12.843177503100913"><ele>607.0</ele><time>2026-03-29T09:08:24.999Z</time></trkpt><trkpt lat="42.008728560439465" lon="12.843190288569238"><ele>606.0</ele><time>2026-03-29T09:08:25.999Z</time></trkpt><trkpt lat="42.0086056476778" lon="12.84319111867432"><ele>606.0</ele><time>2026-03-29T09:08:26.999Z</time></trkpt><trkpt lat="42.008488454647576" lon="12.843199361449773"><ele>606.0</ele><time>2026-03-29T09:08:27.999Z</time></trkpt><trkpt lat="42.008365789398454" lon="12.843206807617479"><ele>606.0</ele><time>2026-03-29T09:08:28.999Z</time></trkpt><trkpt lat="42.00825393932066" lon="12.84319288377252"><ele>606.0</ele><time>2026-03-29T09:08:29.999Z</time></trkpt><trkpt lat="42.00812906866874" lon="12.843164087625834"><ele>604.25</ele><time>2026-03-29T09:08:30.999Z</time></trkpt><trkpt lat="42.00800429290378" lon="12.843131728855152"><ele>602.5</ele><time>2026-03-29T09:08:31.999Z</time></trkpt><trkpt lat="42.00790296836888" lon="12.843115145638377"><ele>600.75</ele><time>2026-03-29T09:08:32.999Z</time></trkpt><trkpt lat="42.00778841932356" lon="12.843074954565406"><ele>599.0</ele><time>2026-03-29T09:08:33.999Z</time></trkpt><trkpt lat="42.007675784830475" lon="12.843058407136065"><ele>599.0</ele><time>2026-03-29T09:08:34.999Z</time></trkpt><trkpt lat="42.00756974151899" lon="12.843035743569965"><ele>599.0</ele><time>2026-03-29T09:08:35.999Z</time></trkpt><trkpt lat="42.00746646270053" lon="12.843046735201993"><ele>599.0</ele><time>2026-03-29T09:08:36.999Z</time></trkpt><trkpt lat="42.00737054314133" lon="12.843128703663384"><ele>599.0</ele><time>2026-03-29T09:08:37.999Z</time></trkpt><trkpt lat="42.007299062147496" lon="12.84325591919765"><ele>599.0</ele><time>2026-03-29T09:08:38.999Z</time></trkpt><trkpt lat="42.00725345968916" lon="12.843374589565872"><ele>597.5</ele><time>2026-03-29T09:08:39.999Z</time></trkpt><trkpt lat="42.007200424900454" lon="12.843473710275283"><ele>596.0</ele><time>2026-03-29T09:08:40.999Z</time></trkpt><trkpt lat="42.0071465226059" lon="12.843562851328075"><ele>594.5</ele><time>2026-03-29T09:08:41.999Z</time></trkpt><trkpt lat="42.00709757944357" lon="12.843649559472011"><ele>593.0</ele><time>2026-03-29T09:08:42.999Z</time></trkpt><trkpt lat="42.00705248146199" lon="12.843737670215688"><ele>591.5</ele><time>2026-03-29T09:08:43.999Z</time></trkpt><trkpt lat="42.00699245517024" lon="12.843838151827878"><ele>590.0</ele><time>2026-03-29T09:08:44.999Z</time></trkpt><trkpt lat="42.00690393890654" lon="12.843952923076516"><ele>590.0</ele><time>2026-03-29T09:08:45.999Z</time></trkpt><trkpt lat="42.00679780788616" lon="12.844056909068659"><ele>590.0</ele><time>2026-03-29T09:08:46.999Z</time></trkpt><trkpt lat="42.00667777114896" lon="12.844135117383166"><ele>590.0</ele><time>2026-03-29T09:08:47.999Z</time></trkpt><trkpt lat="42.00654901259631" lon="12.84420533289113"><ele>590.0</ele><time>2026-03-29T09:08:48.999Z</time></trkpt><trkpt lat="42.00642682741284" lon="12.844295878083322"><ele>586.5</ele><time>2026-03-29T09:08:49.999Z</time></trkpt><trkpt lat="42.006322195265994" lon="12.844391993058528"><ele>583.0</ele><time>2026-03-29T09:08:50.999Z</time></trkpt><trkpt lat="42.006224325051086" lon="12.844525190268415"><ele>579.5</ele><time>2026-03-29T09:08:51.999Z</time></trkpt><trkpt lat="42.0061050830722" lon="12.844619502770794"><ele>576.0</ele><time>2026-03-29T09:08:52.999Z</time></trkpt><trkpt lat="42.00597266637577" lon="12.844698848358478"><ele>576.0</ele><time>2026-03-29T09:08:53.999Z</time></trkpt><trkpt lat="42.00585091338146" lon="12.844777647239036"><ele>576.0</ele><time>2026-03-29T09:08:54.999Z</time></trkpt><trkpt lat="42.00573305391413" lon="12.844825331315603"><ele>576.0</ele><time>2026-03-29T09:08:55.998Z</time></trkpt><trkpt lat="42.00561629521149" lon="12.844829457806052"><ele>576.0</ele><time>2026-03-29T09:08:56.998Z</time></trkpt><trkpt lat="42.005515321262806" lon="12.844752173840108"><ele>572.5</ele><time>2026-03-29T09:08:57.998Z</time></trkpt><trkpt lat="42.00539842991728" lon="12.844701288437156"><ele>569.0</ele><time>2026-03-29T09:08:58.998Z</time></trkpt><trkpt lat="42.00529105609219" lon="12.844637544863131"><ele>565.5</ele><time>2026-03-29T09:08:59.998Z</time></trkpt><trkpt lat="42.005188439459936" lon="12.844564287821111"><ele>562.0</ele><time>2026-03-29T09:09:00.998Z</time></trkpt><trkpt lat="42.005072846635755" lon="12.844456044698319"><ele>559.3333333333334</ele><time>2026-03-29T09:09:01.998Z</time></trkpt><trkpt lat="42.00493752978597" lon="12.8443089914503"><ele>556.6666666666666</ele><time>2026-03-29T09:09:02.998Z</time></trkpt><trkpt lat="42.00478654642122" lon="12.844139798210081"><ele>554.0</ele><time>2026-03-29T09:09:03.998Z</time></trkpt><trkpt lat="42.00465858040764" lon="12.843987695017036"><ele>554.0</ele><time>2026-03-29T09:09:04.998Z</time></trkpt><trkpt lat="42.00455860374512" lon="12.843863631220842"><ele>554.0</ele><time>2026-03-29T09:09:05.998Z</time></trkpt><trkpt lat="42.004491897086005" lon="12.843709185502501"><ele>554.0</ele><time>2026-03-29T09:09:06.998Z</time></trkpt><trkpt lat="42.004438761880905" lon="12.843571232238281"><ele>554.0</ele><time>2026-03-29T09:09:07.998Z</time></trkpt><trkpt lat="42.004396735490346" lon="12.843461821563913"><ele>555.6</ele><time>2026-03-29T09:09:08.998Z</time></trkpt><trkpt lat="42.00439818234362" lon="12.84335987228698"><ele>557.2</ele><time>2026-03-29T09:09:09.998Z</time></trkpt><trkpt lat="42.00444796745889" lon="12.84325748872852"><ele>558.8000000000001</ele><time>2026-03-29T09:09:10.998Z</time></trkpt><trkpt lat="42.004541776415415" lon="12.843155053843708"><ele>560.4</ele><time>2026-03-29T09:09:11.998Z</time></trkpt><trkpt lat="42.00466893939199" lon="12.843081078776594"><ele>562.0</ele><time>2026-03-29T09:09:12.998Z</time></trkpt><trkpt lat="42.00482146099906" lon="12.843014985963391"><ele>562.0</ele><time>2026-03-29T09:09:13.998Z</time></trkpt><trkpt lat="42.00497581513245" lon="12.842944179181673"><ele>562.0</ele><time>2026-03-29T09:09:14.998Z</time></trkpt><trkpt lat="42.005139628228065" lon="12.842872706784608"><ele>562.0</ele><time>2026-03-29T09:09:15.998Z</time></trkpt><trkpt lat="42.00530958744323" lon="12.84279256774515"><ele>559.0</ele><time>2026-03-29T09:09:16.998Z</time></trkpt><trkpt lat="42.00548100281774" lon="12.842683785336076"><ele>556.0</ele><time>2026-03-29T09:09:17.998Z</time></trkpt><trkpt lat="42.005643386713594" lon="12.842559602879987"><ele>553.0</ele><time>2026-03-29T09:09:18.998Z</time></trkpt><trkpt lat="42.005797661321644" lon="12.842419817960485"><ele>560.0</ele><time>2026-03-29T09:09:19.998Z</time></trkpt><trkpt lat="42.00594244777391" lon="12.842276335079355"><ele>567.0</ele><time>2026-03-29T09:09:20.998Z</time></trkpt><trkpt lat="42.00607961849315" lon="12.842132537439209"><ele>574.0</ele><time>2026-03-29T09:09:21.998Z</time></trkpt><trkpt lat="42.006208608585766" lon="12.842002463689619"><ele>574.0</ele><time>2026-03-29T09:09:22.998Z</time></trkpt><trkpt lat="42.00632161741345" lon="12.841899117320276"><ele>574.0</ele><time>2026-03-29T09:09:23.998Z</time></trkpt><trkpt lat="42.006418048795176" lon="12.841816375440326"><ele>574.0</ele><time>2026-03-29T09:09:24.998Z</time></trkpt><trkpt lat="42.00649696140575" lon="12.84171415325214"><ele>574.0</ele><time>2026-03-29T09:09:25.998Z</time></trkpt><trkpt lat="42.006546233491534" lon="12.841578506822565"><ele>566.5</ele><time>2026-03-29T09:09:26.998Z</time></trkpt><trkpt lat="42.00654389661843" lon="12.84141900288099"><ele>559.0</ele><time>2026-03-29T09:09:27.998Z</time></trkpt><trkpt lat="42.00647563651676" lon="12.841257458906378"><ele>551.5</ele><time>2026-03-29T09:09:28.998Z</time></trkpt><trkpt lat="42.006359334514826" lon="12.841098649251077"><ele>544.0</ele><time>2026-03-29T09:09:29.998Z</time></trkpt><trkpt lat="42.006231538512736" lon="12.840935701896028"><ele>544.0</ele><time>2026-03-29T09:09:30.998Z</time></trkpt><trkpt lat="42.00609640225023" lon="12.840775714620223"><ele>544.0</ele><time>2026-03-29T09:09:31.998Z</time></trkpt><trkpt lat="42.005965086970626" lon="12.84062634915533"><ele>544.0</ele><time>2026-03-29T09:09:32.998Z</time></trkpt><trkpt lat="42.00582618692913" lon="12.84048262315725"><ele>540.3333333333334</ele><time>2026-03-29T09:09:33.998Z</time></trkpt><trkpt lat="42.00568754364821" lon="12.840341935981327"><ele>536.6666666666666</ele><time>2026-03-29T09:09:34.998Z</time></trkpt><trkpt lat="42.005548262042595" lon="12.840201204967025"><ele>533.0</ele><time>2026-03-29T09:09:35.998Z</time></trkpt><trkpt lat="42.005423349353464" lon="12.840058106399296"><ele>533.0</ele><time>2026-03-29T09:09:36.998Z</time></trkpt><trkpt lat="42.00530044353388" lon="12.839895104106565"><ele>533.0</ele><time>2026-03-29T09:09:37.999Z</time></trkpt><trkpt lat="42.00520110962444" lon="12.839738951688009"><ele>533.0</ele><time>2026-03-29T09:09:38.999Z</time></trkpt><trkpt lat="42.00514193708389" lon="12.839576727039855"><ele>533.0</ele><time>2026-03-29T09:09:39.999Z</time></trkpt><trkpt lat="42.00509047655814" lon="12.83941186820968"><ele>533.0</ele><time>2026-03-29T09:09:40.999Z</time></trkpt><trkpt lat="42.00505844659671" lon="12.839225197713935"><ele>533.0</ele><time>2026-03-29T09:09:41.999Z</time></trkpt><trkpt lat="42.005057254244825" lon="12.839016226498579"><ele>533.0</ele><time>2026-03-29T09:09:42.999Z</time></trkpt><trkpt lat="42.00506493341922" lon="12.838803737624644"><ele>532.6666666666666</ele><time>2026-03-29T09:09:43.999Z</time></trkpt><trkpt lat="42.00511279457733" lon="12.838595482500414"><ele>532.3333333333334</ele><time>2026-03-29T09:09:44.999Z</time></trkpt><trkpt lat="42.00518232605848" lon="12.838406674364968"><ele>532.0</ele><time>2026-03-29T09:09:45.999Z</time></trkpt><trkpt lat="42.005267815354166" lon="12.838258440746676"><ele>532.0</ele><time>2026-03-29T09:09:46.999Z</time></trkpt><trkpt lat="42.005347237119686" lon="12.838172641535774"><ele>532.0</ele><time>2026-03-29T09:09:47.999Z</time></trkpt><trkpt lat="42.005415653474145" lon="12.838113325441734"><ele>532.0</ele><time>2026-03-29T09:09:48.999Z</time></trkpt><trkpt lat="42.00547158758809" lon="12.837986961724152"><ele>532.0</ele><time>2026-03-29T09:09:50.999Z</time></trkpt><trkpt lat="42.00543210248678" lon="12.837906686433204"><ele>532.0</ele><time>2026-03-29T09:09:51.999Z</time></trkpt><trkpt lat="42.00534956148561" lon="12.837882069838658"><ele>532.0</ele><time>2026-03-29T09:09:52.999Z</time></trkpt><trkpt lat="42.00526348523037" lon="12.837936335219792"><ele>532.0</ele><time>2026-03-29T09:09:53.999Z</time></trkpt><trkpt lat="42.005192348605455" lon="12.838040611903578"><ele>532.0</ele><time>2026-03-29T09:09:54.999Z</time></trkpt><trkpt lat="42.00512531144381" lon="12.838179763125696"><ele>532.0</ele><time>2026-03-29T09:09:55.999Z</time></trkpt><trkpt lat="42.00504001699572" lon="12.838301301867821"><ele>532.0</ele><time>2026-03-29T09:09:56.999Z</time></trkpt><trkpt lat="42.0049425585174" lon="12.83845812213233"><ele>525.75</ele><time>2026-03-29T09:09:57.999Z</time></trkpt><trkpt lat="42.00485466385031" lon="12.83861575270269"><ele>519.5</ele><time>2026-03-29T09:09:58.999Z</time></trkpt><trkpt lat="42.00475905168779" lon="12.83876571807378"><ele>513.25</ele><time>2026-03-29T09:09:59.999Z</time></trkpt><trkpt lat="42.00468828493038" lon="12.838935957949973"><ele>507.0</ele><time>2026-03-29T09:10:00.999Z</time></trkpt><trkpt lat="42.004640183499106" lon="12.839107330905053"><ele>507.0</ele><time>2026-03-29T09:10:01.999Z</time></trkpt><trkpt lat="42.004611617778195" lon="12.83928137552899"><ele>507.0</ele><time>2026-03-29T09:10:02.999Z</time></trkpt><trkpt lat="42.00462021510875" lon="12.839468102282263"><ele>507.0</ele><time>2026-03-29T09:10:03.999Z</time></trkpt><trkpt lat="42.00465576116963" lon="12.839661090939718"><ele>507.0</ele><time>2026-03-29T09:10:04.999Z</time></trkpt><trkpt lat="42.00471402781367" lon="12.839868634626152"><ele>503.33333333333337</ele><time>2026-03-29T09:10:05.999Z</time></trkpt><trkpt lat="42.00479281121662" lon="12.840083063682869"><ele>499.6666666666667</ele><time>2026-03-29T09:10:06.999Z</time></trkpt><trkpt lat="42.00488811818919" lon="12.840308867251828"><ele>496.0</ele><time>2026-03-29T09:10:07.999Z</time></trkpt><trkpt lat="42.00498437530184" lon="12.8405143347459"><ele>500.75</ele><time>2026-03-29T09:10:08.999Z</time></trkpt><trkpt lat="42.00508127604416" lon="12.840696580353269"><ele>505.5</ele><time>2026-03-29T09:10:09.999Z</time></trkpt><trkpt lat="42.00517539130819" lon="12.840852289954752"><ele>510.25</ele><time>2026-03-29T09:10:10.999Z</time></trkpt><trkpt lat="42.005253192845984" lon="12.840974792578777"><ele>515.0</ele><time>2026-03-29T09:10:11.999Z</time></trkpt><trkpt lat="42.005318802854" lon="12.84106584277309"><ele>516.0</ele><time>2026-03-29T09:10:12.999Z</time></trkpt><trkpt lat="42.0053679488646" lon="12.84115425261011"><ele>517.0</ele><time>2026-03-29T09:10:13.999Z</time></trkpt><trkpt lat="42.005387230127646" lon="12.841275955207111"><ele>518.0</ele><time>2026-03-29T09:10:14.999Z</time></trkpt><trkpt lat="42.00534674224015" lon="12.841419824606765"><ele>519.0</ele><time>2026-03-29T09:10:15.999Z</time></trkpt><trkpt lat="42.00523613764592" lon="12.841532748416041"><ele>520.0</ele><time>2026-03-29T09:10:16.999Z</time></trkpt><trkpt lat="42.00507650691881" lon="12.841546526939846"><ele>514.3333333333334</ele><time>2026-03-29T09:10:17.999Z</time></trkpt><trkpt lat="42.00491342108223" lon="12.841584206699348"><ele>508.66666666666663</ele><time>2026-03-29T09:10:18.999Z</time></trkpt><trkpt lat="42.00474666449163" lon="12.841632261548433"><ele>503.0</ele><time>2026-03-29T09:10:19.999Z</time></trkpt><trkpt lat="42.00457358259574" lon="12.841668165276094"><ele>503.0</ele><time>2026-03-29T09:10:20.999Z</time></trkpt><trkpt lat="42.00438728885976" lon="12.841701186031079"><ele>503.0</ele><time>2026-03-29T09:10:21.999Z</time></trkpt><trkpt lat="42.0041895921456" lon="12.84172667035525"><ele>503.0</ele><time>2026-03-29T09:10:22.999Z</time></trkpt><trkpt lat="42.003986011273284" lon="12.841730910078008"><ele>501.0</ele><time>2026-03-29T09:10:23.999Z</time></trkpt><trkpt lat="42.003785394635784" lon="12.841719542449725"><ele>499.0</ele><time>2026-03-29T09:10:24.999Z</time></trkpt><trkpt lat="42.003579911150595" lon="12.841714144549304"><ele>497.0</ele><time>2026-03-29T09:10:25.999Z</time></trkpt><trkpt lat="42.00337572210948" lon="12.841718549794406"><ele>496.3333333333333</ele><time>2026-03-29T09:10:26.999Z</time></trkpt><trkpt lat="42.00318331500033" lon="12.841730617043329"><ele>495.66666666666663</ele><time>2026-03-29T09:10:27.999Z</time></trkpt><trkpt lat="42.00301658723747" lon="12.841760569971402"><ele>495.0</ele><time>2026-03-29T09:10:28.999Z</time></trkpt><trkpt lat="42.00287435275889" lon="12.841821654510762"><ele>495.0</ele><time>2026-03-29T09:10:29.999Z</time></trkpt><trkpt lat="42.002750658963706" lon="12.841914776840017"><ele>495.0</ele><time>2026-03-29T09:10:30.999Z</time></trkpt><trkpt lat="42.00262860540142" lon="12.842055692455748"><ele>495.0</ele><time>2026-03-29T09:10:31.999Z</time></trkpt><trkpt lat="42.00252039215503" lon="12.842259120090493"><ele>485.33333333333337</ele><time>2026-03-29T09:10:32.999Z</time></trkpt><trkpt lat="42.00242820627207" lon="12.842493100265003"><ele>475.6666666666667</ele><time>2026-03-29T09:10:33.999Z</time></trkpt><trkpt lat="42.002350657615985" lon="12.84273791116831"><ele>466.0</ele><time>2026-03-29T09:10:34.999Z</time></trkpt><trkpt lat="42.00228444650587" lon="12.842979032772437"><ele>466.0</ele><time>2026-03-29T09:10:35.999Z</time></trkpt><trkpt lat="42.00223252657607" lon="12.843221173590361"><ele>466.0</ele><time>2026-03-29T09:10:36.999Z</time></trkpt><trkpt lat="42.002195156966174" lon="12.843460174646408"><ele>466.0</ele><time>2026-03-29T09:10:37.999Z</time></trkpt><trkpt lat="42.00217064467712" lon="12.843673383599954"><ele>466.0</ele><time>2026-03-29T09:10:38.999Z</time></trkpt><trkpt lat="42.00217153004801" lon="12.843865180352642"><ele>466.0</ele><time>2026-03-29T09:10:39.999Z</time></trkpt><trkpt lat="42.00220308892022" lon="12.844044321047143"><ele>466.0</ele><time>2026-03-29T09:10:40.999Z</time></trkpt><trkpt lat="42.002247017863894" lon="12.844178223096822"><ele>466.0</ele><time>2026-03-29T09:10:41.999Z</time></trkpt><trkpt lat="42.00228064720034" lon="12.844259193481564"><ele>466.0</ele><time>2026-03-29T09:10:42.999Z</time></trkpt><trkpt lat="42.002241268609104" lon="12.844369973604378"><ele>466.0</ele><time>2026-03-29T09:10:44.999Z</time></trkpt><trkpt lat="42.00217021381309" lon="12.84436166385138"><ele>466.0</ele><time>2026-03-29T09:10:45.999Z</time></trkpt><trkpt lat="42.002116351830985" lon="12.84426384904459"><ele>466.0</ele><time>2026-03-29T09:10:46.999Z</time></trkpt><trkpt lat="42.00211890872247" lon="12.844108156525595"><ele>466.0</ele><time>2026-03-29T09:10:47.999Z</time></trkpt><trkpt lat="42.00208584733121" lon="12.84393034395487"><ele>466.0</ele><time>2026-03-29T09:10:48.999Z</time></trkpt><trkpt lat="42.002049609598856" lon="12.843739713739728"><ele>466.0</ele><time>2026-03-29T09:10:49.999Z</time></trkpt><trkpt lat="42.00201832255665" lon="12.84352801641482"><ele>466.0</ele><time>2026-03-29T09:10:50.999Z</time></trkpt><trkpt lat="42.0020073709352" lon="12.843317135928718"><ele>466.0</ele><time>2026-03-29T09:10:51.999Z</time></trkpt><trkpt lat="42.00200664782609" lon="12.843093477587562"><ele>466.0</ele><time>2026-03-29T09:10:52.999Z</time></trkpt><trkpt lat="42.002010081667805" lon="12.842843083495174"><ele>466.0</ele><time>2026-03-29T09:10:53.999Z</time></trkpt><trkpt lat="42.00204902758583" lon="12.842594167247144"><ele>463.33333333333337</ele><time>2026-03-29T09:10:54.999Z</time></trkpt><trkpt lat="42.00206836495472" lon="12.842324623212008"><ele>460.66666666666663</ele><time>2026-03-29T09:10:55.998Z</time></trkpt><trkpt lat="42.00210381071113" lon="12.842079221118544"><ele>458.0</ele><time>2026-03-29T09:10:56.998Z</time></trkpt><trkpt lat="42.00213565005331" lon="12.84186212288281"><ele>454.0</ele><time>2026-03-29T09:10:57.998Z</time></trkpt><trkpt lat="42.002184673819066" lon="12.841661739257507"><ele>450.0</ele><time>2026-03-29T09:10:58.998Z</time></trkpt><trkpt lat="42.0022721961277" lon="12.841493991055069"><ele>446.0</ele><time>2026-03-29T09:10:59.998Z</time></trkpt><trkpt lat="42.002368445828864" lon="12.84134280368746"><ele>446.0</ele><time>2026-03-29T09:11:00.998Z</time></trkpt><trkpt lat="42.002497995061994" lon="12.841221176802783"><ele>446.0</ele><time>2026-03-29T09:11:01.998Z</time></trkpt><trkpt lat="42.002646182807354" lon="12.84110157908798"><ele>446.0</ele><time>2026-03-29T09:11:02.998Z</time></trkpt><trkpt lat="42.00280092369067" lon="12.841024224760536"><ele>447.66666666666663</ele><time>2026-03-29T09:11:03.998Z</time></trkpt><trkpt lat="42.002957589038445" lon="12.840965876338847"><ele>449.33333333333337</ele><time>2026-03-29T09:11:04.998Z</time></trkpt><trkpt lat="42.00311408067081" lon="12.840925919746494"><ele>451.0</ele><time>2026-03-29T09:11:05.998Z</time></trkpt><trkpt lat="42.003262709788714" lon="12.840895439717197"><ele>453.8</ele><time>2026-03-29T09:11:06.998Z</time></trkpt><trkpt lat="42.00339818997314" lon="12.840878450926459"><ele>456.6</ele><time>2026-03-29T09:11:07.998Z</time></trkpt><trkpt lat="42.00350427327237" lon="12.84086728894518"><ele>459.4</ele><time>2026-03-29T09:11:08.998Z</time></trkpt><trkpt lat="42.00358126359346" lon="12.840855789892286"><ele>462.2</ele><time>2026-03-29T09:11:09.998Z</time></trkpt><trkpt lat="42.0036446890223" lon="12.840829912713126"><ele>465.0</ele><time>2026-03-29T09:11:10.998Z</time></trkpt><trkpt lat="42.00369020011325" lon="12.840748738827095"><ele>465.0</ele><time>2026-03-29T09:11:11.998Z</time></trkpt><trkpt lat="42.0037162745991" lon="12.840634608497101"><ele>465.0</ele><time>2026-03-29T09:11:12.998Z</time></trkpt><trkpt lat="42.00364356649896" lon="12.84049196139918"><ele>465.0</ele><time>2026-03-29T09:11:13.998Z</time></trkpt><trkpt lat="42.003552317438896" lon="12.840350665340276"><ele>465.0</ele><time>2026-03-29T09:11:14.998Z</time></trkpt><trkpt lat="42.003456023433806" lon="12.840190284591896"><ele>462.66666666666663</ele><time>2026-03-29T09:11:15.998Z</time></trkpt><trkpt lat="42.00336514316612" lon="12.840020234029163"><ele>460.3333333333333</ele><time>2026-03-29T09:11:16.998Z</time></trkpt><trkpt lat="42.003264364884274" lon="12.839840297682402"><ele>458.0</ele><time>2026-03-29T09:11:17.998Z</time></trkpt><trkpt lat="42.00316784222828" lon="12.839669922469476"><ele>451.75</ele><time>2026-03-29T09:11:18.998Z</time></trkpt><trkpt lat="42.00307990209029" lon="12.839506726920499"><ele>445.5</ele><time>2026-03-29T09:11:19.998Z</time></trkpt><trkpt lat="42.00300828277054" lon="12.83934938990383"><ele>439.25</ele><time>2026-03-29T09:11:20.998Z</time></trkpt><trkpt lat="42.002966512956945" lon="12.839186031877633"><ele>433.0</ele><time>2026-03-29T09:11:21.998Z</time></trkpt><trkpt lat="42.002941775029626" lon="12.839021594230497"><ele>433.0</ele><time>2026-03-29T09:11:22.998Z</time></trkpt><trkpt lat="42.00293925447886" lon="12.838844821954968"><ele>433.0</ele><time>2026-03-29T09:11:23.998Z</time></trkpt><trkpt lat="42.002943077813015" lon="12.838639881163102"><ele>433.0</ele><time>2026-03-29T09:11:24.998Z</time></trkpt><trkpt lat="42.00295924525018" lon="12.838444353488795"><ele>433.0</ele><time>2026-03-29T09:11:25.998Z</time></trkpt><trkpt lat="42.00298828202873" lon="12.838274717316992"><ele>435.1666666666667</ele><time>2026-03-29T09:11:26.998Z</time></trkpt><trkpt lat="42.00303752862787" lon="12.83815819385852"><ele>437.33333333333337</ele><time>2026-03-29T09:11:27.998Z</time></trkpt><trkpt lat="42.003066161512166" lon="12.838069145501578"><ele>439.5</ele><time>2026-03-29T09:11:28.998Z</time></trkpt><trkpt lat="42.00305240166345" lon="12.837983932664535"><ele>441.66666666666663</ele><time>2026-03-29T09:11:29.998Z</time></trkpt><trkpt lat="42.002994782277085" lon="12.8379002076133"><ele>443.8333333333333</ele><time>2026-03-29T09:11:30.998Z</time></trkpt><trkpt lat="42.00290416545923" lon="12.837866454025937"><ele>446.0</ele><time>2026-03-29T09:11:31.998Z</time></trkpt><trkpt lat="42.00280899593641" lon="12.837890710373948"><ele>446.0</ele><time>2026-03-29T09:11:32.998Z</time></trkpt><trkpt lat="42.002720660592416" lon="12.837938790939312"><ele>446.0</ele><time>2026-03-29T09:11:33.998Z</time></trkpt><trkpt lat="42.00262281859417" lon="12.837987274365311"><ele>446.0</ele><time>2026-03-29T09:11:34.998Z</time></trkpt><trkpt lat="42.00252578959547" lon="12.838039828934882"><ele>446.0</ele><time>2026-03-29T09:11:35.998Z</time></trkpt><trkpt lat="42.00244181506407" lon="12.838090425555269"><ele>446.0</ele><time>2026-03-29T09:11:36.998Z</time></trkpt><trkpt lat="42.00235059043895" lon="12.838143246201602"><ele>445.0</ele><time>2026-03-29T09:11:37.998Z</time></trkpt><trkpt lat="42.00225039941685" lon="12.838203595357363"><ele>444.0</ele><time>2026-03-29T09:11:38.998Z</time></trkpt><trkpt lat="42.00214160837777" lon="12.838269589973779"><ele>443.0</ele><time>2026-03-29T09:11:39.998Z</time></trkpt><trkpt lat="42.00202208618377" lon="12.838344887027585"><ele>442.0</ele><time>2026-03-29T09:11:40.998Z</time></trkpt><trkpt lat="42.001897578790846" lon="12.838427857357942"><ele>435.5</ele><time>2026-03-29T09:11:41.998Z</time></trkpt><trkpt lat="42.00178010099178" lon="12.838508754651507"><ele>429.0</ele><time>2026-03-29T09:11:42.998Z</time></trkpt><trkpt lat="42.001645322472555" lon="12.838575676155708"><ele>422.5</ele><time>2026-03-29T09:11:43.999Z</time></trkpt><trkpt lat="42.001491844882686" lon="12.83860939295125"><ele>416.0</ele><time>2026-03-29T09:11:44.999Z</time></trkpt><trkpt lat="42.001343557683775" lon="12.838603242970306"><ele>416.0</ele><time>2026-03-29T09:11:45.999Z</time></trkpt><trkpt lat="42.0011963494559" lon="12.83855843942623"><ele>416.0</ele><time>2026-03-29T09:11:46.999Z</time></trkpt><trkpt lat="42.00106461363165" lon="12.838482200235237"><ele>416.0</ele><time>2026-03-29T09:11:47.999Z</time></trkpt><trkpt lat="42.00095574146242" lon="12.838408350293095"><ele>416.0</ele><time>2026-03-29T09:11:48.999Z</time></trkpt><trkpt lat="42.00086763817005" lon="12.838359769141215"><ele>422.6</ele><time>2026-03-29T09:11:49.999Z</time></trkpt><trkpt lat="42.00078139615642" lon="12.838346106616667"><ele>429.20000000000005</ele><time>2026-03-29T09:11:50.999Z</time></trkpt><trkpt lat="42.00068880646151" lon="12.838384308322798"><ele>435.79999999999995</ele><time>2026-03-29T09:11:51.999Z</time></trkpt><trkpt lat="42.00060516146168" lon="12.8384869573482"><ele>442.4</ele><time>2026-03-29T09:11:52.999Z</time></trkpt><trkpt lat="42.00055048629153" lon="12.838656581996789"><ele>449.0</ele><time>2026-03-29T09:11:53.999Z</time></trkpt><trkpt lat="42.000509671257966" lon="12.838838231731357"><ele>449.0</ele><time>2026-03-29T09:11:54.999Z</time></trkpt><trkpt lat="42.00045162623787" lon="12.839011336434476"><ele>449.0</ele><time>2026-03-29T09:11:55.999Z</time></trkpt><trkpt lat="42.00040392925328" lon="12.839195421969855"><ele>449.0</ele><time>2026-03-29T09:11:56.999Z</time></trkpt><trkpt lat="42.000343218453764" lon="12.83936268252804"><ele>449.0</ele><time>2026-03-29T09:11:57.999Z</time></trkpt><trkpt lat="42.00025267993801" lon="12.839543986779214"><ele>440.0</ele><time>2026-03-29T09:11:58.999Z</time></trkpt><trkpt lat="42.000148765109365" lon="12.839710126122904"><ele>431.0</ele><time>2026-03-29T09:11:59.999Z</time></trkpt><trkpt lat="42.0000356909985" lon="12.839852074093393"><ele>422.0</ele><time>2026-03-29T09:12:00.999Z</time></trkpt><trkpt lat="41.99989681749092" lon="12.839970982422615"><ele>422.0</ele><time>2026-03-29T09:12:01.999Z</time></trkpt><trkpt lat="41.99973727779465" lon="12.840073882737773"><ele>422.0</ele><time>2026-03-29T09:12:02.999Z</time></trkpt><trkpt lat="41.99958104639538" lon="12.84015378939617"><ele>422.0</ele><time>2026-03-29T09:12:03.999Z</time></trkpt><trkpt lat="41.999428036812276" lon="12.840208059196097"><ele>413.0</ele><time>2026-03-29T09:12:04.999Z</time></trkpt><trkpt lat="41.9992725398593" lon="12.840263753285875"><ele>404.0</ele><time>2026-03-29T09:12:05.999Z</time></trkpt><trkpt lat="41.99910514528399" lon="12.84028032579831"><ele>395.0</ele><time>2026-03-29T09:12:06.999Z</time></trkpt><trkpt lat="41.99893196440365" lon="12.840271398274208"><ele>395.0</ele><time>2026-03-29T09:12:07.999Z</time></trkpt><trkpt lat="41.99875592318023" lon="12.840214224646253"><ele>395.0</ele><time>2026-03-29T09:12:08.999Z</time></trkpt><trkpt lat="41.99857115995589" lon="12.840184911458847"><ele>395.0</ele><time>2026-03-29T09:12:09.999Z</time></trkpt><trkpt lat="41.99838621640541" lon="12.84011967392146"><ele>401.66666666666663</ele><time>2026-03-29T09:12:10.999Z</time></trkpt><trkpt lat="41.99820499138315" lon="12.840033778640844"><ele>408.33333333333337</ele><time>2026-03-29T09:12:11.999Z</time></trkpt><trkpt lat="41.998031952862945" lon="12.839930806964404"><ele>415.0</ele><time>2026-03-29T09:12:12.999Z</time></trkpt><trkpt lat="41.99785179339362" lon="12.83980716784656"><ele>415.0</ele><time>2026-03-29T09:12:13.999Z</time></trkpt><trkpt lat="41.997663849990175" lon="12.839657414962977"><ele>415.0</ele><time>2026-03-29T09:12:14.999Z</time></trkpt><trkpt lat="41.997493899828804" lon="12.839491281201521"><ele>415.0</ele><time>2026-03-29T09:12:15.999Z</time></trkpt><trkpt lat="41.99737531856317" lon="12.8393451628827"><ele>414.0</ele><time>2026-03-29T09:12:16.999Z</time></trkpt><trkpt lat="41.99728901590545" lon="12.839216701206752"><ele>413.0</ele><time>2026-03-29T09:12:17.999Z</time></trkpt><trkpt lat="41.99723395790048" lon="12.839099063443664"><ele>412.0</ele><time>2026-03-29T09:12:18.999Z</time></trkpt><trkpt lat="41.997194804892494" lon="12.838985911652761"><ele>411.0</ele><time>2026-03-29T09:12:19.999Z</time></trkpt><trkpt lat="41.99714527302899" lon="12.838864683756205"><ele>410.0</ele><time>2026-03-29T09:12:21.999Z</time></trkpt><trkpt lat="41.99711249921464" lon="12.839098319511532"><ele>409.99999999999994</ele><time>2026-03-29T09:13:00.999Z</time></trkpt><trkpt lat="41.99714462698054" lon="12.839182085518491"><ele>410.0</ele><time>2026-03-29T09:13:01.999Z</time></trkpt><trkpt lat="41.99718207274808" lon="12.839269112111666"><ele>410.0</ele><time>2026-03-29T09:13:02.999Z</time></trkpt><trkpt lat="41.99723375711071" lon="12.839367343866439"><ele>410.0</ele><time>2026-03-29T09:13:03.999Z</time></trkpt><trkpt lat="41.99729451102716" lon="12.8394762123731"><ele>409.99999999999994</ele><time>2026-03-29T09:13:04.999Z</time></trkpt><trkpt lat="41.99735750928666" lon="12.839592974268339"><ele>410.0</ele><time>2026-03-29T09:13:05.999Z</time></trkpt><trkpt lat="41.997418684991075" lon="12.83972903665806"><ele>411.25</ele><time>2026-03-29T09:13:06.998Z</time></trkpt><trkpt lat="41.99747836740277" lon="12.839867136178809"><ele>412.5</ele><time>2026-03-29T09:13:07.998Z</time></trkpt><trkpt lat="41.99752318361779" lon="12.840030773239228"><ele>413.75</ele><time>2026-03-29T09:13:08.998Z</time></trkpt><trkpt lat="41.99759573403028" lon="12.840179282188815"><ele>415.0</ele><time>2026-03-29T09:13:09.998Z</time></trkpt><trkpt lat="41.9976499824909" lon="12.84033254672145"><ele>408.0</ele><time>2026-03-29T09:13:10.998Z</time></trkpt><trkpt lat="41.99770846737408" lon="12.840460144207157"><ele>401.0</ele><time>2026-03-29T09:13:11.998Z</time></trkpt><trkpt lat="41.997780782596315" lon="12.84058028497856"><ele>394.0</ele><time>2026-03-29T09:13:12.998Z</time></trkpt><trkpt lat="41.997862662978626" lon="12.840702737937528"><ele>387.0</ele><time>2026-03-29T09:13:13.998Z</time></trkpt><trkpt lat="41.99795741788959" lon="12.84081178054526"><ele>387.0</ele><time>2026-03-29T09:13:14.998Z</time></trkpt><trkpt lat="41.99807262560525" lon="12.84090977834638"><ele>387.0</ele><time>2026-03-29T09:13:15.998Z</time></trkpt><trkpt lat="41.998204559017225" lon="12.840989974710432"><ele>387.0</ele><time>2026-03-29T09:13:16.998Z</time></trkpt><trkpt lat="41.99833637458283" lon="12.841066326114817"><ele>387.0</ele><time>2026-03-29T09:13:17.998Z</time></trkpt><trkpt lat="41.99847048952447" lon="12.84114380248802"><ele>381.0</ele><time>2026-03-29T09:13:18.998Z</time></trkpt><trkpt lat="41.99860259157985" lon="12.841216067321788"><ele>375.0</ele><time>2026-03-29T09:13:19.998Z</time></trkpt><trkpt lat="41.99873093396238" lon="12.841286982785336"><ele>369.0</ele><time>2026-03-29T09:13:20.998Z</time></trkpt><trkpt lat="41.998861927454215" lon="12.84134553780145"><ele>363.0</ele><time>2026-03-29T09:13:21.998Z</time></trkpt><trkpt lat="41.99900631185356" lon="12.841388408347303"><ele>363.0</ele><time>2026-03-29T09:13:22.998Z</time></trkpt><trkpt lat="41.99915896720905" lon="12.841410884725992"><ele>363.0</ele><time>2026-03-29T09:13:23.998Z</time></trkpt><trkpt lat="41.99929202525133" lon="12.841449378846255"><ele>363.0</ele><time>2026-03-29T09:13:24.998Z</time></trkpt><trkpt lat="41.99939514327397" lon="12.841448560706205"><ele>363.0</ele><time>2026-03-29T09:13:25.998Z</time></trkpt><trkpt lat="41.99946222004149" lon="12.841465747519903"><ele>365.59999999999997</ele><time>2026-03-29T09:13:26.998Z</time></trkpt><trkpt lat="41.99954120974624" lon="12.841480315063977"><ele>368.2</ele><time>2026-03-29T09:13:28.998Z</time></trkpt><trkpt lat="41.99961036754924" lon="12.841503293846658"><ele>370.8</ele><time>2026-03-29T09:13:31.998Z</time></trkpt><trkpt lat="41.999510504429175" lon="12.84158913308775"><ele>373.4</ele><time>2026-03-29T09:13:33.998Z</time></trkpt><trkpt lat="41.99940829674356" lon="12.841618264782515"><ele>376.0</ele><time>2026-03-29T09:13:34.998Z</time></trkpt><trkpt lat="41.99930481295113" lon="12.84164798981759"><ele>376.0</ele><time>2026-03-29T09:13:35.998Z</time></trkpt><trkpt lat="41.999178610006574" lon="12.841692682930164"><ele>376.0</ele><time>2026-03-29T09:13:36.998Z</time></trkpt><trkpt lat="41.99903965099001" lon="12.841733830164427"><ele>376.0</ele><time>2026-03-29T09:13:37.998Z</time></trkpt><trkpt lat="41.99888502262075" lon="12.841771016218948"><ele>376.0</ele><time>2026-03-29T09:13:38.998Z</time></trkpt><trkpt lat="41.998728670286354" lon="12.841799316401536"><ele>371.66666666666663</ele><time>2026-03-29T09:13:39.998Z</time></trkpt><trkpt lat="41.99857294294046" lon="12.841796735893105"><ele>367.3333333333333</ele><time>2026-03-29T09:13:40.998Z</time></trkpt><trkpt lat="41.998413805495716" lon="12.841830328020409"><ele>363.0</ele><time>2026-03-29T09:13:41.998Z</time></trkpt><trkpt lat="41.99825561419" lon="12.841846556756497"><ele>357.5</ele><time>2026-03-29T09:13:42.998Z</time></trkpt><trkpt lat="41.9981072169182" lon="12.841868494092024"><ele>352.0</ele><time>2026-03-29T09:13:43.998Z</time></trkpt><trkpt lat="41.99797398241241" lon="12.84188940308275"><ele>346.5</ele><time>2026-03-29T09:13:44.998Z</time></trkpt><trkpt lat="41.99785482228009" lon="12.8419102378749"><ele>341.0</ele><time>2026-03-29T09:13:45.998Z</time></trkpt><trkpt lat="41.997750099263556" lon="12.841927329323099"><ele>341.0</ele><time>2026-03-29T09:13:46.998Z</time></trkpt><trkpt lat="41.9976550589136" lon="12.841948784324112"><ele>341.0</ele><time>2026-03-29T09:13:47.998Z</time></trkpt><trkpt lat="41.997550354313965" lon="12.842003303639833"><ele>341.0</ele><time>2026-03-29T09:13:48.998Z</time></trkpt><trkpt lat="41.997443779834256" lon="12.842118467883166"><ele>341.0</ele><time>2026-03-29T09:13:49.999Z</time></trkpt><trkpt lat="41.99733839661846" lon="12.842276854632795"><ele>339.0</ele><time>2026-03-29T09:13:51Z</time></trkpt><trkpt lat="41.997216336922286" lon="12.842455569350486"><ele>337.0</ele><time>2026-03-29T09:13:51.999Z</time></trkpt><trkpt lat="41.99705986164812" lon="12.842650808684505"><ele>335.0</ele><time>2026-03-29T09:13:52.999Z</time></trkpt><trkpt lat="41.99688248161038" lon="12.842851377367166"><ele>333.33333333333337</ele><time>2026-03-29T09:13:54Z</time></trkpt><trkpt lat="41.99671527150505" lon="12.843019883080764"><ele>331.6666666666667</ele><time>2026-03-29T09:13:54.999Z</time></trkpt><trkpt lat="41.996556049171915" lon="12.843172850633142"><ele>330.0</ele><time>2026-03-29T09:13:55.999Z</time></trkpt><trkpt lat="41.99639879361602" lon="12.84331915525665"><ele>326.3333333333333</ele><time>2026-03-29T09:13:57Z</time></trkpt><trkpt lat="41.99622880388221" lon="12.843472621459766"><ele>322.66666666666663</ele><time>2026-03-29T09:13:58Z</time></trkpt><trkpt lat="41.996027879488025" lon="12.843605658241124"><ele>319.0</ele><time>2026-03-29T09:13:59Z</time></trkpt><trkpt lat="41.99583646289122" lon="12.84375458691208"><ele>317.66666666666663</ele><time>2026-03-29T09:14:00Z</time></trkpt><trkpt lat="41.99564932348671" lon="12.843894631345966"><ele>316.3333333333333</ele><time>2026-03-29T09:14:01Z</time></trkpt><trkpt lat="41.995461637219144" lon="12.844031849562587"><ele>315.0</ele><time>2026-03-29T09:14:02Z</time></trkpt><trkpt lat="41.99528576351458" lon="12.8441830646942"><ele>312.3333333333333</ele><time>2026-03-29T09:14:03Z</time></trkpt><trkpt lat="41.99510225784227" lon="12.844316528338647"><ele>309.66666666666663</ele><time>2026-03-29T09:14:04Z</time></trkpt><trkpt lat="41.99490856447778" lon="12.844429292078924"><ele>307.0</ele><time>2026-03-29T09:14:05Z</time></trkpt><trkpt lat="41.99471994773159" lon="12.844577863941264"><ele>306.0</ele><time>2026-03-29T09:14:06Z</time></trkpt><trkpt lat="41.994543236471415" lon="12.844708189213806"><ele>305.0</ele><time>2026-03-29T09:14:07Z</time></trkpt><trkpt lat="41.99438205543917" lon="12.844820156770696"><ele>304.0</ele><time>2026-03-29T09:14:08Z</time></trkpt><trkpt lat="41.994232836489026" lon="12.844922796945486"><ele>303.25</ele><time>2026-03-29T09:14:08.999Z</time></trkpt><trkpt lat="41.99408078360649" lon="12.844978826830003"><ele>302.5</ele><time>2026-03-29T09:14:09.999Z</time></trkpt><trkpt lat="41.993948680530146" lon="12.845035094401755"><ele>301.75</ele><time>2026-03-29T09:14:10.999Z</time></trkpt><trkpt lat="41.99382741801623" lon="12.845076891050136"><ele>301.0</ele><time>2026-03-29T09:14:11.999Z</time></trkpt><trkpt lat="41.993712405446146" lon="12.84512549444052"><ele>301.25</ele><time>2026-03-29T09:14:12.999Z</time></trkpt><trkpt lat="41.993577504740436" lon="12.845145499650517"><ele>301.5</ele><time>2026-03-29T09:14:13.999Z</time></trkpt><trkpt lat="41.99344729275975" lon="12.845155955936335"><ele>301.75</ele><time>2026-03-29T09:14:14.999Z</time></trkpt><trkpt lat="41.993338092303276" lon="12.845148312969243"><ele>302.0</ele><time>2026-03-29T09:14:15.999Z</time></trkpt><trkpt lat="41.99324278166625" lon="12.845139565395911"><ele>302.0</ele><time>2026-03-29T09:14:16.999Z</time></trkpt><trkpt lat="41.993148657625234" lon="12.845135749312329"><ele>302.0</ele><time>2026-03-29T09:14:17.999Z</time></trkpt><trkpt lat="41.99305072364298" lon="12.84513094759452"><ele>302.0</ele><time>2026-03-29T09:14:18.999Z</time></trkpt><trkpt lat="41.992955505377594" lon="12.845082100302765"><ele>302.0</ele><time>2026-03-29T09:14:19.999Z</time></trkpt><trkpt lat="41.992859936715995" lon="12.845014285780657"><ele>302.0</ele><time>2026-03-29T09:14:20.999Z</time></trkpt><trkpt lat="41.992758794257824" lon="12.844964802936792"><ele>302.5</ele><time>2026-03-29T09:14:21.999Z</time></trkpt><trkpt lat="41.99265153499341" lon="12.84491200330861"><ele>303.0</ele><time>2026-03-29T09:14:22.999Z</time></trkpt><trkpt lat="41.992526814293534" lon="12.844898923293101"><ele>303.5</ele><time>2026-03-29T09:14:23.999Z</time></trkpt><trkpt lat="41.99240605763577" lon="12.84490812059163"><ele>304.0</ele><time>2026-03-29T09:14:24.999Z</time></trkpt><trkpt lat="41.99229807588869" lon="12.844924453478226"><ele>304.75</ele><time>2026-03-29T09:14:25.999Z</time></trkpt><trkpt lat="41.992194177428914" lon="12.844958383961863"><ele>305.5</ele><time>2026-03-29T09:14:26.999Z</time></trkpt><trkpt lat="41.992081798762364" lon="12.844976654925592"><ele>306.25</ele><time>2026-03-29T09:14:27.999Z</time></trkpt><trkpt lat="41.99195726725504" lon="12.845031125015655"><ele>307.0</ele><time>2026-03-29T09:14:28.999Z</time></trkpt><trkpt lat="41.991838468109805" lon="12.845086620757808"><ele>307.0</ele><time>2026-03-29T09:14:29.999Z</time></trkpt><trkpt lat="41.99172448590209" lon="12.845139866110479"><ele>307.0</ele><time>2026-03-29T09:14:30.999Z</time></trkpt><trkpt lat="41.991611820862516" lon="12.8452134139747"><ele>307.0</ele><time>2026-03-29T09:14:31.999Z</time></trkpt><trkpt lat="41.991496129580405" lon="12.845253109321005"><ele>307.0</ele><time>2026-03-29T09:14:32.999Z</time></trkpt><trkpt lat="41.99138070998076" lon="12.845254768138938"><ele>304.6</ele><time>2026-03-29T09:14:33.999Z</time></trkpt><trkpt lat="41.99127353276576" lon="12.845275842045998"><ele>302.2</ele><time>2026-03-29T09:14:34.999Z</time></trkpt><trkpt lat="41.99116694565252" lon="12.845294939668575"><ele>299.8</ele><time>2026-03-29T09:14:35.999Z</time></trkpt><trkpt lat="41.991049915012" lon="12.84530826684702"><ele>297.4</ele><time>2026-03-29T09:14:36.999Z</time></trkpt><trkpt lat="41.99093812095335" lon="12.845327566245144"><ele>295.0</ele><time>2026-03-29T09:14:37.999Z</time></trkpt><trkpt lat="41.99082303421504" lon="12.845315506668488"><ele>292.5</ele><time>2026-03-29T09:14:38.999Z</time></trkpt><trkpt lat="41.99070172264201" lon="12.84530679678115"><ele>290.0</ele><time>2026-03-29T09:14:39.999Z</time></trkpt><trkpt lat="41.99057940756507" lon="12.845300419343516"><ele>287.5</ele><time>2026-03-29T09:14:40.999Z</time></trkpt><trkpt lat="41.990463712330964" lon="12.845295109333781"><ele>285.0</ele><time>2026-03-29T09:14:41.999Z</time></trkpt><trkpt lat="41.99035896243775" lon="12.845286502341985"><ele>285.0</ele><time>2026-03-29T09:14:42.999Z</time></trkpt><trkpt lat="41.990253216931144" lon="12.845291790901612"><ele>285.0</ele><time>2026-03-29T09:14:43.999Z</time></trkpt><trkpt lat="41.990140914126144" lon="12.845271573948887"><ele>285.0</ele><time>2026-03-29T09:14:44.999Z</time></trkpt><trkpt lat="41.99002684213053" lon="12.845275142055161"><ele>285.0</ele><time>2026-03-29T09:14:45.999Z</time></trkpt><trkpt lat="41.989911847559064" lon="12.845283955495857"><ele>285.0</ele><time>2026-03-29T09:14:46.999Z</time></trkpt><trkpt lat="41.989789751651166" lon="12.845291123525007"><ele>283.75</ele><time>2026-03-29T09:14:47.999Z</time></trkpt><trkpt lat="41.989672568452406" lon="12.845298631072673"><ele>282.5</ele><time>2026-03-29T09:14:48.999Z</time></trkpt><trkpt lat="41.98955845421742" lon="12.845307079388114"><ele>281.25</ele><time>2026-03-29T09:14:49.999Z</time></trkpt><trkpt lat="41.98944711621335" lon="12.845316444803839"><ele>280.0</ele><time>2026-03-29T09:14:50.999Z</time></trkpt><trkpt lat="41.98933428088654" lon="12.8453290468465"><ele>280.0</ele><time>2026-03-29T09:14:51.999Z</time></trkpt><trkpt lat="41.9892146212685" lon="12.845345064117469"><ele>280.0</ele><time>2026-03-29T09:14:52.999Z</time></trkpt><trkpt lat="41.98910013465317" lon="12.845381751149297"><ele>280.0</ele><time>2026-03-29T09:14:53.999Z</time></trkpt><trkpt lat="41.98898134361661" lon="12.84539513017118"><ele>280.0</ele><time>2026-03-29T09:14:54.999Z</time></trkpt><trkpt lat="41.98885233989248" lon="12.845403916160862"><ele>278.25</ele><time>2026-03-29T09:14:55.999Z</time></trkpt><trkpt lat="41.98871869164661" lon="12.845416557002514"><ele>276.5</ele><time>2026-03-29T09:14:56.999Z</time></trkpt><trkpt lat="41.98858177672002" lon="12.845424334166248"><ele>274.75</ele><time>2026-03-29T09:14:57.999Z</time></trkpt><trkpt lat="41.98844373231675" lon="12.845427693857042"><ele>273.0</ele><time>2026-03-29T09:14:58.999Z</time></trkpt><trkpt lat="41.988280683012114" lon="12.845419816926231"><ele>269.6666666666667</ele><time>2026-03-29T09:14:59.999Z</time></trkpt><trkpt lat="41.988109734948154" lon="12.845426448112576"><ele>266.33333333333337</ele><time>2026-03-29T09:15:00.999Z</time></trkpt><trkpt lat="41.98796105196711" lon="12.845432058189196"><ele>263.0</ele><time>2026-03-29T09:15:01.999Z</time></trkpt><trkpt lat="41.98782475938077" lon="12.845460698576394"><ele>263.0</ele><time>2026-03-29T09:15:02.999Z</time></trkpt><trkpt lat="41.98770213286112" lon="12.845471043750484"><ele>263.0</ele><time>2026-03-29T09:15:03.999Z</time></trkpt><trkpt lat="41.98757780794795" lon="12.845514671158487"><ele>263.0</ele><time>2026-03-29T09:15:04.999Z</time></trkpt><trkpt lat="41.98745971208157" lon="12.845602356633691"><ele>263.0</ele><time>2026-03-29T09:15:05.999Z</time></trkpt><trkpt lat="41.98734605268069" lon="12.845702824557096"><ele>261.5</ele><time>2026-03-29T09:15:06.999Z</time></trkpt><trkpt lat="41.98722777219786" lon="12.845773496644938"><ele>260.0</ele><time>2026-03-29T09:15:07.999Z</time></trkpt><trkpt lat="41.98711060463942" lon="12.845806108988247"><ele>258.5</ele><time>2026-03-29T09:15:08.999Z</time></trkpt><trkpt lat="41.987009416169634" lon="12.845865274230794"><ele>257.0</ele><time>2026-03-29T09:15:09.999Z</time></trkpt><trkpt lat="41.986904583101506" lon="12.845901816517193"><ele>257.0</ele><time>2026-03-29T09:15:10.999Z</time></trkpt><trkpt lat="41.98681013495132" lon="12.845941577544627"><ele>257.0</ele><time>2026-03-29T09:15:11.999Z</time></trkpt><trkpt lat="41.98671904406688" lon="12.845980393408201"><ele>257.0</ele><time>2026-03-29T09:15:12.999Z</time></trkpt><trkpt lat="41.98663290683598" lon="12.846026654630666"><ele>257.0</ele><time>2026-03-29T09:15:13.999Z</time></trkpt><trkpt lat="41.98653916209303" lon="12.846058925011405"><ele>257.0</ele><time>2026-03-29T09:15:14.999Z</time></trkpt><trkpt lat="41.98645694523891" lon="12.846117282421552"><ele>257.0</ele><time>2026-03-29T09:15:15.999Z</time></trkpt><trkpt lat="41.98639149588776" lon="12.846128144310525"><ele>257.0</ele><time>2026-03-29T09:15:16.999Z</time></trkpt><trkpt lat="41.98633358234815" lon="12.846162212390999"><ele>257.0</ele><time>2026-03-29T09:15:26.998Z</time></trkpt><trkpt lat="41.98634662153302" lon="12.846496987364086"><ele>257.0</ele><time>2026-03-29T09:15:38.998Z</time></trkpt><trkpt lat="41.98642283475974" lon="12.84669725611589"><ele>257.33333333333337</ele><time>2026-03-29T09:15:39.998Z</time></trkpt><trkpt lat="41.986501781157514" lon="12.84690652832363"><ele>257.6666666666667</ele><time>2026-03-29T09:15:40.998Z</time></trkpt><trkpt lat="41.986583905702055" lon="12.847138785588768"><ele>258.0</ele><time>2026-03-29T09:15:41.998Z</time></trkpt><trkpt lat="41.98664924219565" lon="12.847325140429861"><ele>258.0</ele><time>2026-03-29T09:15:42.998Z</time></trkpt><trkpt lat="41.986656960227805" lon="12.847538079566087"><ele>258.0</ele><time>2026-03-29T09:15:43.998Z</time></trkpt><trkpt lat="41.98665468008473" lon="12.847734461895067"><ele>258.0</ele><time>2026-03-29T09:15:44.998Z</time></trkpt><trkpt lat="41.98662569765594" lon="12.847935470731633"><ele>257.5</ele><time>2026-03-29T09:15:45.998Z</time></trkpt><trkpt lat="41.98657358407115" lon="12.848122369246418"><ele>257.0</ele><time>2026-03-29T09:15:46.998Z</time></trkpt><trkpt lat="41.98651299540901" lon="12.84829573305361"><ele>256.5</ele><time>2026-03-29T09:15:47.998Z</time></trkpt><trkpt lat="41.986428649976325" lon="12.848454915124584"><ele>256.0</ele><time>2026-03-29T09:15:48.998Z</time></trkpt><trkpt lat="41.98634212799002" lon="12.848603023625543"><ele>257.25</ele><time>2026-03-29T09:15:49.998Z</time></trkpt><trkpt lat="41.986261484403755" lon="12.848744200860079"><ele>258.5</ele><time>2026-03-29T09:15:50.998Z</time></trkpt><trkpt lat="41.98616697589579" lon="12.848875332843395"><ele>259.75</ele><time>2026-03-29T09:15:51.998Z</time></trkpt><trkpt lat="41.98609417295259" lon="12.849056501932806"><ele>261.0</ele><time>2026-03-29T09:15:52.998Z</time></trkpt><trkpt lat="41.98604355165166" lon="12.849279385517118"><ele>261.3333333333333</ele><time>2026-03-29T09:15:53.998Z</time></trkpt><trkpt lat="41.98602553008272" lon="12.849541494671717"><ele>261.66666666666663</ele><time>2026-03-29T09:15:54.998Z</time></trkpt><trkpt lat="41.98602171363165" lon="12.84979527074758"><ele>262.0</ele><time>2026-03-29T09:15:56Z</time></trkpt><trkpt lat="41.98601783314153" lon="12.85001877253586"><ele>262.3333333333333</ele><time>2026-03-29T09:15:57Z</time></trkpt><trkpt lat="41.9860061823005" lon="12.850259326455454"><ele>262.6666666666667</ele><time>2026-03-29T09:15:58Z</time></trkpt><trkpt lat="41.98598741304279" lon="12.850412110589092"><ele>263.0</ele><time>2026-03-29T09:15:59Z</time></trkpt><trkpt lat="41.985947004274166" lon="12.850626000451152"><ele>263.0</ele><time>2026-03-29T09:16:00Z</time></trkpt><trkpt lat="41.98588107301185" lon="12.850844161804817"><ele>263.0</ele><time>2026-03-29T09:16:01Z</time></trkpt><trkpt lat="41.98579190482586" lon="12.851053045763832"><ele>263.0</ele><time>2026-03-29T09:16:02Z</time></trkpt><trkpt lat="41.985685041216485" lon="12.85126916123846"><ele>263.0</ele><time>2026-03-29T09:16:03Z</time></trkpt><trkpt lat="41.98556240740424" lon="12.851481689480035"><ele>263.0</ele><time>2026-03-29T09:16:04Z</time></trkpt><trkpt lat="41.985417231001115" lon="12.851696868380165"><ele>263.0</ele><time>2026-03-29T09:16:05Z</time></trkpt><trkpt lat="41.985252842156875" lon="12.851908829565934"><ele>261.0</ele><time>2026-03-29T09:16:06Z</time></trkpt><trkpt lat="41.98507933326253" lon="12.852116242909274"><ele>259.0</ele><time>2026-03-29T09:16:07Z</time></trkpt><trkpt lat="41.98490105830813" lon="12.852325404507923"><ele>259.0</ele><time>2026-03-29T09:16:08Z</time></trkpt><trkpt lat="41.9847381774571" lon="12.852542491976742"><ele>259.0</ele><time>2026-03-29T09:16:09Z</time></trkpt><trkpt lat="41.984574161919" lon="12.852725182870081"><ele>259.0</ele><time>2026-03-29T09:16:10Z</time></trkpt><trkpt lat="41.98441465867137" lon="12.852903306661377"><ele>257.3333333333333</ele><time>2026-03-29T09:16:11Z</time></trkpt><trkpt lat="41.98426678490461" lon="12.853067765023782"><ele>255.66666666666669</ele><time>2026-03-29T09:16:12Z</time></trkpt><trkpt lat="41.984123899164366" lon="12.853231694469526"><ele>254.0</ele><time>2026-03-29T09:16:13Z</time></trkpt><trkpt lat="41.984007788727816" lon="12.85340242014699"><ele>254.33333333333334</ele><time>2026-03-29T09:16:14Z</time></trkpt><trkpt lat="41.98392143315057" lon="12.853591554827444"><ele>254.66666666666669</ele><time>2026-03-29T09:16:15Z</time></trkpt><trkpt lat="41.983858652178135" lon="12.85382885336462"><ele>255.0</ele><time>2026-03-29T09:16:16Z</time></trkpt><trkpt lat="41.98382231014736" lon="12.854124806738268"><ele>256.5</ele><time>2026-03-29T09:16:17Z</time></trkpt><trkpt lat="41.98380011524627" lon="12.854434143871444"><ele>258.0</ele><time>2026-03-29T09:16:18Z</time></trkpt><trkpt lat="41.98378947561021" lon="12.854746222955578"><ele>258.0</ele><time>2026-03-29T09:16:19Z</time></trkpt><trkpt lat="41.98377495778686" lon="12.855028177640516"><ele>258.0</ele><time>2026-03-29T09:16:20Z</time></trkpt><trkpt lat="41.98377513489713" lon="12.855275499027902"><ele>258.0</ele><time>2026-03-29T09:16:21Z</time></trkpt><trkpt lat="41.98376660356465" lon="12.855496634418763"><ele>257.75</ele><time>2026-03-29T09:16:21.999Z</time></trkpt><trkpt lat="41.98378417457991" lon="12.855701042323249"><ele>257.5</ele><time>2026-03-29T09:16:22.999Z</time></trkpt><trkpt lat="41.983825583536024" lon="12.855888416743044"><ele>257.25</ele><time>2026-03-29T09:16:23.999Z</time></trkpt><trkpt lat="41.983894078109216" lon="12.85606470763089"><ele>257.0</ele><time>2026-03-29T09:16:24.999Z</time></trkpt><trkpt lat="41.98398917196977" lon="12.856235653274242"><ele>257.0</ele><time>2026-03-29T09:16:25.999Z</time></trkpt><trkpt lat="41.98411769181825" lon="12.856395441477552"><ele>257.0</ele><time>2026-03-29T09:16:26.999Z</time></trkpt><trkpt lat="41.984279972040014" lon="12.85655605737435"><ele>257.0</ele><time>2026-03-29T09:16:27.999Z</time></trkpt><trkpt lat="41.9844671575166" lon="12.85673428057145"><ele>257.33333333333337</ele><time>2026-03-29T09:16:28.999Z</time></trkpt><trkpt lat="41.98465151244294" lon="12.856918742666636"><ele>257.6666666666667</ele><time>2026-03-29T09:16:29.999Z</time></trkpt><trkpt lat="41.984815506716146" lon="12.857085555673503"><ele>258.0</ele><time>2026-03-29T09:16:30.999Z</time></trkpt><trkpt lat="41.98496860515367" lon="12.85724199472414"><ele>259.3333333333333</ele><time>2026-03-29T09:16:31.999Z</time></trkpt><trkpt lat="41.985127196460496" lon="12.857401883934381"><ele>260.66666666666663</ele><time>2026-03-29T09:16:32.999Z</time></trkpt><trkpt lat="41.985291353436956" lon="12.857567777238428"><ele>262.0</ele><time>2026-03-29T09:16:33.999Z</time></trkpt><trkpt lat="41.98545724503914" lon="12.857737811766201"><ele>262.0</ele><time>2026-03-29T09:16:34.999Z</time></trkpt><trkpt lat="41.985626340277676" lon="12.857929327553736"><ele>262.0</ele><time>2026-03-29T09:16:35.999Z</time></trkpt><trkpt lat="41.985791847663066" lon="12.858141019860616"><ele>262.0</ele><time>2026-03-29T09:16:36.999Z</time></trkpt><trkpt lat="41.98593812534287" lon="12.858346834396837"><ele>267.0</ele><time>2026-03-29T09:16:37.999Z</time></trkpt><trkpt lat="41.98606545525557" lon="12.858537126473026"><ele>272.0</ele><time>2026-03-29T09:16:38.999Z</time></trkpt><trkpt lat="41.98616126951569" lon="12.858768530061951"><ele>277.0</ele><time>2026-03-29T09:16:39.999Z</time></trkpt><trkpt lat="41.98627851218759" lon="12.859013879526326"><ele>277.0</ele><time>2026-03-29T09:16:40.999Z</time></trkpt><trkpt lat="41.98637014498932" lon="12.859247888228422"><ele>277.0</ele><time>2026-03-29T09:16:41.999Z</time></trkpt><trkpt lat="41.98646123229106" lon="12.859464900963731"><ele>277.0</ele><time>2026-03-29T09:16:42.999Z</time></trkpt><trkpt lat="41.98655123899012" lon="12.859695299388362"><ele>278.66666666666663</ele><time>2026-03-29T09:16:43.999Z</time></trkpt><trkpt lat="41.986621733118255" lon="12.859946645653594"><ele>280.3333333333333</ele><time>2026-03-29T09:16:44.999Z</time></trkpt><trkpt lat="41.98666285692929" lon="12.860228197335738"><ele>282.0</ele><time>2026-03-29T09:16:45.999Z</time></trkpt><trkpt lat="41.986678033914274" lon="12.860510079147604"><ele>280.3333333333333</ele><time>2026-03-29T09:16:46.999Z</time></trkpt><trkpt lat="41.986667945210016" lon="12.860788808889266"><ele>278.66666666666663</ele><time>2026-03-29T09:16:47.999Z</time></trkpt><trkpt lat="41.98662285641762" lon="12.861072944972516"><ele>277.0</ele><time>2026-03-29T09:16:48.999Z</time></trkpt><trkpt lat="41.986545086849944" lon="12.861346669520518"><ele>277.0</ele><time>2026-03-29T09:16:49.999Z</time></trkpt><trkpt lat="41.98645146061544" lon="12.861574228209346"><ele>277.0</ele><time>2026-03-29T09:16:50.999Z</time></trkpt><trkpt lat="41.98636045513329" lon="12.861768139794503"><ele>277.0</ele><time>2026-03-29T09:16:51.999Z</time></trkpt><trkpt lat="41.98628003725391" lon="12.861955271689219"><ele>278.0</ele><time>2026-03-29T09:16:52.999Z</time></trkpt><trkpt lat="41.98622570510946" lon="12.862172730900625"><ele>279.0</ele><time>2026-03-29T09:16:53.999Z</time></trkpt><trkpt lat="41.98622259161076" lon="12.862412689133121"><ele>280.0</ele><time>2026-03-29T09:16:54.999Z</time></trkpt><trkpt lat="41.98627424062559" lon="12.862660814080318"><ele>280.0</ele><time>2026-03-29T09:16:55.999Z</time></trkpt><trkpt lat="41.98637356461364" lon="12.862882061842242"><ele>280.0</ele><time>2026-03-29T09:16:56.999Z</time></trkpt><trkpt lat="41.98651448453312" lon="12.863046646422708"><ele>280.0</ele><time>2026-03-29T09:16:57.999Z</time></trkpt><trkpt lat="41.986694627326806" lon="12.86315355840309"><ele>280.0</ele><time>2026-03-29T09:16:58.999Z</time></trkpt><trkpt lat="41.98689768520768" lon="12.86320303891653"><ele>280.0</ele><time>2026-03-29T09:16:59.999Z</time></trkpt><trkpt lat="41.98710121125772" lon="12.863222450288704"><ele>280.0</ele><time>2026-03-29T09:17:00.999Z</time></trkpt><trkpt lat="41.98728030560397" lon="12.863246217156439"><ele>280.0</ele><time>2026-03-29T09:17:01.999Z</time></trkpt><trkpt lat="41.987448020738796" lon="12.863277569100207"><ele>280.0</ele><time>2026-03-29T09:17:02.999Z</time></trkpt><trkpt lat="41.98760635035955" lon="12.863315099195479"><ele>280.0</ele><time>2026-03-29T09:17:03.999Z</time></trkpt><trkpt lat="41.98776035157485" lon="12.863382388123355"><ele>277.66666666666663</ele><time>2026-03-29T09:17:04.999Z</time></trkpt><trkpt lat="41.98791207309562" lon="12.863503358679283"><ele>275.3333333333333</ele><time>2026-03-29T09:17:05.999Z</time></trkpt><trkpt lat="41.98805599569797" lon="12.863648915891249"><ele>273.0</ele><time>2026-03-29T09:17:06.999Z</time></trkpt><trkpt lat="41.9881999278085" lon="12.863802314089474"><ele>280.6666666666667</ele><time>2026-03-29T09:17:07.999Z</time></trkpt><trkpt lat="41.988349741421054" lon="12.863947494119781"><ele>288.33333333333337</ele><time>2026-03-29T09:17:08.999Z</time></trkpt><trkpt lat="41.988496757669814" lon="12.864085700955085"><ele>296.0</ele><time>2026-03-29T09:17:09.999Z</time></trkpt><trkpt lat="41.98863910451728" lon="12.864226102910854"><ele>291.33333333333337</ele><time>2026-03-29T09:17:10.999Z</time></trkpt><trkpt lat="41.98877537546021" lon="12.864385644821267"><ele>286.6666666666667</ele><time>2026-03-29T09:17:11.999Z</time></trkpt><trkpt lat="41.988897682791425" lon="12.864578306582954"><ele>282.0</ele><time>2026-03-29T09:17:12.999Z</time></trkpt><trkpt lat="41.988997887147725" lon="12.864796036116296"><ele>282.0</ele><time>2026-03-29T09:17:13.999Z</time></trkpt><trkpt lat="41.98907789376093" lon="12.865026096748025"><ele>282.0</ele><time>2026-03-29T09:17:14.999Z</time></trkpt><trkpt lat="41.98915330877258" lon="12.865254664889141"><ele>282.0</ele><time>2026-03-29T09:17:15.999Z</time></trkpt><trkpt lat="41.989226302273664" lon="12.865467529229141"><ele>284.6666666666667</ele><time>2026-03-29T09:17:16.999Z</time></trkpt><trkpt lat="41.98930328942696" lon="12.86567500883231"><ele>287.33333333333337</ele><time>2026-03-29T09:17:17.999Z</time></trkpt><trkpt lat="41.98939204358556" lon="12.865883237453698"><ele>290.0</ele><time>2026-03-29T09:17:18.999Z</time></trkpt><trkpt lat="41.98950224080809" lon="12.866084016176298"><ele>283.6666666666667</ele><time>2026-03-29T09:17:19.999Z</time></trkpt><trkpt lat="41.98963296486802" lon="12.866283085709766"><ele>277.3333333333333</ele><time>2026-03-29T09:17:20.999Z</time></trkpt><trkpt lat="41.989781891087794" lon="12.866460311133892"><ele>271.0</ele><time>2026-03-29T09:17:21.999Z</time></trkpt><trkpt lat="41.98994702666458" lon="12.86662078940733"><ele>272.0</ele><time>2026-03-29T09:17:22.999Z</time></trkpt><trkpt lat="41.99011248632098" lon="12.866764929911112"><ele>273.0</ele><time>2026-03-29T09:17:23.999Z</time></trkpt><trkpt lat="41.99027271853016" lon="12.866887474349465"><ele>274.0</ele><time>2026-03-29T09:17:24.999Z</time></trkpt><trkpt lat="41.9904574853249" lon="12.866982304876895"><ele>270.3333333333333</ele><time>2026-03-29T09:17:25.999Z</time></trkpt><trkpt lat="41.99066645277804" lon="12.867057012480352"><ele>266.6666666666667</ele><time>2026-03-29T09:17:26.999Z</time></trkpt><trkpt lat="41.99088762549294" lon="12.867120650227317"><ele>263.0</ele><time>2026-03-29T09:17:27.999Z</time></trkpt><trkpt lat="41.991105367608725" lon="12.86719160894409"><ele>263.0</ele><time>2026-03-29T09:17:28.999Z</time></trkpt><trkpt lat="41.99131646249257" lon="12.867279560346258"><ele>263.0</ele><time>2026-03-29T09:17:29.998Z</time></trkpt><trkpt lat="41.99153654696053" lon="12.867389650925269"><ele>263.5</ele><time>2026-03-29T09:17:30.998Z</time></trkpt><trkpt lat="41.99176696515456" lon="12.867516319487619"><ele>264.0</ele><time>2026-03-29T09:17:31.998Z</time></trkpt><trkpt lat="41.99198758977136" lon="12.867652879101547"><ele>264.0</ele><time>2026-03-29T09:17:32.998Z</time></trkpt><trkpt lat="41.99219256298636" lon="12.867785489206097"><ele>264.0</ele><time>2026-03-29T09:17:33.998Z</time></trkpt><trkpt lat="41.99239893489674" lon="12.867918730376894"><ele>272.0</ele><time>2026-03-29T09:17:34.998Z</time></trkpt><trkpt lat="41.99260326885556" lon="12.868054021797487"><ele>280.0</ele><time>2026-03-29T09:17:35.998Z</time></trkpt><trkpt lat="41.9928072629443" lon="12.868197809382432"><ele>280.0</ele><time>2026-03-29T09:17:36.998Z</time></trkpt><trkpt lat="41.992999986577566" lon="12.868391113309725"><ele>280.0</ele><time>2026-03-29T09:17:37.998Z</time></trkpt><trkpt lat="41.993203148922014" lon="12.868574628477544"><ele>277.3333333333333</ele><time>2026-03-29T09:17:38.998Z</time></trkpt><trkpt lat="41.99338898438052" lon="12.868730951720584"><ele>274.6666666666667</ele><time>2026-03-29T09:17:39.998Z</time></trkpt><trkpt lat="41.993549170236" lon="12.868901476737337"><ele>272.0</ele><time>2026-03-29T09:17:40.998Z</time></trkpt><trkpt lat="41.99368341762708" lon="12.869111455401173"><ele>270.6666666666667</ele><time>2026-03-29T09:17:41.998Z</time></trkpt><trkpt lat="41.99381429924843" lon="12.869299940420058"><ele>269.3333333333333</ele><time>2026-03-29T09:17:42.998Z</time></trkpt><trkpt lat="41.99390310266234" lon="12.869508454926613"><ele>268.0</ele><time>2026-03-29T09:17:43.998Z</time></trkpt><trkpt lat="41.99398142812803" lon="12.869732205539016"><ele>268.0</ele><time>2026-03-29T09:17:44.998Z</time></trkpt><trkpt lat="41.99405173328287" lon="12.869955411774907"><ele>268.0</ele><time>2026-03-29T09:17:45.998Z</time></trkpt><trkpt lat="41.994115470449884" lon="12.870182901000648"><ele>268.0</ele><time>2026-03-29T09:17:46.998Z</time></trkpt><trkpt lat="41.99417200106438" lon="12.870397773917547"><ele>273.3333333333333</ele><time>2026-03-29T09:17:47.998Z</time></trkpt><trkpt lat="41.99421278575313" lon="12.87060671156285"><ele>278.6666666666667</ele><time>2026-03-29T09:17:48.998Z</time></trkpt><trkpt lat="41.99420266613531" lon="12.870808889627988"><ele>284.0</ele><time>2026-03-29T09:17:49.998Z</time></trkpt><trkpt lat="41.9942147881476" lon="12.871017435268104"><ele>286.33333333333337</ele><time>2026-03-29T09:17:50.998Z</time></trkpt><trkpt lat="41.99419426543969" lon="12.871237661852717"><ele>288.6666666666667</ele><time>2026-03-29T09:17:51.998Z</time></trkpt><trkpt lat="41.994167023766074" lon="12.871448099487452"><ele>291.0</ele><time>2026-03-29T09:17:52.998Z</time></trkpt><trkpt lat="41.99413962965497" lon="12.871642095302143"><ele>283.0</ele><time>2026-03-29T09:17:53.998Z</time></trkpt><trkpt lat="41.99412582283666" lon="12.871835524128"><ele>275.0</ele><time>2026-03-29T09:17:54.998Z</time></trkpt><trkpt lat="41.99413143383536" lon="12.872047226182906"><ele>267.0</ele><time>2026-03-29T09:17:55.998Z</time></trkpt><trkpt lat="41.99416441719915" lon="12.872254045358401"><ele>270.0</ele><time>2026-03-29T09:17:56.998Z</time></trkpt><trkpt lat="41.994225586664854" lon="12.872462679332926"><ele>273.0</ele><time>2026-03-29T09:17:57.998Z</time></trkpt><trkpt lat="41.99432423106228" lon="12.872677262427334"><ele>276.0</ele><time>2026-03-29T09:17:58.998Z</time></trkpt><trkpt lat="41.99442731602652" lon="12.8728700978001"><ele>276.0</ele><time>2026-03-29T09:17:59.998Z</time></trkpt><trkpt lat="41.99451544366194" lon="12.87303846196204"><ele>276.0</ele><time>2026-03-29T09:18:01Z</time></trkpt><trkpt lat="41.99459399979752" lon="12.873183547014202"><ele>276.0</ele><time>2026-03-29T09:18:02Z</time></trkpt><trkpt lat="41.99468889301754" lon="12.873320968493585"><ele>276.0</ele><time>2026-03-29T09:18:03Z</time></trkpt><trkpt lat="41.99481338649482" lon="12.873446334945287"><ele>273.3333333333333</ele><time>2026-03-29T09:18:04Z</time></trkpt><trkpt lat="41.99496695347735" lon="12.873542392365932"><ele>270.66666666666663</ele><time>2026-03-29T09:18:05Z</time></trkpt><trkpt lat="41.995121587582396" lon="12.873614300963066"><ele>268.0</ele><time>2026-03-29T09:18:06Z</time></trkpt><trkpt lat="41.995264611842025" lon="12.873659286705724"><ele>268.0</ele><time>2026-03-29T09:18:07Z</time></trkpt><trkpt lat="41.9953984077703" lon="12.87369903637708"><ele>268.0</ele><time>2026-03-29T09:18:08Z</time></trkpt><trkpt lat="41.99551849224854" lon="12.873790043403549"><ele>268.0</ele><time>2026-03-29T09:18:09Z</time></trkpt><trkpt lat="41.99564816292751" lon="12.873906580930411"><ele>268.0</ele><time>2026-03-29T09:18:10Z</time></trkpt><trkpt lat="41.99577177978636" lon="12.87406916066769"><ele>269.0</ele><time>2026-03-29T09:18:11Z</time></trkpt><trkpt lat="41.995895290933056" lon="12.874256715993825"><ele>270.0</ele><time>2026-03-29T09:18:12Z</time></trkpt><trkpt lat="41.9960312921934" lon="12.874428186496159"><ele>271.0</ele><time>2026-03-29T09:18:13Z</time></trkpt><trkpt lat="41.99616266956163" lon="12.874642563267365"><ele>271.0</ele><time>2026-03-29T09:18:14Z</time></trkpt><trkpt lat="41.99633819070859" lon="12.874859937946006"><ele>271.0</ele><time>2026-03-29T09:18:15Z</time></trkpt><trkpt lat="41.99652112767706" lon="12.875070812846747"><ele>269.0</ele><time>2026-03-29T09:18:16Z</time></trkpt><trkpt lat="41.99671223627877" lon="12.875289681699043"><ele>267.0</ele><time>2026-03-29T09:18:17Z</time></trkpt><trkpt lat="41.99691208709975" lon="12.875476053205269"><ele>267.0</ele><time>2026-03-29T09:18:18Z</time></trkpt><trkpt lat="41.99708759120395" lon="12.875662626377608"><ele>267.0</ele><time>2026-03-29T09:18:19Z</time></trkpt><trkpt lat="41.997263134137036" lon="12.875828009949855"><ele>267.0</ele><time>2026-03-29T09:18:20Z</time></trkpt><trkpt lat="41.99742518698998" lon="12.875975991981525"><ele>265.6666666666667</ele><time>2026-03-29T09:18:21Z</time></trkpt><trkpt lat="41.99756655608614" lon="12.876104875915885"><ele>264.33333333333337</ele><time>2026-03-29T09:18:22Z</time></trkpt><trkpt lat="41.997713968952674" lon="12.876226620707548"><ele>263.0</ele><time>2026-03-29T09:18:23Z</time></trkpt><trkpt lat="41.99788310977157" lon="12.87634510447693"><ele>263.0</ele><time>2026-03-29T09:18:24Z</time></trkpt><trkpt lat="41.998071639505554" lon="12.876452831694285"><ele>263.0</ele><time>2026-03-29T09:18:25Z</time></trkpt><trkpt lat="41.998268959256286" lon="12.876542975085599"><ele>263.0</ele><time>2026-03-29T09:18:26Z</time></trkpt><trkpt lat="41.998481393302626" lon="12.876628319467294"><ele>261.5</ele><time>2026-03-29T09:18:27Z</time></trkpt><trkpt lat="41.99870831915296" lon="12.876760671249034"><ele>260.0</ele><time>2026-03-29T09:18:28Z</time></trkpt><trkpt lat="41.99895256251173" lon="12.876873901565151"><ele>261.5</ele><time>2026-03-29T09:18:28.999Z</time></trkpt><trkpt lat="41.9991945880115" lon="12.876958336487645"><ele>263.0</ele><time>2026-03-29T09:18:29.999Z</time></trkpt><trkpt lat="41.99945064405523" lon="12.877030402581825"><ele>263.0</ele><time>2026-03-29T09:18:30.999Z</time></trkpt><trkpt lat="41.99971575417725" lon="12.87708077059246"><ele>263.0</ele><time>2026-03-29T09:18:31.999Z</time></trkpt><trkpt lat="41.99997890229274" lon="12.877124608729428"><ele>263.0</ele><time>2026-03-29T09:18:32.999Z</time></trkpt><trkpt lat="42.0002176030501" lon="12.87715063602361"><ele>263.0</ele><time>2026-03-29T09:18:33.999Z</time></trkpt><trkpt lat="42.000441200725284" lon="12.877164607627039"><ele>263.0</ele><time>2026-03-29T09:18:34.999Z</time></trkpt><trkpt lat="42.00066644772586" lon="12.877163229558617"><ele>263.0</ele><time>2026-03-29T09:18:35.999Z</time></trkpt><trkpt lat="42.0009018350185" lon="12.877140828537037"><ele>263.0</ele><time>2026-03-29T09:18:36.999Z</time></trkpt><trkpt lat="42.00114559319983" lon="12.877089125479637"><ele>263.0</ele><time>2026-03-29T09:18:37.999Z</time></trkpt><trkpt lat="42.00138714547371" lon="12.877063906562825"><ele>263.0</ele><time>2026-03-29T09:18:38.999Z</time></trkpt><trkpt lat="42.00161368795548" lon="12.877083341914942"><ele>263.0</ele><time>2026-03-29T09:18:39.999Z</time></trkpt><trkpt lat="42.00181567441114" lon="12.877116788802581"><ele>263.0</ele><time>2026-03-29T09:18:40.999Z</time></trkpt><trkpt lat="42.00201236639393" lon="12.877132234620518"><ele>262.6666666666667</ele><time>2026-03-29T09:18:41.999Z</time></trkpt><trkpt lat="42.00220526571488" lon="12.8771074968095"><ele>262.3333333333333</ele><time>2026-03-29T09:18:42.999Z</time></trkpt><trkpt lat="42.00242127588628" lon="12.877026108106186"><ele>262.0</ele><time>2026-03-29T09:18:43.999Z</time></trkpt><trkpt lat="42.0026268763918" lon="12.876894242807287"><ele>261.66666666666663</ele><time>2026-03-29T09:18:44.999Z</time></trkpt><trkpt lat="42.00282619318527" lon="12.876745703240564"><ele>261.3333333333333</ele><time>2026-03-29T09:18:45.999Z</time></trkpt><trkpt lat="42.003022419890584" lon="12.876626920787677"><ele>261.0</ele><time>2026-03-29T09:18:46.999Z</time></trkpt><trkpt lat="42.00321821804275" lon="12.876555577783929"><ele>263.0</ele><time>2026-03-29T09:18:47.999Z</time></trkpt><trkpt lat="42.003423813333846" lon="12.876544808938604"><ele>265.0</ele><time>2026-03-29T09:18:48.999Z</time></trkpt><trkpt lat="42.003629501882116" lon="12.87660344664501"><ele>267.0</ele><time>2026-03-29T09:18:49.999Z</time></trkpt><trkpt lat="42.00382739306229" lon="12.876718728208074"><ele>266.6666666666667</ele><time>2026-03-29T09:18:50.999Z</time></trkpt><trkpt lat="42.00401007645935" lon="12.876850104748293"><ele>266.33333333333337</ele><time>2026-03-29T09:18:51.999Z</time></trkpt><trkpt lat="42.00419471270982" lon="12.87696494921123"><ele>266.0</ele><time>2026-03-29T09:18:52.999Z</time></trkpt><trkpt lat="42.004382782941434" lon="12.87704980177133"><ele>266.0</ele><time>2026-03-29T09:18:53.999Z</time></trkpt><trkpt lat="42.004581600163725" lon="12.877105687140512"><ele>266.0</ele><time>2026-03-29T09:18:54.999Z</time></trkpt><trkpt lat="42.00478260374057" lon="12.87711231843874"><ele>266.0</ele><time>2026-03-29T09:18:55.999Z</time></trkpt><trkpt lat="42.004950054143094" lon="12.877086293984313"><ele>265.75</ele><time>2026-03-29T09:18:56.999Z</time></trkpt><trkpt lat="42.00508654643183" lon="12.877070817651433"><ele>265.5</ele><time>2026-03-29T09:18:57.999Z</time></trkpt><trkpt lat="42.0052188371313" lon="12.877098399194766"><ele>265.25</ele><time>2026-03-29T09:18:58.999Z</time></trkpt><trkpt lat="42.00535004461611" lon="12.877196775618474"><ele>265.0</ele><time>2026-03-29T09:18:59.999Z</time></trkpt><trkpt lat="42.00548592226097" lon="12.877838727813195"><ele>265.0</ele><time>2026-03-29T09:19:02.999Z</time></trkpt><trkpt lat="42.00553935287554" lon="12.878044413660147"><ele>265.0</ele><time>2026-03-29T09:19:03.999Z</time></trkpt><trkpt lat="42.00562069701053" lon="12.878295249617743"><ele>265.0</ele><time>2026-03-29T09:19:04.999Z</time></trkpt><trkpt lat="42.005730319335406" lon="12.878585416983757"><ele>267.0</ele><time>2026-03-29T09:19:05.999Z</time></trkpt><trkpt lat="42.005845048189805" lon="12.878873078361458"><ele>269.0</ele><time>2026-03-29T09:19:06.999Z</time></trkpt><trkpt lat="42.00594478563029" lon="12.87912612719019"><ele>267.33333333333337</ele><time>2026-03-29T09:19:07.999Z</time></trkpt><trkpt lat="42.006024145711365" lon="12.879336388173115"><ele>265.6666666666667</ele><time>2026-03-29T09:19:08.999Z</time></trkpt><trkpt lat="42.006081652006365" lon="12.879531965946619"><ele>264.0</ele><time>2026-03-29T09:19:09.999Z</time></trkpt><trkpt lat="42.00612384585994" lon="12.87977618834466"><ele>264.0</ele><time>2026-03-29T09:19:10.999Z</time></trkpt><trkpt lat="42.00616224397777" lon="12.880022039470639"><ele>264.0</ele><time>2026-03-29T09:19:11.999Z</time></trkpt><trkpt lat="42.00623670371579" lon="12.880264583194457"><ele>264.0</ele><time>2026-03-29T09:19:12.999Z</time></trkpt><trkpt lat="42.00633056279992" lon="12.880493076250762"><ele>263.6666666666667</ele><time>2026-03-29T09:19:13.999Z</time></trkpt><trkpt lat="42.00644987440989" lon="12.880718457423097"><ele>263.33333333333337</ele><time>2026-03-29T09:19:14.999Z</time></trkpt><trkpt lat="42.00659944985059" lon="12.88093520894336"><ele>263.0</ele><time>2026-03-29T09:19:15.999Z</time></trkpt><trkpt lat="42.006778438931676" lon="12.881155744331041"><ele>263.0</ele><time>2026-03-29T09:19:16.999Z</time></trkpt><trkpt lat="42.00694140504445" lon="12.88134588630346"><ele>263.0</ele><time>2026-03-29T09:19:17.999Z</time></trkpt><trkpt lat="42.007088109592374" lon="12.881511712750797"><ele>263.0</ele><time>2026-03-29T09:19:18.999Z</time></trkpt><trkpt lat="42.00724655770703" lon="12.881639442723849"><ele>263.0</ele><time>2026-03-29T09:19:19.999Z</time></trkpt><trkpt lat="42.00742612423142" lon="12.881743444208078"><ele>263.0</ele><time>2026-03-29T09:19:20.999Z</time></trkpt><trkpt lat="42.007626152857235" lon="12.881816033495676"><ele>263.0</ele><time>2026-03-29T09:19:21.999Z</time></trkpt><trkpt lat="42.00781934741715" lon="12.881895256664006"><ele>263.0</ele><time>2026-03-29T09:19:22.999Z</time></trkpt><trkpt lat="42.00804499903439" lon="12.88191302765852"><ele>263.0</ele><time>2026-03-29T09:19:23.999Z</time></trkpt><trkpt lat="42.00824376323489" lon="12.881923722383053"><ele>263.0</ele><time>2026-03-29T09:19:24.999Z</time></trkpt><trkpt lat="42.00841982025346" lon="12.881974633598764"><ele>263.0</ele><time>2026-03-29T09:19:25.999Z</time></trkpt><trkpt lat="42.008604049123875" lon="12.881974939794572"><ele>263.0</ele><time>2026-03-29T09:19:26.999Z</time></trkpt><trkpt lat="42.00878479376956" lon="12.882055809173833"><ele>263.0</ele><time>2026-03-29T09:19:27.999Z</time></trkpt><trkpt lat="42.008966326764714" lon="12.882208263784502"><ele>263.0</ele><time>2026-03-29T09:19:28.999Z</time></trkpt><trkpt lat="42.009148031528305" lon="12.88238841572798"><ele>263.0</ele><time>2026-03-29T09:19:29.999Z</time></trkpt><trkpt lat="42.00931665592503" lon="12.882561691759399"><ele>263.0</ele><time>2026-03-29T09:19:30.999Z</time></trkpt><trkpt lat="42.00948671536953" lon="12.882736989218905"><ele>263.6666666666667</ele><time>2026-03-29T09:19:31.999Z</time></trkpt><trkpt lat="42.00966009975077" lon="12.882918186045048"><ele>264.3333333333333</ele><time>2026-03-29T09:19:32.999Z</time></trkpt><trkpt lat="42.00983259415561" lon="12.883110813438654"><ele>265.0</ele><time>2026-03-29T09:19:33.999Z</time></trkpt><trkpt lat="42.00999863102914" lon="12.883302482283927"><ele>265.0</ele><time>2026-03-29T09:19:34.998Z</time></trkpt><trkpt lat="42.010166257899385" lon="12.88350398232367"><ele>265.0</ele><time>2026-03-29T09:19:35.998Z</time></trkpt><trkpt lat="42.01033063194818" lon="12.883712941234453"><ele>265.0</ele><time>2026-03-29T09:19:36.998Z</time></trkpt><trkpt lat="42.01049045612578" lon="12.883935807850834"><ele>265.0</ele><time>2026-03-29T09:19:37.998Z</time></trkpt><trkpt lat="42.010646029924374" lon="12.884173788193838"><ele>264.66666666666663</ele><time>2026-03-29T09:19:38.998Z</time></trkpt><trkpt lat="42.01078256741779" lon="12.884399574885881"><ele>264.3333333333333</ele><time>2026-03-29T09:19:39.998Z</time></trkpt><trkpt lat="42.01091579034752" lon="12.88461983498155"><ele>264.0</ele><time>2026-03-29T09:19:40.998Z</time></trkpt><trkpt lat="42.01105685543977" lon="12.884850076859268"><ele>265.0</ele><time>2026-03-29T09:19:41.998Z</time></trkpt><trkpt lat="42.01120938686822" lon="12.885103185513561"><ele>266.0</ele><time>2026-03-29T09:19:42.998Z</time></trkpt><trkpt lat="42.01134926091548" lon="12.88538754104807"><ele>266.0</ele><time>2026-03-29T09:19:43.998Z</time></trkpt><trkpt lat="42.01147063991086" lon="12.885693874291462"><ele>266.0</ele><time>2026-03-29T09:19:44.998Z</time></trkpt><trkpt lat="42.01156921055414" lon="12.885993935591951"><ele>264.6666666666667</ele><time>2026-03-29T09:19:45.998Z</time></trkpt><trkpt lat="42.01165116558205" lon="12.886274468945112"><ele>263.3333333333333</ele><time>2026-03-29T09:19:46.998Z</time></trkpt><trkpt lat="42.011721333344404" lon="12.886540623182876"><ele>262.0</ele><time>2026-03-29T09:19:47.998Z</time></trkpt><trkpt lat="42.01178583494776" lon="12.886771343168745"><ele>264.66666666666663</ele><time>2026-03-29T09:19:48.998Z</time></trkpt><trkpt lat="42.01186882806111" lon="12.887006912103434"><ele>267.3333333333333</ele><time>2026-03-29T09:19:49.998Z</time></trkpt><trkpt lat="42.011986608523834" lon="12.887227448959981"><ele>270.0</ele><time>2026-03-29T09:19:50.998Z</time></trkpt><trkpt lat="42.01210337729195" lon="12.88745424605629"><ele>269.6666666666667</ele><time>2026-03-29T09:19:51.998Z</time></trkpt><trkpt lat="42.01221759235487" lon="12.887685376027115"><ele>269.33333333333337</ele><time>2026-03-29T09:19:52.998Z</time></trkpt><trkpt lat="42.01232474402591" lon="12.88792144871864"><ele>269.0</ele><time>2026-03-29T09:19:53.998Z</time></trkpt><trkpt lat="42.012424472733706" lon="12.888156094612997"><ele>269.33333333333337</ele><time>2026-03-29T09:19:54.998Z</time></trkpt><trkpt lat="42.01252474427932" lon="12.88839004607066"><ele>269.6666666666667</ele><time>2026-03-29T09:19:55.998Z</time></trkpt><trkpt lat="42.012624574048026" lon="12.888605304354382"><ele>270.0</ele><time>2026-03-29T09:19:56.998Z</time></trkpt><trkpt lat="42.01273086801888" lon="12.88881083490058"><ele>270.0</ele><time>2026-03-29T09:19:57.998Z</time></trkpt><trkpt lat="42.01285920270825" lon="12.889007499996683"><ele>270.0</ele><time>2026-03-29T09:19:58.998Z</time></trkpt><trkpt lat="42.013005476903295" lon="12.889178723560244"><ele>270.0</ele><time>2026-03-29T09:19:59.998Z</time></trkpt><trkpt lat="42.013154725475815" lon="12.889322555505107"><ele>269.3333333333333</ele><time>2026-03-29T09:20:00.998Z</time></trkpt><trkpt lat="42.01327497901083" lon="12.889453274430585"><ele>268.66666666666663</ele><time>2026-03-29T09:20:01.998Z</time></trkpt><trkpt lat="42.01336899474376" lon="12.889596866668333"><ele>268.0</ele><time>2026-03-29T09:20:02.998Z</time></trkpt><trkpt lat="42.01343919941119" lon="12.889790247710723"><ele>270.0</ele><time>2026-03-29T09:20:03.998Z</time></trkpt><trkpt lat="42.0134632819874" lon="12.89003057264023"><ele>272.0</ele><time>2026-03-29T09:20:04.998Z</time></trkpt><trkpt lat="42.01346748452606" lon="12.890283689283986"><ele>274.0</ele><time>2026-03-29T09:20:05.998Z</time></trkpt><trkpt lat="42.013482174847624" lon="12.890535301536959"><ele>277.3333333333333</ele><time>2026-03-29T09:20:07Z</time></trkpt><trkpt lat="42.01345363828307" lon="12.890776002687474"><ele>280.6666666666667</ele><time>2026-03-29T09:20:08Z</time></trkpt><trkpt lat="42.01342018396253" lon="12.891005923365226"><ele>284.0</ele><time>2026-03-29T09:20:09Z</time></trkpt><trkpt lat="42.013388484814925" lon="12.891240813458046"><ele>285.0</ele><time>2026-03-29T09:20:10Z</time></trkpt><trkpt lat="42.01337523856252" lon="12.891466885821828"><ele>286.0</ele><time>2026-03-29T09:20:11Z</time></trkpt><trkpt lat="42.0133601707048" lon="12.891700261693371"><ele>287.0</ele><time>2026-03-29T09:20:12Z</time></trkpt><trkpt lat="42.013363549954754" lon="12.891941040766813"><ele>287.0</ele><time>2026-03-29T09:20:13Z</time></trkpt><trkpt lat="42.0133897162416" lon="12.892150889899915"><ele>287.0</ele><time>2026-03-29T09:20:14Z</time></trkpt><trkpt lat="42.01342793357216" lon="12.892326051416644"><ele>287.0</ele><time>2026-03-29T09:20:15Z</time></trkpt><trkpt lat="42.013487019832084" lon="12.89246825070632"><ele>287.0</ele><time>2026-03-29T09:20:16Z</time></trkpt><trkpt lat="42.0135787946613" lon="12.89259864907467"><ele>282.33333333333337</ele><time>2026-03-29T09:20:17Z</time></trkpt><trkpt lat="42.013707449118705" lon="12.892687417868629"><ele>277.6666666666667</ele><time>2026-03-29T09:20:18Z</time></trkpt><trkpt lat="42.013860025320334" lon="12.892718869978346"><ele>273.0</ele><time>2026-03-29T09:20:19Z</time></trkpt><trkpt lat="42.01401669844597" lon="12.892724369973982"><ele>275.3333333333333</ele><time>2026-03-29T09:20:20Z</time></trkpt><trkpt lat="42.01417676787119" lon="12.892745338580875"><ele>277.66666666666663</ele><time>2026-03-29T09:20:21Z</time></trkpt><trkpt lat="42.014339976150595" lon="12.892784895389628"><ele>280.0</ele><time>2026-03-29T09:20:22Z</time></trkpt><trkpt lat="42.01450136090213" lon="12.892825446451758"><ele>280.0</ele><time>2026-03-29T09:20:23Z</time></trkpt><trkpt lat="42.014655864055285" lon="12.892874152897312"><ele>280.0</ele><time>2026-03-29T09:20:24Z</time></trkpt><trkpt lat="42.01481252579325" lon="12.892948713174665"><ele>280.0</ele><time>2026-03-29T09:20:25Z</time></trkpt><trkpt lat="42.01495452449002" lon="12.893045796351405"><ele>279.66666666666663</ele><time>2026-03-29T09:20:26Z</time></trkpt><trkpt lat="42.015082983238806" lon="12.89318477011689"><ele>279.3333333333333</ele><time>2026-03-29T09:20:27Z</time></trkpt><trkpt lat="42.01520129491477" lon="12.893330247297317"><ele>279.0</ele><time>2026-03-29T09:20:28Z</time></trkpt><trkpt lat="42.015312930416606" lon="12.893495895464511"><ele>279.0</ele><time>2026-03-29T09:20:29Z</time></trkpt><trkpt lat="42.0154235318475" lon="12.893703066085813"><ele>279.0</ele><time>2026-03-29T09:20:30Z</time></trkpt><trkpt lat="42.015543195894466" lon="12.89395547455464"><ele>279.0</ele><time>2026-03-29T09:20:31Z</time></trkpt><trkpt lat="42.015659388818094" lon="12.894203976539421"><ele>276.3333333333333</ele><time>2026-03-29T09:20:32Z</time></trkpt><trkpt lat="42.01575060386117" lon="12.894403879264809"><ele>273.66666666666663</ele><time>2026-03-29T09:20:33Z</time></trkpt><trkpt lat="42.01583218521432" lon="12.894581431029973"><ele>271.0</ele><time>2026-03-29T09:20:33.999Z</time></trkpt><trkpt lat="42.015919692915396" lon="12.89473290591856"><ele>277.25</ele><time>2026-03-29T09:20:34.999Z</time></trkpt><trkpt lat="42.01597704106338" lon="12.894888017517397"><ele>283.5</ele><time>2026-03-29T09:20:35.999Z</time></trkpt><trkpt lat="42.01601301240637" lon="12.895049486593216"><ele>289.75</ele><time>2026-03-29T09:20:36.999Z</time></trkpt><trkpt lat="42.016047461369055" lon="12.895192012437548"><ele>296.0</ele><time>2026-03-29T09:20:37.999Z</time></trkpt><trkpt lat="42.01607105838006" lon="12.895313280965633"><ele>296.0</ele><time>2026-03-29T09:20:38.999Z</time></trkpt><trkpt lat="42.01608905655403" lon="12.895431937664153"><ele>296.0</ele><time>2026-03-29T09:20:39.999Z</time></trkpt><trkpt lat="42.016108433267384" lon="12.895602558601107"><ele>296.0</ele><time>2026-03-29T09:20:40.999Z</time></trkpt><trkpt lat="42.01612365190385" lon="12.895806854468873"><ele>296.0</ele><time>2026-03-29T09:20:41.999Z</time></trkpt><trkpt lat="42.01613350263313" lon="12.896026608651079"><ele>295.6666666666667</ele><time>2026-03-29T09:20:42.999Z</time></trkpt><trkpt lat="42.016116940848214" lon="12.896262427897186"><ele>295.3333333333333</ele><time>2026-03-29T09:20:43.999Z</time></trkpt><trkpt lat="42.01610516753523" lon="12.896523428231886"><ele>295.0</ele><time>2026-03-29T09:20:44.999Z</time></trkpt><trkpt lat="42.01614993174149" lon="12.896804610099117"><ele>295.0</ele><time>2026-03-29T09:20:45.999Z</time></trkpt><trkpt lat="42.01618980627061" lon="12.897111239493336"><ele>295.0</ele><time>2026-03-29T09:20:46.999Z</time></trkpt><trkpt lat="42.016218317916234" lon="12.897397784356"><ele>295.0</ele><time>2026-03-29T09:20:47.999Z</time></trkpt><trkpt lat="42.01624283410413" lon="12.897662447310529"><ele>293.66666666666663</ele><time>2026-03-29T09:20:48.999Z</time></trkpt><trkpt lat="42.016266780451446" lon="12.897901573542176"><ele>292.3333333333333</ele><time>2026-03-29T09:20:49.999Z</time></trkpt><trkpt lat="42.01628903402183" lon="12.898130550959356"><ele>291.0</ele><time>2026-03-29T09:20:50.999Z</time></trkpt><trkpt lat="42.016312864317975" lon="12.898340850060405"><ele>289.0</ele><time>2026-03-29T09:20:51.999Z</time></trkpt><trkpt lat="42.01633595560506" lon="12.898550380274072"><ele>287.0</ele><time>2026-03-29T09:20:52.999Z</time></trkpt><trkpt lat="42.01636295035303" lon="12.898755939163127"><ele>285.0</ele><time>2026-03-29T09:20:53.999Z</time></trkpt><trkpt lat="42.016403138061186" lon="12.898941781871638"><ele>285.0</ele><time>2026-03-29T09:20:54.999Z</time></trkpt><trkpt lat="42.01648091192582" lon="12.89910557291849"><ele>285.0</ele><time>2026-03-29T09:20:55.999Z</time></trkpt><trkpt lat="42.01660945472465" lon="12.89923011973771"><ele>285.0</ele><time>2026-03-29T09:20:56.999Z</time></trkpt><trkpt lat="42.01678191055475" lon="12.899300341548415"><ele>286.6666666666667</ele><time>2026-03-29T09:20:57.999Z</time></trkpt><trkpt lat="42.01698201698045" lon="12.899308513675983"><ele>288.33333333333337</ele><time>2026-03-29T09:20:58.999Z</time></trkpt><trkpt lat="42.01719564125886" lon="12.899273108059413"><ele>290.0</ele><time>2026-03-29T09:20:59.999Z</time></trkpt><trkpt lat="42.017433731421775" lon="12.899218028555051"><ele>300.5</ele><time>2026-03-29T09:21:00.999Z</time></trkpt><trkpt lat="42.0176871633323" lon="12.899183918902525"><ele>311.0</ele><time>2026-03-29T09:21:01.999Z</time></trkpt><trkpt lat="42.017946352088224" lon="12.899148811600156"><ele>311.0</ele><time>2026-03-29T09:21:02.999Z</time></trkpt><trkpt lat="42.0182214055759" lon="12.89912230604775"><ele>311.0</ele><time>2026-03-29T09:21:03.999Z</time></trkpt><trkpt lat="42.018499593572166" lon="12.899095978120037"><ele>311.5</ele><time>2026-03-29T09:21:04.999Z</time></trkpt><trkpt lat="42.01876740720084" lon="12.899065604319533"><ele>312.0</ele><time>2026-03-29T09:21:05.999Z</time></trkpt><trkpt lat="42.01900068226276" lon="12.899044550479891"><ele>311.6666666666667</ele><time>2026-03-29T09:21:06.999Z</time></trkpt><trkpt lat="42.01921132802254" lon="12.899022141304014"><ele>311.33333333333337</ele><time>2026-03-29T09:21:07.999Z</time></trkpt><trkpt lat="42.01940439569015" lon="12.899001001914117"><ele>311.0</ele><time>2026-03-29T09:21:08.999Z</time></trkpt><trkpt lat="42.01956869423772" lon="12.898983396242292"><ele>311.0</ele><time>2026-03-29T09:21:09.999Z</time></trkpt><trkpt lat="42.01970209382784" lon="12.898967728224086"><ele>311.0</ele><time>2026-03-29T09:21:10.999Z</time></trkpt><trkpt lat="42.01980825690854" lon="12.898953889632255"><ele>311.0</ele><time>2026-03-29T09:21:11.999Z</time></trkpt><trkpt lat="42.01990266441092" lon="12.898949240683162"><ele>311.0</ele><time>2026-03-29T09:21:12.999Z</time></trkpt><trkpt lat="42.01998486992262" lon="12.89899680436139"><ele>311.0</ele><time>2026-03-29T09:21:13.999Z</time></trkpt><trkpt lat="42.020045048725876" lon="12.899079627660177"><ele>312.2</ele><time>2026-03-29T09:21:14.999Z</time></trkpt><trkpt lat="42.02006493952558" lon="12.899192691861801"><ele>313.40000000000003</ele><time>2026-03-29T09:21:15.999Z</time></trkpt><trkpt lat="42.02001492652807" lon="12.899293926314048"><ele>314.6</ele><time>2026-03-29T09:21:16.999Z</time></trkpt><trkpt lat="42.01993583136385" lon="12.89937469665847"><ele>315.8</ele><time>2026-03-29T09:21:17.999Z</time></trkpt><trkpt lat="42.019831631381805" lon="12.899397377182012"><ele>317.0</ele><time>2026-03-29T09:21:18.999Z</time></trkpt><trkpt lat="42.019721743222384" lon="12.899451895026019"><ele>317.33333333333337</ele><time>2026-03-29T09:21:19.999Z</time></trkpt><trkpt lat="42.01958754462339" lon="12.899509521518288"><ele>317.6666666666667</ele><time>2026-03-29T09:21:20.999Z</time></trkpt><trkpt lat="42.01943335511667" lon="12.899588877644272"><ele>318.0</ele><time>2026-03-29T09:21:21.999Z</time></trkpt><trkpt lat="42.01927827189209" lon="12.899661866911154"><ele>313.6666666666667</ele><time>2026-03-29T09:21:22.999Z</time></trkpt><trkpt lat="42.01913900818547" lon="12.89975252630783"><ele>309.33333333333337</ele><time>2026-03-29T09:21:23.999Z</time></trkpt><trkpt lat="42.01903292758171" lon="12.899887118205518"><ele>305.0</ele><time>2026-03-29T09:21:24.999Z</time></trkpt><trkpt lat="42.018954983303935" lon="12.900076977667762"><ele>309.6666666666667</ele><time>2026-03-29T09:21:25.999Z</time></trkpt><trkpt lat="42.01890337447395" lon="12.9003153113261"><ele>314.3333333333333</ele><time>2026-03-29T09:21:26.999Z</time></trkpt><trkpt lat="42.0188361000718" lon="12.900543517841452"><ele>319.0</ele><time>2026-03-29T09:21:27.999Z</time></trkpt><trkpt lat="42.01876342274494" lon="12.90073634145005"><ele>319.0</ele><time>2026-03-29T09:21:28.999Z</time></trkpt><trkpt lat="42.01868030396961" lon="12.900907847671803"><ele>319.0</ele><time>2026-03-29T09:21:29.999Z</time></trkpt><trkpt lat="42.01856360888512" lon="12.901029981803518"><ele>319.0</ele><time>2026-03-29T09:21:30.999Z</time></trkpt><trkpt lat="42.018423016387786" lon="12.901080369757825"><ele>319.0</ele><time>2026-03-29T09:21:31.999Z</time></trkpt><trkpt lat="42.01827066891398" lon="12.901124629516893"><ele>316.75</ele><time>2026-03-29T09:21:32.999Z</time></trkpt><trkpt lat="42.01810818129961" lon="12.90111955812046"><ele>314.5</ele><time>2026-03-29T09:21:33.999Z</time></trkpt><trkpt lat="42.01796144504539" lon="12.90112795196908"><ele>312.25</ele><time>2026-03-29T09:21:34.999Z</time></trkpt><trkpt lat="42.017840258171724" lon="12.901162068480806"><ele>310.0</ele><time>2026-03-29T09:21:35.999Z</time></trkpt><trkpt lat="42.01774195752951" lon="12.901237015516998"><ele>310.0</ele><time>2026-03-29T09:21:36.999Z</time></trkpt><trkpt lat="42.017667523473605" lon="12.901362995542105"><ele>310.0</ele><time>2026-03-29T09:21:37.999Z</time></trkpt><trkpt lat="42.01764403797635" lon="12.901514290371031"><ele>310.0</ele><time>2026-03-29T09:21:38.998Z</time></trkpt><trkpt lat="42.0176826446137" lon="12.901670179360824"><ele>310.0</ele><time>2026-03-29T09:21:39.998Z</time></trkpt><trkpt lat="42.017771690022464" lon="12.901811093593762"><ele>307.66666666666663</ele><time>2026-03-29T09:21:40.998Z</time></trkpt><trkpt lat="42.01789228414395" lon="12.90194348827061"><ele>305.3333333333333</ele><time>2026-03-29T09:21:41.998Z</time></trkpt><trkpt lat="42.01802494595967" lon="12.902089525398987"><ele>303.0</ele><time>2026-03-29T09:21:42.998Z</time></trkpt><trkpt lat="42.01815838292518" lon="12.90225719424758"><ele>303.0</ele><time>2026-03-29T09:21:43.998Z</time></trkpt><trkpt lat="42.01828007880951" lon="12.902398662980008"><ele>303.0</ele><time>2026-03-29T09:21:44.998Z</time></trkpt><trkpt lat="42.018393260715" lon="12.90250967076418"><ele>303.0</ele><time>2026-03-29T09:21:45.998Z</time></trkpt><trkpt lat="42.018522932900325" lon="12.902581655058492"><ele>303.0</ele><time>2026-03-29T09:21:46.998Z</time></trkpt><trkpt lat="42.018673283284485" lon="12.902603311392541"><ele>308.0</ele><time>2026-03-29T09:21:47.998Z</time></trkpt><trkpt lat="42.01883848021369" lon="12.902589125526402"><ele>313.0</ele><time>2026-03-29T09:21:48.998Z</time></trkpt><trkpt lat="42.018998369602734" lon="12.9025446889866"><ele>318.0</ele><time>2026-03-29T09:21:49.998Z</time></trkpt><trkpt lat="42.01915249105142" lon="12.902473849093303"><ele>322.0</ele><time>2026-03-29T09:21:50.998Z</time></trkpt><trkpt lat="42.01929383703668" lon="12.90241407060196"><ele>326.0</ele><time>2026-03-29T09:21:51.998Z</time></trkpt><trkpt lat="42.01943358569226" lon="12.90237306977373"><ele>330.0</ele><time>2026-03-29T09:21:52.998Z</time></trkpt><trkpt lat="42.0195850879785" lon="12.902379431628127"><ele>334.0</ele><time>2026-03-29T09:21:53.998Z</time></trkpt><trkpt lat="42.01973327399809" lon="12.902462916618513"><ele>335.25</ele><time>2026-03-29T09:21:54.998Z</time></trkpt><trkpt lat="42.019859251430645" lon="12.902594913379588"><ele>336.5</ele><time>2026-03-29T09:21:55.998Z</time></trkpt><trkpt lat="42.01996745020333" lon="12.902736907183874"><ele>337.75</ele><time>2026-03-29T09:21:56.998Z</time></trkpt><trkpt lat="42.02004730528652" lon="12.902881432991336"><ele>339.0</ele><time>2026-03-29T09:21:57.998Z</time></trkpt><trkpt lat="42.020071690575485" lon="12.903058409014797"><ele>339.0</ele><time>2026-03-29T09:21:58.998Z</time></trkpt><trkpt lat="42.02007364452804" lon="12.903216189060435"><ele>339.0</ele><time>2026-03-29T09:21:59.998Z</time></trkpt><trkpt lat="42.02003274512654" lon="12.90336948953375"><ele>339.0</ele><time>2026-03-29T09:22:00.998Z</time></trkpt><trkpt lat="42.019959029316034" lon="12.903528739566266"><ele>339.0</ele><time>2026-03-29T09:22:01.998Z</time></trkpt><trkpt lat="42.019870399477995" lon="12.903659998143187"><ele>336.0</ele><time>2026-03-29T09:22:02.998Z</time></trkpt><trkpt lat="42.01978465719282" lon="12.903798814714964"><ele>333.0</ele><time>2026-03-29T09:22:03.998Z</time></trkpt><trkpt lat="42.01967874912535" lon="12.903943011890634"><ele>330.0</ele><time>2026-03-29T09:22:04.998Z</time></trkpt><trkpt lat="42.01956497534319" lon="12.90410473471079"><ele>334.0</ele><time>2026-03-29T09:22:05.998Z</time></trkpt><trkpt lat="42.01942919257735" lon="12.904271393019705"><ele>338.0</ele><time>2026-03-29T09:22:06.998Z</time></trkpt><trkpt lat="42.01931670419" lon="12.904477984862611"><ele>342.0</ele><time>2026-03-29T09:22:07.998Z</time></trkpt><trkpt lat="42.01919964361216" lon="12.904679059313118"><ele>339.3333333333333</ele><time>2026-03-29T09:22:08.998Z</time></trkpt><trkpt lat="42.01909644512954" lon="12.904873356717289"><ele>336.66666666666663</ele><time>2026-03-29T09:22:09.998Z</time></trkpt><trkpt lat="42.019014673008066" lon="12.905044650970089"><ele>334.0</ele><time>2026-03-29T09:22:10.998Z</time></trkpt><trkpt lat="42.01892694021894" lon="12.905188725986404"><ele>334.0</ele><time>2026-03-29T09:22:11.998Z</time></trkpt><trkpt lat="42.01885466018904" lon="12.905332967443984"><ele>334.0</ele><time>2026-03-29T09:22:13Z</time></trkpt><trkpt lat="42.01879667833928" lon="12.905482386390451"><ele>334.0</ele><time>2026-03-29T09:22:14Z</time></trkpt><trkpt lat="42.01872175071688" lon="12.905627365478304"><ele>334.0</ele><time>2026-03-29T09:22:15Z</time></trkpt><trkpt lat="42.01864275867073" lon="12.905786929323332"><ele>335.75</ele><time>2026-03-29T09:22:16Z</time></trkpt><trkpt lat="42.0185629566104" lon="12.905954124669853"><ele>337.5</ele><time>2026-03-29T09:22:17Z</time></trkpt><trkpt lat="42.01848099185563" lon="12.90612450460566"><ele>339.25</ele><time>2026-03-29T09:22:18Z</time></trkpt><trkpt lat="42.01839779168254" lon="12.906287982513268"><ele>341.0</ele><time>2026-03-29T09:22:19Z</time></trkpt><trkpt lat="42.01832359421463" lon="12.906436859555006"><ele>340.5</ele><time>2026-03-29T09:22:20Z</time></trkpt><trkpt lat="42.01825369625028" lon="12.906576686063936"><ele>340.0</ele><time>2026-03-29T09:22:21Z</time></trkpt><trkpt lat="42.01818183397646" lon="12.906726096446647"><ele>339.5</ele><time>2026-03-29T09:22:22Z</time></trkpt><trkpt lat="42.01811182518989" lon="12.906884648914247"><ele>339.0</ele><time>2026-03-29T09:22:23Z</time></trkpt><trkpt lat="42.018035266868125" lon="12.907043348058522"><ele>339.0</ele><time>2026-03-29T09:22:24Z</time></trkpt><trkpt lat="42.017959223547344" lon="12.90720172415142"><ele>339.0</ele><time>2026-03-29T09:22:25Z</time></trkpt><trkpt lat="42.017879219626124" lon="12.907362554567644"><ele>339.0</ele><time>2026-03-29T09:22:26Z</time></trkpt><trkpt lat="42.01779797408232" lon="12.907516374103166"><ele>339.0</ele><time>2026-03-29T09:22:27Z</time></trkpt><trkpt lat="42.01771032178604" lon="12.907653516811642"><ele>339.75</ele><time>2026-03-29T09:22:28Z</time></trkpt><trkpt lat="42.01761079387967" lon="12.907774558352376"><ele>340.5</ele><time>2026-03-29T09:22:29Z</time></trkpt><trkpt lat="42.017488268990924" lon="12.907881132828123"><ele>341.25</ele><time>2026-03-29T09:22:30Z</time></trkpt><trkpt lat="42.01734865375592" lon="12.907970063144349"><ele>342.0</ele><time>2026-03-29T09:22:31Z</time></trkpt><trkpt lat="42.017200854369676" lon="12.908051775328126"><ele>340.25</ele><time>2026-03-29T09:22:32Z</time></trkpt><trkpt lat="42.017058859888174" lon="12.908120984058096"><ele>338.5</ele><time>2026-03-29T09:22:33Z</time></trkpt><trkpt lat="42.01693548942685" lon="12.908182302742325"><ele>336.75</ele><time>2026-03-29T09:22:34Z</time></trkpt><trkpt lat="42.01682816131565" lon="12.90825076650901"><ele>335.0</ele><time>2026-03-29T09:22:35Z</time></trkpt><trkpt lat="42.016734360377" lon="12.908339541771618"><ele>334.25</ele><time>2026-03-29T09:22:36Z</time></trkpt><trkpt lat="42.016654814149874" lon="12.908447403344622"><ele>333.5</ele><time>2026-03-29T09:22:37Z</time></trkpt><trkpt lat="42.016577901554356" lon="12.908579461701347"><ele>332.75</ele><time>2026-03-29T09:22:38Z</time></trkpt><trkpt lat="42.01649396225184" lon="12.908744471917005"><ele>332.0</ele><time>2026-03-29T09:22:39Z</time></trkpt><trkpt lat="42.01641514388279" lon="12.908947143039684"><ele>334.0</ele><time>2026-03-29T09:22:40Z</time></trkpt><trkpt lat="42.0163376032581" lon="12.909170067854998"><ele>336.0</ele><time>2026-03-29T09:22:40.999Z</time></trkpt><trkpt lat="42.016248479268405" lon="12.909391604596143"><ele>338.0</ele><time>2026-03-29T09:22:41.999Z</time></trkpt><trkpt lat="42.016147199595416" lon="12.909636919622889"><ele>338.0</ele><time>2026-03-29T09:22:42.999Z</time></trkpt><trkpt lat="42.01605329898261" lon="12.90989912143632"><ele>338.0</ele><time>2026-03-29T09:22:43.999Z</time></trkpt><trkpt lat="42.01597271119963" lon="12.910161584917015"><ele>338.0</ele><time>2026-03-29T09:22:44.999Z</time></trkpt><trkpt lat="42.01590909264888" lon="12.910409951974772"><ele>338.0</ele><time>2026-03-29T09:22:45.999Z</time></trkpt><trkpt lat="42.015850549128785" lon="12.910677421134254"><ele>338.0</ele><time>2026-03-29T09:22:46.999Z</time></trkpt><trkpt lat="42.015782617221824" lon="12.910977370120435"><ele>338.0</ele><time>2026-03-29T09:22:47.999Z</time></trkpt><trkpt lat="42.015703726532855" lon="12.911286167782983"><ele>337.5</ele><time>2026-03-29T09:22:48.999Z</time></trkpt><trkpt lat="42.01562678110277" lon="12.911588176256341"><ele>337.0</ele><time>2026-03-29T09:22:49.999Z</time></trkpt><trkpt lat="42.01555853180144" lon="12.911867601165048"><ele>336.66666666666663</ele><time>2026-03-29T09:22:50.999Z</time></trkpt><trkpt lat="42.015494199260345" lon="12.912131082097781"><ele>336.3333333333333</ele><time>2026-03-29T09:22:51.999Z</time></trkpt><trkpt lat="42.015433255467194" lon="12.912379064140572"><ele>336.0</ele><time>2026-03-29T09:22:52.999Z</time></trkpt><trkpt lat="42.01537543577291" lon="12.912619345488071"><ele>334.6666666666667</ele><time>2026-03-29T09:22:53.999Z</time></trkpt><trkpt lat="42.01532141887457" lon="12.912852821845169"><ele>333.33333333333337</ele><time>2026-03-29T09:22:54.999Z</time></trkpt><trkpt lat="42.015268411199656" lon="12.913094277940925"><ele>332.0</ele><time>2026-03-29T09:22:55.999Z</time></trkpt><trkpt lat="42.01521610663553" lon="12.913333294602253"><ele>330.6666666666667</ele><time>2026-03-29T09:22:56.999Z</time></trkpt><trkpt lat="42.01516894278725" lon="12.913567808852305"><ele>329.3333333333333</ele><time>2026-03-29T09:22:57.999Z</time></trkpt><trkpt lat="42.01514128706238" lon="12.91379893891606"><ele>328.0</ele><time>2026-03-29T09:22:58.999Z</time></trkpt><trkpt lat="42.015132571073" lon="12.914027793613947"><ele>326.3333333333333</ele><time>2026-03-29T09:22:59.999Z</time></trkpt><trkpt lat="42.01513484507728" lon="12.914259522460345"><ele>324.6666666666667</ele><time>2026-03-29T09:23:00.999Z</time></trkpt><trkpt lat="42.01515767698189" lon="12.914498561196416"><ele>323.0</ele><time>2026-03-29T09:23:01.999Z</time></trkpt><trkpt lat="42.01520277596854" lon="12.914746823586118"><ele>323.0</ele><time>2026-03-29T09:23:02.999Z</time></trkpt><trkpt lat="42.01525785046045" lon="12.914996807814475"><ele>323.0</ele><time>2026-03-29T09:23:03.999Z</time></trkpt><trkpt lat="42.015312118366154" lon="12.915229278143475"><ele>323.0</ele><time>2026-03-29T09:23:04.999Z</time></trkpt><trkpt lat="42.0153605806099" lon="12.915446052530191"><ele>319.33333333333337</ele><time>2026-03-29T09:23:05.999Z</time></trkpt><trkpt lat="42.01541092500187" lon="12.915680928582841"><ele>315.6666666666667</ele><time>2026-03-29T09:23:06.999Z</time></trkpt><trkpt lat="42.01546586501251" lon="12.915949386235967"><ele>312.0</ele><time>2026-03-29T09:23:07.999Z</time></trkpt><trkpt lat="42.01553434206233" lon="12.916237122734193"><ele>309.5</ele><time>2026-03-29T09:23:08.999Z</time></trkpt><trkpt lat="42.01561331733394" lon="12.916536240182158"><ele>307.0</ele><time>2026-03-29T09:23:09.999Z</time></trkpt><trkpt lat="42.01569862530492" lon="12.916839314686799"><ele>304.5</ele><time>2026-03-29T09:23:10.999Z</time></trkpt><trkpt lat="42.015782825794936" lon="12.917147471166547"><ele>302.0</ele><time>2026-03-29T09:23:11.999Z</time></trkpt><trkpt lat="42.01586536953196" lon="12.917455398113406"><ele>307.0</ele><time>2026-03-29T09:23:12.999Z</time></trkpt><trkpt lat="42.015949958907036" lon="12.917774529231973"><ele>312.0</ele><time>2026-03-29T09:23:13.999Z</time></trkpt><trkpt lat="42.016037074863306" lon="12.918094207097198"><ele>309.5</ele><time>2026-03-29T09:23:14.999Z</time></trkpt><trkpt lat="42.01612569916318" lon="12.918412563532469"><ele>307.0</ele><time>2026-03-29T09:23:15.999Z</time></trkpt><trkpt lat="42.01621855683891" lon="12.91873074260265"><ele>307.0</ele><time>2026-03-29T09:23:16.999Z</time></trkpt><trkpt lat="42.016305902119484" lon="12.919034601325215"><ele>307.0</ele><time>2026-03-29T09:23:17.999Z</time></trkpt><trkpt lat="42.01638631800979" lon="12.919323126704096"><ele>305.66666666666663</ele><time>2026-03-29T09:23:18.999Z</time></trkpt><trkpt lat="42.016444318646535" lon="12.919608155073465"><ele>304.3333333333333</ele><time>2026-03-29T09:23:19.999Z</time></trkpt><trkpt lat="42.016512811989244" lon="12.91986642718848"><ele>303.0</ele><time>2026-03-29T09:23:20.999Z</time></trkpt><trkpt lat="42.016574755543594" lon="12.920101964082866"><ele>302.75</ele><time>2026-03-29T09:23:21.999Z</time></trkpt><trkpt lat="42.016625719041116" lon="12.920300457202666"><ele>302.5</ele><time>2026-03-29T09:23:22.999Z</time></trkpt><trkpt lat="42.01667199838977" lon="12.920478182529308"><ele>302.25</ele><time>2026-03-29T09:23:23.999Z</time></trkpt><trkpt lat="42.01673503875248" lon="12.920657171117853"><ele>302.0</ele><time>2026-03-29T09:23:24.999Z</time></trkpt><trkpt lat="42.01678130472083" lon="12.920841828361445"><ele>303.33333333333337</ele><time>2026-03-29T09:23:25.999Z</time></trkpt><trkpt lat="42.016830135358525" lon="12.921035162950275"><ele>304.6666666666667</ele><time>2026-03-29T09:23:26.999Z</time></trkpt><trkpt lat="42.016882320279166" lon="12.921232019884483"><ele>306.0</ele><time>2026-03-29T09:23:27.999Z</time></trkpt><trkpt lat="42.01693501315868" lon="12.921429247699704"><ele>306.0</ele><time>2026-03-29T09:23:28.999Z</time></trkpt><trkpt lat="42.01698635178094" lon="12.92162258311274"><ele>306.0</ele><time>2026-03-29T09:23:29.999Z</time></trkpt><trkpt lat="42.0170312723864" lon="12.921809770976669"><ele>306.0</ele><time>2026-03-29T09:23:30.999Z</time></trkpt><trkpt lat="42.01707612112201" lon="12.92198182386177"><ele>306.0</ele><time>2026-03-29T09:23:31.999Z</time></trkpt><trkpt lat="42.017120936934" lon="12.922144197640735"><ele>305.25</ele><time>2026-03-29T09:23:32.999Z</time></trkpt><trkpt lat="42.01716463193679" lon="12.922304157275327"><ele>304.5</ele><time>2026-03-29T09:23:33.999Z</time></trkpt><trkpt lat="42.01720340442775" lon="12.922452273855153"><ele>303.75</ele><time>2026-03-29T09:23:34.999Z</time></trkpt><trkpt lat="42.01723968595625" lon="12.92259818800875"><ele>303.0</ele><time>2026-03-29T09:23:35.999Z</time></trkpt><trkpt lat="42.01726033005107" lon="12.92274034874509"><ele>302.6</ele><time>2026-03-29T09:23:36.999Z</time></trkpt><trkpt lat="42.01730950853697" lon="12.922864208045043"><ele>302.20000000000005</ele><time>2026-03-29T09:23:37.999Z</time></trkpt><trkpt lat="42.01734119626279" lon="12.922988746086244"><ele>301.8</ele><time>2026-03-29T09:23:38.999Z</time></trkpt><trkpt lat="42.01736177324471" lon="12.923137514637911"><ele>301.40000000000003</ele><time>2026-03-29T09:23:39.999Z</time></trkpt><trkpt lat="42.01742018998301" lon="12.923298986719564"><ele>301.0</ele><time>2026-03-29T09:23:40.999Z</time></trkpt><trkpt lat="42.01746542837492" lon="12.923489122194743"><ele>300.3333333333333</ele><time>2026-03-29T09:23:41.999Z</time></trkpt><trkpt lat="42.01751938849047" lon="12.923698400156278"><ele>299.6666666666667</ele><time>2026-03-29T09:23:42.999Z</time></trkpt><trkpt lat="42.017573221356486" lon="12.923914149090335"><ele>299.0</ele><time>2026-03-29T09:23:43.999Z</time></trkpt><trkpt lat="42.01763404392249" lon="12.924145121179473"><ele>300.0</ele><time>2026-03-29T09:23:44.999Z</time></trkpt><trkpt lat="42.01770029667896" lon="12.92440441679224"><ele>301.0</ele><time>2026-03-29T09:23:45.999Z</time></trkpt><trkpt lat="42.01776731147854" lon="12.924663193915231"><ele>302.0</ele><time>2026-03-29T09:23:46.998Z</time></trkpt><trkpt lat="42.01784175455305" lon="12.92490557092059"><ele>300.5</ele><time>2026-03-29T09:23:47.998Z</time></trkpt><trkpt lat="42.017955509986415" lon="12.925156877402639"><ele>299.0</ele><time>2026-03-29T09:23:48.998Z</time></trkpt><trkpt lat="42.01811607775267" lon="12.925408046393619"><ele>299.0</ele><time>2026-03-29T09:23:49.998Z</time></trkpt><trkpt lat="42.01828996140495" lon="12.925649116949577"><ele>299.0</ele><time>2026-03-29T09:23:50.998Z</time></trkpt><trkpt lat="42.01845165493017" lon="12.925866017102969"><ele>298.0</ele><time>2026-03-29T09:23:51.998Z</time></trkpt><trkpt lat="42.018613195778016" lon="12.92606354679355"><ele>297.0</ele><time>2026-03-29T09:23:52.998Z</time></trkpt><trkpt lat="42.018783810718695" lon="12.926244154950249"><ele>296.0</ele><time>2026-03-29T09:23:53.998Z</time></trkpt><trkpt lat="42.01897967907047" lon="12.926415596741293"><ele>295.0</ele><time>2026-03-29T09:23:54.998Z</time></trkpt><trkpt lat="42.01919153186419" lon="12.926576281981074"><ele>294.0</ele><time>2026-03-29T09:23:55.998Z</time></trkpt><trkpt lat="42.01941192159636" lon="12.926746488561768"><ele>294.0</ele><time>2026-03-29T09:23:56.998Z</time></trkpt><trkpt lat="42.01963400870194" lon="12.926927855422953"><ele>294.0</ele><time>2026-03-29T09:23:57.998Z</time></trkpt><trkpt lat="42.01986375337334" lon="12.927116561327582"><ele>296.5</ele><time>2026-03-29T09:23:58.998Z</time></trkpt><trkpt lat="42.020097499039075" lon="12.927309102522777"><ele>299.0</ele><time>2026-03-29T09:23:59.998Z</time></trkpt><trkpt lat="42.02033766218634" lon="12.92750483354823"><ele>298.5</ele><time>2026-03-29T09:24:00.998Z</time></trkpt><trkpt lat="42.02059078109606" lon="12.927711113293126"><ele>298.0</ele><time>2026-03-29T09:24:01.998Z</time></trkpt><trkpt lat="42.02084882678776" lon="12.927922166185848"><ele>300.0</ele><time>2026-03-29T09:24:02.998Z</time></trkpt><trkpt lat="42.02108610830042" lon="12.928106721852542"><ele>302.0</ele><time>2026-03-29T09:24:03.998Z</time></trkpt><trkpt lat="42.021306723068406" lon="12.92827151186105"><ele>300.0</ele><time>2026-03-29T09:24:04.998Z</time></trkpt><trkpt lat="42.021529491785586" lon="12.928430049349673"><ele>298.0</ele><time>2026-03-29T09:24:05.998Z</time></trkpt><trkpt lat="42.02174111782881" lon="12.928578903307585"><ele>298.0</ele><time>2026-03-29T09:24:06.998Z</time></trkpt><trkpt lat="42.021953050107136" lon="12.928756804100695"><ele>298.0</ele><time>2026-03-29T09:24:07.998Z</time></trkpt><trkpt lat="42.02218864944126" lon="12.928911533661903"><ele>298.0</ele><time>2026-03-29T09:24:08.998Z</time></trkpt><trkpt lat="42.02241866316818" lon="12.929102185573369"><ele>298.0</ele><time>2026-03-29T09:24:09.998Z</time></trkpt><trkpt lat="42.02265271238745" lon="12.929306344063143"><ele>297.0</ele><time>2026-03-29T09:24:10.998Z</time></trkpt><trkpt lat="42.02288247834159" lon="12.929551215462501"><ele>296.0</ele><time>2026-03-29T09:24:11.998Z</time></trkpt><trkpt lat="42.02311945451328" lon="12.929788892474024"><ele>297.5</ele><time>2026-03-29T09:24:12.998Z</time></trkpt><trkpt lat="42.02335040176686" lon="12.93003667678969"><ele>299.0</ele><time>2026-03-29T09:24:13.998Z</time></trkpt><trkpt lat="42.02358363093198" lon="12.930266262345853"><ele>299.0</ele><time>2026-03-29T09:24:14.998Z</time></trkpt><trkpt lat="42.023776305834936" lon="12.930518156811358"><ele>299.0</ele><time>2026-03-29T09:24:15.998Z</time></trkpt><trkpt lat="42.02396362120917" lon="12.93077063391204"><ele>300.5</ele><time>2026-03-29T09:24:16.998Z</time></trkpt><trkpt lat="42.02415721689296" lon="12.931041295803759"><ele>302.0</ele><time>2026-03-29T09:24:17.998Z</time></trkpt><trkpt lat="42.0243553190182" lon="12.9313273474231"><ele>302.0</ele><time>2026-03-29T09:24:19Z</time></trkpt><trkpt lat="42.02455233302306" lon="12.931627066024591"><ele>302.0</ele><time>2026-03-29T09:24:20Z</time></trkpt><trkpt lat="42.02474430992912" lon="12.931939038120987"><ele>299.5</ele><time>2026-03-29T09:24:21Z</time></trkpt><trkpt lat="42.0249207619952" lon="12.932240941358497"><ele>297.0</ele><time>2026-03-29T09:24:22Z</time></trkpt><trkpt lat="42.02508422878066" lon="12.932528325939165"><ele>300.0</ele><time>2026-03-29T09:24:23Z</time></trkpt><trkpt lat="42.02524846140551" lon="12.932813383911054"><ele>303.0</ele><time>2026-03-29T09:24:24Z</time></trkpt><trkpt lat="42.02541460941801" lon="12.933102156935485"><ele>303.0</ele><time>2026-03-29T09:24:25Z</time></trkpt><trkpt lat="42.025572556259235" lon="12.933383692192645"><ele>303.0</ele><time>2026-03-29T09:24:26Z</time></trkpt><trkpt lat="42.02572990345331" lon="12.933665524027074"><ele>306.5</ele><time>2026-03-29T09:24:27Z</time></trkpt><trkpt lat="42.025886696043095" lon="12.933947202171138"><ele>310.0</ele><time>2026-03-29T09:24:28Z</time></trkpt><trkpt lat="42.02603605706264" lon="12.934216772477948"><ele>308.0</ele><time>2026-03-29T09:24:29Z</time></trkpt><trkpt lat="42.026185106409265" lon="12.934479773884886"><ele>306.0</ele><time>2026-03-29T09:24:30Z</time></trkpt><trkpt lat="42.02633847166325" lon="12.934748321496118"><ele>306.0</ele><time>2026-03-29T09:24:31Z</time></trkpt><trkpt lat="42.02649486162051" lon="12.93501734100859"><ele>306.0</ele><time>2026-03-29T09:24:32Z</time></trkpt><trkpt lat="42.02665036762115" lon="12.935280785096262"><ele>305.5</ele><time>2026-03-29T09:24:33Z</time></trkpt><trkpt lat="42.02679671523086" lon="12.935535060789118"><ele>305.0</ele><time>2026-03-29T09:24:34Z</time></trkpt><trkpt lat="42.02693677859562" lon="12.93578513649243"><ele>304.6666666666667</ele><time>2026-03-29T09:24:35Z</time></trkpt><trkpt lat="42.027072569245504" lon="12.936028392141527"><ele>304.3333333333333</ele><time>2026-03-29T09:24:36Z</time></trkpt><trkpt lat="42.02720685909749" lon="12.936266069315467"><ele>304.0</ele><time>2026-03-29T09:24:37Z</time></trkpt><trkpt lat="42.02733545563105" lon="12.936499433060085"><ele>304.0</ele><time>2026-03-29T09:24:38Z</time></trkpt><trkpt lat="42.02746918320784" lon="12.936751639542123"><ele>304.0</ele><time>2026-03-29T09:24:39Z</time></trkpt><trkpt lat="42.02760015291332" lon="12.93701723886159"><ele>304.0</ele><time>2026-03-29T09:24:40Z</time></trkpt><trkpt lat="42.02772367238706" lon="12.93730116615014"><ele>304.0</ele><time>2026-03-29T09:24:41Z</time></trkpt><trkpt lat="42.027838383951014" lon="12.93759611356836"><ele>303.5</ele><time>2026-03-29T09:24:42Z</time></trkpt><trkpt lat="42.02794165492588" lon="12.93789953754951"><ele>303.0</ele><time>2026-03-29T09:24:43Z</time></trkpt><trkpt lat="42.02804199787668" lon="12.938223767598702"><ele>302.0</ele><time>2026-03-29T09:24:43.999Z</time></trkpt><trkpt lat="42.02812992538242" lon="12.93856328674406"><ele>301.0</ele><time>2026-03-29T09:24:44.999Z</time></trkpt><trkpt lat="42.028196202870596" lon="12.938905033208352"><ele>300.5</ele><time>2026-03-29T09:24:45.999Z</time></trkpt><trkpt lat="42.02824474336493" lon="12.939253730514944"><ele>300.0</ele><time>2026-03-29T09:24:46.999Z</time></trkpt><trkpt lat="42.02827889403816" lon="12.939597556497622"><ele>300.5</ele><time>2026-03-29T09:24:47.999Z</time></trkpt><trkpt lat="42.028311707677666" lon="12.939948724455002"><ele>301.0</ele><time>2026-03-29T09:24:48.999Z</time></trkpt><trkpt lat="42.02834544391178" lon="12.940313202453734"><ele>301.0</ele><time>2026-03-29T09:24:49.999Z</time></trkpt><trkpt lat="42.02837405302952" lon="12.940678146681373"><ele>301.0</ele><time>2026-03-29T09:24:50.999Z</time></trkpt><trkpt lat="42.0283979016629" lon="12.941046384974886"><ele>300.5</ele><time>2026-03-29T09:24:51.999Z</time></trkpt><trkpt lat="42.028416741638566" lon="12.941411641115113"><ele>300.0</ele><time>2026-03-29T09:24:52.999Z</time></trkpt><trkpt lat="42.02843560757319" lon="12.941764395615287"><ele>301.0</ele><time>2026-03-29T09:24:53.999Z</time></trkpt><trkpt lat="42.028455768656755" lon="12.942102050201889"><ele>302.0</ele><time>2026-03-29T09:24:54.999Z</time></trkpt><trkpt lat="42.02847997622188" lon="12.942425676448353"><ele>303.33333333333337</ele><time>2026-03-29T09:24:55.999Z</time></trkpt><trkpt lat="42.02852031515668" lon="12.942720185304806"><ele>304.6666666666667</ele><time>2026-03-29T09:24:56.999Z</time></trkpt><trkpt lat="42.028584087623095" lon="12.94299771412963"><ele>306.0</ele><time>2026-03-29T09:24:57.999Z</time></trkpt><trkpt lat="42.02868405119587" lon="12.943258823991627"><ele>307.5</ele><time>2026-03-29T09:24:58.999Z</time></trkpt><trkpt lat="42.02882226586063" lon="12.943499546522787"><ele>309.0</ele><time>2026-03-29T09:24:59.999Z</time></trkpt><trkpt lat="42.0289969576167" lon="12.943699324138741"><ele>308.0</ele><time>2026-03-29T09:25:00.999Z</time></trkpt><trkpt lat="42.02920255088211" lon="12.943856138870474"><ele>307.0</ele><time>2026-03-29T09:25:01.999Z</time></trkpt><trkpt lat="42.02942717608138" lon="12.943996690850664"><ele>307.0</ele><time>2026-03-29T09:25:02.999Z</time></trkpt><trkpt lat="42.02965081321944" lon="12.944134690221803"><ele>307.0</ele><time>2026-03-29T09:25:03.999Z</time></trkpt><trkpt lat="42.029875651216344" lon="12.944272554012837"><ele>307.5</ele><time>2026-03-29T09:25:04.999Z</time></trkpt><trkpt lat="42.03010607128723" lon="12.944388857772589"><ele>308.0</ele><time>2026-03-29T09:25:05.999Z</time></trkpt><trkpt lat="42.0303429399037" lon="12.944487745191541"><ele>308.0</ele><time>2026-03-29T09:25:06.999Z</time></trkpt><trkpt lat="42.03057862764574" lon="12.944585255255125"><ele>308.0</ele><time>2026-03-29T09:25:07.999Z</time></trkpt><trkpt lat="42.03079423649268" lon="12.944669135809113"><ele>309.0</ele><time>2026-03-29T09:25:08.999Z</time></trkpt><trkpt lat="42.03099751068451" lon="12.94474136500522"><ele>310.0</ele><time>2026-03-29T09:25:09.999Z</time></trkpt><trkpt lat="42.03119160240248" lon="12.94480634118904"><ele>311.0</ele><time>2026-03-29T09:25:10.999Z</time></trkpt><trkpt lat="42.031380138259024" lon="12.944878065552446"><ele>311.0</ele><time>2026-03-29T09:25:11.999Z</time></trkpt><trkpt lat="42.03157212207071" lon="12.944979170224464"><ele>311.0</ele><time>2026-03-29T09:25:12.999Z</time></trkpt><trkpt lat="42.03174959917393" lon="12.945128519076555"><ele>311.0</ele><time>2026-03-29T09:25:13.999Z</time></trkpt><trkpt lat="42.03190942982215" lon="12.94530011071146"><ele>310.33333333333337</ele><time>2026-03-29T09:25:14.999Z</time></trkpt><trkpt lat="42.0320512326993" lon="12.945457643665685"><ele>309.6666666666667</ele><time>2026-03-29T09:25:15.999Z</time></trkpt><trkpt lat="42.03219471070075" lon="12.945593825041907"><ele>309.0</ele><time>2026-03-29T09:25:16.999Z</time></trkpt><trkpt lat="42.03236155318561" lon="12.945703418177844"><ele>310.6666666666667</ele><time>2026-03-29T09:25:17.999Z</time></trkpt><trkpt lat="42.03255518974766" lon="12.945779909336828"><ele>312.33333333333337</ele><time>2026-03-29T09:25:18.999Z</time></trkpt><trkpt lat="42.03276242874201" lon="12.945825037874714"><ele>314.0</ele><time>2026-03-29T09:25:19.999Z</time></trkpt><trkpt lat="42.03295816096222" lon="12.945864169993724"><ele>313.33333333333337</ele><time>2026-03-29T09:25:20.999Z</time></trkpt><trkpt lat="42.03313832991791" lon="12.945904813927898"><ele>312.6666666666667</ele><time>2026-03-29T09:25:21.999Z</time></trkpt><trkpt lat="42.033304359534654" lon="12.945950243089692"><ele>312.0</ele><time>2026-03-29T09:25:22.999Z</time></trkpt><trkpt lat="42.03346096780646" lon="12.9460110632092"><ele>312.0</ele><time>2026-03-29T09:25:23.999Z</time></trkpt><trkpt lat="42.033623892067624" lon="12.946120162292711"><ele>312.0</ele><time>2026-03-29T09:25:24.999Z</time></trkpt><trkpt lat="42.03377063331195" lon="12.946272222541356"><ele>312.0</ele><time>2026-03-29T09:25:25.999Z</time></trkpt><trkpt lat="42.03387330284506" lon="12.946472873941321"><ele>312.0</ele><time>2026-03-29T09:25:26.999Z</time></trkpt><trkpt lat="42.03398149851457" lon="12.946671102750551"><ele>312.0</ele><time>2026-03-29T09:25:27.999Z</time></trkpt><trkpt lat="42.03403374231693" lon="12.94691644271939"><ele>312.0</ele><time>2026-03-29T09:25:28.999Z</time></trkpt><trkpt lat="42.034063245973" lon="12.947166497623469"><ele>311.3333333333333</ele><time>2026-03-29T09:25:29.999Z</time></trkpt><trkpt lat="42.03409900119819" lon="12.947415686595857"><ele>310.66666666666663</ele><time>2026-03-29T09:25:30.999Z</time></trkpt><trkpt lat="42.034136065077014" lon="12.947648442564725"><ele>310.0</ele><time>2026-03-29T09:25:31.999Z</time></trkpt><trkpt lat="42.03421240858456" lon="12.947885650799323"><ele>311.66666666666663</ele><time>2026-03-29T09:25:32.999Z</time></trkpt><trkpt lat="42.03430103453327" lon="12.948131681548047"><ele>313.3333333333333</ele><time>2026-03-29T09:25:33.999Z</time></trkpt><trkpt lat="42.03437345489895" lon="12.94838512470926"><ele>315.0</ele><time>2026-03-29T09:25:34.999Z</time></trkpt><trkpt lat="42.034427942294045" lon="12.948639299405517"><ele>315.0</ele><time>2026-03-29T09:25:35.999Z</time></trkpt><trkpt lat="42.034479883893255" lon="12.948902705475936"><ele>315.0</ele><time>2026-03-29T09:25:36.999Z</time></trkpt><trkpt lat="42.03453116718838" lon="12.94916987531281"><ele>315.0</ele><time>2026-03-29T09:25:37.999Z</time></trkpt><trkpt lat="42.0345815227682" lon="12.949453566031684"><ele>315.0</ele><time>2026-03-29T09:25:38.999Z</time></trkpt><trkpt lat="42.03463268430366" lon="12.949737444445873"><ele>315.0</ele><time>2026-03-29T09:25:39.999Z</time></trkpt><trkpt lat="42.034695254687584" lon="12.950007799297982"><ele>315.0</ele><time>2026-03-29T09:25:40.999Z</time></trkpt><trkpt lat="42.0347826182573" lon="12.950272399904343"><ele>314.0</ele><time>2026-03-29T09:25:41.999Z</time></trkpt><trkpt lat="42.034892881932855" lon="12.950510528009978"><ele>313.0</ele><time>2026-03-29T09:25:42.999Z</time></trkpt><trkpt lat="42.03501153341334" lon="12.950714859410372"><ele>312.0</ele><time>2026-03-29T09:25:43.999Z</time></trkpt><trkpt lat="42.03512750085462" lon="12.950906506459768"><ele>312.0</ele><time>2026-03-29T09:25:44.999Z</time></trkpt><trkpt lat="42.035246713722245" lon="12.951105661008508"><ele>312.0</ele><time>2026-03-29T09:25:45.998Z</time></trkpt><trkpt lat="42.03536642073836" lon="12.951308433085176"><ele>312.0</ele><time>2026-03-29T09:25:46.998Z</time></trkpt><trkpt lat="42.035485581594536" lon="12.951523599895166"><ele>312.3333333333333</ele><time>2026-03-29T09:25:47.998Z</time></trkpt><trkpt lat="42.03560324289092" lon="12.951747598897606"><ele>312.66666666666663</ele><time>2026-03-29T09:25:48.998Z</time></trkpt><trkpt lat="42.035727583378595" lon="12.951975841326444"><ele>313.0</ele><time>2026-03-29T09:25:49.998Z</time></trkpt><trkpt lat="42.035851998580526" lon="12.95220412623148"><ele>313.3333333333333</ele><time>2026-03-29T09:25:50.998Z</time></trkpt><trkpt lat="42.03598090633267" lon="12.95243371367962"><ele>313.6666666666667</ele><time>2026-03-29T09:25:51.998Z</time></trkpt><trkpt lat="42.03610960870147" lon="12.952665755278097"><ele>314.0</ele><time>2026-03-29T09:25:52.998Z</time></trkpt><trkpt lat="42.036235002439696" lon="12.952899977318229"><ele>314.33333333333337</ele><time>2026-03-29T09:25:53.998Z</time></trkpt><trkpt lat="42.036362396920744" lon="12.953148926424005"><ele>314.6666666666667</ele><time>2026-03-29T09:25:54.998Z</time></trkpt><trkpt lat="42.03648597381895" lon="12.953395639673271"><ele>315.0</ele><time>2026-03-29T09:25:55.998Z</time></trkpt><trkpt lat="42.036608003106764" lon="12.95364709768548"><ele>316.5</ele><time>2026-03-29T09:25:56.998Z</time></trkpt><trkpt lat="42.036720915870795" lon="12.953914491297496"><ele>318.0</ele><time>2026-03-29T09:25:57.998Z</time></trkpt><trkpt lat="42.03685200962712" lon="12.954182684935551"><ele>317.6666666666667</ele><time>2026-03-29T09:25:58.998Z</time></trkpt><trkpt lat="42.0369893953489" lon="12.954424723026586"><ele>317.33333333333337</ele><time>2026-03-29T09:25:59.998Z</time></trkpt><trkpt lat="42.037104390885304" lon="12.95466324139083"><ele>317.0</ele><time>2026-03-29T09:26:00.998Z</time></trkpt><trkpt lat="42.0372192577049" lon="12.954900230326299"><ele>316.6666666666667</ele><time>2026-03-29T09:26:01.998Z</time></trkpt><trkpt lat="42.037333140121305" lon="12.955137573726532"><ele>316.3333333333333</ele><time>2026-03-29T09:26:02.998Z</time></trkpt><trkpt lat="42.03745011769441" lon="12.955383613416673"><ele>316.0</ele><time>2026-03-29T09:26:03.998Z</time></trkpt><trkpt lat="42.03756411528633" lon="12.955637297240157"><ele>316.3333333333333</ele><time>2026-03-29T09:26:04.998Z</time></trkpt><trkpt lat="42.037648109045705" lon="12.955913398591912"><ele>316.6666666666667</ele><time>2026-03-29T09:26:05.998Z</time></trkpt><trkpt lat="42.037730242912424" lon="12.956176547379691"><ele>317.0</ele><time>2026-03-29T09:26:06.998Z</time></trkpt><trkpt lat="42.03782498172528" lon="12.956428374964613"><ele>317.0</ele><time>2026-03-29T09:26:07.998Z</time></trkpt><trkpt lat="42.03791386720301" lon="12.956660051845217"><ele>317.0</ele><time>2026-03-29T09:26:08.998Z</time></trkpt><trkpt lat="42.03798628231183" lon="12.956903948317487"><ele>317.0</ele><time>2026-03-29T09:26:09.998Z</time></trkpt><trkpt lat="42.038040255105" lon="12.957157781368995"><ele>317.33333333333337</ele><time>2026-03-29T09:26:10.998Z</time></trkpt><trkpt lat="42.038080041723546" lon="12.957408851789241"><ele>317.6666666666667</ele><time>2026-03-29T09:26:11.998Z</time></trkpt><trkpt lat="42.038063970865984" lon="12.957654075205692"><ele>318.0</ele><time>2026-03-29T09:26:12.998Z</time></trkpt><trkpt lat="42.038008280907384" lon="12.957877498422226"><ele>318.6666666666667</ele><time>2026-03-29T09:26:13.998Z</time></trkpt><trkpt lat="42.03789695148273" lon="12.958086789075516"><ele>319.33333333333337</ele><time>2026-03-29T09:26:14.998Z</time></trkpt><trkpt lat="42.037765862630096" lon="12.958277333542762"><ele>320.0</ele><time>2026-03-29T09:26:15.998Z</time></trkpt><trkpt lat="42.037614865426164" lon="12.958444210608747"><ele>320.0</ele><time>2026-03-29T09:26:16.998Z</time></trkpt><trkpt lat="42.037437211593726" lon="12.95860277291828"><ele>320.0</ele><time>2026-03-29T09:26:17.998Z</time></trkpt><trkpt lat="42.03727545793361" lon="12.958759224824826"><ele>320.0</ele><time>2026-03-29T09:26:18.998Z</time></trkpt><trkpt lat="42.037135429353754" lon="12.958897217378011"><ele>320.0</ele><time>2026-03-29T09:26:19.998Z</time></trkpt><trkpt lat="42.03701110542036" lon="12.959017477381183"><ele>320.0</ele><time>2026-03-29T09:26:20.998Z</time></trkpt><trkpt lat="42.03688048350415" lon="12.959136491849222"><ele>320.0</ele><time>2026-03-29T09:26:21.998Z</time></trkpt><trkpt lat="42.03674394613525" lon="12.959234320312264"><ele>323.33333333333337</ele><time>2026-03-29T09:26:22.998Z</time></trkpt><trkpt lat="42.03658625600094" lon="12.959299430337142"><ele>326.6666666666667</ele><time>2026-03-29T09:26:24Z</time></trkpt><trkpt lat="42.036421723495856" lon="12.95933941914148"><ele>330.0</ele><time>2026-03-29T09:26:25Z</time></trkpt><trkpt lat="42.03625407133199" lon="12.95939558078047"><ele>330.0</ele><time>2026-03-29T09:26:26Z</time></trkpt><trkpt lat="42.03608791177707" lon="12.959460938854637"><ele>330.0</ele><time>2026-03-29T09:26:27Z</time></trkpt><trkpt lat="42.035916955118374" lon="12.959528268806704"><ele>330.0</ele><time>2026-03-29T09:26:28Z</time></trkpt><trkpt lat="42.03575188867226" lon="12.959598578351779"><ele>327.0</ele><time>2026-03-29T09:26:29Z</time></trkpt><trkpt lat="42.03559362932134" lon="12.959678618494758"><ele>324.0</ele><time>2026-03-29T09:26:30Z</time></trkpt><trkpt lat="42.03544838530766" lon="12.959780301909232"><ele>321.0</ele><time>2026-03-29T09:26:31Z</time></trkpt><trkpt lat="42.03531959500643" lon="12.959915458381964"><ele>322.6666666666667</ele><time>2026-03-29T09:26:32Z</time></trkpt><trkpt lat="42.03521004005502" lon="12.960096908014297"><ele>324.33333333333337</ele><time>2026-03-29T09:26:33Z</time></trkpt><trkpt lat="42.035106882507186" lon="12.960339719869063"><ele>326.0</ele><time>2026-03-29T09:26:34Z</time></trkpt><trkpt lat="42.034990815213604" lon="12.960608946424292"><ele>324.33333333333337</ele><time>2026-03-29T09:26:35Z</time></trkpt><trkpt lat="42.034862566310856" lon="12.960863048347973"><ele>322.6666666666667</ele><time>2026-03-29T09:26:36Z</time></trkpt><trkpt lat="42.03473870819443" lon="12.961097376266066"><ele>321.0</ele><time>2026-03-29T09:26:37Z</time></trkpt><trkpt lat="42.03462921286387" lon="12.961309441927398"><ele>321.0</ele><time>2026-03-29T09:26:38Z</time></trkpt><trkpt lat="42.03453363015611" lon="12.961512493846785"><ele>321.0</ele><time>2026-03-29T09:26:39Z</time></trkpt><trkpt lat="42.034464970679885" lon="12.96173404454124"><ele>321.0</ele><time>2026-03-29T09:26:40Z</time></trkpt><trkpt lat="42.034448751335354" lon="12.961990956749345"><ele>321.3333333333333</ele><time>2026-03-29T09:26:41Z</time></trkpt><trkpt lat="42.034465992171405" lon="12.962257848175357"><ele>321.66666666666663</ele><time>2026-03-29T09:26:42Z</time></trkpt><trkpt lat="42.03447631291508" lon="12.962507768450765"><ele>322.0</ele><time>2026-03-29T09:26:43Z</time></trkpt><trkpt lat="42.034461185267475" lon="12.962767715221187"><ele>322.0</ele><time>2026-03-29T09:26:44Z</time></trkpt><trkpt lat="42.03442270224108" lon="12.963049109968471"><ele>322.0</ele><time>2026-03-29T09:26:45Z</time></trkpt><trkpt lat="42.034357465728945" lon="12.963365763886802"><ele>322.5</ele><time>2026-03-29T09:26:46Z</time></trkpt><trkpt lat="42.034269144916806" lon="12.963700634039942"><ele>323.0</ele><time>2026-03-29T09:26:47Z</time></trkpt><trkpt lat="42.034177434988834" lon="12.964024037585693"><ele>323.0</ele><time>2026-03-29T09:26:48Z</time></trkpt><trkpt lat="42.03409705263753" lon="12.964311319738192"><ele>323.0</ele><time>2026-03-29T09:26:49Z</time></trkpt><trkpt lat="42.03402570648448" lon="12.964572234494604"><ele>323.0</ele><time>2026-03-29T09:26:50Z</time></trkpt><trkpt lat="42.033933448347106" lon="12.964862396973116"><ele>322.5</ele><time>2026-03-29T09:26:50.999Z</time></trkpt><trkpt lat="42.0338206295936" lon="12.965179077414728"><ele>322.0</ele><time>2026-03-29T09:26:51.999Z</time></trkpt><trkpt lat="42.03369749628434" lon="12.965483021391067"><ele>322.0</ele><time>2026-03-29T09:26:52.999Z</time></trkpt><trkpt lat="42.033594921166866" lon="12.965771483751464"><ele>322.0</ele><time>2026-03-29T09:26:53.999Z</time></trkpt><trkpt lat="42.033525362889904" lon="12.966058776936848"><ele>322.5</ele><time>2026-03-29T09:26:54.999Z</time></trkpt><trkpt lat="42.03348221075303" lon="12.966344702257654"><ele>323.0</ele><time>2026-03-29T09:26:55.999Z</time></trkpt><trkpt lat="42.03346563403925" lon="12.966661300875241"><ele>324.0</ele><time>2026-03-29T09:26:56.999Z</time></trkpt><trkpt lat="42.03347100155805" lon="12.966997135007869"><ele>325.0</ele><time>2026-03-29T09:26:57.999Z</time></trkpt><trkpt lat="42.03350477340229" lon="12.967338146732214"><ele>323.5</ele><time>2026-03-29T09:26:58.999Z</time></trkpt><trkpt lat="42.03358093306627" lon="12.967695093793948"><ele>322.0</ele><time>2026-03-29T09:26:59.999Z</time></trkpt><trkpt lat="42.03367428967332" lon="12.968049671078731"><ele>320.5</ele><time>2026-03-29T09:27:00.999Z</time></trkpt><trkpt lat="42.03374401884909" lon="12.968374433324255"><ele>319.0</ele><time>2026-03-29T09:27:01.999Z</time></trkpt><trkpt lat="42.033791308426224" lon="12.968671863276242"><ele>319.0</ele><time>2026-03-29T09:27:02.999Z</time></trkpt><trkpt lat="42.03382780910986" lon="12.968928520859723"><ele>319.0</ele><time>2026-03-29T09:27:03.999Z</time></trkpt><trkpt lat="42.03385047360978" lon="12.969145753828718"><ele>319.0</ele><time>2026-03-29T09:27:04.999Z</time></trkpt><trkpt lat="42.03383949304646" lon="12.969357788647033"><ele>319.3333333333333</ele><time>2026-03-29T09:27:05.999Z</time></trkpt><trkpt lat="42.03376968162726" lon="12.969581857401408"><ele>319.6666666666667</ele><time>2026-03-29T09:27:06.999Z</time></trkpt><trkpt lat="42.03364674223411" lon="12.969801902956682"><ele>320.0</ele><time>2026-03-29T09:27:07.999Z</time></trkpt><trkpt lat="42.03348054274778" lon="12.969988846573521"><ele>319.0</ele><time>2026-03-29T09:27:08.999Z</time></trkpt><trkpt lat="42.03327592087672" lon="12.970158770535619"><ele>318.0</ele><time>2026-03-29T09:27:09.999Z</time></trkpt><trkpt lat="42.03305933827679" lon="12.970325123280983"><ele>318.0</ele><time>2026-03-29T09:27:10.999Z</time></trkpt><trkpt lat="42.03284041367818" lon="12.970493355639636"><ele>318.0</ele><time>2026-03-29T09:27:11.999Z</time></trkpt><trkpt lat="42.032630066502215" lon="12.970638752171379"><ele>317.6666666666667</ele><time>2026-03-29T09:27:12.999Z</time></trkpt><trkpt lat="42.03244656378087" lon="12.970748431240715"><ele>317.33333333333337</ele><time>2026-03-29T09:27:13.999Z</time></trkpt><trkpt lat="42.03229186783661" lon="12.970829822752567"><ele>317.0</ele><time>2026-03-29T09:27:14.999Z</time></trkpt><trkpt lat="42.032143450078806" lon="12.970952917665628"><ele>318.33333333333337</ele><time>2026-03-29T09:27:15.999Z</time></trkpt><trkpt lat="42.032015334081294" lon="12.97115137371247"><ele>319.6666666666667</ele><time>2026-03-29T09:27:16.999Z</time></trkpt><trkpt lat="42.03191907813771" lon="12.971414103423845"><ele>321.0</ele><time>2026-03-29T09:27:17.999Z</time></trkpt><trkpt lat="42.03182072053199" lon="12.971701913267301"><ele>321.0</ele><time>2026-03-29T09:27:18.999Z</time></trkpt><trkpt lat="42.03169532311726" lon="12.97197495196049"><ele>321.0</ele><time>2026-03-29T09:27:19.999Z</time></trkpt><trkpt lat="42.03158604976258" lon="12.97228151425033"><ele>322.5</ele><time>2026-03-29T09:27:20.999Z</time></trkpt><trkpt lat="42.031437038912856" lon="12.972567251663866"><ele>324.0</ele><time>2026-03-29T09:27:21.999Z</time></trkpt><trkpt lat="42.03126290015852" lon="12.972813823902893"><ele>324.0</ele><time>2026-03-29T09:27:22.999Z</time></trkpt><trkpt lat="42.031113743797206" lon="12.973071818684714"><ele>324.0</ele><time>2026-03-29T09:27:23.999Z</time></trkpt><trkpt lat="42.03095431319954" lon="12.973310795556186"><ele>326.5</ele><time>2026-03-29T09:27:24.999Z</time></trkpt><trkpt lat="42.03076349475582" lon="12.973524233049277"><ele>329.0</ele><time>2026-03-29T09:27:25.999Z</time></trkpt><trkpt lat="42.030543962206124" lon="12.973722050179308"><ele>329.0</ele><time>2026-03-29T09:27:26.999Z</time></trkpt><trkpt lat="42.03031938944138" lon="12.973912558147044"><ele>329.0</ele><time>2026-03-29T09:27:27.999Z</time></trkpt><trkpt lat="42.03010667979318" lon="12.974053189295589"><ele>327.0</ele><time>2026-03-29T09:27:28.999Z</time></trkpt><trkpt lat="42.0299203625194" lon="12.974196661754709"><ele>325.0</ele><time>2026-03-29T09:27:29.999Z</time></trkpt><trkpt lat="42.02976379031261" lon="12.97436940470643"><ele>323.0</ele><time>2026-03-29T09:27:30.999Z</time></trkpt><trkpt lat="42.02963115085639" lon="12.974599083621252"><ele>323.0</ele><time>2026-03-29T09:27:31.999Z</time></trkpt><trkpt lat="42.02951808522656" lon="12.974887312919067"><ele>323.0</ele><time>2026-03-29T09:27:32.999Z</time></trkpt><trkpt lat="42.029415549761204" lon="12.975160394262915"><ele>324.0</ele><time>2026-03-29T09:27:33.999Z</time></trkpt><trkpt lat="42.029279592015186" lon="12.975393836366708"><ele>325.0</ele><time>2026-03-29T09:27:34.999Z</time></trkpt><trkpt lat="42.029118659562236" lon="12.975589711570677"><ele>326.0</ele><time>2026-03-29T09:27:35.999Z</time></trkpt><trkpt lat="42.028925049391944" lon="12.975740533853644"><ele>326.0</ele><time>2026-03-29T09:27:36.999Z</time></trkpt><trkpt lat="42.02870545433883" lon="12.975843949062048"><ele>326.0</ele><time>2026-03-29T09:27:37.999Z</time></trkpt><trkpt lat="42.02850311485642" lon="12.975927612736866"><ele>326.0</ele><time>2026-03-29T09:27:38.999Z</time></trkpt><trkpt lat="42.02835240470899" lon="12.975961499687747"><ele>325.5</ele><time>2026-03-29T09:27:39.999Z</time></trkpt><trkpt lat="42.02822518787045" lon="12.97600049750465"><ele>325.0</ele><time>2026-03-29T09:27:40.999Z</time></trkpt><trkpt lat="42.028103658344556" lon="12.976062580856292"><ele>324.5</ele><time>2026-03-29T09:27:41.999Z</time></trkpt><trkpt lat="42.02798731785537" lon="12.97615309300472"><ele>324.0</ele><time>2026-03-29T09:27:42.999Z</time></trkpt><trkpt lat="42.02787604152966" lon="12.976276955926139"><ele>324.0</ele><time>2026-03-29T09:27:43.999Z</time></trkpt><trkpt lat="42.02776042260491" lon="12.976434209341852"><ele>324.0</ele><time>2026-03-29T09:27:44.999Z</time></trkpt><trkpt lat="42.0276623707302" lon="12.97660207897552"><ele>324.0</ele><time>2026-03-29T09:27:45.999Z</time></trkpt><trkpt lat="42.0275920422787" lon="12.976773888732655"><ele>323.6666666666667</ele><time>2026-03-29T09:27:46.999Z</time></trkpt><trkpt lat="42.02753825623073" lon="12.976984263611872"><ele>323.33333333333337</ele><time>2026-03-29T09:27:47.999Z</time></trkpt><trkpt lat="42.02750588459281" lon="12.977231292566461"><ele>323.0</ele><time>2026-03-29T09:27:48.999Z</time></trkpt><trkpt lat="42.02748616787429" lon="12.977528742169495"><ele>321.5</ele><time>2026-03-29T09:27:49.999Z</time></trkpt><trkpt lat="42.02744311803855" lon="12.977850758254698"><ele>320.0</ele><time>2026-03-29T09:27:50.999Z</time></trkpt><trkpt lat="42.02741471484185" lon="12.97819024721907"><ele>320.0</ele><time>2026-03-29T09:27:51.999Z</time></trkpt><trkpt lat="42.027383344109886" lon="12.978555808242547"><ele>320.0</ele><time>2026-03-29T09:27:52.999Z</time></trkpt><trkpt lat="42.027349381194" lon="12.97890226892178"><ele>319.5</ele><time>2026-03-29T09:27:53.999Z</time></trkpt><trkpt lat="42.02731792621822" lon="12.979217799235286"><ele>319.0</ele><time>2026-03-29T09:27:54.999Z</time></trkpt><trkpt lat="42.02730188937204" lon="12.97952941262361"><ele>319.0</ele><time>2026-03-29T09:27:55.998Z</time></trkpt><trkpt lat="42.02723948569211" lon="12.979838950195038"><ele>319.0</ele><time>2026-03-29T09:27:56.998Z</time></trkpt><trkpt lat="42.02717043914807" lon="12.980141191419985"><ele>320.5</ele><time>2026-03-29T09:27:57.998Z</time></trkpt><trkpt lat="42.02707810133614" lon="12.980438397477498"><ele>322.0</ele><time>2026-03-29T09:27:58.998Z</time></trkpt><trkpt lat="42.02695907461588" lon="12.980734879457266"><ele>324.0</ele><time>2026-03-29T09:27:59.998Z</time></trkpt><trkpt lat="42.0268137147034" lon="12.981035509788116"><ele>326.0</ele><time>2026-03-29T09:28:00.998Z</time></trkpt><trkpt lat="42.026645240605035" lon="12.981319612482501"><ele>324.5</ele><time>2026-03-29T09:28:01.998Z</time></trkpt><trkpt lat="42.026467088917606" lon="12.981615233504073"><ele>323.0</ele><time>2026-03-29T09:28:02.998Z</time></trkpt><trkpt lat="42.02626787796049" lon="12.981893547991712"><ele>323.0</ele><time>2026-03-29T09:28:03.998Z</time></trkpt><trkpt lat="42.026071058795274" lon="12.982175360851688"><ele>323.0</ele><time>2026-03-29T09:28:04.998Z</time></trkpt><trkpt lat="42.02588169863426" lon="12.982445983884542"><ele>323.5</ele><time>2026-03-29T09:28:05.998Z</time></trkpt><trkpt lat="42.02569626800612" lon="12.982716329565715"><ele>324.0</ele><time>2026-03-29T09:28:06.998Z</time></trkpt><trkpt lat="42.02551605155913" lon="12.982978596866618"><ele>324.0</ele><time>2026-03-29T09:28:07.998Z</time></trkpt><trkpt lat="42.02533578758753" lon="12.983237050702211"><ele>324.0</ele><time>2026-03-29T09:28:08.998Z</time></trkpt><trkpt lat="42.02516196813453" lon="12.983491063794478"><ele>321.0</ele><time>2026-03-29T09:28:09.998Z</time></trkpt><trkpt lat="42.02499947629538" lon="12.983745323172244"><ele>318.0</ele><time>2026-03-29T09:28:10.998Z</time></trkpt><trkpt lat="42.024852480007624" lon="12.984019022343748"><ele>321.0</ele><time>2026-03-29T09:28:11.998Z</time></trkpt><trkpt lat="42.02472842691105" lon="12.984319039344308"><ele>324.0</ele><time>2026-03-29T09:28:12.998Z</time></trkpt><trkpt lat="42.02459104643377" lon="12.984625074736183"><ele>324.0</ele><time>2026-03-29T09:28:13.998Z</time></trkpt><trkpt lat="42.02445927942383" lon="12.984938098732544"><ele>324.0</ele><time>2026-03-29T09:28:14.998Z</time></trkpt><trkpt lat="42.02445969617154" lon="12.98535603723872"><ele>325.0</ele><time>2026-03-29T09:28:15.998Z</time></trkpt><trkpt lat="42.02440921764839" lon="12.985738286541471"><ele>326.0</ele><time>2026-03-29T09:28:16.998Z</time></trkpt><trkpt lat="42.02437444310749" lon="12.98611318452174"><ele>326.0</ele><time>2026-03-29T09:28:17.998Z</time></trkpt><trkpt lat="42.02435235670088" lon="12.986452733823251"><ele>326.0</ele><time>2026-03-29T09:28:18.998Z</time></trkpt><trkpt lat="42.024330679231404" lon="12.986764160203041"><ele>326.6666666666667</ele><time>2026-03-29T09:28:19.998Z</time></trkpt><trkpt lat="42.02430635180794" lon="12.98705160243295"><ele>327.3333333333333</ele><time>2026-03-29T09:28:20.998Z</time></trkpt><trkpt lat="42.0242837804624" lon="12.987328039215614"><ele>328.0</ele><time>2026-03-29T09:28:21.998Z</time></trkpt><trkpt lat="42.0242596940253" lon="12.987588483442664"><ele>328.0</ele><time>2026-03-29T09:28:22.998Z</time></trkpt><trkpt lat="42.02422792510017" lon="12.987854222236944"><ele>328.0</ele><time>2026-03-29T09:28:23.998Z</time></trkpt><trkpt lat="42.02417457536762" lon="12.988101115714443"><ele>328.0</ele><time>2026-03-29T09:28:24.998Z</time></trkpt><trkpt lat="42.02409690113593" lon="12.988327959718383"><ele>328.3333333333333</ele><time>2026-03-29T09:28:25.998Z</time></trkpt><trkpt lat="42.024004038804506" lon="12.988534734101739"><ele>328.6666666666667</ele><time>2026-03-29T09:28:26.998Z</time></trkpt><trkpt lat="42.023893479759394" lon="12.988735695690204"><ele>329.0</ele><time>2026-03-29T09:28:27.998Z</time></trkpt><trkpt lat="42.02376574054527" lon="12.988919537657209"><ele>329.0</ele><time>2026-03-29T09:28:28.998Z</time></trkpt><trkpt lat="42.02365320671205" lon="12.98905739671269"><ele>329.0</ele><time>2026-03-29T09:28:30Z</time></trkpt><trkpt lat="42.02356541634529" lon="12.989153287523829"><ele>329.0</ele><time>2026-03-29T09:28:31Z</time></trkpt><trkpt lat="42.02349076291733" lon="12.989227920459943"><ele>329.0</ele><time>2026-03-29T09:28:32Z</time></trkpt><trkpt lat="42.0234203078266" lon="12.989293958117289"><ele>329.0</ele><time>2026-03-29T09:28:33Z</time></trkpt><trkpt lat="42.023347618903" lon="12.989346838950839"><ele>328.79999999999995</ele><time>2026-03-29T09:28:34Z</time></trkpt><trkpt lat="42.023276731044554" lon="12.989397049257946"><ele>328.59999999999997</ele><time>2026-03-29T09:28:35Z</time></trkpt><trkpt lat="42.02317872089183" lon="12.98948163814586"><ele>328.4</ele><time>2026-03-29T09:28:37Z</time></trkpt><trkpt lat="42.02312105832512" lon="12.989557625753191"><ele>328.2</ele><time>2026-03-29T09:28:39Z</time></trkpt><trkpt lat="42.023056932817994" lon="12.989666730348004"><ele>328.0</ele><time>2026-03-29T09:28:42Z</time></trkpt><trkpt lat="42.02299112966498" lon="12.989744198632792"><ele>328.0</ele><time>2026-03-29T09:28:44Z</time></trkpt><trkpt lat="42.022914738891046" lon="12.98985227403186"><ele>328.0</ele><time>2026-03-29T09:28:46Z</time></trkpt><trkpt lat="42.02286307235447" lon="12.989921054891171"><ele>328.0</ele><time>2026-03-29T09:28:47Z</time></trkpt><trkpt lat="42.02279321165209" lon="12.990022030326072"><ele>328.0</ele><time>2026-03-29T09:28:48Z</time></trkpt><trkpt lat="42.022715968440345" lon="12.990153851997137"><ele>328.0</ele><time>2026-03-29T09:28:49Z</time></trkpt><trkpt lat="42.02263761337634" lon="12.990315555464962"><ele>327.0</ele><time>2026-03-29T09:28:50Z</time></trkpt><trkpt lat="42.02255746143156" lon="12.990502865264359"><ele>326.0</ele><time>2026-03-29T09:28:51Z</time></trkpt><trkpt lat="42.022477819390105" lon="12.990691589893395"><ele>325.0</ele><time>2026-03-29T09:28:52Z</time></trkpt><trkpt lat="42.02240153367059" lon="12.990876261920807"><ele>325.0</ele><time>2026-03-29T09:28:53Z</time></trkpt><trkpt lat="42.02232685588296" lon="12.991043850064624"><ele>325.0</ele><time>2026-03-29T09:28:54Z</time></trkpt><trkpt lat="42.0222481444567" lon="12.991208504415315"><ele>325.0</ele><time>2026-03-29T09:28:55Z</time></trkpt><trkpt lat="42.022165359883914" lon="12.991386550498815"><ele>325.0</ele><time>2026-03-29T09:28:55.999Z</time></trkpt><trkpt lat="42.02207914484615" lon="12.991570439250632"><ele>327.0</ele><time>2026-03-29T09:28:56.999Z</time></trkpt><trkpt lat="42.02198727431836" lon="12.991756731885484"><ele>329.0</ele><time>2026-03-29T09:28:57.999Z</time></trkpt><trkpt lat="42.021895987264735" lon="12.991944101984085"><ele>331.0</ele><time>2026-03-29T09:28:58.999Z</time></trkpt><trkpt lat="42.02180357924882" lon="12.99213789674877"><ele>331.0</ele><time>2026-03-29T09:28:59.999Z</time></trkpt><trkpt lat="42.021711743463754" lon="12.992332994916213"><ele>331.0</ele><time>2026-03-29T09:29:00.999Z</time></trkpt><trkpt lat="42.02162172110757" lon="12.99252985229779"><ele>331.0</ele><time>2026-03-29T09:29:01.999Z</time></trkpt><trkpt lat="42.02152872299441" lon="12.992732274524375"><ele>328.66666666666663</ele><time>2026-03-29T09:29:02.999Z</time></trkpt><trkpt lat="42.021434866935934" lon="12.992936306282989"><ele>326.3333333333333</ele><time>2026-03-29T09:29:03.999Z</time></trkpt><trkpt lat="42.02134266765129" lon="12.993133586316144"><ele>324.0</ele><time>2026-03-29T09:29:04.999Z</time></trkpt><trkpt lat="42.02126070332156" lon="12.993302806855569"><ele>325.5</ele><time>2026-03-29T09:29:05.999Z</time></trkpt><trkpt lat="42.02118688425577" lon="12.993461502798777"><ele>327.0</ele><time>2026-03-29T09:29:06.999Z</time></trkpt><trkpt lat="42.02111655016306" lon="12.993616011120633"><ele>328.5</ele><time>2026-03-29T09:29:07.999Z</time></trkpt><trkpt lat="42.021052048080755" lon="12.993752237711591"><ele>330.0</ele><time>2026-03-29T09:29:08.999Z</time></trkpt><trkpt lat="42.02099070421003" lon="12.993881020735301"><ele>330.0</ele><time>2026-03-29T09:29:09.999Z</time></trkpt><trkpt lat="42.02092574128092" lon="12.994013928493988"><ele>330.0</ele><time>2026-03-29T09:29:10.999Z</time></trkpt><trkpt lat="42.02085432212412" lon="12.994156215857915"><ele>330.0</ele><time>2026-03-29T09:29:11.999Z</time></trkpt><trkpt lat="42.02078215707351" lon="12.994301480199132"><ele>330.0</ele><time>2026-03-29T09:29:12.999Z</time></trkpt><trkpt lat="42.02071250611736" lon="12.994443783936934"><ele>329.75</ele><time>2026-03-29T09:29:13.999Z</time></trkpt><trkpt lat="42.020643358073734" lon="12.994588082418769"><ele>329.5</ele><time>2026-03-29T09:29:14.999Z</time></trkpt><trkpt lat="42.02056956944394" lon="12.994739918824317"><ele>329.25</ele><time>2026-03-29T09:29:15.999Z</time></trkpt><trkpt lat="42.02049219125534" lon="12.994898928611594"><ele>329.0</ele><time>2026-03-29T09:29:16.999Z</time></trkpt><trkpt lat="42.020415746541815" lon="12.99505971170178"><ele>329.0</ele><time>2026-03-29T09:29:17.999Z</time></trkpt><trkpt lat="42.02034110255965" lon="12.995218956784827"><ele>329.0</ele><time>2026-03-29T09:29:18.999Z</time></trkpt><trkpt lat="42.020265540167024" lon="12.995384552249567"><ele>329.0</ele><time>2026-03-29T09:29:19.999Z</time></trkpt><trkpt lat="42.02018904911519" lon="12.99555255905088"><ele>329.0</ele><time>2026-03-29T09:29:20.999Z</time></trkpt><trkpt lat="42.02011542310549" lon="12.995720743256886"><ele>328.0</ele><time>2026-03-29T09:29:21.999Z</time></trkpt><trkpt lat="42.020038061329444" lon="12.995901486880996"><ele>327.0</ele><time>2026-03-29T09:29:22.999Z</time></trkpt><trkpt lat="42.01996177461508" lon="12.996091290778978"><ele>326.0</ele><time>2026-03-29T09:29:23.999Z</time></trkpt><trkpt lat="42.01988258293874" lon="12.996295189254376"><ele>326.0</ele><time>2026-03-29T09:29:24.999Z</time></trkpt><trkpt lat="42.0198026871414" lon="12.99650905897519"><ele>326.0</ele><time>2026-03-29T09:29:25.999Z</time></trkpt><trkpt lat="42.019722351326536" lon="12.996735882649098"><ele>326.0</ele><time>2026-03-29T09:29:26.999Z</time></trkpt><trkpt lat="42.019644709870704" lon="12.996979267666836"><ele>327.5</ele><time>2026-03-29T09:29:27.999Z</time></trkpt><trkpt lat="42.019563928441244" lon="12.997253865817802"><ele>329.0</ele><time>2026-03-29T09:29:28.999Z</time></trkpt><trkpt lat="42.01947841623755" lon="12.997554655578181"><ele>330.0</ele><time>2026-03-29T09:29:29.999Z</time></trkpt><trkpt lat="42.019390299544966" lon="12.997885158574904"><ele>331.0</ele><time>2026-03-29T09:29:30.999Z</time></trkpt><trkpt lat="42.01930207871291" lon="12.998246372636812"><ele>331.5</ele><time>2026-03-29T09:29:31.999Z</time></trkpt><trkpt lat="42.01921172785748" lon="12.99863385748347"><ele>332.0</ele><time>2026-03-29T09:29:32.999Z</time></trkpt><trkpt lat="42.0191237699339" lon="12.99902601137582"><ele>330.0</ele><time>2026-03-29T09:29:33.999Z</time></trkpt><trkpt lat="42.0190406680587" lon="12.999394544703158"><ele>328.0</ele><time>2026-03-29T09:29:34.999Z</time></trkpt><trkpt lat="42.018965868626225" lon="12.999725658598782"><ele>328.0</ele><time>2026-03-29T09:29:35.999Z</time></trkpt><trkpt lat="42.01889389433997" lon="13.000042327869044"><ele>328.0</ele><time>2026-03-29T09:29:36.999Z</time></trkpt><trkpt lat="42.01882490936928" lon="13.000329201344213"><ele>328.0</ele><time>2026-03-29T09:29:37.999Z</time></trkpt><trkpt lat="42.01876043004478" lon="13.000606476391633"><ele>328.0</ele><time>2026-03-29T09:29:38.999Z</time></trkpt><trkpt lat="42.01869989237242" lon="13.000877390776452"><ele>328.0</ele><time>2026-03-29T09:29:39.999Z</time></trkpt><trkpt lat="42.01864914779423" lon="13.0011405008704"><ele>327.66666666666663</ele><time>2026-03-29T09:29:40.999Z</time></trkpt><trkpt lat="42.01860881814504" lon="13.001418336232524"><ele>327.3333333333333</ele><time>2026-03-29T09:29:41.999Z</time></trkpt><trkpt lat="42.018592452622016" lon="13.00170872652034"><ele>327.0</ele><time>2026-03-29T09:29:42.999Z</time></trkpt><trkpt lat="42.01860070752581" lon="13.001998967412339"><ele>327.0</ele><time>2026-03-29T09:29:43.999Z</time></trkpt><trkpt lat="42.01863276342531" lon="13.002288410358046"><ele>327.0</ele><time>2026-03-29T09:29:44.999Z</time></trkpt><trkpt lat="42.01868921701893" lon="13.002575770631838"><ele>327.0</ele><time>2026-03-29T09:29:45.999Z</time></trkpt><trkpt lat="42.0187657503323" lon="13.002859645859925"><ele>327.0</ele><time>2026-03-29T09:29:46.999Z</time></trkpt><trkpt lat="42.01886812932654" lon="13.00314001520674"><ele>327.0</ele><time>2026-03-29T09:29:47.999Z</time></trkpt><trkpt lat="42.01899331747963" lon="13.003412784121874"><ele>326.5</ele><time>2026-03-29T09:29:48.999Z</time></trkpt><trkpt lat="42.019142803023776" lon="13.003695434134402"><ele>326.0</ele><time>2026-03-29T09:29:49.999Z</time></trkpt><trkpt lat="42.01930060324611" lon="13.003994821360905"><ele>326.5</ele><time>2026-03-29T09:29:50.999Z</time></trkpt><trkpt lat="42.01945535208018" lon="13.004301682275766"><ele>327.0</ele><time>2026-03-29T09:29:51.999Z</time></trkpt><trkpt lat="42.01961619955751" lon="13.004622949598662"><ele>327.0</ele><time>2026-03-29T09:29:52.999Z</time></trkpt><trkpt lat="42.01978003872616" lon="13.004948319393277"><ele>327.0</ele><time>2026-03-29T09:29:53.999Z</time></trkpt><trkpt lat="42.019942500837665" lon="13.005265147090737"><ele>327.0</ele><time>2026-03-29T09:29:54.999Z</time></trkpt><trkpt lat="42.02009070926926" lon="13.005590609001288"><ele>327.0</ele><time>2026-03-29T09:29:55.998Z</time></trkpt><trkpt lat="42.02023957513021" lon="13.005858676585037"><ele>326.5</ele><time>2026-03-29T09:29:56.998Z</time></trkpt><trkpt lat="42.02038060776302" lon="13.006143584294406"><ele>326.0</ele><time>2026-03-29T09:29:57.998Z</time></trkpt><trkpt lat="42.02052190768617" lon="13.00642918289985"><ele>326.0</ele><time>2026-03-29T09:29:58.998Z</time></trkpt><trkpt lat="42.02067991266838" lon="13.00673323330953"><ele>326.0</ele><time>2026-03-29T09:29:59.998Z</time></trkpt><trkpt lat="42.02081320243569" lon="13.007023921278696"><ele>325.0</ele><time>2026-03-29T09:30:00.998Z</time></trkpt><trkpt lat="42.0209446901622" lon="13.007284226055585"><ele>324.0</ele><time>2026-03-29T09:30:01.998Z</time></trkpt><trkpt lat="42.02108442203142" lon="13.00752342833663"><ele>324.0</ele><time>2026-03-29T09:30:02.998Z</time></trkpt><trkpt lat="42.02120437227646" lon="13.007765887380033"><ele>324.0</ele><time>2026-03-29T09:30:03.998Z</time></trkpt><trkpt lat="42.02131629480934" lon="13.00799688975222"><ele>324.0</ele><time>2026-03-29T09:30:04.998Z</time></trkpt><trkpt lat="42.0214242688354" lon="13.008234286831469"><ele>323.6666666666667</ele><time>2026-03-29T09:30:05.998Z</time></trkpt><trkpt lat="42.02150523974604" lon="13.008476512504732"><ele>323.33333333333337</ele><time>2026-03-29T09:30:06.998Z</time></trkpt><trkpt lat="42.02153829409491" lon="13.008725189312766"><ele>323.0</ele><time>2026-03-29T09:30:07.998Z</time></trkpt><trkpt lat="42.02154966552796" lon="13.008935522116671"><ele>323.0</ele><time>2026-03-29T09:30:08.998Z</time></trkpt><trkpt lat="42.02154744483596" lon="13.009118804047866"><ele>323.0</ele><time>2026-03-29T09:30:09.998Z</time></trkpt><trkpt lat="42.02154210152066" lon="13.009300581575408"><ele>323.0</ele><time>2026-03-29T09:30:10.998Z</time></trkpt><trkpt lat="42.02155644716059" lon="13.00948626009182"><ele>323.0</ele><time>2026-03-29T09:30:11.998Z</time></trkpt><trkpt lat="42.02161255523481" lon="13.009652059596634"><ele>323.75</ele><time>2026-03-29T09:30:12.998Z</time></trkpt><trkpt lat="42.021687178645266" lon="13.009753441876235"><ele>324.5</ele><time>2026-03-29T09:30:13.998Z</time></trkpt><trkpt lat="42.02177801587694" lon="13.009870504102066"><ele>325.25</ele><time>2026-03-29T09:30:14.998Z</time></trkpt><trkpt lat="42.02189014454225" lon="13.010020392849208"><ele>326.0</ele><time>2026-03-29T09:30:15.998Z</time></trkpt><trkpt lat="42.0220148384496" lon="13.01020218507874"><ele>326.0</ele><time>2026-03-29T09:30:16.998Z</time></trkpt><trkpt lat="42.02213909660663" lon="13.010384225889322"><ele>326.0</ele><time>2026-03-29T09:30:17.998Z</time></trkpt><trkpt lat="42.02228614105325" lon="13.010594360322656"><ele>326.0</ele><time>2026-03-29T09:30:18.998Z</time></trkpt><trkpt lat="42.022422239937676" lon="13.010813473318956"><ele>328.33333333333337</ele><time>2026-03-29T09:30:19.998Z</time></trkpt><trkpt lat="42.02255004385984" lon="13.011051848349465"><ele>330.6666666666667</ele><time>2026-03-29T09:30:20.998Z</time></trkpt><trkpt lat="42.02267030410084" lon="13.011310409916168"><ele>333.0</ele><time>2026-03-29T09:30:21.998Z</time></trkpt><trkpt lat="42.02278682148199" lon="13.011576119649467"><ele>332.0</ele><time>2026-03-29T09:30:22.998Z</time></trkpt><trkpt lat="42.02291552038245" lon="13.011844743669494"><ele>331.0</ele><time>2026-03-29T09:30:23.998Z</time></trkpt><trkpt lat="42.02305653854202" lon="13.012113840885375"><ele>331.0</ele><time>2026-03-29T09:30:24.998Z</time></trkpt><trkpt lat="42.02318220734035" lon="13.01234709509593"><ele>331.0</ele><time>2026-03-29T09:30:25.998Z</time></trkpt><trkpt lat="42.02330600009252" lon="13.012553520810323"><ele>331.0</ele><time>2026-03-29T09:30:26.998Z</time></trkpt><trkpt lat="42.023455044495535" lon="13.012740599495991"><ele>333.66666666666663</ele><time>2026-03-29T09:30:27.998Z</time></trkpt><trkpt lat="42.02362996257164" lon="13.012898791401414"><ele>336.3333333333333</ele><time>2026-03-29T09:30:28.998Z</time></trkpt><trkpt lat="42.023802446863634" lon="13.013030700403139"><ele>339.0</ele><time>2026-03-29T09:30:29.998Z</time></trkpt><trkpt lat="42.02395351039109" lon="13.013190564236254"><ele>338.6666666666667</ele><time>2026-03-29T09:30:30.998Z</time></trkpt><trkpt lat="42.02406165222073" lon="13.013401744192596"><ele>338.33333333333337</ele><time>2026-03-29T09:30:31.998Z</time></trkpt><trkpt lat="42.02416462427998" lon="13.013634636678267"><ele>338.0</ele><time>2026-03-29T09:30:32.998Z</time></trkpt><trkpt lat="42.02430082392761" lon="13.013833829091169"><ele>341.0</ele><time>2026-03-29T09:30:33.998Z</time></trkpt><trkpt lat="42.0244738710693" lon="13.01399864768758"><ele>344.0</ele><time>2026-03-29T09:30:35Z</time></trkpt><trkpt lat="42.0246331379104" lon="13.014130713559117"><ele>347.0</ele><time>2026-03-29T09:30:36Z</time></trkpt><trkpt lat="42.024760166247106" lon="13.014262008032269"><ele>347.0</ele><time>2026-03-29T09:30:37Z</time></trkpt><trkpt lat="42.024848047692174" lon="13.01440523261234"><ele>347.0</ele><time>2026-03-29T09:30:38Z</time></trkpt><trkpt lat="42.02489915098557" lon="13.014585653476413"><ele>347.0</ele><time>2026-03-29T09:30:39Z</time></trkpt><trkpt lat="42.02489969109378" lon="13.014808022965502"><ele>347.0</ele><time>2026-03-29T09:30:40Z</time></trkpt><trkpt lat="42.02485180428025" lon="13.015037338751018"><ele>347.25</ele><time>2026-03-29T09:30:41Z</time></trkpt><trkpt lat="42.02477820428415" lon="13.015221811989553"><ele>347.5</ele><time>2026-03-29T09:30:42Z</time></trkpt><trkpt lat="42.02469393702166" lon="13.015342493349804"><ele>347.75</ele><time>2026-03-29T09:30:43Z</time></trkpt><trkpt lat="42.024596459486034" lon="13.015407654231918"><ele>348.0</ele><time>2026-03-29T09:30:44Z</time></trkpt><trkpt lat="42.024482022594995" lon="13.015453377930156"><ele>348.0</ele><time>2026-03-29T09:30:45Z</time></trkpt><trkpt lat="42.02437347985363" lon="13.01550620884581"><ele>348.0</ele><time>2026-03-29T09:30:46Z</time></trkpt><trkpt lat="42.02430199031542" lon="13.015588316373755"><ele>348.0</ele><time>2026-03-29T09:30:47Z</time></trkpt><trkpt lat="42.02427687646609" lon="13.015719460887096"><ele>348.0</ele><time>2026-03-29T09:30:48Z</time></trkpt><trkpt lat="42.024312485879555" lon="13.015845240114999"><ele>348.0</ele><time>2026-03-29T09:30:49Z</time></trkpt><trkpt lat="42.024386737202796" lon="13.015917497116233"><ele>349.0</ele><time>2026-03-29T09:30:50Z</time></trkpt><trkpt lat="42.0244700135261" lon="13.015914886874805"><ele>350.0</ele><time>2026-03-29T09:30:50.999Z</time></trkpt><trkpt lat="42.02455945531526" lon="13.015882323825382"><ele>351.0</ele><time>2026-03-29T09:30:51.999Z</time></trkpt><trkpt lat="42.02469373906771" lon="13.015846229901594"><ele>352.0</ele><time>2026-03-29T09:30:52.999Z</time></trkpt><trkpt lat="42.02485794815749" lon="13.015821967508328"><ele>353.66666666666663</ele><time>2026-03-29T09:30:53.999Z</time></trkpt><trkpt lat="42.025028169168195" lon="13.015808116148115"><ele>355.3333333333333</ele><time>2026-03-29T09:30:54.999Z</time></trkpt><trkpt lat="42.025203127151656" lon="13.015786468247642"><ele>357.0</ele><time>2026-03-29T09:30:55.999Z</time></trkpt><trkpt lat="42.02537702045798" lon="13.015733496089547"><ele>357.0</ele><time>2026-03-29T09:30:56.999Z</time></trkpt><trkpt lat="42.025535843506866" lon="13.015610790666955"><ele>357.0</ele><time>2026-03-29T09:30:57.999Z</time></trkpt><trkpt lat="42.02565293157181" lon="13.015481815098003"><ele>357.0</ele><time>2026-03-29T09:30:58.999Z</time></trkpt><trkpt lat="42.02575904772036" lon="13.01538705846005"><ele>359.75</ele><time>2026-03-29T09:30:59.999Z</time></trkpt><trkpt lat="42.02588129845459" lon="13.0153462586828"><ele>362.5</ele><time>2026-03-29T09:31:00.999Z</time></trkpt><trkpt lat="42.026023791885606" lon="13.015390182252892"><ele>365.25</ele><time>2026-03-29T09:31:01.999Z</time></trkpt><trkpt lat="42.02616947785027" lon="13.015520747792209"><ele>368.0</ele><time>2026-03-29T09:31:02.999Z</time></trkpt><trkpt lat="42.026307894845026" lon="13.015689853022"><ele>366.6666666666667</ele><time>2026-03-29T09:31:03.999Z</time></trkpt><trkpt lat="42.0264529601456" lon="13.01587008569196"><ele>365.3333333333333</ele><time>2026-03-29T09:31:04.999Z</time></trkpt><trkpt lat="42.026582063218726" lon="13.016028130097904"><ele>364.0</ele><time>2026-03-29T09:31:05.998Z</time></trkpt><trkpt lat="42.02672634852492" lon="13.016155548134115"><ele>368.0</ele><time>2026-03-29T09:31:06.998Z</time></trkpt><trkpt lat="42.0268984125409" lon="13.01621305350956"><ele>372.0</ele><time>2026-03-29T09:31:07.998Z</time></trkpt><trkpt lat="42.02708086554876" lon="13.016251278735933"><ele>376.0</ele><time>2026-03-29T09:31:08.998Z</time></trkpt><trkpt lat="42.0272389386739" lon="13.01624319025609"><ele>376.0</ele><time>2026-03-29T09:31:09.998Z</time></trkpt><trkpt lat="42.0273980572049" lon="13.016188092667859"><ele>376.0</ele><time>2026-03-29T09:31:10.998Z</time></trkpt><trkpt lat="42.027562876819815" lon="13.01608506118951"><ele>376.0</ele><time>2026-03-29T09:31:11.998Z</time></trkpt><trkpt lat="42.027718479607145" lon="13.015970582621986"><ele>377.66666666666663</ele><time>2026-03-29T09:31:12.998Z</time></trkpt><trkpt lat="42.02787850920199" lon="13.015929302974046"><ele>379.3333333333333</ele><time>2026-03-29T09:31:13.998Z</time></trkpt><trkpt lat="42.02805120944941" lon="13.01593442679071"><ele>381.0</ele><time>2026-03-29T09:31:14.998Z</time></trkpt><trkpt lat="42.02823315917824" lon="13.016011756101891"><ele>384.0</ele><time>2026-03-29T09:31:15.998Z</time></trkpt><trkpt lat="42.02841351286875" lon="13.016115403411108"><ele>387.0</ele><time>2026-03-29T09:31:16.998Z</time></trkpt><trkpt lat="42.02854432005552" lon="13.01625525962562"><ele>390.0</ele><time>2026-03-29T09:31:17.998Z</time></trkpt><trkpt lat="42.028644987164654" lon="13.016353948550357"><ele>390.0</ele><time>2026-03-29T09:31:18.998Z</time></trkpt><trkpt lat="42.02875182024006" lon="13.016397560434624"><ele>390.0</ele><time>2026-03-29T09:31:19.998Z</time></trkpt><trkpt lat="42.028881839987406" lon="13.01637376616742"><ele>390.0</ele><time>2026-03-29T09:31:20.998Z</time></trkpt><trkpt lat="42.02902588586597" lon="13.016278183322134"><ele>390.0</ele><time>2026-03-29T09:31:21.998Z</time></trkpt><trkpt lat="42.02916854678014" lon="13.016135437473313"><ele>391.66666666666663</ele><time>2026-03-29T09:31:22.998Z</time></trkpt><trkpt lat="42.02931581308409" lon="13.015976579683056"><ele>393.3333333333333</ele><time>2026-03-29T09:31:23.998Z</time></trkpt><trkpt lat="42.029464635469786" lon="13.015823556470355"><ele>395.0</ele><time>2026-03-29T09:31:24.998Z</time></trkpt><trkpt lat="42.02959361846474" lon="13.015692824275286"><ele>399.3333333333333</ele><time>2026-03-29T09:31:25.998Z</time></trkpt><trkpt lat="42.02971048608378" lon="13.015556892865737"><ele>403.66666666666663</ele><time>2026-03-29T09:31:26.998Z</time></trkpt><trkpt lat="42.02982255335809" lon="13.015401027120829"><ele>408.0</ele><time>2026-03-29T09:31:27.998Z</time></trkpt><trkpt lat="42.02992559864441" lon="13.015218866146773"><ele>406.5</ele><time>2026-03-29T09:31:28.998Z</time></trkpt><trkpt lat="42.030023082288736" lon="13.015021330153296"><ele>405.0</ele><time>2026-03-29T09:31:29.998Z</time></trkpt><trkpt lat="42.03012733301678" lon="13.014889066960293"><ele>403.5</ele><time>2026-03-29T09:31:30.998Z</time></trkpt><trkpt lat="42.03021889105065" lon="13.014784847277298"><ele>402.0</ele><time>2026-03-29T09:31:31.998Z</time></trkpt><trkpt lat="42.03034747571161" lon="13.014723371099453"><ele>407.0</ele><time>2026-03-29T09:31:32.998Z</time></trkpt><trkpt lat="42.03051625016343" lon="13.014690083749525"><ele>412.0</ele><time>2026-03-29T09:31:33.998Z</time></trkpt><trkpt lat="42.03071317341586" lon="13.01463328354359"><ele>417.0</ele><time>2026-03-29T09:31:34.998Z</time></trkpt><trkpt lat="42.03090249978748" lon="13.014551352262355"><ele>417.0</ele><time>2026-03-29T09:31:35.998Z</time></trkpt><trkpt lat="42.031069201536305" lon="13.014401593489968"><ele>417.0</ele><time>2026-03-29T09:31:36.998Z</time></trkpt><trkpt lat="42.03125730955528" lon="13.0142382662455"><ele>417.0</ele><time>2026-03-29T09:31:37.998Z</time></trkpt><trkpt lat="42.03146454974686" lon="13.014066321463213"><ele>420.0</ele><time>2026-03-29T09:31:38.998Z</time></trkpt><trkpt lat="42.03166411661474" lon="13.013917970417179"><ele>423.0</ele><time>2026-03-29T09:31:39.998Z</time></trkpt><trkpt lat="42.03185275790844" lon="13.013778630448813"><ele>426.0</ele><time>2026-03-29T09:31:40.997Z</time></trkpt><trkpt lat="42.03203570820192" lon="13.01365500430367"><ele>426.0</ele><time>2026-03-29T09:31:41.997Z</time></trkpt><trkpt lat="42.03222368820303" lon="13.01358403118259"><ele>426.0</ele><time>2026-03-29T09:31:42.997Z</time></trkpt><trkpt lat="42.03242419247774" lon="13.013521831782267"><ele>426.0</ele><time>2026-03-29T09:31:43.997Z</time></trkpt><trkpt lat="42.03264511906155" lon="13.013469746622919"><ele>423.66666666666663</ele><time>2026-03-29T09:31:44.997Z</time></trkpt><trkpt lat="42.032862482975766" lon="13.013452936411202"><ele>421.3333333333333</ele><time>2026-03-29T09:31:45.997Z</time></trkpt><trkpt lat="42.03306530851025" lon="13.013426515298807"><ele>419.0</ele><time>2026-03-29T09:31:46.997Z</time></trkpt><trkpt lat="42.03326045133354" lon="13.013379245188053"><ele>424.66666666666663</ele><time>2026-03-29T09:31:47.997Z</time></trkpt><trkpt lat="42.033442623212444" lon="13.01329873437587"><ele>430.33333333333337</ele><time>2026-03-29T09:31:48.997Z</time></trkpt><trkpt lat="42.033607215730804" lon="13.013180620096241"><ele>436.0</ele><time>2026-03-29T09:31:49.997Z</time></trkpt><trkpt lat="42.03374999226151" lon="13.013053357364813"><ele>436.0</ele><time>2026-03-29T09:31:50.997Z</time></trkpt><trkpt lat="42.03387489576703" lon="13.012945206689178"><ele>436.0</ele><time>2026-03-29T09:31:51.997Z</time></trkpt><trkpt lat="42.03397821276355" lon="13.01287099419949"><ele>436.0</ele><time>2026-03-29T09:31:52.997Z</time></trkpt><trkpt lat="42.034076187634724" lon="13.012837196150773"><ele>436.0</ele><time>2026-03-29T09:31:53.997Z</time></trkpt><trkpt lat="42.03418181001105" lon="13.012905603858552"><ele>436.33333333333337</ele><time>2026-03-29T09:31:54.997Z</time></trkpt><trkpt lat="42.03428319124299" lon="13.013020979394426"><ele>436.66666666666663</ele><time>2026-03-29T09:31:55.997Z</time></trkpt><trkpt lat="42.03441975920318" lon="13.013150623237859"><ele>437.0</ele><time>2026-03-29T09:31:56.997Z</time></trkpt><trkpt lat="42.03457700888063" lon="13.013302658847143"><ele>437.3333333333333</ele><time>2026-03-29T09:31:57.997Z</time></trkpt><trkpt lat="42.0347524532924" lon="13.013454318382816"><ele>437.66666666666663</ele><time>2026-03-29T09:31:58.997Z</time></trkpt><trkpt lat="42.03491629691968" lon="13.013602978927144"><ele>438.0</ele><time>2026-03-29T09:31:59.997Z</time></trkpt><trkpt lat="42.03504659736349" lon="13.013750922513855"><ele>438.0</ele><time>2026-03-29T09:32:00.997Z</time></trkpt><trkpt lat="42.03515615680027" lon="13.013904230799051"><ele>438.0</ele><time>2026-03-29T09:32:01.997Z</time></trkpt><trkpt lat="42.03527019782239" lon="13.014052024776255"><ele>438.0</ele><time>2026-03-29T09:32:02.997Z</time></trkpt><trkpt lat="42.03541180601689" lon="13.01417032794297"><ele>438.0</ele><time>2026-03-29T09:32:03.997Z</time></trkpt><trkpt lat="42.03559693015451" lon="13.014257551311525"><ele>438.0</ele><time>2026-03-29T09:32:04.997Z</time></trkpt><trkpt lat="42.035777291817936" lon="13.014328957532173"><ele>438.0</ele><time>2026-03-29T09:32:05.997Z</time></trkpt><trkpt lat="42.035933277346885" lon="13.014375722064463"><ele>438.0</ele><time>2026-03-29T09:32:06.997Z</time></trkpt><trkpt lat="42.03610479815564" lon="13.014376863982008"><ele>438.0</ele><time>2026-03-29T09:32:07.997Z</time></trkpt><trkpt lat="42.036291440297084" lon="13.014312409358777"><ele>438.0</ele><time>2026-03-29T09:32:08.997Z</time></trkpt><trkpt lat="42.036464215511415" lon="13.014222737164744"><ele>438.0</ele><time>2026-03-29T09:32:09.997Z</time></trkpt><trkpt lat="42.03659845454416" lon="13.01416881446516"><ele>438.0</ele><time>2026-03-29T09:32:10.997Z</time></trkpt><trkpt lat="42.036719806778564" lon="13.014196629464331"><ele>438.0</ele><time>2026-03-29T09:32:11.997Z</time></trkpt><trkpt lat="42.03684493035013" lon="13.01426885277104"><ele>438.0</ele><time>2026-03-29T09:32:12.997Z</time></trkpt><trkpt lat="42.03692399767702" lon="13.01442848833861"><ele>436.75</ele><time>2026-03-29T09:32:13.997Z</time></trkpt><trkpt lat="42.037008281584775" lon="13.014599745736739"><ele>435.5</ele><time>2026-03-29T09:32:14.997Z</time></trkpt><trkpt lat="42.03708894873891" lon="13.014773719981012"><ele>434.25</ele><time>2026-03-29T09:32:15.997Z</time></trkpt><trkpt lat="42.03715374009824" lon="13.014923774971345"><ele>433.0</ele><time>2026-03-29T09:32:16.997Z</time></trkpt><trkpt lat="42.03723791021477" lon="13.015054600984783"><ele>433.0</ele><time>2026-03-29T09:32:17.997Z</time></trkpt><trkpt lat="42.03734167378969" lon="13.015160327187177"><ele>433.0</ele><time>2026-03-29T09:32:18.997Z</time></trkpt><trkpt lat="42.037483455939" lon="13.015228599841782"><ele>433.0</ele><time>2026-03-29T09:32:19.997Z</time></trkpt><trkpt lat="42.03764654963568" lon="13.015230734849398"><ele>433.0</ele><time>2026-03-29T09:32:20.997Z</time></trkpt><trkpt lat="42.03780001858652" lon="13.01521176779884"><ele>436.79999999999995</ele><time>2026-03-29T09:32:21.997Z</time></trkpt><trkpt lat="42.037909153201895" lon="13.015254744190269"><ele>440.59999999999997</ele><time>2026-03-29T09:32:22.997Z</time></trkpt><trkpt lat="42.03800683591978" lon="13.015312583729864"><ele>444.40000000000003</ele><time>2026-03-29T09:32:24.997Z</time></trkpt><trkpt lat="42.038070494416935" lon="13.015393857745694"><ele>448.20000000000005</ele><time>2026-03-29T09:32:25.997Z</time></trkpt><trkpt lat="42.03815491791661" lon="13.015508712923687"><ele>452.0</ele><time>2026-03-29T09:32:26.997Z</time></trkpt><trkpt lat="42.03825418051807" lon="13.015616343105187"><ele>453.0</ele><time>2026-03-29T09:32:27.997Z</time></trkpt><trkpt lat="42.03832971640344" lon="13.01576019611577"><ele>454.0</ele><time>2026-03-29T09:32:28.997Z</time></trkpt><trkpt lat="42.03836108695275" lon="13.015923487550829"><ele>455.0</ele><time>2026-03-29T09:32:29.997Z</time></trkpt><trkpt lat="42.03839229643262" lon="13.016058434101057"><ele>456.0</ele><time>2026-03-29T09:32:30.997Z</time></trkpt><trkpt lat="42.03844893495044" lon="13.01619908200628"><ele>456.0</ele><time>2026-03-29T09:32:31.997Z</time></trkpt><trkpt lat="42.038533980031346" lon="13.016308680063448"><ele>456.0</ele><time>2026-03-29T09:32:32.997Z</time></trkpt><trkpt lat="42.038668040978294" lon="13.01636789947183"><ele>456.0</ele><time>2026-03-29T09:32:33.997Z</time></trkpt><trkpt lat="42.038836384322245" lon="13.01640818732449"><ele>456.0</ele><time>2026-03-29T09:32:34.997Z</time></trkpt><trkpt lat="42.03900715148184" lon="13.016462537383203"><ele>463.33333333333337</ele><time>2026-03-29T09:32:35.997Z</time></trkpt><trkpt lat="42.039175542598564" lon="13.016540396967883"><ele>470.6666666666667</ele><time>2026-03-29T09:32:36.997Z</time></trkpt><trkpt lat="42.039328261134116" lon="13.016605212028814"><ele>478.0</ele><time>2026-03-29T09:32:37.997Z</time></trkpt><trkpt lat="42.03948751275355" lon="13.016620377485358"><ele>478.0</ele><time>2026-03-29T09:32:38.997Z</time></trkpt><trkpt lat="42.03965820054292" lon="13.016576357915868"><ele>478.0</ele><time>2026-03-29T09:32:39.996Z</time></trkpt><trkpt lat="42.039814594335695" lon="13.016496377817527"><ele>478.0</ele><time>2026-03-29T09:32:40.998Z</time></trkpt><trkpt lat="42.039962939315465" lon="13.016389053846332"><ele>479.25</ele><time>2026-03-29T09:32:41.998Z</time></trkpt><trkpt lat="42.04009869864455" lon="13.016290707344883"><ele>480.5</ele><time>2026-03-29T09:32:42.998Z</time></trkpt><trkpt lat="42.04022734994195" lon="13.016216929363788"><ele>481.75</ele><time>2026-03-29T09:32:43.998Z</time></trkpt><trkpt lat="42.040359234581814" lon="13.016167689835978"><ele>483.0</ele><time>2026-03-29T09:32:44.998Z</time></trkpt><trkpt lat="42.04049730029976" lon="13.016163029604659"><ele>483.0</ele><time>2026-03-29T09:32:45.999Z</time></trkpt><trkpt lat="42.040620035612726" lon="13.01612352675234"><ele>482.99999999999994</ele><time>2026-03-29T09:32:46.999Z</time></trkpt><trkpt lat="42.04072752701238" lon="13.016105307216925"><ele>482.99999999999994</ele><time>2026-03-29T09:32:47.999Z</time></trkpt><trkpt lat="42.040822907642806" lon="13.01608605655341"><ele>483.0</ele><time>2026-03-29T09:32:48.999Z</time></trkpt><trkpt lat="42.040905825054374" lon="13.016071593242785"><ele>483.0</ele><time>2026-03-29T09:32:49.999Z</time></trkpt><trkpt lat="42.040976551941824" lon="13.016062611593037"><ele>482.4</ele><time>2026-03-29T09:32:50.999Z</time></trkpt><trkpt lat="42.04107408526981" lon="13.016061722362249"><ele>481.79999999999995</ele><time>2026-03-29T09:32:52.999Z</time></trkpt><trkpt lat="42.04115180089543" lon="13.016079326791681"><ele>481.2</ele><time>2026-03-29T09:32:57.999Z</time></trkpt><trkpt lat="42.04122322002692" lon="13.016098280875896"><ele>480.6</ele><time>2026-03-29T09:33:01.999Z</time></trkpt><trkpt lat="42.041270446998524" lon="13.016158808887104"><ele>480.0</ele><time>2026-03-29T09:33:53.999Z</time></trkpt><trkpt lat="42.041340876161435" lon="13.016337490123956"><ele>480.0</ele><time>2026-03-29T09:34:17.998Z</time></trkpt><trkpt lat="42.04138173475929" lon="13.01627289949557"><ele>480.0</ele><time>2026-03-29T09:36:24.998Z</time></trkpt><trkpt lat="42.04141170622451" lon="13.016196197016004"><ele>480.0</ele><time>2026-03-29T09:37:00Z</time></trkpt><trkpt lat="42.04140182744957" lon="13.0161077515646"><ele>480.0</ele><time>2026-03-29T09:37:06Z</time></trkpt><trkpt lat="42.04137442432465" lon="13.01602169958194"><ele>480.0</ele><time>2026-03-29T09:37:10.999Z</time></trkpt><trkpt lat="42.0413310314064" lon="13.015960269500823"><ele>480.0</ele><time>2026-03-29T09:37:15.999Z</time></trkpt><trkpt lat="42.04130315079733" lon="13.015877083350878"><ele>480.0</ele><time>2026-03-29T09:37:21.999Z</time></trkpt><trkpt lat="42.04133939406474" lon="13.015947794038595"><ele>480.0</ele><time>2026-03-29T09:49:26Z</time></trkpt><trkpt lat="42.041363694548465" lon="13.016027242069303"><ele>480.0</ele><time>2026-03-29T09:49:32Z</time></trkpt><trkpt lat="42.04137320279287" lon="13.016114228498008"><ele>480.0</ele><time>2026-03-29T09:49:37Z</time></trkpt><trkpt lat="42.0413821741501" lon="13.01620553073951"><ele>480.0</ele><time>2026-03-29T09:49:42Z</time></trkpt><trkpt lat="42.04138463347719" lon="13.016296005283653"><ele>480.0</ele><time>2026-03-29T09:49:50Z</time></trkpt><trkpt lat="42.04137655227229" lon="13.016391605040155"><ele>480.0</ele><time>2026-03-29T09:52:52.999Z</time></trkpt><trkpt lat="42.04142011190009" lon="13.016456894112537"><ele>480.0</ele><time>2026-03-29T09:52:54.999Z</time></trkpt><trkpt lat="42.041447647824924" lon="13.01653805321353"><ele>480.0</ele><time>2026-03-29T09:53:25.999Z</time></trkpt><trkpt lat="42.04139906751501" lon="13.016626884275594"><ele>480.0</ele><time>2026-03-29T09:53:27.999Z</time></trkpt><trkpt lat="42.04129613487558" lon="13.016626093916516"><ele>480.0</ele><time>2026-03-29T09:53:29.999Z</time></trkpt><trkpt lat="42.04125809263695" lon="13.016552830821773"><ele>480.0</ele><time>2026-03-29T09:53:30.999Z</time></trkpt><trkpt lat="42.04122822858751" lon="13.016470792188542"><ele>480.0</ele><time>2026-03-29T09:53:31.999Z</time></trkpt><trkpt lat="42.041165089408224" lon="13.016344316863064"><ele>480.0</ele><time>2026-03-29T09:53:33.999Z</time></trkpt><trkpt lat="42.04107530897776" lon="13.016220451908934"><ele>480.0</ele><time>2026-03-29T09:53:35.998Z</time></trkpt><trkpt lat="42.04099948776642" lon="13.016192477535492"><ele>480.0</ele><time>2026-03-29T09:53:36.998Z</time></trkpt><trkpt lat="42.04091507839544" lon="13.016198331922647"><ele>480.0</ele><time>2026-03-29T09:53:38Z</time></trkpt><trkpt lat="42.04081595229651" lon="13.016204557239266"><ele>480.0</ele><time>2026-03-29T09:53:39Z</time></trkpt><trkpt lat="42.04071301472813" lon="13.016196184165963"><ele>480.0</ele><time>2026-03-29T09:53:40Z</time></trkpt><trkpt lat="42.04054036001522" lon="13.016258604984781"><ele>480.6</ele><time>2026-03-29T09:53:41Z</time></trkpt><trkpt lat="42.0404236887652" lon="13.016290938980047"><ele>481.2</ele><time>2026-03-29T09:53:42Z</time></trkpt><trkpt lat="42.040309623686" lon="13.016324038026617"><ele>481.79999999999995</ele><time>2026-03-29T09:53:43Z</time></trkpt><trkpt lat="42.040200176437146" lon="13.016366767506607"><ele>482.4</ele><time>2026-03-29T09:53:44Z</time></trkpt><trkpt lat="42.0401213043178" lon="13.016386494827922"><ele>483.0</ele><time>2026-03-29T09:53:45Z</time></trkpt><trkpt lat="42.04007471119382" lon="13.016444271988263"><ele>483.0</ele><time>2026-03-29T09:53:46Z</time></trkpt><trkpt lat="42.04004321455651" lon="13.016547003599781"><ele>482.99999999999994</ele><time>2026-03-29T09:53:47Z</time></trkpt><trkpt lat="42.040064918997174" lon="13.016680566829775"><ele>482.99999999999994</ele><time>2026-03-29T09:53:48Z</time></trkpt><trkpt lat="42.04014418394122" lon="13.01678793712319"><ele>483.0</ele><time>2026-03-29T09:53:49Z</time></trkpt><trkpt lat="42.040257215975934" lon="13.016833548423111"><ele>483.0</ele><time>2026-03-29T09:53:50Z</time></trkpt><trkpt lat="42.04038817564869" lon="13.016808678528966"><ele>478.25</ele><time>2026-03-29T09:53:51Z</time></trkpt><trkpt lat="42.04050062288307" lon="13.016794757602277"><ele>473.5</ele><time>2026-03-29T09:53:52Z</time></trkpt><trkpt lat="42.04061071349597" lon="13.01685298476243"><ele>468.75</ele><time>2026-03-29T09:53:53Z</time></trkpt><trkpt lat="42.04071071529701" lon="13.016951170710422"><ele>464.0</ele><time>2026-03-29T09:53:54Z</time></trkpt><trkpt lat="42.04080071164183" lon="13.017048642523113"><ele>464.0</ele><time>2026-03-29T09:53:55Z</time></trkpt><trkpt lat="42.04086621233646" lon="13.017135348499494"><ele>464.0</ele><time>2026-03-29T09:53:56Z</time></trkpt><trkpt lat="42.04090644863871" lon="13.017243080760336"><ele>464.0</ele><time>2026-03-29T09:53:57Z</time></trkpt><trkpt lat="42.040936016350244" lon="13.017360520728259"><ele>464.0</ele><time>2026-03-29T09:53:58Z</time></trkpt><trkpt lat="42.04089648752913" lon="13.017508387361769"><ele>464.0</ele><time>2026-03-29T09:53:59Z</time></trkpt><trkpt lat="42.040880384491295" lon="13.01772310832746"><ele>461.5</ele><time>2026-03-29T09:54:00Z</time></trkpt><trkpt lat="42.04085998623546" lon="13.017931036671053"><ele>459.0</ele><time>2026-03-29T09:54:01Z</time></trkpt><trkpt lat="42.04083014990292" lon="13.018105542735738"><ele>456.5</ele><time>2026-03-29T09:54:02Z</time></trkpt><trkpt lat="42.04077986979968" lon="13.018241650060212"><ele>454.0</ele><time>2026-03-29T09:54:03Z</time></trkpt><trkpt lat="42.04070029752824" lon="13.01835318787046"><ele>445.33333333333337</ele><time>2026-03-29T09:54:04Z</time></trkpt><trkpt lat="42.040585626761995" lon="13.018443328097916"><ele>436.66666666666663</ele><time>2026-03-29T09:54:05Z</time></trkpt><trkpt lat="42.04044666340811" lon="13.018526541688258"><ele>428.0</ele><time>2026-03-29T09:54:06Z</time></trkpt><trkpt lat="42.040291734394984" lon="13.018607550462448"><ele>428.0</ele><time>2026-03-29T09:54:07Z</time></trkpt><trkpt lat="42.04013250198898" lon="13.018685604389994"><ele>428.0</ele><time>2026-03-29T09:54:08Z</time></trkpt><trkpt lat="42.03998060464203" lon="13.018792442471844"><ele>428.0</ele><time>2026-03-29T09:54:09Z</time></trkpt><trkpt lat="42.03981983952914" lon="13.018869539423392"><ele>422.0</ele><time>2026-03-29T09:54:10Z</time></trkpt><trkpt lat="42.03966807459483" lon="13.018965794850997"><ele>416.0</ele><time>2026-03-29T09:54:11Z</time></trkpt><trkpt lat="42.039529035604126" lon="13.019055695634941"><ele>410.0</ele><time>2026-03-29T09:54:12Z</time></trkpt><trkpt lat="42.03940082224197" lon="13.019144833052762"><ele>411.2</ele><time>2026-03-29T09:54:13Z</time></trkpt><trkpt lat="42.03929039234378" lon="13.019228299291346"><ele>412.4</ele><time>2026-03-29T09:54:14Z</time></trkpt><trkpt lat="42.03920152802469" lon="13.01930894799367"><ele>413.6</ele><time>2026-03-29T09:54:15Z</time></trkpt><trkpt lat="42.03912489785759" lon="13.019402049829221"><ele>414.8</ele><time>2026-03-29T09:54:16Z</time></trkpt><trkpt lat="42.03907678460019" lon="13.019527679205508"><ele>416.0</ele><time>2026-03-29T09:54:17Z</time></trkpt><trkpt lat="42.03906408945537" lon="13.019663142290636"><ele>416.0</ele><time>2026-03-29T09:54:18Z</time></trkpt><trkpt lat="42.03914084994155" lon="13.01978182633097"><ele>416.0</ele><time>2026-03-29T09:54:19Z</time></trkpt><trkpt lat="42.03922818250077" lon="13.019892568924396"><ele>416.0</ele><time>2026-03-29T09:54:20Z</time></trkpt><trkpt lat="42.039300335583334" lon="13.020008804129812"><ele>416.0</ele><time>2026-03-29T09:54:21Z</time></trkpt><trkpt lat="42.03930032070518" lon="13.020142372854338"><ele>416.0</ele><time>2026-03-29T09:54:22Z</time></trkpt><trkpt lat="42.03928245644916" lon="13.02022830925087"><ele>417.75</ele><time>2026-03-29T09:54:23Z</time></trkpt><trkpt lat="42.03920261057071" lon="13.02029208766953"><ele>419.5</ele><time>2026-03-29T09:54:24Z</time></trkpt><trkpt lat="42.03910811199363" lon="13.020365418802148"><ele>421.25</ele><time>2026-03-29T09:54:25Z</time></trkpt><trkpt lat="42.039029299736484" lon="13.020494500294317"><ele>423.0</ele><time>2026-03-29T09:54:26Z</time></trkpt><trkpt lat="42.03900313570735" lon="13.020659174398656"><ele>421.0</ele><time>2026-03-29T09:54:27Z</time></trkpt><trkpt lat="42.039027106296665" lon="13.020822679959343"><ele>419.0</ele><time>2026-03-29T09:54:28Z</time></trkpt><trkpt lat="42.03909059913741" lon="13.020985573031961"><ele>417.0</ele><time>2026-03-29T09:54:29Z</time></trkpt><trkpt lat="42.03919444658968" lon="13.021147950770361"><ele>415.0</ele><time>2026-03-29T09:54:30Z</time></trkpt><trkpt lat="42.0393135909939" lon="13.021290034028771"><ele>415.0</ele><time>2026-03-29T09:54:30.999Z</time></trkpt><trkpt lat="42.039434737043955" lon="13.021407753971436"><ele>415.0</ele><time>2026-03-29T09:54:31.999Z</time></trkpt><trkpt lat="42.03954841545134" lon="13.021499377373985"><ele>415.0</ele><time>2026-03-29T09:54:32.999Z</time></trkpt><trkpt lat="42.039683157403395" lon="13.021574268805002"><ele>415.0</ele><time>2026-03-29T09:54:33.999Z</time></trkpt><trkpt lat="42.03983894238944" lon="13.021638064621188"><ele>414.33333333333337</ele><time>2026-03-29T09:54:34.999Z</time></trkpt><trkpt lat="42.039973548984214" lon="13.021747120069241"><ele>413.66666666666663</ele><time>2026-03-29T09:54:35.999Z</time></trkpt><trkpt lat="42.040118140707584" lon="13.021790182002666"><ele>413.0</ele><time>2026-03-29T09:54:36.999Z</time></trkpt><trkpt lat="42.04027725260521" lon="13.02180995407837"><ele>413.0</ele><time>2026-03-29T09:54:37.999Z</time></trkpt><trkpt lat="42.04044578780931" lon="13.021784629593972"><ele>413.0</ele><time>2026-03-29T09:54:38.999Z</time></trkpt><trkpt lat="42.040613186875305" lon="13.021742560722661"><ele>413.0</ele><time>2026-03-29T09:54:39.999Z</time></trkpt><trkpt lat="42.04078144453318" lon="13.021766888632712"><ele>416.0</ele><time>2026-03-29T09:54:40.999Z</time></trkpt><trkpt lat="42.0409420584942" lon="13.021779597297591"><ele>419.0</ele><time>2026-03-29T09:54:41.999Z</time></trkpt><trkpt lat="42.04109483467059" lon="13.021795894379673"><ele>422.0</ele><time>2026-03-29T09:54:42.999Z</time></trkpt><trkpt lat="42.04124217487109" lon="13.021810299819336"><ele>422.0</ele><time>2026-03-29T09:54:43.999Z</time></trkpt><trkpt lat="42.04137268150868" lon="13.021822409492552"><ele>422.0</ele><time>2026-03-29T09:54:44.999Z</time></trkpt><trkpt lat="42.04147286400901" lon="13.02183369339526"><ele>422.0</ele><time>2026-03-29T09:54:45.999Z</time></trkpt><trkpt lat="42.0415597218922" lon="13.02186583796638"><ele>422.0</ele><time>2026-03-29T09:54:46.999Z</time></trkpt><trkpt lat="42.041615421216385" lon="13.021957905408827"><ele>422.0</ele><time>2026-03-29T09:54:47.999Z</time></trkpt><trkpt lat="42.04158148241972" lon="13.022074884106393"><ele>421.99999999999994</ele><time>2026-03-29T09:54:49.999Z</time></trkpt><trkpt lat="42.041575010800024" lon="13.022163815116384"><ele>422.0</ele><time>2026-03-29T09:54:50.999Z</time></trkpt><trkpt lat="42.04155489656147" lon="13.02228084197008"><ele>422.0</ele><time>2026-03-29T09:54:51.999Z</time></trkpt><trkpt lat="42.04152294374218" lon="13.022394981058634"><ele>422.0</ele><time>2026-03-29T09:54:52.999Z</time></trkpt><trkpt lat="42.04149628136127" lon="13.022509049561005"><ele>421.99999999999994</ele><time>2026-03-29T09:54:53.999Z</time></trkpt><trkpt lat="42.041415987359834" lon="13.022578754131501"><ele>422.0</ele><time>2026-03-29T09:54:54.999Z</time></trkpt><trkpt lat="42.04131003292934" lon="13.022563335802378"><ele>418.0</ele><time>2026-03-29T09:54:55.999Z</time></trkpt><trkpt lat="42.041188297817385" lon="13.022571731942087"><ele>414.0</ele><time>2026-03-29T09:54:56.999Z</time></trkpt><trkpt lat="42.04108193795461" lon="13.022558357977577"><ele>410.0</ele><time>2026-03-29T09:54:57.999Z</time></trkpt><trkpt lat="42.04098660751359" lon="13.022569337890404"><ele>406.0</ele><time>2026-03-29T09:54:58.999Z</time></trkpt><trkpt lat="42.04089782484006" lon="13.022616420537553"><ele>402.0</ele><time>2026-03-29T09:54:59.999Z</time></trkpt><trkpt lat="42.040824250655035" lon="13.02270825689123"><ele>399.40000000000003</ele><time>2026-03-29T09:55:00.999Z</time></trkpt><trkpt lat="42.040760862136814" lon="13.022812377579902"><ele>396.8</ele><time>2026-03-29T09:55:01.999Z</time></trkpt><trkpt lat="42.04069046534447" lon="13.022886546956123"><ele>394.2</ele><time>2026-03-29T09:55:02.999Z</time></trkpt><trkpt lat="42.04060255218979" lon="13.02294745431626"><ele>391.6</ele><time>2026-03-29T09:55:03.999Z</time></trkpt><trkpt lat="42.0404992563457" lon="13.022991344377981"><ele>389.0</ele><time>2026-03-29T09:55:04.999Z</time></trkpt><trkpt lat="42.0403936386798" lon="13.023038037372814"><ele>389.0</ele><time>2026-03-29T09:55:05.999Z</time></trkpt><trkpt lat="42.0402907097536" lon="13.02312502964565"><ele>389.0</ele><time>2026-03-29T09:55:06.999Z</time></trkpt><trkpt lat="42.04019893271697" lon="13.023255464051184"><ele>389.0</ele><time>2026-03-29T09:55:07.999Z</time></trkpt><trkpt lat="42.040123586268585" lon="13.023420779689356"><ele>389.0</ele><time>2026-03-29T09:55:08.999Z</time></trkpt><trkpt lat="42.04004911523506" lon="13.023596716594612"><ele>391.0</ele><time>2026-03-29T09:55:09.999Z</time></trkpt><trkpt lat="42.039976947197815" lon="13.023761114756033"><ele>393.0</ele><time>2026-03-29T09:55:10.999Z</time></trkpt><trkpt lat="42.03990086103196" lon="13.023890617804119"><ele>395.0</ele><time>2026-03-29T09:55:11.999Z</time></trkpt><trkpt lat="42.03979730898818" lon="13.02398125680263"><ele>397.0</ele><time>2026-03-29T09:55:12.999Z</time></trkpt><trkpt lat="42.03966014048538" lon="13.023966649090916"><ele>397.0</ele><time>2026-03-29T09:55:13.999Z</time></trkpt><trkpt lat="42.039538809955864" lon="13.023981395369962"><ele>397.0</ele><time>2026-03-29T09:55:14.999Z</time></trkpt><trkpt lat="42.039441368728646" lon="13.02400161080237"><ele>397.0</ele><time>2026-03-29T09:55:15.999Z</time></trkpt><trkpt lat="42.039351246694096" lon="13.024075688648438"><ele>397.0</ele><time>2026-03-29T09:55:16.999Z</time></trkpt><trkpt lat="42.03927724302247" lon="13.02419077318593"><ele>397.0</ele><time>2026-03-29T09:55:17.999Z</time></trkpt><trkpt lat="42.039243425780015" lon="13.024353849725154"><ele>400.75</ele><time>2026-03-29T09:55:18.999Z</time></trkpt><trkpt lat="42.0392436569614" lon="13.024528909569671"><ele>404.5</ele><time>2026-03-29T09:55:19.999Z</time></trkpt><trkpt lat="42.039289524998104" lon="13.02472078270558"><ele>408.25</ele><time>2026-03-29T09:55:20.999Z</time></trkpt><trkpt lat="42.03933318639448" lon="13.024912248447272"><ele>412.0</ele><time>2026-03-29T09:55:21.999Z</time></trkpt><trkpt lat="42.03934383148557" lon="13.025084556928341"><ele>413.6</ele><time>2026-03-29T09:55:22.999Z</time></trkpt><trkpt lat="42.03935718523029" lon="13.025226976621862"><ele>415.20000000000005</ele><time>2026-03-29T09:55:23.999Z</time></trkpt><trkpt lat="42.03934771683455" lon="13.025347325586651"><ele>416.8</ele><time>2026-03-29T09:55:24.999Z</time></trkpt><trkpt lat="42.03928063817646" lon="13.02544418188746"><ele>418.4</ele><time>2026-03-29T09:55:25.999Z</time></trkpt><trkpt lat="42.0391744304361" lon="13.025508611953022"><ele>420.0</ele><time>2026-03-29T09:55:26.999Z</time></trkpt><trkpt lat="42.03904554729627" lon="13.025482397801971"><ele>420.0</ele><time>2026-03-29T09:55:27.999Z</time></trkpt><trkpt lat="42.038908765900615" lon="13.02542872682364"><ele>420.0</ele><time>2026-03-29T09:55:28.999Z</time></trkpt><trkpt lat="42.03878408256602" lon="13.02536515900906"><ele>420.0</ele><time>2026-03-29T09:55:29.999Z</time></trkpt><trkpt lat="42.03865253709376" lon="13.025342106290736"><ele>420.0</ele><time>2026-03-29T09:55:30.999Z</time></trkpt><trkpt lat="42.03852136423636" lon="13.025369690322364"><ele>420.0</ele><time>2026-03-29T09:55:31.999Z</time></trkpt><trkpt lat="42.038403369504685" lon="13.025449483488234"><ele>420.0</ele><time>2026-03-29T09:55:32.999Z</time></trkpt><trkpt lat="42.038306856838425" lon="13.02557304878133"><ele>420.0</ele><time>2026-03-29T09:55:33.998Z</time></trkpt><trkpt lat="42.03824012005272" lon="13.025734556441924"><ele>420.0</ele><time>2026-03-29T09:55:34.998Z</time></trkpt><trkpt lat="42.03821050237364" lon="13.02592290893074"><ele>418.75</ele><time>2026-03-29T09:55:35.998Z</time></trkpt><trkpt lat="42.038226726765934" lon="13.026113434682907"><ele>417.5</ele><time>2026-03-29T09:55:36.998Z</time></trkpt><trkpt lat="42.03827781795407" lon="13.02628816892491"><ele>416.25</ele><time>2026-03-29T09:55:37.998Z</time></trkpt><trkpt lat="42.038352479463114" lon="13.026442916067458"><ele>415.0</ele><time>2026-03-29T09:55:38.998Z</time></trkpt><trkpt lat="42.03841592351746" lon="13.026599926933162"><ele>415.25</ele><time>2026-03-29T09:55:39.998Z</time></trkpt><trkpt lat="42.038438874238615" lon="13.02676994200326"><ele>415.5</ele><time>2026-03-29T09:55:40.998Z</time></trkpt><trkpt lat="42.03840424056365" lon="13.02695187012133"><ele>415.75</ele><time>2026-03-29T09:55:41.998Z</time></trkpt><trkpt lat="42.03832006853531" lon="13.027126335151246"><ele>416.0</ele><time>2026-03-29T09:55:42.998Z</time></trkpt><trkpt lat="42.03823036147303" lon="13.02733882163044"><ele>420.66666666666663</ele><time>2026-03-29T09:55:44Z</time></trkpt><trkpt lat="42.0381417350516" lon="13.027572388646226"><ele>425.33333333333337</ele><time>2026-03-29T09:55:45Z</time></trkpt><trkpt lat="42.038055403703424" lon="13.027791563910373"><ele>430.0</ele><time>2026-03-29T09:55:46Z</time></trkpt><trkpt lat="42.037966151738196" lon="13.027964478466398"><ele>430.0</ele><time>2026-03-29T09:55:47Z</time></trkpt><trkpt lat="42.03789133331855" lon="13.028118651760202"><ele>430.0</ele><time>2026-03-29T09:55:48Z</time></trkpt><trkpt lat="42.03777952194023" lon="13.028255021464924"><ele>430.0</ele><time>2026-03-29T09:55:49Z</time></trkpt><trkpt lat="42.037623856979906" lon="13.028383023734806"><ele>435.33333333333337</ele><time>2026-03-29T09:55:50Z</time></trkpt><trkpt lat="42.03746269795207" lon="13.028531235928137"><ele>440.66666666666663</ele><time>2026-03-29T09:55:51Z</time></trkpt><trkpt lat="42.037280909626254" lon="13.028666837516198"><ele>446.0</ele><time>2026-03-29T09:55:52Z</time></trkpt><trkpt lat="42.03710762430288" lon="13.028776290280723"><ele>446.0</ele><time>2026-03-29T09:55:53Z</time></trkpt><trkpt lat="42.036947449542204" lon="13.028854498627489"><ele>446.0</ele><time>2026-03-29T09:55:54Z</time></trkpt><trkpt lat="42.036807008206225" lon="13.028917843018187"><ele>446.0</ele><time>2026-03-29T09:55:55Z</time></trkpt><trkpt lat="42.03668745259827" lon="13.02897194697453"><ele>446.0</ele><time>2026-03-29T09:55:56Z</time></trkpt><trkpt lat="42.03657879254597" lon="13.029031213377186"><ele>444.66666666666663</ele><time>2026-03-29T09:55:57Z</time></trkpt><trkpt lat="42.036435428211256" lon="13.029120589129422"><ele>443.33333333333337</ele><time>2026-03-29T09:55:58Z</time></trkpt><trkpt lat="42.03630416082565" lon="13.02929102020448"><ele>442.0</ele><time>2026-03-29T09:55:59Z</time></trkpt><trkpt lat="42.036187889784124" lon="13.029455756523305"><ele>444.33333333333337</ele><time>2026-03-29T09:56:00Z</time></trkpt><trkpt lat="42.036076935197606" lon="13.029598479895466"><ele>446.66666666666663</ele><time>2026-03-29T09:56:01Z</time></trkpt><trkpt lat="42.03592102306571" lon="13.029670541982643"><ele>449.0</ele><time>2026-03-29T09:56:02Z</time></trkpt><trkpt lat="42.03574053976547" lon="13.0296958391206"><ele>449.0</ele><time>2026-03-29T09:56:03Z</time></trkpt><trkpt lat="42.035540758302375" lon="13.029687869855634"><ele>449.0</ele><time>2026-03-29T09:56:04Z</time></trkpt><trkpt lat="42.035325778619566" lon="13.029682900352007"><ele>449.0</ele><time>2026-03-29T09:56:05Z</time></trkpt><trkpt lat="42.0351410123705" lon="13.029674004531374"><ele>449.0</ele><time>2026-03-29T09:56:06Z</time></trkpt><trkpt lat="42.034993638889844" lon="13.029692429304795"><ele>449.0</ele><time>2026-03-29T09:56:07Z</time></trkpt><trkpt lat="42.03483820823147" lon="13.029747667569724"><ele>449.0</ele><time>2026-03-29T09:56:08Z</time></trkpt><trkpt lat="42.03467594229824" lon="13.029878982538122"><ele>454.66666666666663</ele><time>2026-03-29T09:56:09Z</time></trkpt><trkpt lat="42.03451269650786" lon="13.030028890024585"><ele>460.33333333333337</ele><time>2026-03-29T09:56:10Z</time></trkpt><trkpt lat="42.03433192955847" lon="13.030183935383095"><ele>466.0</ele><time>2026-03-29T09:56:11Z</time></trkpt><trkpt lat="42.0341397094326" lon="13.030280780470838"><ele>463.6666666666667</ele><time>2026-03-29T09:56:12Z</time></trkpt><trkpt lat="42.03393721062658" lon="13.030343701868988"><ele>461.33333333333337</ele><time>2026-03-29T09:56:13Z</time></trkpt><trkpt lat="42.03370713917381" lon="13.03040690985072"><ele>459.0</ele><time>2026-03-29T09:56:14Z</time></trkpt><trkpt lat="42.033468263116575" lon="13.03043794736596"><ele>457.66666666666663</ele><time>2026-03-29T09:56:15Z</time></trkpt><trkpt lat="42.03324073929917" lon="13.030467971235955"><ele>456.3333333333333</ele><time>2026-03-29T09:56:16Z</time></trkpt><trkpt lat="42.03302981673339" lon="13.030503532773949"><ele>455.0</ele><time>2026-03-29T09:56:17Z</time></trkpt><trkpt lat="42.03282404738769" lon="13.030542312502648"><ele>455.0</ele><time>2026-03-29T09:56:18Z</time></trkpt><trkpt lat="42.03261107619037" lon="13.030617640292707"><ele>455.0</ele><time>2026-03-29T09:56:19Z</time></trkpt><trkpt lat="42.03238191721435" lon="13.030750710718582"><ele>470.0</ele><time>2026-03-29T09:56:20Z</time></trkpt><trkpt lat="42.03215213825056" lon="13.030913789876104"><ele>485.0</ele><time>2026-03-29T09:56:21Z</time></trkpt><trkpt lat="42.03195478572375" lon="13.031014906300358"><ele>485.0</ele><time>2026-03-29T09:56:22Z</time></trkpt><trkpt lat="42.031770087543876" lon="13.031070538740185"><ele>485.0</ele><time>2026-03-29T09:56:23Z</time></trkpt><trkpt lat="42.0315851293338" lon="13.031060812468718"><ele>485.0</ele><time>2026-03-29T09:56:24Z</time></trkpt><trkpt lat="42.03140429639748" lon="13.031050298196067"><ele>485.0</ele><time>2026-03-29T09:56:25Z</time></trkpt><trkpt lat="42.03126983236639" lon="13.031017956006234"><ele>485.0</ele><time>2026-03-29T09:56:26Z</time></trkpt><trkpt lat="42.031150356715855" lon="13.031038049079637"><ele>485.0</ele><time>2026-03-29T09:56:27Z</time></trkpt><trkpt lat="42.03103607789906" lon="13.031135118013093"><ele>485.0</ele><time>2026-03-29T09:56:28Z</time></trkpt><trkpt lat="42.030954818615776" lon="13.03132765776151"><ele>485.0</ele><time>2026-03-29T09:56:29Z</time></trkpt><trkpt lat="42.03088833651031" lon="13.031559406648217"><ele>485.0</ele><time>2026-03-29T09:56:30Z</time></trkpt><trkpt lat="42.030793906609915" lon="13.031803527063373"><ele>485.0</ele><time>2026-03-29T09:56:31Z</time></trkpt><trkpt lat="42.03069304992232" lon="13.03207071495752"><ele>487.0</ele><time>2026-03-29T09:56:31.999Z</time></trkpt><trkpt lat="42.030612410407805" lon="13.032323943620526"><ele>489.0</ele><time>2026-03-29T09:56:32.999Z</time></trkpt><trkpt lat="42.0305047838707" lon="13.032509692390612"><ele>491.0</ele><time>2026-03-29T09:56:33.999Z</time></trkpt><trkpt lat="42.03039314249021" lon="13.032651530229305"><ele>494.66666666666663</ele><time>2026-03-29T09:56:34.999Z</time></trkpt><trkpt lat="42.0302552144705" lon="13.0327698094558"><ele>498.33333333333337</ele><time>2026-03-29T09:56:35.999Z</time></trkpt><trkpt lat="42.03009499795111" lon="13.032857086550905"><ele>502.0</ele><time>2026-03-29T09:56:36.999Z</time></trkpt><trkpt lat="42.02991944118856" lon="13.032898106041799"><ele>504.6666666666667</ele><time>2026-03-29T09:56:37.999Z</time></trkpt><trkpt lat="42.02973291259777" lon="13.032884184696357"><ele>507.33333333333337</ele><time>2026-03-29T09:56:38.999Z</time></trkpt><trkpt lat="42.02954443719887" lon="13.032812607469312"><ele>510.0</ele><time>2026-03-29T09:56:39.999Z</time></trkpt><trkpt lat="42.02934037931837" lon="13.032708763027873"><ele>510.0</ele><time>2026-03-29T09:56:40.999Z</time></trkpt><trkpt lat="42.029172765308076" lon="13.032578614620633"><ele>510.0</ele><time>2026-03-29T09:56:41.999Z</time></trkpt><trkpt lat="42.02904219896477" lon="13.032491071490265"><ele>510.0</ele><time>2026-03-29T09:56:42.999Z</time></trkpt><trkpt lat="42.02890924178431" lon="13.032450852036474"><ele>511.33333333333337</ele><time>2026-03-29T09:56:43.999Z</time></trkpt><trkpt lat="42.02875741632095" lon="13.032474414687702"><ele>512.6666666666667</ele><time>2026-03-29T09:56:44.999Z</time></trkpt><trkpt lat="42.02860300959065" lon="13.032572520593385"><ele>514.0</ele><time>2026-03-29T09:56:45.999Z</time></trkpt><trkpt lat="42.028445323187654" lon="13.03273404414292"><ele>515.0</ele><time>2026-03-29T09:56:46.999Z</time></trkpt><trkpt lat="42.02827775605" lon="13.03284800651964"><ele>516.0</ele><time>2026-03-29T09:56:47.999Z</time></trkpt><trkpt lat="42.028138326221715" lon="13.032948627315209"><ele>517.0</ele><time>2026-03-29T09:56:48.999Z</time></trkpt><trkpt lat="42.028006387234825" lon="13.032934723259233"><ele>517.0</ele><time>2026-03-29T09:56:49.999Z</time></trkpt><trkpt lat="42.02789440107067" lon="13.032900041077262"><ele>517.0</ele><time>2026-03-29T09:56:50.999Z</time></trkpt><trkpt lat="42.0277598904469" lon="13.032821765389793"><ele>517.0</ele><time>2026-03-29T09:56:51.999Z</time></trkpt><trkpt lat="42.027618451603736" lon="13.032743873802106"><ele>517.0</ele><time>2026-03-29T09:56:52.999Z</time></trkpt><trkpt lat="42.02747609051765" lon="13.032748540106699"><ele>514.6666666666667</ele><time>2026-03-29T09:56:53.999Z</time></trkpt><trkpt lat="42.027344980458516" lon="13.032837291426498"><ele>512.3333333333334</ele><time>2026-03-29T09:56:54.999Z</time></trkpt><trkpt lat="42.02724682004953" lon="13.033007466985291"><ele>510.0</ele><time>2026-03-29T09:56:55.999Z</time></trkpt><trkpt lat="42.027154811042585" lon="13.03323129845992"><ele>515.0</ele><time>2026-03-29T09:56:56.999Z</time></trkpt><trkpt lat="42.027020238892725" lon="13.033471846770446"><ele>520.0</ele><time>2026-03-29T09:56:57.999Z</time></trkpt><trkpt lat="42.0269005301144" lon="13.033728175002377"><ele>525.0</ele><time>2026-03-29T09:56:58.999Z</time></trkpt><trkpt lat="42.026749802296884" lon="13.033990167242848"><ele>542.0</ele><time>2026-03-29T09:56:59.999Z</time></trkpt><trkpt lat="42.026599786378995" lon="13.034268515155489"><ele>559.0</ele><time>2026-03-29T09:57:00.999Z</time></trkpt><trkpt lat="42.02647521481682" lon="13.0345095926403"><ele>559.0</ele><time>2026-03-29T09:57:01.999Z</time></trkpt><trkpt lat="42.02637886577866" lon="13.034686194475567"><ele>559.0</ele><time>2026-03-29T09:57:02.999Z</time></trkpt><trkpt lat="42.02630693639789" lon="13.03481479323397"><ele>559.0</ele><time>2026-03-29T09:57:03.999Z</time></trkpt><trkpt lat="42.02622516715054" lon="13.034906593435766"><ele>559.0</ele><time>2026-03-29T09:57:04.999Z</time></trkpt><trkpt lat="42.0261222576071" lon="13.034939409357147"><ele>559.0</ele><time>2026-03-29T09:57:05.999Z</time></trkpt><trkpt lat="42.02600667029246" lon="13.034893663951403"><ele>559.0</ele><time>2026-03-29T09:57:06.999Z</time></trkpt><trkpt lat="42.025922244583754" lon="13.034776184138513"><ele>559.0</ele><time>2026-03-29T09:57:07.999Z</time></trkpt><trkpt lat="42.0258986172013" lon="13.03460864955665"><ele>559.0</ele><time>2026-03-29T09:57:08.999Z</time></trkpt><trkpt lat="42.02594540010605" lon="13.034448029457174"><ele>559.0</ele><time>2026-03-29T09:57:09.999Z</time></trkpt><trkpt lat="42.02596913860855" lon="13.034245468936373"><ele>559.0</ele><time>2026-03-29T09:57:10.999Z</time></trkpt><trkpt lat="42.02598797073159" lon="13.034016118357608"><ele>559.0</ele><time>2026-03-29T09:57:11.999Z</time></trkpt><trkpt lat="42.02597999826659" lon="13.033772107284685"><ele>557.3333333333334</ele><time>2026-03-29T09:57:12.999Z</time></trkpt><trkpt lat="42.02595328928015" lon="13.033575758838898"><ele>555.6666666666666</ele><time>2026-03-29T09:57:13.999Z</time></trkpt><trkpt lat="42.02588820749487" lon="13.033401926507333"><ele>554.0</ele><time>2026-03-29T09:57:14.999Z</time></trkpt><trkpt lat="42.025758202759576" lon="13.033259783589353"><ele>561.0</ele><time>2026-03-29T09:57:15.999Z</time></trkpt><trkpt lat="42.025601436665" lon="13.033055434404263"><ele>568.0</ele><time>2026-03-29T09:57:16.999Z</time></trkpt><trkpt lat="42.02544858014938" lon="13.032810937712558"><ele>568.0</ele><time>2026-03-29T09:57:17.999Z</time></trkpt><trkpt lat="42.02531726711199" lon="13.032585431424348"><ele>568.0</ele><time>2026-03-29T09:57:18.999Z</time></trkpt><trkpt lat="42.02518644933086" lon="13.032370583458997"><ele>568.0</ele><time>2026-03-29T09:57:19.999Z</time></trkpt><trkpt lat="42.0250873248892" lon="13.032134168049144"><ele>567.0</ele><time>2026-03-29T09:57:20.999Z</time></trkpt><trkpt lat="42.02502647771687" lon="13.031980304566023"><ele>566.0</ele><time>2026-03-29T09:57:21.999Z</time></trkpt><trkpt lat="42.024959664020315" lon="13.03185780755109"><ele>565.0</ele><time>2026-03-29T09:57:22.999Z</time></trkpt><trkpt lat="42.024833372548606" lon="13.031807437910336"><ele>564.0</ele><time>2026-03-29T09:57:23.999Z</time></trkpt><trkpt lat="42.02470612172225" lon="13.031795559813684"><ele>564.0</ele><time>2026-03-29T09:57:24.999Z</time></trkpt><trkpt lat="42.02453715492187" lon="13.031867178843852"><ele>564.0</ele><time>2026-03-29T09:57:25.999Z</time></trkpt><trkpt lat="42.02435532460546" lon="13.03193045867392"><ele>564.0</ele><time>2026-03-29T09:57:26.999Z</time></trkpt><trkpt lat="42.02421719994114" lon="13.031965892271256"><ele>561.0</ele><time>2026-03-29T09:57:27.999Z</time></trkpt><trkpt lat="42.02409860325665" lon="13.031883841848295"><ele>558.0</ele><time>2026-03-29T09:57:28.999Z</time></trkpt><trkpt lat="42.02400240846705" lon="13.031731052040183"><ele>555.0</ele><time>2026-03-29T09:57:29.999Z</time></trkpt><trkpt lat="42.02387005761065" lon="13.031562285543329"><ele>555.0</ele><time>2026-03-29T09:57:30.999Z</time></trkpt><trkpt lat="42.023740931225156" lon="13.031447241312605"><ele>555.0</ele><time>2026-03-29T09:57:31.999Z</time></trkpt><trkpt lat="42.02360485471834" lon="13.0313918672363"><ele>555.0</ele><time>2026-03-29T09:57:32.999Z</time></trkpt><trkpt lat="42.02341992353035" lon="13.031397496152259"><ele>555.5</ele><time>2026-03-29T09:57:33.999Z</time></trkpt><trkpt lat="42.02319415762032" lon="13.031425046677553"><ele>556.0</ele><time>2026-03-29T09:57:34.999Z</time></trkpt><trkpt lat="42.02295630198863" lon="13.031444828371525"><ele>556.0</ele><time>2026-03-29T09:57:35.999Z</time></trkpt><trkpt lat="42.02270511653386" lon="13.03145165209904"><ele>556.0</ele><time>2026-03-29T09:57:36.999Z</time></trkpt><trkpt lat="42.022492894927616" lon="13.031452741148351"><ele>557.5</ele><time>2026-03-29T09:57:37.999Z</time></trkpt><trkpt lat="42.022330510972445" lon="13.031461851111269"><ele>559.0</ele><time>2026-03-29T09:57:38.999Z</time></trkpt><trkpt lat="42.02219824149929" lon="13.031491853573531"><ele>560.5</ele><time>2026-03-29T09:57:39.999Z</time></trkpt><trkpt lat="42.02209141595827" lon="13.03161196731324"><ele>562.0</ele><time>2026-03-29T09:57:40.999Z</time></trkpt><trkpt lat="42.02195162028771" lon="13.03177438497316"><ele>562.0</ele><time>2026-03-29T09:57:41.999Z</time></trkpt><trkpt lat="42.02183252104458" lon="13.032001550383889"><ele>562.0</ele><time>2026-03-29T09:57:42.998Z</time></trkpt><trkpt lat="42.02174068668795" lon="13.032254196755972"><ele>562.0</ele><time>2026-03-29T09:57:43.998Z</time></trkpt><trkpt lat="42.02166320104215" lon="13.03256012407907"><ele>563.0</ele><time>2026-03-29T09:57:44.998Z</time></trkpt><trkpt lat="42.021617847393" lon="13.032850280925885"><ele>564.0</ele><time>2026-03-29T09:57:45.998Z</time></trkpt><trkpt lat="42.02158720816377" lon="13.033055296067749"><ele>565.0</ele><time>2026-03-29T09:57:46.998Z</time></trkpt><trkpt lat="42.021562861274354" lon="13.033192534892159"><ele>565.0</ele><time>2026-03-29T09:57:47.998Z</time></trkpt><trkpt lat="42.02147861562389" lon="13.0332837884209"><ele>565.0</ele><time>2026-03-29T09:57:48.998Z</time></trkpt><trkpt lat="42.02137053009008" lon="13.033304366849743"><ele>565.0</ele><time>2026-03-29T09:57:50Z</time></trkpt><trkpt lat="42.02125652404655" lon="13.0332381790934"><ele>565.0</ele><time>2026-03-29T09:57:51Z</time></trkpt><trkpt lat="42.02110716904834" lon="13.033167623954617"><ele>565.0</ele><time>2026-03-29T09:57:52Z</time></trkpt><trkpt lat="42.02093863806305" lon="13.033147001989173"><ele>565.0</ele><time>2026-03-29T09:57:53Z</time></trkpt><trkpt lat="42.02078647235519" lon="13.033160012837074"><ele>565.0</ele><time>2026-03-29T09:57:54Z</time></trkpt><trkpt lat="42.02062708127361" lon="13.033279728698375"><ele>572.3333333333334</ele><time>2026-03-29T09:57:55Z</time></trkpt><trkpt lat="42.02044840670362" lon="13.033441049792566"><ele>579.6666666666666</ele><time>2026-03-29T09:57:56Z</time></trkpt><trkpt lat="42.02026266624242" lon="13.033617195723034"><ele>587.0</ele><time>2026-03-29T09:57:57Z</time></trkpt><trkpt lat="42.020068791247354" lon="13.033803739211164"><ele>598.3333333333333</ele><time>2026-03-29T09:57:58Z</time></trkpt><trkpt lat="42.01988042140183" lon="13.033998863500896"><ele>609.6666666666666</ele><time>2026-03-29T09:57:59Z</time></trkpt><trkpt lat="42.019724852275395" lon="13.034164687880603"><ele>621.0</ele><time>2026-03-29T09:58:00Z</time></trkpt><trkpt lat="42.01958430782041" lon="13.034300001063631"><ele>621.0</ele><time>2026-03-29T09:58:01Z</time></trkpt><trkpt lat="42.019475913928474" lon="13.03440579189155"><ele>621.0</ele><time>2026-03-29T09:58:02Z</time></trkpt><trkpt lat="42.01938683948324" lon="13.034470216336326"><ele>621.0</ele><time>2026-03-29T09:58:03Z</time></trkpt><trkpt lat="42.01929980602726" lon="13.034440794434502"><ele>621.0</ele><time>2026-03-29T09:58:04Z</time></trkpt><trkpt lat="42.01922637777569" lon="13.034367181204932"><ele>621.0</ele><time>2026-03-29T09:58:05Z</time></trkpt><trkpt lat="42.019161198798955" lon="13.034277440191639"><ele>621.5</ele><time>2026-03-29T09:58:06Z</time></trkpt><trkpt lat="42.01912148502515" lon="13.034155591090613"><ele>622.0</ele><time>2026-03-29T09:58:07Z</time></trkpt><trkpt lat="42.01913325158273" lon="13.03398360521195"><ele>622.5</ele><time>2026-03-29T09:58:08Z</time></trkpt><trkpt lat="42.019184561356106" lon="13.033794774180611"><ele>623.0</ele><time>2026-03-29T09:58:09Z</time></trkpt><trkpt lat="42.019246658370236" lon="13.033539673213054"><ele>622.0</ele><time>2026-03-29T09:58:10Z</time></trkpt><trkpt lat="42.01931680653525" lon="13.033267615783535"><ele>621.0</ele><time>2026-03-29T09:58:11Z</time></trkpt><trkpt lat="42.019388557892725" lon="13.032981705807362"><ele>620.0</ele><time>2026-03-29T09:58:12Z</time></trkpt><trkpt lat="42.019431419519634" lon="13.032729498991042"><ele>620.0</ele><time>2026-03-29T09:58:13Z</time></trkpt><trkpt lat="42.01946244268487" lon="13.032519291793967"><ele>620.0</ele><time>2026-03-29T09:58:14Z</time></trkpt><trkpt lat="42.019446282977334" lon="13.032315857007209"><ele>620.0</ele><time>2026-03-29T09:58:15Z</time></trkpt><trkpt lat="42.019358853523805" lon="13.032167703160102"><ele>616.5</ele><time>2026-03-29T09:58:16Z</time></trkpt><trkpt lat="42.01924661654013" lon="13.032091657510524"><ele>613.0</ele><time>2026-03-29T09:58:17Z</time></trkpt><trkpt lat="42.0191045550789" lon="13.032107798691047"><ele>609.5</ele><time>2026-03-29T09:58:18Z</time></trkpt><trkpt lat="42.01894304629861" lon="13.03216213676501"><ele>606.0</ele><time>2026-03-29T09:58:19Z</time></trkpt><trkpt lat="42.018764274250245" lon="13.03220131100075"><ele>606.0</ele><time>2026-03-29T09:58:20Z</time></trkpt><trkpt lat="42.01856272010714" lon="13.032215254361637"><ele>606.0</ele><time>2026-03-29T09:58:21Z</time></trkpt><trkpt lat="42.018347680489825" lon="13.032152030095592"><ele>606.0</ele><time>2026-03-29T09:58:22Z</time></trkpt><trkpt lat="42.01811896370033" lon="13.032085143015914"><ele>609.6666666666666</ele><time>2026-03-29T09:58:23Z</time></trkpt><trkpt lat="42.01791068741923" lon="13.031996179124967"><ele>613.3333333333333</ele><time>2026-03-29T09:58:24Z</time></trkpt><trkpt lat="42.01772979310445" lon="13.031941050786628"><ele>617.0</ele><time>2026-03-29T09:58:25Z</time></trkpt><trkpt lat="42.01754417220083" lon="13.031921497975182"><ele>614.3333333333333</ele><time>2026-03-29T09:58:26Z</time></trkpt><trkpt lat="42.01733278207426" lon="13.031980863133796"><ele>611.6666666666666</ele><time>2026-03-29T09:58:27Z</time></trkpt><trkpt lat="42.0171139271093" lon="13.032085112704207"><ele>609.0</ele><time>2026-03-29T09:58:28Z</time></trkpt><trkpt lat="42.01689293332656" lon="13.032210071099213"><ele>609.0</ele><time>2026-03-29T09:58:29Z</time></trkpt><trkpt lat="42.01669134648332" lon="13.032358997163842"><ele>609.0</ele><time>2026-03-29T09:58:30Z</time></trkpt><trkpt lat="42.016515872176285" lon="13.032535181431765"><ele>609.0</ele><time>2026-03-29T09:58:31Z</time></trkpt><trkpt lat="42.01633878018283" lon="13.032740844708881"><ele>610.5</ele><time>2026-03-29T09:58:32Z</time></trkpt><trkpt lat="42.0161633731627" lon="13.032974428400642"><ele>612.0</ele><time>2026-03-29T09:58:33Z</time></trkpt><trkpt lat="42.01598643399346" lon="13.033234712863656"><ele>608.5</ele><time>2026-03-29T09:58:34Z</time></trkpt><trkpt lat="42.01581158999726" lon="13.033488350557347"><ele>605.0</ele><time>2026-03-29T09:58:35Z</time></trkpt><trkpt lat="42.01566527398568" lon="13.033711357284936"><ele>605.0</ele><time>2026-03-29T09:58:36Z</time></trkpt><trkpt lat="42.01552385748839" lon="13.033906423047712"><ele>605.0</ele><time>2026-03-29T09:58:37Z</time></trkpt><trkpt lat="42.0154079755917" lon="13.034082515629267"><ele>605.0</ele><time>2026-03-29T09:58:38Z</time></trkpt><trkpt lat="42.015301040124754" lon="13.034298589538286"><ele>616.5</ele><time>2026-03-29T09:58:39Z</time></trkpt><trkpt lat="42.01521111790694" lon="13.034583104914988"><ele>628.0</ele><time>2026-03-29T09:58:40Z</time></trkpt><trkpt lat="42.01512141840196" lon="13.034879548749233"><ele>638.0</ele><time>2026-03-29T09:58:41Z</time></trkpt><trkpt lat="42.01502958677865" lon="13.035181118238528"><ele>648.0</ele><time>2026-03-29T09:58:42Z</time></trkpt><trkpt lat="42.01494446846288" lon="13.035439784360879"><ele>644.6666666666666</ele><time>2026-03-29T09:58:43Z</time></trkpt><trkpt lat="42.01483751561829" lon="13.03570022731342"><ele>641.3333333333333</ele><time>2026-03-29T09:58:44Z</time></trkpt><trkpt lat="42.0147128207061" lon="13.035918784420556"><ele>638.0</ele><time>2026-03-29T09:58:44.999Z</time></trkpt><trkpt lat="42.01461377418536" lon="13.036116253879387"><ele>638.0</ele><time>2026-03-29T09:58:45.999Z</time></trkpt><trkpt lat="42.01450822298407" lon="13.036308122617688"><ele>638.0</ele><time>2026-03-29T09:58:46.999Z</time></trkpt><trkpt lat="42.01434785132943" lon="13.036438566774185"><ele>638.0</ele><time>2026-03-29T09:58:47.999Z</time></trkpt><trkpt lat="42.01416846698746" lon="13.036538597152166"><ele>635.3333333333333</ele><time>2026-03-29T09:58:48.999Z</time></trkpt><trkpt lat="42.01397524495957" lon="13.036574234721245"><ele>632.6666666666666</ele><time>2026-03-29T09:58:49.999Z</time></trkpt><trkpt lat="42.01379094269477" lon="13.036548656149218"><ele>630.0</ele><time>2026-03-29T09:58:50.999Z</time></trkpt><trkpt lat="42.01361541106258" lon="13.0365495218978"><ele>630.0</ele><time>2026-03-29T09:58:51.999Z</time></trkpt><trkpt lat="42.01343973161444" lon="13.036607379323359"><ele>630.0</ele><time>2026-03-29T09:58:52.999Z</time></trkpt><trkpt lat="42.01326059588644" lon="13.036746443178309"><ele>630.0</ele><time>2026-03-29T09:58:53.999Z</time></trkpt><trkpt lat="42.01310088331794" lon="13.036924005789801"><ele>641.0</ele><time>2026-03-29T09:58:54.999Z</time></trkpt><trkpt lat="42.01295408849428" lon="13.037041284436976"><ele>652.0</ele><time>2026-03-29T09:58:55.999Z</time></trkpt><trkpt lat="42.012792814924204" lon="13.03711355895265"><ele>663.0</ele><time>2026-03-29T09:58:56.999Z</time></trkpt><trkpt lat="42.01261013003462" lon="13.037071991129311"><ele>671.0</ele><time>2026-03-29T09:58:57.999Z</time></trkpt><trkpt lat="42.01240043104648" lon="13.037059068583984"><ele>679.0</ele><time>2026-03-29T09:58:58.999Z</time></trkpt><trkpt lat="42.01218626607882" lon="13.03698069581634"><ele>687.0</ele><time>2026-03-29T09:58:59.999Z</time></trkpt><trkpt lat="42.01199415666554" lon="13.036834733228131"><ele>687.0</ele><time>2026-03-29T09:59:00.999Z</time></trkpt><trkpt lat="42.0117902389428" lon="13.036696959668355"><ele>687.0</ele><time>2026-03-29T09:59:01.999Z</time></trkpt><trkpt lat="42.011601212144114" lon="13.03656743322892"><ele>687.0</ele><time>2026-03-29T09:59:02.999Z</time></trkpt><trkpt lat="42.011422116167594" lon="13.036474838138085"><ele>672.5</ele><time>2026-03-29T09:59:03.999Z</time></trkpt><trkpt lat="42.01121674448325" lon="13.036421994380193"><ele>658.0</ele><time>2026-03-29T09:59:04.999Z</time></trkpt><trkpt lat="42.01097625192976" lon="13.03640061711767"><ele>667.5</ele><time>2026-03-29T09:59:05.999Z</time></trkpt><trkpt lat="42.0107263163528" lon="13.036391736643743"><ele>677.0</ele><time>2026-03-29T09:59:06.999Z</time></trkpt><trkpt lat="42.01047798771104" lon="13.036382732579272"><ele>677.0</ele><time>2026-03-29T09:59:07.999Z</time></trkpt><trkpt lat="42.01024844028143" lon="13.036369888014647"><ele>677.0</ele><time>2026-03-29T09:59:08.999Z</time></trkpt><trkpt lat="42.01001018813601" lon="13.036309493822916"><ele>688.5</ele><time>2026-03-29T09:59:09.999Z</time></trkpt><trkpt lat="42.00977798232191" lon="13.036219152941522"><ele>700.0</ele><time>2026-03-29T09:59:10.999Z</time></trkpt><trkpt lat="42.00954479017764" lon="13.036096257661018"><ele>700.0</ele><time>2026-03-29T09:59:11.999Z</time></trkpt><trkpt lat="42.009351680822085" lon="13.035940823307737"><ele>700.0</ele><time>2026-03-29T09:59:12.999Z</time></trkpt><trkpt lat="42.00918880515594" lon="13.035817732668232"><ele>700.0</ele><time>2026-03-29T09:59:13.999Z</time></trkpt><trkpt lat="42.00904303419827" lon="13.035737562720978"><ele>689.0</ele><time>2026-03-29T09:59:14.999Z</time></trkpt><trkpt lat="42.008900106792645" lon="13.035695814605084"><ele>678.0</ele><time>2026-03-29T09:59:15.999Z</time></trkpt><trkpt lat="42.00873683232454" lon="13.035683004595777"><ele>667.0</ele><time>2026-03-29T09:59:16.999Z</time></trkpt><trkpt lat="42.00857658159789" lon="13.035729121915853"><ele>670.0</ele><time>2026-03-29T09:59:17.999Z</time></trkpt><trkpt lat="42.00842338386673" lon="13.035822439259592"><ele>673.0</ele><time>2026-03-29T09:59:18.999Z</time></trkpt><trkpt lat="42.00826422026057" lon="13.035931944733795"><ele>676.0</ele><time>2026-03-29T09:59:19.999Z</time></trkpt><trkpt lat="42.00810053350376" lon="13.036060489756176"><ele>676.0</ele><time>2026-03-29T09:59:20.999Z</time></trkpt><trkpt lat="42.007993188562544" lon="13.036355038295829"><ele>676.0</ele><time>2026-03-29T09:59:21.999Z</time></trkpt><trkpt lat="42.007847691826136" lon="13.03659744594215"><ele>676.0</ele><time>2026-03-29T09:59:22.999Z</time></trkpt><trkpt lat="42.007703247730724" lon="13.036835774126917"><ele>676.0</ele><time>2026-03-29T09:59:23.999Z</time></trkpt><trkpt lat="42.00755313128894" lon="13.037050995557424"><ele>676.0</ele><time>2026-03-29T09:59:24.999Z</time></trkpt><trkpt lat="42.0074202536918" lon="13.037221206569193"><ele>676.0</ele><time>2026-03-29T09:59:25.999Z</time></trkpt><trkpt lat="42.00729871627305" lon="13.037398516203098"><ele>676.0</ele><time>2026-03-29T09:59:26.999Z</time></trkpt><trkpt lat="42.00717621175148" lon="13.037601028522934"><ele>676.0</ele><time>2026-03-29T09:59:27.999Z</time></trkpt><trkpt lat="42.00703729067708" lon="13.037837590559267"><ele>684.3333333333334</ele><time>2026-03-29T09:59:28.999Z</time></trkpt><trkpt lat="42.006884361788835" lon="13.038058634976222"><ele>692.6666666666666</ele><time>2026-03-29T09:59:29.999Z</time></trkpt><trkpt lat="42.006749153832594" lon="13.03824097865734"><ele>701.0</ele><time>2026-03-29T09:59:30.999Z</time></trkpt><trkpt lat="42.00658807425646" lon="13.038409363797912"><ele>707.0</ele><time>2026-03-29T09:59:31.999Z</time></trkpt><trkpt lat="42.00639417222785" lon="13.03852222756976"><ele>713.0</ele><time>2026-03-29T09:59:32.999Z</time></trkpt><trkpt lat="42.00619117379884" lon="13.038587595553857"><ele>719.0</ele><time>2026-03-29T09:59:33.999Z</time></trkpt><trkpt lat="42.00596877578898" lon="13.038665192756048"><ele>723.5</ele><time>2026-03-29T09:59:34.999Z</time></trkpt><trkpt lat="42.005735830777596" lon="13.038737178779883"><ele>728.0</ele><time>2026-03-29T09:59:35.999Z</time></trkpt><trkpt lat="42.0055212673716" lon="13.038770795717435"><ele>728.0</ele><time>2026-03-29T09:59:36.999Z</time></trkpt><trkpt lat="42.00534535674207" lon="13.038791641790617"><ele>728.0</ele><time>2026-03-29T09:59:37.999Z</time></trkpt><trkpt lat="42.00521408536458" lon="13.038807433922289"><ele>728.0</ele><time>2026-03-29T09:59:38.999Z</time></trkpt><trkpt lat="42.005105455553974" lon="13.038847711545614"><ele>728.0</ele><time>2026-03-29T09:59:39.999Z</time></trkpt><trkpt lat="42.00499956429318" lon="13.03897175279675"><ele>731.6666666666666</ele><time>2026-03-29T09:59:40.999Z</time></trkpt><trkpt lat="42.004930068828365" lon="13.039158699646801"><ele>735.3333333333334</ele><time>2026-03-29T09:59:41.999Z</time></trkpt><trkpt lat="42.004916772111514" lon="13.039357789849937"><ele>739.0</ele><time>2026-03-29T09:59:42.999Z</time></trkpt><trkpt lat="42.004961105276955" lon="13.03955666661162"><ele>737.3333333333334</ele><time>2026-03-29T09:59:43.999Z</time></trkpt><trkpt lat="42.005052811625575" lon="13.039759971932163"><ele>735.6666666666666</ele><time>2026-03-29T09:59:44.999Z</time></trkpt><trkpt lat="42.00516979032471" lon="13.040007652711624"><ele>734.0</ele><time>2026-03-29T09:59:45.999Z</time></trkpt><trkpt lat="42.00528490776403" lon="13.040291419961553"><ele>731.5</ele><time>2026-03-29T09:59:46.999Z</time></trkpt><trkpt lat="42.00545984101348" lon="13.040648452237775"><ele>729.0</ele><time>2026-03-29T09:59:47.999Z</time></trkpt><trkpt lat="42.005568905987715" lon="13.040929124761577"><ele>723.5</ele><time>2026-03-29T09:59:48.999Z</time></trkpt><trkpt lat="42.005666343310054" lon="13.04120019665464"><ele>718.0</ele><time>2026-03-29T09:59:49.999Z</time></trkpt><trkpt lat="42.005754795193795" lon="13.041491435336024"><ele>712.0</ele><time>2026-03-29T09:59:50.999Z</time></trkpt><trkpt lat="42.00581611483828" lon="13.041807807473518"><ele>706.0</ele><time>2026-03-29T09:59:51.999Z</time></trkpt><trkpt lat="42.005846886692495" lon="13.042156851204602"><ele>725.5</ele><time>2026-03-29T09:59:52.999Z</time></trkpt><trkpt lat="42.005863125746785" lon="13.042519829664828"><ele>745.0</ele><time>2026-03-29T09:59:53.999Z</time></trkpt><trkpt lat="42.00588269632188" lon="13.04282770254224"><ele>745.0</ele><time>2026-03-29T09:59:54.999Z</time></trkpt><trkpt lat="42.0059076401011" lon="13.043086480937411"><ele>745.0</ele><time>2026-03-29T09:59:56Z</time></trkpt><trkpt lat="42.00594893575931" lon="13.043350654995484"><ele>745.0</ele><time>2026-03-29T09:59:57Z</time></trkpt><trkpt lat="42.00604154308285" lon="13.04362183298269"><ele>742.5</ele><time>2026-03-29T09:59:58Z</time></trkpt><trkpt lat="42.006166624803186" lon="13.043909855107241"><ele>740.0</ele><time>2026-03-29T09:59:59Z</time></trkpt><trkpt lat="42.00629884712416" lon="13.044174430191552"><ele>738.6666666666666</ele><time>2026-03-29T10:00:00Z</time></trkpt><trkpt lat="42.0064044866879" lon="13.04440836906843"><ele>737.3333333333334</ele><time>2026-03-29T10:00:01Z</time></trkpt><trkpt lat="42.00646676675221" lon="13.044673862788457"><ele>736.0</ele><time>2026-03-29T10:00:02Z</time></trkpt><trkpt lat="42.006496873307185" lon="13.044899034428605"><ele>738.0</ele><time>2026-03-29T10:00:03Z</time></trkpt><trkpt lat="42.00646473182469" lon="13.045147436684518"><ele>740.0</ele><time>2026-03-29T10:00:04Z</time></trkpt><trkpt lat="42.00637179521613" lon="13.045419689716372"><ele>742.0</ele><time>2026-03-29T10:00:05Z</time></trkpt><trkpt lat="42.00626761371704" lon="13.04570476102042"><ele>746.0</ele><time>2026-03-29T10:00:06Z</time></trkpt><trkpt lat="42.0061768714413" lon="13.046025454721812"><ele>750.0</ele><time>2026-03-29T10:00:07Z</time></trkpt><trkpt lat="42.00608967953015" lon="13.04635654524596"><ele>753.5</ele><time>2026-03-29T10:00:08Z</time></trkpt><trkpt lat="42.005999618969625" lon="13.04669720278328"><ele>757.0</ele><time>2026-03-29T10:00:09Z</time></trkpt><trkpt lat="42.00590786841525" lon="13.047056154037097"><ele>757.0</ele><time>2026-03-29T10:00:10Z</time></trkpt><trkpt lat="42.00583187600893" lon="13.047389116388137"><ele>757.0</ele><time>2026-03-29T10:00:11Z</time></trkpt><trkpt lat="42.00576773767384" lon="13.047691172865639"><ele>753.3333333333334</ele><time>2026-03-29T10:00:12Z</time></trkpt><trkpt lat="42.005722120791" lon="13.04794601655554"><ele>749.6666666666666</ele><time>2026-03-29T10:00:13Z</time></trkpt><trkpt lat="42.00571232509405" lon="13.048137015603684"><ele>746.0</ele><time>2026-03-29T10:00:14Z</time></trkpt><trkpt lat="42.005737817506514" lon="13.0483199246483"><ele>746.0</ele><time>2026-03-29T10:00:15Z</time></trkpt><trkpt lat="42.00575406422292" lon="13.048536406918146"><ele>746.0</ele><time>2026-03-29T10:00:16Z</time></trkpt><trkpt lat="42.00581061665613" lon="13.048806023694853"><ele>746.0</ele><time>2026-03-29T10:00:17Z</time></trkpt><trkpt lat="42.00585327637938" lon="13.049103108229804"><ele>747.0</ele><time>2026-03-29T10:00:18Z</time></trkpt><trkpt lat="42.005859859156025" lon="13.049432025517273"><ele>748.0</ele><time>2026-03-29T10:00:19Z</time></trkpt><trkpt lat="42.00582494313435" lon="13.049746504784355"><ele>748.0</ele><time>2026-03-29T10:00:20Z</time></trkpt><trkpt lat="42.00579248448075" lon="13.050014938718556"><ele>748.0</ele><time>2026-03-29T10:00:21Z</time></trkpt><trkpt lat="42.0058010625377" lon="13.050276809384473"><ele>748.0</ele><time>2026-03-29T10:00:22Z</time></trkpt><trkpt lat="42.00586613472744" lon="13.05056072251985"><ele>758.3333333333334</ele><time>2026-03-29T10:00:23Z</time></trkpt><trkpt lat="42.00589913886749" lon="13.050844311949408"><ele>768.6666666666667</ele><time>2026-03-29T10:00:24Z</time></trkpt><trkpt lat="42.005896980503856" lon="13.051087022764873"><ele>779.0</ele><time>2026-03-29T10:00:25Z</time></trkpt><trkpt lat="42.00586274008559" lon="13.051383598917536"><ele>773.3333333333334</ele><time>2026-03-29T10:00:26Z</time></trkpt><trkpt lat="42.00582798274105" lon="13.051686583709902"><ele>767.6666666666667</ele><time>2026-03-29T10:00:27Z</time></trkpt><trkpt lat="42.005801516288386" lon="13.051936716260256"><ele>762.0</ele><time>2026-03-29T10:00:28Z</time></trkpt><trkpt lat="42.005759809770616" lon="13.052144260986838"><ele>762.0</ele><time>2026-03-29T10:00:29Z</time></trkpt><trkpt lat="42.00565585772583" lon="13.052336330467428"><ele>762.0</ele><time>2026-03-29T10:00:30Z</time></trkpt><trkpt lat="42.005491958404754" lon="13.05253094088036"><ele>762.0</ele><time>2026-03-29T10:00:31Z</time></trkpt><trkpt lat="42.005342438793" lon="13.052728346312222"><ele>766.3333333333333</ele><time>2026-03-29T10:00:32Z</time></trkpt><trkpt lat="42.005206579969034" lon="13.052937326324527"><ele>770.6666666666666</ele><time>2026-03-29T10:00:33Z</time></trkpt><trkpt lat="42.00508954318873" lon="13.053213609781727"><ele>775.0</ele><time>2026-03-29T10:00:34Z</time></trkpt><trkpt lat="42.0049603404319" lon="13.053493681174109"><ele>775.0</ele><time>2026-03-29T10:00:35Z</time></trkpt><trkpt lat="42.004785150413895" lon="13.053730042918357"><ele>775.0</ele><time>2026-03-29T10:00:36Z</time></trkpt><trkpt lat="42.0045974126939" lon="13.053980944860623"><ele>785.5</ele><time>2026-03-29T10:00:37Z</time></trkpt><trkpt lat="42.00439599615902" lon="13.054236442379004"><ele>796.0</ele><time>2026-03-29T10:00:38Z</time></trkpt><trkpt lat="42.004186141439945" lon="13.054480708304391"><ele>792.0</ele><time>2026-03-29T10:00:39Z</time></trkpt><trkpt lat="42.003977411979726" lon="13.054697968427462"><ele>788.0</ele><time>2026-03-29T10:00:40Z</time></trkpt><trkpt lat="42.00376238280852" lon="13.05494389730331"><ele>789.0</ele><time>2026-03-29T10:00:41Z</time></trkpt><trkpt lat="42.003528642879374" lon="13.05517084288449"><ele>790.0</ele><time>2026-03-29T10:00:42Z</time></trkpt><trkpt lat="42.003304307062415" lon="13.055399312043516"><ele>790.0</ele><time>2026-03-29T10:00:43Z</time></trkpt><trkpt lat="42.00309653792591" lon="13.05561443186977"><ele>790.0</ele><time>2026-03-29T10:00:44Z</time></trkpt><trkpt lat="42.00290879194484" lon="13.055800485770467"><ele>796.0</ele><time>2026-03-29T10:00:45Z</time></trkpt><trkpt lat="42.00273924683826" lon="13.05597041350057"><ele>802.0</ele><time>2026-03-29T10:00:46Z</time></trkpt><trkpt lat="42.00254756196796" lon="13.05607731547169"><ele>808.0</ele><time>2026-03-29T10:00:47Z</time></trkpt><trkpt lat="42.00233025092504" lon="13.056187465700766"><ele>809.5</ele><time>2026-03-29T10:00:48Z</time></trkpt><trkpt lat="42.00211228614393" lon="13.056293066465283"><ele>811.0</ele><time>2026-03-29T10:00:49Z</time></trkpt><trkpt lat="42.00188193896856" lon="13.05640576910356"><ele>812.0</ele><time>2026-03-29T10:00:50Z</time></trkpt><trkpt lat="42.00163163853953" lon="13.056531033110382"><ele>813.0</ele><time>2026-03-29T10:00:51Z</time></trkpt><trkpt lat="42.00140636229242" lon="13.05664421239189"><ele>814.6666666666667</ele><time>2026-03-29T10:00:52Z</time></trkpt><trkpt lat="42.00121040979575" lon="13.056742517946436"><ele>816.3333333333334</ele><time>2026-03-29T10:00:53Z</time></trkpt><trkpt lat="42.00103063935079" lon="13.05682108322666"><ele>818.0</ele><time>2026-03-29T10:00:54Z</time></trkpt><trkpt lat="42.00084028915642" lon="13.056879848897465"><ele>819.0</ele><time>2026-03-29T10:00:55Z</time></trkpt><trkpt lat="42.000625479895334" lon="13.05692236892016"><ele>820.0</ele><time>2026-03-29T10:00:56Z</time></trkpt><trkpt lat="42.00038856023305" lon="13.056973321686373"><ele>820.0</ele><time>2026-03-29T10:00:57Z</time></trkpt><trkpt lat="42.000146965975254" lon="13.057015986569674"><ele>820.0</ele><time>2026-03-29T10:00:58Z</time></trkpt><trkpt lat="41.99989417190826" lon="13.057062357716406"><ele>820.0</ele><time>2026-03-29T10:00:59Z</time></trkpt><trkpt lat="41.999630257218605" lon="13.057118194857845"><ele>820.0</ele><time>2026-03-29T10:01:00Z</time></trkpt><trkpt lat="41.999382355455545" lon="13.0571710652976"><ele>822.0</ele><time>2026-03-29T10:01:01Z</time></trkpt><trkpt lat="41.999134849880676" lon="13.057199587302287"><ele>824.0</ele><time>2026-03-29T10:01:02Z</time></trkpt><trkpt lat="41.99889403784721" lon="13.05724254202218"><ele>824.0</ele><time>2026-03-29T10:01:03Z</time></trkpt><trkpt lat="41.99868383365436" lon="13.057280895610564"><ele>824.0</ele><time>2026-03-29T10:01:04Z</time></trkpt><trkpt lat="41.99850810060284" lon="13.057330099839323"><ele>824.0</ele><time>2026-03-29T10:01:05Z</time></trkpt><trkpt lat="41.99834877634629" lon="13.057351913899787"><ele>824.6666666666667</ele><time>2026-03-29T10:01:06Z</time></trkpt><trkpt lat="41.998165824893185" lon="13.05731030951742"><ele>825.3333333333333</ele><time>2026-03-29T10:01:07Z</time></trkpt><trkpt lat="41.997969342014905" lon="13.057224019055129"><ele>826.0</ele><time>2026-03-29T10:01:08Z</time></trkpt><trkpt lat="41.997792089382095" lon="13.057138643366642"><ele>826.0</ele><time>2026-03-29T10:01:09Z</time></trkpt><trkpt lat="41.997652797364985" lon="13.057066793891092"><ele>826.0</ele><time>2026-03-29T10:01:10Z</time></trkpt><trkpt lat="41.99754725433393" lon="13.056972536571399"><ele>826.0</ele><time>2026-03-29T10:01:11Z</time></trkpt><trkpt lat="41.99749724693154" lon="13.056817534605983"><ele>826.0</ele><time>2026-03-29T10:01:12Z</time></trkpt><trkpt lat="41.99747892870256" lon="13.056621015014294"><ele>824.0</ele><time>2026-03-29T10:01:12.999Z</time></trkpt><trkpt lat="41.99751685569348" lon="13.056395545827748"><ele>822.0</ele><time>2026-03-29T10:01:13.999Z</time></trkpt><trkpt lat="41.997554537307586" lon="13.056137780037968"><ele>820.0</ele><time>2026-03-29T10:01:14.999Z</time></trkpt><trkpt lat="41.997647526069514" lon="13.055869628981172"><ele>824.5</ele><time>2026-03-29T10:01:15.999Z</time></trkpt><trkpt lat="41.99772321191578" lon="13.055573907643026"><ele>829.0</ele><time>2026-03-29T10:01:16.999Z</time></trkpt><trkpt lat="41.99782669685326" lon="13.055297313932027"><ele>829.0</ele><time>2026-03-29T10:01:17.999Z</time></trkpt><trkpt lat="41.99790666403459" lon="13.055050719074188"><ele>829.0</ele><time>2026-03-29T10:01:18.999Z</time></trkpt><trkpt lat="41.99797690864215" lon="13.054824917086393"><ele>829.0</ele><time>2026-03-29T10:01:19.999Z</time></trkpt><trkpt lat="41.99804369168214" lon="13.05462965473739"><ele>828.6</ele><time>2026-03-29T10:01:20.999Z</time></trkpt><trkpt lat="41.99809794199174" lon="13.054459430222575"><ele>828.2</ele><time>2026-03-29T10:01:21.999Z</time></trkpt><trkpt lat="41.99813229216586" lon="13.054305094828926"><ele>827.8000000000001</ele><time>2026-03-29T10:01:22.999Z</time></trkpt><trkpt lat="41.998127618105464" lon="13.054164977498948"><ele>827.4000000000001</ele><time>2026-03-29T10:01:23.999Z</time></trkpt><trkpt lat="41.99809746811435" lon="13.054063854246383"><ele>827.0</ele><time>2026-03-29T10:01:24.999Z</time></trkpt><trkpt lat="41.99798765233226" lon="13.053994870766731"><ele>827.0</ele><time>2026-03-29T10:01:26.999Z</time></trkpt><trkpt lat="41.99790599454169" lon="13.053988437921666"><ele>827.0</ele><time>2026-03-29T10:01:27.999Z</time></trkpt><trkpt lat="41.99778411392116" lon="13.054039075677295"><ele>827.0</ele><time>2026-03-29T10:01:28.999Z</time></trkpt><trkpt lat="41.99764368803237" lon="13.054139235869993"><ele>827.0</ele><time>2026-03-29T10:01:29.999Z</time></trkpt><trkpt lat="41.997483430382495" lon="13.054222065006241"><ele>832.3333333333334</ele><time>2026-03-29T10:01:30.999Z</time></trkpt><trkpt lat="41.997289305541045" lon="13.054299120601453"><ele>837.6666666666667</ele><time>2026-03-29T10:01:31.999Z</time></trkpt><trkpt lat="41.99709666452784" lon="13.054337131716796"><ele>843.0</ele><time>2026-03-29T10:01:32.999Z</time></trkpt><trkpt lat="41.99691792497971" lon="13.054371224005697"><ele>843.0</ele><time>2026-03-29T10:01:33.999Z</time></trkpt><trkpt lat="41.996759422777075" lon="13.054457001587835"><ele>843.0</ele><time>2026-03-29T10:01:34.999Z</time></trkpt><trkpt lat="41.996623032249566" lon="13.054567217803381"><ele>843.0</ele><time>2026-03-29T10:01:35.999Z</time></trkpt><trkpt lat="41.99652396502045" lon="13.054716538985614"><ele>840.75</ele><time>2026-03-29T10:01:36.999Z</time></trkpt><trkpt lat="41.99645789832523" lon="13.05489254024192"><ele>838.5</ele><time>2026-03-29T10:01:37.999Z</time></trkpt><trkpt lat="41.99638085498868" lon="13.055058033158856"><ele>836.25</ele><time>2026-03-29T10:01:38.999Z</time></trkpt><trkpt lat="41.996297095038436" lon="13.055169873078404"><ele>834.0</ele><time>2026-03-29T10:01:39.999Z</time></trkpt><trkpt lat="41.99618153415983" lon="13.055205332943958"><ele>835.6666666666667</ele><time>2026-03-29T10:01:40.999Z</time></trkpt><trkpt lat="41.996007710029225" lon="13.055266893611389"><ele>837.3333333333334</ele><time>2026-03-29T10:01:41.999Z</time></trkpt><trkpt lat="41.995836677964085" lon="13.055359413919167"><ele>839.0</ele><time>2026-03-29T10:01:42.999Z</time></trkpt><trkpt lat="41.9956553358948" lon="13.055499857514157"><ele>839.0</ele><time>2026-03-29T10:01:43.999Z</time></trkpt><trkpt lat="41.99548579855392" lon="13.05570609252979"><ele>839.0</ele><time>2026-03-29T10:01:44.999Z</time></trkpt><trkpt lat="41.995327537404904" lon="13.055911077676123"><ele>839.0</ele><time>2026-03-29T10:01:45.999Z</time></trkpt><trkpt lat="41.995191691084564" lon="13.056131914564762"><ele>849.0</ele><time>2026-03-29T10:01:46.999Z</time></trkpt><trkpt lat="41.995034656644755" lon="13.056372810747925"><ele>859.0</ele><time>2026-03-29T10:01:47.999Z</time></trkpt><trkpt lat="41.994877697659234" lon="13.056643277548673"><ele>859.0</ele><time>2026-03-29T10:01:48.999Z</time></trkpt><trkpt lat="41.994703124129124" lon="13.056940284446597"><ele>859.0</ele><time>2026-03-29T10:01:49.999Z</time></trkpt><trkpt lat="41.994536709920276" lon="13.057228625143047"><ele>857.0</ele><time>2026-03-29T10:01:50.999Z</time></trkpt><trkpt lat="41.99438591123967" lon="13.05747804609927"><ele>855.0</ele><time>2026-03-29T10:01:51.999Z</time></trkpt><trkpt lat="41.99425622458056" lon="13.057693413423854"><ele>853.0</ele><time>2026-03-29T10:01:52.999Z</time></trkpt><trkpt lat="41.9941383019897" lon="13.057916716602818"><ele>853.0</ele><time>2026-03-29T10:01:53.999Z</time></trkpt><trkpt lat="41.99406057703959" lon="13.058195326076698"><ele>853.0</ele><time>2026-03-29T10:01:54.999Z</time></trkpt><trkpt lat="41.99398243160069" lon="13.05851908276756"><ele>859.5</ele><time>2026-03-29T10:01:55.999Z</time></trkpt><trkpt lat="41.99388492372619" lon="13.058853771068392"><ele>866.0</ele><time>2026-03-29T10:01:56.999Z</time></trkpt><trkpt lat="41.993794535139926" lon="13.059191874044284"><ele>871.0</ele><time>2026-03-29T10:01:57.999Z</time></trkpt><trkpt lat="41.993716975302924" lon="13.059486235982588"><ele>876.0</ele><time>2026-03-29T10:01:58.999Z</time></trkpt><trkpt lat="41.993648384408836" lon="13.05974779759469"><ele>881.0</ele><time>2026-03-29T10:01:59.999Z</time></trkpt><trkpt lat="41.99361783960156" lon="13.06000621407995"><ele>884.3333333333334</ele><time>2026-03-29T10:02:01.001Z</time></trkpt><trkpt lat="41.99359600162732" lon="13.060285406080313"><ele>887.6666666666667</ele><time>2026-03-29T10:02:02.001Z</time></trkpt><trkpt lat="41.99360702070824" lon="13.060567585047728"><ele>891.0</ele><time>2026-03-29T10:02:03.001Z</time></trkpt><trkpt lat="41.99365413369622" lon="13.060854929841042"><ele>891.0</ele><time>2026-03-29T10:02:04.001Z</time></trkpt><trkpt lat="41.99371452193901" lon="13.061159337906764"><ele>891.0</ele><time>2026-03-29T10:02:05.001Z</time></trkpt><trkpt lat="41.99377911595959" lon="13.061435316170103"><ele>891.0</ele><time>2026-03-29T10:02:06.001Z</time></trkpt><trkpt lat="41.993831414252874" lon="13.061695157688463"><ele>891.0</ele><time>2026-03-29T10:02:07.001Z</time></trkpt><trkpt lat="41.99384162464806" lon="13.06192862453312"><ele>891.0</ele><time>2026-03-29T10:02:08.001Z</time></trkpt><trkpt lat="41.99382857649862" lon="13.062117390756859"><ele>891.0</ele><time>2026-03-29T10:02:09.001Z</time></trkpt><trkpt lat="41.99380829387953" lon="13.062279475015048"><ele>891.0</ele><time>2026-03-29T10:02:10.001Z</time></trkpt><trkpt lat="41.99375064336739" lon="13.062408177886041"><ele>893.75</ele><time>2026-03-29T10:02:11.001Z</time></trkpt><trkpt lat="41.99364647111477" lon="13.062493372722138"><ele>896.5</ele><time>2026-03-29T10:02:12.001Z</time></trkpt><trkpt lat="41.993507680623956" lon="13.062569513997728"><ele>899.25</ele><time>2026-03-29T10:02:13.001Z</time></trkpt><trkpt lat="41.993372147117796" lon="13.062680038541549"><ele>902.0</ele><time>2026-03-29T10:02:14.001Z</time></trkpt><trkpt lat="41.99325973048064" lon="13.062856118367502"><ele>896.3333333333334</ele><time>2026-03-29T10:02:15.001Z</time></trkpt><trkpt lat="41.99316780190446" lon="13.063089348498327"><ele>890.6666666666667</ele><time>2026-03-29T10:02:16.001Z</time></trkpt><trkpt lat="41.993103988770635" lon="13.063365444632371"><ele>885.0</ele><time>2026-03-29T10:02:17.001Z</time></trkpt><trkpt lat="41.9930297236534" lon="13.063664862046245"><ele>885.0</ele><time>2026-03-29T10:02:18.001Z</time></trkpt><trkpt lat="41.99295133979409" lon="13.063980147174274"><ele>885.0</ele><time>2026-03-29T10:02:19.001Z</time></trkpt><trkpt lat="41.99287416475406" lon="13.064301789633397"><ele>893.5</ele><time>2026-03-29T10:02:20Z</time></trkpt><trkpt lat="41.99278433885977" lon="13.064641062565224"><ele>902.0</ele><time>2026-03-29T10:02:21Z</time></trkpt><trkpt lat="41.99267937331968" lon="13.064986192096748"><ele>911.0</ele><time>2026-03-29T10:02:22Z</time></trkpt><trkpt lat="41.99255931639966" lon="13.06533454985826"><ele>920.0</ele><time>2026-03-29T10:02:23Z</time></trkpt><trkpt lat="41.992425285389274" lon="13.06565902255727"><ele>906.0</ele><time>2026-03-29T10:02:24Z</time></trkpt><trkpt lat="41.99229934470427" lon="13.06596772876946"><ele>892.0</ele><time>2026-03-29T10:02:25Z</time></trkpt><trkpt lat="41.99216363306203" lon="13.066268565699106"><ele>892.0</ele><time>2026-03-29T10:02:26Z</time></trkpt><trkpt lat="41.99201198628698" lon="13.066554132784825"><ele>892.0</ele><time>2026-03-29T10:02:27Z</time></trkpt><trkpt lat="41.991889103246734" lon="13.066821284770331"><ele>895.3333333333333</ele><time>2026-03-29T10:02:28Z</time></trkpt><trkpt lat="41.99176402125804" lon="13.067065461727962"><ele>898.6666666666667</ele><time>2026-03-29T10:02:29Z</time></trkpt><trkpt lat="41.99164963552562" lon="13.067331460205137"><ele>902.0</ele><time>2026-03-29T10:02:30Z</time></trkpt><trkpt lat="41.99156070535227" lon="13.06761164486539"><ele>902.0</ele><time>2026-03-29T10:02:31Z</time></trkpt><trkpt lat="41.99149758260071" lon="13.067871220313368"><ele>902.0</ele><time>2026-03-29T10:02:32Z</time></trkpt><trkpt lat="41.99142693420461" lon="13.068052046016449"><ele>902.0</ele><time>2026-03-29T10:02:33Z</time></trkpt><trkpt lat="41.99137164297713" lon="13.068211370550989"><ele>910.75</ele><time>2026-03-29T10:02:34Z</time></trkpt><trkpt lat="41.991284452826754" lon="13.068346022135218"><ele>919.5</ele><time>2026-03-29T10:02:35Z</time></trkpt><trkpt lat="41.99119209799283" lon="13.068471568741106"><ele>928.25</ele><time>2026-03-29T10:02:36Z</time></trkpt><trkpt lat="41.991104975478045" lon="13.068556691606238"><ele>937.0</ele><time>2026-03-29T10:02:37Z</time></trkpt><trkpt lat="41.991020023840754" lon="13.06860603779743"><ele>937.0</ele><time>2026-03-29T10:02:38Z</time></trkpt><trkpt lat="41.99092675829897" lon="13.068595186525284"><ele>937.0</ele><time>2026-03-29T10:02:39Z</time></trkpt><trkpt lat="41.99083269309164" lon="13.06854323136336"><ele>937.0</ele><time>2026-03-29T10:02:40Z</time></trkpt><trkpt lat="41.99079537568981" lon="13.068396771369711"><ele>937.0</ele><time>2026-03-29T10:02:41Z</time></trkpt><trkpt lat="41.99077263522794" lon="13.068222182043613"><ele>937.0</ele><time>2026-03-29T10:02:42Z</time></trkpt><trkpt lat="41.99073060039493" lon="13.067993196812074"><ele>924.6666666666666</ele><time>2026-03-29T10:02:43Z</time></trkpt><trkpt lat="41.990684301460455" lon="13.067725364454363"><ele>912.3333333333333</ele><time>2026-03-29T10:02:44Z</time></trkpt><trkpt lat="41.99063153899247" lon="13.067436568495143"><ele>900.0</ele><time>2026-03-29T10:02:45Z</time></trkpt><trkpt lat="41.99057005993549" lon="13.067152599737224"><ele>895.3333333333333</ele><time>2026-03-29T10:02:46Z</time></trkpt><trkpt lat="41.99049207541402" lon="13.066885078283391"><ele>890.6666666666666</ele><time>2026-03-29T10:02:47Z</time></trkpt><trkpt lat="41.990412677402375" lon="13.06664223817255"><ele>886.0</ele><time>2026-03-29T10:02:48Z</time></trkpt><trkpt lat="41.99031339724453" lon="13.066418283176647"><ele>892.3333333333333</ele><time>2026-03-29T10:02:49Z</time></trkpt><trkpt lat="41.99016313528332" lon="13.066189183935524"><ele>898.6666666666667</ele><time>2026-03-29T10:02:50Z</time></trkpt><trkpt lat="41.99000930507087" lon="13.065987703848169"><ele>905.0</ele><time>2026-03-29T10:02:51Z</time></trkpt><trkpt lat="41.98988836939177" lon="13.065846594817174"><ele>888.0</ele><time>2026-03-29T10:02:52Z</time></trkpt><trkpt lat="41.98977478317697" lon="13.065752496078497"><ele>871.0</ele><time>2026-03-29T10:02:53Z</time></trkpt><trkpt lat="41.98961902272908" lon="13.065673418773963"><ele>854.0</ele><time>2026-03-29T10:02:54Z</time></trkpt><trkpt lat="41.98941609493298" lon="13.065571103681238"><ele>854.0</ele><time>2026-03-29T10:02:55Z</time></trkpt><trkpt lat="41.98923829476094" lon="13.065483192935725"><ele>854.0</ele><time>2026-03-29T10:02:56Z</time></trkpt><trkpt lat="41.98906391580573" lon="13.065408826208913"><ele>854.0</ele><time>2026-03-29T10:02:57Z</time></trkpt><trkpt lat="41.98887231891778" lon="13.065367197205596"><ele>871.0</ele><time>2026-03-29T10:02:58Z</time></trkpt><trkpt lat="41.988659265207936" lon="13.065351372588848"><ele>888.0</ele><time>2026-03-29T10:02:59Z</time></trkpt><trkpt lat="41.98842043434747" lon="13.065357036286795"><ele>893.3333333333333</ele><time>2026-03-29T10:03:00Z</time></trkpt><trkpt lat="41.98820091976456" lon="13.065367230630141"><ele>898.6666666666666</ele><time>2026-03-29T10:03:01Z</time></trkpt><trkpt lat="41.98802711424326" lon="13.065352224972276"><ele>904.0</ele><time>2026-03-29T10:03:02Z</time></trkpt><trkpt lat="41.98788489516936" lon="13.065363773864124"><ele>903.9999999999999</ele><time>2026-03-29T10:03:03Z</time></trkpt><trkpt lat="41.98778269289823" lon="13.065346875937461"><ele>904.0</ele><time>2026-03-29T10:03:04Z</time></trkpt><trkpt lat="41.98770982399895" lon="13.065322645647763"><ele>904.0</ele><time>2026-03-29T10:03:05Z</time></trkpt><trkpt lat="41.987624684828" lon="13.065302580521555"><ele>904.0</ele><time>2026-03-29T10:03:07Z</time></trkpt><trkpt lat="41.9875568404473" lon="13.065292582765403"><ele>903.9999999999999</ele><time>2026-03-29T10:04:23.001Z</time></trkpt><trkpt lat="41.987487442282855" lon="13.065415921100115"><ele>904.0</ele><time>2026-03-29T10:05:02Z</time></trkpt><trkpt lat="41.98746874647425" lon="13.065505767037989"><ele>903.0</ele><time>2026-03-29T10:05:05Z</time></trkpt><trkpt lat="41.987443473277295" lon="13.065602037083963"><ele>902.0000000000001</ele><time>2026-03-29T10:05:36.999Z</time></trkpt><trkpt lat="41.98738724779589" lon="13.065777084616329"><ele>901.0000000000001</ele><time>2026-03-29T10:05:38.999Z</time></trkpt><trkpt lat="41.987365119612946" lon="13.065877479040404"><ele>900.0</ele><time>2026-03-29T10:05:39.999Z</time></trkpt><trkpt lat="41.987330973065" lon="13.065981241821222"><ele>899.0</ele><time>2026-03-29T10:05:40.999Z</time></trkpt><trkpt lat="41.987314516875934" lon="13.066085034481018"><ele>904.8000000000001</ele><time>2026-03-29T10:05:41.999Z</time></trkpt><trkpt lat="41.98729821741968" lon="13.066187172403472"><ele>910.6000000000001</ele><time>2026-03-29T10:05:42.999Z</time></trkpt><trkpt lat="41.987295221242356" lon="13.06628445062689"><ele>916.4</ele><time>2026-03-29T10:05:43.999Z</time></trkpt><trkpt lat="41.98726557285564" lon="13.066380396961549"><ele>922.2</ele><time>2026-03-29T10:05:44.999Z</time></trkpt><trkpt lat="41.98723971206856" lon="13.066533468122906"><ele>928.0</ele><time>2026-03-29T10:05:45.999Z</time></trkpt><trkpt lat="41.987210131018365" lon="13.066708024380535"><ele>933.5999999999999</ele><time>2026-03-29T10:05:46.999Z</time></trkpt><trkpt lat="41.98718061721586" lon="13.066870062272853"><ele>939.1999999999999</ele><time>2026-03-29T10:05:47.999Z</time></trkpt><trkpt lat="41.98714831787971" lon="13.067028684329392"><ele>944.8</ele><time>2026-03-29T10:05:48.999Z</time></trkpt><trkpt lat="41.987121651961225" lon="13.067148475120561"><ele>950.4</ele><time>2026-03-29T10:05:49.999Z</time></trkpt><trkpt lat="41.987096327714085" lon="13.067262238840444"><ele>956.0</ele><time>2026-03-29T10:05:50.999Z</time></trkpt><trkpt lat="41.9870747862978" lon="13.067355698186313"><ele>959.0000000000001</ele><time>2026-03-29T10:05:51.999Z</time></trkpt><trkpt lat="41.98705051935366" lon="13.067459050452795"><ele>962.0</ele><time>2026-03-29T10:05:52.999Z</time></trkpt><trkpt lat="41.987025271387374" lon="13.067568792384135"><ele>965.0</ele><time>2026-03-29T10:05:53.999Z</time></trkpt><trkpt lat="41.9870017394513" lon="13.067673827822855"><ele>968.0</ele><time>2026-03-29T10:05:54.999Z</time></trkpt><trkpt lat="41.986980028674736" lon="13.067770734372841"><ele>971.0000000000001</ele><time>2026-03-29T10:05:55.999Z</time></trkpt><trkpt lat="41.986959587284744" lon="13.06785852228097"><ele>974.0</ele><time>2026-03-29T10:05:56.999Z</time></trkpt><trkpt lat="41.98693795291165" lon="13.067946101767784"><ele>974.0000000000001</ele><time>2026-03-29T10:05:57.999Z</time></trkpt><trkpt lat="41.98691683548981" lon="13.068025923892682"><ele>974.0</ele><time>2026-03-29T10:05:58.999Z</time></trkpt><trkpt lat="41.98688735850063" lon="13.068123203034954"><ele>974.0</ele><time>2026-03-29T10:05:59.999Z</time></trkpt><trkpt lat="41.98684209541652" lon="13.068209563551322"><ele>974.0</ele><time>2026-03-29T10:06:00.999Z</time></trkpt><trkpt lat="41.986777566507385" lon="13.068262594414245"><ele>974.0000000000001</ele><time>2026-03-29T10:06:01.999Z</time></trkpt><trkpt lat="41.9866939110264" lon="13.068310590395496"><ele>974.0</ele><time>2026-03-29T10:06:02.999Z</time></trkpt><trkpt lat="41.98658639418147" lon="13.068326672385897"><ele>967.0</ele><time>2026-03-29T10:06:03.999Z</time></trkpt><trkpt lat="41.986430647023916" lon="13.068357875095465"><ele>960.0</ele><time>2026-03-29T10:06:04.999Z</time></trkpt><trkpt lat="41.986248463913284" lon="13.06839191155994"><ele>953.0</ele><time>2026-03-29T10:06:05.999Z</time></trkpt><trkpt lat="41.98604799532663" lon="13.068438774039272"><ele>950.6666666666667</ele><time>2026-03-29T10:06:06.999Z</time></trkpt><trkpt lat="41.98584512774448" lon="13.068509525429862"><ele>948.3333333333333</ele><time>2026-03-29T10:06:07.999Z</time></trkpt><trkpt lat="41.985631571474975" lon="13.068577540096113"><ele>946.0</ele><time>2026-03-29T10:06:08.999Z</time></trkpt><trkpt lat="41.98542826382778" lon="13.068587616297899"><ele>946.0</ele><time>2026-03-29T10:06:09.999Z</time></trkpt><trkpt lat="41.98525375129167" lon="13.068573011560524"><ele>946.0</ele><time>2026-03-29T10:06:10.999Z</time></trkpt><trkpt lat="41.985085933099434" lon="13.068538199510487"><ele>946.0</ele><time>2026-03-29T10:06:12.001Z</time></trkpt><trkpt lat="41.984946651741744" lon="13.06847139480238"><ele>947.5</ele><time>2026-03-29T10:06:13.001Z</time></trkpt><trkpt lat="41.984848820808324" lon="13.068354451933942"><ele>949.0</ele><time>2026-03-29T10:06:14.001Z</time></trkpt><trkpt lat="41.98476167763233" lon="13.068207050452417"><ele>950.5</ele><time>2026-03-29T10:06:15.001Z</time></trkpt><trkpt lat="41.98468526398455" lon="13.068067080417476"><ele>952.0</ele><time>2026-03-29T10:06:16.001Z</time></trkpt><trkpt lat="41.98461461879783" lon="13.067974632403311"><ele>952.0</ele><time>2026-03-29T10:06:17.001Z</time></trkpt><trkpt lat="41.984557178282905" lon="13.067915320149684"><ele>952.0</ele><time>2026-03-29T10:06:18.001Z</time></trkpt><trkpt lat="41.98448303307936" lon="13.067894433016937"><ele>952.0</ele><time>2026-03-29T10:06:19.001Z</time></trkpt><trkpt lat="41.98440181040328" lon="13.06797506432171"><ele>952.0</ele><time>2026-03-29T10:06:20.001Z</time></trkpt><trkpt lat="41.984369077681166" lon="13.068116933936643"><ele>952.0</ele><time>2026-03-29T10:06:21.001Z</time></trkpt><trkpt lat="41.98446318136697" lon="13.068278322112892"><ele>952.0</ele><time>2026-03-29T10:06:22.001Z</time></trkpt><trkpt lat="41.984572387306855" lon="13.068393423349484"><ele>952.0</ele><time>2026-03-29T10:06:23.001Z</time></trkpt><trkpt lat="41.984702991285126" lon="13.068522439101049"><ele>952.0</ele><time>2026-03-29T10:06:24.001Z</time></trkpt><trkpt lat="41.984837767093374" lon="13.068661457881573"><ele>952.0</ele><time>2026-03-29T10:06:25.001Z</time></trkpt><trkpt lat="41.984980707079494" lon="13.068788900544332"><ele>952.0</ele><time>2026-03-29T10:06:26.001Z</time></trkpt><trkpt lat="41.985128098257825" lon="13.068904504737288"><ele>952.0</ele><time>2026-03-29T10:06:27.001Z</time></trkpt><trkpt lat="41.98527339803649" lon="13.068989814860386"><ele>950.5</ele><time>2026-03-29T10:06:28.001Z</time></trkpt><trkpt lat="41.98542233541912" lon="13.069036398429771"><ele>949.0</ele><time>2026-03-29T10:06:29.001Z</time></trkpt><trkpt lat="41.98556662886993" lon="13.069060730272707"><ele>947.5</ele><time>2026-03-29T10:06:30.001Z</time></trkpt><trkpt lat="41.985678154115725" lon="13.069068911311167"><ele>946.0</ele><time>2026-03-29T10:06:31.001Z</time></trkpt><trkpt lat="41.98575533443019" lon="13.069089015712736"><ele>946.0</ele><time>2026-03-29T10:06:32.001Z</time></trkpt><trkpt lat="41.98584341106115" lon="13.069088250194461"><ele>945.9999999999999</ele><time>2026-03-29T10:06:34Z</time></trkpt><trkpt lat="41.98584452191984" lon="13.069179655436532"><ele>945.9999999999999</ele><time>2026-03-29T10:06:37Z</time></trkpt><trkpt lat="41.985739390253194" lon="13.06917327829697"><ele>946.0</ele><time>2026-03-29T10:06:39Z</time></trkpt><trkpt lat="41.98563815458665" lon="13.06914358693127"><ele>946.0</ele><time>2026-03-29T10:06:40Z</time></trkpt><trkpt lat="41.985515441505264" lon="13.069149602528702"><ele>946.0</ele><time>2026-03-29T10:06:41Z</time></trkpt><trkpt lat="41.98537617479282" lon="13.069133990547398"><ele>946.0</ele><time>2026-03-29T10:06:42Z</time></trkpt><trkpt lat="41.98522797089016" lon="13.069078982830614"><ele>946.0</ele><time>2026-03-29T10:06:43Z</time></trkpt><trkpt lat="41.9851052562999" lon="13.069031159228071"><ele>946.0</ele><time>2026-03-29T10:06:44Z</time></trkpt><trkpt lat="41.98499954880744" lon="13.068978500125489"><ele>947.1999999999999</ele><time>2026-03-29T10:06:45Z</time></trkpt><trkpt lat="41.984912595611625" lon="13.068920355550867"><ele>948.3999999999999</ele><time>2026-03-29T10:06:46Z</time></trkpt><trkpt lat="41.984846977793744" lon="13.068882299841725"><ele>949.6</ele><time>2026-03-29T10:06:47Z</time></trkpt><trkpt lat="41.984766706063546" lon="13.068858611828025"><ele>950.8</ele><time>2026-03-29T10:06:49Z</time></trkpt><trkpt lat="41.98470253296074" lon="13.068990129387402"><ele>952.0</ele><time>2026-03-29T10:06:51Z</time></trkpt><trkpt lat="41.98475988056663" lon="13.069073341878083"><ele>961.5</ele><time>2026-03-29T10:06:52Z</time></trkpt><trkpt lat="41.98484112051021" lon="13.069125632601272"><ele>971.0</ele><time>2026-03-29T10:06:53Z</time></trkpt><trkpt lat="41.98494858252905" lon="13.069177456608138"><ele>980.5</ele><time>2026-03-29T10:06:54Z</time></trkpt><trkpt lat="41.98506940068893" lon="13.069240088597832"><ele>990.0</ele><time>2026-03-29T10:06:55Z</time></trkpt><trkpt lat="41.98520796091093" lon="13.069311959407646"><ele>990.0</ele><time>2026-03-29T10:06:56Z</time></trkpt><trkpt lat="41.985357855500254" lon="13.069378132108298"><ele>990.0</ele><time>2026-03-29T10:06:57Z</time></trkpt><trkpt lat="41.985507741227806" lon="13.069431909553506"><ele>990.0</ele><time>2026-03-29T10:06:58Z</time></trkpt><trkpt lat="41.98563172258031" lon="13.069475099714593"><ele>990.0</ele><time>2026-03-29T10:06:59Z</time></trkpt><trkpt lat="41.98574869904468" lon="13.069518606202596"><ele>990.75</ele><time>2026-03-29T10:07:00Z</time></trkpt><trkpt lat="41.98589144072099" lon="13.069483326063045"><ele>991.5</ele><time>2026-03-29T10:07:01Z</time></trkpt><trkpt lat="41.986047350505714" lon="13.06947258542517"><ele>992.25</ele><time>2026-03-29T10:07:02Z</time></trkpt><trkpt lat="41.986172150936596" lon="13.069481832703882"><ele>993.0</ele><time>2026-03-29T10:07:03Z</time></trkpt><trkpt lat="41.9862771365615" lon="13.069494524421687"><ele>993.0</ele><time>2026-03-29T10:07:04Z</time></trkpt><trkpt lat="41.9863693946918" lon="13.069496324483998"><ele>993.0</ele><time>2026-03-29T10:07:05Z</time></trkpt><trkpt lat="41.9864639383949" lon="13.069494026659239"><ele>993.0</ele><time>2026-03-29T10:07:06Z</time></trkpt><trkpt lat="41.98654806301799" lon="13.069483112691186"><ele>993.0</ele><time>2026-03-29T10:07:07Z</time></trkpt><trkpt lat="41.98665643031902" lon="13.069468204848187"><ele>993.0</ele><time>2026-03-29T10:07:09Z</time></trkpt><trkpt lat="41.986683803065205" lon="13.069562495528302"><ele>993.0</ele><time>2026-03-29T10:07:11Z</time></trkpt><trkpt lat="41.986597500726795" lon="13.069652382837576"><ele>993.0</ele><time>2026-03-29T10:07:13Z</time></trkpt><trkpt lat="41.98651659282057" lon="13.069619937204369"><ele>993.0</ele><time>2026-03-29T10:07:14Z</time></trkpt><trkpt lat="41.986402426814536" lon="13.069623318810061"><ele>993.0</ele><time>2026-03-29T10:07:15Z</time></trkpt><trkpt lat="41.986257966477815" lon="13.069653342056874"><ele>993.0</ele><time>2026-03-29T10:07:16Z</time></trkpt><trkpt lat="41.98610871955563" lon="13.06969222298309"><ele>993.0</ele><time>2026-03-29T10:07:17Z</time></trkpt><trkpt lat="41.985968652218794" lon="13.069759488176873"><ele>993.0</ele><time>2026-03-29T10:07:18Z</time></trkpt><trkpt lat="41.98584280009204" lon="13.069839290205662"><ele>993.0</ele><time>2026-03-29T10:07:19Z</time></trkpt><trkpt lat="41.98571939854051" lon="13.069914945874988"><ele>992.25</ele><time>2026-03-29T10:07:20Z</time></trkpt><trkpt lat="41.98558256165848" lon="13.069893578446282"><ele>991.5</ele><time>2026-03-29T10:07:21Z</time></trkpt><trkpt lat="41.98543402938214" lon="13.06989072682967"><ele>990.75</ele><time>2026-03-29T10:07:22Z</time></trkpt><trkpt lat="41.98530935845879" lon="13.069884522854295"><ele>990.0</ele><time>2026-03-29T10:07:23Z</time></trkpt><trkpt lat="41.9852117694785" lon="13.069873659015789"><ele>990.0</ele><time>2026-03-29T10:07:24Z</time></trkpt><trkpt lat="41.98514059065833" lon="13.069855434487886"><ele>990.0</ele><time>2026-03-29T10:07:25Z</time></trkpt><trkpt lat="41.985052165028286" lon="13.069846719318669"><ele>990.0</ele><time>2026-03-29T10:07:27Z</time></trkpt><trkpt lat="41.98496874164128" lon="13.06983167421114"><ele>990.0</ele><time>2026-03-29T10:07:30Z</time></trkpt><trkpt lat="41.98489141541931" lon="13.069933859522335"><ele>990.0</ele><time>2026-03-29T10:07:31.999Z</time></trkpt><trkpt lat="41.98497471194107" lon="13.07000317779246"><ele>1001.0</ele><time>2026-03-29T10:07:32.999Z</time></trkpt><trkpt lat="41.98505715513142" lon="13.070028997570835"><ele>1012.0</ele><time>2026-03-29T10:07:33.999Z</time></trkpt><trkpt lat="41.985172008109835" lon="13.070035902636008"><ele>1023.0</ele><time>2026-03-29T10:07:34.999Z</time></trkpt><trkpt lat="41.985293468222274" lon="13.070071000647651"><ele>1034.0</ele><time>2026-03-29T10:07:35.999Z</time></trkpt><trkpt lat="41.98542854461275" lon="13.070123461424348"><ele>1034.0</ele><time>2026-03-29T10:07:36.999Z</time></trkpt><trkpt lat="41.98558363070445" lon="13.070177197423607"><ele>1034.0</ele><time>2026-03-29T10:07:37.999Z</time></trkpt><trkpt lat="41.985744456049204" lon="13.070221050341267"><ele>1034.0</ele><time>2026-03-29T10:07:38.999Z</time></trkpt><trkpt lat="41.985919363581694" lon="13.070228519851383"><ele>1033.0</ele><time>2026-03-29T10:07:39.999Z</time></trkpt><trkpt lat="41.986112992651435" lon="13.070212613963836"><ele>1032.0</ele><time>2026-03-29T10:07:40.999Z</time></trkpt><trkpt lat="41.98629909647989" lon="13.070209096862769"><ele>1031.0</ele><time>2026-03-29T10:07:41.999Z</time></trkpt><trkpt lat="41.986451767472005" lon="13.070228588380722"><ele>1031.0</ele><time>2026-03-29T10:07:42.999Z</time></trkpt><trkpt lat="41.9865840635184" lon="13.070260813526824"><ele>1031.0</ele><time>2026-03-29T10:07:43.999Z</time></trkpt><trkpt lat="41.98669277044817" lon="13.070297669317815"><ele>1031.0</ele><time>2026-03-29T10:07:44.999Z</time></trkpt><trkpt lat="41.986797476492065" lon="13.070332714380925"><ele>1031.0</ele><time>2026-03-29T10:07:45.999Z</time></trkpt><trkpt lat="41.98690996527844" lon="13.07035948818644"><ele>1033.75</ele><time>2026-03-29T10:07:46.999Z</time></trkpt><trkpt lat="41.9870277931767" lon="13.070378318276536"><ele>1036.5</ele><time>2026-03-29T10:07:47.999Z</time></trkpt><trkpt lat="41.98714773464496" lon="13.07038224957623"><ele>1039.25</ele><time>2026-03-29T10:07:48.999Z</time></trkpt><trkpt lat="41.98726606627889" lon="13.070378248347316"><ele>1042.0</ele><time>2026-03-29T10:07:49.999Z</time></trkpt><trkpt lat="41.98738760098185" lon="13.07036694895593"><ele>1046.5</ele><time>2026-03-29T10:07:50.999Z</time></trkpt><trkpt lat="41.98751195034004" lon="13.070337050780614"><ele>1051.0</ele><time>2026-03-29T10:07:51.999Z</time></trkpt><trkpt lat="41.98763456535817" lon="13.070286602415521"><ele>1055.5</ele><time>2026-03-29T10:07:52.999Z</time></trkpt><trkpt lat="41.98774898667252" lon="13.070210853121283"><ele>1060.0</ele><time>2026-03-29T10:07:53.999Z</time></trkpt><trkpt lat="41.98786879177039" lon="13.07011671721046"><ele>1060.0</ele><time>2026-03-29T10:07:54.999Z</time></trkpt><trkpt lat="41.987970902003724" lon="13.070036124859097"><ele>1060.0</ele><time>2026-03-29T10:07:55.999Z</time></trkpt><trkpt lat="41.98807552199388" lon="13.069976031941922"><ele>1060.0</ele><time>2026-03-29T10:07:56.999Z</time></trkpt><trkpt lat="41.98818488197461" lon="13.069924374957457"><ele>1060.0</ele><time>2026-03-29T10:07:57.999Z</time></trkpt><trkpt lat="41.98828228567518" lon="13.069909174616507"><ele>1060.0</ele><time>2026-03-29T10:07:58.999Z</time></trkpt><trkpt lat="41.98837026738016" lon="13.069891347507363"><ele>1055.0</ele><time>2026-03-29T10:07:59.999Z</time></trkpt><trkpt lat="41.98846099207752" lon="13.069893841918152"><ele>1050.0</ele><time>2026-03-29T10:08:00.999Z</time></trkpt><trkpt lat="41.988541919666666" lon="13.06997509416893"><ele>1045.0</ele><time>2026-03-29T10:08:01.999Z</time></trkpt><trkpt lat="41.98859346209123" lon="13.070124633921257"><ele>1040.0</ele><time>2026-03-29T10:08:02.999Z</time></trkpt><trkpt lat="41.98864234507343" lon="13.070252185410022"><ele>1035.0</ele><time>2026-03-29T10:08:03.999Z</time></trkpt><trkpt lat="41.988679610984796" lon="13.0703673190294"><ele>1035.0</ele><time>2026-03-29T10:08:04.999Z</time></trkpt><trkpt lat="41.98869484456229" lon="13.07047974353138"><ele>1035.0</ele><time>2026-03-29T10:08:05.999Z</time></trkpt><trkpt lat="41.98869107599781" lon="13.070601066152143"><ele>1035.0</ele><time>2026-03-29T10:08:06.999Z</time></trkpt><trkpt lat="41.98866853916035" lon="13.070731579824939"><ele>1035.0</ele><time>2026-03-29T10:08:07.999Z</time></trkpt><trkpt lat="41.988656372310324" lon="13.07086821598308"><ele>1035.0</ele><time>2026-03-29T10:08:08.999Z</time></trkpt><trkpt lat="41.9886231271252" lon="13.07100010754103"><ele>1036.0</ele><time>2026-03-29T10:08:09.999Z</time></trkpt><trkpt lat="41.98859512244804" lon="13.07113811981204"><ele>1037.0</ele><time>2026-03-29T10:08:10.999Z</time></trkpt><trkpt lat="41.98857242828105" lon="13.071283928749224"><ele>1038.0</ele><time>2026-03-29T10:08:11.999Z</time></trkpt><trkpt lat="41.98854261038657" lon="13.071434084128303"><ele>1039.0</ele><time>2026-03-29T10:08:12.999Z</time></trkpt><trkpt lat="41.98851567208095" lon="13.071605483018445"><ele>1041.25</ele><time>2026-03-29T10:08:13.999Z</time></trkpt><trkpt lat="41.98847842082615" lon="13.071779489566582"><ele>1043.5</ele><time>2026-03-29T10:08:14.999Z</time></trkpt><trkpt lat="41.988404746499256" lon="13.071941267442398"><ele>1045.75</ele><time>2026-03-29T10:08:15.999Z</time></trkpt><trkpt lat="41.98832056910361" lon="13.072100978731447"><ele>1048.0</ele><time>2026-03-29T10:08:16.999Z</time></trkpt><trkpt lat="41.988230426076385" lon="13.072255089517723"><ele>1053.4</ele><time>2026-03-29T10:08:18.001Z</time></trkpt><trkpt lat="41.988147670895344" lon="13.072361761162766"><ele>1058.8</ele><time>2026-03-29T10:08:19.001Z</time></trkpt><trkpt lat="41.988083023691615" lon="13.072468214292552"><ele>1064.2</ele><time>2026-03-29T10:08:20.001Z</time></trkpt><trkpt lat="41.98801942093903" lon="13.07255427413565"><ele>1069.6</ele><time>2026-03-29T10:08:21.001Z</time></trkpt><trkpt lat="41.98798074439775" lon="13.072641322237246"><ele>1075.0</ele><time>2026-03-29T10:08:22.001Z</time></trkpt><trkpt lat="41.98796538328762" lon="13.07273594171995"><ele>1075.0</ele><time>2026-03-29T10:08:23.001Z</time></trkpt><trkpt lat="41.98801967304298" lon="13.072853511069424"><ele>1075.0</ele><time>2026-03-29T10:08:24.001Z</time></trkpt><trkpt lat="41.988116742693656" lon="13.072930684024156"><ele>1075.0</ele><time>2026-03-29T10:08:25.001Z</time></trkpt><trkpt lat="41.988172819859905" lon="13.073014957090056"><ele>1075.0</ele><time>2026-03-29T10:08:26.001Z</time></trkpt><trkpt lat="41.98817363095529" lon="13.073138745122634"><ele>1075.0</ele><time>2026-03-29T10:08:27.001Z</time></trkpt><trkpt lat="41.9881496774083" lon="13.073265214293155"><ele>1076.0</ele><time>2026-03-29T10:08:28.001Z</time></trkpt><trkpt lat="41.9881597420424" lon="13.073427965740951"><ele>1077.0</ele><time>2026-03-29T10:08:29Z</time></trkpt><trkpt lat="41.98816301947423" lon="13.073551252052965"><ele>1078.0</ele><time>2026-03-29T10:08:30.001Z</time></trkpt><trkpt lat="41.988198506990905" lon="13.073659295097462"><ele>1079.0</ele><time>2026-03-29T10:08:31.001Z</time></trkpt><trkpt lat="41.98826060087441" lon="13.07376290938216"><ele>1080.0</ele><time>2026-03-29T10:08:32Z</time></trkpt><trkpt lat="41.98836065952997" lon="13.073832579639717"><ele>1082.25</ele><time>2026-03-29T10:08:33Z</time></trkpt><trkpt lat="41.98848189000135" lon="13.073877193173214"><ele>1084.5</ele><time>2026-03-29T10:08:34Z</time></trkpt><trkpt lat="41.98860940952622" lon="13.073883650931752"><ele>1086.75</ele><time>2026-03-29T10:08:35Z</time></trkpt><trkpt lat="41.98873693057164" lon="13.073838948793465"><ele>1089.0</ele><time>2026-03-29T10:08:36Z</time></trkpt><trkpt lat="41.988863103098254" lon="13.073737562484471"><ele>1089.0</ele><time>2026-03-29T10:08:37Z</time></trkpt><trkpt lat="41.98899335070201" lon="13.073630622271658"><ele>1089.0</ele><time>2026-03-29T10:08:38Z</time></trkpt><trkpt lat="41.98912236544516" lon="13.073538694277408"><ele>1089.0</ele><time>2026-03-29T10:08:39Z</time></trkpt><trkpt lat="41.98924579121737" lon="13.073457719620547"><ele>1089.0</ele><time>2026-03-29T10:08:40Z</time></trkpt><trkpt lat="41.98937000235831" lon="13.073380269069483"><ele>1089.5</ele><time>2026-03-29T10:08:41Z</time></trkpt><trkpt lat="41.98949097421829" lon="13.07328334856653"><ele>1090.0</ele><time>2026-03-29T10:08:42Z</time></trkpt><trkpt lat="41.98961894771192" lon="13.073168663045353"><ele>1090.5</ele><time>2026-03-29T10:08:43Z</time></trkpt><trkpt lat="41.98972241331151" lon="13.073047497525469"><ele>1091.0</ele><time>2026-03-29T10:08:44Z</time></trkpt><trkpt lat="41.98981180955929" lon="13.072923965291235"><ele>1091.0</ele><time>2026-03-29T10:08:45Z</time></trkpt><trkpt lat="41.98988237504762" lon="13.072826237089425"><ele>1091.0</ele><time>2026-03-29T10:08:46Z</time></trkpt><trkpt lat="41.989925357220045" lon="13.072758898716602"><ele>1091.0</ele><time>2026-03-29T10:08:47Z</time></trkpt><trkpt lat="41.989993946787216" lon="13.072729395771544"><ele>1091.0</ele><time>2026-03-29T10:08:49Z</time></trkpt><trkpt lat="41.990008091983576" lon="13.07292193066311"><ele>1091.0</ele><time>2026-03-29T10:08:52Z</time></trkpt><trkpt lat="41.98990981072038" lon="13.072957818982097"><ele>1091.0</ele><time>2026-03-29T10:08:53Z</time></trkpt><trkpt lat="41.9898253248937" lon="13.073060325564848"><ele>1091.0</ele><time>2026-03-29T10:08:54Z</time></trkpt><trkpt lat="41.98975555946672" lon="13.07319658660876"><ele>1091.0</ele><time>2026-03-29T10:08:55Z</time></trkpt><trkpt lat="41.989670844715405" lon="13.073326830584405"><ele>1091.0</ele><time>2026-03-29T10:08:56Z</time></trkpt><trkpt lat="41.98958788738622" lon="13.07344814571676"><ele>1098.0</ele><time>2026-03-29T10:08:57Z</time></trkpt><trkpt lat="41.98949639909751" lon="13.073569117098874"><ele>1105.0</ele><time>2026-03-29T10:08:58Z</time></trkpt><trkpt lat="41.9893906031692" lon="13.073687069648516"><ele>1112.0</ele><time>2026-03-29T10:08:59Z</time></trkpt><trkpt lat="41.989271313035196" lon="13.073786190816405"><ele>1119.0</ele><time>2026-03-29T10:09:00Z</time></trkpt><trkpt lat="41.98917790021622" lon="13.07391803887248"><ele>1119.2</ele><time>2026-03-29T10:09:01Z</time></trkpt><trkpt lat="41.98908708108601" lon="13.07401420703709"><ele>1119.4</ele><time>2026-03-29T10:09:02Z</time></trkpt><trkpt lat="41.98901530807884" lon="13.07411168945948"><ele>1119.6</ele><time>2026-03-29T10:09:03Z</time></trkpt><trkpt lat="41.988941095632846" lon="13.074203210435527"><ele>1119.8</ele><time>2026-03-29T10:09:04Z</time></trkpt><trkpt lat="41.98888064209853" lon="13.074300974105302"><ele>1120.0</ele><time>2026-03-29T10:09:05Z</time></trkpt><trkpt lat="41.988803881670826" lon="13.074366958982468"><ele>1120.0</ele><time>2026-03-29T10:09:06Z</time></trkpt><trkpt lat="41.988713635112504" lon="13.074395823913582"><ele>1120.0</ele><time>2026-03-29T10:09:07Z</time></trkpt><trkpt lat="41.988627953432896" lon="13.074414214731576"><ele>1120.0</ele><time>2026-03-29T10:09:08Z</time></trkpt><trkpt lat="41.988528957905125" lon="13.07445084234444"><ele>1120.0</ele><time>2026-03-29T10:09:09Z</time></trkpt><trkpt lat="41.988421641867696" lon="13.074472432012067"><ele>1120.0</ele><time>2026-03-29T10:09:10Z</time></trkpt><trkpt lat="41.98832524083648" lon="13.074540905402957"><ele>1115.25</ele><time>2026-03-29T10:09:11Z</time></trkpt><trkpt lat="41.988215689546855" lon="13.074588190154193"><ele>1110.5</ele><time>2026-03-29T10:09:12Z</time></trkpt><trkpt lat="41.98810567334756" lon="13.074634563124626"><ele>1105.75</ele><time>2026-03-29T10:09:13Z</time></trkpt><trkpt lat="41.987989459209835" lon="13.074663513082596"><ele>1101.0</ele><time>2026-03-29T10:09:14Z</time></trkpt><trkpt lat="41.987868306291155" lon="13.074625386300193"><ele>1101.0</ele><time>2026-03-29T10:09:15Z</time></trkpt><trkpt lat="41.987742243739255" lon="13.074583275903171"><ele>1101.0</ele><time>2026-03-29T10:09:16Z</time></trkpt><trkpt lat="41.98760602755644" lon="13.074562601671564"><ele>1101.0</ele><time>2026-03-29T10:09:17Z</time></trkpt><trkpt lat="41.98747442478959" lon="13.074521614135678"><ele>1101.0</ele><time>2026-03-29T10:09:18Z</time></trkpt><trkpt lat="41.987348144981524" lon="13.074492237475754"><ele>1103.2</ele><time>2026-03-29T10:09:19Z</time></trkpt><trkpt lat="41.987233410940945" lon="13.074474948649748"><ele>1105.3999999999999</ele><time>2026-03-29T10:09:20Z</time></trkpt><trkpt lat="41.98713306371605" lon="13.074456540582707"><ele>1107.6</ele><time>2026-03-29T10:09:21Z</time></trkpt><trkpt lat="41.98703895143044" lon="13.074428860616433"><ele>1109.8</ele><time>2026-03-29T10:09:22Z</time></trkpt><trkpt lat="41.98694198405647" lon="13.074372677056921"><ele>1112.0</ele><time>2026-03-29T10:09:23Z</time></trkpt><trkpt lat="41.98684699992181" lon="13.074301306572211"><ele>1112.0</ele><time>2026-03-29T10:09:24Z</time></trkpt><trkpt lat="41.986745831521795" lon="13.07423321354432"><ele>1112.0</ele><time>2026-03-29T10:09:25Z</time></trkpt><trkpt lat="41.986642071212145" lon="13.074174501311875"><ele>1112.0</ele><time>2026-03-29T10:09:26Z</time></trkpt><trkpt lat="41.98653451235969" lon="13.074135704950303"><ele>1112.0</ele><time>2026-03-29T10:09:27Z</time></trkpt><trkpt lat="41.98643760414733" lon="13.074098239292779"><ele>1112.0</ele><time>2026-03-29T10:09:28Z</time></trkpt><trkpt lat="41.98636873668653" lon="13.074046714602328"><ele>1115.4</ele><time>2026-03-29T10:09:29Z</time></trkpt><trkpt lat="41.986299735840284" lon="13.073994403918219"><ele>1118.8000000000002</ele><time>2026-03-29T10:09:30Z</time></trkpt><trkpt lat="41.986211430461104" lon="13.073977511276183"><ele>1122.2</ele><time>2026-03-29T10:09:32Z</time></trkpt><trkpt lat="41.98610759328135" lon="13.07401964265599"><ele>1125.6000000000001</ele><time>2026-03-29T10:09:33.999Z</time></trkpt><trkpt lat="41.98610542645553" lon="13.074150543428718"><ele>1129.0</ele><time>2026-03-29T10:09:34.999Z</time></trkpt><trkpt lat="41.98614781603021" lon="13.074253668753554"><ele>1129.8</ele><time>2026-03-29T10:09:35.999Z</time></trkpt><trkpt lat="41.986261565408306" lon="13.07427846617606"><ele>1130.6000000000001</ele><time>2026-03-29T10:09:36.999Z</time></trkpt><trkpt lat="41.986360897447774" lon="13.074306668291952"><ele>1131.4</ele><time>2026-03-29T10:09:37.999Z</time></trkpt><trkpt lat="41.98644077112398" lon="13.074330490302653"><ele>1132.2</ele><time>2026-03-29T10:09:38.999Z</time></trkpt><trkpt lat="41.98650816073064" lon="13.074354665845277"><ele>1133.0</ele><time>2026-03-29T10:09:39.999Z</time></trkpt><trkpt lat="41.986588796179376" lon="13.074388366981061"><ele>1127.75</ele><time>2026-03-29T10:09:40.999Z</time></trkpt><trkpt lat="41.98669158264591" lon="13.074449574160779"><ele>1122.5</ele><time>2026-03-29T10:09:41.999Z</time></trkpt><trkpt lat="41.986778725273055" lon="13.07454137212598"><ele>1117.25</ele><time>2026-03-29T10:09:42.999Z</time></trkpt><trkpt lat="41.986894626920154" lon="13.074667671185054"><ele>1112.0</ele><time>2026-03-29T10:09:43.999Z</time></trkpt><trkpt lat="41.98703305250842" lon="13.074750401039282"><ele>1112.0</ele><time>2026-03-29T10:09:44.999Z</time></trkpt><trkpt lat="41.9871781221199" lon="13.074842984916787"><ele>1112.0</ele><time>2026-03-29T10:09:45.999Z</time></trkpt><trkpt lat="41.987329904207186" lon="13.07492666692018"><ele>1112.0</ele><time>2026-03-29T10:09:46.999Z</time></trkpt><trkpt lat="41.98747996882157" lon="13.07501658738813"><ele>1118.75</ele><time>2026-03-29T10:09:47.999Z</time></trkpt><trkpt lat="41.98761601518302" lon="13.075094892416107"><ele>1125.5</ele><time>2026-03-29T10:09:48.999Z</time></trkpt><trkpt lat="41.987747282280495" lon="13.075165731400432"><ele>1132.25</ele><time>2026-03-29T10:09:49.999Z</time></trkpt><trkpt lat="41.98787610163368" lon="13.07522740514954"><ele>1139.0</ele><time>2026-03-29T10:09:50.999Z</time></trkpt><trkpt lat="41.98799769652593" lon="13.07527956878629"><ele>1139.0</ele><time>2026-03-29T10:09:51.999Z</time></trkpt><trkpt lat="41.9881179221268" lon="13.07532028876295"><ele>1139.0</ele><time>2026-03-29T10:09:52.999Z</time></trkpt><trkpt lat="41.9882352704308" lon="13.075353636992169"><ele>1139.0</ele><time>2026-03-29T10:09:53.999Z</time></trkpt><trkpt lat="41.98835914454063" lon="13.075361595967209"><ele>1139.0</ele><time>2026-03-29T10:09:54.999Z</time></trkpt><trkpt lat="41.98849636131516" lon="13.075344960417679"><ele>1141.5</ele><time>2026-03-29T10:09:55.999Z</time></trkpt><trkpt lat="41.98862457388335" lon="13.075314757234604"><ele>1144.0</ele><time>2026-03-29T10:09:56.999Z</time></trkpt><trkpt lat="41.98873980779224" lon="13.075329025957084"><ele>1146.5</ele><time>2026-03-29T10:09:57.999Z</time></trkpt><trkpt lat="41.98884565760458" lon="13.075371094224462"><ele>1149.0</ele><time>2026-03-29T10:09:58.999Z</time></trkpt><trkpt lat="41.98893537415288" lon="13.07545738081833"><ele>1149.0</ele><time>2026-03-29T10:09:59.999Z</time></trkpt><trkpt lat="41.98900766193326" lon="13.075568583362548"><ele>1149.0</ele><time>2026-03-29T10:10:00.999Z</time></trkpt><trkpt lat="41.98905209303755" lon="13.0756869333204"><ele>1149.0</ele><time>2026-03-29T10:10:01.999Z</time></trkpt><trkpt lat="41.98909940142756" lon="13.0757632544951"><ele>1149.0</ele><time>2026-03-29T10:10:02.999Z</time></trkpt><trkpt lat="41.989172389677876" lon="13.075790763645003"><ele>1149.0</ele><time>2026-03-29T10:10:03.999Z</time></trkpt><trkpt lat="41.98926216068965" lon="13.07576467575286"><ele>1154.25</ele><time>2026-03-29T10:10:04.999Z</time></trkpt><trkpt lat="41.98936142328548" lon="13.075647251378202"><ele>1159.5</ele><time>2026-03-29T10:10:05.999Z</time></trkpt><trkpt lat="41.98944651063667" lon="13.07552383165268"><ele>1164.75</ele><time>2026-03-29T10:10:06.999Z</time></trkpt><trkpt lat="41.98952142629548" lon="13.075377228073075"><ele>1170.0</ele><time>2026-03-29T10:10:07.999Z</time></trkpt><trkpt lat="41.989591615156016" lon="13.075241200221333"><ele>1170.0</ele><time>2026-03-29T10:10:08.999Z</time></trkpt><trkpt lat="41.989656081166515" lon="13.075146616857312"><ele>1170.0</ele><time>2026-03-29T10:10:09.999Z</time></trkpt><trkpt lat="41.98972477417848" lon="13.07506842962986"><ele>1170.0</ele><time>2026-03-29T10:10:10.999Z</time></trkpt><trkpt lat="41.98980744290737" lon="13.075016508512617"><ele>1170.0</ele><time>2026-03-29T10:10:11.999Z</time></trkpt><trkpt lat="41.98990236845606" lon="13.075011245022742"><ele>1170.0</ele><time>2026-03-29T10:10:12.999Z</time></trkpt><trkpt lat="41.98998902311716" lon="13.075066802332762"><ele>1168.4</ele><time>2026-03-29T10:10:13.999Z</time></trkpt><trkpt lat="41.99007930465237" lon="13.075087339891533"><ele>1166.8</ele><time>2026-03-29T10:10:14.999Z</time></trkpt><trkpt lat="41.99016624503123" lon="13.075096772009237"><ele>1165.2</ele><time>2026-03-29T10:10:15.999Z</time></trkpt><trkpt lat="41.99026203036646" lon="13.075074903795741"><ele>1163.6</ele><time>2026-03-29T10:10:16.999Z</time></trkpt><trkpt lat="41.990346180690466" lon="13.075016902778724"><ele>1162.0</ele><time>2026-03-29T10:10:17.999Z</time></trkpt><trkpt lat="41.99041277685565" lon="13.074928886743741"><ele>1162.0</ele><time>2026-03-29T10:10:18.999Z</time></trkpt><trkpt lat="41.99047475206469" lon="13.074843713110184"><ele>1162.0</ele><time>2026-03-29T10:10:19.999Z</time></trkpt><trkpt lat="41.99052880813911" lon="13.07477631614374"><ele>1162.0</ele><time>2026-03-29T10:10:20.999Z</time></trkpt><trkpt lat="41.99060323827006" lon="13.074725613613525"><ele>1162.0</ele><time>2026-03-29T10:10:22.999Z</time></trkpt><trkpt lat="41.99071541060384" lon="13.074720942042442"><ele>1162.0</ele><time>2026-03-29T10:10:26.001Z</time></trkpt><trkpt lat="41.990788236515066" lon="13.074772466035848"><ele>1162.0</ele><time>2026-03-29T10:10:27.001Z</time></trkpt><trkpt lat="41.99082892016811" lon="13.074864056984257"><ele>1165.0</ele><time>2026-03-29T10:10:28.001Z</time></trkpt><trkpt lat="41.990827730251404" lon="13.074968386654097"><ele>1168.0</ele><time>2026-03-29T10:10:29Z</time></trkpt><trkpt lat="41.99079233499909" lon="13.07505849169593"><ele>1171.0</ele><time>2026-03-29T10:10:30.001Z</time></trkpt><trkpt lat="41.990732459109594" lon="13.075133758229942"><ele>1174.0</ele><time>2026-03-29T10:10:31.001Z</time></trkpt><trkpt lat="41.990654039603335" lon="13.075199110947377"><ele>1177.0</ele><time>2026-03-29T10:10:32Z</time></trkpt><trkpt lat="41.99054584717468" lon="13.075227165597685"><ele>1180.0</ele><time>2026-03-29T10:10:33Z</time></trkpt><trkpt lat="41.990432845412954" lon="13.07528929666425"><ele>1180.0</ele><time>2026-03-29T10:10:34.001Z</time></trkpt><trkpt lat="41.99031388197214" lon="13.075379555016708"><ele>1180.0</ele><time>2026-03-29T10:10:35Z</time></trkpt><trkpt lat="41.99018312051563" lon="13.075444928099998"><ele>1180.0</ele><time>2026-03-29T10:10:36Z</time></trkpt><trkpt lat="41.99007014307814" lon="13.075494124237522"><ele>1180.0</ele><time>2026-03-29T10:10:37Z</time></trkpt><trkpt lat="41.989963794748334" lon="13.075569019239818"><ele>1181.25</ele><time>2026-03-29T10:10:38Z</time></trkpt><trkpt lat="41.98986543164806" lon="13.075685556452779"><ele>1182.5</ele><time>2026-03-29T10:10:39Z</time></trkpt><trkpt lat="41.98978294560277" lon="13.075824496090586"><ele>1183.75</ele><time>2026-03-29T10:10:40Z</time></trkpt><trkpt lat="41.989716934739306" lon="13.075962570629201"><ele>1185.0</ele><time>2026-03-29T10:10:41Z</time></trkpt><trkpt lat="41.989621276896294" lon="13.07606324177818"><ele>1185.0</ele><time>2026-03-29T10:10:42Z</time></trkpt><trkpt lat="41.98950102560787" lon="13.07611484086467"><ele>1185.0</ele><time>2026-03-29T10:10:43Z</time></trkpt><trkpt lat="41.98937453639945" lon="13.076198581624778"><ele>1185.0</ele><time>2026-03-29T10:10:44Z</time></trkpt><trkpt lat="41.98924237241225" lon="13.076295004090447"><ele>1185.0</ele><time>2026-03-29T10:10:45Z</time></trkpt><trkpt lat="41.98911951167999" lon="13.076429396419737"><ele>1188.3333333333333</ele><time>2026-03-29T10:10:46Z</time></trkpt><trkpt lat="41.988994415505665" lon="13.0765799762751"><ele>1191.6666666666665</ele><time>2026-03-29T10:10:47Z</time></trkpt><trkpt lat="41.98886319722767" lon="13.076713640575706"><ele>1195.0</ele><time>2026-03-29T10:10:48Z</time></trkpt><trkpt lat="41.98872259403995" lon="13.076803544765554"><ele>1195.0</ele><time>2026-03-29T10:10:49Z</time></trkpt><trkpt lat="41.98860027269073" lon="13.076911034094117"><ele>1195.0</ele><time>2026-03-29T10:10:50Z</time></trkpt><trkpt lat="41.9884781299442" lon="13.077028985179886"><ele>1195.0</ele><time>2026-03-29T10:10:51Z</time></trkpt><trkpt lat="41.988376892283476" lon="13.077183146024819"><ele>1195.0</ele><time>2026-03-29T10:10:52Z</time></trkpt><trkpt lat="41.98827214770923" lon="13.0773110467475"><ele>1195.5</ele><time>2026-03-29T10:10:53Z</time></trkpt><trkpt lat="41.98814618298197" lon="13.077416093493232"><ele>1196.0</ele><time>2026-03-29T10:10:54Z</time></trkpt><trkpt lat="41.98802371057661" lon="13.077496255832939"><ele>1196.5</ele><time>2026-03-29T10:10:55Z</time></trkpt><trkpt lat="41.98790971040885" lon="13.077552946921278"><ele>1197.0</ele><time>2026-03-29T10:10:56Z</time></trkpt><trkpt lat="41.98781107259536" lon="13.077604923911384"><ele>1198.6</ele><time>2026-03-29T10:10:57Z</time></trkpt><trkpt lat="41.987713175790766" lon="13.077657514816533"><ele>1200.2</ele><time>2026-03-29T10:10:58Z</time></trkpt><trkpt lat="41.98762207914364" lon="13.077723906827757"><ele>1201.8</ele><time>2026-03-29T10:10:59Z</time></trkpt><trkpt lat="41.98752984120396" lon="13.077799395031692"><ele>1203.4</ele><time>2026-03-29T10:11:00Z</time></trkpt><trkpt lat="41.98744148970386" lon="13.077904014093544"><ele>1205.0</ele><time>2026-03-29T10:11:01Z</time></trkpt><trkpt lat="41.98733791053321" lon="13.078000897215416"><ele>1205.25</ele><time>2026-03-29T10:11:02Z</time></trkpt><trkpt lat="41.98725644983372" lon="13.078128479008555"><ele>1205.5</ele><time>2026-03-29T10:11:03Z</time></trkpt><trkpt lat="41.9871604980983" lon="13.078230690450138"><ele>1205.75</ele><time>2026-03-29T10:11:04Z</time></trkpt><trkpt lat="41.987047039461004" lon="13.07830081795039"><ele>1206.0</ele><time>2026-03-29T10:11:05Z</time></trkpt><trkpt lat="41.98693374237173" lon="13.078368889134744"><ele>1207.0</ele><time>2026-03-29T10:11:06Z</time></trkpt><trkpt lat="41.98683363199335" lon="13.078461355553772"><ele>1208.0</ele><time>2026-03-29T10:11:07Z</time></trkpt><trkpt lat="41.986737244036924" lon="13.078551423978263"><ele>1209.0</ele><time>2026-03-29T10:11:08Z</time></trkpt><trkpt lat="41.98666135453682" lon="13.078677794394395"><ele>1210.0</ele><time>2026-03-29T10:11:09Z</time></trkpt><trkpt lat="41.98659366884797" lon="13.078827158340806"><ele>1210.0</ele><time>2026-03-29T10:11:10Z</time></trkpt><trkpt lat="41.9865024398808" lon="13.078951547549543"><ele>1210.0</ele><time>2026-03-29T10:11:11Z</time></trkpt><trkpt lat="41.98640702599801" lon="13.079069239172675"><ele>1210.0</ele><time>2026-03-29T10:11:12Z</time></trkpt><trkpt lat="41.98630668783333" lon="13.079192381700498"><ele>1210.0</ele><time>2026-03-29T10:11:13Z</time></trkpt><trkpt lat="41.98620158376265" lon="13.079306683023152"><ele>1213.75</ele><time>2026-03-29T10:11:14Z</time></trkpt><trkpt lat="41.98610311045016" lon="13.079419897875598"><ele>1217.5</ele><time>2026-03-29T10:11:15Z</time></trkpt><trkpt lat="41.98601781992445" lon="13.079544438026181"><ele>1221.25</ele><time>2026-03-29T10:11:16Z</time></trkpt><trkpt lat="41.9859304813994" lon="13.079619988102769"><ele>1225.0</ele><time>2026-03-29T10:11:17Z</time></trkpt><trkpt lat="41.98586677123494" lon="13.079709539659321"><ele>1225.7142857142858</ele><time>2026-03-29T10:11:18Z</time></trkpt><trkpt lat="41.98581363168997" lon="13.079793701747228"><ele>1226.4285714285716</ele><time>2026-03-29T10:11:19Z</time></trkpt><trkpt lat="41.985770647891485" lon="13.079869035233738"><ele>1227.142857142857</ele><time>2026-03-29T10:11:20Z</time></trkpt><trkpt lat="41.9857087813231" lon="13.079889348316236"><ele>1227.857142857143</ele><time>2026-03-29T10:11:21Z</time></trkpt><trkpt lat="41.985647069033696" lon="13.079855100907176"><ele>1228.5714285714287</ele><time>2026-03-29T10:11:22Z</time></trkpt><trkpt lat="41.98560081777682" lon="13.079783629787233"><ele>1229.2857142857142</ele><time>2026-03-29T10:11:23Z</time></trkpt><trkpt lat="41.98558956158634" lon="13.079683921803996"><ele>1230.0</ele><time>2026-03-29T10:11:24Z</time></trkpt><trkpt lat="41.9856358418983" lon="13.079562454496374"><ele>1230.0</ele><time>2026-03-29T10:11:25Z</time></trkpt><trkpt lat="41.98566374004898" lon="13.079398218743268"><ele>1230.0</ele><time>2026-03-29T10:11:26Z</time></trkpt><trkpt lat="41.98565909856827" lon="13.079215040063351"><ele>1230.0</ele><time>2026-03-29T10:11:27Z</time></trkpt><trkpt lat="41.98565502841485" lon="13.079031931905828"><ele>1230.0</ele><time>2026-03-29T10:11:28Z</time></trkpt><trkpt lat="41.985648965175116" lon="13.078838967643579"><ele>1229.75</ele><time>2026-03-29T10:11:29Z</time></trkpt><trkpt lat="41.98568119683904" lon="13.078657811996035"><ele>1229.5</ele><time>2026-03-29T10:11:30Z</time></trkpt><trkpt lat="41.98577503220961" lon="13.078530818774084"><ele>1229.25</ele><time>2026-03-29T10:11:31Z</time></trkpt><trkpt lat="41.985817327941014" lon="13.078394397408156"><ele>1229.0</ele><time>2026-03-29T10:11:32Z</time></trkpt><trkpt lat="41.985856924492346" lon="13.078261281054344"><ele>1229.75</ele><time>2026-03-29T10:11:32.999Z</time></trkpt><trkpt lat="41.985861396512654" lon="13.078109986307513"><ele>1230.5</ele><time>2026-03-29T10:11:33.999Z</time></trkpt><trkpt lat="41.98582118184022" lon="13.07796504238532"><ele>1231.25</ele><time>2026-03-29T10:11:34.999Z</time></trkpt><trkpt lat="41.98576362943686" lon="13.077823433012318"><ele>1232.0</ele><time>2026-03-29T10:11:35.999Z</time></trkpt><trkpt lat="41.9857318993959" lon="13.077660340301323"><ele>1232.0</ele><time>2026-03-29T10:11:36.999Z</time></trkpt><trkpt lat="41.98568829757084" lon="13.077499127169594"><ele>1232.0</ele><time>2026-03-29T10:11:37.999Z</time></trkpt><trkpt lat="41.985670398216556" lon="13.077323879088677"><ele>1232.0</ele><time>2026-03-29T10:11:38.999Z</time></trkpt><trkpt lat="41.98565438216194" lon="13.07714126164246"><ele>1232.0</ele><time>2026-03-29T10:11:39.999Z</time></trkpt><trkpt lat="41.985638701934306" lon="13.076961403181775"><ele>1232.0</ele><time>2026-03-29T10:11:40.999Z</time></trkpt><trkpt lat="41.9856233571962" lon="13.076796384747198"><ele>1232.0</ele><time>2026-03-29T10:11:41.999Z</time></trkpt><trkpt lat="41.98559489140953" lon="13.076657256437903"><ele>1232.0</ele><time>2026-03-29T10:11:42.999Z</time></trkpt><trkpt lat="41.98553961007376" lon="13.07652180202615"><ele>1232.0</ele><time>2026-03-29T10:11:43.999Z</time></trkpt><trkpt lat="41.98546277269677" lon="13.076422422782198"><ele>1232.0</ele><time>2026-03-29T10:11:44.999Z</time></trkpt><trkpt lat="41.985400682466064" lon="13.076355909875751"><ele>1232.0</ele><time>2026-03-29T10:11:45.999Z</time></trkpt><trkpt lat="41.985289250690336" lon="13.076353942500106"><ele>1232.0</ele><time>2026-03-29T10:11:47.999Z</time></trkpt><trkpt lat="41.985253467520664" lon="13.076433823547502"><ele>1232.0</ele><time>2026-03-29T10:11:48.999Z</time></trkpt><trkpt lat="41.98531735214568" lon="13.076636370380736"><ele>1232.0</ele><time>2026-03-29T10:11:50.999Z</time></trkpt><trkpt lat="41.98537937118968" lon="13.076756750747169"><ele>1232.0</ele><time>2026-03-29T10:11:51.999Z</time></trkpt><trkpt lat="41.98543382287976" lon="13.076875760544091"><ele>1232.0</ele><time>2026-03-29T10:11:52.999Z</time></trkpt><trkpt lat="41.98545272304671" lon="13.077023403432072"><ele>1232.0</ele><time>2026-03-29T10:11:53.999Z</time></trkpt><trkpt lat="41.985449477800394" lon="13.077192717094318"><ele>1232.0</ele><time>2026-03-29T10:11:54.999Z</time></trkpt><trkpt lat="41.98543653897846" lon="13.077371128387234"><ele>1232.0</ele><time>2026-03-29T10:11:55.999Z</time></trkpt><trkpt lat="41.985418991047226" lon="13.077541556017696"><ele>1232.0</ele><time>2026-03-29T10:11:56.999Z</time></trkpt><trkpt lat="41.98540858912753" lon="13.077688085678753"><ele>1232.0</ele><time>2026-03-29T10:11:57.999Z</time></trkpt><trkpt lat="41.98539559553335" lon="13.077809071532235"><ele>1232.0</ele><time>2026-03-29T10:11:58.999Z</time></trkpt><trkpt lat="41.98536963156395" lon="13.077923554843998"><ele>1232.0</ele><time>2026-03-29T10:11:59.999Z</time></trkpt><trkpt lat="41.98533796783234" lon="13.078020635365998"><ele>1232.0</ele><time>2026-03-29T10:12:00.999Z</time></trkpt><trkpt lat="41.98527885404816" lon="13.078118345943682"><ele>1232.0</ele><time>2026-03-29T10:12:01.999Z</time></trkpt><trkpt lat="41.98519451982276" lon="13.078154226477908"><ele>1232.0</ele><time>2026-03-29T10:12:02.999Z</time></trkpt><trkpt lat="41.985121175492296" lon="13.0782295899591"><ele>1232.0</ele><time>2026-03-29T10:12:03.999Z</time></trkpt><trkpt lat="41.98504737874182" lon="13.078315643695442"><ele>1232.0</ele><time>2026-03-29T10:12:04.999Z</time></trkpt><trkpt lat="41.98497954213586" lon="13.07839816978035"><ele>1238.8</ele><time>2026-03-29T10:12:05.999Z</time></trkpt><trkpt lat="41.98492713761231" lon="13.078500966787702"><ele>1245.6</ele><time>2026-03-29T10:12:06.999Z</time></trkpt><trkpt lat="41.98489551851385" lon="13.078620127064541"><ele>1252.3999999999999</ele><time>2026-03-29T10:12:07.999Z</time></trkpt><trkpt lat="41.98486688349984" lon="13.078749796941338"><ele>1259.2</ele><time>2026-03-29T10:12:08.999Z</time></trkpt><trkpt lat="41.984882902333695" lon="13.07890033406041"><ele>1266.0</ele><time>2026-03-29T10:12:09.999Z</time></trkpt><trkpt lat="41.98486616379656" lon="13.079035815942873"><ele>1265.0</ele><time>2026-03-29T10:12:10.999Z</time></trkpt><trkpt lat="41.98483251681246" lon="13.07916918238824"><ele>1264.0</ele><time>2026-03-29T10:12:11.999Z</time></trkpt><trkpt lat="41.98479630572163" lon="13.07929926708048"><ele>1263.0</ele><time>2026-03-29T10:12:12.999Z</time></trkpt><trkpt lat="41.984752144755156" lon="13.079440899549343"><ele>1262.0</ele><time>2026-03-29T10:12:13.999Z</time></trkpt><trkpt lat="41.98469607993784" lon="13.07958786213023"><ele>1261.0</ele><time>2026-03-29T10:12:14.999Z</time></trkpt><trkpt lat="41.98463136779142" lon="13.07973489790062"><ele>1261.0</ele><time>2026-03-29T10:12:15.999Z</time></trkpt><trkpt lat="41.98455389152389" lon="13.079905816012094"><ele>1261.0</ele><time>2026-03-29T10:12:16.999Z</time></trkpt><trkpt lat="41.9844456033537" lon="13.080035397359396"><ele>1261.0</ele><time>2026-03-29T10:12:17.999Z</time></trkpt><trkpt lat="41.9843623167536" lon="13.080172601014498"><ele>1261.0</ele><time>2026-03-29T10:12:18.999Z</time></trkpt><trkpt lat="41.984319874231765" lon="13.08033069525445"><ele>1262.5</ele><time>2026-03-29T10:12:19.999Z</time></trkpt><trkpt lat="41.984291338475394" lon="13.080475101538514"><ele>1264.0</ele><time>2026-03-29T10:12:20.999Z</time></trkpt><trkpt lat="41.984255885614246" lon="13.08061578651685"><ele>1265.5</ele><time>2026-03-29T10:12:21.999Z</time></trkpt><trkpt lat="41.98418949845281" lon="13.080750282210367"><ele>1267.0</ele><time>2026-03-29T10:12:22.999Z</time></trkpt><trkpt lat="41.984094935358804" lon="13.080864782864332"><ele>1267.0</ele><time>2026-03-29T10:12:23.999Z</time></trkpt><trkpt lat="41.98400288694349" lon="13.08098389317708"><ele>1267.0</ele><time>2026-03-29T10:12:24.999Z</time></trkpt><trkpt lat="41.98393382518961" lon="13.081118240935544"><ele>1267.0</ele><time>2026-03-29T10:12:25.999Z</time></trkpt><trkpt lat="41.98387382733474" lon="13.081244040424941"><ele>1267.0</ele><time>2026-03-29T10:12:26.999Z</time></trkpt><trkpt lat="41.98389847581417" lon="13.081396415634455"><ele>1267.0</ele><time>2026-03-29T10:12:27.999Z</time></trkpt><trkpt lat="41.98392609524469" lon="13.081542570652518"><ele>1267.0</ele><time>2026-03-29T10:12:29Z</time></trkpt><trkpt lat="41.983921912439435" lon="13.081687172736807"><ele>1267.0</ele><time>2026-03-29T10:12:30Z</time></trkpt><trkpt lat="41.983851842864134" lon="13.081806051654274"><ele>1267.0</ele><time>2026-03-29T10:12:31Z</time></trkpt><trkpt lat="41.983764679347715" lon="13.081909537554598"><ele>1267.0</ele><time>2026-03-29T10:12:32Z</time></trkpt><trkpt lat="41.9836918581633" lon="13.082059076506322"><ele>1265.25</ele><time>2026-03-29T10:12:33Z</time></trkpt><trkpt lat="41.98361828890386" lon="13.082190964926202"><ele>1263.5</ele><time>2026-03-29T10:12:34Z</time></trkpt><trkpt lat="41.983588593814794" lon="13.08233051968983"><ele>1261.75</ele><time>2026-03-29T10:12:35Z</time></trkpt><trkpt lat="41.9836024110838" lon="13.082497403343758"><ele>1260.0</ele><time>2026-03-29T10:12:36Z</time></trkpt><trkpt lat="41.98362745104049" lon="13.082666603133909"><ele>1259.75</ele><time>2026-03-29T10:12:37Z</time></trkpt><trkpt lat="41.98362977812881" lon="13.082844913549696"><ele>1259.5</ele><time>2026-03-29T10:12:38Z</time></trkpt><trkpt lat="41.98356244000563" lon="13.083019007221816"><ele>1259.25</ele><time>2026-03-29T10:12:39Z</time></trkpt><trkpt lat="41.98351704699022" lon="13.083234694871145"><ele>1259.0</ele><time>2026-03-29T10:12:40Z</time></trkpt><trkpt lat="41.98345044481006" lon="13.08343694698925"><ele>1259.5</ele><time>2026-03-29T10:12:41Z</time></trkpt><trkpt lat="41.98339673096423" lon="13.083629332387895"><ele>1260.0</ele><time>2026-03-29T10:12:42Z</time></trkpt><trkpt lat="41.983356489628086" lon="13.083803331924042"><ele>1260.5</ele><time>2026-03-29T10:12:43Z</time></trkpt><trkpt lat="41.98333727225384" lon="13.083969339051068"><ele>1261.0</ele><time>2026-03-29T10:12:44Z</time></trkpt><trkpt lat="41.9833359663941" lon="13.084131845927375"><ele>1267.8</ele><time>2026-03-29T10:12:45Z</time></trkpt><trkpt lat="41.983338818650175" lon="13.084278660510147"><ele>1274.6</ele><time>2026-03-29T10:12:46Z</time></trkpt><trkpt lat="41.983300155129676" lon="13.084386876689262"><ele>1281.4</ele><time>2026-03-29T10:12:47Z</time></trkpt><trkpt lat="41.98323467776445" lon="13.08450312637121"><ele>1288.2</ele><time>2026-03-29T10:12:48Z</time></trkpt><trkpt lat="41.983174870799665" lon="13.084647695080847"><ele>1295.0</ele><time>2026-03-29T10:12:49Z</time></trkpt><trkpt lat="41.98309264629734" lon="13.084774536618307"><ele>1295.0</ele><time>2026-03-29T10:12:50Z</time></trkpt><trkpt lat="41.98302933556368" lon="13.084917888945254"><ele>1295.0</ele><time>2026-03-29T10:12:51Z</time></trkpt><trkpt lat="41.98297609265642" lon="13.085048962597876"><ele>1295.0</ele><time>2026-03-29T10:12:52Z</time></trkpt><trkpt lat="41.98295474844321" lon="13.085198366009488"><ele>1295.0</ele><time>2026-03-29T10:12:53Z</time></trkpt><trkpt lat="41.98300755987116" lon="13.085385551154497"><ele>1294.0</ele><time>2026-03-29T10:12:54Z</time></trkpt><trkpt lat="41.98306000651172" lon="13.085559113160796"><ele>1293.0</ele><time>2026-03-29T10:12:55Z</time></trkpt><trkpt lat="41.98313859007155" lon="13.08570025087047"><ele>1292.0</ele><time>2026-03-29T10:12:56Z</time></trkpt><trkpt lat="41.983195996017926" lon="13.085805031005556"><ele>1291.0</ele><time>2026-03-29T10:12:57Z</time></trkpt><trkpt lat="41.98322187684199" lon="13.085902852715245"><ele>1290.0</ele><time>2026-03-29T10:12:58Z</time></trkpt><trkpt lat="41.983174935445355" lon="13.086004868017755"><ele>1290.0</ele><time>2026-03-29T10:12:59Z</time></trkpt><trkpt lat="41.98311727812988" lon="13.086115862237918"><ele>1290.0</ele><time>2026-03-29T10:13:00Z</time></trkpt><trkpt lat="41.9830789955129" lon="13.086260843308278"><ele>1290.0</ele><time>2026-03-29T10:13:01Z</time></trkpt><trkpt lat="41.983070940053096" lon="13.086420465950427"><ele>1290.0</ele><time>2026-03-29T10:13:02Z</time></trkpt><trkpt lat="41.98310189906632" lon="13.086573768132812"><ele>1290.2</ele><time>2026-03-29T10:13:03Z</time></trkpt><trkpt lat="41.98312585905444" lon="13.086702060898562"><ele>1290.4</ele><time>2026-03-29T10:13:04Z</time></trkpt><trkpt lat="41.98310448562485" lon="13.0868324258679"><ele>1290.6</ele><time>2026-03-29T10:13:05Z</time></trkpt><trkpt lat="41.98302553397796" lon="13.086957504757933"><ele>1290.8</ele><time>2026-03-29T10:13:06Z</time></trkpt><trkpt lat="41.98295492685359" lon="13.0870546770936"><ele>1291.0</ele><time>2026-03-29T10:13:07Z</time></trkpt><trkpt lat="41.982887511902156" lon="13.087100118129987"><ele>1291.0</ele><time>2026-03-29T10:13:08Z</time></trkpt><trkpt lat="41.98281399785428" lon="13.087079281106119"><ele>1291.0</ele><time>2026-03-29T10:13:09Z</time></trkpt><trkpt lat="41.98270950071317" lon="13.087077897248985"><ele>1291.0</ele><time>2026-03-29T10:13:10Z</time></trkpt><trkpt lat="41.98259805394875" lon="13.087023143654275"><ele>1291.0</ele><time>2026-03-29T10:13:11Z</time></trkpt><trkpt lat="41.98247643654862" lon="13.087043104503692"><ele>1291.0</ele><time>2026-03-29T10:13:12Z</time></trkpt><trkpt lat="41.98236805058897" lon="13.087121559999824"><ele>1293.25</ele><time>2026-03-29T10:13:13Z</time></trkpt><trkpt lat="41.98227118525425" lon="13.087210152426053"><ele>1295.5</ele><time>2026-03-29T10:13:14Z</time></trkpt><trkpt lat="41.982199979969074" lon="13.087331405985802"><ele>1297.75</ele><time>2026-03-29T10:13:15Z</time></trkpt><trkpt lat="41.9821192282236" lon="13.087447040234455"><ele>1300.0</ele><time>2026-03-29T10:13:16Z</time></trkpt><trkpt lat="41.98204669479904" lon="13.087582493950254"><ele>1300.0</ele><time>2026-03-29T10:13:17Z</time></trkpt><trkpt lat="41.98197361648664" lon="13.087711150398349"><ele>1300.0</ele><time>2026-03-29T10:13:18Z</time></trkpt><trkpt lat="41.981910723798954" lon="13.087844053637145"><ele>1300.0</ele><time>2026-03-29T10:13:19Z</time></trkpt><trkpt lat="41.98184906810794" lon="13.087972734569671"><ele>1300.0</ele><time>2026-03-29T10:13:20Z</time></trkpt><trkpt lat="41.98179637136793" lon="13.088108826279514"><ele>1300.0</ele><time>2026-03-29T10:13:21Z</time></trkpt><trkpt lat="41.98174892949389" lon="13.088240237256471"><ele>1300.0</ele><time>2026-03-29T10:13:22Z</time></trkpt><trkpt lat="41.98168704825136" lon="13.088339879695413"><ele>1300.0</ele><time>2026-03-29T10:13:23Z</time></trkpt><trkpt lat="41.981639454853514" lon="13.08844521623406"><ele>1300.0</ele><time>2026-03-29T10:13:24Z</time></trkpt><trkpt lat="41.98158447458357" lon="13.088556640237577"><ele>1300.0</ele><time>2026-03-29T10:13:25Z</time></trkpt><trkpt lat="41.981525406054544" lon="13.088672139098867"><ele>1301.2</ele><time>2026-03-29T10:13:26Z</time></trkpt><trkpt lat="41.98146146383349" lon="13.0887968642588"><ele>1302.4</ele><time>2026-03-29T10:13:27Z</time></trkpt><trkpt lat="41.98141061443542" lon="13.088917150596336"><ele>1303.6</ele><time>2026-03-29T10:13:28Z</time></trkpt><trkpt lat="41.98136233299703" lon="13.08901655431831"><ele>1304.8</ele><time>2026-03-29T10:13:29Z</time></trkpt><trkpt lat="41.98131560135519" lon="13.089112201919589"><ele>1306.0</ele><time>2026-03-29T10:13:30Z</time></trkpt><trkpt lat="41.98129640614206" lon="13.089233630205383"><ele>1306.0</ele><time>2026-03-29T10:13:30.999Z</time></trkpt><trkpt lat="41.98132993217052" lon="13.089365384903298"><ele>1306.0</ele><time>2026-03-29T10:13:31.999Z</time></trkpt><trkpt lat="41.98137842461098" lon="13.089481571087132"><ele>1306.0</ele><time>2026-03-29T10:13:32.999Z</time></trkpt><trkpt lat="41.981428005466306" lon="13.089601087737643"><ele>1306.0</ele><time>2026-03-29T10:13:33.999Z</time></trkpt><trkpt lat="41.98147355331158" lon="13.089705792508775"><ele>1306.0</ele><time>2026-03-29T10:13:34.999Z</time></trkpt><trkpt lat="41.98149714314753" lon="13.089797406513972"><ele>1306.0</ele><time>2026-03-29T10:13:35.999Z</time></trkpt><trkpt lat="41.98149554959314" lon="13.089895235335927"><ele>1306.0</ele><time>2026-03-29T10:13:36.999Z</time></trkpt><trkpt lat="41.98147148903997" lon="13.089981920001218"><ele>1306.0</ele><time>2026-03-29T10:13:37.999Z</time></trkpt><trkpt lat="41.9814399623388" lon="13.090059613567044"><ele>1306.0</ele><time>2026-03-29T10:13:38.999Z</time></trkpt><trkpt lat="41.98140027261982" lon="13.090132650353514"><ele>1306.0</ele><time>2026-03-29T10:13:39.999Z</time></trkpt><trkpt lat="41.981326384549796" lon="13.090191708181976"><ele>1306.0</ele><time>2026-03-29T10:13:40.999Z</time></trkpt><trkpt lat="41.98122922608026" lon="13.090211421751455"><ele>1305.5</ele><time>2026-03-29T10:13:41.999Z</time></trkpt><trkpt lat="41.981123126138264" lon="13.090257089050525"><ele>1305.0</ele><time>2026-03-29T10:13:42.999Z</time></trkpt><trkpt lat="41.981009673341816" lon="13.090280089102116"><ele>1304.5</ele><time>2026-03-29T10:13:43.999Z</time></trkpt><trkpt lat="41.98089208772024" lon="13.090316996508875"><ele>1304.0</ele><time>2026-03-29T10:13:44.999Z</time></trkpt><trkpt lat="41.98077977071821" lon="13.090366667183115"><ele>1308.4</ele><time>2026-03-29T10:13:45.999Z</time></trkpt><trkpt lat="41.98065811557147" lon="13.090399556836452"><ele>1312.8000000000002</ele><time>2026-03-29T10:13:46.999Z</time></trkpt><trkpt lat="41.98054549482279" lon="13.09044261618009"><ele>1317.1999999999998</ele><time>2026-03-29T10:13:47.999Z</time></trkpt><trkpt lat="41.980452108664686" lon="13.090478294933105"><ele>1321.6</ele><time>2026-03-29T10:13:48.999Z</time></trkpt><trkpt lat="41.98037538686442" lon="13.090513363970468"><ele>1326.0</ele><time>2026-03-29T10:13:49.999Z</time></trkpt><trkpt lat="41.98030431869369" lon="13.090571486406084"><ele>1326.0</ele><time>2026-03-29T10:13:50.999Z</time></trkpt><trkpt lat="41.980236709747295" lon="13.090678487372784"><ele>1326.0</ele><time>2026-03-29T10:13:51.999Z</time></trkpt><trkpt lat="41.980143692584896" lon="13.090785165813399"><ele>1326.0</ele><time>2026-03-29T10:13:52.999Z</time></trkpt><trkpt lat="41.98009051711428" lon="13.090902669416755"><ele>1326.0</ele><time>2026-03-29T10:13:53.999Z</time></trkpt><trkpt lat="41.98000805634324" lon="13.091012261188196"><ele>1326.0</ele><time>2026-03-29T10:13:54.999Z</time></trkpt><trkpt lat="41.97994314784095" lon="13.091105607131809"><ele>1326.5</ele><time>2026-03-29T10:13:55.999Z</time></trkpt><trkpt lat="41.979899102106266" lon="13.091195742520066"><ele>1327.0</ele><time>2026-03-29T10:13:56.999Z</time></trkpt><trkpt lat="41.97984218529613" lon="13.091247820368661"><ele>1327.5</ele><time>2026-03-29T10:13:57.999Z</time></trkpt><trkpt lat="41.97977658648703" lon="13.091266770248588"><ele>1328.0</ele><time>2026-03-29T10:13:58.999Z</time></trkpt><trkpt lat="41.979715889122566" lon="13.091182772605936"><ele>1328.5</ele><time>2026-03-29T10:13:59.999Z</time></trkpt><trkpt lat="41.97963936766981" lon="13.091134543632606"><ele>1329.0</ele><time>2026-03-29T10:14:00.999Z</time></trkpt><trkpt lat="41.97954396864297" lon="13.091090731316378"><ele>1329.0</ele><time>2026-03-29T10:14:01.999Z</time></trkpt><trkpt lat="41.979452268789174" lon="13.091026097341276"><ele>1329.0</ele><time>2026-03-29T10:14:02.999Z</time></trkpt><trkpt lat="41.97934274994159" lon="13.09107430519749"><ele>1329.0</ele><time>2026-03-29T10:14:03.999Z</time></trkpt><trkpt lat="41.97925607534046" lon="13.091127224798184"><ele>1329.0</ele><time>2026-03-29T10:14:04.999Z</time></trkpt><trkpt lat="41.979182688059026" lon="13.091222651041683"><ele>1329.0</ele><time>2026-03-29T10:14:05.999Z</time></trkpt><trkpt lat="41.979128425764465" lon="13.091333204809466"><ele>1334.0</ele><time>2026-03-29T10:14:06.999Z</time></trkpt><trkpt lat="41.97908258106349" lon="13.091444302413683"><ele>1339.0</ele><time>2026-03-29T10:14:07.999Z</time></trkpt><trkpt lat="41.97903260795727" lon="13.091542917891875"><ele>1344.0</ele><time>2026-03-29T10:14:08.999Z</time></trkpt><trkpt lat="41.97895004911418" lon="13.091586834127485"><ele>1349.0</ele><time>2026-03-29T10:14:09.999Z</time></trkpt><trkpt lat="41.978881236952795" lon="13.09156064733358"><ele>1354.0</ele><time>2026-03-29T10:14:10.999Z</time></trkpt><trkpt lat="41.97874969758935" lon="13.091536367603878"><ele>1354.0</ele><time>2026-03-29T10:14:12.999Z</time></trkpt><trkpt lat="41.97866377327772" lon="13.091528242799637"><ele>1354.0</ele><time>2026-03-29T10:14:13.999Z</time></trkpt><trkpt lat="41.9785548876062" lon="13.091578732524946"><ele>1354.0</ele><time>2026-03-29T10:14:14.999Z</time></trkpt><trkpt lat="41.978491938680286" lon="13.091737991694918"><ele>1354.0</ele><time>2026-03-29T10:14:15.999Z</time></trkpt><trkpt lat="41.97841414050297" lon="13.091835186866954"><ele>1354.0</ele><time>2026-03-29T10:14:16.999Z</time></trkpt><trkpt lat="41.97834916748696" lon="13.091937936405058"><ele>1354.0</ele><time>2026-03-29T10:14:17.999Z</time></trkpt><trkpt lat="41.978286618527314" lon="13.092034325401947"><ele>1354.0</ele><time>2026-03-29T10:14:18.999Z</time></trkpt><trkpt lat="41.97821336383014" lon="13.092122686569017"><ele>1354.0</ele><time>2026-03-29T10:14:19.999Z</time></trkpt><trkpt lat="41.97812403856993" lon="13.09210855257505"><ele>1354.0</ele><time>2026-03-29T10:14:20.999Z</time></trkpt><trkpt lat="41.977999779535935" lon="13.092094512318955"><ele>1354.0</ele><time>2026-03-29T10:14:22.999Z</time></trkpt><trkpt lat="41.97792030843877" lon="13.092066064637958"><ele>1354.0</ele><time>2026-03-29T10:14:23.999Z</time></trkpt><trkpt lat="41.97781349309782" lon="13.092040591434715"><ele>1354.0</ele><time>2026-03-29T10:14:24.999Z</time></trkpt><trkpt lat="41.977709565457126" lon="13.092060448943638"><ele>1354.0</ele><time>2026-03-29T10:14:25.999Z</time></trkpt><trkpt lat="41.977626034132136" lon="13.092113916039718"><ele>1354.0</ele><time>2026-03-29T10:14:26.999Z</time></trkpt><trkpt lat="41.97755462655645" lon="13.092204329627307"><ele>1354.0</ele><time>2026-03-29T10:14:27.999Z</time></trkpt><trkpt lat="41.977521294736825" lon="13.092350631719011"><ele>1354.6</ele><time>2026-03-29T10:14:28.999Z</time></trkpt><trkpt lat="41.977441360716234" lon="13.09246657047524"><ele>1355.2</ele><time>2026-03-29T10:14:29.999Z</time></trkpt><trkpt lat="41.97737672099337" lon="13.092581418855644"><ele>1355.8</ele><time>2026-03-29T10:14:30.998Z</time></trkpt><trkpt lat="41.97730759865918" lon="13.092687063561831"><ele>1356.3999999999999</ele><time>2026-03-29T10:14:31.998Z</time></trkpt><trkpt lat="41.97724014240192" lon="13.092760922129427"><ele>1357.0</ele><time>2026-03-29T10:14:32.998Z</time></trkpt><trkpt lat="41.977179446633954" lon="13.09283071336102"><ele>1357.0</ele><time>2026-03-29T10:14:33.998Z</time></trkpt><trkpt lat="41.977110629101695" lon="13.092909843234365"><ele>1357.0</ele><time>2026-03-29T10:14:35Z</time></trkpt><trkpt lat="41.977039610427134" lon="13.093001637232938"><ele>1357.0</ele><time>2026-03-29T10:14:36Z</time></trkpt><trkpt lat="41.97697850901773" lon="13.093084838892272"><ele>1357.0</ele><time>2026-03-29T10:14:37Z</time></trkpt><trkpt lat="41.97692756052336" lon="13.093167875968383"><ele>1357.0</ele><time>2026-03-29T10:14:38Z</time></trkpt><trkpt lat="41.97690205019461" lon="13.093286763634945"><ele>1357.0</ele><time>2026-03-29T10:14:39Z</time></trkpt><trkpt lat="41.97690511832404" lon="13.093415357130679"><ele>1356.8333333333333</ele><time>2026-03-29T10:14:40Z</time></trkpt><trkpt lat="41.97694439597976" lon="13.093546793290015"><ele>1356.6666666666665</ele><time>2026-03-29T10:14:41Z</time></trkpt><trkpt lat="41.9769955245551" lon="13.093638417123326"><ele>1356.5</ele><time>2026-03-29T10:14:42Z</time></trkpt><trkpt lat="41.97705361526433" lon="13.093699689155697"><ele>1356.3333333333333</ele><time>2026-03-29T10:14:43Z</time></trkpt><trkpt lat="41.97713237146449" lon="13.093749067616816"><ele>1356.1666666666667</ele><time>2026-03-29T10:14:44Z</time></trkpt><trkpt lat="41.97723031621543" lon="13.093754432772444"><ele>1356.0</ele><time>2026-03-29T10:14:45Z</time></trkpt><trkpt lat="41.97732819409132" lon="13.093712449987885"><ele>1356.0</ele><time>2026-03-29T10:14:46Z</time></trkpt><trkpt lat="41.977414191951304" lon="13.0936585583683"><ele>1356.0</ele><time>2026-03-29T10:14:47Z</time></trkpt><trkpt lat="41.97747078859191" lon="13.093617814623503"><ele>1356.0</ele><time>2026-03-29T10:14:48Z</time></trkpt><trkpt lat="41.97755913245655" lon="13.093642427555448"><ele>1356.0</ele><time>2026-03-29T10:14:50Z</time></trkpt><trkpt lat="41.97753276519795" lon="13.093803501079867"><ele>1356.0</ele><time>2026-03-29T10:14:52Z</time></trkpt><trkpt lat="41.977454415188575" lon="13.093851994883172"><ele>1356.0</ele><time>2026-03-29T10:14:53Z</time></trkpt><trkpt lat="41.97738024271815" lon="13.093900721103363"><ele>1356.0</ele><time>2026-03-29T10:14:54Z</time></trkpt><trkpt lat="41.97729425938042" lon="13.093952977709533"><ele>1356.0</ele><time>2026-03-29T10:14:55Z</time></trkpt><trkpt lat="41.977200181443436" lon="13.093996548961295"><ele>1356.0</ele><time>2026-03-29T10:14:56Z</time></trkpt><trkpt lat="41.97708714171973" lon="13.094046940454428"><ele>1356.0</ele><time>2026-03-29T10:14:57Z</time></trkpt><trkpt lat="41.97697829918415" lon="13.094151375015686"><ele>1356.75</ele><time>2026-03-29T10:14:58Z</time></trkpt><trkpt lat="41.97688760312448" lon="13.094283144194593"><ele>1357.5</ele><time>2026-03-29T10:14:59Z</time></trkpt><trkpt lat="41.97680166654808" lon="13.094448152094136"><ele>1358.25</ele><time>2026-03-29T10:15:00Z</time></trkpt><trkpt lat="41.976727136092414" lon="13.094613970650888"><ele>1359.0</ele><time>2026-03-29T10:15:01Z</time></trkpt><trkpt lat="41.97664750489905" lon="13.094771666520176"><ele>1363.25</ele><time>2026-03-29T10:15:02Z</time></trkpt><trkpt lat="41.97657678627423" lon="13.094931264042405"><ele>1367.5</ele><time>2026-03-29T10:15:03Z</time></trkpt><trkpt lat="41.97651983615622" lon="13.09510070164856"><ele>1371.75</ele><time>2026-03-29T10:15:04Z</time></trkpt><trkpt lat="41.97647158301096" lon="13.095274617773281"><ele>1376.0</ele><time>2026-03-29T10:15:05Z</time></trkpt><trkpt lat="41.97641566599134" lon="13.095440758057928"><ele>1376.0</ele><time>2026-03-29T10:15:06Z</time></trkpt><trkpt lat="41.976332564074895" lon="13.09558864085095"><ele>1376.0</ele><time>2026-03-29T10:15:07Z</time></trkpt><trkpt lat="41.976231827550684" lon="13.095716489289872"><ele>1376.0</ele><time>2026-03-29T10:15:08Z</time></trkpt><trkpt lat="41.97611671321534" lon="13.095826688481415"><ele>1376.0</ele><time>2026-03-29T10:15:09Z</time></trkpt><trkpt lat="41.97601098040231" lon="13.095934406424352"><ele>1375.25</ele><time>2026-03-29T10:15:10Z</time></trkpt><trkpt lat="41.975905269183265" lon="13.09603959660912"><ele>1374.5</ele><time>2026-03-29T10:15:11Z</time></trkpt><trkpt lat="41.97581543102655" lon="13.096129402975903"><ele>1373.75</ele><time>2026-03-29T10:15:12Z</time></trkpt><trkpt lat="41.97573901290878" lon="13.096220537280454"><ele>1373.0</ele><time>2026-03-29T10:15:13Z</time></trkpt><trkpt lat="41.97569984776448" lon="13.096356011321877"><ele>1376.75</ele><time>2026-03-29T10:15:14Z</time></trkpt><trkpt lat="41.97571529406337" lon="13.096521887863952"><ele>1380.5</ele><time>2026-03-29T10:15:15Z</time></trkpt><trkpt lat="41.975718655828516" lon="13.096687288181936"><ele>1384.25</ele><time>2026-03-29T10:15:16Z</time></trkpt><trkpt lat="41.975730280726275" lon="13.096850142562165"><ele>1388.0</ele><time>2026-03-29T10:15:17Z</time></trkpt><trkpt lat="41.97573533194075" lon="13.097016314781456"><ele>1388.0</ele><time>2026-03-29T10:15:18Z</time></trkpt><trkpt lat="41.975737887378926" lon="13.097179457780689"><ele>1388.0</ele><time>2026-03-29T10:15:19Z</time></trkpt><trkpt lat="41.975743025828045" lon="13.097349816276607"><ele>1388.0</ele><time>2026-03-29T10:15:20Z</time></trkpt><trkpt lat="41.97573977013351" lon="13.097511163329685"><ele>1388.0</ele><time>2026-03-29T10:15:21Z</time></trkpt><trkpt lat="41.97573350502875" lon="13.097665176328064"><ele>1389.4</ele><time>2026-03-29T10:15:22Z</time></trkpt><trkpt lat="41.97569829904488" lon="13.097802692317188"><ele>1390.8000000000002</ele><time>2026-03-29T10:15:23Z</time></trkpt><trkpt lat="41.97567308154307" lon="13.09792693673389"><ele>1392.2</ele><time>2026-03-29T10:15:24Z</time></trkpt><trkpt lat="41.97564224434322" lon="13.098047255292286"><ele>1393.6</ele><time>2026-03-29T10:15:25Z</time></trkpt><trkpt lat="41.97563700508376" lon="13.098152397373505"><ele>1395.0</ele><time>2026-03-29T10:15:26Z</time></trkpt><trkpt lat="41.975622802778474" lon="13.098252259471147"><ele>1396.2</ele><time>2026-03-29T10:15:27Z</time></trkpt><trkpt lat="41.97563999830142" lon="13.098357014165757"><ele>1397.4</ele><time>2026-03-29T10:15:28Z</time></trkpt><trkpt lat="41.9756972112501" lon="13.09844042771906"><ele>1398.6</ele><time>2026-03-29T10:15:29Z</time></trkpt><trkpt lat="41.97581284248457" lon="13.09843609183752"><ele>1399.8</ele><time>2026-03-29T10:15:30Z</time></trkpt><trkpt lat="41.97589282350275" lon="13.098360701361804"><ele>1401.0</ele><time>2026-03-29T10:15:31Z</time></trkpt><trkpt lat="41.975944125129956" lon="13.09824240482392"><ele>1401.25</ele><time>2026-03-29T10:15:31.999Z</time></trkpt><trkpt lat="41.9759981628015" lon="13.098081996971434"><ele>1401.5</ele><time>2026-03-29T10:15:32.999Z</time></trkpt><trkpt lat="41.976066827043724" lon="13.097925210838593"><ele>1401.75</ele><time>2026-03-29T10:15:33.999Z</time></trkpt><trkpt lat="41.976137389361035" lon="13.097766698005195"><ele>1402.0</ele><time>2026-03-29T10:15:34.999Z</time></trkpt><trkpt lat="41.97623264924127" lon="13.097625093514521"><ele>1402.0</ele><time>2026-03-29T10:15:35.999Z</time></trkpt><trkpt lat="41.97631616704577" lon="13.097478887911391"><ele>1402.0</ele><time>2026-03-29T10:15:36.999Z</time></trkpt><trkpt lat="41.97640753685171" lon="13.097345893687871"><ele>1402.0</ele><time>2026-03-29T10:15:37.999Z</time></trkpt><trkpt lat="41.97649082616846" lon="13.097233671969516"><ele>1402.0</ele><time>2026-03-29T10:15:38.999Z</time></trkpt><trkpt lat="41.976568122963265" lon="13.0971363471627"><ele>1399.6</ele><time>2026-03-29T10:15:39.999Z</time></trkpt><trkpt lat="41.976669668978005" lon="13.097138528998205"><ele>1397.1999999999998</ele><time>2026-03-29T10:15:40.999Z</time></trkpt><trkpt lat="41.9767588405968" lon="13.097188862123765"><ele>1394.8</ele><time>2026-03-29T10:15:41.999Z</time></trkpt><trkpt lat="41.97682688050081" lon="13.09726076628984"><ele>1392.4</ele><time>2026-03-29T10:15:42.999Z</time></trkpt><trkpt lat="41.97687147609552" lon="13.097370253859518"><ele>1390.0</ele><time>2026-03-29T10:15:43.999Z</time></trkpt><trkpt lat="41.97686058586076" lon="13.097524133283168"><ele>1390.0</ele><time>2026-03-29T10:15:44.999Z</time></trkpt><trkpt lat="41.9768411187771" lon="13.09765848070157"><ele>1390.0</ele><time>2026-03-29T10:15:45.999Z</time></trkpt><trkpt lat="41.976833265442764" lon="13.097809732528171"><ele>1390.0</ele><time>2026-03-29T10:15:46.999Z</time></trkpt><trkpt lat="41.97687536137052" lon="13.09796463605494"><ele>1390.0</ele><time>2026-03-29T10:15:47.999Z</time></trkpt><trkpt lat="41.97695002716295" lon="13.098112685949705"><ele>1390.0</ele><time>2026-03-29T10:15:48.999Z</time></trkpt><trkpt lat="41.97703995413081" lon="13.098233345470812"><ele>1390.0</ele><time>2026-03-29T10:15:49.999Z</time></trkpt><trkpt lat="41.977122694526436" lon="13.0983537422693"><ele>1390.0</ele><time>2026-03-29T10:15:50.999Z</time></trkpt><trkpt lat="41.97718331081219" lon="13.098460668969786"><ele>1390.0</ele><time>2026-03-29T10:15:51.999Z</time></trkpt><trkpt lat="41.977210370924304" lon="13.098554901783203"><ele>1390.0</ele><time>2026-03-29T10:15:52.999Z</time></trkpt><trkpt lat="41.97720643659504" lon="13.098659203179274"><ele>1391.1666666666665</ele><time>2026-03-29T10:15:53.999Z</time></trkpt><trkpt lat="41.977158068418795" lon="13.098753147484514"><ele>1392.3333333333333</ele><time>2026-03-29T10:15:54.999Z</time></trkpt><trkpt lat="41.977059629195864" lon="13.098763313785003"><ele>1393.5</ele><time>2026-03-29T10:15:55.999Z</time></trkpt><trkpt lat="41.97699914147019" lon="13.09883546996945"><ele>1394.6666666666667</ele><time>2026-03-29T10:15:56.999Z</time></trkpt><trkpt lat="41.97692491335568" lon="13.098894791123874"><ele>1395.8333333333335</ele><time>2026-03-29T10:15:57.999Z</time></trkpt><trkpt lat="41.97688496394906" lon="13.099003388033209"><ele>1397.0</ele><time>2026-03-29T10:15:58.999Z</time></trkpt><trkpt lat="41.97690049961423" lon="13.099122157095298"><ele>1397.0</ele><time>2026-03-29T10:15:59.999Z</time></trkpt><trkpt lat="41.97694773017804" lon="13.099242643669669"><ele>1397.0</ele><time>2026-03-29T10:16:00.999Z</time></trkpt><trkpt lat="41.97695256320488" lon="13.099376245161588"><ele>1397.0</ele><time>2026-03-29T10:16:01.999Z</time></trkpt><trkpt lat="41.976941144520396" lon="13.099495995690983"><ele>1397.0</ele><time>2026-03-29T10:16:02.999Z</time></trkpt><trkpt lat="41.97687273519869" lon="13.09958730419419"><ele>1397.0</ele><time>2026-03-29T10:16:03.999Z</time></trkpt><trkpt lat="41.97678230099803" lon="13.099689917840918"><ele>1400.0</ele><time>2026-03-29T10:16:04.999Z</time></trkpt><trkpt lat="41.97667135518169" lon="13.099774860276298"><ele>1403.0</ele><time>2026-03-29T10:16:05.999Z</time></trkpt><trkpt lat="41.97656149658607" lon="13.099879374252179"><ele>1406.0</ele><time>2026-03-29T10:16:06.999Z</time></trkpt><trkpt lat="41.97645766069955" lon="13.09998614627055"><ele>1409.0</ele><time>2026-03-29T10:16:07.999Z</time></trkpt><trkpt lat="41.97635720764272" lon="13.10006611919652"><ele>1409.0</ele><time>2026-03-29T10:16:08.999Z</time></trkpt><trkpt lat="41.97626605338467" lon="13.10014991862563"><ele>1409.0</ele><time>2026-03-29T10:16:09.999Z</time></trkpt><trkpt lat="41.97617106448638" lon="13.100182528064835"><ele>1409.0</ele><time>2026-03-29T10:16:10.999Z</time></trkpt><trkpt lat="41.9760610303482" lon="13.10014810654147"><ele>1409.0</ele><time>2026-03-29T10:16:11.999Z</time></trkpt><trkpt lat="41.975942309234796" lon="13.100134230440393"><ele>1409.0</ele><time>2026-03-29T10:16:12.999Z</time></trkpt><trkpt lat="41.97583505758254" lon="13.100114392803885"><ele>1409.6</ele><time>2026-03-29T10:16:13.999Z</time></trkpt><trkpt lat="41.97574336926404" lon="13.100162499117854"><ele>1410.2</ele><time>2026-03-29T10:16:14.999Z</time></trkpt><trkpt lat="41.97565506693238" lon="13.100272153402296"><ele>1410.8</ele><time>2026-03-29T10:16:15.999Z</time></trkpt><trkpt lat="41.97555673814679" lon="13.100336464390397"><ele>1411.3999999999999</ele><time>2026-03-29T10:16:16.999Z</time></trkpt><trkpt lat="41.97545491108805" lon="13.10032956080636"><ele>1412.0</ele><time>2026-03-29T10:16:17.999Z</time></trkpt><trkpt lat="41.97535613034072" lon="13.100291271100867"><ele>1412.0</ele><time>2026-03-29T10:16:18.999Z</time></trkpt><trkpt lat="41.9752489283091" lon="13.100278543859439"><ele>1412.0</ele><time>2026-03-29T10:16:19.999Z</time></trkpt><trkpt lat="41.975121584692864" lon="13.10031977638351"><ele>1412.0</ele><time>2026-03-29T10:16:20.999Z</time></trkpt><trkpt lat="41.97501639137923" lon="13.100312028672725"><ele>1412.0</ele><time>2026-03-29T10:16:21.999Z</time></trkpt><trkpt lat="41.974919147868555" lon="13.100314662201875"><ele>1412.0</ele><time>2026-03-29T10:16:22.999Z</time></trkpt><trkpt lat="41.974821182033146" lon="13.100270477560862"><ele>1411.0</ele><time>2026-03-29T10:16:23.999Z</time></trkpt><trkpt lat="41.97473574741666" lon="13.100166842089774"><ele>1410.0</ele><time>2026-03-29T10:16:24.999Z</time></trkpt><trkpt lat="41.974696557782636" lon="13.100002604334465"><ele>1409.0</ele><time>2026-03-29T10:16:25.999Z</time></trkpt><trkpt lat="41.97468888867144" lon="13.099826278301123"><ele>1408.0</ele><time>2026-03-29T10:16:26.999Z</time></trkpt><trkpt lat="41.97467132148724" lon="13.099647881886522"><ele>1408.0</ele><time>2026-03-29T10:16:27.999Z</time></trkpt><trkpt lat="41.97461531866388" lon="13.099482826357841"><ele>1408.0</ele><time>2026-03-29T10:16:28.999Z</time></trkpt><trkpt lat="41.97455234594245" lon="13.099356467683448"><ele>1408.0</ele><time>2026-03-29T10:16:29.999Z</time></trkpt><trkpt lat="41.974485413982855" lon="13.099258312401975"><ele>1408.0</ele><time>2026-03-29T10:16:30.999Z</time></trkpt><trkpt lat="41.97440953241799" lon="13.09921407726655"><ele>1408.0</ele><time>2026-03-29T10:16:31.998Z</time></trkpt><trkpt lat="41.97433010355199" lon="13.09919034532312"><ele>1408.0</ele><time>2026-03-29T10:16:32.998Z</time></trkpt><trkpt lat="41.974240729713834" lon="13.099310237694112"><ele>1408.0</ele><time>2026-03-29T10:16:33.998Z</time></trkpt><trkpt lat="41.974151694218016" lon="13.09940463689291"><ele>1408.0</ele><time>2026-03-29T10:16:34.998Z</time></trkpt><trkpt lat="41.974070917264434" lon="13.099519518736919"><ele>1408.0</ele><time>2026-03-29T10:16:35.998Z</time></trkpt><trkpt lat="41.974005747793875" lon="13.099655869499044"><ele>1410.2</ele><time>2026-03-29T10:16:36.998Z</time></trkpt><trkpt lat="41.97393098941416" lon="13.099790479515342"><ele>1412.4</ele><time>2026-03-29T10:16:37.998Z</time></trkpt><trkpt lat="41.97387588034972" lon="13.099932341004278"><ele>1414.6000000000001</ele><time>2026-03-29T10:16:38.998Z</time></trkpt><trkpt lat="41.97385555926843" lon="13.10006702347225"><ele>1416.8000000000002</ele><time>2026-03-29T10:16:39.998Z</time></trkpt><trkpt lat="41.97387795716856" lon="13.100190718005862"><ele>1419.0</ele><time>2026-03-29T10:16:41Z</time></trkpt><trkpt lat="41.9739391181761" lon="13.100289275974829"><ele>1419.0</ele><time>2026-03-29T10:16:42Z</time></trkpt><trkpt lat="41.974004824644716" lon="13.100379663972808"><ele>1419.0</ele><time>2026-03-29T10:16:43Z</time></trkpt><trkpt lat="41.9741283699164" lon="13.100378750220717"><ele>1419.0</ele><time>2026-03-29T10:16:44Z</time></trkpt><trkpt lat="41.97424019917433" lon="13.10037570833137"><ele>1419.0</ele><time>2026-03-29T10:16:45Z</time></trkpt><trkpt lat="41.97433640161467" lon="13.100392231988007"><ele>1419.0</ele><time>2026-03-29T10:16:46Z</time></trkpt><trkpt lat="41.97441644827234" lon="13.100463391539305"><ele>1419.0</ele><time>2026-03-29T10:16:47Z</time></trkpt><trkpt lat="41.97447912942005" lon="13.100566213709977"><ele>1419.0</ele><time>2026-03-29T10:16:48Z</time></trkpt><trkpt lat="41.974505495086795" lon="13.100707364697994"><ele>1419.0</ele><time>2026-03-29T10:16:49Z</time></trkpt><trkpt lat="41.974517085528824" lon="13.100849765015596"><ele>1419.0</ele><time>2026-03-29T10:16:50Z</time></trkpt><trkpt lat="41.9745271520987" lon="13.101007453584653"><ele>1419.0</ele><time>2026-03-29T10:16:51Z</time></trkpt><trkpt lat="41.97452635121634" lon="13.101162053934319"><ele>1421.2</ele><time>2026-03-29T10:16:52Z</time></trkpt><trkpt lat="41.97455935765857" lon="13.101296167579035"><ele>1423.4</ele><time>2026-03-29T10:16:53Z</time></trkpt><trkpt lat="41.97460320359918" lon="13.101407061348352"><ele>1425.6</ele><time>2026-03-29T10:16:54Z</time></trkpt><trkpt lat="41.97469380609356" lon="13.101486388613917"><ele>1427.8</ele><time>2026-03-29T10:16:55Z</time></trkpt><trkpt lat="41.97479619069751" lon="13.101560169083767"><ele>1430.0</ele><time>2026-03-29T10:16:56Z</time></trkpt><trkpt lat="41.974858928964686" lon="13.101680254129406"><ele>1430.6</ele><time>2026-03-29T10:16:57Z</time></trkpt><trkpt lat="41.974888208214566" lon="13.101787273294361"><ele>1431.2</ele><time>2026-03-29T10:16:58Z</time></trkpt><trkpt lat="41.974879691835646" lon="13.101917906310781"><ele>1431.8000000000002</ele><time>2026-03-29T10:16:59Z</time></trkpt><trkpt lat="41.974900001353994" lon="13.102062616078346"><ele>1432.4</ele><time>2026-03-29T10:17:00Z</time></trkpt><trkpt lat="41.97486603180762" lon="13.102183532397978"><ele>1433.0</ele><time>2026-03-29T10:17:01Z</time></trkpt><trkpt lat="41.97483878446928" lon="13.102274987490578"><ele>1433.0</ele><time>2026-03-29T10:17:02Z</time></trkpt><trkpt lat="41.97480377953411" lon="13.102364908052506"><ele>1433.0</ele><time>2026-03-29T10:17:03Z</time></trkpt><trkpt lat="41.97472386351653" lon="13.102421966754184"><ele>1433.0</ele><time>2026-03-29T10:17:04Z</time></trkpt><trkpt lat="41.974634397658484" lon="13.102475709689799"><ele>1433.0</ele><time>2026-03-29T10:17:05Z</time></trkpt><trkpt lat="41.97459790309861" lon="13.10259663116648"><ele>1433.0</ele><time>2026-03-29T10:17:06Z</time></trkpt><trkpt lat="41.97454176254574" lon="13.10271109292858"><ele>1434.5</ele><time>2026-03-29T10:17:07Z</time></trkpt><trkpt lat="41.9744839171539" lon="13.102876466329452"><ele>1436.0</ele><time>2026-03-29T10:17:08Z</time></trkpt><trkpt lat="41.97444744203225" lon="13.103060926595886"><ele>1437.5</ele><time>2026-03-29T10:17:09Z</time></trkpt><trkpt lat="41.97440650713574" lon="13.10323334016855"><ele>1439.0</ele><time>2026-03-29T10:17:10Z</time></trkpt><trkpt lat="41.974385910477146" lon="13.103388164668575"><ele>1440.3333333333335</ele><time>2026-03-29T10:17:11Z</time></trkpt><trkpt lat="41.974364912809335" lon="13.10351987218326"><ele>1441.6666666666667</ele><time>2026-03-29T10:17:12Z</time></trkpt><trkpt lat="41.97432394437495" lon="13.103620536961369"><ele>1443.0</ele><time>2026-03-29T10:17:13Z</time></trkpt><trkpt lat="41.974290397158846" lon="13.10372175009145"><ele>1444.3333333333333</ele><time>2026-03-29T10:17:14Z</time></trkpt><trkpt lat="41.97424718260809" lon="13.103801941311092"><ele>1445.6666666666665</ele><time>2026-03-29T10:17:15Z</time></trkpt><trkpt lat="41.97418285633726" lon="13.103860150907844"><ele>1447.0</ele><time>2026-03-29T10:17:16Z</time></trkpt><trkpt lat="41.97410853530015" lon="13.10389382880829"><ele>1443.1999999999998</ele><time>2026-03-29T10:17:17Z</time></trkpt><trkpt lat="41.97401487515125" lon="13.103867928640808"><ele>1439.4</ele><time>2026-03-29T10:17:18Z</time></trkpt><trkpt lat="41.97392741291765" lon="13.10378129061421"><ele>1435.6</ele><time>2026-03-29T10:17:19Z</time></trkpt><trkpt lat="41.97382914905511" lon="13.103731279751777"><ele>1431.8000000000002</ele><time>2026-03-29T10:17:20Z</time></trkpt><trkpt lat="41.97373693172472" lon="13.103701464029598"><ele>1428.0</ele><time>2026-03-29T10:17:21Z</time></trkpt><trkpt lat="41.97363456994306" lon="13.10376468749197"><ele>1428.0</ele><time>2026-03-29T10:17:22Z</time></trkpt><trkpt lat="41.973539004168494" lon="13.103843673303043"><ele>1428.0</ele><time>2026-03-29T10:17:23Z</time></trkpt><trkpt lat="41.97345247878308" lon="13.103936803989102"><ele>1428.0</ele><time>2026-03-29T10:17:24Z</time></trkpt><trkpt lat="41.97335509017299" lon="13.104010559581473"><ele>1428.0</ele><time>2026-03-29T10:17:25Z</time></trkpt><trkpt lat="41.973270126287" lon="13.10407173986736"><ele>1428.0</ele><time>2026-03-29T10:17:26Z</time></trkpt><trkpt lat="41.973174470587374" lon="13.104089738550234"><ele>1425.75</ele><time>2026-03-29T10:17:27Z</time></trkpt><trkpt lat="41.97307383111055" lon="13.104032922330946"><ele>1423.5</ele><time>2026-03-29T10:17:28Z</time></trkpt><trkpt lat="41.97296801455903" lon="13.103959319550158"><ele>1421.25</ele><time>2026-03-29T10:17:29Z</time></trkpt><trkpt lat="41.9728548118132" lon="13.103885077428089"><ele>1419.0</ele><time>2026-03-29T10:17:30Z</time></trkpt><trkpt lat="41.972784334188475" lon="13.103739076431996"><ele>1419.0</ele><time>2026-03-29T10:17:31Z</time></trkpt><trkpt lat="41.97270850816206" lon="13.103606938410378"><ele>1419.0</ele><time>2026-03-29T10:17:32Z</time></trkpt><trkpt lat="41.972655796245164" lon="13.103461749054286"><ele>1419.0</ele><time>2026-03-29T10:17:33Z</time></trkpt><trkpt lat="41.972588196349875" lon="13.1033413165677"><ele>1419.0</ele><time>2026-03-29T10:17:34Z</time></trkpt><trkpt lat="41.97249918155178" lon="13.103259061564538"><ele>1419.75</ele><time>2026-03-29T10:17:35Z</time></trkpt><trkpt lat="41.97238994096383" lon="13.103228029041905"><ele>1420.5</ele><time>2026-03-29T10:17:35.999Z</time></trkpt><trkpt lat="41.972277558328244" lon="13.103244826593503"><ele>1421.25</ele><time>2026-03-29T10:17:36.999Z</time></trkpt><trkpt lat="41.97217502112679" lon="13.103322498697326"><ele>1422.0</ele><time>2026-03-29T10:17:37.999Z</time></trkpt><trkpt lat="41.97208522298618" lon="13.103435378906996"><ele>1422.0</ele><time>2026-03-29T10:17:38.999Z</time></trkpt><trkpt lat="41.972003922517466" lon="13.103546750298687"><ele>1422.0</ele><time>2026-03-29T10:17:39.999Z</time></trkpt><trkpt lat="41.97195019147264" lon="13.103663651415731"><ele>1422.0</ele><time>2026-03-29T10:17:40.999Z</time></trkpt><trkpt lat="41.97187742726069" lon="13.10378387389193"><ele>1422.0</ele><time>2026-03-29T10:17:41.999Z</time></trkpt><trkpt lat="41.97180061064463" lon="13.103907573962443"><ele>1422.0</ele><time>2026-03-29T10:17:42.999Z</time></trkpt><trkpt lat="41.971732014284825" lon="13.1040392460338"><ele>1422.0</ele><time>2026-03-29T10:17:43.999Z</time></trkpt><trkpt lat="41.97168993237269" lon="13.104197596662367"><ele>1422.0</ele><time>2026-03-29T10:17:44.999Z</time></trkpt><trkpt lat="41.971669968563354" lon="13.104371706363716"><ele>1422.0</ele><time>2026-03-29T10:17:45.999Z</time></trkpt><trkpt lat="41.971651447971325" lon="13.104528764883376"><ele>1422.3999999999999</ele><time>2026-03-29T10:17:46.999Z</time></trkpt><trkpt lat="41.97165493579899" lon="13.104665356337152"><ele>1422.8</ele><time>2026-03-29T10:17:47.999Z</time></trkpt><trkpt lat="41.97164847776522" lon="13.104798135705057"><ele>1423.2</ele><time>2026-03-29T10:17:48.999Z</time></trkpt><trkpt lat="41.971634757621366" lon="13.104932261434058"><ele>1423.6</ele><time>2026-03-29T10:17:49.999Z</time></trkpt><trkpt lat="41.971566817293215" lon="13.105058727640653"><ele>1424.0</ele><time>2026-03-29T10:17:50.999Z</time></trkpt><trkpt lat="41.971505154210526" lon="13.105165460052739"><ele>1424.3333333333335</ele><time>2026-03-29T10:17:51.999Z</time></trkpt><trkpt lat="41.971457827448994" lon="13.105264151685926"><ele>1424.6666666666667</ele><time>2026-03-29T10:17:52.999Z</time></trkpt><trkpt lat="41.97141455773217" lon="13.10536587245568"><ele>1425.0</ele><time>2026-03-29T10:17:53.999Z</time></trkpt><trkpt lat="41.97137333098853" lon="13.105471459569353"><ele>1425.3333333333333</ele><time>2026-03-29T10:17:54.999Z</time></trkpt><trkpt lat="41.97133271792693" lon="13.105591332911699"><ele>1425.6666666666665</ele><time>2026-03-29T10:17:55.999Z</time></trkpt><trkpt lat="41.97130759525877" lon="13.105681307397887"><ele>1426.0</ele><time>2026-03-29T10:17:56.999Z</time></trkpt><trkpt lat="41.97130035353342" lon="13.10577380254184"><ele>1426.1666666666665</ele><time>2026-03-29T10:17:57.999Z</time></trkpt><trkpt lat="41.97133711436328" lon="13.10586675267127"><ele>1426.3333333333333</ele><time>2026-03-29T10:17:58.999Z</time></trkpt><trkpt lat="41.97134502151639" lon="13.106044751921326"><ele>1426.5</ele><time>2026-03-29T10:18:00.999Z</time></trkpt><trkpt lat="41.971363335188144" lon="13.106142538689486"><ele>1426.6666666666667</ele><time>2026-03-29T10:18:01.999Z</time></trkpt><trkpt lat="41.97137289709744" lon="13.106231901390514"><ele>1426.8333333333335</ele><time>2026-03-29T10:18:02.999Z</time></trkpt><trkpt lat="41.9713674149237" lon="13.106359295462768"><ele>1427.0</ele><time>2026-03-29T10:18:04.999Z</time></trkpt><trkpt lat="41.971334115730855" lon="13.10647551254184"><ele>1427.0</ele><time>2026-03-29T10:18:06.999Z</time></trkpt><trkpt lat="41.971282294766446" lon="13.106617476607223"><ele>1427.0</ele><time>2026-03-29T10:18:08.999Z</time></trkpt><trkpt lat="41.97125087269348" lon="13.106692881113215"><ele>1427.0</ele><time>2026-03-29T10:18:09.999Z</time></trkpt><trkpt lat="41.97122161257184" lon="13.106773780268062"><ele>1427.0</ele><time>2026-03-29T10:18:10.999Z</time></trkpt><trkpt lat="41.971190632088486" lon="13.106864395483663"><ele>1427.0</ele><time>2026-03-29T10:18:11.999Z</time></trkpt><trkpt lat="41.97115183163237" lon="13.106955932040197"><ele>1427.0</ele><time>2026-03-29T10:18:12.999Z</time></trkpt><trkpt lat="41.97112848104161" lon="13.107061839200187"><ele>1427.0</ele><time>2026-03-29T10:18:13.999Z</time></trkpt><trkpt lat="41.97110640001042" lon="13.107170458128044"><ele>1427.0</ele><time>2026-03-29T10:18:14.999Z</time></trkpt><trkpt lat="41.97107788319634" lon="13.10728248799591"><ele>1427.0</ele><time>2026-03-29T10:18:15.999Z</time></trkpt><trkpt lat="41.97103433002919" lon="13.107427568740745"><ele>1427.0</ele><time>2026-03-29T10:18:16.999Z</time></trkpt><trkpt lat="41.97099970077634" lon="13.107585721314065"><ele>1427.0</ele><time>2026-03-29T10:18:17.999Z</time></trkpt><trkpt lat="41.97096418659646" lon="13.107757675932989"><ele>1427.0</ele><time>2026-03-29T10:18:18.999Z</time></trkpt><trkpt lat="41.97092892991564" lon="13.107932235080737"><ele>1427.0</ele><time>2026-03-29T10:18:19.999Z</time></trkpt><trkpt lat="41.970894561512345" lon="13.108097792927934"><ele>1427.0</ele><time>2026-03-29T10:18:20.999Z</time></trkpt><trkpt lat="41.97086003595092" lon="13.108267673922663"><ele>1427.0</ele><time>2026-03-29T10:18:21.999Z</time></trkpt><trkpt lat="41.97083272431682" lon="13.108440435983987"><ele>1425.3999999999999</ele><time>2026-03-29T10:18:22.999Z</time></trkpt><trkpt lat="41.97082281287187" lon="13.108593723455302"><ele>1423.8</ele><time>2026-03-29T10:18:23.999Z</time></trkpt><trkpt lat="41.9708039991299" lon="13.108714280271858"><ele>1422.2</ele><time>2026-03-29T10:18:24.999Z</time></trkpt><trkpt lat="41.97078246743763" lon="13.108845150767445"><ele>1420.6</ele><time>2026-03-29T10:18:25.999Z</time></trkpt><trkpt lat="41.97074709763543" lon="13.108964566537072"><ele>1419.0</ele><time>2026-03-29T10:18:26.999Z</time></trkpt><trkpt lat="41.970736671112014" lon="13.10909678534564"><ele>1418.8000000000002</ele><time>2026-03-29T10:18:27.999Z</time></trkpt><trkpt lat="41.97069950006407" lon="13.109219204762528"><ele>1418.6000000000001</ele><time>2026-03-29T10:18:28.999Z</time></trkpt><trkpt lat="41.97065240211502" lon="13.109335871861738"><ele>1418.4</ele><time>2026-03-29T10:18:29.999Z</time></trkpt><trkpt lat="41.970603600415686" lon="13.109436056852022"><ele>1418.2</ele><time>2026-03-29T10:18:30.999Z</time></trkpt><trkpt lat="41.9705665784261" lon="13.109531377267064"><ele>1418.0</ele><time>2026-03-29T10:18:31.999Z</time></trkpt><trkpt lat="41.97053660097796" lon="13.109637085145478"><ele>1418.0</ele><time>2026-03-29T10:18:32.999Z</time></trkpt><trkpt lat="41.970512468708854" lon="13.109737788227719"><ele>1418.0</ele><time>2026-03-29T10:18:33.999Z</time></trkpt><trkpt lat="41.97049863239672" lon="13.109841628240298"><ele>1418.0</ele><time>2026-03-29T10:18:34.999Z</time></trkpt><trkpt lat="41.970491654654325" lon="13.109937752807365"><ele>1418.0</ele><time>2026-03-29T10:18:35.998Z</time></trkpt><trkpt lat="41.97049420878686" lon="13.110038871881873"><ele>1418.0</ele><time>2026-03-29T10:18:36.998Z</time></trkpt><trkpt lat="41.97050393937818" lon="13.110145056886555"><ele>1418.0</ele><time>2026-03-29T10:18:37.998Z</time></trkpt><trkpt lat="41.970512772267575" lon="13.110255941482798"><ele>1418.0</ele><time>2026-03-29T10:18:38.998Z</time></trkpt><trkpt lat="41.97051433663094" lon="13.110368333222944"><ele>1418.0</ele><time>2026-03-29T10:18:39.998Z</time></trkpt><trkpt lat="41.97050495241059" lon="13.110463524130527"><ele>1418.0</ele><time>2026-03-29T10:18:40.998Z</time></trkpt><trkpt lat="41.97048210405376" lon="13.110563380060258"><ele>1418.0</ele><time>2026-03-29T10:18:41.998Z</time></trkpt><trkpt lat="41.97043220881684" lon="13.11065903920318"><ele>1418.0</ele><time>2026-03-29T10:18:42.998Z</time></trkpt><trkpt lat="41.97037103089203" lon="13.110750872237874"><ele>1418.0</ele><time>2026-03-29T10:18:43.998Z</time></trkpt><trkpt lat="41.97031241509815" lon="13.110843440178972"><ele>1417.3333333333335</ele><time>2026-03-29T10:18:44.998Z</time></trkpt><trkpt lat="41.970263861911484" lon="13.110942301302579"><ele>1416.6666666666667</ele><time>2026-03-29T10:18:46Z</time></trkpt><trkpt lat="41.97022100959484" lon="13.111038185237131"><ele>1416.0</ele><time>2026-03-29T10:18:47Z</time></trkpt><trkpt lat="41.97018471963052" lon="13.111138413097002"><ele>1415.3333333333333</ele><time>2026-03-29T10:18:48Z</time></trkpt><trkpt lat="41.97016189874705" lon="13.11124638722791"><ele>1414.6666666666665</ele><time>2026-03-29T10:18:49Z</time></trkpt><trkpt lat="41.970146548659535" lon="13.111361378189223"><ele>1414.0</ele><time>2026-03-29T10:18:50Z</time></trkpt><trkpt lat="41.970142805028416" lon="13.111471068058599"><ele>1414.0</ele><time>2026-03-29T10:18:51Z</time></trkpt><trkpt lat="41.97015460269018" lon="13.111565176502815"><ele>1414.0</ele><time>2026-03-29T10:18:52Z</time></trkpt><trkpt lat="41.97018479440413" lon="13.111693307180284"><ele>1414.0</ele><time>2026-03-29T10:18:54Z</time></trkpt><trkpt lat="41.97020552947709" lon="13.111789727571832"><ele>1414.0</ele><time>2026-03-29T10:18:57Z</time></trkpt><trkpt lat="41.97020709652398" lon="13.111906055769156"><ele>1414.0</ele><time>2026-03-29T10:18:59Z</time></trkpt><trkpt lat="41.970277348695305" lon="13.111871152311155"><ele>1414.0</ele><time>2026-03-29T10:19:02Z</time></trkpt><trkpt lat="41.97025551489746" lon="13.11204849011922"><ele>1413.6666666666665</ele><time>2026-03-29T10:23:06Z</time></trkpt><trkpt lat="41.97031790741937" lon="13.11201869265931"><ele>1413.3333333333333</ele><time>2026-03-29T10:24:07.999Z</time></trkpt><trkpt lat="41.97025730661223" lon="13.111955774678522"><ele>1413.0</ele><time>2026-03-29T10:24:10.999Z</time></trkpt><trkpt lat="41.97020801799848" lon="13.112022609424567"><ele>1412.6666666666667</ele><time>2026-03-29T10:24:46.999Z</time></trkpt><trkpt lat="41.97013144844629" lon="13.112085507525379"><ele>1412.3333333333335</ele><time>2026-03-29T10:24:48.999Z</time></trkpt><trkpt lat="41.97004721209738" lon="13.112195760171558"><ele>1412.0</ele><time>2026-03-29T10:24:50.998Z</time></trkpt><trkpt lat="41.96996353926537" lon="13.11230527516311"><ele>1411.0</ele><time>2026-03-29T10:24:52.998Z</time></trkpt><trkpt lat="41.969882978313485" lon="13.112411326807878"><ele>1410.0</ele><time>2026-03-29T10:24:54.998Z</time></trkpt><trkpt lat="41.96979163408448" lon="13.112523814524664"><ele>1409.0</ele><time>2026-03-29T10:24:56.998Z</time></trkpt><trkpt lat="41.969739035726356" lon="13.11258130931744"><ele>1408.0</ele><time>2026-03-29T10:24:57.998Z</time></trkpt><trkpt lat="41.96967623155589" lon="13.11261785510771"><ele>1407.0</ele><time>2026-03-29T10:24:58.998Z</time></trkpt><trkpt lat="41.96961792972331" lon="13.112665193840447"><ele>1406.0</ele><time>2026-03-29T10:24:59.998Z</time></trkpt><trkpt lat="41.9695643092413" lon="13.112733027450924"><ele>1406.0</ele><time>2026-03-29T10:25:00.998Z</time></trkpt><trkpt lat="41.969496446181815" lon="13.11277905043477"><ele>1406.0</ele><time>2026-03-29T10:25:01.998Z</time></trkpt><trkpt lat="41.969431922048315" lon="13.11283444268279"><ele>1406.0</ele><time>2026-03-29T10:25:02.998Z</time></trkpt><trkpt lat="41.96937280720775" lon="13.112883590011036"><ele>1406.0</ele><time>2026-03-29T10:25:04Z</time></trkpt><trkpt lat="41.96931128045791" lon="13.112930115498918"><ele>1406.0</ele><time>2026-03-29T10:25:05Z</time></trkpt><trkpt lat="41.969243400899465" lon="13.112974851800118"><ele>1406.0</ele><time>2026-03-29T10:25:06Z</time></trkpt><trkpt lat="41.96918512956509" lon="13.113032666078613"><ele>1406.0</ele><time>2026-03-29T10:25:07Z</time></trkpt><trkpt lat="41.96913000804625" lon="13.113098063632957"><ele>1406.4285714285713</ele><time>2026-03-29T10:25:08Z</time></trkpt><trkpt lat="41.9690623527657" lon="13.113141462993747"><ele>1406.857142857143</ele><time>2026-03-29T10:25:09Z</time></trkpt><trkpt lat="41.96900472998492" lon="13.113193192839526"><ele>1407.2857142857142</ele><time>2026-03-29T10:25:10Z</time></trkpt><trkpt lat="41.96894474653596" lon="13.113247042193334"><ele>1407.7142857142858</ele><time>2026-03-29T10:25:11Z</time></trkpt><trkpt lat="41.96888414870963" lon="13.113301443032622"><ele>1408.142857142857</ele><time>2026-03-29T10:25:12Z</time></trkpt><trkpt lat="41.968822891004336" lon="13.113356436284846"><ele>1408.5714285714287</ele><time>2026-03-29T10:25:13Z</time></trkpt><trkpt lat="41.96876522544765" lon="13.113408204708545"><ele>1409.0</ele><time>2026-03-29T10:25:14Z</time></trkpt><trkpt lat="41.96870703909849" lon="13.113459951050483"><ele>1409.1666666666667</ele><time>2026-03-29T10:25:15Z</time></trkpt><trkpt lat="41.96864964000107" lon="13.113506982764727"><ele>1409.3333333333335</ele><time>2026-03-29T10:25:16Z</time></trkpt><trkpt lat="41.96854486043889" lon="13.113586887797767"><ele>1409.5</ele><time>2026-03-29T10:25:18Z</time></trkpt><trkpt lat="41.968486959849926" lon="13.113631043064649"><ele>1409.6666666666667</ele><time>2026-03-29T10:25:19Z</time></trkpt><trkpt lat="41.96842424141751" lon="13.113681064930608"><ele>1409.8333333333333</ele><time>2026-03-29T10:25:20Z</time></trkpt><trkpt lat="41.96835964062739" lon="13.113732892776332"><ele>1410.0</ele><time>2026-03-29T10:25:21Z</time></trkpt><trkpt lat="41.968293642950904" lon="13.113785601938146"><ele>1409.8333333333333</ele><time>2026-03-29T10:25:22Z</time></trkpt><trkpt lat="41.96822450341738" lon="13.113839463246665"><ele>1409.6666666666667</ele><time>2026-03-29T10:25:23Z</time></trkpt><trkpt lat="41.968164171849736" lon="13.113886463059028"><ele>1409.5</ele><time>2026-03-29T10:25:24Z</time></trkpt><trkpt lat="41.96809985238106" lon="13.11393724786537"><ele>1409.3333333333335</ele><time>2026-03-29T10:25:25Z</time></trkpt><trkpt lat="41.96803145306473" lon="13.113992112293175"><ele>1409.1666666666667</ele><time>2026-03-29T10:25:26Z</time></trkpt><trkpt lat="41.96796599339795" lon="13.11404721276285"><ele>1409.0</ele><time>2026-03-29T10:25:27Z</time></trkpt><trkpt lat="41.96790036594036" lon="13.114102389551178"><ele>1409.0</ele><time>2026-03-29T10:25:28Z</time></trkpt><trkpt lat="41.96784311390837" lon="13.114152585018578"><ele>1409.0</ele><time>2026-03-29T10:25:29Z</time></trkpt><trkpt lat="41.96778291423774" lon="13.114205364846883"><ele>1409.0</ele><time>2026-03-29T10:25:30Z</time></trkpt><trkpt lat="41.96772058716494" lon="13.114260009917698"><ele>1409.0</ele><time>2026-03-29T10:25:31Z</time></trkpt><trkpt lat="41.9676611462536" lon="13.11430972802642"><ele>1409.0</ele><time>2026-03-29T10:25:32Z</time></trkpt><trkpt lat="41.96759339267173" lon="13.114355626357789"><ele>1409.0</ele><time>2026-03-29T10:25:37Z</time></trkpt><trkpt lat="41.96750777819787" lon="13.114392245550802"><ele>1409.0</ele><time>2026-03-29T10:25:48Z</time></trkpt><trkpt lat="41.96742750820812" lon="13.114405175269495"><ele>1409.0</ele><time>2026-03-29T10:25:51Z</time></trkpt><trkpt lat="41.96733826715346" lon="13.114412788952087"><ele>1409.0</ele><time>2026-03-29T10:25:54Z</time></trkpt><trkpt lat="41.96726869496032" lon="13.114420692018516"><ele>1409.0</ele><time>2026-03-29T10:25:55.999Z</time></trkpt><trkpt lat="41.96719354538187" lon="13.11444882979006"><ele>1409.0</ele><time>2026-03-29T10:25:57.999Z</time></trkpt><trkpt lat="41.96709099898971" lon="13.114442250000232"><ele>1409.0</ele><time>2026-03-29T10:25:59.999Z</time></trkpt><trkpt lat="41.96698871238288" lon="13.114455232186485"><ele>1409.0</ele><time>2026-03-29T10:26:01.999Z</time></trkpt><trkpt lat="41.966888063808305" lon="13.1144732449417"><ele>1409.0</ele><time>2026-03-29T10:26:03.999Z</time></trkpt><trkpt lat="41.96677259043038" lon="13.114525238223274"><ele>1409.0</ele><time>2026-03-29T10:26:05.999Z</time></trkpt><trkpt lat="41.96667092235892" lon="13.114599771147283"><ele>1409.0</ele><time>2026-03-29T10:26:07.999Z</time></trkpt><trkpt lat="41.96657785111191" lon="13.114630876904425"><ele>1409.0</ele><time>2026-03-29T10:26:09.999Z</time></trkpt><trkpt lat="41.96647016260115" lon="13.114604845309092"><ele>1409.75</ele><time>2026-03-29T10:26:11.999Z</time></trkpt><trkpt lat="41.9663724110496" lon="13.114575176128355"><ele>1410.5</ele><time>2026-03-29T10:26:13.999Z</time></trkpt><trkpt lat="41.96626605524403" lon="13.114542881802244"><ele>1411.25</ele><time>2026-03-29T10:26:15.999Z</time></trkpt><trkpt lat="41.96615080878047" lon="13.11454961392647"><ele>1412.0</ele><time>2026-03-29T10:26:17.999Z</time></trkpt><trkpt lat="41.966039574989004" lon="13.114632240303706"><ele>1412.0</ele><time>2026-03-29T10:26:19.999Z</time></trkpt><trkpt lat="41.96599250940518" lon="13.11470147232019"><ele>1412.0</ele><time>2026-03-29T10:26:20.999Z</time></trkpt><trkpt lat="41.96595536608164" lon="13.114778262337255"><ele>1412.0</ele><time>2026-03-29T10:26:21.999Z</time></trkpt><trkpt lat="41.96592114148074" lon="13.114851620142229"><ele>1412.0</ele><time>2026-03-29T10:26:22.999Z</time></trkpt><trkpt lat="41.96590044505074" lon="13.114932418817563"><ele>1412.0</ele><time>2026-03-29T10:26:23.999Z</time></trkpt><trkpt lat="41.9658274326463" lon="13.115064577240888"><ele>1412.0</ele><time>2026-03-29T10:26:25.999Z</time></trkpt><trkpt lat="41.965748558446144" lon="13.115197594380685"><ele>1412.2857142857142</ele><time>2026-03-29T10:26:27.999Z</time></trkpt><trkpt lat="41.965713637652655" lon="13.115273881035945"><ele>1412.5714285714287</ele><time>2026-03-29T10:26:28.999Z</time></trkpt><trkpt lat="41.965679491507345" lon="13.115356344576998"><ele>1412.857142857143</ele><time>2026-03-29T10:26:29.999Z</time></trkpt><trkpt lat="41.96565658268807" lon="13.11543627930533"><ele>1413.142857142857</ele><time>2026-03-29T10:26:30.999Z</time></trkpt><trkpt lat="41.965639363255306" lon="13.11552780452061"><ele>1413.4285714285716</ele><time>2026-03-29T10:26:31.999Z</time></trkpt><trkpt lat="41.965601300636685" lon="13.115618974615634"><ele>1413.7142857142858</ele><time>2026-03-29T10:26:32.999Z</time></trkpt><trkpt lat="41.96558578970733" lon="13.115706707477445"><ele>1414.0</ele><time>2026-03-29T10:26:33.999Z</time></trkpt><trkpt lat="41.96553951774416" lon="13.11577987062434"><ele>1414.2857142857142</ele><time>2026-03-29T10:26:34.999Z</time></trkpt><trkpt lat="41.96547214568207" lon="13.115801070499822"><ele>1414.5714285714284</ele><time>2026-03-29T10:26:35.999Z</time></trkpt><trkpt lat="41.965409255359255" lon="13.115836751085466"><ele>1414.857142857143</ele><time>2026-03-29T10:26:36.999Z</time></trkpt><trkpt lat="41.965340029507345" lon="13.115893953117826"><ele>1415.142857142857</ele><time>2026-03-29T10:26:37.999Z</time></trkpt><trkpt lat="41.965282849113684" lon="13.115949080345265"><ele>1415.4285714285713</ele><time>2026-03-29T10:26:38.999Z</time></trkpt><trkpt lat="41.965219454502375" lon="13.11600040785093"><ele>1415.7142857142858</ele><time>2026-03-29T10:26:39.999Z</time></trkpt><trkpt lat="41.9651516387032" lon="13.116055315050929"><ele>1416.0</ele><time>2026-03-29T10:26:40.999Z</time></trkpt><trkpt lat="41.96508907319373" lon="13.116098548875584"><ele>1415.0</ele><time>2026-03-29T10:26:41.999Z</time></trkpt><trkpt lat="41.96502379674516" lon="13.116132153140995"><ele>1414.0</ele><time>2026-03-29T10:26:42.999Z</time></trkpt><trkpt lat="41.964948428112706" lon="13.116154327280052"><ele>1413.0</ele><time>2026-03-29T10:26:43.999Z</time></trkpt><trkpt lat="41.96487018563614" lon="13.116179544698351"><ele>1412.0</ele><time>2026-03-29T10:26:44.999Z</time></trkpt><trkpt lat="41.96478917458297" lon="13.116205654202746"><ele>1411.0</ele><time>2026-03-29T10:26:45.999Z</time></trkpt><trkpt lat="41.964710056340266" lon="13.116232175016354"><ele>1410.0</ele><time>2026-03-29T10:26:46.999Z</time></trkpt><trkpt lat="41.96463369181666" lon="13.116260504853317"><ele>1410.0</ele><time>2026-03-29T10:26:47.999Z</time></trkpt><trkpt lat="41.96456248911899" lon="13.116289005998333"><ele>1410.0</ele><time>2026-03-29T10:26:48.999Z</time></trkpt><trkpt lat="41.96448949308097" lon="13.116323484641844"><ele>1410.0</ele><time>2026-03-29T10:26:49.999Z</time></trkpt><trkpt lat="41.96441734481145" lon="13.116366326755557"><ele>1410.0</ele><time>2026-03-29T10:26:50.999Z</time></trkpt><trkpt lat="41.96434151034613" lon="13.116427292263163"><ele>1410.0</ele><time>2026-03-29T10:26:51.999Z</time></trkpt><trkpt lat="41.96427651353868" lon="13.116496031498496"><ele>1410.0</ele><time>2026-03-29T10:26:52.999Z</time></trkpt><trkpt lat="41.96421702866329" lon="13.116585256221255"><ele>1409.3333333333333</ele><time>2026-03-29T10:26:53.999Z</time></trkpt><trkpt lat="41.96415449345529" lon="13.116678987904292"><ele>1408.6666666666667</ele><time>2026-03-29T10:26:54.999Z</time></trkpt><trkpt lat="41.964099281288206" lon="13.116773603830122"><ele>1408.0</ele><time>2026-03-29T10:26:55.998Z</time></trkpt><trkpt lat="41.96406292805118" lon="13.116879789437778"><ele>1407.3333333333335</ele><time>2026-03-29T10:26:56.998Z</time></trkpt><trkpt lat="41.96401821995939" lon="13.11696374688927"><ele>1406.6666666666667</ele><time>2026-03-29T10:26:57.998Z</time></trkpt><trkpt lat="41.96397831417428" lon="13.117043178250569"><ele>1406.0</ele><time>2026-03-29T10:26:58.998Z</time></trkpt><trkpt lat="41.9639330669036" lon="13.117142119304969"><ele>1406.0</ele><time>2026-03-29T10:26:59.998Z</time></trkpt><trkpt lat="41.96389166222004" lon="13.117246382804165"><ele>1406.0</ele><time>2026-03-29T10:27:00.998Z</time></trkpt><trkpt lat="41.96385471183601" lon="13.11734387647934"><ele>1406.0</ele><time>2026-03-29T10:27:01.998Z</time></trkpt><trkpt lat="41.96381810022646" lon="13.117455525411224"><ele>1406.0</ele><time>2026-03-29T10:27:02.998Z</time></trkpt><trkpt lat="41.96377322580372" lon="13.117540259707184"><ele>1406.0</ele><time>2026-03-29T10:27:03.998Z</time></trkpt><trkpt lat="41.96374101931144" lon="13.117635783122667"><ele>1406.0</ele><time>2026-03-29T10:27:04.998Z</time></trkpt><trkpt lat="41.96371262425062" lon="13.117745422145099"><ele>1406.3333333333335</ele><time>2026-03-29T10:27:05.998Z</time></trkpt><trkpt lat="41.963686953947594" lon="13.11785351297518"><ele>1406.6666666666667</ele><time>2026-03-29T10:27:06.998Z</time></trkpt><trkpt lat="41.96366417638778" lon="13.117962862180061"><ele>1407.0</ele><time>2026-03-29T10:27:07.998Z</time></trkpt><trkpt lat="41.96364254021339" lon="13.118073023739356"><ele>1407.3333333333333</ele><time>2026-03-29T10:27:08.998Z</time></trkpt><trkpt lat="41.96362201466315" lon="13.118179246963075"><ele>1407.6666666666665</ele><time>2026-03-29T10:27:10Z</time></trkpt><trkpt lat="41.96360071409098" lon="13.118279395205414"><ele>1408.0</ele><time>2026-03-29T10:27:11Z</time></trkpt><trkpt lat="41.96358224414994" lon="13.118386843970342"><ele>1408.3333333333333</ele><time>2026-03-29T10:27:12Z</time></trkpt><trkpt lat="41.96356872198783" lon="13.118487946196293"><ele>1408.6666666666665</ele><time>2026-03-29T10:27:13Z</time></trkpt><trkpt lat="41.96356882899203" lon="13.11859735235355"><ele>1409.0</ele><time>2026-03-29T10:27:14Z</time></trkpt><trkpt lat="41.96356488154286" lon="13.118699632066036"><ele>1409.3333333333333</ele><time>2026-03-29T10:27:15Z</time></trkpt><trkpt lat="41.963555273088375" lon="13.118817196342969"><ele>1409.6666666666667</ele><time>2026-03-29T10:27:16Z</time></trkpt><trkpt lat="41.96354614726272" lon="13.118928479329249"><ele>1410.0</ele><time>2026-03-29T10:27:17Z</time></trkpt><trkpt lat="41.963541007663494" lon="13.119038731201865"><ele>1409.8333333333333</ele><time>2026-03-29T10:27:18Z</time></trkpt><trkpt lat="41.96354234741607" lon="13.119147391464894"><ele>1409.6666666666667</ele><time>2026-03-29T10:27:19Z</time></trkpt><trkpt lat="41.96354313684118" lon="13.119258163529445"><ele>1409.5</ele><time>2026-03-29T10:27:20Z</time></trkpt><trkpt lat="41.96354669274548" lon="13.119363419512313"><ele>1409.3333333333335</ele><time>2026-03-29T10:27:21Z</time></trkpt><trkpt lat="41.96354745130454" lon="13.119460465749395"><ele>1409.1666666666667</ele><time>2026-03-29T10:27:22Z</time></trkpt><trkpt lat="41.96354688101092" lon="13.11956052665186"><ele>1409.0</ele><time>2026-03-29T10:27:23Z</time></trkpt><trkpt lat="41.9635455717326" lon="13.119652022400475"><ele>1409.0</ele><time>2026-03-29T10:27:24Z</time></trkpt><trkpt lat="41.96353831757936" lon="13.119751443845843"><ele>1409.0</ele><time>2026-03-29T10:27:25Z</time></trkpt><trkpt lat="41.963528494362365" lon="13.119845528237619"><ele>1409.0</ele><time>2026-03-29T10:27:26Z</time></trkpt><trkpt lat="41.963497172970776" lon="13.119963366701347"><ele>1409.0</ele><time>2026-03-29T10:27:28Z</time></trkpt><trkpt lat="41.963491287270465" lon="13.12008371939692"><ele>1409.0</ele><time>2026-03-29T10:28:26.999Z</time></trkpt><trkpt lat="41.96349283927233" lon="13.120221245365277"><ele>1409.0</ele><time>2026-03-29T10:28:28.999Z</time></trkpt><trkpt lat="41.963492652452786" lon="13.120374869842106"><ele>1408.8333333333335</ele><time>2026-03-29T10:28:30.999Z</time></trkpt><trkpt lat="41.963480603326836" lon="13.120548217651754"><ele>1408.6666666666667</ele><time>2026-03-29T10:28:32.999Z</time></trkpt><trkpt lat="41.96347107428734" lon="13.120656403856398"><ele>1408.5</ele><time>2026-03-29T10:28:33.999Z</time></trkpt><trkpt lat="41.96346236150128" lon="13.12075915343198"><ele>1408.3333333333333</ele><time>2026-03-29T10:28:34.999Z</time></trkpt><trkpt lat="41.963454642917696" lon="13.120853221417862"><ele>1408.1666666666665</ele><time>2026-03-29T10:28:35.999Z</time></trkpt><trkpt lat="41.963446752737894" lon="13.120949380710195"><ele>1408.0</ele><time>2026-03-29T10:28:36.999Z</time></trkpt><trkpt lat="41.96344211064094" lon="13.12105074676163"><ele>1407.0</ele><time>2026-03-29T10:28:37.999Z</time></trkpt><trkpt lat="41.96344270571827" lon="13.121152469162462"><ele>1406.0</ele><time>2026-03-29T10:28:38.999Z</time></trkpt><trkpt lat="41.96344021303998" lon="13.121249869275072"><ele>1405.0</ele><time>2026-03-29T10:28:39.999Z</time></trkpt><trkpt lat="41.9634308325907" lon="13.121350099878828"><ele>1404.0</ele><time>2026-03-29T10:28:40.999Z</time></trkpt><trkpt lat="41.963398787683516" lon="13.121506709654637"><ele>1403.0</ele><time>2026-03-29T10:28:42.999Z</time></trkpt><trkpt lat="41.96332559022447" lon="13.121612064381095"><ele>1401.0</ele><time>2026-03-29T10:28:44.999Z</time></trkpt><trkpt lat="41.96320594791558" lon="13.12164348800256"><ele>1399.0</ele><time>2026-03-29T10:28:46.999Z</time></trkpt><trkpt lat="41.96307443256929" lon="13.121669087039965"><ele>1397.0</ele><time>2026-03-29T10:28:48.999Z</time></trkpt><trkpt lat="41.963012010162075" lon="13.121654487778592"><ele>1395.0</ele><time>2026-03-29T10:28:49.999Z</time></trkpt><trkpt lat="41.96293935984496" lon="13.121634826650968"><ele>1393.0</ele><time>2026-03-29T10:28:50.999Z</time></trkpt><trkpt lat="41.96286746978561" lon="13.121613253830063"><ele>1393.0</ele><time>2026-03-29T10:28:51.999Z</time></trkpt><trkpt lat="41.962786949804915" lon="13.121588137499716"><ele>1393.0</ele><time>2026-03-29T10:28:52.999Z</time></trkpt><trkpt lat="41.962702842162756" lon="13.121562542653432"><ele>1393.0</ele><time>2026-03-29T10:28:53.999Z</time></trkpt><trkpt lat="41.96262001748311" lon="13.12153770167857"><ele>1393.0</ele><time>2026-03-29T10:28:54.999Z</time></trkpt><trkpt lat="41.962543177312924" lon="13.121518985581146"><ele>1393.0</ele><time>2026-03-29T10:28:55.999Z</time></trkpt><trkpt lat="41.962449456967214" lon="13.121498876855343"><ele>1393.0</ele><time>2026-03-29T10:28:56.999Z</time></trkpt><trkpt lat="41.96236814002788" lon="13.121483290186335"><ele>1394.0</ele><time>2026-03-29T10:28:57.999Z</time></trkpt><trkpt lat="41.962284625964415" lon="13.121466231327018"><ele>1395.0</ele><time>2026-03-29T10:28:58.999Z</time></trkpt><trkpt lat="41.96220240269422" lon="13.121448343990362"><ele>1396.0</ele><time>2026-03-29T10:28:59.998Z</time></trkpt><trkpt lat="41.962116286041976" lon="13.12142862464125"><ele>1397.0</ele><time>2026-03-29T10:29:00.998Z</time></trkpt><trkpt lat="41.96203939006275" lon="13.121411016681998"><ele>1398.0</ele><time>2026-03-29T10:29:01.998Z</time></trkpt><trkpt lat="41.961963451804756" lon="13.121393966865968"><ele>1399.0</ele><time>2026-03-29T10:29:02.998Z</time></trkpt><trkpt lat="41.96189170206324" lon="13.121380032013114"><ele>1399.0</ele><time>2026-03-29T10:29:03.998Z</time></trkpt><trkpt lat="41.96182059921668" lon="13.12136598982026"><ele>1399.0</ele><time>2026-03-29T10:29:04.998Z</time></trkpt><trkpt lat="41.96174468203575" lon="13.121364579029697"><ele>1399.0</ele><time>2026-03-29T10:29:05.998Z</time></trkpt><trkpt lat="41.96168213178242" lon="13.121320851558163"><ele>1399.0</ele><time>2026-03-29T10:29:06.998Z</time></trkpt><trkpt lat="41.961569248063775" lon="13.121274102737216"><ele>1399.0</ele><time>2026-03-29T10:29:08.998Z</time></trkpt><trkpt lat="41.961454569506294" lon="13.12125444625449"><ele>1399.0</ele><time>2026-03-29T10:29:10.998Z</time></trkpt><trkpt lat="41.96139104436357" lon="13.121274167168439"><ele>1399.0</ele><time>2026-03-29T10:29:11.998Z</time></trkpt><trkpt lat="41.961270231332136" lon="13.121333664191912"><ele>1399.0</ele><time>2026-03-29T10:29:13.998Z</time></trkpt><trkpt lat="41.96119872503126" lon="13.121349219496077"><ele>1399.0</ele><time>2026-03-29T10:29:14.998Z</time></trkpt><trkpt lat="41.96112949790624" lon="13.121393893708383"><ele>1399.0</ele><time>2026-03-29T10:29:16Z</time></trkpt><trkpt lat="41.96106412506755" lon="13.121451131448296"><ele>1399.0</ele><time>2026-03-29T10:29:17Z</time></trkpt><trkpt lat="41.961010724139726" lon="13.12152911487467"><ele>1397.6</ele><time>2026-03-29T10:29:18Z</time></trkpt><trkpt lat="41.96095369884817" lon="13.121673555596926"><ele>1396.2</ele><time>2026-03-29T10:29:20Z</time></trkpt><trkpt lat="41.960887416611776" lon="13.121831881220233"><ele>1394.8</ele><time>2026-03-29T10:29:22Z</time></trkpt><trkpt lat="41.9608406487863" lon="13.12189193668538"><ele>1393.3999999999999</ele><time>2026-03-29T10:29:23Z</time></trkpt><trkpt lat="41.960781452267135" lon="13.121930156652018"><ele>1392.0</ele><time>2026-03-29T10:29:24Z</time></trkpt><trkpt lat="41.96070822563422" lon="13.122012649890214"><ele>1394.8</ele><time>2026-03-29T10:29:25Z</time></trkpt><trkpt lat="41.960632565512036" lon="13.12213017253108"><ele>1397.6</ele><time>2026-03-29T10:29:26Z</time></trkpt><trkpt lat="41.960554645429085" lon="13.122233521120375"><ele>1400.3999999999999</ele><time>2026-03-29T10:29:27Z</time></trkpt><trkpt lat="41.960484619173386" lon="13.122297289558288"><ele>1403.1999999999998</ele><time>2026-03-29T10:29:28Z</time></trkpt><trkpt lat="41.96041122966987" lon="13.122344876719035"><ele>1406.0</ele><time>2026-03-29T10:29:29Z</time></trkpt><trkpt lat="41.96032779098924" lon="13.122396348955073"><ele>1404.8333333333335</ele><time>2026-03-29T10:29:30Z</time></trkpt><trkpt lat="41.960253156117126" lon="13.12245091938782"><ele>1403.6666666666667</ele><time>2026-03-29T10:29:31Z</time></trkpt><trkpt lat="41.96019113505191" lon="13.122527698161791"><ele>1402.5</ele><time>2026-03-29T10:29:32Z</time></trkpt><trkpt lat="41.96014092721126" lon="13.122604965205733"><ele>1401.3333333333333</ele><time>2026-03-29T10:29:33Z</time></trkpt><trkpt lat="41.96010802285744" lon="13.122708133193576"><ele>1400.1666666666665</ele><time>2026-03-29T10:29:34Z</time></trkpt><trkpt lat="41.96006946339722" lon="13.122819404192697"><ele>1399.0</ele><time>2026-03-29T10:29:35Z</time></trkpt><trkpt lat="41.96001481329643" lon="13.122943946039177"><ele>1400.6666666666665</ele><time>2026-03-29T10:29:36Z</time></trkpt><trkpt lat="41.95996349838561" lon="13.123037371616816"><ele>1402.3333333333333</ele><time>2026-03-29T10:29:37Z</time></trkpt><trkpt lat="41.95991251232425" lon="13.12311711801345"><ele>1404.0</ele><time>2026-03-29T10:29:38Z</time></trkpt><trkpt lat="41.959858026120585" lon="13.123187330041226"><ele>1405.6666666666667</ele><time>2026-03-29T10:29:39Z</time></trkpt><trkpt lat="41.959795070221716" lon="13.123231012834692"><ele>1407.3333333333335</ele><time>2026-03-29T10:29:40Z</time></trkpt><trkpt lat="41.959725423777975" lon="13.123239592947305"><ele>1409.0</ele><time>2026-03-29T10:29:41Z</time></trkpt><trkpt lat="41.95958859008835" lon="13.1232006988088"><ele>1409.0</ele><time>2026-03-29T10:29:43Z</time></trkpt><trkpt lat="41.9595030122707" lon="13.12320814067125"><ele>1409.0</ele><time>2026-03-29T10:29:44Z</time></trkpt><trkpt lat="41.95943035059778" lon="13.123242255076846"><ele>1409.0</ele><time>2026-03-29T10:29:45Z</time></trkpt><trkpt lat="41.959384460813546" lon="13.123327565762704"><ele>1409.0</ele><time>2026-03-29T10:29:46Z</time></trkpt><trkpt lat="41.959362109238235" lon="13.123432252027172"><ele>1409.0</ele><time>2026-03-29T10:29:47Z</time></trkpt><trkpt lat="41.959365845736016" lon="13.123529924338293"><ele>1409.0</ele><time>2026-03-29T10:29:48Z</time></trkpt><trkpt lat="41.95936466134182" lon="13.123632763329729"><ele>1409.0</ele><time>2026-03-29T10:29:49Z</time></trkpt><trkpt lat="41.95933188891578" lon="13.123785265712272"><ele>1409.0</ele><time>2026-03-29T10:29:51Z</time></trkpt><trkpt lat="41.95929004829027" lon="13.123853177100465"><ele>1409.0</ele><time>2026-03-29T10:29:52Z</time></trkpt><trkpt lat="41.959230025215426" lon="13.123897498498508"><ele>1409.0</ele><time>2026-03-29T10:29:53Z</time></trkpt><trkpt lat="41.95912407904798" lon="13.123849459410591"><ele>1409.0</ele><time>2026-03-29T10:29:54Z</time></trkpt><trkpt lat="41.95904180205177" lon="13.12391310703894"><ele>1409.8333333333335</ele><time>2026-03-29T10:29:55Z</time></trkpt><trkpt lat="41.958983131891294" lon="13.123975297755468"><ele>1410.6666666666667</ele><time>2026-03-29T10:29:56Z</time></trkpt><trkpt lat="41.958939792235" lon="13.124053023296142"><ele>1411.5</ele><time>2026-03-29T10:29:57Z</time></trkpt><trkpt lat="41.958915266781105" lon="13.124135388434588"><ele>1412.3333333333333</ele><time>2026-03-29T10:29:58Z</time></trkpt><trkpt lat="41.95893379061903" lon="13.12425129576568"><ele>1413.1666666666665</ele><time>2026-03-29T10:29:59Z</time></trkpt><trkpt lat="41.958923136558845" lon="13.124378320194943"><ele>1414.0</ele><time>2026-03-29T10:30:00Z</time></trkpt><trkpt lat="41.95889716292577" lon="13.124514846424756"><ele>1414.0</ele><time>2026-03-29T10:30:01Z</time></trkpt><trkpt lat="41.95888704651964" lon="13.12464353269476"><ele>1414.0</ele><time>2026-03-29T10:30:02Z</time></trkpt><trkpt lat="41.958876001877066" lon="13.124766668893528"><ele>1414.0</ele><time>2026-03-29T10:30:03Z</time></trkpt><trkpt lat="41.95886038289944" lon="13.124852944050422"><ele>1414.0</ele><time>2026-03-29T10:30:04Z</time></trkpt><trkpt lat="41.95881696942511" lon="13.1249529803026"><ele>1414.0</ele><time>2026-03-29T10:30:06Z</time></trkpt><trkpt lat="41.958729313566636" lon="13.125087370272363"><ele>1414.1666666666665</ele><time>2026-03-29T10:30:07.999Z</time></trkpt><trkpt lat="41.95867889557607" lon="13.125169449430041"><ele>1414.3333333333333</ele><time>2026-03-29T10:30:08.999Z</time></trkpt><trkpt lat="41.958628913967495" lon="13.125254873003984"><ele>1414.5</ele><time>2026-03-29T10:30:09.999Z</time></trkpt><trkpt lat="41.95858908361682" lon="13.125334914626889"><ele>1414.6666666666667</ele><time>2026-03-29T10:30:10.999Z</time></trkpt><trkpt lat="41.95855259807959" lon="13.125411236321435"><ele>1414.8333333333335</ele><time>2026-03-29T10:30:11.999Z</time></trkpt><trkpt lat="41.95851453675558" lon="13.125493817680338"><ele>1415.0</ele><time>2026-03-29T10:30:12.999Z</time></trkpt><trkpt lat="41.958439860635565" lon="13.125655841929406"><ele>1415.0</ele><time>2026-03-29T10:30:14.999Z</time></trkpt><trkpt lat="41.95840543526701" lon="13.125731360557507"><ele>1415.0</ele><time>2026-03-29T10:30:15.999Z</time></trkpt><trkpt lat="41.958367232218684" lon="13.1258152305491"><ele>1415.0</ele><time>2026-03-29T10:30:16.999Z</time></trkpt><trkpt lat="41.95832436669177" lon="13.12590933630455"><ele>1415.0</ele><time>2026-03-29T10:30:17.999Z</time></trkpt><trkpt lat="41.958283505136514" lon="13.125995187075414"><ele>1415.0</ele><time>2026-03-29T10:30:18.999Z</time></trkpt><trkpt lat="41.95822620520837" lon="13.126095993496957"><ele>1415.0</ele><time>2026-03-29T10:30:19.999Z</time></trkpt><trkpt lat="41.95815944255551" lon="13.126194070497501"><ele>1417.25</ele><time>2026-03-29T10:30:20.999Z</time></trkpt><trkpt lat="41.95809599544267" lon="13.126345525749722"><ele>1419.5</ele><time>2026-03-29T10:30:21.999Z</time></trkpt><trkpt lat="41.95804825372314" lon="13.126475044498504"><ele>1421.75</ele><time>2026-03-29T10:30:22.999Z</time></trkpt><trkpt lat="41.95801347719866" lon="13.126570421404292"><ele>1424.0</ele><time>2026-03-29T10:30:23.999Z</time></trkpt><trkpt lat="41.957937765123056" lon="13.126731062746558"><ele>1424.8000000000002</ele><time>2026-03-29T10:30:25.999Z</time></trkpt><trkpt lat="41.95787372326155" lon="13.126829490642637"><ele>1425.6000000000001</ele><time>2026-03-29T10:30:26.999Z</time></trkpt><trkpt lat="41.957816600277845" lon="13.126912580738574"><ele>1426.4</ele><time>2026-03-29T10:30:27.999Z</time></trkpt><trkpt lat="41.957752336007765" lon="13.127005811783913"><ele>1427.2</ele><time>2026-03-29T10:30:28.999Z</time></trkpt><trkpt lat="41.957680225702326" lon="13.127110425519106"><ele>1428.0</ele><time>2026-03-29T10:30:29.999Z</time></trkpt><trkpt lat="41.95760451133208" lon="13.127220267755087"><ele>1428.8000000000002</ele><time>2026-03-29T10:30:30.999Z</time></trkpt><trkpt lat="41.95753177742724" lon="13.127325786180524"><ele>1429.6</ele><time>2026-03-29T10:30:31.999Z</time></trkpt><trkpt lat="41.95746075051116" lon="13.127432886051926"><ele>1430.4</ele><time>2026-03-29T10:30:32.999Z</time></trkpt><trkpt lat="41.95738841810184" lon="13.127539703481311"><ele>1431.1999999999998</ele><time>2026-03-29T10:30:33.999Z</time></trkpt><trkpt lat="41.95732163141271" lon="13.1276326833562"><ele>1432.0</ele><time>2026-03-29T10:30:34.999Z</time></trkpt><trkpt lat="41.957258573283035" lon="13.127712926621438"><ele>1432.0</ele><time>2026-03-29T10:30:35.999Z</time></trkpt><trkpt lat="41.95719898236185" lon="13.127788109640314"><ele>1432.0</ele><time>2026-03-29T10:30:36.999Z</time></trkpt><trkpt lat="41.95714695738236" lon="13.127856445453073"><ele>1432.0</ele><time>2026-03-29T10:30:37.999Z</time></trkpt><trkpt lat="41.95709590134764" lon="13.127925159091902"><ele>1432.0</ele><time>2026-03-29T10:30:38.999Z</time></trkpt><trkpt lat="41.95703448349161" lon="13.128012660632095"><ele>1432.0</ele><time>2026-03-29T10:30:39.999Z</time></trkpt><trkpt lat="41.956971287429475" lon="13.128117684861824"><ele>1432.0</ele><time>2026-03-29T10:30:40.999Z</time></trkpt><trkpt lat="41.95691945965624" lon="13.128237978393399"><ele>1434.0</ele><time>2026-03-29T10:30:41.999Z</time></trkpt><trkpt lat="41.95687722798709" lon="13.12834111994327"><ele>1436.0</ele><time>2026-03-29T10:30:42.999Z</time></trkpt><trkpt lat="41.95683136290782" lon="13.128438726559352"><ele>1438.0</ele><time>2026-03-29T10:30:43.999Z</time></trkpt><trkpt lat="41.956772996938355" lon="13.128530810454114"><ele>1440.0</ele><time>2026-03-29T10:30:44.999Z</time></trkpt><trkpt lat="41.956706754205115" lon="13.128634861742828"><ele>1442.0</ele><time>2026-03-29T10:30:45.999Z</time></trkpt><trkpt lat="41.95663280955827" lon="13.128752199842719"><ele>1440.1999999999998</ele><time>2026-03-29T10:30:46.999Z</time></trkpt><trkpt lat="41.95655800165666" lon="13.128871056800069"><ele>1438.4</ele><time>2026-03-29T10:30:47.999Z</time></trkpt><trkpt lat="41.956488141098674" lon="13.128980274122856"><ele>1436.6</ele><time>2026-03-29T10:30:48.999Z</time></trkpt><trkpt lat="41.9564170178404" lon="13.129089641179242"><ele>1434.8000000000002</ele><time>2026-03-29T10:30:49.999Z</time></trkpt><trkpt lat="41.95634970790904" lon="13.129190749556068"><ele>1433.0</ele><time>2026-03-29T10:30:50.999Z</time></trkpt><trkpt lat="41.95627618733667" lon="13.129293562208012"><ele>1433.0</ele><time>2026-03-29T10:30:51.999Z</time></trkpt><trkpt lat="41.956210051108826" lon="13.12938395487092"><ele>1433.0</ele><time>2026-03-29T10:30:52.999Z</time></trkpt><trkpt lat="41.95614008294161" lon="13.1294616020137"><ele>1433.0</ele><time>2026-03-29T10:30:53.999Z</time></trkpt><trkpt lat="41.95607782128817" lon="13.129503272247401"><ele>1433.0</ele><time>2026-03-29T10:30:54.999Z</time></trkpt><trkpt lat="41.95600328008892" lon="13.129556932399145"><ele>1433.0</ele><time>2026-03-29T10:30:55.999Z</time></trkpt><trkpt lat="41.955935632434404" lon="13.129606576510499"><ele>1433.0</ele><time>2026-03-29T10:30:56.999Z</time></trkpt><trkpt lat="41.955869106482446" lon="13.129658998604166"><ele>1432.3333333333335</ele><time>2026-03-29T10:30:57.999Z</time></trkpt><trkpt lat="41.95579617710284" lon="13.129716510122323"><ele>1431.6666666666667</ele><time>2026-03-29T10:30:58.999Z</time></trkpt><trkpt lat="41.95572780833704" lon="13.129764499070877"><ele>1431.0</ele><time>2026-03-29T10:30:59.999Z</time></trkpt><trkpt lat="41.95565663192652" lon="13.129808365776858"><ele>1430.3333333333333</ele><time>2026-03-29T10:31:01.999Z</time></trkpt><trkpt lat="41.95555583931703" lon="13.129866609309255"><ele>1429.6666666666665</ele><time>2026-03-29T10:31:04.999Z</time></trkpt><trkpt lat="41.955489469536865" lon="13.129904804259883"><ele>1429.0</ele><time>2026-03-29T10:31:05.999Z</time></trkpt><trkpt lat="41.95541398706066" lon="13.129950279902927"><ele>1429.0</ele><time>2026-03-29T10:31:06.998Z</time></trkpt><trkpt lat="41.95533884949374" lon="13.129996366879949"><ele>1429.0</ele><time>2026-03-29T10:31:07.998Z</time></trkpt><trkpt lat="41.95525843810439" lon="13.13004679759854"><ele>1429.0</ele><time>2026-03-29T10:31:08.998Z</time></trkpt><trkpt lat="41.95518371049188" lon="13.130098438456782"><ele>1429.0</ele><time>2026-03-29T10:31:09.998Z</time></trkpt><trkpt lat="41.95510415874875" lon="13.130165250792464"><ele>1429.0</ele><time>2026-03-29T10:31:10.998Z</time></trkpt><trkpt lat="41.955020196301874" lon="13.130239142417022"><ele>1429.0</ele><time>2026-03-29T10:31:11.998Z</time></trkpt><trkpt lat="41.95493547351024" lon="13.130315295035107"><ele>1429.2</ele><time>2026-03-29T10:31:12.998Z</time></trkpt><trkpt lat="41.95485239854359" lon="13.130391945456774"><ele>1429.4</ele><time>2026-03-29T10:31:13.998Z</time></trkpt><trkpt lat="41.95476320968237" lon="13.130475091649904"><ele>1429.6</ele><time>2026-03-29T10:31:14.998Z</time></trkpt><trkpt lat="41.95468096362295" lon="13.13055480004356"><ele>1429.8</ele><time>2026-03-29T10:31:15.998Z</time></trkpt><trkpt lat="41.95459951653922" lon="13.13063825838409"><ele>1430.0</ele><time>2026-03-29T10:31:16.998Z</time></trkpt><trkpt lat="41.95452737739445" lon="13.1307333329755"><ele>1430.0</ele><time>2026-03-29T10:31:17.998Z</time></trkpt><trkpt lat="41.95444303187274" lon="13.13081755892404"><ele>1430.0</ele><time>2026-03-29T10:31:18.998Z</time></trkpt><trkpt lat="41.95435213887427" lon="13.130877288683864"><ele>1430.0</ele><time>2026-03-29T10:31:19.998Z</time></trkpt><trkpt lat="41.95426358740195" lon="13.130945435627114"><ele>1430.0</ele><time>2026-03-29T10:31:21Z</time></trkpt><trkpt lat="41.95418787072928" lon="13.131038791301883"><ele>1430.0</ele><time>2026-03-29T10:31:22Z</time></trkpt><trkpt lat="41.954100525449576" lon="13.131098785966321"><ele>1425.8</ele><time>2026-03-29T10:31:23Z</time></trkpt><trkpt lat="41.954002841432974" lon="13.131159001496869"><ele>1421.6</ele><time>2026-03-29T10:31:24Z</time></trkpt><trkpt lat="41.953899770892875" lon="13.131217422505314"><ele>1417.4</ele><time>2026-03-29T10:31:25Z</time></trkpt><trkpt lat="41.953794423909805" lon="13.131239176282882"><ele>1413.2</ele><time>2026-03-29T10:31:26Z</time></trkpt><trkpt lat="41.953693673702496" lon="13.131295212414184"><ele>1409.0</ele><time>2026-03-29T10:31:27Z</time></trkpt><trkpt lat="41.95359417344214" lon="13.131325702342899"><ele>1409.0</ele><time>2026-03-29T10:31:28Z</time></trkpt><trkpt lat="41.95350311611725" lon="13.131347472477893"><ele>1409.0</ele><time>2026-03-29T10:31:29Z</time></trkpt><trkpt lat="41.95342202594462" lon="13.131371714042798"><ele>1409.0</ele><time>2026-03-29T10:31:30Z</time></trkpt><trkpt lat="41.95334451092449" lon="13.131402786370971"><ele>1409.0</ele><time>2026-03-29T10:31:31Z</time></trkpt><trkpt lat="41.953256919824184" lon="13.131449240180533"><ele>1409.0</ele><time>2026-03-29T10:31:32Z</time></trkpt><trkpt lat="41.95317824853042" lon="13.131523064531464"><ele>1409.0</ele><time>2026-03-29T10:31:33Z</time></trkpt><trkpt lat="41.95310774790912" lon="13.131627692819215"><ele>1409.6</ele><time>2026-03-29T10:31:34Z</time></trkpt><trkpt lat="41.95303870190468" lon="13.131726904525152"><ele>1410.2</ele><time>2026-03-29T10:31:35Z</time></trkpt><trkpt lat="41.952963528621396" lon="13.131830339454547"><ele>1410.8</ele><time>2026-03-29T10:31:36Z</time></trkpt><trkpt lat="41.952891833088" lon="13.131943783514407"><ele>1411.3999999999999</ele><time>2026-03-29T10:31:37Z</time></trkpt><trkpt lat="41.95281978577122" lon="13.132069316619358"><ele>1412.0</ele><time>2026-03-29T10:31:38Z</time></trkpt><trkpt lat="41.9527349630748" lon="13.13219709242113"><ele>1412.0</ele><time>2026-03-29T10:31:39Z</time></trkpt><trkpt lat="41.95268535829099" lon="13.13235681499304"><ele>1412.0</ele><time>2026-03-29T10:31:40Z</time></trkpt><trkpt lat="41.95263451279893" lon="13.13249027196019"><ele>1412.0</ele><time>2026-03-29T10:31:41Z</time></trkpt><trkpt lat="41.95256591428334" lon="13.132589997333563"><ele>1412.0</ele><time>2026-03-29T10:31:42Z</time></trkpt><trkpt lat="41.95249980387802" lon="13.132690221940004"><ele>1412.0</ele><time>2026-03-29T10:31:43Z</time></trkpt><trkpt lat="41.95244017794532" lon="13.132799204718228"><ele>1407.75</ele><time>2026-03-29T10:31:44Z</time></trkpt><trkpt lat="41.952345063352425" lon="13.132905236775617"><ele>1403.5</ele><time>2026-03-29T10:31:45Z</time></trkpt><trkpt lat="41.95224858463503" lon="13.13297635791053"><ele>1399.25</ele><time>2026-03-29T10:31:46Z</time></trkpt><trkpt lat="41.952165338647696" lon="13.133086354082055"><ele>1395.0</ele><time>2026-03-29T10:31:47Z</time></trkpt><trkpt lat="41.9520774856871" lon="13.133180405705202"><ele>1393.8</ele><time>2026-03-29T10:31:48Z</time></trkpt><trkpt lat="41.95200087701401" lon="13.133276889935294"><ele>1392.6</ele><time>2026-03-29T10:31:49Z</time></trkpt><trkpt lat="41.951924793802" lon="13.133381497660043"><ele>1391.4</ele><time>2026-03-29T10:31:50Z</time></trkpt><trkpt lat="41.95185164078459" lon="13.13348508761317"><ele>1390.2</ele><time>2026-03-29T10:31:51Z</time></trkpt><trkpt lat="41.95177614065244" lon="13.133591291854064"><ele>1389.0</ele><time>2026-03-29T10:31:52Z</time></trkpt><trkpt lat="41.951705339188" lon="13.133701595734529"><ele>1389.0</ele><time>2026-03-29T10:31:53Z</time></trkpt><trkpt lat="41.95164706855731" lon="13.133812742195579"><ele>1389.0</ele><time>2026-03-29T10:31:54Z</time></trkpt><trkpt lat="41.951591248023" lon="13.13392541026959"><ele>1389.0</ele><time>2026-03-29T10:31:55Z</time></trkpt><trkpt lat="41.95154471016267" lon="13.134048515462625"><ele>1389.0</ele><time>2026-03-29T10:31:56Z</time></trkpt><trkpt lat="41.95149854361644" lon="13.13417538999728"><ele>1389.0</ele><time>2026-03-29T10:31:57Z</time></trkpt><trkpt lat="41.95145270469396" lon="13.13429541108097"><ele>1392.8000000000002</ele><time>2026-03-29T10:31:58Z</time></trkpt><trkpt lat="41.95141463166295" lon="13.134421282365109"><ele>1396.6000000000001</ele><time>2026-03-29T10:31:59Z</time></trkpt><trkpt lat="41.95137633899095" lon="13.134553406873845"><ele>1400.4</ele><time>2026-03-29T10:32:00Z</time></trkpt><trkpt lat="41.95134174190369" lon="13.134684208207718"><ele>1404.2</ele><time>2026-03-29T10:32:01Z</time></trkpt><trkpt lat="41.95130486915607" lon="13.134796912862223"><ele>1408.0</ele><time>2026-03-29T10:32:02Z</time></trkpt><trkpt lat="41.95127513573807" lon="13.134913785296051"><ele>1409.8000000000002</ele><time>2026-03-29T10:32:03Z</time></trkpt><trkpt lat="41.95123945339171" lon="13.135026134530785"><ele>1411.6</ele><time>2026-03-29T10:32:04Z</time></trkpt><trkpt lat="41.95121738819037" lon="13.135142265829261"><ele>1413.4</ele><time>2026-03-29T10:32:05Z</time></trkpt><trkpt lat="41.95118215674689" lon="13.135274575575131"><ele>1415.1999999999998</ele><time>2026-03-29T10:32:06Z</time></trkpt><trkpt lat="41.951161980801245" lon="13.135414340061036"><ele>1417.0</ele><time>2026-03-29T10:32:07Z</time></trkpt><trkpt lat="41.95114410631432" lon="13.135548145938252"><ele>1417.0</ele><time>2026-03-29T10:32:08Z</time></trkpt><trkpt lat="41.951124196281015" lon="13.135682179089487"><ele>1417.0</ele><time>2026-03-29T10:32:08.999Z</time></trkpt><trkpt lat="41.95110774175136" lon="13.135818533083773"><ele>1417.0</ele><time>2026-03-29T10:32:09.999Z</time></trkpt><trkpt lat="41.951073580228574" lon="13.13595526847135"><ele>1417.0</ele><time>2026-03-29T10:32:10.999Z</time></trkpt><trkpt lat="41.95105436329443" lon="13.136086434135676"><ele>1417.0</ele><time>2026-03-29T10:32:11.999Z</time></trkpt><trkpt lat="41.951035808556774" lon="13.136213079911824"><ele>1418.3999999999999</ele><time>2026-03-29T10:32:12.999Z</time></trkpt><trkpt lat="41.95101610253805" lon="13.136338496948067"><ele>1419.8</ele><time>2026-03-29T10:32:13.999Z</time></trkpt><trkpt lat="41.95100362351608" lon="13.136469064756298"><ele>1421.2</ele><time>2026-03-29T10:32:14.999Z</time></trkpt><trkpt lat="41.95098549817551" lon="13.136611149775387"><ele>1422.6</ele><time>2026-03-29T10:32:15.999Z</time></trkpt><trkpt lat="41.95094678433016" lon="13.136735865835321"><ele>1424.0</ele><time>2026-03-29T10:32:16.999Z</time></trkpt><trkpt lat="41.950927232895346" lon="13.136842216431445"><ele>1425.4</ele><time>2026-03-29T10:32:17.999Z</time></trkpt><trkpt lat="41.95090872155727" lon="13.136936476380876"><ele>1426.8000000000002</ele><time>2026-03-29T10:32:18.999Z</time></trkpt><trkpt lat="41.95088817600483" lon="13.137027760429357"><ele>1428.1999999999998</ele><time>2026-03-29T10:32:19.999Z</time></trkpt><trkpt lat="41.95083511677138" lon="13.137164538375874"><ele>1429.6</ele><time>2026-03-29T10:32:21.999Z</time></trkpt><trkpt lat="41.95074331311517" lon="13.13720879233726"><ele>1431.0</ele><time>2026-03-29T10:32:23.999Z</time></trkpt><trkpt lat="41.95063110353935" lon="13.137151937299166"><ele>1423.6666666666667</ele><time>2026-03-29T10:32:25.999Z</time></trkpt><trkpt lat="41.950559328484495" lon="13.137083959955042"><ele>1416.3333333333333</ele><time>2026-03-29T10:32:26.999Z</time></trkpt><trkpt lat="41.95047003940979" lon="13.137000479718548"><ele>1409.0</ele><time>2026-03-29T10:32:27.999Z</time></trkpt><trkpt lat="41.950396444621575" lon="13.136906031827731"><ele>1401.6666666666665</ele><time>2026-03-29T10:32:28.999Z</time></trkpt><trkpt lat="41.95032819770916" lon="13.136864120795796"><ele>1394.3333333333333</ele><time>2026-03-29T10:32:29.999Z</time></trkpt><trkpt lat="41.950269994305366" lon="13.136801561831813"><ele>1387.0</ele><time>2026-03-29T10:32:30.999Z</time></trkpt><trkpt lat="41.95019753078643" lon="13.136760465744148"><ele>1387.0</ele><time>2026-03-29T10:32:31.999Z</time></trkpt><trkpt lat="41.95010107639324" lon="13.136746470669545"><ele>1387.0</ele><time>2026-03-29T10:32:32.999Z</time></trkpt><trkpt lat="41.950008966332355" lon="13.136769466653273"><ele>1387.0</ele><time>2026-03-29T10:32:33.999Z</time></trkpt><trkpt lat="41.94992178996405" lon="13.136799664416996"><ele>1387.0</ele><time>2026-03-29T10:32:34.999Z</time></trkpt><trkpt lat="41.949840027691394" lon="13.136811333858802"><ele>1387.0</ele><time>2026-03-29T10:32:35.999Z</time></trkpt><trkpt lat="41.949769483187616" lon="13.136847077180601"><ele>1387.0</ele><time>2026-03-29T10:32:36.999Z</time></trkpt><trkpt lat="41.94970247226761" lon="13.136900252014685"><ele>1387.3333333333333</ele><time>2026-03-29T10:32:37.999Z</time></trkpt><trkpt lat="41.94964979633338" lon="13.136964206145302"><ele>1387.6666666666665</ele><time>2026-03-29T10:32:38.999Z</time></trkpt><trkpt lat="41.949602040135034" lon="13.137052583207344"><ele>1388.0</ele><time>2026-03-29T10:32:39.999Z</time></trkpt><trkpt lat="41.949574197981654" lon="13.137181925063494"><ele>1388.3333333333333</ele><time>2026-03-29T10:32:40.999Z</time></trkpt><trkpt lat="41.949538817103566" lon="13.137292559463594"><ele>1388.6666666666667</ele><time>2026-03-29T10:32:41.999Z</time></trkpt><trkpt lat="41.94951892854698" lon="13.137410514145836"><ele>1389.0</ele><time>2026-03-29T10:32:42.999Z</time></trkpt><trkpt lat="41.94947208372975" lon="13.137502878184442"><ele>1389.0</ele><time>2026-03-29T10:32:43.999Z</time></trkpt><trkpt lat="41.949440296687065" lon="13.137591728574828"><ele>1389.0</ele><time>2026-03-29T10:32:44.999Z</time></trkpt><trkpt lat="41.94939727178291" lon="13.137695482069157"><ele>1389.0</ele><time>2026-03-29T10:32:45.999Z</time></trkpt><trkpt lat="41.94935570507843" lon="13.137784215569852"><ele>1389.0</ele><time>2026-03-29T10:32:46.999Z</time></trkpt><trkpt lat="41.94930239220419" lon="13.137863066733816"><ele>1389.0</ele><time>2026-03-29T10:32:47.999Z</time></trkpt><trkpt lat="41.94923543969205" lon="13.13793609076662"><ele>1389.0</ele><time>2026-03-29T10:32:48.999Z</time></trkpt><trkpt lat="41.949163731661905" lon="13.13798289798611"><ele>1384.8333333333333</ele><time>2026-03-29T10:32:49.999Z</time></trkpt><trkpt lat="41.94909322787858" lon="13.137965443323383"><ele>1380.6666666666667</ele><time>2026-03-29T10:32:50.999Z</time></trkpt><trkpt lat="41.94901063765224" lon="13.137968813154394"><ele>1376.5</ele><time>2026-03-29T10:32:51.999Z</time></trkpt><trkpt lat="41.948932533172695" lon="13.137970795497694"><ele>1372.3333333333335</ele><time>2026-03-29T10:32:52.999Z</time></trkpt><trkpt lat="41.948857542211535" lon="13.137994014288738"><ele>1368.1666666666667</ele><time>2026-03-29T10:32:53.999Z</time></trkpt><trkpt lat="41.94873059617619" lon="13.138018143000776"><ele>1364.0</ele><time>2026-03-29T10:32:55.999Z</time></trkpt><trkpt lat="41.948680207241715" lon="13.138084582158893"><ele>1364.0</ele><time>2026-03-29T10:32:56.999Z</time></trkpt><trkpt lat="41.948616988225155" lon="13.138151815996713"><ele>1364.0</ele><time>2026-03-29T10:32:57.999Z</time></trkpt><trkpt lat="41.948567243494466" lon="13.138229739348205"><ele>1364.0</ele><time>2026-03-29T10:32:58.999Z</time></trkpt><trkpt lat="41.94852517571074" lon="13.138314727886874"><ele>1364.0</ele><time>2026-03-29T10:32:59.999Z</time></trkpt><trkpt lat="41.94848869806145" lon="13.1383978262636"><ele>1364.0</ele><time>2026-03-29T10:33:00.999Z</time></trkpt><trkpt lat="41.9484420000371" lon="13.138469911837877"><ele>1364.0</ele><time>2026-03-29T10:33:01.999Z</time></trkpt><trkpt lat="41.94839643154717" lon="13.138541276807933"><ele>1364.0</ele><time>2026-03-29T10:33:02.999Z</time></trkpt><trkpt lat="41.94831274614508" lon="13.138584762275382"><ele>1363.0</ele><time>2026-03-29T10:33:03.999Z</time></trkpt><trkpt lat="41.94824975986546" lon="13.138632039212885"><ele>1362.0</ele><time>2026-03-29T10:33:04.999Z</time></trkpt><trkpt lat="41.948173667741344" lon="13.138690227310382"><ele>1361.0</ele><time>2026-03-29T10:33:05.999Z</time></trkpt><trkpt lat="41.94810154428117" lon="13.138742403334579"><ele>1360.0</ele><time>2026-03-29T10:33:06.999Z</time></trkpt><trkpt lat="41.94802924413798" lon="13.138799252462402"><ele>1359.0</ele><time>2026-03-29T10:33:07.999Z</time></trkpt><trkpt lat="41.947967885707776" lon="13.138864664284803"><ele>1358.0</ele><time>2026-03-29T10:33:08.998Z</time></trkpt><trkpt lat="41.94791948735424" lon="13.13892971298242"><ele>1358.0</ele><time>2026-03-29T10:33:09.998Z</time></trkpt><trkpt lat="41.947864647600746" lon="13.13901733359533"><ele>1358.0</ele><time>2026-03-29T10:33:10.998Z</time></trkpt><trkpt lat="41.94781964166037" lon="13.139107553310415"><ele>1358.0</ele><time>2026-03-29T10:33:11.998Z</time></trkpt><trkpt lat="41.94777883893299" lon="13.139196931645065"><ele>1358.0</ele><time>2026-03-29T10:33:12.998Z</time></trkpt><trkpt lat="41.947745954207946" lon="13.13930723785793"><ele>1358.0</ele><time>2026-03-29T10:33:13.998Z</time></trkpt><trkpt lat="41.94772604789363" lon="13.139400872393407"><ele>1358.0</ele><time>2026-03-29T10:33:14.998Z</time></trkpt><trkpt lat="41.94770799885778" lon="13.139482950713548"><ele>1361.1666666666667</ele><time>2026-03-29T10:33:15.998Z</time></trkpt><trkpt lat="41.94768960846833" lon="13.139564084770432"><ele>1364.3333333333335</ele><time>2026-03-29T10:33:16.998Z</time></trkpt><trkpt lat="41.94766954624466" lon="13.139652594522364"><ele>1367.5</ele><time>2026-03-29T10:33:17.998Z</time></trkpt><trkpt lat="41.94765218931613" lon="13.139740068574705"><ele>1370.6666666666667</ele><time>2026-03-29T10:33:18.998Z</time></trkpt><trkpt lat="41.947638960407595" lon="13.13982970965605"><ele>1373.8333333333333</ele><time>2026-03-29T10:33:19.998Z</time></trkpt><trkpt lat="41.94764167543683" lon="13.139926232237736"><ele>1377.0</ele><time>2026-03-29T10:33:20.998Z</time></trkpt><trkpt lat="41.94760250157567" lon="13.140084576359934"><ele>1379.0</ele><time>2026-03-29T10:33:22.998Z</time></trkpt><trkpt lat="41.947569366134644" lon="13.140242681639704"><ele>1381.0</ele><time>2026-03-29T10:33:24.998Z</time></trkpt><trkpt lat="41.94745453551998" lon="13.140306034456925"><ele>1383.0</ele><time>2026-03-29T10:33:27Z</time></trkpt><trkpt lat="41.94738259180885" lon="13.140315014972252"><ele>1385.0</ele><time>2026-03-29T10:33:28Z</time></trkpt><trkpt lat="41.94731106823758" lon="13.140307465382476"><ele>1387.0</ele><time>2026-03-29T10:33:29Z</time></trkpt><trkpt lat="41.947223091194275" lon="13.14028966139756"><ele>1382.2857142857142</ele><time>2026-03-29T10:33:30Z</time></trkpt><trkpt lat="41.947151863600574" lon="13.140270990985686"><ele>1377.5714285714284</ele><time>2026-03-29T10:33:31Z</time></trkpt><trkpt lat="41.94707638822642" lon="13.140257773302197"><ele>1372.8571428571427</ele><time>2026-03-29T10:33:32Z</time></trkpt><trkpt lat="41.94700857893802" lon="13.140238081720714"><ele>1368.142857142857</ele><time>2026-03-29T10:33:33Z</time></trkpt><trkpt lat="41.94695125272855" lon="13.140199704613918"><ele>1363.4285714285713</ele><time>2026-03-29T10:33:34Z</time></trkpt><trkpt lat="41.94688402866601" lon="13.140186406272393"><ele>1358.7142857142856</ele><time>2026-03-29T10:33:35Z</time></trkpt><trkpt lat="41.94681118530227" lon="13.140189590899746"><ele>1354.0</ele><time>2026-03-29T10:33:36Z</time></trkpt><trkpt lat="41.94674398068308" lon="13.14020452585927"><ele>1350.3333333333333</ele><time>2026-03-29T10:33:37Z</time></trkpt><trkpt lat="41.9466821905815" lon="13.140249087707753"><ele>1346.6666666666665</ele><time>2026-03-29T10:33:38Z</time></trkpt><trkpt lat="41.94662794544302" lon="13.140346304506595"><ele>1343.0</ele><time>2026-03-29T10:33:39Z</time></trkpt><trkpt lat="41.94656661024729" lon="13.14041346367348"><ele>1339.3333333333333</ele><time>2026-03-29T10:33:40Z</time></trkpt><trkpt lat="41.946514649951666" lon="13.140507829784989"><ele>1335.6666666666667</ele><time>2026-03-29T10:33:41Z</time></trkpt><trkpt lat="41.946458192612326" lon="13.14061106110005"><ele>1332.0</ele><time>2026-03-29T10:33:42Z</time></trkpt><trkpt lat="41.94640852377978" lon="13.14070825568868"><ele>1335.0</ele><time>2026-03-29T10:33:43Z</time></trkpt><trkpt lat="41.94635883367177" lon="13.140806127290285"><ele>1338.0</ele><time>2026-03-29T10:33:44Z</time></trkpt><trkpt lat="41.94631910269237" lon="13.140919997580363"><ele>1341.0</ele><time>2026-03-29T10:33:45Z</time></trkpt><trkpt lat="41.94626414180369" lon="13.14101251405893"><ele>1344.0</ele><time>2026-03-29T10:33:46Z</time></trkpt><trkpt lat="41.94621545254937" lon="13.141100571777791"><ele>1347.0</ele><time>2026-03-29T10:33:47Z</time></trkpt><trkpt lat="41.94614968144577" lon="13.141187002396862"><ele>1350.0</ele><time>2026-03-29T10:33:48Z</time></trkpt><trkpt lat="41.94610147916038" lon="13.141289186207644"><ele>1350.0</ele><time>2026-03-29T10:33:49Z</time></trkpt><trkpt lat="41.94604833389328" lon="13.141388604107032"><ele>1350.0</ele><time>2026-03-29T10:33:50Z</time></trkpt><trkpt lat="41.94599165092352" lon="13.14148994407647"><ele>1350.0</ele><time>2026-03-29T10:33:51Z</time></trkpt><trkpt lat="41.945927774066" lon="13.141589952150985"><ele>1350.0</ele><time>2026-03-29T10:33:52Z</time></trkpt><trkpt lat="41.94587736697457" lon="13.14166331640149"><ele>1350.0</ele><time>2026-03-29T10:33:53Z</time></trkpt><trkpt lat="41.94581587261949" lon="13.14177591602789"><ele>1348.1666666666667</ele><time>2026-03-29T10:33:55Z</time></trkpt><trkpt lat="41.9457676098691" lon="13.14183476662767"><ele>1346.3333333333333</ele><time>2026-03-29T10:33:58Z</time></trkpt><trkpt lat="41.945704721550925" lon="13.141925736112611"><ele>1344.5</ele><time>2026-03-29T10:34:01Z</time></trkpt><trkpt lat="41.945663390612886" lon="13.141992046665724"><ele>1342.6666666666665</ele><time>2026-03-29T10:34:02Z</time></trkpt><trkpt lat="41.94561579836428" lon="13.142067167760384"><ele>1340.8333333333333</ele><time>2026-03-29T10:34:03Z</time></trkpt><trkpt lat="41.94558033575176" lon="13.142141035233038"><ele>1339.0</ele><time>2026-03-29T10:34:04Z</time></trkpt><trkpt lat="41.945521825313925" lon="13.142297051950887"><ele>1342.2</ele><time>2026-03-29T10:34:06Z</time></trkpt><trkpt lat="41.94544450524683" lon="13.142416823822007"><ele>1345.4</ele><time>2026-03-29T10:34:08Z</time></trkpt><trkpt lat="41.94539048652672" lon="13.142520205201903"><ele>1348.6</ele><time>2026-03-29T10:34:10Z</time></trkpt><trkpt lat="41.94531160120856" lon="13.1426137191228"><ele>1351.8</ele><time>2026-03-29T10:34:12Z</time></trkpt><trkpt lat="41.9452548844686" lon="13.14269426700821"><ele>1355.0</ele><time>2026-03-29T10:34:13Z</time></trkpt><trkpt lat="41.94517725009271" lon="13.142797458614941"><ele>1355.0</ele><time>2026-03-29T10:34:14Z</time></trkpt><trkpt lat="41.945076847461536" lon="13.142882683028855"><ele>1355.0</ele><time>2026-03-29T10:34:15Z</time></trkpt><trkpt lat="41.94500073092638" lon="13.142965841836181"><ele>1355.0</ele><time>2026-03-29T10:34:16Z</time></trkpt><trkpt lat="41.94493303671671" lon="13.143043835787346"><ele>1355.0</ele><time>2026-03-29T10:34:16.999Z</time></trkpt><trkpt lat="41.94488088415723" lon="13.143121717076735"><ele>1355.0</ele><time>2026-03-29T10:34:17.999Z</time></trkpt><trkpt lat="41.9448132396841" lon="13.143195612983218"><ele>1354.0</ele><time>2026-03-29T10:34:18.999Z</time></trkpt><trkpt lat="41.94472872857784" lon="13.14324918143171"><ele>1353.0</ele><time>2026-03-29T10:34:19.999Z</time></trkpt><trkpt lat="41.94464414120592" lon="13.143279641712889"><ele>1352.0</ele><time>2026-03-29T10:34:20.999Z</time></trkpt><trkpt lat="41.94456416893239" lon="13.143297360006628"><ele>1351.0</ele><time>2026-03-29T10:34:21.999Z</time></trkpt><trkpt lat="41.944482291599016" lon="13.143337446480633"><ele>1350.0</ele><time>2026-03-29T10:34:22.999Z</time></trkpt><trkpt lat="41.944384147492514" lon="13.143387491977988"><ele>1350.0</ele><time>2026-03-29T10:34:23.999Z</time></trkpt><trkpt lat="41.94430771471491" lon="13.143437129459864"><ele>1350.0</ele><time>2026-03-29T10:34:24.999Z</time></trkpt><trkpt lat="41.94424917860335" lon="13.143494568443826"><ele>1350.0</ele><time>2026-03-29T10:34:25.999Z</time></trkpt><trkpt lat="41.94419461196727" lon="13.143562675894863"><ele>1350.0</ele><time>2026-03-29T10:34:26.999Z</time></trkpt><trkpt lat="41.94413557071298" lon="13.143632129610316"><ele>1350.0</ele><time>2026-03-29T10:34:27.999Z</time></trkpt><trkpt lat="41.944073962908504" lon="13.143689559469111"><ele>1350.0</ele><time>2026-03-29T10:34:28.999Z</time></trkpt><trkpt lat="41.944015408479395" lon="13.143737457363535"><ele>1349.6666666666667</ele><time>2026-03-29T10:34:29.999Z</time></trkpt><trkpt lat="41.94393852509186" lon="13.143778744385735"><ele>1349.3333333333333</ele><time>2026-03-29T10:34:30.999Z</time></trkpt><trkpt lat="41.94388335633643" lon="13.143843646377215"><ele>1349.0</ele><time>2026-03-29T10:34:31.999Z</time></trkpt><trkpt lat="41.94382274008965" lon="13.143929235679032"><ele>1348.6666666666665</ele><time>2026-03-29T10:34:32.999Z</time></trkpt><trkpt lat="41.9437714657256" lon="13.144004783351367"><ele>1348.3333333333333</ele><time>2026-03-29T10:34:33.999Z</time></trkpt><trkpt lat="41.943715883166824" lon="13.144087198870702"><ele>1348.0</ele><time>2026-03-29T10:34:34.999Z</time></trkpt><trkpt lat="41.94365681800481" lon="13.14417477824217"><ele>1348.0</ele><time>2026-03-29T10:34:35.999Z</time></trkpt><trkpt lat="41.94360673975729" lon="13.14428192260641"><ele>1348.0</ele><time>2026-03-29T10:34:36.999Z</time></trkpt><trkpt lat="41.94353366538246" lon="13.144357405600626"><ele>1348.0</ele><time>2026-03-29T10:34:37.999Z</time></trkpt><trkpt lat="41.943472738063384" lon="13.144445960057558"><ele>1348.0</ele><time>2026-03-29T10:34:38.999Z</time></trkpt><trkpt lat="41.94341614984296" lon="13.14453342061741"><ele>1348.0</ele><time>2026-03-29T10:34:39.999Z</time></trkpt><trkpt lat="41.943358468300836" lon="13.14464172136684"><ele>1346.75</ele><time>2026-03-29T10:34:40.999Z</time></trkpt><trkpt lat="41.943257458185535" lon="13.144759874523393"><ele>1345.5</ele><time>2026-03-29T10:34:41.999Z</time></trkpt><trkpt lat="41.943161064916566" lon="13.144899688186596"><ele>1344.25</ele><time>2026-03-29T10:34:42.999Z</time></trkpt><trkpt lat="41.94308550982514" lon="13.145014920082902"><ele>1343.0</ele><time>2026-03-29T10:34:43.999Z</time></trkpt><trkpt lat="41.94301789069604" lon="13.14512051708089"><ele>1343.0</ele><time>2026-03-29T10:34:44.999Z</time></trkpt><trkpt lat="41.942950952358295" lon="13.145225050933051"><ele>1343.0</ele><time>2026-03-29T10:34:45.999Z</time></trkpt><trkpt lat="41.942880311227924" lon="13.14533536721109"><ele>1343.0</ele><time>2026-03-29T10:34:46.999Z</time></trkpt><trkpt lat="41.94282445176408" lon="13.145452333909866"><ele>1343.0</ele><time>2026-03-29T10:34:47.999Z</time></trkpt><trkpt lat="41.94275049684912" lon="13.145542262479575"><ele>1343.0</ele><time>2026-03-29T10:34:48.999Z</time></trkpt><trkpt lat="41.942669778604504" lon="13.14562083926533"><ele>1343.0</ele><time>2026-03-29T10:34:49.999Z</time></trkpt><trkpt lat="41.94258802085921" lon="13.145706042930232"><ele>1343.0</ele><time>2026-03-29T10:34:50.999Z</time></trkpt><trkpt lat="41.942495799249414" lon="13.145809277718245"><ele>1343.0</ele><time>2026-03-29T10:34:51.999Z</time></trkpt><trkpt lat="41.9423783959702" lon="13.145921990454468"><ele>1343.0</ele><time>2026-03-29T10:34:52.999Z</time></trkpt><trkpt lat="41.94224964961301" lon="13.146037779212193"><ele>1343.4</ele><time>2026-03-29T10:34:53.999Z</time></trkpt><trkpt lat="41.94215059984036" lon="13.146113608187465"><ele>1343.8000000000002</ele><time>2026-03-29T10:34:54.999Z</time></trkpt><trkpt lat="41.94205663822183" lon="13.146188637585404"><ele>1344.2</ele><time>2026-03-29T10:34:55.999Z</time></trkpt><trkpt lat="41.94195651514002" lon="13.146259609440065"><ele>1344.6</ele><time>2026-03-29T10:34:56.999Z</time></trkpt><trkpt lat="41.9418589478011" lon="13.146323713273933"><ele>1345.0</ele><time>2026-03-29T10:34:57.999Z</time></trkpt><trkpt lat="41.94177224458309" lon="13.146387785632873"><ele>1345.4</ele><time>2026-03-29T10:34:58.999Z</time></trkpt><trkpt lat="41.941696320237" lon="13.146420375624814"><ele>1345.8</ele><time>2026-03-29T10:34:59.999Z</time></trkpt><trkpt lat="41.94159505357834" lon="13.146497554105235"><ele>1346.1999999999998</ele><time>2026-03-29T10:35:01.999Z</time></trkpt><trkpt lat="41.94151608506275" lon="13.146562788920507"><ele>1346.6</ele><time>2026-03-29T10:35:03.999Z</time></trkpt><trkpt lat="41.941446564160074" lon="13.146641833792465"><ele>1347.0</ele><time>2026-03-29T10:35:05.999Z</time></trkpt><trkpt lat="41.94137613190171" lon="13.146682503053727"><ele>1347.5</ele><time>2026-03-29T10:35:08.999Z</time></trkpt><trkpt lat="41.94131268309696" lon="13.146755621837173"><ele>1348.0</ele><time>2026-03-29T10:35:39Z</time></trkpt><trkpt lat="41.94140938891876" lon="13.14704625559244"><ele>1348.5</ele><time>2026-03-29T10:35:42Z</time></trkpt><trkpt lat="41.9414497829818" lon="13.147137852209367"><ele>1349.0</ele><time>2026-03-29T10:35:43Z</time></trkpt><trkpt lat="41.9414935404917" lon="13.147219380980538"><ele>1349.0</ele><time>2026-03-29T10:35:44Z</time></trkpt><trkpt lat="41.94153183829085" lon="13.147294610714491"><ele>1349.0</ele><time>2026-03-29T10:35:45Z</time></trkpt><trkpt lat="41.94153674032544" lon="13.147454586731124"><ele>1349.0</ele><time>2026-03-29T10:35:46Z</time></trkpt><trkpt lat="41.94154748299087" lon="13.147566877708522"><ele>1349.0</ele><time>2026-03-29T10:35:47Z</time></trkpt><trkpt lat="41.941552186518464" lon="13.147671247985313"><ele>1349.0</ele><time>2026-03-29T10:35:48Z</time></trkpt><trkpt lat="41.941546374918" lon="13.147845144209517"><ele>1349.8333333333335</ele><time>2026-03-29T10:35:50Z</time></trkpt><trkpt lat="41.94153746531088" lon="13.147944590721654"><ele>1350.6666666666667</ele><time>2026-03-29T10:35:51Z</time></trkpt><trkpt lat="41.941534735797184" lon="13.1480339097316"><ele>1351.5</ele><time>2026-03-29T10:35:52Z</time></trkpt><trkpt lat="41.94151259376541" lon="13.148213291173589"><ele>1352.3333333333333</ele><time>2026-03-29T10:35:54Z</time></trkpt><trkpt lat="41.9414989938396" lon="13.148303887164351"><ele>1353.1666666666665</ele><time>2026-03-29T10:35:55Z</time></trkpt><trkpt lat="41.94148495905573" lon="13.148394316578559"><ele>1354.0</ele><time>2026-03-29T10:35:56Z</time></trkpt><trkpt lat="41.94146878240791" lon="13.148488202376907"><ele>1354.3333333333333</ele><time>2026-03-29T10:35:57Z</time></trkpt><trkpt lat="41.941452201307854" lon="13.148585153417333"><ele>1354.6666666666665</ele><time>2026-03-29T10:35:58Z</time></trkpt><trkpt lat="41.94143339193638" lon="13.148688244833258"><ele>1355.0</ele><time>2026-03-29T10:35:59Z</time></trkpt><trkpt lat="41.941410323989416" lon="13.148796880152915"><ele>1355.3333333333333</ele><time>2026-03-29T10:36:00Z</time></trkpt><trkpt lat="41.941382776534354" lon="13.148903355578199"><ele>1355.6666666666667</ele><time>2026-03-29T10:36:01Z</time></trkpt><trkpt lat="41.941343170130345" lon="13.149014690756973"><ele>1356.0</ele><time>2026-03-29T10:36:02Z</time></trkpt><trkpt lat="41.941285815961955" lon="13.149122414767058"><ele>1357.1999999999998</ele><time>2026-03-29T10:36:03Z</time></trkpt><trkpt lat="41.94122694344338" lon="13.149213840775154"><ele>1358.3999999999999</ele><time>2026-03-29T10:36:04Z</time></trkpt><trkpt lat="41.941148478444845" lon="13.14932261306053"><ele>1359.6</ele><time>2026-03-29T10:36:06Z</time></trkpt><trkpt lat="41.94105237506089" lon="13.149448805528484"><ele>1360.8</ele><time>2026-03-29T10:36:08Z</time></trkpt><trkpt lat="41.941001917251405" lon="13.149518960052653"><ele>1362.0</ele><time>2026-03-29T10:36:09Z</time></trkpt><trkpt lat="41.94094610638009" lon="13.14958993556146"><ele>1362.0</ele><time>2026-03-29T10:36:10Z</time></trkpt><trkpt lat="41.94088274509638" lon="13.149658092800404"><ele>1362.0</ele><time>2026-03-29T10:36:11Z</time></trkpt><trkpt lat="41.940814942263735" lon="13.149730699446472"><ele>1362.0</ele><time>2026-03-29T10:36:12Z</time></trkpt><trkpt lat="41.94074743923026" lon="13.149804651046132"><ele>1362.0</ele><time>2026-03-29T10:36:13Z</time></trkpt><trkpt lat="41.94067854320557" lon="13.149866845045253"><ele>1362.0</ele><time>2026-03-29T10:36:14Z</time></trkpt><trkpt lat="41.94061932957226" lon="13.14993063401716"><ele>1362.0</ele><time>2026-03-29T10:36:15Z</time></trkpt><trkpt lat="41.94056538010841" lon="13.14997767703646"><ele>1361.6</ele><time>2026-03-29T10:36:16Z</time></trkpt><trkpt lat="41.94048022853349" lon="13.150049943087332"><ele>1361.1999999999998</ele><time>2026-03-29T10:36:18Z</time></trkpt><trkpt lat="41.94041978404429" lon="13.150102324320532"><ele>1360.8</ele><time>2026-03-29T10:36:20Z</time></trkpt><trkpt lat="41.940365112932504" lon="13.15014983612844"><ele>1360.4</ele><time>2026-03-29T10:36:22Z</time></trkpt><trkpt lat="41.94028337060569" lon="13.150204164337518"><ele>1360.0</ele><time>2026-03-29T10:36:23.999Z</time></trkpt><trkpt lat="41.94016043638605" lon="13.150264925534783"><ele>1360.0</ele><time>2026-03-29T10:36:25.999Z</time></trkpt><trkpt lat="41.94005623585874" lon="13.150289175348814"><ele>1360.0</ele><time>2026-03-29T10:36:26.999Z</time></trkpt><trkpt lat="41.939966819660846" lon="13.150307354876409"><ele>1360.0</ele><time>2026-03-29T10:36:27.999Z</time></trkpt><trkpt lat="41.93987381097917" lon="13.150305256842"><ele>1360.0</ele><time>2026-03-29T10:36:28.999Z</time></trkpt><trkpt lat="41.93979388186082" lon="13.150291108065108"><ele>1360.0</ele><time>2026-03-29T10:36:29.999Z</time></trkpt><trkpt lat="41.93971459621567" lon="13.150272904934594"><ele>1359.5</ele><time>2026-03-29T10:36:30.999Z</time></trkpt><trkpt lat="41.93963568290732" lon="13.150255631344884"><ele>1359.0</ele><time>2026-03-29T10:36:31.999Z</time></trkpt><trkpt lat="41.93955207863286" lon="13.15024206502776"><ele>1358.5</ele><time>2026-03-29T10:36:32.999Z</time></trkpt><trkpt lat="41.93947103729864" lon="13.150216072150354"><ele>1358.0</ele><time>2026-03-29T10:36:33.999Z</time></trkpt><trkpt lat="41.93939694465457" lon="13.150172655567273"><ele>1357.5</ele><time>2026-03-29T10:36:34.999Z</time></trkpt><trkpt lat="41.93928617941753" lon="13.150109221687313"><ele>1357.0</ele><time>2026-03-29T10:36:36.999Z</time></trkpt><trkpt lat="41.93923014422701" lon="13.150063032430571"><ele>1356.5</ele><time>2026-03-29T10:36:37.999Z</time></trkpt><trkpt lat="41.93917219749082" lon="13.150017465678978"><ele>1356.0</ele><time>2026-03-29T10:36:38.999Z</time></trkpt><trkpt lat="41.93911874930485" lon="13.149956987277479"><ele>1355.5</ele><time>2026-03-29T10:36:39.999Z</time></trkpt><trkpt lat="41.93906618677606" lon="13.149897118533874"><ele>1355.0</ele><time>2026-03-29T10:36:40.999Z</time></trkpt><trkpt lat="41.93901495393264" lon="13.149829133871156"><ele>1354.5</ele><time>2026-03-29T10:36:41.999Z</time></trkpt><trkpt lat="41.93896723313558" lon="13.149770068570986"><ele>1354.0</ele><time>2026-03-29T10:36:42.999Z</time></trkpt><trkpt lat="41.93887182577614" lon="13.149684812004145"><ele>1353.0</ele><time>2026-03-29T10:36:44.999Z</time></trkpt><trkpt lat="41.938792391822304" lon="13.149649907545548"><ele>1352.0</ele><time>2026-03-29T10:36:46.999Z</time></trkpt><trkpt lat="41.938697876556304" lon="13.149673917063575"><ele>1351.0</ele><time>2026-03-29T10:36:49.999Z</time></trkpt><trkpt lat="41.93861978017839" lon="13.149720671213222"><ele>1350.0</ele><time>2026-03-29T10:36:51.999Z</time></trkpt><trkpt lat="41.93866040628839" lon="13.149648021911698"><ele>1349.0</ele><time>2026-03-29T10:36:53.999Z</time></trkpt><trkpt lat="41.93860202662137" lon="13.14970413437124"><ele>1348.0</ele><time>2026-03-29T10:37:03.999Z</time></trkpt><trkpt lat="41.93853049624447" lon="13.149728797447784"><ele>1348.0</ele><time>2026-03-29T10:37:05.999Z</time></trkpt><trkpt lat="41.938478882937524" lon="13.149806521738538"><ele>1348.0</ele><time>2026-03-29T10:37:15.999Z</time></trkpt><trkpt lat="41.938437881685005" lon="13.149894717596908"><ele>1348.0</ele><time>2026-03-29T10:37:19.999Z</time></trkpt><trkpt lat="41.938376041011956" lon="13.150021459902213"><ele>1348.0</ele><time>2026-03-29T10:38:03Z</time></trkpt><trkpt lat="41.93833692325407" lon="13.1501004864891"><ele>1348.0</ele><time>2026-03-29T10:38:04Z</time></trkpt><trkpt lat="41.93828522107547" lon="13.150171095645408"><ele>1348.0</ele><time>2026-03-29T10:38:05Z</time></trkpt><trkpt lat="41.938244311858774" lon="13.15026741708106"><ele>1348.8000000000002</ele><time>2026-03-29T10:38:06Z</time></trkpt><trkpt lat="41.93819912851629" lon="13.150379358516068"><ele>1349.6</ele><time>2026-03-29T10:38:07Z</time></trkpt><trkpt lat="41.938144871415446" lon="13.15050046195373"><ele>1350.4</ele><time>2026-03-29T10:38:08Z</time></trkpt><trkpt lat="41.9380826570049" lon="13.150629346660601"><ele>1351.1999999999998</ele><time>2026-03-29T10:38:09Z</time></trkpt><trkpt lat="41.938019443561224" lon="13.150760608781262"><ele>1352.0</ele><time>2026-03-29T10:38:10Z</time></trkpt><trkpt lat="41.93795262698677" lon="13.15089740111301"><ele>1352.75</ele><time>2026-03-29T10:38:11Z</time></trkpt><trkpt lat="41.937880167819884" lon="13.151041385741435"><ele>1353.5</ele><time>2026-03-29T10:38:12Z</time></trkpt><trkpt lat="41.93780088595033" lon="13.151207534317424"><ele>1354.25</ele><time>2026-03-29T10:38:13Z</time></trkpt><trkpt lat="41.93773201543096" lon="13.151354344354246"><ele>1355.0</ele><time>2026-03-29T10:38:14Z</time></trkpt><trkpt lat="41.93766238715917" lon="13.151505391192194"><ele>1356.75</ele><time>2026-03-29T10:38:15Z</time></trkpt><trkpt lat="41.937585900436595" lon="13.151664753876373"><ele>1358.5</ele><time>2026-03-29T10:38:16Z</time></trkpt><trkpt lat="41.93750573298201" lon="13.151821851214995"><ele>1360.25</ele><time>2026-03-29T10:38:17Z</time></trkpt><trkpt lat="41.93743057918739" lon="13.151966647040888"><ele>1362.0</ele><time>2026-03-29T10:38:18Z</time></trkpt><trkpt lat="41.93736266404871" lon="13.152104815186288"><ele>1363.5</ele><time>2026-03-29T10:38:19Z</time></trkpt><trkpt lat="41.93729015703539" lon="13.152241176688753"><ele>1365.0</ele><time>2026-03-29T10:38:20Z</time></trkpt><trkpt lat="41.937212947329876" lon="13.152387027518325"><ele>1366.5</ele><time>2026-03-29T10:38:21Z</time></trkpt><trkpt lat="41.93712929915639" lon="13.152536471731517"><ele>1368.0</ele><time>2026-03-29T10:38:22Z</time></trkpt><trkpt lat="41.9370367043078" lon="13.152692289218441"><ele>1369.0</ele><time>2026-03-29T10:38:23Z</time></trkpt><trkpt lat="41.93694272298041" lon="13.152853938546608"><ele>1370.0</ele><time>2026-03-29T10:38:24Z</time></trkpt><trkpt lat="41.93683672274981" lon="13.153021603576148"><ele>1371.0</ele><time>2026-03-29T10:38:24.999Z</time></trkpt><trkpt lat="41.93671603972027" lon="13.153191682733883"><ele>1371.6666666666667</ele><time>2026-03-29T10:38:25.999Z</time></trkpt><trkpt lat="41.936593816324134" lon="13.153357572610561"><ele>1372.3333333333335</ele><time>2026-03-29T10:38:26.999Z</time></trkpt><trkpt lat="41.93646307418647" lon="13.153525537088315"><ele>1373.0</ele><time>2026-03-29T10:38:27.999Z</time></trkpt><trkpt lat="41.936337087450156" lon="13.153678500550168"><ele>1373.0</ele><time>2026-03-29T10:38:28.999Z</time></trkpt><trkpt lat="41.93620330618618" lon="13.153840188270836"><ele>1373.0</ele><time>2026-03-29T10:38:29.999Z</time></trkpt><trkpt lat="41.93608526336983" lon="13.153981247013807"><ele>1373.0</ele><time>2026-03-29T10:38:30.999Z</time></trkpt><trkpt lat="41.93597906614297" lon="13.154104153448603"><ele>1374.75</ele><time>2026-03-29T10:38:31.999Z</time></trkpt><trkpt lat="41.935872914591776" lon="13.154225133050481"><ele>1376.5</ele><time>2026-03-29T10:38:32.999Z</time></trkpt><trkpt lat="41.93577177509473" lon="13.154334057230646"><ele>1378.25</ele><time>2026-03-29T10:38:33.999Z</time></trkpt><trkpt lat="41.93567353350487" lon="13.154447971508462"><ele>1380.0</ele><time>2026-03-29T10:38:34.999Z</time></trkpt><trkpt lat="41.935583824777915" lon="13.154578799049164"><ele>1380.0</ele><time>2026-03-29T10:38:35.999Z</time></trkpt><trkpt lat="41.93551280334729" lon="13.154731045606049"><ele>1380.0</ele><time>2026-03-29T10:38:36.999Z</time></trkpt><trkpt lat="41.93547944420652" lon="13.154915674689585"><ele>1380.0</ele><time>2026-03-29T10:38:37.999Z</time></trkpt><trkpt lat="41.93547165566744" lon="13.155117798456695"><ele>1380.0</ele><time>2026-03-29T10:38:38.999Z</time></trkpt><trkpt lat="41.93550034015571" lon="13.155339272711"><ele>1381.3333333333333</ele><time>2026-03-29T10:38:39.999Z</time></trkpt><trkpt lat="41.93555922851603" lon="13.155578409069498"><ele>1382.6666666666665</ele><time>2026-03-29T10:38:40.999Z</time></trkpt><trkpt lat="41.935636099045816" lon="13.155826997496654"><ele>1384.0</ele><time>2026-03-29T10:38:41.999Z</time></trkpt><trkpt lat="41.93571809060577" lon="13.156075091042858"><ele>1385.0</ele><time>2026-03-29T10:38:42.999Z</time></trkpt><trkpt lat="41.93579156654769" lon="13.156303589148333"><ele>1386.0</ele><time>2026-03-29T10:38:43.999Z</time></trkpt><trkpt lat="41.93586125583898" lon="13.156522993395736"><ele>1387.0</ele><time>2026-03-29T10:38:44.999Z</time></trkpt><trkpt lat="41.93593042445535" lon="13.15674495922425"><ele>1390.6666666666665</ele><time>2026-03-29T10:38:45.999Z</time></trkpt><trkpt lat="41.93600171301909" lon="13.156971103900108"><ele>1394.3333333333333</ele><time>2026-03-29T10:38:46.999Z</time></trkpt><trkpt lat="41.93607396590844" lon="13.157197196838823"><ele>1398.0</ele><time>2026-03-29T10:38:47.999Z</time></trkpt><trkpt lat="41.93614098649657" lon="13.15740059106147"><ele>1399.6666666666667</ele><time>2026-03-29T10:38:48.999Z</time></trkpt><trkpt lat="41.93619717536181" lon="13.157585491704124"><ele>1401.3333333333335</ele><time>2026-03-29T10:38:49.999Z</time></trkpt><trkpt lat="41.936266159287534" lon="13.1577651582025"><ele>1403.0</ele><time>2026-03-29T10:38:50.999Z</time></trkpt><trkpt lat="41.9363547174905" lon="13.157944331734614"><ele>1403.0</ele><time>2026-03-29T10:38:51.999Z</time></trkpt><trkpt lat="41.93644798331351" lon="13.158126240339426"><ele>1403.0</ele><time>2026-03-29T10:38:52.999Z</time></trkpt><trkpt lat="41.936594771671594" lon="13.158261705256972"><ele>1403.0</ele><time>2026-03-29T10:38:53.999Z</time></trkpt><trkpt lat="41.9367359278176" lon="13.158407955337063"><ele>1410.3333333333335</ele><time>2026-03-29T10:38:54.999Z</time></trkpt><trkpt lat="41.9368777035171" lon="13.158540370389764"><ele>1417.6666666666667</ele><time>2026-03-29T10:38:55.999Z</time></trkpt><trkpt lat="41.93700334753414" lon="13.158657550591727"><ele>1425.0</ele><time>2026-03-29T10:38:56.999Z</time></trkpt><trkpt lat="41.93711277395292" lon="13.158770937577119"><ele>1425.0</ele><time>2026-03-29T10:38:57.999Z</time></trkpt><trkpt lat="41.93720447229233" lon="13.158871871792355"><ele>1425.0</ele><time>2026-03-29T10:38:58.999Z</time></trkpt><trkpt lat="41.937270165945" lon="13.158992397456808"><ele>1425.0</ele><time>2026-03-29T10:38:59.999Z</time></trkpt><trkpt lat="41.93717832973732" lon="13.15919947867125"><ele>1425.0</ele><time>2026-03-29T10:39:00.999Z</time></trkpt><trkpt lat="41.937129700093145" lon="13.159383358903167"><ele>1425.25</ele><time>2026-03-29T10:39:01.999Z</time></trkpt><trkpt lat="41.93709591322905" lon="13.159570578284894"><ele>1425.5</ele><time>2026-03-29T10:39:02.999Z</time></trkpt><trkpt lat="41.93709290156724" lon="13.159749392957929"><ele>1425.75</ele><time>2026-03-29T10:39:03.999Z</time></trkpt><trkpt lat="41.937129900809666" lon="13.159909307713086"><ele>1426.0</ele><time>2026-03-29T10:39:04.999Z</time></trkpt><trkpt lat="41.937181926579726" lon="13.160069834132244"><ele>1427.0</ele><time>2026-03-29T10:39:05.999Z</time></trkpt><trkpt lat="41.937252629501046" lon="13.160236007947043"><ele>1428.0</ele><time>2026-03-29T10:39:06.999Z</time></trkpt><trkpt lat="41.937332464807355" lon="13.160408643030335"><ele>1429.0</ele><time>2026-03-29T10:39:07.999Z</time></trkpt><trkpt lat="41.93742180876682" lon="13.16057678531951"><ele>1430.0</ele><time>2026-03-29T10:39:08.999Z</time></trkpt><trkpt lat="41.937514499858544" lon="13.16074691944096"><ele>1435.6666666666667</ele><time>2026-03-29T10:39:09.999Z</time></trkpt><trkpt lat="41.937610178139124" lon="13.160922679337615"><ele>1441.3333333333333</ele><time>2026-03-29T10:39:10.999Z</time></trkpt><trkpt lat="41.937700788667264" lon="13.161102410312667"><ele>1447.0</ele><time>2026-03-29T10:39:11.999Z</time></trkpt><trkpt lat="41.93776741720084" lon="13.161293346768439"><ele>1447.0</ele><time>2026-03-29T10:39:12.999Z</time></trkpt><trkpt lat="41.937784226253335" lon="13.161493253984567"><ele>1447.0</ele><time>2026-03-29T10:39:13.999Z</time></trkpt><trkpt lat="41.9377386021559" lon="13.16167474059249"><ele>1447.0</ele><time>2026-03-29T10:39:14.999Z</time></trkpt><trkpt lat="41.937650711040355" lon="13.16191297705296"><ele>1447.0</ele><time>2026-03-29T10:39:15.999Z</time></trkpt><trkpt lat="41.937558502028416" lon="13.162126273072005"><ele>1447.0</ele><time>2026-03-29T10:39:16.999Z</time></trkpt><trkpt lat="41.93747229653163" lon="13.162356725808952"><ele>1447.0</ele><time>2026-03-29T10:39:17.999Z</time></trkpt><trkpt lat="41.937413344940985" lon="13.162595906872477"><ele>1447.0</ele><time>2026-03-29T10:39:18.999Z</time></trkpt><trkpt lat="41.937377476109184" lon="13.162850346825383"><ele>1447.0</ele><time>2026-03-29T10:39:19.999Z</time></trkpt><trkpt lat="41.93736814471425" lon="13.163127133184052"><ele>1447.0</ele><time>2026-03-29T10:39:20.999Z</time></trkpt><trkpt lat="41.93738256647091" lon="13.163420401022783"><ele>1450.0</ele><time>2026-03-29T10:39:21.999Z</time></trkpt><trkpt lat="41.9373944090697" lon="13.16370288723154"><ele>1453.0</ele><time>2026-03-29T10:39:22.999Z</time></trkpt><trkpt lat="41.93740550988543" lon="13.163957820959522"><ele>1456.0</ele><time>2026-03-29T10:39:23.999Z</time></trkpt><trkpt lat="41.937416217099255" lon="13.164182002307205"><ele>1457.0</ele><time>2026-03-29T10:39:24.998Z</time></trkpt><trkpt lat="41.93741674552387" lon="13.164408527965534"><ele>1458.0</ele><time>2026-03-29T10:39:25.998Z</time></trkpt><trkpt lat="41.93738948101964" lon="13.164635195147456"><ele>1459.0</ele><time>2026-03-29T10:39:26.998Z</time></trkpt><trkpt lat="41.93733888965101" lon="13.164855582259527"><ele>1461.0</ele><time>2026-03-29T10:39:27.998Z</time></trkpt><trkpt lat="41.93727208045807" lon="13.165055556794814"><ele>1463.0</ele><time>2026-03-29T10:39:28.998Z</time></trkpt><trkpt lat="41.93720510367856" lon="13.165256565448905"><ele>1465.0</ele><time>2026-03-29T10:39:29.998Z</time></trkpt><trkpt lat="41.93713393541221" lon="13.165473762078882"><ele>1469.6666666666665</ele><time>2026-03-29T10:39:30.998Z</time></trkpt><trkpt lat="41.937067475102985" lon="13.165708364041969"><ele>1474.3333333333333</ele><time>2026-03-29T10:39:31.998Z</time></trkpt><trkpt lat="41.93696832608092" lon="13.165943958417614"><ele>1479.0</ele><time>2026-03-29T10:39:32.998Z</time></trkpt><trkpt lat="41.936870984302644" lon="13.166182972178442"><ele>1479.0</ele><time>2026-03-29T10:39:33.998Z</time></trkpt><trkpt lat="41.93677611286316" lon="13.166422361002653"><ele>1479.0</ele><time>2026-03-29T10:39:34.998Z</time></trkpt><trkpt lat="41.9366796975195" lon="13.166646374255931"><ele>1479.0</ele><time>2026-03-29T10:39:35.998Z</time></trkpt><trkpt lat="41.936601649491195" lon="13.166868378448733"><ele>1480.0</ele><time>2026-03-29T10:39:36.998Z</time></trkpt><trkpt lat="41.93654087818606" lon="13.167111179093428"><ele>1481.0</ele><time>2026-03-29T10:39:37.998Z</time></trkpt><trkpt lat="41.93650281826796" lon="13.167370653159962"><ele>1482.0</ele><time>2026-03-29T10:39:38.998Z</time></trkpt><trkpt lat="41.936474163376495" lon="13.167641628245157"><ele>1484.0</ele><time>2026-03-29T10:39:39.998Z</time></trkpt><trkpt lat="41.93644409430361" lon="13.167918399523861"><ele>1486.0</ele><time>2026-03-29T10:39:40.998Z</time></trkpt><trkpt lat="41.936410556976135" lon="13.16819293494799"><ele>1488.0</ele><time>2026-03-29T10:39:41.998Z</time></trkpt><trkpt lat="41.936359001147615" lon="13.168463860746392"><ele>1491.3333333333333</ele><time>2026-03-29T10:39:42.998Z</time></trkpt><trkpt lat="41.93627508060223" lon="13.168724104293572"><ele>1494.6666666666665</ele><time>2026-03-29T10:39:44Z</time></trkpt><trkpt lat="41.93618090859485" lon="13.168983525667201"><ele>1498.0</ele><time>2026-03-29T10:39:45Z</time></trkpt><trkpt lat="41.93608783483367" lon="13.1692484663182"><ele>1499.3333333333333</ele><time>2026-03-29T10:39:46Z</time></trkpt><trkpt lat="41.93599599355408" lon="13.169520381337765"><ele>1500.6666666666667</ele><time>2026-03-29T10:39:47Z</time></trkpt><trkpt lat="41.935897000847945" lon="13.169794706460673"><ele>1502.0</ele><time>2026-03-29T10:39:48Z</time></trkpt><trkpt lat="41.935800668398315" lon="13.17006405548584"><ele>1502.0</ele><time>2026-03-29T10:39:49Z</time></trkpt><trkpt lat="41.9357072623095" lon="13.170327993217882"><ele>1502.0</ele><time>2026-03-29T10:39:50Z</time></trkpt><trkpt lat="41.93561276149314" lon="13.170588910263458"><ele>1502.0</ele><time>2026-03-29T10:39:51Z</time></trkpt><trkpt lat="41.9355166581237" lon="13.170846915854423"><ele>1503.6666666666667</ele><time>2026-03-29T10:39:52Z</time></trkpt><trkpt lat="41.93542036206526" lon="13.171110665437368"><ele>1505.3333333333333</ele><time>2026-03-29T10:39:53Z</time></trkpt><trkpt lat="41.93532433066589" lon="13.171375058093455"><ele>1507.0</ele><time>2026-03-29T10:39:54Z</time></trkpt><trkpt lat="41.935231377187435" lon="13.171624884836337"><ele>1509.6666666666665</ele><time>2026-03-29T10:39:55Z</time></trkpt><trkpt lat="41.935132586794744" lon="13.171874303943943"><ele>1512.3333333333333</ele><time>2026-03-29T10:39:56Z</time></trkpt><trkpt lat="41.93503323781154" lon="13.17209243857841"><ele>1515.0</ele><time>2026-03-29T10:39:57Z</time></trkpt><trkpt lat="41.93494667414639" lon="13.172236068803397"><ele>1513.0</ele><time>2026-03-29T10:39:58Z</time></trkpt><trkpt lat="41.93483754515264" lon="13.17236265660405"><ele>1511.0</ele><time>2026-03-29T10:39:59Z</time></trkpt><trkpt lat="41.93470224197085" lon="13.172493809267445"><ele>1509.0</ele><time>2026-03-29T10:40:00Z</time></trkpt><trkpt lat="41.934586225386866" lon="13.172652664704898"><ele>1509.0</ele><time>2026-03-29T10:40:01Z</time></trkpt><trkpt lat="41.93449639913919" lon="13.172820664406801"><ele>1509.0</ele><time>2026-03-29T10:40:02Z</time></trkpt><trkpt lat="41.93440780207028" lon="13.172975080136938"><ele>1509.0</ele><time>2026-03-29T10:40:03Z</time></trkpt><trkpt lat="41.93432134718545" lon="13.17311291670316"><ele>1509.0</ele><time>2026-03-29T10:40:04Z</time></trkpt><trkpt lat="41.93421122703212" lon="13.17320213416533"><ele>1508.75</ele><time>2026-03-29T10:40:05Z</time></trkpt><trkpt lat="41.93413851008973" lon="13.173325805031645"><ele>1508.5</ele><time>2026-03-29T10:40:06Z</time></trkpt><trkpt lat="41.93407235328723" lon="13.17347155294963"><ele>1508.25</ele><time>2026-03-29T10:40:07Z</time></trkpt><trkpt lat="41.93403957341149" lon="13.173652488360124"><ele>1508.0</ele><time>2026-03-29T10:40:08Z</time></trkpt><trkpt lat="41.93403596631312" lon="13.173833170572196"><ele>1508.0</ele><time>2026-03-29T10:40:09Z</time></trkpt><trkpt lat="41.93406244676118" lon="13.174014784874615"><ele>1508.0</ele><time>2026-03-29T10:40:10Z</time></trkpt><trkpt lat="41.93412600291525" lon="13.174182373072512"><ele>1508.0</ele><time>2026-03-29T10:40:11Z</time></trkpt><trkpt lat="41.934234850068684" lon="13.174308977936468"><ele>1508.0</ele><time>2026-03-29T10:40:12Z</time></trkpt><trkpt lat="41.93433081825593" lon="13.174426477056258"><ele>1511.25</ele><time>2026-03-29T10:40:13Z</time></trkpt><trkpt lat="41.934467221244766" lon="13.174455020084931"><ele>1514.5</ele><time>2026-03-29T10:40:14Z</time></trkpt><trkpt lat="41.93460462556799" lon="13.174451351376927"><ele>1517.75</ele><time>2026-03-29T10:40:15Z</time></trkpt><trkpt lat="41.93474731825382" lon="13.174399664924126"><ele>1521.0</ele><time>2026-03-29T10:40:16Z</time></trkpt><trkpt lat="41.93488885583399" lon="13.17430699917329"><ele>1521.0</ele><time>2026-03-29T10:40:17Z</time></trkpt><trkpt lat="41.9350302968115" lon="13.174189300928944"><ele>1521.0</ele><time>2026-03-29T10:40:18Z</time></trkpt><trkpt lat="41.93517684706405" lon="13.174039900809612"><ele>1521.0</ele><time>2026-03-29T10:40:19Z</time></trkpt><trkpt lat="41.93533123031259" lon="13.173859217771898"><ele>1520.6666666666667</ele><time>2026-03-29T10:40:20Z</time></trkpt><trkpt lat="41.93548646437303" lon="13.173645280774803"><ele>1520.3333333333335</ele><time>2026-03-29T10:40:21Z</time></trkpt><trkpt lat="41.93562134360066" lon="13.173404563586729"><ele>1520.0</ele><time>2026-03-29T10:40:22Z</time></trkpt><trkpt lat="41.935740907753214" lon="13.17314044521994"><ele>1520.0</ele><time>2026-03-29T10:40:23Z</time></trkpt><trkpt lat="41.935851344847144" lon="13.172873598923914"><ele>1520.0</ele><time>2026-03-29T10:40:24Z</time></trkpt><trkpt lat="41.93595202179373" lon="13.17264796223885"><ele>1520.0</ele><time>2026-03-29T10:40:25Z</time></trkpt><trkpt lat="41.936078021472184" lon="13.172452927880446"><ele>1526.0</ele><time>2026-03-29T10:40:26Z</time></trkpt><trkpt lat="41.93621302907299" lon="13.172275919473437"><ele>1532.0</ele><time>2026-03-29T10:40:27Z</time></trkpt><trkpt lat="41.936339676654235" lon="13.172095577692602"><ele>1538.0</ele><time>2026-03-29T10:40:28Z</time></trkpt><trkpt lat="41.936425978527495" lon="13.171874598455407"><ele>1538.0</ele><time>2026-03-29T10:40:28.999Z</time></trkpt><trkpt lat="41.93647023637409" lon="13.171610290364102"><ele>1538.0</ele><time>2026-03-29T10:40:29.999Z</time></trkpt><trkpt lat="41.936521809152644" lon="13.171341611589078"><ele>1538.0</ele><time>2026-03-29T10:40:30.999Z</time></trkpt><trkpt lat="41.9365935017479" lon="13.171106486706472"><ele>1535.3333333333333</ele><time>2026-03-29T10:40:31.999Z</time></trkpt><trkpt lat="41.93666560308217" lon="13.170899906122097"><ele>1532.6666666666665</ele><time>2026-03-29T10:40:32.999Z</time></trkpt><trkpt lat="41.93677231260514" lon="13.170734290955453"><ele>1530.0</ele><time>2026-03-29T10:40:33.999Z</time></trkpt><trkpt lat="41.936893326080316" lon="13.170570710509708"><ele>1536.6666666666665</ele><time>2026-03-29T10:40:34.999Z</time></trkpt><trkpt lat="41.93701573113204" lon="13.170413167594338"><ele>1543.3333333333333</ele><time>2026-03-29T10:40:35.999Z</time></trkpt><trkpt lat="41.93713064486053" lon="13.170272858703726"><ele>1550.0</ele><time>2026-03-29T10:40:36.999Z</time></trkpt><trkpt lat="41.93721456599454" lon="13.170081212926183"><ele>1546.3333333333333</ele><time>2026-03-29T10:40:37.999Z</time></trkpt><trkpt lat="41.93726428976465" lon="13.169856382065793"><ele>1542.6666666666665</ele><time>2026-03-29T10:40:38.999Z</time></trkpt><trkpt lat="41.93729719919757" lon="13.169654085186734"><ele>1539.0</ele><time>2026-03-29T10:40:39.999Z</time></trkpt><trkpt lat="41.937387233504396" lon="13.16948667311874"><ele>1539.0</ele><time>2026-03-29T10:40:40.999Z</time></trkpt><trkpt lat="41.93748504938614" lon="13.169347455436649"><ele>1539.0</ele><time>2026-03-29T10:40:41.999Z</time></trkpt><trkpt lat="41.93759498337678" lon="13.169206394918923"><ele>1539.0</ele><time>2026-03-29T10:40:42.999Z</time></trkpt><trkpt lat="41.937693927132436" lon="13.169035202916996"><ele>1547.3333333333335</ele><time>2026-03-29T10:40:43.999Z</time></trkpt><trkpt lat="41.937779350520834" lon="13.168842570935308"><ele>1555.6666666666667</ele><time>2026-03-29T10:40:44.999Z</time></trkpt><trkpt lat="41.93782677646437" lon="13.168641497023359"><ele>1564.0</ele><time>2026-03-29T10:40:45.999Z</time></trkpt><trkpt lat="41.93785880312374" lon="13.168434800520695"><ele>1564.0</ele><time>2026-03-29T10:40:46.999Z</time></trkpt><trkpt lat="41.937936081326626" lon="13.168233549018098"><ele>1564.0</ele><time>2026-03-29T10:40:47.999Z</time></trkpt><trkpt lat="41.93801700748537" lon="13.168042059629611"><ele>1564.0</ele><time>2026-03-29T10:40:48.999Z</time></trkpt><trkpt lat="41.938102985110554" lon="13.16787120987488"><ele>1565.6666666666667</ele><time>2026-03-29T10:40:49.999Z</time></trkpt><trkpt lat="41.938200026332616" lon="13.167723161180596"><ele>1567.3333333333335</ele><time>2026-03-29T10:40:50.999Z</time></trkpt><trkpt lat="41.93831410294949" lon="13.167594678627045"><ele>1569.0</ele><time>2026-03-29T10:40:51.999Z</time></trkpt><trkpt lat="41.93843699025818" lon="13.167460318962306"><ele>1560.3333333333335</ele><time>2026-03-29T10:40:52.999Z</time></trkpt><trkpt lat="41.93858578579696" lon="13.167356185763602"><ele>1551.6666666666667</ele><time>2026-03-29T10:40:53.999Z</time></trkpt><trkpt lat="41.93871343403379" lon="13.167247209785423"><ele>1543.0</ele><time>2026-03-29T10:40:54.999Z</time></trkpt><trkpt lat="41.938845131745495" lon="13.167153915551836"><ele>1543.0</ele><time>2026-03-29T10:40:55.999Z</time></trkpt><trkpt lat="41.938963406904215" lon="13.167080170908335"><ele>1543.0</ele><time>2026-03-29T10:40:56.999Z</time></trkpt><trkpt lat="41.93908699504924" lon="13.16702078135124"><ele>1543.0</ele><time>2026-03-29T10:40:57.999Z</time></trkpt><trkpt lat="41.939219815957856" lon="13.166998354647658"><ele>1543.0</ele><time>2026-03-29T10:40:58.999Z</time></trkpt><trkpt lat="41.93935926570306" lon="13.166997470560554"><ele>1548.5</ele><time>2026-03-29T10:40:59.999Z</time></trkpt><trkpt lat="41.939486564785874" lon="13.166982808570484"><ele>1554.0</ele><time>2026-03-29T10:41:00.999Z</time></trkpt><trkpt lat="41.939624196024305" lon="13.166970975240725"><ele>1559.5</ele><time>2026-03-29T10:41:01.999Z</time></trkpt><trkpt lat="41.939772721114295" lon="13.16686740311128"><ele>1565.0</ele><time>2026-03-29T10:41:02.999Z</time></trkpt><trkpt lat="41.939868990874906" lon="13.166678355885738"><ele>1565.0</ele><time>2026-03-29T10:41:03.999Z</time></trkpt><trkpt lat="41.93997949125543" lon="13.166506023509099"><ele>1565.0</ele><time>2026-03-29T10:41:04.999Z</time></trkpt><trkpt lat="41.94006836684788" lon="13.166340363890226"><ele>1565.0</ele><time>2026-03-29T10:41:05.999Z</time></trkpt><trkpt lat="41.940152829610575" lon="13.1662167372411"><ele>1565.0</ele><time>2026-03-29T10:41:06.999Z</time></trkpt><trkpt lat="41.940252965069796" lon="13.166123874302366"><ele>1565.0</ele><time>2026-03-29T10:41:07.999Z</time></trkpt><trkpt lat="41.940376198811975" lon="13.166073438889946"><ele>1565.0</ele><time>2026-03-29T10:41:08.999Z</time></trkpt><trkpt lat="41.940505937535825" lon="13.166062946060972"><ele>1565.0</ele><time>2026-03-29T10:41:09.999Z</time></trkpt><trkpt lat="41.94065325657245" lon="13.166032516885766"><ele>1565.0</ele><time>2026-03-29T10:41:10.999Z</time></trkpt><trkpt lat="41.94079645078746" lon="13.165995504801757"><ele>1565.3333333333333</ele><time>2026-03-29T10:41:11.999Z</time></trkpt><trkpt lat="41.9409212402337" lon="13.165889513142842"><ele>1565.6666666666665</ele><time>2026-03-29T10:41:12.999Z</time></trkpt><trkpt lat="41.94103199715319" lon="13.16575773128654"><ele>1566.0</ele><time>2026-03-29T10:41:13.999Z</time></trkpt><trkpt lat="41.94114583432162" lon="13.165606548119209"><ele>1566.0</ele><time>2026-03-29T10:41:14.999Z</time></trkpt><trkpt lat="41.94126777745171" lon="13.165442273510525"><ele>1566.0</ele><time>2026-03-29T10:41:15.999Z</time></trkpt><trkpt lat="41.941384479221846" lon="13.165253323778192"><ele>1566.0</ele><time>2026-03-29T10:41:16.999Z</time></trkpt><trkpt lat="41.941484351153456" lon="13.165056077583289"><ele>1566.0</ele><time>2026-03-29T10:41:17.999Z</time></trkpt><trkpt lat="41.941569766338546" lon="13.164838344874807"><ele>1566.0</ele><time>2026-03-29T10:41:18.999Z</time></trkpt><trkpt lat="41.941624787987124" lon="13.164636835875458"><ele>1566.0</ele><time>2026-03-29T10:41:19.999Z</time></trkpt><trkpt lat="41.94173016197263" lon="13.164481846561447"><ele>1565.0</ele><time>2026-03-29T10:41:20.999Z</time></trkpt><trkpt lat="41.941826240062" lon="13.164298983437229"><ele>1564.0</ele><time>2026-03-29T10:41:21.999Z</time></trkpt><trkpt lat="41.94193768454986" lon="13.164125728550738"><ele>1563.0</ele><time>2026-03-29T10:41:22.999Z</time></trkpt><trkpt lat="41.942029311245214" lon="13.163970136256875"><ele>1564.4</ele><time>2026-03-29T10:41:23.999Z</time></trkpt><trkpt lat="41.942101649408414" lon="13.163832840994417"><ele>1565.8000000000002</ele><time>2026-03-29T10:41:24.999Z</time></trkpt><trkpt lat="41.94215942821616" lon="13.163719238285061"><ele>1567.2</ele><time>2026-03-29T10:41:25.999Z</time></trkpt><trkpt lat="41.94221448859341" lon="13.163634804777878"><ele>1568.6</ele><time>2026-03-29T10:41:26.999Z</time></trkpt><trkpt lat="41.942288737792374" lon="13.163574297666662"><ele>1570.0</ele><time>2026-03-29T10:41:27.998Z</time></trkpt><trkpt lat="41.94235013701115" lon="13.163555364942177"><ele>1570.0</ele><time>2026-03-29T10:41:28.998Z</time></trkpt><trkpt lat="41.94250545813055" lon="13.163633438471111"><ele>1570.0</ele><time>2026-03-29T10:41:30.998Z</time></trkpt><trkpt lat="41.94254683303151" lon="13.163747271039592"><ele>1570.0</ele><time>2026-03-29T10:41:31.998Z</time></trkpt><trkpt lat="41.94256329871736" lon="13.163866787020934"><ele>1570.0</ele><time>2026-03-29T10:41:32.998Z</time></trkpt><trkpt lat="41.942548448227434" lon="13.163997730462713"><ele>1570.0</ele><time>2026-03-29T10:41:33.998Z</time></trkpt><trkpt lat="41.9425386819146" lon="13.164145430595275"><ele>1568.25</ele><time>2026-03-29T10:41:34.998Z</time></trkpt><trkpt lat="41.942505330191864" lon="13.164307876841793"><ele>1566.5</ele><time>2026-03-29T10:41:35.998Z</time></trkpt><trkpt lat="41.94245461576464" lon="13.164474079914296"><ele>1564.75</ele><time>2026-03-29T10:41:36.998Z</time></trkpt><trkpt lat="41.942437919294264" lon="13.164617728621682"><ele>1563.0</ele><time>2026-03-29T10:41:37.998Z</time></trkpt><trkpt lat="41.94242569299026" lon="13.164742655106497"><ele>1562.8000000000002</ele><time>2026-03-29T10:41:38.998Z</time></trkpt><trkpt lat="41.942452378493236" lon="13.164879519813816"><ele>1562.6</ele><time>2026-03-29T10:41:39.998Z</time></trkpt><trkpt lat="41.942514563317154" lon="13.16498792736073"><ele>1562.4</ele><time>2026-03-29T10:41:40.998Z</time></trkpt><trkpt lat="41.942618913028426" lon="13.1650356824639"><ele>1562.1999999999998</ele><time>2026-03-29T10:41:41.998Z</time></trkpt><trkpt lat="41.94272693111396" lon="13.16507029380489"><ele>1562.0</ele><time>2026-03-29T10:41:42.998Z</time></trkpt><trkpt lat="41.94284021501651" lon="13.16510043444577"><ele>1560.8</ele><time>2026-03-29T10:41:43.998Z</time></trkpt><trkpt lat="41.942955523885495" lon="13.165089428067638"><ele>1559.6</ele><time>2026-03-29T10:41:44.998Z</time></trkpt><trkpt lat="41.94306120785904" lon="13.165063032660349"><ele>1558.3999999999999</ele><time>2026-03-29T10:41:45.998Z</time></trkpt><trkpt lat="41.943151482232395" lon="13.165015973656264"><ele>1557.1999999999998</ele><time>2026-03-29T10:41:46.998Z</time></trkpt><trkpt lat="41.94322435048574" lon="13.164953289914386"><ele>1556.0</ele><time>2026-03-29T10:41:47.998Z</time></trkpt><trkpt lat="41.94328919336214" lon="13.16489061201449"><ele>1556.3333333333333</ele><time>2026-03-29T10:41:48.998Z</time></trkpt><trkpt lat="41.943346776558606" lon="13.164816157051089"><ele>1556.6666666666665</ele><time>2026-03-29T10:41:50Z</time></trkpt><trkpt lat="41.94341032019753" lon="13.164734672913944"><ele>1557.0</ele><time>2026-03-29T10:41:51Z</time></trkpt><trkpt lat="41.94347900835008" lon="13.164674400607385"><ele>1557.3333333333335</ele><time>2026-03-29T10:41:52Z</time></trkpt><trkpt lat="41.94354211115004" lon="13.164608069390935"><ele>1557.6666666666667</ele><time>2026-03-29T10:41:53Z</time></trkpt><trkpt lat="41.94363205048921" lon="13.164524958029011"><ele>1558.0</ele><time>2026-03-29T10:41:55Z</time></trkpt><trkpt lat="41.94371160891246" lon="13.164469777662166"><ele>1556.8000000000002</ele><time>2026-03-29T10:41:57Z</time></trkpt><trkpt lat="41.943801263107126" lon="13.164440884376013"><ele>1555.6</ele><time>2026-03-29T10:41:59Z</time></trkpt><trkpt lat="41.943883123398905" lon="13.16441646602073"><ele>1554.4</ele><time>2026-03-29T10:42:01Z</time></trkpt><trkpt lat="41.94397038809878" lon="13.164399322039584"><ele>1553.1999999999998</ele><time>2026-03-29T10:42:03Z</time></trkpt><trkpt lat="41.94408577305902" lon="13.164401012312014"><ele>1552.0</ele><time>2026-03-29T10:42:05Z</time></trkpt><trkpt lat="41.94421559528572" lon="13.164417595294843"><ele>1552.0</ele><time>2026-03-29T10:42:07Z</time></trkpt><trkpt lat="41.944298399073254" lon="13.164414733805865"><ele>1552.0</ele><time>2026-03-29T10:42:08Z</time></trkpt><trkpt lat="41.9444118185361" lon="13.16439692659677"><ele>1552.0</ele><time>2026-03-29T10:42:09Z</time></trkpt><trkpt lat="41.94456597332662" lon="13.16436922719189"><ele>1552.0</ele><time>2026-03-29T10:42:10Z</time></trkpt><trkpt lat="41.94475788956713" lon="13.164303760281847"><ele>1552.0</ele><time>2026-03-29T10:42:11Z</time></trkpt><trkpt lat="41.94495955828684" lon="13.164200832465392"><ele>1552.0</ele><time>2026-03-29T10:42:12Z</time></trkpt><trkpt lat="41.94516997717649" lon="13.164051743163924"><ele>1549.3333333333335</ele><time>2026-03-29T10:42:13Z</time></trkpt><trkpt lat="41.94535231705806" lon="13.16389778335794"><ele>1546.6666666666665</ele><time>2026-03-29T10:42:14Z</time></trkpt><trkpt lat="41.94550542760693" lon="13.163769226286908"><ele>1544.0</ele><time>2026-03-29T10:42:15Z</time></trkpt><trkpt lat="41.94566747903409" lon="13.163659028096"><ele>1544.0</ele><time>2026-03-29T10:42:16Z</time></trkpt><trkpt lat="41.94582047873503" lon="13.16358870083972"><ele>1544.0</ele><time>2026-03-29T10:42:17Z</time></trkpt><trkpt lat="41.945952457038295" lon="13.16356156757043"><ele>1544.0</ele><time>2026-03-29T10:42:18Z</time></trkpt><trkpt lat="41.94608638807855" lon="13.163578562030457"><ele>1544.0</ele><time>2026-03-29T10:42:19Z</time></trkpt><trkpt lat="41.94620529438614" lon="13.163670644214653"><ele>1547.3333333333333</ele><time>2026-03-29T10:42:20Z</time></trkpt><trkpt lat="41.94629843274751" lon="13.163840583431035"><ele>1550.6666666666665</ele><time>2026-03-29T10:42:21Z</time></trkpt><trkpt lat="41.94639696183617" lon="13.164030653384984"><ele>1554.0</ele><time>2026-03-29T10:42:22Z</time></trkpt><trkpt lat="41.946493389107545" lon="13.164197206848637"><ele>1554.0</ele><time>2026-03-29T10:42:23Z</time></trkpt><trkpt lat="41.946531823446115" lon="13.164349504322399"><ele>1554.0</ele><time>2026-03-29T10:42:24Z</time></trkpt><trkpt lat="41.94654228311537" lon="13.164486279843711"><ele>1554.0</ele><time>2026-03-29T10:42:25Z</time></trkpt><trkpt lat="41.946544839935434" lon="13.164649886848014"><ele>1554.0</ele><time>2026-03-29T10:42:26Z</time></trkpt><trkpt lat="41.94653778309558" lon="13.16482742333012"><ele>1553.8000000000002</ele><time>2026-03-29T10:42:27Z</time></trkpt><trkpt lat="41.94654672978661" lon="13.165001255639856"><ele>1553.6000000000001</ele><time>2026-03-29T10:42:28Z</time></trkpt><trkpt lat="41.946537207798684" lon="13.16515177638921"><ele>1553.4</ele><time>2026-03-29T10:42:29Z</time></trkpt><trkpt lat="41.9465497334739" lon="13.16528988567511"><ele>1553.2</ele><time>2026-03-29T10:42:30Z</time></trkpt><trkpt lat="41.94657500394681" lon="13.165395731491541"><ele>1553.0</ele><time>2026-03-29T10:42:31Z</time></trkpt><trkpt lat="41.9466176442606" lon="13.165489762275758"><ele>1552.9999999999998</ele><time>2026-03-29T10:42:32Z</time></trkpt><trkpt lat="41.94667239912159" lon="13.165576138011826"><ele>1553.0</ele><time>2026-03-29T10:42:33Z</time></trkpt><trkpt lat="41.94673578948079" lon="13.165647760145728"><ele>1553.0</ele><time>2026-03-29T10:42:34Z</time></trkpt><trkpt lat="41.94680780050676" lon="13.165714914384019"><ele>1553.0</ele><time>2026-03-29T10:42:35Z</time></trkpt><trkpt lat="41.946879085065" lon="13.165784848365742"><ele>1552.9999999999998</ele><time>2026-03-29T10:42:36Z</time></trkpt><trkpt lat="41.94695082464684" lon="13.165863651956894"><ele>1553.0</ele><time>2026-03-29T10:42:36.999Z</time></trkpt><trkpt lat="41.94701657607206" lon="13.165945300568815"><ele>1552.0</ele><time>2026-03-29T10:42:37.999Z</time></trkpt><trkpt lat="41.947073858718085" lon="13.16601576472531"><ele>1551.0</ele><time>2026-03-29T10:42:38.999Z</time></trkpt><trkpt lat="41.94712500223802" lon="13.166084869067497"><ele>1550.0</ele><time>2026-03-29T10:42:39.999Z</time></trkpt><trkpt lat="41.947179671656386" lon="13.166159956881053"><ele>1549.0</ele><time>2026-03-29T10:42:40.999Z</time></trkpt><trkpt lat="41.94723528603435" lon="13.16623413516549"><ele>1548.0</ele><time>2026-03-29T10:42:41.999Z</time></trkpt><trkpt lat="41.94729338315377" lon="13.166299982084386"><ele>1547.0</ele><time>2026-03-29T10:42:42.999Z</time></trkpt><trkpt lat="41.94734294310847" lon="13.16636025103952"><ele>1546.0</ele><time>2026-03-29T10:42:43.999Z</time></trkpt><trkpt lat="41.94739443203061" lon="13.166425380120197"><ele>1546.0000000000002</ele><time>2026-03-29T10:42:44.999Z</time></trkpt><trkpt lat="41.94744031876866" lon="13.166487964784839"><ele>1546.0</ele><time>2026-03-29T10:42:45.999Z</time></trkpt><trkpt lat="41.94748811921612" lon="13.166551660099042"><ele>1546.0</ele><time>2026-03-29T10:42:46.999Z</time></trkpt><trkpt lat="41.94756343284922" lon="13.166641903778851"><ele>1546.0</ele><time>2026-03-29T10:42:48.999Z</time></trkpt><trkpt lat="41.94760772037151" lon="13.166702148478903"><ele>1546.0000000000002</ele><time>2026-03-29T10:42:50.999Z</time></trkpt><trkpt lat="41.947664011799155" lon="13.16677967784854"><ele>1546.0</ele><time>2026-03-29T10:42:53.999Z</time></trkpt><trkpt lat="41.94772999394694" lon="13.1668785538867"><ele>1546.6666666666667</ele><time>2026-03-29T10:44:14Z</time></trkpt><trkpt lat="41.94777796347778" lon="13.16695218027376"><ele>1547.3333333333335</ele><time>2026-03-29T10:44:15Z</time></trkpt><trkpt lat="41.94782301757706" lon="13.167030438150716"><ele>1548.0</ele><time>2026-03-29T10:44:16Z</time></trkpt><trkpt lat="41.94790735271758" lon="13.167151417289487"><ele>1548.6666666666665</ele><time>2026-03-29T10:44:18Z</time></trkpt><trkpt lat="41.94795651278032" lon="13.167221527356448"><ele>1549.3333333333333</ele><time>2026-03-29T10:44:19Z</time></trkpt><trkpt lat="41.94799812347193" lon="13.16729194851352"><ele>1550.0</ele><time>2026-03-29T10:44:20Z</time></trkpt><trkpt lat="41.948038454123896" lon="13.167361211367917"><ele>1550.1666666666665</ele><time>2026-03-29T10:44:21Z</time></trkpt><trkpt lat="41.94810144295676" lon="13.16748108927237"><ele>1550.3333333333333</ele><time>2026-03-29T10:44:23Z</time></trkpt><trkpt lat="41.94814139510115" lon="13.167572136955677"><ele>1550.5</ele><time>2026-03-29T10:44:25Z</time></trkpt><trkpt lat="41.948189976437746" lon="13.167660148996799"><ele>1550.6666666666665</ele><time>2026-03-29T10:44:28Z</time></trkpt><trkpt lat="41.94823608351066" lon="13.167774616670709"><ele>1550.8333333333333</ele><time>2026-03-29T10:44:36Z</time></trkpt><trkpt lat="41.94826721649578" lon="13.167850822746697"><ele>1551.0</ele><time>2026-03-29T10:44:37Z</time></trkpt><trkpt lat="41.94830164780658" lon="13.167935706593173"><ele>1551.0</ele><time>2026-03-29T10:44:38Z</time></trkpt><trkpt lat="41.94833905578821" lon="13.168028406047341"><ele>1551.0</ele><time>2026-03-29T10:44:38.999Z</time></trkpt><trkpt lat="41.94837649278491" lon="13.168129949435867"><ele>1551.0</ele><time>2026-03-29T10:44:39.999Z</time></trkpt><trkpt lat="41.94841071787238" lon="13.168233144697966"><ele>1551.0</ele><time>2026-03-29T10:44:40.999Z</time></trkpt><trkpt lat="41.94844163929133" lon="13.168340477452677"><ele>1551.0</ele><time>2026-03-29T10:44:41.999Z</time></trkpt><trkpt lat="41.94847288861145" lon="13.168442653114834"><ele>1551.0</ele><time>2026-03-29T10:44:42.999Z</time></trkpt><trkpt lat="41.948503759081525" lon="13.168538119309954"><ele>1551.8333333333333</ele><time>2026-03-29T10:44:43.999Z</time></trkpt><trkpt lat="41.948533835655994" lon="13.168641127052188"><ele>1552.6666666666665</ele><time>2026-03-29T10:44:44.999Z</time></trkpt><trkpt lat="41.948557050416994" lon="13.168736461244992"><ele>1553.5</ele><time>2026-03-29T10:44:45.999Z</time></trkpt><trkpt lat="41.94857927702707" lon="13.168827733222226"><ele>1554.3333333333333</ele><time>2026-03-29T10:44:46.999Z</time></trkpt><trkpt lat="41.94861320622872" lon="13.168930663403394"><ele>1555.1666666666665</ele><time>2026-03-29T10:44:47.999Z</time></trkpt><trkpt lat="41.948639829511855" lon="13.169022745452455"><ele>1556.0</ele><time>2026-03-29T10:44:48.999Z</time></trkpt><trkpt lat="41.94867588113779" lon="13.169132406807517"><ele>1556.6</ele><time>2026-03-29T10:44:49.999Z</time></trkpt><trkpt lat="41.94871258438537" lon="13.169247504481497"><ele>1557.1999999999998</ele><time>2026-03-29T10:44:50.999Z</time></trkpt><trkpt lat="41.94874460934589" lon="13.169362265982723"><ele>1557.8000000000002</ele><time>2026-03-29T10:44:51.999Z</time></trkpt><trkpt lat="41.94877654814698" lon="13.169481170511167"><ele>1558.4</ele><time>2026-03-29T10:44:52.999Z</time></trkpt><trkpt lat="41.948815391570584" lon="13.169600570289186"><ele>1559.0</ele><time>2026-03-29T10:44:53.999Z</time></trkpt><trkpt lat="41.94885378864997" lon="13.169723423824756"><ele>1559.0</ele><time>2026-03-29T10:44:54.999Z</time></trkpt><trkpt lat="41.948893922915516" lon="13.16984799862619"><ele>1559.0</ele><time>2026-03-29T10:44:55.999Z</time></trkpt><trkpt lat="41.94893284738797" lon="13.16997870946851"><ele>1559.0</ele><time>2026-03-29T10:44:56.999Z</time></trkpt><trkpt lat="41.94897092173522" lon="13.170112531001644"><ele>1559.0</ele><time>2026-03-29T10:44:57.999Z</time></trkpt><trkpt lat="41.94901020986621" lon="13.17024968549741"><ele>1559.0</ele><time>2026-03-29T10:44:58.999Z</time></trkpt><trkpt lat="41.94905393750817" lon="13.170391281582928"><ele>1559.75</ele><time>2026-03-29T10:44:59.999Z</time></trkpt><trkpt lat="41.94909753172039" lon="13.17053311620067"><ele>1560.5</ele><time>2026-03-29T10:45:00.999Z</time></trkpt><trkpt lat="41.94914265973272" lon="13.170675174203765"><ele>1561.25</ele><time>2026-03-29T10:45:01.999Z</time></trkpt><trkpt lat="41.949191207331275" lon="13.17081842843691"><ele>1562.0</ele><time>2026-03-29T10:45:02.999Z</time></trkpt><trkpt lat="41.94923903329051" lon="13.170961699869409"><ele>1563.75</ele><time>2026-03-29T10:45:03.999Z</time></trkpt><trkpt lat="41.94927179535124" lon="13.171122191896602"><ele>1565.5</ele><time>2026-03-29T10:45:04.999Z</time></trkpt><trkpt lat="41.94931684506952" lon="13.171276815548616"><ele>1567.25</ele><time>2026-03-29T10:45:05.999Z</time></trkpt><trkpt lat="41.94937496856119" lon="13.171419518371346"><ele>1569.0</ele><time>2026-03-29T10:45:06.999Z</time></trkpt><trkpt lat="41.94941409036154" lon="13.171572396054863"><ele>1570.5</ele><time>2026-03-29T10:45:07.999Z</time></trkpt><trkpt lat="41.94945799358936" lon="13.171721394223683"><ele>1572.0</ele><time>2026-03-29T10:45:08.999Z</time></trkpt><trkpt lat="41.949500974211226" lon="13.171870226109704"><ele>1573.5</ele><time>2026-03-29T10:45:09.999Z</time></trkpt><trkpt lat="41.94954334085756" lon="13.172018890927378"><ele>1575.0</ele><time>2026-03-29T10:45:10.999Z</time></trkpt><trkpt lat="41.94958345266693" lon="13.172160570325069"><ele>1575.0</ele><time>2026-03-29T10:45:11.999Z</time></trkpt><trkpt lat="41.94962727152946" lon="13.172300862186267"><ele>1575.0</ele><time>2026-03-29T10:45:12.999Z</time></trkpt><trkpt lat="41.949671114506906" lon="13.172439726981283"><ele>1575.0</ele><time>2026-03-29T10:45:13.999Z</time></trkpt><trkpt lat="41.94971094396662" lon="13.17257625454959"><ele>1575.0</ele><time>2026-03-29T10:45:14.999Z</time></trkpt><trkpt lat="41.949748844392275" lon="13.172716589270546"><ele>1575.0</ele><time>2026-03-29T10:45:15.999Z</time></trkpt><trkpt lat="41.949793887639956" lon="13.172845734501522"><ele>1575.25</ele><time>2026-03-29T10:45:16.999Z</time></trkpt><trkpt lat="41.94983226703578" lon="13.172988995439125"><ele>1575.5</ele><time>2026-03-29T10:45:17.999Z</time></trkpt><trkpt lat="41.94988186314573" lon="13.173129303653306"><ele>1575.75</ele><time>2026-03-29T10:45:18.999Z</time></trkpt><trkpt lat="41.949927662758355" lon="13.173275500680807"><ele>1576.0</ele><time>2026-03-29T10:45:19.999Z</time></trkpt><trkpt lat="41.94997237654777" lon="13.173421569781683"><ele>1576.5</ele><time>2026-03-29T10:45:20.999Z</time></trkpt><trkpt lat="41.95001440742659" lon="13.173574480916892"><ele>1577.0</ele><time>2026-03-29T10:45:21.999Z</time></trkpt><trkpt lat="41.950051924953556" lon="13.173730186966775"><ele>1577.5</ele><time>2026-03-29T10:45:22.999Z</time></trkpt><trkpt lat="41.95009659289836" lon="13.173886551522498"><ele>1578.0</ele><time>2026-03-29T10:45:23.999Z</time></trkpt><trkpt lat="41.95013938126203" lon="13.17404109698769"><ele>1580.25</ele><time>2026-03-29T10:45:24.999Z</time></trkpt><trkpt lat="41.95018255797298" lon="13.174195806624956"><ele>1582.5</ele><time>2026-03-29T10:45:25.999Z</time></trkpt><trkpt lat="41.95023191940535" lon="13.174341774291179"><ele>1584.75</ele><time>2026-03-29T10:45:26.999Z</time></trkpt><trkpt lat="41.95027810956144" lon="13.174491087671411"><ele>1587.0</ele><time>2026-03-29T10:45:27.999Z</time></trkpt><trkpt lat="41.95033941007049" lon="13.174633192848852"><ele>1587.0</ele><time>2026-03-29T10:45:28.999Z</time></trkpt><trkpt lat="41.95040590145845" lon="13.17476668886357"><ele>1587.0</ele><time>2026-03-29T10:45:29.999Z</time></trkpt><trkpt lat="41.95047454156208" lon="13.174895731553425"><ele>1587.0</ele><time>2026-03-29T10:45:30.999Z</time></trkpt><trkpt lat="41.95054113597057" lon="13.17500159235795"><ele>1587.0</ele><time>2026-03-29T10:45:31.999Z</time></trkpt><trkpt lat="41.950598196200545" lon="13.175093505332994"><ele>1587.0</ele><time>2026-03-29T10:45:32.999Z</time></trkpt><trkpt lat="41.950667131813226" lon="13.1752007137061"><ele>1587.0</ele><time>2026-03-29T10:45:34.999Z</time></trkpt><trkpt lat="41.950772429811536" lon="13.175306371639136"><ele>1587.0</ele><time>2026-03-29T10:47:56.998Z</time></trkpt><trkpt lat="41.95082746202444" lon="13.175370002145392"><ele>1587.0</ele><time>2026-03-29T10:47:57.998Z</time></trkpt><trkpt lat="41.95088973497387" lon="13.17543911894794"><ele>1587.0</ele><time>2026-03-29T10:47:58.998Z</time></trkpt><trkpt lat="41.950966643867844" lon="13.17552259069873"><ele>1587.0</ele><time>2026-03-29T10:47:59.998Z</time></trkpt><trkpt lat="41.95105120260013" lon="13.175617617646395"><ele>1589.0</ele><time>2026-03-29T10:48:00.998Z</time></trkpt><trkpt lat="41.95114414672826" lon="13.175720536489283"><ele>1591.0</ele><time>2026-03-29T10:48:01.998Z</time></trkpt><trkpt lat="41.95124908761524" lon="13.175839569839702"><ele>1593.0</ele><time>2026-03-29T10:48:02.998Z</time></trkpt><trkpt lat="41.95133946447067" lon="13.175945387329282"><ele>1595.0</ele><time>2026-03-29T10:48:03.998Z</time></trkpt><trkpt lat="41.951427682922" lon="13.176077038965335"><ele>1595.0</ele><time>2026-03-29T10:48:04.998Z</time></trkpt><trkpt lat="41.95151020422551" lon="13.176234237248934"><ele>1595.0</ele><time>2026-03-29T10:48:05.998Z</time></trkpt><trkpt lat="41.951589595150736" lon="13.176409900851"><ele>1595.0</ele><time>2026-03-29T10:48:06.998Z</time></trkpt><trkpt lat="41.95167149404588" lon="13.17659327105662"><ele>1601.0</ele><time>2026-03-29T10:48:08Z</time></trkpt><trkpt lat="41.95175299482331" lon="13.176768224040654"><ele>1607.0</ele><time>2026-03-29T10:48:09Z</time></trkpt><trkpt lat="41.95182507765113" lon="13.176957223009767"><ele>1613.0</ele><time>2026-03-29T10:48:10Z</time></trkpt><trkpt lat="41.951914922644725" lon="13.17713647720101"><ele>1613.0</ele><time>2026-03-29T10:48:11Z</time></trkpt><trkpt lat="41.95200643565292" lon="13.177318016393675"><ele>1613.0</ele><time>2026-03-29T10:48:12Z</time></trkpt><trkpt lat="41.95209856892832" lon="13.17750025671948"><ele>1613.0</ele><time>2026-03-29T10:48:13Z</time></trkpt><trkpt lat="41.95217621663724" lon="13.177675803487968"><ele>1612.3333333333333</ele><time>2026-03-29T10:48:14Z</time></trkpt><trkpt lat="41.9522383813971" lon="13.17786545112256"><ele>1611.6666666666665</ele><time>2026-03-29T10:48:15Z</time></trkpt><trkpt lat="41.9522691590924" lon="13.17807579247749"><ele>1611.0</ele><time>2026-03-29T10:48:16Z</time></trkpt><trkpt lat="41.95228477395614" lon="13.178291334552544"><ele>1611.0</ele><time>2026-03-29T10:48:17Z</time></trkpt><trkpt lat="41.95227493525458" lon="13.178516107605963"><ele>1611.0</ele><time>2026-03-29T10:48:18Z</time></trkpt><trkpt lat="41.952272048271595" lon="13.178749828262163"><ele>1611.0</ele><time>2026-03-29T10:48:19Z</time></trkpt><trkpt lat="41.95225265116802" lon="13.178988840008689"><ele>1613.0</ele><time>2026-03-29T10:48:20Z</time></trkpt><trkpt lat="41.95223855753927" lon="13.17923444311097"><ele>1615.0</ele><time>2026-03-29T10:48:21Z</time></trkpt><trkpt lat="41.95223481490126" lon="13.179478745959937"><ele>1617.0</ele><time>2026-03-29T10:48:22Z</time></trkpt><trkpt lat="41.95223564144662" lon="13.179716492861935"><ele>1618.0</ele><time>2026-03-29T10:48:23Z</time></trkpt><trkpt lat="41.95222206661623" lon="13.179926563707593"><ele>1619.0</ele><time>2026-03-29T10:48:24Z</time></trkpt><trkpt lat="41.952235551647796" lon="13.180114826477773"><ele>1620.0</ele><time>2026-03-29T10:48:25Z</time></trkpt><trkpt lat="41.95227389262366" lon="13.180288315493126"><ele>1621.0</ele><time>2026-03-29T10:48:26Z</time></trkpt><trkpt lat="41.95230197948739" lon="13.180462328748543"><ele>1621.0</ele><time>2026-03-29T10:48:27Z</time></trkpt><trkpt lat="41.952329226245965" lon="13.180617406247794"><ele>1621.0</ele><time>2026-03-29T10:48:28Z</time></trkpt><trkpt lat="41.95233764794915" lon="13.180761127833362"><ele>1621.0</ele><time>2026-03-29T10:48:29Z</time></trkpt><trkpt lat="41.95235649682393" lon="13.180892725758488"><ele>1621.0</ele><time>2026-03-29T10:48:30Z</time></trkpt><trkpt lat="41.9523805204139" lon="13.181024079688365"><ele>1621.0</ele><time>2026-03-29T10:48:31Z</time></trkpt><trkpt lat="41.95233864912971" lon="13.181142791164705"><ele>1621.6</ele><time>2026-03-29T10:48:32Z</time></trkpt><trkpt lat="41.95230032484694" lon="13.181277732367853"><ele>1622.1999999999998</ele><time>2026-03-29T10:48:33Z</time></trkpt><trkpt lat="41.952261023216195" lon="13.181404664828214"><ele>1622.8000000000002</ele><time>2026-03-29T10:48:34Z</time></trkpt><trkpt lat="41.952227677485226" lon="13.18154102674961"><ele>1623.4</ele><time>2026-03-29T10:48:35Z</time></trkpt><trkpt lat="41.95222162106455" lon="13.181668742206254"><ele>1624.0</ele><time>2026-03-29T10:48:36Z</time></trkpt><trkpt lat="41.95222638773501" lon="13.181884236159675"><ele>1625.75</ele><time>2026-03-29T10:48:38Z</time></trkpt><trkpt lat="41.95223578504687" lon="13.182062055218857"><ele>1627.5</ele><time>2026-03-29T10:48:39Z</time></trkpt><trkpt lat="41.95224273152296" lon="13.18222678728554"><ele>1629.25</ele><time>2026-03-29T10:48:40Z</time></trkpt><trkpt lat="41.9522431324079" lon="13.182407815260772"><ele>1631.0</ele><time>2026-03-29T10:48:41Z</time></trkpt><trkpt lat="41.9522158807808" lon="13.182593219408377"><ele>1633.25</ele><time>2026-03-29T10:48:42Z</time></trkpt><trkpt lat="41.95218151823798" lon="13.1827696432883"><ele>1635.5</ele><time>2026-03-29T10:48:43Z</time></trkpt><trkpt lat="41.95215546806253" lon="13.182934047490404"><ele>1637.75</ele><time>2026-03-29T10:48:44Z</time></trkpt><trkpt lat="41.952144207093625" lon="13.183107550808753"><ele>1640.0</ele><time>2026-03-29T10:48:45Z</time></trkpt><trkpt lat="41.952140830592484" lon="13.18327894827315"><ele>1642.0</ele><time>2026-03-29T10:48:46Z</time></trkpt><trkpt lat="41.95214560149831" lon="13.183445740967615"><ele>1644.0</ele><time>2026-03-29T10:48:47Z</time></trkpt><trkpt lat="41.952158954133644" lon="13.183611942950723"><ele>1646.0</ele><time>2026-03-29T10:48:48Z</time></trkpt><trkpt lat="41.952185280309564" lon="13.183778824233109"><ele>1648.0</ele><time>2026-03-29T10:48:48.999Z</time></trkpt><trkpt lat="41.95223019630341" lon="13.183945407940998"><ele>1647.2</ele><time>2026-03-29T10:48:49.999Z</time></trkpt><trkpt lat="41.95229018719483" lon="13.184095796301882"><ele>1646.4</ele><time>2026-03-29T10:48:50.999Z</time></trkpt><trkpt lat="41.95234786916875" lon="13.184197460363388"><ele>1645.6000000000001</ele><time>2026-03-29T10:48:51.999Z</time></trkpt><trkpt lat="41.952400854604605" lon="13.184243326057281"><ele>1644.8000000000002</ele><time>2026-03-29T10:48:54.999Z</time></trkpt><trkpt lat="41.952483131294365" lon="13.184348149027583"><ele>1644.0</ele><time>2026-03-29T10:52:39Z</time></trkpt><trkpt lat="41.95252752719807" lon="13.184412591109629"><ele>1646.8333333333333</ele><time>2026-03-29T10:52:40Z</time></trkpt><trkpt lat="41.952567066317656" lon="13.184478623870403"><ele>1649.6666666666665</ele><time>2026-03-29T10:52:41Z</time></trkpt><trkpt lat="41.95264138435171" lon="13.184607538527537"><ele>1652.5</ele><time>2026-03-29T10:52:43Z</time></trkpt><trkpt lat="41.952729857615964" lon="13.184726555416153"><ele>1655.3333333333333</ele><time>2026-03-29T10:52:45Z</time></trkpt><trkpt lat="41.952778862415194" lon="13.18478275510868"><ele>1658.1666666666665</ele><time>2026-03-29T10:52:46Z</time></trkpt><trkpt lat="41.95283027761435" lon="13.184839365117135"><ele>1661.0</ele><time>2026-03-29T10:52:47Z</time></trkpt><trkpt lat="41.95292017571167" lon="13.184925217907281"><ele>1660.9999999999998</ele><time>2026-03-29T10:52:49Z</time></trkpt><trkpt lat="41.95300187944977" lon="13.185007976978149"><ele>1661.0</ele><time>2026-03-29T10:52:51Z</time></trkpt><trkpt lat="41.9530433551503" lon="13.185079498613367"><ele>1661.0</ele><time>2026-03-29T10:52:53.999Z</time></trkpt><trkpt lat="41.95300114132704" lon="13.184998724846142"><ele>1661.0</ele><time>2026-03-29T10:53:12.999Z</time></trkpt><trkpt lat="41.95292792661772" lon="13.184921984574418"><ele>1660.9999999999998</ele><time>2026-03-29T10:53:14.999Z</time></trkpt><trkpt lat="41.952858367119944" lon="13.184865661323343"><ele>1661.0</ele><time>2026-03-29T10:53:16.999Z</time></trkpt><trkpt lat="41.952790213026404" lon="13.184809567533891"><ele>1663.0</ele><time>2026-03-29T10:53:18.999Z</time></trkpt><trkpt lat="41.95273218917164" lon="13.184736542785297"><ele>1665.0</ele><time>2026-03-29T10:53:20.999Z</time></trkpt><trkpt lat="41.952680110551086" lon="13.184645250585355"><ele>1667.0</ele><time>2026-03-29T10:53:22.999Z</time></trkpt><trkpt lat="41.95256207232136" lon="13.184448953186052"><ele>1669.0</ele><time>2026-03-29T10:53:24.999Z</time></trkpt><trkpt lat="41.95250356923937" lon="13.184415100864317"><ele>1671.0</ele><time>2026-03-29T10:53:25.999Z</time></trkpt><trkpt lat="41.9524549981689" lon="13.184332203523478"><ele>1667.1666666666667</ele><time>2026-03-29T10:53:26.999Z</time></trkpt><trkpt lat="41.95239356101028" lon="13.184252577560754"><ele>1663.3333333333335</ele><time>2026-03-29T10:53:27.999Z</time></trkpt><trkpt lat="41.95234698826513" lon="13.18416550589655"><ele>1659.5</ele><time>2026-03-29T10:53:28.999Z</time></trkpt><trkpt lat="41.952307595381086" lon="13.184086735494867"><ele>1655.6666666666667</ele><time>2026-03-29T10:53:29.999Z</time></trkpt><trkpt lat="41.95226727112138" lon="13.184000232260574"><ele>1651.8333333333335</ele><time>2026-03-29T10:53:30.999Z</time></trkpt><trkpt lat="41.952235560878236" lon="13.183906258074733"><ele>1648.0</ele><time>2026-03-29T10:53:31.999Z</time></trkpt><trkpt lat="41.95220479121339" lon="13.183798114069337"><ele>1648.0</ele><time>2026-03-29T10:53:32.999Z</time></trkpt><trkpt lat="41.95218517114784" lon="13.183686182349316"><ele>1648.0</ele><time>2026-03-29T10:53:33.999Z</time></trkpt><trkpt lat="41.952172558255235" lon="13.183557145256442"><ele>1648.0</ele><time>2026-03-29T10:53:34.999Z</time></trkpt><trkpt lat="41.95216680796051" lon="13.183421519082478"><ele>1648.0</ele><time>2026-03-29T10:53:35.999Z</time></trkpt><trkpt lat="41.95216334175452" lon="13.183283229424491"><ele>1648.0</ele><time>2026-03-29T10:53:36.999Z</time></trkpt><trkpt lat="41.952164268735636" lon="13.183145895568265"><ele>1646.4</ele><time>2026-03-29T10:53:37.999Z</time></trkpt><trkpt lat="41.95217095708009" lon="13.183010847573504"><ele>1644.8000000000002</ele><time>2026-03-29T10:53:38.999Z</time></trkpt><trkpt lat="41.952181857485215" lon="13.182880699841895"><ele>1643.2</ele><time>2026-03-29T10:53:39.999Z</time></trkpt><trkpt lat="41.952218564017585" lon="13.18275386915655"><ele>1641.6</ele><time>2026-03-29T10:53:40.999Z</time></trkpt><trkpt lat="41.9522469209304" lon="13.182615083359993"><ele>1640.0</ele><time>2026-03-29T10:53:41.999Z</time></trkpt><trkpt lat="41.95226655017541" lon="13.182471045828672"><ele>1638.2</ele><time>2026-03-29T10:53:42.999Z</time></trkpt><trkpt lat="41.95227459449046" lon="13.182334736727642"><ele>1636.4</ele><time>2026-03-29T10:53:43.999Z</time></trkpt><trkpt lat="41.95226339759039" lon="13.182198591721827"><ele>1634.6</ele><time>2026-03-29T10:53:44.999Z</time></trkpt><trkpt lat="41.95226707420326" lon="13.182059313658728"><ele>1632.8</ele><time>2026-03-29T10:53:45.999Z</time></trkpt><trkpt lat="41.95225829460789" lon="13.18192126232782"><ele>1631.0</ele><time>2026-03-29T10:53:46.999Z</time></trkpt><trkpt lat="41.95226280343094" lon="13.181809241703483"><ele>1630.9999999999998</ele><time>2026-03-29T10:53:47.999Z</time></trkpt><trkpt lat="41.95227626835532" lon="13.18168610279189"><ele>1631.0</ele><time>2026-03-29T10:53:48.999Z</time></trkpt><trkpt lat="41.952292552733155" lon="13.18157463391658"><ele>1631.0</ele><time>2026-03-29T10:53:49.998Z</time></trkpt><trkpt lat="41.95231239799361" lon="13.18147574749983"><ele>1631.0</ele><time>2026-03-29T10:53:50.998Z</time></trkpt><trkpt lat="41.95233178971684" lon="13.181388844098587"><ele>1630.9999999999998</ele><time>2026-03-29T10:53:51.998Z</time></trkpt><trkpt lat="41.95235150587584" lon="13.181253414148086"><ele>1631.0</ele><time>2026-03-29T10:53:53.998Z</time></trkpt><trkpt lat="41.95237246685746" lon="13.181088256605697"><ele>1629.6</ele><time>2026-03-29T10:53:55.998Z</time></trkpt><trkpt lat="41.952394136142985" lon="13.181001597006865"><ele>1628.1999999999998</ele><time>2026-03-29T10:53:56.998Z</time></trkpt><trkpt lat="41.95239139311118" lon="13.180891230835847"><ele>1626.8000000000002</ele><time>2026-03-29T10:53:57.998Z</time></trkpt><trkpt lat="41.952373101520855" lon="13.180771900185103"><ele>1625.4</ele><time>2026-03-29T10:53:58.998Z</time></trkpt><trkpt lat="41.952350519552006" lon="13.18063086593894"><ele>1624.0</ele><time>2026-03-29T10:53:59.998Z</time></trkpt><trkpt lat="41.952326144078675" lon="13.180487381786431"><ele>1623.4</ele><time>2026-03-29T10:54:00.998Z</time></trkpt><trkpt lat="41.9523037449855" lon="13.18034609527959"><ele>1622.8000000000002</ele><time>2026-03-29T10:54:01.998Z</time></trkpt><trkpt lat="41.9522821980863" lon="13.18020697979284"><ele>1622.1999999999998</ele><time>2026-03-29T10:54:02.998Z</time></trkpt><trkpt lat="41.95226370559875" lon="13.18006256433399"><ele>1621.6</ele><time>2026-03-29T10:54:03.998Z</time></trkpt><trkpt lat="41.95223835071214" lon="13.179910722427687"><ele>1621.0</ele><time>2026-03-29T10:54:04.998Z</time></trkpt><trkpt lat="41.9522369506606" lon="13.179736513780597"><ele>1620.0</ele><time>2026-03-29T10:54:05.998Z</time></trkpt><trkpt lat="41.95225402126347" lon="13.179549681930425"><ele>1619.0</ele><time>2026-03-29T10:54:06.998Z</time></trkpt><trkpt lat="41.95224213110532" lon="13.17934998727845"><ele>1618.0</ele><time>2026-03-29T10:54:07.998Z</time></trkpt><trkpt lat="41.95225269325971" lon="13.179141452751184"><ele>1617.0</ele><time>2026-03-29T10:54:08.998Z</time></trkpt><trkpt lat="41.952259077539104" lon="13.17893031554339"><ele>1615.5</ele><time>2026-03-29T10:54:09.998Z</time></trkpt><trkpt lat="41.95227582649671" lon="13.178728478669269"><ele>1614.0</ele><time>2026-03-29T10:54:10.998Z</time></trkpt><trkpt lat="41.952299712413996" lon="13.178534736155573"><ele>1612.5</ele><time>2026-03-29T10:54:11.998Z</time></trkpt><trkpt lat="41.95231680841135" lon="13.178344033339794"><ele>1611.0</ele><time>2026-03-29T10:54:12.998Z</time></trkpt><trkpt lat="41.952313884747504" lon="13.178147925901083"><ele>1610.6666666666665</ele><time>2026-03-29T10:54:13.998Z</time></trkpt><trkpt lat="41.95228645933493" lon="13.17794346064958"><ele>1610.3333333333333</ele><time>2026-03-29T10:54:14.998Z</time></trkpt><trkpt lat="41.95223509572004" lon="13.177735248696665"><ele>1610.0</ele><time>2026-03-29T10:54:15.998Z</time></trkpt><trkpt lat="41.95215408326883" lon="13.177531773762592"><ele>1611.0</ele><time>2026-03-29T10:54:16.998Z</time></trkpt><trkpt lat="41.95205070815328" lon="13.17733382440896"><ele>1612.0</ele><time>2026-03-29T10:54:17.998Z</time></trkpt><trkpt lat="41.951937960638915" lon="13.17713954839971"><ele>1613.0</ele><time>2026-03-29T10:54:18.998Z</time></trkpt><trkpt lat="41.951850745883384" lon="13.176928402597758"><ele>1613.0</ele><time>2026-03-29T10:54:19.998Z</time></trkpt><trkpt lat="41.95175022808958" lon="13.176741390227487"><ele>1613.0</ele><time>2026-03-29T10:54:20.998Z</time></trkpt><trkpt lat="41.951660285015045" lon="13.176554121101967"><ele>1613.0</ele><time>2026-03-29T10:54:21.998Z</time></trkpt><trkpt lat="41.95157918384466" lon="13.176370716798717"><ele>1608.5</ele><time>2026-03-29T10:54:22.998Z</time></trkpt><trkpt lat="41.95150164422971" lon="13.176200841015493"><ele>1604.0</ele><time>2026-03-29T10:54:24Z</time></trkpt><trkpt lat="41.95141961313176" lon="13.176041346082783"><ele>1599.5</ele><time>2026-03-29T10:54:25Z</time></trkpt><trkpt lat="41.951314871862515" lon="13.175887459934998"><ele>1595.0</ele><time>2026-03-29T10:54:26Z</time></trkpt><trkpt lat="41.951187218189524" lon="13.175744967162501"><ele>1594.0</ele><time>2026-03-29T10:54:27Z</time></trkpt><trkpt lat="41.95105448256971" lon="13.175605586175598"><ele>1593.0</ele><time>2026-03-29T10:54:28Z</time></trkpt><trkpt lat="41.95093617652176" lon="13.17544381375456"><ele>1592.0</ele><time>2026-03-29T10:54:29Z</time></trkpt><trkpt lat="41.95080949722522" lon="13.175296878132103"><ele>1590.3333333333333</ele><time>2026-03-29T10:54:30Z</time></trkpt><trkpt lat="41.950686116781625" lon="13.17515270984309"><ele>1588.6666666666665</ele><time>2026-03-29T10:54:31Z</time></trkpt><trkpt lat="41.95056794883102" lon="13.175005326063264"><ele>1587.0</ele><time>2026-03-29T10:54:32Z</time></trkpt><trkpt lat="41.95046243177285" lon="13.17483017653823"><ele>1587.0</ele><time>2026-03-29T10:54:33Z</time></trkpt><trkpt lat="41.950366647848945" lon="13.174637010320625"><ele>1587.0</ele><time>2026-03-29T10:54:34Z</time></trkpt><trkpt lat="41.95028356333756" lon="13.1744208986441"><ele>1587.0</ele><time>2026-03-29T10:54:35Z</time></trkpt><trkpt lat="41.950212061123224" lon="13.174203734309614"><ele>1585.6666666666665</ele><time>2026-03-29T10:54:36Z</time></trkpt><trkpt lat="41.950131880115165" lon="13.173990126606911"><ele>1584.3333333333333</ele><time>2026-03-29T10:54:37Z</time></trkpt><trkpt lat="41.950064929654175" lon="13.173763336514297"><ele>1583.0</ele><time>2026-03-29T10:54:38Z</time></trkpt><trkpt lat="41.94999907228757" lon="13.173528533651243"><ele>1581.3333333333333</ele><time>2026-03-29T10:54:39Z</time></trkpt><trkpt lat="41.94992945331293" lon="13.17329520811391"><ele>1579.6666666666665</ele><time>2026-03-29T10:54:40Z</time></trkpt><trkpt lat="41.949860630355744" lon="13.173050097517292"><ele>1578.0</ele><time>2026-03-29T10:54:41Z</time></trkpt><trkpt lat="41.949787011515724" lon="13.172799861677044"><ele>1577.3333333333335</ele><time>2026-03-29T10:54:42Z</time></trkpt><trkpt lat="41.949728817279" lon="13.172540625648823"><ele>1576.6666666666667</ele><time>2026-03-29T10:54:43Z</time></trkpt><trkpt lat="41.94964067399197" lon="13.172300182827021"><ele>1576.0</ele><time>2026-03-29T10:54:44Z</time></trkpt><trkpt lat="41.94956786523011" lon="13.172058223039594"><ele>1575.6666666666667</ele><time>2026-03-29T10:54:45Z</time></trkpt><trkpt lat="41.94951066867623" lon="13.171813316871715"><ele>1575.3333333333335</ele><time>2026-03-29T10:54:46Z</time></trkpt><trkpt lat="41.94944162491229" lon="13.171582391627117"><ele>1575.0</ele><time>2026-03-29T10:54:47Z</time></trkpt><trkpt lat="41.94937597244718" lon="13.171357053354825"><ele>1573.0</ele><time>2026-03-29T10:54:48Z</time></trkpt><trkpt lat="41.94931173373252" lon="13.171136567526307"><ele>1571.0</ele><time>2026-03-29T10:54:49Z</time></trkpt><trkpt lat="41.94924838411174" lon="13.170919133281684"><ele>1569.0</ele><time>2026-03-29T10:54:50Z</time></trkpt><trkpt lat="41.9491895891251" lon="13.17072059380851"><ele>1566.6666666666665</ele><time>2026-03-29T10:54:51Z</time></trkpt><trkpt lat="41.949122886021904" lon="13.170500631338754"><ele>1564.3333333333333</ele><time>2026-03-29T10:54:52Z</time></trkpt><trkpt lat="41.949058046290375" lon="13.170290828878963"><ele>1562.0</ele><time>2026-03-29T10:54:53Z</time></trkpt><trkpt lat="41.9489968135323" lon="13.170092697529576"><ele>1562.0</ele><time>2026-03-29T10:54:54Z</time></trkpt><trkpt lat="41.94893709203926" lon="13.169899456217712"><ele>1562.0</ele><time>2026-03-29T10:54:55Z</time></trkpt><trkpt lat="41.9488761440971" lon="13.169702246458511"><ele>1562.0</ele><time>2026-03-29T10:54:56Z</time></trkpt><trkpt lat="41.94881140924453" lon="13.169492783372517"><ele>1561.0</ele><time>2026-03-29T10:54:57Z</time></trkpt><trkpt lat="41.94874668492212" lon="13.169283354317724"><ele>1560.0</ele><time>2026-03-29T10:54:58Z</time></trkpt><trkpt lat="41.948686924138435" lon="13.169089614918972"><ele>1559.0</ele><time>2026-03-29T10:54:59Z</time></trkpt><trkpt lat="41.94863458204373" lon="13.168913785237583"><ele>1558.25</ele><time>2026-03-29T10:55:00Z</time></trkpt><trkpt lat="41.94858592776007" lon="13.168744572038086"><ele>1557.5</ele><time>2026-03-29T10:55:00.999Z</time></trkpt><trkpt lat="41.94854274652889" lon="13.16859340839032"><ele>1556.75</ele><time>2026-03-29T10:55:01.999Z</time></trkpt><trkpt lat="41.948490148449366" lon="13.168462503194574"><ele>1556.0</ele><time>2026-03-29T10:55:02.999Z</time></trkpt><trkpt lat="41.94846571332144" lon="13.16835207269367"><ele>1556.0</ele><time>2026-03-29T10:55:03.999Z</time></trkpt><trkpt lat="41.94844274733204" lon="13.168230591906944"><ele>1556.0</ele><time>2026-03-29T10:55:05.999Z</time></trkpt><trkpt lat="41.948401165214214" lon="13.168130988745533"><ele>1556.0</ele><time>2026-03-29T10:55:07.999Z</time></trkpt><trkpt lat="41.948428966029006" lon="13.168306047726382"><ele>1556.0</ele><time>2026-03-29T10:55:27.999Z</time></trkpt><trkpt lat="41.94846112675828" lon="13.168393946204386"><ele>1556.0</ele><time>2026-03-29T10:55:28.999Z</time></trkpt><trkpt lat="41.94848788592881" lon="13.168484934475803"><ele>1555.9999999999998</ele><time>2026-03-29T10:55:29.999Z</time></trkpt><trkpt lat="41.94851957323829" lon="13.16861493679386"><ele>1556.0</ele><time>2026-03-29T10:55:31.999Z</time></trkpt><trkpt lat="41.948513107414335" lon="13.168705988576132"><ele>1556.0</ele><time>2026-03-29T10:55:33.999Z</time></trkpt><trkpt lat="41.94846436858913" lon="13.16879541466078"><ele>1556.0</ele><time>2026-03-29T10:55:35.999Z</time></trkpt><trkpt lat="41.94840490350858" lon="13.168832367539263"><ele>1555.9999999999998</ele><time>2026-03-29T10:55:37.999Z</time></trkpt><trkpt lat="41.94834727681894" lon="13.168882362757174"><ele>1556.0</ele><time>2026-03-29T10:55:39.999Z</time></trkpt><trkpt lat="41.94827746026471" lon="13.168944033688616"><ele>1555.9999999999998</ele><time>2026-03-29T10:55:43.999Z</time></trkpt><trkpt lat="41.94833891775407" lon="13.169071482816639"><ele>1556.0</ele><time>2026-03-29T11:00:13.998Z</time></trkpt><trkpt lat="41.948319768172645" lon="13.168964698926997"><ele>1556.0</ele><time>2026-03-29T11:03:52.999Z</time></trkpt><trkpt lat="41.94837709240999" lon="13.168870285904065"><ele>1556.0</ele><time>2026-03-29T11:03:54.999Z</time></trkpt><trkpt lat="41.948455981620846" lon="13.168841572940103"><ele>1555.9999999999998</ele><time>2026-03-29T11:03:56.999Z</time></trkpt><trkpt lat="41.94852325988504" lon="13.168784797631332"><ele>1556.0</ele><time>2026-03-29T11:03:59.999Z</time></trkpt><trkpt lat="41.94858084764916" lon="13.168736974096998"><ele>1644.0</ele><time>2026-03-29T11:04:02.999Z</time></trkpt><trkpt lat="41.952483131294365" lon="13.184348149027583"><ele>1644.0</ele><time>2026-03-29T10:52:39Z</time></trkpt><trkpt lat="41.95252752719807" lon="13.184412591109629"><ele>1644.0</ele><time>2026-03-29T10:52:40Z</time></trkpt><trkpt lat="41.952567066317656" lon="13.184478623870403"><ele>1644.0</ele><time>2026-03-29T10:52:41Z</time></trkpt><trkpt lat="41.95264138435171" lon="13.184607538527537"><ele>1644.0</ele><time>2026-03-29T10:52:43Z</time></trkpt><trkpt lat="41.952729857615964" lon="13.184726555416153"><ele>1644.0</ele><time>2026-03-29T10:52:45Z</time></trkpt><trkpt lat="41.952778862415194" lon="13.18478275510868"><ele>1644.0</ele><time>2026-03-29T10:52:46Z</time></trkpt><trkpt lat="41.95283027761435" lon="13.184839365117135"><ele>1646.8333333333333</ele><time>2026-03-29T10:52:47Z</time></trkpt><trkpt lat="41.95292017571167" lon="13.184925217907281"><ele>1649.6666666666665</ele><time>2026-03-29T10:52:49Z</time></trkpt><trkpt lat="41.95300187944977" lon="13.185007976978149"><ele>1652.5</ele><time>2026-03-29T10:52:51Z</time></trkpt><trkpt lat="41.9530433551503" lon="13.185079498613367"><ele>1655.3333333333333</ele><time>2026-03-29T10:52:53.999Z</time></trkpt><trkpt lat="41.95300114132704" lon="13.184998724846142"><ele>1658.1666666666665</ele><time>2026-03-29T10:53:12.999Z</time></trkpt><trkpt lat="41.95292792661772" lon="13.184921984574418"><ele>1661.0</ele><time>2026-03-29T10:53:14.999Z</time></trkpt><trkpt lat="41.952858367119944" lon="13.184865661323343"><ele>1663.0</ele><time>2026-03-29T10:53:16.999Z</time></trkpt><trkpt lat="41.952790213026404" lon="13.184809567533891"><ele>1665.0</ele><time>2026-03-29T10:53:18.999Z</time></trkpt><trkpt lat="41.95273218917164" lon="13.184736542785297"><ele>1667.0</ele><time>2026-03-29T10:53:20.999Z</time></trkpt><trkpt lat="41.952680110551086" lon="13.184645250585355"><ele>1669.0</ele><time>2026-03-29T10:53:22.999Z</time></trkpt><trkpt lat="41.95256207232136" lon="13.184448953186052"><ele>1671.0</ele><time>2026-03-29T10:53:24.999Z</time></trkpt><trkpt lat="41.95250356923937" lon="13.184415100864317"><ele>1667.1666666666667</ele><time>2026-03-29T10:53:25.999Z</time></trkpt><trkpt lat="41.9524549981689" lon="13.184332203523478"><ele>1663.3333333333335</ele><time>2026-03-29T10:53:26.999Z</time></trkpt><trkpt lat="41.95239356101028" lon="13.184252577560754"><ele>1659.5</ele><time>2026-03-29T10:53:27.999Z</time></trkpt><trkpt lat="41.95234698826513" lon="13.18416550589655"><ele>1655.6666666666667</ele><time>2026-03-29T10:53:28.999Z</time></trkpt><trkpt lat="41.952307595381086" lon="13.184086735494867"><ele>1651.8333333333335</ele><time>2026-03-29T10:53:29.999Z</time></trkpt><trkpt lat="41.95226727112138" lon="13.184000232260574"><ele>1648.0</ele><time>2026-03-29T10:53:30.999Z</time></trkpt><trkpt lat="41.952235560878236" lon="13.183906258074733"><ele>1648.0</ele><time>2026-03-29T10:53:31.999Z</time></trkpt><trkpt lat="41.95220479121339" lon="13.183798114069337"><ele>1648.0</ele><time>2026-03-29T10:53:32.999Z</time></trkpt><trkpt lat="41.95218517114784" lon="13.183686182349316"><ele>1648.0</ele><time>2026-03-29T10:53:33.999Z</time></trkpt><trkpt lat="41.952172558255235" lon="13.183557145256442"><ele>1648.0</ele><time>2026-03-29T10:53:34.999Z</time></trkpt><trkpt lat="41.95216680796051" lon="13.183421519082478"><ele>1648.0</ele><time>2026-03-29T10:53:35.999Z</time></trkpt><trkpt lat="41.95216334175452" lon="13.183283229424491"><ele>1646.4</ele><time>2026-03-29T10:53:36.999Z</time></trkpt><trkpt lat="41.952164268735636" lon="13.183145895568265"><ele>1644.8000000000002</ele><time>2026-03-29T10:53:37.999Z</time></trkpt><trkpt lat="41.95217095708009" lon="13.183010847573504"><ele>1643.2</ele><time>2026-03-29T10:53:38.999Z</time></trkpt><trkpt lat="41.952181857485215" lon="13.182880699841895"><ele>1641.6</ele><time>2026-03-29T10:53:39.999Z</time></trkpt><trkpt lat="41.952218564017585" lon="13.18275386915655"><ele>1640.0</ele><time>2026-03-29T10:53:40.999Z</time></trkpt><trkpt lat="41.9522469209304" lon="13.182615083359993"><ele>1640.0</ele><time>2026-03-29T10:53:41.999Z</time></trkpt><trkpt lat="41.95226655017541" lon="13.182471045828672"><ele>1640.0</ele><time>2026-03-29T10:53:42.999Z</time></trkpt><trkpt lat="41.95227459449046" lon="13.182334736727642"><ele>1640.0</ele><time>2026-03-29T10:53:43.999Z</time></trkpt><trkpt lat="41.95226339759039" lon="13.182198591721827"><ele>1640.0</ele><time>2026-03-29T10:53:44.999Z</time></trkpt><trkpt lat="41.95226707420326" lon="13.182059313658728"><ele>1640.0</ele><time>2026-03-29T10:53:45.999Z</time></trkpt><trkpt lat="41.95225829460789" lon="13.18192126232782"><ele>1638.4999999999998</ele><time>2026-03-29T10:53:46.999Z</time></trkpt><trkpt lat="41.95226280343094" lon="13.181809241703483"><ele>1637.0</ele><time>2026-03-29T10:53:47.999Z</time></trkpt><trkpt lat="41.95227626835532" lon="13.18168610279189"><ele>1635.5</ele><time>2026-03-29T10:53:48.999Z</time></trkpt><trkpt lat="41.952292552733155" lon="13.18157463391658"><ele>1634.0</ele><time>2026-03-29T10:53:49.998Z</time></trkpt><trkpt lat="41.95231239799361" lon="13.18147574749983"><ele>1632.4999999999998</ele><time>2026-03-29T10:53:50.998Z</time></trkpt><trkpt lat="41.95233178971684" lon="13.181388844098587"><ele>1631.0</ele><time>2026-03-29T10:53:51.998Z</time></trkpt><trkpt lat="41.95235150587584" lon="13.181253414148086"><ele>1629.6</ele><time>2026-03-29T10:53:53.998Z</time></trkpt><trkpt lat="41.95237246685746" lon="13.181088256605697"><ele>1628.1999999999998</ele><time>2026-03-29T10:53:55.998Z</time></trkpt><trkpt lat="41.952394136142985" lon="13.181001597006865"><ele>1626.8000000000002</ele><time>2026-03-29T10:53:56.998Z</time></trkpt><trkpt lat="41.95239139311118" lon="13.180891230835847"><ele>1625.4</ele><time>2026-03-29T10:53:57.998Z</time></trkpt><trkpt lat="41.952373101520855" lon="13.180771900185103"><ele>1624.0</ele><time>2026-03-29T10:53:58.998Z</time></trkpt><trkpt lat="41.952350519552006" lon="13.18063086593894"><ele>1623.4</ele><time>2026-03-29T10:53:59.998Z</time></trkpt><trkpt lat="41.952326144078675" lon="13.180487381786431"><ele>1622.8000000000002</ele><time>2026-03-29T10:54:00.998Z</time></trkpt><trkpt lat="41.9523037449855" lon="13.18034609527959"><ele>1622.1999999999998</ele><time>2026-03-29T10:54:01.998Z</time></trkpt><trkpt lat="41.9522821980863" lon="13.18020697979284"><ele>1621.6</ele><time>2026-03-29T10:54:02.998Z</time></trkpt><trkpt lat="41.95226370559875" lon="13.18006256433399"><ele>1621.0</ele><time>2026-03-29T10:54:03.998Z</time></trkpt><trkpt lat="41.95223835071214" lon="13.179910722427687"><ele>1620.0</ele><time>2026-03-29T10:54:04.998Z</time></trkpt><trkpt lat="41.9522369506606" lon="13.179736513780597"><ele>1619.0</ele><time>2026-03-29T10:54:05.998Z</time></trkpt><trkpt lat="41.95225402126347" lon="13.179549681930425"><ele>1618.0</ele><time>2026-03-29T10:54:06.998Z</time></trkpt><trkpt lat="41.95224213110532" lon="13.17934998727845"><ele>1617.0</ele><time>2026-03-29T10:54:07.998Z</time></trkpt><trkpt lat="41.95225269325971" lon="13.179141452751184"><ele>1615.0</ele><time>2026-03-29T10:54:08.998Z</time></trkpt><trkpt lat="41.952259077539104" lon="13.17893031554339"><ele>1613.0</ele><time>2026-03-29T10:54:09.998Z</time></trkpt><trkpt lat="41.95227582649671" lon="13.178728478669269"><ele>1611.0</ele><time>2026-03-29T10:54:10.998Z</time></trkpt><trkpt lat="41.952299712413996" lon="13.178534736155573"><ele>1611.0</ele><time>2026-03-29T10:54:11.998Z</time></trkpt><trkpt lat="41.95231680841135" lon="13.178344033339794"><ele>1611.0</ele><time>2026-03-29T10:54:12.998Z</time></trkpt><trkpt lat="41.952313884747504" lon="13.178147925901083"><ele>1611.0</ele><time>2026-03-29T10:54:13.998Z</time></trkpt><trkpt lat="41.95228645933493" lon="13.17794346064958"><ele>1611.0</ele><time>2026-03-29T10:54:14.998Z</time></trkpt><trkpt lat="41.95223509572004" lon="13.177735248696665"><ele>1610.6666666666665</ele><time>2026-03-29T10:54:15.998Z</time></trkpt><trkpt lat="41.95215408326883" lon="13.177531773762592"><ele>1610.3333333333333</ele><time>2026-03-29T10:54:16.998Z</time></trkpt><trkpt lat="41.95205070815328" lon="13.17733382440896"><ele>1610.0</ele><time>2026-03-29T10:54:17.998Z</time></trkpt><trkpt lat="41.951937960638915" lon="13.17713954839971"><ele>1611.0</ele><time>2026-03-29T10:54:18.998Z</time></trkpt><trkpt lat="41.951850745883384" lon="13.176928402597758"><ele>1612.0</ele><time>2026-03-29T10:54:19.998Z</time></trkpt><trkpt lat="41.95175022808958" lon="13.176741390227487"><ele>1613.0</ele><time>2026-03-29T10:54:20.998Z</time></trkpt><trkpt lat="41.951660285015045" lon="13.176554121101967"><ele>1607.0</ele><time>2026-03-29T10:54:21.998Z</time></trkpt><trkpt lat="41.95157918384466" lon="13.176370716798717"><ele>1601.0</ele><time>2026-03-29T10:54:22.998Z</time></trkpt><trkpt lat="41.95150164422971" lon="13.176200841015493"><ele>1595.0</ele><time>2026-03-29T10:54:24Z</time></trkpt><trkpt lat="41.95141961313176" lon="13.176041346082783"><ele>1595.0</ele><time>2026-03-29T10:54:25Z</time></trkpt><trkpt lat="41.951314871862515" lon="13.175887459934998"><ele>1595.0</ele><time>2026-03-29T10:54:26Z</time></trkpt><trkpt lat="41.951187218189524" lon="13.175744967162501"><ele>1595.0</ele><time>2026-03-29T10:54:27Z</time></trkpt><trkpt lat="41.95105448256971" lon="13.175605586175598"><ele>1594.0</ele><time>2026-03-29T10:54:28Z</time></trkpt><trkpt lat="41.95093617652176" lon="13.17544381375456"><ele>1593.0</ele><time>2026-03-29T10:54:29Z</time></trkpt><trkpt lat="41.95080949722522" lon="13.175296878132103"><ele>1592.0</ele><time>2026-03-29T10:54:30Z</time></trkpt><trkpt lat="41.950686116781625" lon="13.17515270984309"><ele>1590.3333333333333</ele><time>2026-03-29T10:54:31Z</time></trkpt><trkpt lat="41.95056794883102" lon="13.175005326063264"><ele>1588.6666666666665</ele><time>2026-03-29T10:54:32Z</time></trkpt><trkpt lat="41.95046243177285" lon="13.17483017653823"><ele>1587.0</ele><time>2026-03-29T10:54:33Z</time></trkpt><trkpt lat="41.950366647848945" lon="13.174637010320625"><ele>1587.0</ele><time>2026-03-29T10:54:34Z</time></trkpt><trkpt lat="41.95028356333756" lon="13.1744208986441"><ele>1587.0</ele><time>2026-03-29T10:54:35Z</time></trkpt><trkpt lat="41.950212061123224" lon="13.174203734309614"><ele>1587.0</ele><time>2026-03-29T10:54:36Z</time></trkpt><trkpt lat="41.950131880115165" lon="13.173990126606911"><ele>1585.6666666666665</ele><time>2026-03-29T10:54:37Z</time></trkpt><trkpt lat="41.950064929654175" lon="13.173763336514297"><ele>1584.3333333333333</ele><time>2026-03-29T10:54:38Z</time></trkpt><trkpt lat="41.94999907228757" lon="13.173528533651243"><ele>1583.0</ele><time>2026-03-29T10:54:39Z</time></trkpt><trkpt lat="41.94992945331293" lon="13.17329520811391"><ele>1580.6666666666665</ele><time>2026-03-29T10:54:40Z</time></trkpt><trkpt lat="41.949860630355744" lon="13.173050097517292"><ele>1578.3333333333335</ele><time>2026-03-29T10:54:41Z</time></trkpt><trkpt lat="41.949787011515724" lon="13.172799861677044"><ele>1576.0</ele><time>2026-03-29T10:54:42Z</time></trkpt><trkpt lat="41.949728817279" lon="13.172540625648823"><ele>1575.6666666666667</ele><time>2026-03-29T10:54:43Z</time></trkpt><trkpt lat="41.94964067399197" lon="13.172300182827021"><ele>1575.3333333333335</ele><time>2026-03-29T10:54:44Z</time></trkpt><trkpt lat="41.94956786523011" lon="13.172058223039594"><ele>1575.0</ele><time>2026-03-29T10:54:45Z</time></trkpt><trkpt lat="41.94951066867623" lon="13.171813316871715"><ele>1575.0</ele><time>2026-03-29T10:54:46Z</time></trkpt><trkpt lat="41.94944162491229" lon="13.171582391627117"><ele>1575.0</ele><time>2026-03-29T10:54:47Z</time></trkpt><trkpt lat="41.94937597244718" lon="13.171357053354825"><ele>1575.0</ele><time>2026-03-29T10:54:48Z</time></trkpt><trkpt lat="41.94931173373252" lon="13.171136567526307"><ele>1573.0</ele><time>2026-03-29T10:54:49Z</time></trkpt><trkpt lat="41.94924838411174" lon="13.170919133281684"><ele>1571.0</ele><time>2026-03-29T10:54:50Z</time></trkpt><trkpt lat="41.9491895891251" lon="13.17072059380851"><ele>1569.0</ele><time>2026-03-29T10:54:51Z</time></trkpt><trkpt lat="41.949122886021904" lon="13.170500631338754"><ele>1566.6666666666665</ele><time>2026-03-29T10:54:52Z</time></trkpt><trkpt lat="41.949058046290375" lon="13.170290828878963"><ele>1564.3333333333333</ele><time>2026-03-29T10:54:53Z</time></trkpt><trkpt lat="41.9489968135323" lon="13.170092697529576"><ele>1562.0</ele><time>2026-03-29T10:54:54Z</time></trkpt><trkpt lat="41.94893709203926" lon="13.169899456217712"><ele>1561.0</ele><time>2026-03-29T10:54:55Z</time></trkpt><trkpt lat="41.9488761440971" lon="13.169702246458511"><ele>1560.0</ele><time>2026-03-29T10:54:56Z</time></trkpt><trkpt lat="41.94881140924453" lon="13.169492783372517"><ele>1559.0</ele><time>2026-03-29T10:54:57Z</time></trkpt><trkpt lat="41.94874668492212" lon="13.169283354317724"><ele>1559.0</ele><time>2026-03-29T10:54:58Z</time></trkpt><trkpt lat="41.948686924138435" lon="13.169089614918972"><ele>1559.0</ele><time>2026-03-29T10:54:59Z</time></trkpt><trkpt lat="41.94863458204373" lon="13.168913785237583"><ele>1559.0</ele><time>2026-03-29T10:55:00Z</time></trkpt><trkpt lat="41.94858592776007" lon="13.168744572038086"><ele>1559.0</ele><time>2026-03-29T10:55:00.999Z</time></trkpt><trkpt lat="41.94854274652889" lon="13.16859340839032"><ele>1558.4</ele><time>2026-03-29T10:55:01.999Z</time></trkpt><trkpt lat="41.948490148449366" lon="13.168462503194574"><ele>1557.8000000000002</ele><time>2026-03-29T10:55:02.999Z</time></trkpt><trkpt lat="41.94846571332144" lon="13.16835207269367"><ele>1557.1999999999998</ele><time>2026-03-29T10:55:03.999Z</time></trkpt><trkpt lat="41.94844274733204" lon="13.168230591906944"><ele>1556.6</ele><time>2026-03-29T10:55:05.999Z</time></trkpt><trkpt lat="41.948401165214214" lon="13.168130988745533"><ele>1556.0</ele><time>2026-03-29T10:55:07.999Z</time></trkpt><trkpt lat="41.948428966029006" lon="13.168306047726382"><ele>1555.9999999999998</ele><time>2026-03-29T10:55:27.999Z</time></trkpt><trkpt lat="41.94846112675828" lon="13.168393946204386"><ele>1556.0</ele><time>2026-03-29T10:55:28.999Z</time></trkpt><trkpt lat="41.94848788592881" lon="13.168484934475803"><ele>1556.0</ele><time>2026-03-29T10:55:29.999Z</time></trkpt><trkpt lat="41.94851957323829" lon="13.16861493679386"><ele>1556.0</ele><time>2026-03-29T10:55:31.999Z</time></trkpt><trkpt lat="41.948513107414335" lon="13.168705988576132"><ele>1555.9999999999998</ele><time>2026-03-29T10:55:33.999Z</time></trkpt><trkpt lat="41.94846436858913" lon="13.16879541466078"><ele>1556.0</ele><time>2026-03-29T10:55:35.999Z</time></trkpt><trkpt lat="41.94840490350858" lon="13.168832367539263"><ele>1555.9999999999998</ele><time>2026-03-29T10:55:37.999Z</time></trkpt><trkpt lat="41.94834727681894" lon="13.168882362757174"><ele>1556.0</ele><time>2026-03-29T10:55:39.999Z</time></trkpt><trkpt lat="41.94827746026471" lon="13.168944033688616"><ele>1556.0</ele><time>2026-03-29T10:55:43.999Z</time></trkpt><trkpt lat="41.94833891775407" lon="13.169071482816639"><ele>1556.0</ele><time>2026-03-29T11:00:13.998Z</time></trkpt><trkpt lat="41.948319768172645" lon="13.168964698926997"><ele>1555.9999999999998</ele><time>2026-03-29T11:03:52.999Z</time></trkpt><trkpt lat="41.94837709240999" lon="13.168870285904065"><ele>1556.0</ele><time>2026-03-29T11:03:54.999Z</time></trkpt><trkpt lat="41.948455981620846" lon="13.168841572940103"><ele>1556.0</ele><time>2026-03-29T11:03:56.999Z</time></trkpt><trkpt lat="41.94852325988504" lon="13.168784797631332"><ele>1556.0</ele><time>2026-03-29T11:03:59.999Z</time></trkpt><trkpt lat="41.94858084764916" lon="13.168736974096998"><ele>1556.0</ele><time>2026-03-29T11:04:02.999Z</time></trkpt><trkpt lat="41.948540497401424" lon="13.168548080142484"><ele>1556.0</ele><time>2026-03-29T11:04:04.999Z</time></trkpt><trkpt lat="41.94849552277256" lon="13.168451949915202"><ele>1556.0</ele><time>2026-03-29T11:04:05.999Z</time></trkpt><trkpt lat="41.948464696004194" lon="13.168359983609475"><ele>1555.9999999999998</ele><time>2026-03-29T11:04:06.999Z</time></trkpt><trkpt lat="41.94843874518002" lon="13.168263175197337"><ele>1556.0</ele><time>2026-03-29T11:04:07.999Z</time></trkpt><trkpt lat="41.948409099942474" lon="13.168156852859404"><ele>1556.0</ele><time>2026-03-29T11:04:08.999Z</time></trkpt><trkpt lat="41.948374208454815" lon="13.168043349637955"><ele>1556.0</ele><time>2026-03-29T11:04:09.999Z</time></trkpt><trkpt lat="41.94833634699625" lon="13.167925721723995"><ele>1555.9999999999998</ele><time>2026-03-29T11:04:10.999Z</time></trkpt><trkpt lat="41.948293722764866" lon="13.167802246794999"><ele>1556.0</ele><time>2026-03-29T11:04:11.999Z</time></trkpt><trkpt lat="41.94825365260013" lon="13.167684682727609"><ele>1555.0</ele><time>2026-03-29T11:04:12.999Z</time></trkpt><trkpt lat="41.948208653150104" lon="13.167582483832767"><ele>1554.0</ele><time>2026-03-29T11:04:13.999Z</time></trkpt><trkpt lat="41.94815271049956" lon="13.167470033681058"><ele>1553.0</ele><time>2026-03-29T11:04:14.999Z</time></trkpt><trkpt lat="41.948083483163835" lon="13.167343610206766"><ele>1552.0</ele><time>2026-03-29T11:04:15.999Z</time></trkpt><trkpt lat="41.94800944264277" lon="13.167215211273323"><ele>1551.0</ele><time>2026-03-29T11:04:16.999Z</time></trkpt><trkpt lat="41.947931699562126" lon="13.167089387509497"><ele>1550.75</ele><time>2026-03-29T11:04:17.999Z</time></trkpt><trkpt lat="41.94785337308182" lon="13.1669702439248"><ele>1550.5</ele><time>2026-03-29T11:04:18.999Z</time></trkpt><trkpt lat="41.947775100778316" lon="13.16685167886733"><ele>1550.25</ele><time>2026-03-29T11:04:19.999Z</time></trkpt><trkpt lat="41.94769229717862" lon="13.166734470205348"><ele>1550.0</ele><time>2026-03-29T11:04:20.999Z</time></trkpt><trkpt lat="41.94760897425341" lon="13.166617245044383"><ele>1549.0</ele><time>2026-03-29T11:04:21.998Z</time></trkpt><trkpt lat="41.94751938018637" lon="13.16650107301301"><ele>1548.0</ele><time>2026-03-29T11:04:22.998Z</time></trkpt><trkpt lat="41.947434641485096" lon="13.166390873631576"><ele>1547.0</ele><time>2026-03-29T11:04:23.998Z</time></trkpt><trkpt lat="41.94734237750035" lon="13.166274084432304"><ele>1546.0</ele><time>2026-03-29T11:04:24.998Z</time></trkpt><trkpt lat="41.947247334527894" lon="13.166159164176428"><ele>1546.0</ele><time>2026-03-29T11:04:25.998Z</time></trkpt><trkpt lat="41.94715346238718" lon="13.166049554955695"><ele>1546.0</ele><time>2026-03-29T11:04:26.998Z</time></trkpt><trkpt lat="41.94705847514123" lon="13.165939984762941"><ele>1546.0</ele><time>2026-03-29T11:04:27.998Z</time></trkpt><trkpt lat="41.94696903963506" lon="13.165833898911377"><ele>1546.0</ele><time>2026-03-29T11:04:28.998Z</time></trkpt><trkpt lat="41.94688082755621" lon="13.165733488112187"><ele>1546.5</ele><time>2026-03-29T11:04:29.998Z</time></trkpt><trkpt lat="41.94679469366275" lon="13.165642919727581"><ele>1547.0</ele><time>2026-03-29T11:04:30.998Z</time></trkpt><trkpt lat="41.9467067173743" lon="13.165539420587091"><ele>1547.5</ele><time>2026-03-29T11:04:31.998Z</time></trkpt><trkpt lat="41.94662616316114" lon="13.16541090972807"><ele>1548.0</ele><time>2026-03-29T11:04:32.998Z</time></trkpt><trkpt lat="41.94658187040994" lon="13.165256196777195"><ele>1549.25</ele><time>2026-03-29T11:04:33.998Z</time></trkpt><trkpt lat="41.94657127064" lon="13.165073461197201"><ele>1550.5</ele><time>2026-03-29T11:04:34.998Z</time></trkpt><trkpt lat="41.94658165576367" lon="13.164888420970591"><ele>1551.75</ele><time>2026-03-29T11:04:35.998Z</time></trkpt><trkpt lat="41.94659485730463" lon="13.164712687999263"><ele>1553.0</ele><time>2026-03-29T11:04:36.998Z</time></trkpt><trkpt lat="41.94659917344708" lon="13.164554408448435"><ele>1553.2</ele><time>2026-03-29T11:04:37.998Z</time></trkpt><trkpt lat="41.9465867151747" lon="13.164397506541478"><ele>1553.4</ele><time>2026-03-29T11:04:38.998Z</time></trkpt><trkpt lat="41.94654965559361" lon="13.164263019367102"><ele>1553.6000000000001</ele><time>2026-03-29T11:04:39.998Z</time></trkpt><trkpt lat="41.94649429178026" lon="13.164146683635341"><ele>1553.8000000000002</ele><time>2026-03-29T11:04:40.998Z</time></trkpt><trkpt lat="41.946428169577665" lon="13.164037630899946"><ele>1554.0</ele><time>2026-03-29T11:04:41.998Z</time></trkpt><trkpt lat="41.94637769588018" lon="13.163911511757341"><ele>1554.0</ele><time>2026-03-29T11:04:42.998Z</time></trkpt><trkpt lat="41.946304645752676" lon="13.163777201408283"><ele>1554.0</ele><time>2026-03-29T11:04:43.998Z</time></trkpt><trkpt lat="41.946207466150035" lon="13.163651833692949"><ele>1554.0</ele><time>2026-03-29T11:04:44.998Z</time></trkpt><trkpt lat="41.94616061449689" lon="13.163580057381836"><ele>1554.0</ele><time>2026-03-29T11:04:45.998Z</time></trkpt><trkpt lat="41.946068051877134" lon="13.16353025150039"><ele>1554.0</ele><time>2026-03-29T11:04:46.998Z</time></trkpt><trkpt lat="41.94595883634634" lon="13.163516777501327"><ele>1551.5</ele><time>2026-03-29T11:04:47.998Z</time></trkpt><trkpt lat="41.94584719797215" lon="13.163542552410881"><ele>1549.0</ele><time>2026-03-29T11:04:48.998Z</time></trkpt><trkpt lat="41.94573234507468" lon="13.163604562545787"><ele>1546.5</ele><time>2026-03-29T11:04:49.998Z</time></trkpt><trkpt lat="41.94559087731918" lon="13.163672773165464"><ele>1544.0</ele><time>2026-03-29T11:04:51Z</time></trkpt><trkpt lat="41.945430921143526" lon="13.163782250124891"><ele>1544.0</ele><time>2026-03-29T11:04:52Z</time></trkpt><trkpt lat="41.94526378370239" lon="13.163910261164723"><ele>1544.0</ele><time>2026-03-29T11:04:53Z</time></trkpt><trkpt lat="41.945099769658626" lon="13.164056955026437"><ele>1544.0</ele><time>2026-03-29T11:04:54Z</time></trkpt><trkpt lat="41.944922011017994" lon="13.164169931983631"><ele>1546.6666666666665</ele><time>2026-03-29T11:04:55Z</time></trkpt><trkpt lat="41.94473909126199" lon="13.164254231192777"><ele>1549.3333333333335</ele><time>2026-03-29T11:04:56Z</time></trkpt><trkpt lat="41.944545040768865" lon="13.1643205917879"><ele>1552.0</ele><time>2026-03-29T11:04:57Z</time></trkpt><trkpt lat="41.94436139183052" lon="13.164359026988038"><ele>1551.3333333333335</ele><time>2026-03-29T11:04:58Z</time></trkpt><trkpt lat="41.94418339699447" lon="13.164363677834421"><ele>1550.6666666666665</ele><time>2026-03-29T11:04:59Z</time></trkpt><trkpt lat="41.94401215728094" lon="13.164358611772439"><ele>1550.0</ele><time>2026-03-29T11:05:00Z</time></trkpt><trkpt lat="41.943843818102145" lon="13.16436161292113"><ele>1550.0</ele><time>2026-03-29T11:05:01Z</time></trkpt><trkpt lat="41.94368419525303" lon="13.164440493786094"><ele>1550.0</ele><time>2026-03-29T11:05:02Z</time></trkpt><trkpt lat="41.943535280799914" lon="13.164525749777779"><ele>1550.0</ele><time>2026-03-29T11:05:03Z</time></trkpt><trkpt lat="41.94340719308999" lon="13.164649694490372"><ele>1552.0</ele><time>2026-03-29T11:05:04Z</time></trkpt><trkpt lat="41.943298925623665" lon="13.1648025604482"><ele>1554.0</ele><time>2026-03-29T11:05:05Z</time></trkpt><trkpt lat="41.94317256939624" lon="13.16491395910238"><ele>1556.0</ele><time>2026-03-29T11:05:06Z</time></trkpt><trkpt lat="41.943033750573285" lon="13.164998163530177"><ele>1556.0</ele><time>2026-03-29T11:05:07Z</time></trkpt><trkpt lat="41.94289913091361" lon="13.165032570974292"><ele>1556.0</ele><time>2026-03-29T11:05:08Z</time></trkpt><trkpt lat="41.942762761755084" lon="13.16501139996203"><ele>1556.0</ele><time>2026-03-29T11:05:09Z</time></trkpt><trkpt lat="41.94262653973331" lon="13.164973408843393"><ele>1556.0</ele><time>2026-03-29T11:05:10Z</time></trkpt><trkpt lat="41.942517695402394" lon="13.164884159236255"><ele>1557.75</ele><time>2026-03-29T11:05:11Z</time></trkpt><trkpt lat="41.942443635354934" lon="13.16475511525058"><ele>1559.5</ele><time>2026-03-29T11:05:12Z</time></trkpt><trkpt lat="41.942445075587976" lon="13.164592573248655"><ele>1561.25</ele><time>2026-03-29T11:05:13Z</time></trkpt><trkpt lat="41.942491827040264" lon="13.16444808729406"><ele>1563.0</ele><time>2026-03-29T11:05:14Z</time></trkpt><trkpt lat="41.942543194756844" lon="13.164293351055607"><ele>1561.75</ele><time>2026-03-29T11:05:15Z</time></trkpt><trkpt lat="41.94257652331813" lon="13.164126927215346"><ele>1560.5</ele><time>2026-03-29T11:05:16Z</time></trkpt><trkpt lat="41.942576137706446" lon="13.16394928495504"><ele>1559.25</ele><time>2026-03-29T11:05:17Z</time></trkpt><trkpt lat="41.94257509299152" lon="13.163785582645923"><ele>1558.0</ele><time>2026-03-29T11:05:18Z</time></trkpt><trkpt lat="41.94254268893685" lon="13.16363820133681"><ele>1560.4</ele><time>2026-03-29T11:05:19Z</time></trkpt><trkpt lat="41.942476052875925" lon="13.16352717556446"><ele>1562.8000000000002</ele><time>2026-03-29T11:05:20Z</time></trkpt><trkpt lat="41.94238254290826" lon="13.163471661866694"><ele>1565.2</ele><time>2026-03-29T11:05:21Z</time></trkpt><trkpt lat="41.94229739484684" lon="13.163484914064295"><ele>1567.6</ele><time>2026-03-29T11:05:22Z</time></trkpt><trkpt lat="41.94222788501544" lon="13.163541337535044"><ele>1570.0</ele><time>2026-03-29T11:05:23Z</time></trkpt><trkpt lat="41.94218135069423" lon="13.16362467946682"><ele>1570.0</ele><time>2026-03-29T11:05:24Z</time></trkpt><trkpt lat="41.9421354744068" lon="13.16374044695369"><ele>1570.0</ele><time>2026-03-29T11:05:25Z</time></trkpt><trkpt lat="41.942027011204146" lon="13.16392500218247"><ele>1570.0</ele><time>2026-03-29T11:05:26Z</time></trkpt><trkpt lat="41.941934639785835" lon="13.16408493136"><ele>1570.0</ele><time>2026-03-29T11:05:26.999Z</time></trkpt><trkpt lat="41.94183913465142" lon="13.164241577315687"><ele>1568.6666666666667</ele><time>2026-03-29T11:05:27.999Z</time></trkpt><trkpt lat="41.94173657768127" lon="13.16440142494781"><ele>1567.3333333333335</ele><time>2026-03-29T11:05:28.999Z</time></trkpt><trkpt lat="41.94163792922245" lon="13.164567841475352"><ele>1566.0</ele><time>2026-03-29T11:05:29.999Z</time></trkpt><trkpt lat="41.94157181614278" lon="13.164758165325889"><ele>1566.0</ele><time>2026-03-29T11:05:30.999Z</time></trkpt><trkpt lat="41.9415008754389" lon="13.16495102262169"><ele>1566.0</ele><time>2026-03-29T11:05:31.999Z</time></trkpt><trkpt lat="41.94141250765764" lon="13.165124796689634"><ele>1566.0</ele><time>2026-03-29T11:05:32.999Z</time></trkpt><trkpt lat="41.94131615978745" lon="13.165299718233253"><ele>1566.0</ele><time>2026-03-29T11:05:33.999Z</time></trkpt><trkpt lat="41.94120815931046" lon="13.165460088705261"><ele>1566.0</ele><time>2026-03-29T11:05:34.999Z</time></trkpt><trkpt lat="41.941100781652125" lon="13.165603574821748"><ele>1566.0</ele><time>2026-03-29T11:05:35.999Z</time></trkpt><trkpt lat="41.9409970394141" lon="13.165741142944563"><ele>1565.75</ele><time>2026-03-29T11:05:36.999Z</time></trkpt><trkpt lat="41.9408884513654" lon="13.16586525298333"><ele>1565.5</ele><time>2026-03-29T11:05:37.999Z</time></trkpt><trkpt lat="41.94077049324792" lon="13.165958585821114"><ele>1565.25</ele><time>2026-03-29T11:05:38.999Z</time></trkpt><trkpt lat="41.94063081712718" lon="13.166011629729347"><ele>1565.0</ele><time>2026-03-29T11:05:39.999Z</time></trkpt><trkpt lat="41.94048448750679" lon="13.166015946975213"><ele>1565.0</ele><time>2026-03-29T11:05:40.999Z</time></trkpt><trkpt lat="41.940347935705866" lon="13.166037536258976"><ele>1565.0</ele><time>2026-03-29T11:05:41.999Z</time></trkpt><trkpt lat="41.94022055336264" lon="13.166107837279304"><ele>1565.0</ele><time>2026-03-29T11:05:42.999Z</time></trkpt><trkpt lat="41.94010851467673" lon="13.16621834111708"><ele>1565.0</ele><time>2026-03-29T11:05:43.999Z</time></trkpt><trkpt lat="41.940019518176555" lon="13.16637439378943"><ele>1565.0</ele><time>2026-03-29T11:05:44.999Z</time></trkpt><trkpt lat="41.93992963391836" lon="13.16652369554116"><ele>1565.0</ele><time>2026-03-29T11:05:45.999Z</time></trkpt><trkpt lat="41.939851827665386" lon="13.16666938262086"><ele>1565.0</ele><time>2026-03-29T11:05:46.999Z</time></trkpt><trkpt lat="41.93977615930024" lon="13.166798891400184"><ele>1565.0</ele><time>2026-03-29T11:05:47.999Z</time></trkpt><trkpt lat="41.939684572246726" lon="13.166896073119018"><ele>1565.0</ele><time>2026-03-29T11:05:48.999Z</time></trkpt><trkpt lat="41.93956476744243" lon="13.166951422803509"><ele>1565.0</ele><time>2026-03-29T11:05:49.999Z</time></trkpt><trkpt lat="41.93942511442661" lon="13.166960098260285"><ele>1565.0</ele><time>2026-03-29T11:05:50.999Z</time></trkpt><trkpt lat="41.93925841199337" lon="13.166987032680257"><ele>1565.0</ele><time>2026-03-29T11:05:51.999Z</time></trkpt><trkpt lat="41.93911310369834" lon="13.166995524210334"><ele>1557.6666666666665</ele><time>2026-03-29T11:05:52.999Z</time></trkpt><trkpt lat="41.938970978512955" lon="13.167044914309791"><ele>1550.3333333333335</ele><time>2026-03-29T11:05:53.999Z</time></trkpt><trkpt lat="41.9388230358859" lon="13.167139468163048"><ele>1543.0</ele><time>2026-03-29T11:05:54.999Z</time></trkpt><trkpt lat="41.93867467108767" lon="13.167252129397555"><ele>1544.0</ele><time>2026-03-29T11:05:55.999Z</time></trkpt><trkpt lat="41.93852508818912" lon="13.167370074667094"><ele>1545.0</ele><time>2026-03-29T11:05:56.999Z</time></trkpt><trkpt lat="41.938381677994336" lon="13.167489586430351"><ele>1546.0</ele><time>2026-03-29T11:05:57.999Z</time></trkpt><trkpt lat="41.938251061275174" lon="13.16761575457891"><ele>1546.0</ele><time>2026-03-29T11:05:58.999Z</time></trkpt><trkpt lat="41.93812987702213" lon="13.167772621835384"><ele>1546.0</ele><time>2026-03-29T11:05:59.999Z</time></trkpt><trkpt lat="41.93802757003675" lon="13.167955131239257"><ele>1546.0</ele><time>2026-03-29T11:06:00.999Z</time></trkpt><trkpt lat="41.93794315699747" lon="13.16815548789224"><ele>1552.0</ele><time>2026-03-29T11:06:01.999Z</time></trkpt><trkpt lat="41.93787422735769" lon="13.168359940230213"><ele>1558.0</ele><time>2026-03-29T11:06:02.999Z</time></trkpt><trkpt lat="41.9378195653379" lon="13.168566907757796"><ele>1564.0</ele><time>2026-03-29T11:06:03.999Z</time></trkpt><trkpt lat="41.937754710185125" lon="13.168758511644823"><ele>1564.0</ele><time>2026-03-29T11:06:04.999Z</time></trkpt><trkpt lat="41.93769423997448" lon="13.16894918407921"><ele>1564.0</ele><time>2026-03-29T11:06:05.999Z</time></trkpt><trkpt lat="41.93760149419836" lon="13.16913201310987"><ele>1564.0</ele><time>2026-03-29T11:06:06.999Z</time></trkpt><trkpt lat="41.93748470002132" lon="13.169289184866834"><ele>1555.6666666666667</ele><time>2026-03-29T11:06:07.999Z</time></trkpt><trkpt lat="41.937385025976624" lon="13.169458879072234"><ele>1547.3333333333335</ele><time>2026-03-29T11:06:08.999Z</time></trkpt><trkpt lat="41.937286759647115" lon="13.169611880438303"><ele>1539.0</ele><time>2026-03-29T11:06:09.999Z</time></trkpt><trkpt lat="41.93723689153634" lon="13.169804678032945"><ele>1541.75</ele><time>2026-03-29T11:06:10.999Z</time></trkpt><trkpt lat="41.93720190159427" lon="13.169993798640855"><ele>1544.5</ele><time>2026-03-29T11:06:11.999Z</time></trkpt><trkpt lat="41.937163113006584" lon="13.170175384970763"><ele>1547.25</ele><time>2026-03-29T11:06:12.999Z</time></trkpt><trkpt lat="41.93706934446421" lon="13.170324230478872"><ele>1550.0</ele><time>2026-03-29T11:06:13.999Z</time></trkpt><trkpt lat="41.936943430060104" lon="13.17045149394167"><ele>1550.0</ele><time>2026-03-29T11:06:14.999Z</time></trkpt><trkpt lat="41.936828080234264" lon="13.17061537538801"><ele>1550.0</ele><time>2026-03-29T11:06:15.999Z</time></trkpt><trkpt lat="41.93670911289616" lon="13.1707706866105"><ele>1550.0</ele><time>2026-03-29T11:06:16.999Z</time></trkpt><trkpt lat="41.93661785600638" lon="13.170965629855463"><ele>1546.0</ele><time>2026-03-29T11:06:17.999Z</time></trkpt><trkpt lat="41.93654762237704" lon="13.171178975234659"><ele>1542.0</ele><time>2026-03-29T11:06:18.999Z</time></trkpt><trkpt lat="41.93648788871494" lon="13.171396396415727"><ele>1538.0</ele><time>2026-03-29T11:06:19.999Z</time></trkpt><trkpt lat="41.93644171811538" lon="13.171601567288953"><ele>1538.0</ele><time>2026-03-29T11:06:20.999Z</time></trkpt><trkpt lat="41.93640956062592" lon="13.171804660434075"><ele>1538.0</ele><time>2026-03-29T11:06:21.999Z</time></trkpt><trkpt lat="41.93634544840006" lon="13.171984936137735"><ele>1538.0</ele><time>2026-03-29T11:06:22.999Z</time></trkpt><trkpt lat="41.9362683781797" lon="13.172169868459719"><ele>1538.0</ele><time>2026-03-29T11:06:23.999Z</time></trkpt><trkpt lat="41.936147684800275" lon="13.172320879809675"><ele>1538.0</ele><time>2026-03-29T11:06:24.999Z</time></trkpt><trkpt lat="41.93602364448167" lon="13.172487770606539"><ele>1538.0</ele><time>2026-03-29T11:06:25.999Z</time></trkpt><trkpt lat="41.93591194979977" lon="13.172664772961763"><ele>1535.3333333333333</ele><time>2026-03-29T11:06:26.998Z</time></trkpt><trkpt lat="41.93582092187478" lon="13.172881642612284"><ele>1532.6666666666665</ele><time>2026-03-29T11:06:27.998Z</time></trkpt><trkpt lat="41.9357340751816" lon="13.173097620128798"><ele>1530.0</ele><time>2026-03-29T11:06:28.998Z</time></trkpt><trkpt lat="41.93563237331875" lon="13.173318671013307"><ele>1530.0</ele><time>2026-03-29T11:06:29.998Z</time></trkpt><trkpt lat="41.93552585523291" lon="13.173536349811902"><ele>1530.0</ele><time>2026-03-29T11:06:30.998Z</time></trkpt><trkpt lat="41.93540771132988" lon="13.173742495749174"><ele>1530.0</ele><time>2026-03-29T11:06:31.998Z</time></trkpt><trkpt lat="41.935273037855154" lon="13.173919381681857"><ele>1527.0</ele><time>2026-03-29T11:06:32.998Z</time></trkpt><trkpt lat="41.93512244234009" lon="13.174073701391082"><ele>1524.0</ele><time>2026-03-29T11:06:33.998Z</time></trkpt><trkpt lat="41.9349757815593" lon="13.174208161908174"><ele>1521.0</ele><time>2026-03-29T11:06:34.998Z</time></trkpt><trkpt lat="41.93484039976237" lon="13.174320687602803"><ele>1521.0</ele><time>2026-03-29T11:06:35.998Z</time></trkpt><trkpt lat="41.9346964755721" lon="13.17438707181874"><ele>1521.0</ele><time>2026-03-29T11:06:36.998Z</time></trkpt><trkpt lat="41.93456117924162" lon="13.174421095496971"><ele>1521.0</ele><time>2026-03-29T11:06:37.998Z</time></trkpt><trkpt lat="41.934436733503546" lon="13.174415848602557"><ele>1521.0</ele><time>2026-03-29T11:06:38.998Z</time></trkpt><trkpt lat="41.93432659519266" lon="13.174376149546555"><ele>1518.0</ele><time>2026-03-29T11:06:39.998Z</time></trkpt><trkpt lat="41.93422149270224" lon="13.174288251387173"><ele>1515.0</ele><time>2026-03-29T11:06:40.998Z</time></trkpt><trkpt lat="41.93414909152481" lon="13.174133388774614"><ele>1512.0</ele><time>2026-03-29T11:06:41.998Z</time></trkpt><trkpt lat="41.93408748847078" lon="13.173962891503908"><ele>1509.0</ele><time>2026-03-29T11:06:42.998Z</time></trkpt><trkpt lat="41.934043142162935" lon="13.173785434417056"><ele>1509.0</ele><time>2026-03-29T11:06:43.998Z</time></trkpt><trkpt lat="41.934069355987084" lon="13.173599765953844"><ele>1509.0</ele><time>2026-03-29T11:06:44.998Z</time></trkpt><trkpt lat="41.93411009975141" lon="13.173438499782586"><ele>1509.0</ele><time>2026-03-29T11:06:45.998Z</time></trkpt><trkpt lat="41.93418434208625" lon="13.173302526529492"><ele>1509.0</ele><time>2026-03-29T11:06:46.998Z</time></trkpt><trkpt lat="41.93427939062459" lon="13.173173715760464"><ele>1509.0</ele><time>2026-03-29T11:06:47.998Z</time></trkpt><trkpt lat="41.934393296069736" lon="13.17305417471033"><ele>1509.0</ele><time>2026-03-29T11:06:48.998Z</time></trkpt><trkpt lat="41.934486273539584" lon="13.172908471732123"><ele>1509.0</ele><time>2026-03-29T11:06:49.998Z</time></trkpt><trkpt lat="41.93458260663296" lon="13.17273874781435"><ele>1509.0</ele><time>2026-03-29T11:06:50.998Z</time></trkpt><trkpt lat="41.93469361235358" lon="13.172566332737201"><ele>1509.0</ele><time>2026-03-29T11:06:51.998Z</time></trkpt><trkpt lat="41.93481011682977" lon="13.172420234606395"><ele>1509.0</ele><time>2026-03-29T11:06:52.998Z</time></trkpt><trkpt lat="41.93491685018824" lon="13.172299566490787"><ele>1509.0</ele><time>2026-03-29T11:06:53.998Z</time></trkpt><trkpt lat="41.93501234733287" lon="13.172163850655602"><ele>1509.0</ele><time>2026-03-29T11:06:54.998Z</time></trkpt><trkpt lat="41.93510020159321" lon="13.171989518276751"><ele>1508.3333333333333</ele><time>2026-03-29T11:06:56Z</time></trkpt><trkpt lat="41.93518194864409" lon="13.171781577274334"><ele>1507.6666666666665</ele><time>2026-03-29T11:06:57Z</time></trkpt><trkpt lat="41.93526343771731" lon="13.171556147024111"><ele>1507.0</ele><time>2026-03-29T11:06:58Z</time></trkpt><trkpt lat="41.93534941981508" lon="13.171316889673752"><ele>1507.0</ele><time>2026-03-29T11:06:59Z</time></trkpt><trkpt lat="41.9354418341774" lon="13.171062457617138"><ele>1507.0</ele><time>2026-03-29T11:07:00Z</time></trkpt><trkpt lat="41.93553789122403" lon="13.170799515186882"><ele>1507.0</ele><time>2026-03-29T11:07:01Z</time></trkpt><trkpt lat="41.935634236379336" lon="13.170541243273444"><ele>1508.3333333333333</ele><time>2026-03-29T11:07:02Z</time></trkpt><trkpt lat="41.935730149509624" lon="13.170286319982294"><ele>1509.6666666666667</ele><time>2026-03-29T11:07:03Z</time></trkpt><trkpt lat="41.935817114556556" lon="13.17004904279641"><ele>1511.0</ele><time>2026-03-29T11:07:04Z</time></trkpt><trkpt lat="41.93590521436834" lon="13.169816790762374"><ele>1511.0</ele><time>2026-03-29T11:07:05Z</time></trkpt><trkpt lat="41.93598979190351" lon="13.169584427804113"><ele>1511.0</ele><time>2026-03-29T11:07:06Z</time></trkpt><trkpt lat="41.93607021629405" lon="13.169359277392896"><ele>1511.0</ele><time>2026-03-29T11:07:07Z</time></trkpt><trkpt lat="41.9361523675077" lon="13.169127217745027"><ele>1506.6666666666667</ele><time>2026-03-29T11:07:08Z</time></trkpt><trkpt lat="41.9362344063718" lon="13.16889286422718"><ele>1502.3333333333333</ele><time>2026-03-29T11:07:09Z</time></trkpt><trkpt lat="41.936312471689554" lon="13.168649381646167"><ele>1498.0</ele><time>2026-03-29T11:07:10Z</time></trkpt><trkpt lat="41.93639515942555" lon="13.168403241336827"><ele>1494.6666666666665</ele><time>2026-03-29T11:07:11Z</time></trkpt><trkpt lat="41.93644555449796" lon="13.168137947464466"><ele>1491.3333333333333</ele><time>2026-03-29T11:07:12Z</time></trkpt><trkpt lat="41.93647343542678" lon="13.16786751511145"><ele>1488.0</ele><time>2026-03-29T11:07:13Z</time></trkpt><trkpt lat="41.93649567764453" lon="13.167606870867148"><ele>1486.0</ele><time>2026-03-29T11:07:14Z</time></trkpt><trkpt lat="41.93652189620569" lon="13.167357465736735"><ele>1484.0</ele><time>2026-03-29T11:07:15Z</time></trkpt><trkpt lat="41.93654449079054" lon="13.167121303800087"><ele>1482.0</ele><time>2026-03-29T11:07:16Z</time></trkpt><trkpt lat="41.93659229274685" lon="13.16692229507656"><ele>1482.0</ele><time>2026-03-29T11:07:17Z</time></trkpt><trkpt lat="41.93667045283896" lon="13.166734482134522"><ele>1482.0</ele><time>2026-03-29T11:07:18Z</time></trkpt><trkpt lat="41.93676014505881" lon="13.166536604785682"><ele>1482.0</ele><time>2026-03-29T11:07:19Z</time></trkpt><trkpt lat="41.93683698339236" lon="13.166310850772746"><ele>1481.0</ele><time>2026-03-29T11:07:20Z</time></trkpt><trkpt lat="41.936932753588955" lon="13.166082486617526"><ele>1480.0</ele><time>2026-03-29T11:07:21Z</time></trkpt><trkpt lat="41.937024505982386" lon="13.165852101768214"><ele>1479.0</ele><time>2026-03-29T11:07:22Z</time></trkpt><trkpt lat="41.937105637362414" lon="13.165626267180631"><ele>1474.3333333333333</ele><time>2026-03-29T11:07:23Z</time></trkpt><trkpt lat="41.937173605534014" lon="13.165404648917889"><ele>1469.6666666666665</ele><time>2026-03-29T11:07:24Z</time></trkpt><trkpt lat="41.93723224723071" lon="13.165214835952586"><ele>1465.0</ele><time>2026-03-29T11:07:25Z</time></trkpt><trkpt lat="41.93729498308347" lon="13.16502504758439"><ele>1463.0</ele><time>2026-03-29T11:07:26Z</time></trkpt><trkpt lat="41.937367175002265" lon="13.164848332385311"><ele>1461.0</ele><time>2026-03-29T11:07:27Z</time></trkpt><trkpt lat="41.937423879434775" lon="13.164642804751026"><ele>1459.0</ele><time>2026-03-29T11:07:28Z</time></trkpt><trkpt lat="41.93744852353763" lon="13.1644038782784"><ele>1459.0</ele><time>2026-03-29T11:07:28.999Z</time></trkpt><trkpt lat="41.937431752369775" lon="13.164155218019213"><ele>1459.0</ele><time>2026-03-29T11:07:29.999Z</time></trkpt><trkpt lat="41.93741788863933" lon="13.16390681216078"><ele>1459.0</ele><time>2026-03-29T11:07:30.999Z</time></trkpt><trkpt lat="41.93742221031618" lon="13.163662043119317"><ele>1458.0</ele><time>2026-03-29T11:07:31.999Z</time></trkpt><trkpt lat="41.9374152290092" lon="13.163426177416845"><ele>1457.0</ele><time>2026-03-29T11:07:32.999Z</time></trkpt><trkpt lat="41.93741080838573" lon="13.163199492896196"><ele>1456.0</ele><time>2026-03-29T11:07:33.999Z</time></trkpt><trkpt lat="41.93741219541449" lon="13.162984788626387"><ele>1453.0</ele><time>2026-03-29T11:07:34.999Z</time></trkpt><trkpt lat="41.937426566769474" lon="13.162768119770362"><ele>1450.0</ele><time>2026-03-29T11:07:35.999Z</time></trkpt><trkpt lat="41.9374664331171" lon="13.16256121187279"><ele>1447.0</ele><time>2026-03-29T11:07:36.999Z</time></trkpt><trkpt lat="41.937505236387544" lon="13.162338832543647"><ele>1448.75</ele><time>2026-03-29T11:07:37.999Z</time></trkpt><trkpt lat="41.93758810463316" lon="13.162149658075164"><ele>1450.5</ele><time>2026-03-29T11:07:38.999Z</time></trkpt><trkpt lat="41.93763870651309" lon="13.161966131420089"><ele>1452.25</ele><time>2026-03-29T11:07:39.999Z</time></trkpt><trkpt lat="41.937695301103595" lon="13.161816048633193"><ele>1454.0</ele><time>2026-03-29T11:07:40.999Z</time></trkpt><trkpt lat="41.93774243723385" lon="13.161673897647743"><ele>1454.0</ele><time>2026-03-29T11:07:41.999Z</time></trkpt><trkpt lat="41.93778943201307" lon="13.16154609209839"><ele>1454.0</ele><time>2026-03-29T11:07:42.999Z</time></trkpt><trkpt lat="41.93779985212615" lon="13.161392441736965"><ele>1454.0</ele><time>2026-03-29T11:07:43.999Z</time></trkpt><trkpt lat="41.93777651124849" lon="13.161233540229727"><ele>1454.0</ele><time>2026-03-29T11:07:44.999Z</time></trkpt><trkpt lat="41.937721772924085" lon="13.16108544551241"><ele>1452.25</ele><time>2026-03-29T11:07:45.999Z</time></trkpt><trkpt lat="41.937650798822254" lon="13.160930525422742"><ele>1450.5</ele><time>2026-03-29T11:07:46.999Z</time></trkpt><trkpt lat="41.93756194014476" lon="13.160775317898544"><ele>1448.75</ele><time>2026-03-29T11:07:47.999Z</time></trkpt><trkpt lat="41.937473323095894" lon="13.160611860261417"><ele>1447.0</ele><time>2026-03-29T11:07:48.999Z</time></trkpt><trkpt lat="41.937381126047285" lon="13.160436255786722"><ele>1442.75</ele><time>2026-03-29T11:07:49.999Z</time></trkpt><trkpt lat="41.9372991301521" lon="13.160268983243666"><ele>1438.5</ele><time>2026-03-29T11:07:50.999Z</time></trkpt><trkpt lat="41.93722361744902" lon="13.16010207923148"><ele>1434.25</ele><time>2026-03-29T11:07:51.999Z</time></trkpt><trkpt lat="41.93715836065287" lon="13.159951844795748"><ele>1430.0</ele><time>2026-03-29T11:07:52.999Z</time></trkpt><trkpt lat="41.93712616036131" lon="13.159783819905863"><ele>1429.0</ele><time>2026-03-29T11:07:53.999Z</time></trkpt><trkpt lat="41.937126181683745" lon="13.159611533537094"><ele>1428.0</ele><time>2026-03-29T11:07:54.999Z</time></trkpt><trkpt lat="41.93716432198419" lon="13.159445679947394"><ele>1427.0</ele><time>2026-03-29T11:07:55.999Z</time></trkpt><trkpt lat="41.93719811342364" lon="13.15931588652739"><ele>1426.0</ele><time>2026-03-29T11:07:56.999Z</time></trkpt><trkpt lat="41.937205242474384" lon="13.159188208679653"><ele>1426.0</ele><time>2026-03-29T11:07:57.999Z</time></trkpt><trkpt lat="41.937211002619726" lon="13.159065355548593"><ele>1426.0</ele><time>2026-03-29T11:07:58.999Z</time></trkpt><trkpt lat="41.93720899077595" lon="13.15892020537863"><ele>1426.0</ele><time>2026-03-29T11:07:59.999Z</time></trkpt><trkpt lat="41.937142067986" lon="13.158778607028102"><ele>1426.0</ele><time>2026-03-29T11:08:00.999Z</time></trkpt><trkpt lat="41.937045355029355" lon="13.158661409527491"><ele>1425.8</ele><time>2026-03-29T11:08:01.999Z</time></trkpt><trkpt lat="41.936988473227125" lon="13.158587715756388"><ele>1425.6</ele><time>2026-03-29T11:08:02.999Z</time></trkpt><trkpt lat="41.93688849757545" lon="13.158505830067648"><ele>1425.4</ele><time>2026-03-29T11:08:03.999Z</time></trkpt><trkpt lat="41.93678370654959" lon="13.1584262382814"><ele>1425.2</ele><time>2026-03-29T11:08:04.999Z</time></trkpt><trkpt lat="41.93670369144824" lon="13.158353502217329"><ele>1425.0</ele><time>2026-03-29T11:08:05.999Z</time></trkpt><trkpt lat="41.93663739437685" lon="13.158287325189729"><ele>1419.5</ele><time>2026-03-29T11:08:06.999Z</time></trkpt><trkpt lat="41.93654972592186" lon="13.158179787401673"><ele>1414.0</ele><time>2026-03-29T11:08:08.999Z</time></trkpt><trkpt lat="41.93646024435527" lon="13.158078386567176"><ele>1408.5</ele><time>2026-03-29T11:08:10.999Z</time></trkpt><trkpt lat="41.93639032963126" lon="13.157958030643238"><ele>1403.0</ele><time>2026-03-29T11:08:12.999Z</time></trkpt><trkpt lat="41.93631864435756" lon="13.15784513723024"><ele>1403.0</ele><time>2026-03-29T11:08:14.999Z</time></trkpt><trkpt lat="41.936292934856475" lon="13.15775267921234"><ele>1403.0</ele><time>2026-03-29T11:08:15.999Z</time></trkpt><trkpt lat="41.93625141087471" lon="13.157649028296857"><ele>1403.0</ele><time>2026-03-29T11:08:16.999Z</time></trkpt><trkpt lat="41.93620954805551" lon="13.157535206672192"><ele>1403.0</ele><time>2026-03-29T11:08:17.999Z</time></trkpt><trkpt lat="41.93616338042607" lon="13.157447599270652"><ele>1403.0</ele><time>2026-03-29T11:08:18.999Z</time></trkpt><trkpt lat="41.936135049408115" lon="13.157317278933636"><ele>1403.0</ele><time>2026-03-29T11:08:20.999Z</time></trkpt><trkpt lat="41.93609447489682" lon="13.15721336981377"><ele>1402.1666666666667</ele><time>2026-03-29T11:10:04.999Z</time></trkpt><trkpt lat="41.93606745811577" lon="13.157133189288057"><ele>1401.3333333333335</ele><time>2026-03-29T11:10:05.999Z</time></trkpt><trkpt lat="41.93604262576164" lon="13.157051090532041"><ele>1400.5</ele><time>2026-03-29T11:10:06.999Z</time></trkpt><trkpt lat="41.936016310094" lon="13.156966322552217"><ele>1399.6666666666667</ele><time>2026-03-29T11:10:07.999Z</time></trkpt><trkpt lat="41.93599458785954" lon="13.156854990770533"><ele>1398.8333333333333</ele><time>2026-03-29T11:10:08.999Z</time></trkpt><trkpt lat="41.93595607537593" lon="13.156732325469559"><ele>1398.0</ele><time>2026-03-29T11:10:09.999Z</time></trkpt><trkpt lat="41.9359119142092" lon="13.156591742629214"><ele>1395.25</ele><time>2026-03-29T11:10:10.999Z</time></trkpt><trkpt lat="41.93586735617106" lon="13.156447797042508"><ele>1392.5</ele><time>2026-03-29T11:10:11.999Z</time></trkpt><trkpt lat="41.935820888173716" lon="13.1562972704371"><ele>1389.75</ele><time>2026-03-29T11:10:12.999Z</time></trkpt><trkpt lat="41.935774646530696" lon="13.156147476704094"><ele>1387.0</ele><time>2026-03-29T11:10:13.999Z</time></trkpt><trkpt lat="41.935729905876954" lon="13.156003130483798"><ele>1387.0</ele><time>2026-03-29T11:10:14.999Z</time></trkpt><trkpt lat="41.93568147618679" lon="13.155847030460944"><ele>1387.0</ele><time>2026-03-29T11:10:15.999Z</time></trkpt><trkpt lat="41.935630295956464" lon="13.155676806266806"><ele>1387.0</ele><time>2026-03-29T11:10:16.999Z</time></trkpt><trkpt lat="41.93558446021822" lon="13.155516893182005"><ele>1387.0</ele><time>2026-03-29T11:10:17.999Z</time></trkpt><trkpt lat="41.935546936230104" lon="13.15536373213059"><ele>1386.3999999999999</ele><time>2026-03-29T11:10:18.999Z</time></trkpt><trkpt lat="41.93552269923957" lon="13.155215355186325"><ele>1385.8</ele><time>2026-03-29T11:10:19.999Z</time></trkpt><trkpt lat="41.93551634146485" lon="13.155075329431424"><ele>1385.2</ele><time>2026-03-29T11:10:20.999Z</time></trkpt><trkpt lat="41.9355217846336" lon="13.154935956334732"><ele>1384.6</ele><time>2026-03-29T11:10:21.999Z</time></trkpt><trkpt lat="41.93554190232799" lon="13.154787793221299"><ele>1384.0</ele><time>2026-03-29T11:10:22.999Z</time></trkpt><trkpt lat="41.93559608259359" lon="13.154637691498198"><ele>1384.0</ele><time>2026-03-29T11:10:23.999Z</time></trkpt><trkpt lat="41.93568797521352" lon="13.154497782641641"><ele>1384.0</ele><time>2026-03-29T11:10:24.999Z</time></trkpt><trkpt lat="41.93579600740116" lon="13.154364096613243"><ele>1384.0</ele><time>2026-03-29T11:10:25.999Z</time></trkpt><trkpt lat="41.93590663165349" lon="13.154205951574713"><ele>1384.0</ele><time>2026-03-29T11:10:26.999Z</time></trkpt><trkpt lat="41.9360190364289" lon="13.15407385555821"><ele>1380.3333333333333</ele><time>2026-03-29T11:10:27.999Z</time></trkpt><trkpt lat="41.93612322047728" lon="13.153950004642892"><ele>1376.6666666666667</ele><time>2026-03-29T11:10:28.999Z</time></trkpt><trkpt lat="41.9362325438563" lon="13.15381859184647"><ele>1373.0</ele><time>2026-03-29T11:10:29.999Z</time></trkpt><trkpt lat="41.936368487218274" lon="13.15368251560016"><ele>1373.0</ele><time>2026-03-29T11:10:30.999Z</time></trkpt><trkpt lat="41.93650421544703" lon="13.153516384397655"><ele>1373.0</ele><time>2026-03-29T11:10:31.999Z</time></trkpt><trkpt lat="41.936643020772784" lon="13.153340622690344"><ele>1373.0</ele><time>2026-03-29T11:10:32.999Z</time></trkpt><trkpt lat="41.93675987501399" lon="13.153155391205846"><ele>1373.3333333333335</ele><time>2026-03-29T11:10:33.999Z</time></trkpt><trkpt lat="41.93688178022698" lon="13.152985922502804"><ele>1373.6666666666667</ele><time>2026-03-29T11:10:34.998Z</time></trkpt><trkpt lat="41.93700484855904" lon="13.15280055936111"><ele>1374.0</ele><time>2026-03-29T11:10:35.998Z</time></trkpt><trkpt lat="41.93711474661354" lon="13.15260526238838"><ele>1374.0</ele><time>2026-03-29T11:10:36.998Z</time></trkpt><trkpt lat="41.93721098170763" lon="13.152410091598547"><ele>1374.0</ele><time>2026-03-29T11:10:37.998Z</time></trkpt><trkpt lat="41.93732181492381" lon="13.152227538657975"><ele>1374.0</ele><time>2026-03-29T11:10:38.998Z</time></trkpt><trkpt lat="41.937423055023736" lon="13.152032097629942"><ele>1372.0</ele><time>2026-03-29T11:10:39.998Z</time></trkpt><trkpt lat="41.93753205109347" lon="13.151822820459124"><ele>1370.0</ele><time>2026-03-29T11:10:40.998Z</time></trkpt><trkpt lat="41.937640937451576" lon="13.151612338209226"><ele>1368.0</ele><time>2026-03-29T11:10:41.998Z</time></trkpt><trkpt lat="41.93774891067644" lon="13.151397608393374"><ele>1363.6666666666667</ele><time>2026-03-29T11:10:42.998Z</time></trkpt><trkpt lat="41.93783848515094" lon="13.151180755372286"><ele>1359.3333333333335</ele><time>2026-03-29T11:10:43.998Z</time></trkpt><trkpt lat="41.93793058361565" lon="13.150996418156817"><ele>1355.0</ele><time>2026-03-29T11:10:44.998Z</time></trkpt><trkpt lat="41.93803520359009" lon="13.150828249123972"><ele>1354.0</ele><time>2026-03-29T11:10:45.998Z</time></trkpt><trkpt lat="41.93812685739889" lon="13.150645954893244"><ele>1353.0</ele><time>2026-03-29T11:10:46.998Z</time></trkpt><trkpt lat="41.93821538380347" lon="13.150467111823092"><ele>1352.0</ele><time>2026-03-29T11:10:47.998Z</time></trkpt><trkpt lat="41.93829727017895" lon="13.150301683208687"><ele>1352.0</ele><time>2026-03-29T11:10:48.998Z</time></trkpt><trkpt lat="41.93837986210728" lon="13.150134829108035"><ele>1352.0</ele><time>2026-03-29T11:10:49.998Z</time></trkpt><trkpt lat="41.938463361481" lon="13.14996567491059"><ele>1352.0</ele><time>2026-03-29T11:10:50.998Z</time></trkpt><trkpt lat="41.938537480279884" lon="13.149803344316352"><ele>1352.0</ele><time>2026-03-29T11:10:51.998Z</time></trkpt><trkpt lat="41.938603671456754" lon="13.149634001725552"><ele>1350.6666666666667</ele><time>2026-03-29T11:10:52.998Z</time></trkpt><trkpt lat="41.93866276383361" lon="13.149447157114546"><ele>1349.3333333333333</ele><time>2026-03-29T11:10:53.998Z</time></trkpt><trkpt lat="41.93870650425096" lon="13.149250273633829"><ele>1348.0</ele><time>2026-03-29T11:10:54.998Z</time></trkpt><trkpt lat="41.938729431569925" lon="13.149038704953272"><ele>1346.0</ele><time>2026-03-29T11:10:55.998Z</time></trkpt><trkpt lat="41.93873802091024" lon="13.148811805280666"><ele>1344.0</ele><time>2026-03-29T11:10:56.998Z</time></trkpt><trkpt lat="41.938737728076056" lon="13.148580528080542"><ele>1342.0</ele><time>2026-03-29T11:10:57.998Z</time></trkpt><trkpt lat="41.93873345424817" lon="13.148335556518196"><ele>1342.0</ele><time>2026-03-29T11:10:58.998Z</time></trkpt><trkpt lat="41.938716154526226" lon="13.14806798551315"><ele>1342.0</ele><time>2026-03-29T11:10:59.998Z</time></trkpt><trkpt lat="41.938717411321186" lon="13.147801818082865"><ele>1342.0</ele><time>2026-03-29T11:11:00.998Z</time></trkpt><trkpt lat="41.938721704506314" lon="13.147543848379406"><ele>1340.6666666666665</ele><time>2026-03-29T11:11:01.998Z</time></trkpt><trkpt lat="41.93874527362337" lon="13.147295658553288"><ele>1339.3333333333333</ele><time>2026-03-29T11:11:02.998Z</time></trkpt><trkpt lat="41.93875192265705" lon="13.147054528803213"><ele>1338.0</ele><time>2026-03-29T11:11:03.998Z</time></trkpt><trkpt lat="41.93875716737691" lon="13.146825334393505"><ele>1338.0</ele><time>2026-03-29T11:11:04.998Z</time></trkpt><trkpt lat="41.93876187028166" lon="13.146619817656305"><ele>1338.0</ele><time>2026-03-29T11:11:05.998Z</time></trkpt><trkpt lat="41.938766359411986" lon="13.14642364282256"><ele>1338.0</ele><time>2026-03-29T11:11:06.998Z</time></trkpt><trkpt lat="41.93877128576179" lon="13.146232629985583"><ele>1338.0</ele><time>2026-03-29T11:11:08Z</time></trkpt><trkpt lat="41.93877625511247" lon="13.146048576618602"><ele>1338.75</ele><time>2026-03-29T11:11:09Z</time></trkpt><trkpt lat="41.93878128558866" lon="13.145862259470805"><ele>1339.5</ele><time>2026-03-29T11:11:10Z</time></trkpt><trkpt lat="41.938786460735905" lon="13.14567058425807"><ele>1340.25</ele><time>2026-03-29T11:11:11Z</time></trkpt><trkpt lat="41.938791421169775" lon="13.145486861071607"><ele>1341.0</ele><time>2026-03-29T11:11:12Z</time></trkpt><trkpt lat="41.93878125824175" lon="13.14530387040589"><ele>1342.5</ele><time>2026-03-29T11:11:13Z</time></trkpt><trkpt lat="41.938785680877956" lon="13.145128074922146"><ele>1344.0</ele><time>2026-03-29T11:11:14Z</time></trkpt><trkpt lat="41.938787875508034" lon="13.144974960669785"><ele>1345.5</ele><time>2026-03-29T11:11:15Z</time></trkpt><trkpt lat="41.93877788275382" lon="13.144833336666839"><ele>1347.0</ele><time>2026-03-29T11:11:16Z</time></trkpt><trkpt lat="41.93874831579424" lon="13.144684310890844"><ele>1348.5</ele><time>2026-03-29T11:11:17Z</time></trkpt><trkpt lat="41.93869585674041" lon="13.14452509341925"><ele>1350.0</ele><time>2026-03-29T11:11:18Z</time></trkpt><trkpt lat="41.93861770673276" lon="13.14433943050145"><ele>1351.5</ele><time>2026-03-29T11:11:19Z</time></trkpt><trkpt lat="41.93856854527276" lon="13.144133457288731"><ele>1353.0</ele><time>2026-03-29T11:11:20Z</time></trkpt><trkpt lat="41.938501229736204" lon="13.143917875121062"><ele>1353.3333333333333</ele><time>2026-03-29T11:11:21Z</time></trkpt><trkpt lat="41.9384293990827" lon="13.143688760370624"><ele>1353.6666666666665</ele><time>2026-03-29T11:11:22Z</time></trkpt><trkpt lat="41.938358514218166" lon="13.14346281497025"><ele>1354.0</ele><time>2026-03-29T11:11:23Z</time></trkpt><trkpt lat="41.93828919210749" lon="13.143240011392303"><ele>1351.6666666666665</ele><time>2026-03-29T11:11:24Z</time></trkpt><trkpt lat="41.93820784918425" lon="13.143026786249813"><ele>1349.3333333333333</ele><time>2026-03-29T11:11:25Z</time></trkpt><trkpt lat="41.93814420221088" lon="13.142818651035634"><ele>1347.0</ele><time>2026-03-29T11:11:26Z</time></trkpt><trkpt lat="41.9381006021894" lon="13.142615243591516"><ele>1347.0</ele><time>2026-03-29T11:11:27Z</time></trkpt><trkpt lat="41.93803483584074" lon="13.142432997944285"><ele>1347.0</ele><time>2026-03-29T11:11:28Z</time></trkpt><trkpt lat="41.938001917391034" lon="13.142242883832035"><ele>1347.0</ele><time>2026-03-29T11:11:29Z</time></trkpt><trkpt lat="41.937982013931396" lon="13.142037047006587"><ele>1347.3333333333333</ele><time>2026-03-29T11:11:30Z</time></trkpt><trkpt lat="41.93800598578085" lon="13.141809720601232"><ele>1347.6666666666665</ele><time>2026-03-29T11:11:31Z</time></trkpt><trkpt lat="41.93803031201869" lon="13.14157212761802"><ele>1348.0</ele><time>2026-03-29T11:11:32Z</time></trkpt><trkpt lat="41.938054797604046" lon="13.141327503484828"><ele>1345.3333333333333</ele><time>2026-03-29T11:11:33Z</time></trkpt><trkpt lat="41.93807841278559" lon="13.141069225423713"><ele>1342.6666666666667</ele><time>2026-03-29T11:11:34Z</time></trkpt><trkpt lat="41.93808740530438" lon="13.140805417615015"><ele>1340.0</ele><time>2026-03-29T11:11:34.999Z</time></trkpt><trkpt lat="41.938109743920236" lon="13.140552518698383"><ele>1339.0</ele><time>2026-03-29T11:11:35.999Z</time></trkpt><trkpt lat="41.938126778459306" lon="13.14031581030837"><ele>1338.0</ele><time>2026-03-29T11:11:36.999Z</time></trkpt><trkpt lat="41.9381429981015" lon="13.140085089278424"><ele>1337.0</ele><time>2026-03-29T11:11:37.999Z</time></trkpt><trkpt lat="41.938176033959756" lon="13.139861098962092"><ele>1337.0</ele><time>2026-03-29T11:11:38.999Z</time></trkpt><trkpt lat="41.9381940186457" lon="13.139636468943369"><ele>1337.0</ele><time>2026-03-29T11:11:39.999Z</time></trkpt><trkpt lat="41.93821183872429" lon="13.139416875938863"><ele>1337.0</ele><time>2026-03-29T11:11:40.999Z</time></trkpt><trkpt lat="41.9382296942072" lon="13.139196846782408"><ele>1335.3333333333335</ele><time>2026-03-29T11:11:41.999Z</time></trkpt><trkpt lat="41.93824766685782" lon="13.13897537375561"><ele>1333.6666666666667</ele><time>2026-03-29T11:11:42.999Z</time></trkpt><trkpt lat="41.938265724902735" lon="13.138752848377669"><ele>1332.0</ele><time>2026-03-29T11:11:43.999Z</time></trkpt><trkpt lat="41.9382840420345" lon="13.138527130375499"><ele>1332.0</ele><time>2026-03-29T11:11:44.999Z</time></trkpt><trkpt lat="41.938301136703274" lon="13.138303389682106"><ele>1332.0</ele><time>2026-03-29T11:11:45.999Z</time></trkpt><trkpt lat="41.93830454072308" lon="13.138075426504898"><ele>1332.0</ele><time>2026-03-29T11:11:46.999Z</time></trkpt><trkpt lat="41.938328534899796" lon="13.137847959373609"><ele>1332.6666666666667</ele><time>2026-03-29T11:11:47.999Z</time></trkpt><trkpt lat="41.938357196065816" lon="13.137618760516856"><ele>1333.3333333333335</ele><time>2026-03-29T11:11:48.999Z</time></trkpt><trkpt lat="41.93842764221089" lon="13.137403701683088"><ele>1334.0</ele><time>2026-03-29T11:11:49.999Z</time></trkpt><trkpt lat="41.938503126760324" lon="13.137183923952062"><ele>1330.0</ele><time>2026-03-29T11:11:50.999Z</time></trkpt><trkpt lat="41.938576248371874" lon="13.136945447119691"><ele>1326.0</ele><time>2026-03-29T11:11:51.999Z</time></trkpt><trkpt lat="41.93866904182058" lon="13.136721226024752"><ele>1322.0</ele><time>2026-03-29T11:11:52.999Z</time></trkpt><trkpt lat="41.938753506570244" lon="13.136500398169918"><ele>1321.6666666666667</ele><time>2026-03-29T11:11:53.999Z</time></trkpt><trkpt lat="41.93882930346502" lon="13.136278311904551"><ele>1321.3333333333333</ele><time>2026-03-29T11:11:54.999Z</time></trkpt><trkpt lat="41.93890291644173" lon="13.136045409721648"><ele>1321.0</ele><time>2026-03-29T11:11:55.999Z</time></trkpt><trkpt lat="41.9390030523022" lon="13.135826862997687"><ele>1322.0</ele><time>2026-03-29T11:11:56.999Z</time></trkpt><trkpt lat="41.939093693109555" lon="13.135613461394158"><ele>1323.0</ele><time>2026-03-29T11:11:57.999Z</time></trkpt><trkpt lat="41.93918145637729" lon="13.13541494121951"><ele>1324.0</ele><time>2026-03-29T11:11:58.999Z</time></trkpt><trkpt lat="41.93925783350243" lon="13.135220846187597"><ele>1321.3333333333333</ele><time>2026-03-29T11:11:59.999Z</time></trkpt><trkpt lat="41.93935178865085" lon="13.135046108473121"><ele>1318.6666666666667</ele><time>2026-03-29T11:12:00.999Z</time></trkpt><trkpt lat="41.93945110131692" lon="13.134859837604662"><ele>1316.0</ele><time>2026-03-29T11:12:01.999Z</time></trkpt><trkpt lat="41.93956356120203" lon="13.134661827084088"><ele>1316.0</ele><time>2026-03-29T11:12:02.999Z</time></trkpt><trkpt lat="41.93969880960167" lon="13.134464503100741"><ele>1316.0</ele><time>2026-03-29T11:12:03.999Z</time></trkpt><trkpt lat="41.93982542984871" lon="13.134231538737323"><ele>1316.0</ele><time>2026-03-29T11:12:04.999Z</time></trkpt><trkpt lat="41.93993835369623" lon="13.133972849616537"><ele>1314.3333333333335</ele><time>2026-03-29T11:12:05.999Z</time></trkpt><trkpt lat="41.940064287188676" lon="13.133742911516261"><ele>1312.6666666666667</ele><time>2026-03-29T11:12:06.999Z</time></trkpt><trkpt lat="41.94018988363785" lon="13.133519916542012"><ele>1311.0</ele><time>2026-03-29T11:12:07.999Z</time></trkpt><trkpt lat="41.94032868893631" lon="13.133315729718047"><ele>1310.6666666666667</ele><time>2026-03-29T11:12:08.999Z</time></trkpt><trkpt lat="41.940459920781606" lon="13.133075285709845"><ele>1310.3333333333335</ele><time>2026-03-29T11:12:09.999Z</time></trkpt><trkpt lat="41.94058628794571" lon="13.132822711135065"><ele>1310.0</ele><time>2026-03-29T11:12:10.999Z</time></trkpt><trkpt lat="41.940703169986286" lon="13.132588780193434"><ele>1311.3333333333335</ele><time>2026-03-29T11:12:11.999Z</time></trkpt><trkpt lat="41.94080060535737" lon="13.132366933614293"><ele>1312.6666666666667</ele><time>2026-03-29T11:12:12.999Z</time></trkpt><trkpt lat="41.9409036465929" lon="13.132182321355373"><ele>1314.0</ele><time>2026-03-29T11:12:13.999Z</time></trkpt><trkpt lat="41.94099407110726" lon="13.131998135324887"><ele>1307.5</ele><time>2026-03-29T11:12:14.999Z</time></trkpt><trkpt lat="41.94107809485324" lon="13.131840061927813"><ele>1301.0</ele><time>2026-03-29T11:12:15.999Z</time></trkpt><trkpt lat="41.94110634671195" lon="13.131642675705992"><ele>1294.5</ele><time>2026-03-29T11:12:16.999Z</time></trkpt><trkpt lat="41.941154473085795" lon="13.131458556375543"><ele>1288.0</ele><time>2026-03-29T11:12:17.999Z</time></trkpt><trkpt lat="41.94120194667753" lon="13.131291752851538"><ele>1287.5</ele><time>2026-03-29T11:12:18.999Z</time></trkpt><trkpt lat="41.94126953608258" lon="13.131133720375265"><ele>1287.0</ele><time>2026-03-29T11:12:19.999Z</time></trkpt><trkpt lat="41.94135068631228" lon="13.131009721026977"><ele>1286.5</ele><time>2026-03-29T11:12:20.999Z</time></trkpt><trkpt lat="41.941435472132916" lon="13.130905365115616"><ele>1286.0</ele><time>2026-03-29T11:12:21.999Z</time></trkpt><trkpt lat="41.941524864731754" lon="13.130798472468067"><ele>1286.3333333333335</ele><time>2026-03-29T11:12:22.999Z</time></trkpt><trkpt lat="41.94163203196288" lon="13.130667114519268"><ele>1286.6666666666667</ele><time>2026-03-29T11:12:23.999Z</time></trkpt><trkpt lat="41.94174877695686" lon="13.130505625260435"><ele>1287.0</ele><time>2026-03-29T11:12:24.999Z</time></trkpt><trkpt lat="41.94183898424189" lon="13.130320774290393"><ele>1278.25</ele><time>2026-03-29T11:12:25.999Z</time></trkpt><trkpt lat="41.94193041612481" lon="13.130136400252375"><ele>1269.5</ele><time>2026-03-29T11:12:26.999Z</time></trkpt><trkpt lat="41.94199712472386" lon="13.129978508055913"><ele>1260.75</ele><time>2026-03-29T11:12:27.999Z</time></trkpt><trkpt lat="41.94204212162766" lon="13.129839822093883"><ele>1252.0</ele><time>2026-03-29T11:12:28.999Z</time></trkpt><trkpt lat="41.942057781834926" lon="13.129713942143512"><ele>1251.5</ele><time>2026-03-29T11:12:29.999Z</time></trkpt><trkpt lat="41.94203244445494" lon="13.129585450484539"><ele>1251.0</ele><time>2026-03-29T11:12:30.999Z</time></trkpt><trkpt lat="41.94196103991327" lon="13.129478949405371"><ele>1250.5</ele><time>2026-03-29T11:12:31.999Z</time></trkpt><trkpt lat="41.94184793359074" lon="13.1294273661234"><ele>1250.0</ele><time>2026-03-29T11:12:32.999Z</time></trkpt><trkpt lat="41.94171463506902" lon="13.12943144490447"><ele>1253.3333333333335</ele><time>2026-03-29T11:12:33.999Z</time></trkpt><trkpt lat="41.94155967994714" lon="13.129468519429917"><ele>1256.6666666666667</ele><time>2026-03-29T11:12:34.999Z</time></trkpt><trkpt lat="41.94137450951956" lon="13.129497709254418"><ele>1260.0</ele><time>2026-03-29T11:12:35.999Z</time></trkpt><trkpt lat="41.941185615317615" lon="13.12952057262203"><ele>1260.0</ele><time>2026-03-29T11:12:36.999Z</time></trkpt><trkpt lat="41.94096841599587" lon="13.129535191586765"><ele>1260.0</ele><time>2026-03-29T11:12:37.998Z</time></trkpt><trkpt lat="41.94075288417113" lon="13.12954465020569"><ele>1260.0</ele><time>2026-03-29T11:12:38.998Z</time></trkpt><trkpt lat="41.940562030783695" lon="13.129562248029062"><ele>1257.3333333333333</ele><time>2026-03-29T11:12:39.998Z</time></trkpt><trkpt lat="41.94038759888888" lon="13.129591726653015"><ele>1254.6666666666665</ele><time>2026-03-29T11:12:40.998Z</time></trkpt><trkpt lat="41.940225601173395" lon="13.129609524612965"><ele>1252.0</ele><time>2026-03-29T11:12:41.998Z</time></trkpt><trkpt lat="41.940081286912" lon="13.129650873629284"><ele>1250.75</ele><time>2026-03-29T11:12:42.998Z</time></trkpt><trkpt lat="41.939954041558565" lon="13.129691791107911"><ele>1249.5</ele><time>2026-03-29T11:12:43.998Z</time></trkpt><trkpt lat="41.939835867060886" lon="13.129606117205945"><ele>1248.25</ele><time>2026-03-29T11:12:44.998Z</time></trkpt><trkpt lat="41.93971713547655" lon="13.129488520709552"><ele>1247.0</ele><time>2026-03-29T11:12:45.998Z</time></trkpt><trkpt lat="41.939611095895245" lon="13.129341106579064"><ele>1247.0</ele><time>2026-03-29T11:12:46.998Z</time></trkpt><trkpt lat="41.93952522206117" lon="13.129178035543925"><ele>1247.0</ele><time>2026-03-29T11:12:47.998Z</time></trkpt><trkpt lat="41.93944379754288" lon="13.129037763337136"><ele>1247.0</ele><time>2026-03-29T11:12:48.998Z</time></trkpt><trkpt lat="41.93936618678095" lon="13.128914109919268"><ele>1247.0</ele><time>2026-03-29T11:12:49.998Z</time></trkpt><trkpt lat="41.93925791434297" lon="13.128821402384416"><ele>1243.6666666666667</ele><time>2026-03-29T11:12:50.998Z</time></trkpt><trkpt lat="41.93910974188121" lon="13.12877656402475"><ele>1240.3333333333333</ele><time>2026-03-29T11:12:51.998Z</time></trkpt><trkpt lat="41.93895550191714" lon="13.12875350832664"><ele>1237.0</ele><time>2026-03-29T11:12:52.998Z</time></trkpt><trkpt lat="41.93880076935935" lon="13.128729740481687"><ele>1237.0</ele><time>2026-03-29T11:12:53.998Z</time></trkpt><trkpt lat="41.9386635570774" lon="13.128707824415534"><ele>1237.0</ele><time>2026-03-29T11:12:54.998Z</time></trkpt><trkpt lat="41.93853870814088" lon="13.128697178002156"><ele>1237.0</ele><time>2026-03-29T11:12:55.998Z</time></trkpt><trkpt lat="41.93841192997138" lon="13.128720665411079"><ele>1237.0</ele><time>2026-03-29T11:12:56.998Z</time></trkpt><trkpt lat="41.93829848514011" lon="13.12880898031807"><ele>1239.0</ele><time>2026-03-29T11:12:57.998Z</time></trkpt><trkpt lat="41.938218836783996" lon="13.128939481560847"><ele>1241.0</ele><time>2026-03-29T11:12:58.998Z</time></trkpt><trkpt lat="41.9381393575242" lon="13.129048656036089"><ele>1243.0</ele><time>2026-03-29T11:12:59.998Z</time></trkpt><trkpt lat="41.93802233969177" lon="13.129113372334794"><ele>1245.0</ele><time>2026-03-29T11:13:00.998Z</time></trkpt><trkpt lat="41.93787596033037" lon="13.129108590420861"><ele>1245.0</ele><time>2026-03-29T11:13:01.998Z</time></trkpt><trkpt lat="41.93774826034429" lon="13.128989696612653"><ele>1245.0</ele><time>2026-03-29T11:13:02.998Z</time></trkpt><trkpt lat="41.937615725948945" lon="13.128956348006788"><ele>1245.0</ele><time>2026-03-29T11:13:03.998Z</time></trkpt><trkpt lat="41.93748773291305" lon="13.128927383743555"><ele>1245.0</ele><time>2026-03-29T11:13:04.998Z</time></trkpt><trkpt lat="41.93734618052674" lon="13.128971579761357"><ele>1247.0</ele><time>2026-03-29T11:13:05.998Z</time></trkpt><trkpt lat="41.937212594995565" lon="13.129060081511678"><ele>1249.0</ele><time>2026-03-29T11:13:06.998Z</time></trkpt><trkpt lat="41.937098697392756" lon="13.129206508457614"><ele>1251.0</ele><time>2026-03-29T11:13:07.998Z</time></trkpt><trkpt lat="41.93698413424793" lon="13.129373344559985"><ele>1251.0</ele><time>2026-03-29T11:13:08.998Z</time></trkpt><trkpt lat="41.93686811132222" lon="13.129542351476982"><ele>1251.0</ele><time>2026-03-29T11:13:09.998Z</time></trkpt><trkpt lat="41.93675727061234" lon="13.129695383376056"><ele>1251.0</ele><time>2026-03-29T11:13:10.998Z</time></trkpt><trkpt lat="41.936660804130454" lon="13.129823958611151"><ele>1248.75</ele><time>2026-03-29T11:13:11.998Z</time></trkpt><trkpt lat="41.936573926537825" lon="13.129935073185296"><ele>1246.5</ele><time>2026-03-29T11:13:12.998Z</time></trkpt><trkpt lat="41.93651662200691" lon="13.130039890229684"><ele>1244.25</ele><time>2026-03-29T11:13:14Z</time></trkpt><trkpt lat="41.93649466773991" lon="13.130177989506986"><ele>1242.0</ele><time>2026-03-29T11:13:15Z</time></trkpt><trkpt lat="41.93651337493117" lon="13.13035494417399"><ele>1242.0</ele><time>2026-03-29T11:13:16Z</time></trkpt><trkpt lat="41.93652996682922" lon="13.130551984062956"><ele>1242.0</ele><time>2026-03-29T11:13:17Z</time></trkpt><trkpt lat="41.93657378801133" lon="13.130756064591179"><ele>1242.0</ele><time>2026-03-29T11:13:18Z</time></trkpt><trkpt lat="41.93660420559507" lon="13.1309852504325"><ele>1242.0</ele><time>2026-03-29T11:13:19Z</time></trkpt><trkpt lat="41.93666524186896" lon="13.131179597009464"><ele>1242.0</ele><time>2026-03-29T11:13:20Z</time></trkpt><trkpt lat="41.93667339096403" lon="13.131381818902684"><ele>1242.0</ele><time>2026-03-29T11:13:21Z</time></trkpt><trkpt lat="41.936683110273194" lon="13.131555106892824"><ele>1242.0</ele><time>2026-03-29T11:13:22Z</time></trkpt><trkpt lat="41.93668953039566" lon="13.13168499385951"><ele>1242.0</ele><time>2026-03-29T11:13:23Z</time></trkpt><trkpt lat="41.936691903986585" lon="13.131790037489267"><ele>1242.0</ele><time>2026-03-29T11:13:24Z</time></trkpt><trkpt lat="41.93668387199307" lon="13.131875322764195"><ele>1242.0</ele><time>2026-03-29T11:13:25Z</time></trkpt><trkpt lat="41.93657501759547" lon="13.131939803204032"><ele>1242.0</ele><time>2026-03-29T11:13:27Z</time></trkpt><trkpt lat="41.93652856134582" lon="13.131826933148954"><ele>1242.0</ele><time>2026-03-29T11:13:28Z</time></trkpt><trkpt lat="41.9365522693703" lon="13.131709258627234"><ele>1242.0</ele><time>2026-03-29T11:13:29Z</time></trkpt><trkpt lat="41.936555197895665" lon="13.13148084133014"><ele>1241.75</ele><time>2026-03-29T11:13:31Z</time></trkpt><trkpt lat="41.93651371493998" lon="13.131305863143597"><ele>1241.5</ele><time>2026-03-29T11:13:32Z</time></trkpt><trkpt lat="41.93646634539643" lon="13.131132526066454"><ele>1241.25</ele><time>2026-03-29T11:13:33Z</time></trkpt><trkpt lat="41.93640683954662" lon="13.130974797256973"><ele>1241.0</ele><time>2026-03-29T11:13:34Z</time></trkpt><trkpt lat="41.936339612727764" lon="13.130817697354235"><ele>1241.25</ele><time>2026-03-29T11:13:35Z</time></trkpt><trkpt lat="41.936245063810546" lon="13.13068414586007"><ele>1241.5</ele><time>2026-03-29T11:13:36Z</time></trkpt><trkpt lat="41.93611970239709" lon="13.130575824104634"><ele>1241.75</ele><time>2026-03-29T11:13:37Z</time></trkpt><trkpt lat="41.93599519099017" lon="13.130510264997241"><ele>1242.0</ele><time>2026-03-29T11:13:38Z</time></trkpt><trkpt lat="41.935878374510274" lon="13.13047711753956"><ele>1236.4</ele><time>2026-03-29T11:13:39Z</time></trkpt><trkpt lat="41.93579389703417" lon="13.130451001745051"><ele>1230.8000000000002</ele><time>2026-03-29T11:13:40Z</time></trkpt><trkpt lat="41.93572380149644" lon="13.130380858302662"><ele>1225.2</ele><time>2026-03-29T11:13:41Z</time></trkpt><trkpt lat="41.93571564697373" lon="13.130255202171623"><ele>1219.6000000000001</ele><time>2026-03-29T11:13:42Z</time></trkpt><trkpt lat="41.93581236490018" lon="13.130169474910252"><ele>1214.0</ele><time>2026-03-29T11:13:42.999Z</time></trkpt><trkpt lat="41.93587415398794" lon="13.130057179204288"><ele>1219.0</ele><time>2026-03-29T11:13:43.999Z</time></trkpt><trkpt lat="41.93590445152155" lon="13.129869884396756"><ele>1224.0</ele><time>2026-03-29T11:13:44.999Z</time></trkpt><trkpt lat="41.935936061663185" lon="13.129661574741462"><ele>1229.0</ele><time>2026-03-29T11:13:45.999Z</time></trkpt><trkpt lat="41.93601594027881" lon="13.129487853520114"><ele>1229.0</ele><time>2026-03-29T11:13:46.999Z</time></trkpt><trkpt lat="41.93610386748766" lon="13.12929835038663"><ele>1229.0</ele><time>2026-03-29T11:13:47.999Z</time></trkpt><trkpt lat="41.936196828467246" lon="13.129148804474449"><ele>1229.0</ele><time>2026-03-29T11:13:48.999Z</time></trkpt><trkpt lat="41.936298572339695" lon="13.129020450304672"><ele>1224.6000000000001</ele><time>2026-03-29T11:13:49.999Z</time></trkpt><trkpt lat="41.93639630150533" lon="13.128897560787426"><ele>1220.2</ele><time>2026-03-29T11:13:50.999Z</time></trkpt><trkpt lat="41.93645444911814" lon="13.128761875119741"><ele>1215.8000000000002</ele><time>2026-03-29T11:13:51.999Z</time></trkpt><trkpt lat="41.9365029247686" lon="13.128635558426417"><ele>1211.4</ele><time>2026-03-29T11:13:52.999Z</time></trkpt><trkpt lat="41.93653090653693" lon="13.128539955250211"><ele>1207.0</ele><time>2026-03-29T11:13:53.999Z</time></trkpt><trkpt lat="41.93658154203958" lon="13.12848814376246"><ele>1207.0</ele><time>2026-03-29T11:13:54.999Z</time></trkpt><trkpt lat="41.936641985540994" lon="13.128454342507961"><ele>1207.0</ele><time>2026-03-29T11:13:55.999Z</time></trkpt><trkpt lat="41.93672929707792" lon="13.128439040043729"><ele>1207.0</ele><time>2026-03-29T11:13:56.999Z</time></trkpt><trkpt lat="41.93684127316617" lon="13.128392978552734"><ele>1207.0</ele><time>2026-03-29T11:13:57.999Z</time></trkpt><trkpt lat="41.936970373555134" lon="13.128294731361013"><ele>1207.0</ele><time>2026-03-29T11:13:58.999Z</time></trkpt><trkpt lat="41.93706032802057" lon="13.12818455977116"><ele>1211.0</ele><time>2026-03-29T11:13:59.999Z</time></trkpt><trkpt lat="41.93709478259719" lon="13.128040170177979"><ele>1215.0</ele><time>2026-03-29T11:14:00.999Z</time></trkpt><trkpt lat="41.9370775039767" lon="13.127886208999527"><ele>1219.0</ele><time>2026-03-29T11:14:01.999Z</time></trkpt><trkpt lat="41.93701244063899" lon="13.12773678634287"><ele>1223.0</ele><time>2026-03-29T11:14:02.999Z</time></trkpt><trkpt lat="41.936961171773156" lon="13.127569141277718"><ele>1216.6666666666667</ele><time>2026-03-29T11:14:03.999Z</time></trkpt><trkpt lat="41.9369591374842" lon="13.127386269337322"><ele>1210.3333333333333</ele><time>2026-03-29T11:14:04.999Z</time></trkpt><trkpt lat="41.93702709072694" lon="13.127204408210904"><ele>1204.0</ele><time>2026-03-29T11:14:05.999Z</time></trkpt><trkpt lat="41.9370782459296" lon="13.126973005188834"><ele>1204.0</ele><time>2026-03-29T11:14:06.999Z</time></trkpt><trkpt lat="41.9371281851602" lon="13.126737856699036"><ele>1204.0</ele><time>2026-03-29T11:14:07.999Z</time></trkpt><trkpt lat="41.93717734854801" lon="13.126539794635335"><ele>1204.0</ele><time>2026-03-29T11:14:08.999Z</time></trkpt><trkpt lat="41.937251195805274" lon="13.126366059655503"><ele>1196.75</ele><time>2026-03-29T11:14:09.999Z</time></trkpt><trkpt lat="41.93734216524584" lon="13.126225640541959"><ele>1189.5</ele><time>2026-03-29T11:14:10.999Z</time></trkpt><trkpt lat="41.937426238676984" lon="13.126123372814027"><ele>1182.25</ele><time>2026-03-29T11:14:11.999Z</time></trkpt><trkpt lat="41.93750999141852" lon="13.126046124463592"><ele>1175.0</ele><time>2026-03-29T11:14:12.999Z</time></trkpt><trkpt lat="41.93765998084108" lon="13.126113450922164"><ele>1172.5</ele><time>2026-03-29T11:14:13.999Z</time></trkpt><trkpt lat="41.93781392431263" lon="13.126150011344711"><ele>1170.0</ele><time>2026-03-29T11:14:14.999Z</time></trkpt><trkpt lat="41.9379443420835" lon="13.12614976777501"><ele>1167.5</ele><time>2026-03-29T11:14:15.999Z</time></trkpt><trkpt lat="41.93806464992095" lon="13.126195763938037"><ele>1165.0</ele><time>2026-03-29T11:14:16.999Z</time></trkpt><trkpt lat="41.938142132030485" lon="13.126279186856468"><ele>1165.0</ele><time>2026-03-29T11:14:17.999Z</time></trkpt><trkpt lat="41.93820824494135" lon="13.126408579557465"><ele>1165.0</ele><time>2026-03-29T11:14:18.999Z</time></trkpt><trkpt lat="41.93829951341333" lon="13.126596328094587"><ele>1165.0</ele><time>2026-03-29T11:14:19.999Z</time></trkpt><trkpt lat="41.93837892739681" lon="13.12678197912728"><ele>1165.0</ele><time>2026-03-29T11:14:20.999Z</time></trkpt><trkpt lat="41.93847747251503" lon="13.126994275042103"><ele>1159.75</ele><time>2026-03-29T11:14:21.999Z</time></trkpt><trkpt lat="41.938569917748474" lon="13.12716822008914"><ele>1154.5</ele><time>2026-03-29T11:14:22.999Z</time></trkpt><trkpt lat="41.938646371639386" lon="13.127283752233227"><ele>1149.25</ele><time>2026-03-29T11:14:23.999Z</time></trkpt><trkpt lat="41.938749384856955" lon="13.127383401197184"><ele>1144.0</ele><time>2026-03-29T11:14:24.999Z</time></trkpt><trkpt lat="41.93884408795259" lon="13.127452573673935"><ele>1150.0</ele><time>2026-03-29T11:14:25.999Z</time></trkpt><trkpt lat="41.938974658483346" lon="13.127467208993343"><ele>1156.0</ele><time>2026-03-29T11:14:26.999Z</time></trkpt><trkpt lat="41.93909806669035" lon="13.127434863456111"><ele>1162.0</ele><time>2026-03-29T11:14:27.999Z</time></trkpt><trkpt lat="41.939255020908554" lon="13.127442403882222"><ele>1168.0</ele><time>2026-03-29T11:14:28.999Z</time></trkpt><trkpt lat="41.93939081284202" lon="13.127461300758476"><ele>1168.0</ele><time>2026-03-29T11:14:29.999Z</time></trkpt><trkpt lat="41.93949697556" lon="13.127499334412667"><ele>1168.0</ele><time>2026-03-29T11:14:30.999Z</time></trkpt><trkpt lat="41.93959716227595" lon="13.127550217269933"><ele>1168.0</ele><time>2026-03-29T11:14:31.999Z</time></trkpt><trkpt lat="41.93969381382102" lon="13.12762178989202"><ele>1168.0</ele><time>2026-03-29T11:14:32.999Z</time></trkpt><trkpt lat="41.93978851352125" lon="13.127733678033286"><ele>1168.0</ele><time>2026-03-29T11:14:33.999Z</time></trkpt><trkpt lat="41.939881838705574" lon="13.127819900688667"><ele>1168.0</ele><time>2026-03-29T11:14:34.999Z</time></trkpt><trkpt lat="41.93996703372281" lon="13.127899572051355"><ele>1168.0</ele><time>2026-03-29T11:14:35.999Z</time></trkpt><trkpt lat="41.94005316432462" lon="13.127969887983966"><ele>1168.0</ele><time>2026-03-29T11:14:36.999Z</time></trkpt><trkpt lat="41.9401446742863" lon="13.12801885007017"><ele>1168.0</ele><time>2026-03-29T11:14:37.999Z</time></trkpt><trkpt lat="41.94026365388086" lon="13.128020503904015"><ele>1164.0</ele><time>2026-03-29T11:14:38.999Z</time></trkpt><trkpt lat="41.94035532196077" lon="13.128011199085584"><ele>1160.0</ele><time>2026-03-29T11:14:39.999Z</time></trkpt><trkpt lat="41.94045943476262" lon="13.127984141930401"><ele>1156.0</ele><time>2026-03-29T11:14:40.999Z</time></trkpt><trkpt lat="41.94055945578904" lon="13.127943704803181"><ele>1152.0</ele><time>2026-03-29T11:14:41.999Z</time></trkpt><trkpt lat="41.940706197767646" lon="13.12791922435686"><ele>1152.0</ele><time>2026-03-29T11:14:42.999Z</time></trkpt><trkpt lat="41.94086145240041" lon="13.127809940508444"><ele>1152.0</ele><time>2026-03-29T11:14:43.998Z</time></trkpt><trkpt lat="41.94102007449001" lon="13.12772840443836"><ele>1152.0</ele><time>2026-03-29T11:14:44.998Z</time></trkpt><trkpt lat="41.94119089534499" lon="13.12763960262081"><ele>1158.0</ele><time>2026-03-29T11:14:45.998Z</time></trkpt><trkpt lat="41.94134958332386" lon="13.127516403967215"><ele>1164.0</ele><time>2026-03-29T11:14:46.998Z</time></trkpt><trkpt lat="41.94150230355959" lon="13.127427049391743"><ele>1170.0</ele><time>2026-03-29T11:14:47.998Z</time></trkpt><trkpt lat="41.941654631447065" lon="13.127364117422928"><ele>1166.5</ele><time>2026-03-29T11:14:48.998Z</time></trkpt><trkpt lat="41.94178771000619" lon="13.127332570882162"><ele>1163.0</ele><time>2026-03-29T11:14:49.998Z</time></trkpt><trkpt lat="41.94191015338709" lon="13.127298054226587"><ele>1159.5</ele><time>2026-03-29T11:14:50.998Z</time></trkpt><trkpt lat="41.94202280947549" lon="13.12722877045278"><ele>1156.0</ele><time>2026-03-29T11:14:51.998Z</time></trkpt><trkpt lat="41.94210368675842" lon="13.127068601869995"><ele>1156.0</ele><time>2026-03-29T11:14:52.998Z</time></trkpt><trkpt lat="41.94219084045456" lon="13.126910513920027"><ele>1156.0</ele><time>2026-03-29T11:14:53.998Z</time></trkpt><trkpt lat="41.94229030834287" lon="13.126757507312956"><ele>1156.0</ele><time>2026-03-29T11:14:54.998Z</time></trkpt><trkpt lat="41.94241331204549" lon="13.126634577880498"><ele>1147.25</ele><time>2026-03-29T11:14:55.998Z</time></trkpt><trkpt lat="41.94254132659871" lon="13.126525621025683"><ele>1138.5</ele><time>2026-03-29T11:14:56.998Z</time></trkpt><trkpt lat="41.94266805436071" lon="13.1264433865497"><ele>1129.75</ele><time>2026-03-29T11:14:57.998Z</time></trkpt><trkpt lat="41.94281734741749" lon="13.12642236718826"><ele>1121.0</ele><time>2026-03-29T11:14:58.998Z</time></trkpt><trkpt lat="41.942981529680836" lon="13.126426467290894"><ele>1119.3333333333335</ele><time>2026-03-29T11:14:59.998Z</time></trkpt><trkpt lat="41.94314243985916" lon="13.126477901724499"><ele>1117.6666666666667</ele><time>2026-03-29T11:15:00.998Z</time></trkpt><trkpt lat="41.943295729634364" lon="13.126536978119228"><ele>1116.0</ele><time>2026-03-29T11:15:01.998Z</time></trkpt><trkpt lat="41.94342647268452" lon="13.126582918479919"><ele>1115.0</ele><time>2026-03-29T11:15:02.998Z</time></trkpt><trkpt lat="41.94353889128909" lon="13.12660041491201"><ele>1114.0</ele><time>2026-03-29T11:15:03.998Z</time></trkpt><trkpt lat="41.94362727683027" lon="13.126649560411453"><ele>1113.0</ele><time>2026-03-29T11:15:04.998Z</time></trkpt><trkpt lat="41.943691578415965" lon="13.126754722932223"><ele>1112.0</ele><time>2026-03-29T11:15:05.998Z</time></trkpt><trkpt lat="41.94372201305609" lon="13.126920569458537"><ele>1111.0</ele><time>2026-03-29T11:15:06.998Z</time></trkpt><trkpt lat="41.94374868492485" lon="13.1271194702099"><ele>1111.0</ele><time>2026-03-29T11:15:07.998Z</time></trkpt><trkpt lat="41.94381981773492" lon="13.12732196789998"><ele>1111.0</ele><time>2026-03-29T11:15:08.998Z</time></trkpt><trkpt lat="41.943908589109654" lon="13.127507729148586"><ele>1111.0</ele><time>2026-03-29T11:15:09.998Z</time></trkpt><trkpt lat="41.94397921416645" lon="13.12767514390087"><ele>1116.0</ele><time>2026-03-29T11:15:10.998Z</time></trkpt><trkpt lat="41.944022375462886" lon="13.127845127194279"><ele>1121.0</ele><time>2026-03-29T11:15:11.998Z</time></trkpt><trkpt lat="41.94403938800079" lon="13.12802332131568"><ele>1126.0</ele><time>2026-03-29T11:15:12.998Z</time></trkpt><trkpt lat="41.944035852420875" lon="13.128200966445768"><ele>1131.0</ele><time>2026-03-29T11:15:13.998Z</time></trkpt><trkpt lat="41.94405975865794" lon="13.128377682546692"><ele>1133.2</ele><time>2026-03-29T11:15:14.998Z</time></trkpt><trkpt lat="41.94408750558354" lon="13.128507042625108"><ele>1135.3999999999999</ele><time>2026-03-29T11:15:15.998Z</time></trkpt><trkpt lat="41.94411618386827" lon="13.128611552475508"><ele>1137.6</ele><time>2026-03-29T11:15:16.998Z</time></trkpt><trkpt lat="41.944184449506864" lon="13.128701423095094"><ele>1139.8</ele><time>2026-03-29T11:15:17.998Z</time></trkpt><trkpt lat="41.94426697779359" lon="13.128763013234783"><ele>1142.0</ele><time>2026-03-29T11:15:18.998Z</time></trkpt><trkpt lat="41.944380065185186" lon="13.128725496233399"><ele>1142.0</ele><time>2026-03-29T11:15:20Z</time></trkpt><trkpt lat="41.94450698344268" lon="13.128618950494337"><ele>1142.0</ele><time>2026-03-29T11:15:21Z</time></trkpt><trkpt lat="41.944660515279224" lon="13.128532830257486"><ele>1142.0</ele><time>2026-03-29T11:15:22Z</time></trkpt><trkpt lat="41.94480795023532" lon="13.128465654341973"><ele>1142.0</ele><time>2026-03-29T11:15:23Z</time></trkpt><trkpt lat="41.944922594188725" lon="13.128353034989987"><ele>1142.0</ele><time>2026-03-29T11:15:24Z</time></trkpt><trkpt lat="41.94503349688539" lon="13.128231779218723"><ele>1142.0</ele><time>2026-03-29T11:15:25Z</time></trkpt><trkpt lat="41.94513156760551" lon="13.128067375541152"><ele>1142.0</ele><time>2026-03-29T11:15:26Z</time></trkpt><trkpt lat="41.94522090120672" lon="13.127875439875597"><ele>1141.3333333333335</ele><time>2026-03-29T11:15:27Z</time></trkpt><trkpt lat="41.94533428954605" lon="13.127701444584114"><ele>1140.6666666666667</ele><time>2026-03-29T11:15:28Z</time></trkpt><trkpt lat="41.945453009033265" lon="13.127541217838669"><ele>1140.0</ele><time>2026-03-29T11:15:29Z</time></trkpt><trkpt lat="41.945587946140996" lon="13.12740500297449"><ele>1138.6666666666667</ele><time>2026-03-29T11:15:30Z</time></trkpt><trkpt lat="41.94572843786435" lon="13.127283096098113"><ele>1137.3333333333335</ele><time>2026-03-29T11:15:31Z</time></trkpt><trkpt lat="41.945872120151144" lon="13.12716187252429"><ele>1136.0</ele><time>2026-03-29T11:15:32Z</time></trkpt><trkpt lat="41.946023417022396" lon="13.127066276926932"><ele>1136.0</ele><time>2026-03-29T11:15:33Z</time></trkpt><trkpt lat="41.946167277823314" lon="13.126923251223682"><ele>1136.0</ele><time>2026-03-29T11:15:34Z</time></trkpt><trkpt lat="41.9463036816268" lon="13.126736154206506"><ele>1136.0</ele><time>2026-03-29T11:15:35Z</time></trkpt><trkpt lat="41.9464451074931" lon="13.126537354557081"><ele>1139.0</ele><time>2026-03-29T11:15:36Z</time></trkpt><trkpt lat="41.94660204323067" lon="13.126369540907984"><ele>1142.0</ele><time>2026-03-29T11:15:37Z</time></trkpt><trkpt lat="41.946721342411685" lon="13.126171462824242"><ele>1145.0</ele><time>2026-03-29T11:15:38Z</time></trkpt><trkpt lat="41.94684740105701" lon="13.125988096678752"><ele>1145.0</ele><time>2026-03-29T11:15:39Z</time></trkpt><trkpt lat="41.94697093870714" lon="13.125784116062162"><ele>1145.0</ele><time>2026-03-29T11:15:40Z</time></trkpt><trkpt lat="41.94708406679502" lon="13.1255776601109"><ele>1145.0</ele><time>2026-03-29T11:15:41Z</time></trkpt><trkpt lat="41.94719841349146" lon="13.125381890538156"><ele>1135.3333333333335</ele><time>2026-03-29T11:15:42Z</time></trkpt><trkpt lat="41.94728334179386" lon="13.12514316522343"><ele>1125.6666666666667</ele><time>2026-03-29T11:15:43Z</time></trkpt><trkpt lat="41.94735070782968" lon="13.124887445748051"><ele>1116.0</ele><time>2026-03-29T11:15:44Z</time></trkpt><trkpt lat="41.947463337802326" lon="13.124691465776774"><ele>1125.0</ele><time>2026-03-29T11:15:45Z</time></trkpt><trkpt lat="41.94757222518916" lon="13.124509868757285"><ele>1134.0</ele><time>2026-03-29T11:15:46Z</time></trkpt><trkpt lat="41.947664016052364" lon="13.12432481186152"><ele>1143.0</ele><time>2026-03-29T11:15:47Z</time></trkpt><trkpt lat="41.94775345958389" lon="13.124156573637284"><ele>1137.3333333333333</ele><time>2026-03-29T11:15:48Z</time></trkpt><trkpt lat="41.94781489387992" lon="13.123960956835402"><ele>1131.6666666666665</ele><time>2026-03-29T11:15:49Z</time></trkpt><trkpt lat="41.94784716832288" lon="13.123745879341596"><ele>1126.0</ele><time>2026-03-29T11:15:50Z</time></trkpt><trkpt lat="41.947856637918804" lon="13.123517148476616"><ele>1126.0</ele><time>2026-03-29T11:15:51Z</time></trkpt><trkpt lat="41.94784884260071" lon="13.123296420224898"><ele>1126.0</ele><time>2026-03-29T11:15:51.999Z</time></trkpt><trkpt lat="41.94783392516877" lon="13.123082679874683"><ele>1126.0</ele><time>2026-03-29T11:15:52.999Z</time></trkpt><trkpt lat="41.94782712305926" lon="13.122859941969768"><ele>1123.0</ele><time>2026-03-29T11:15:53.999Z</time></trkpt><trkpt lat="41.94776289930974" lon="13.122628148055473"><ele>1120.0</ele><time>2026-03-29T11:15:54.999Z</time></trkpt><trkpt lat="41.947700677577075" lon="13.12238398834582"><ele>1117.0</ele><time>2026-03-29T11:15:55.999Z</time></trkpt><trkpt lat="41.94767646392408" lon="13.122144438043438"><ele>1112.5</ele><time>2026-03-29T11:15:56.999Z</time></trkpt><trkpt lat="41.94764466771804" lon="13.121918702338743"><ele>1108.0</ele><time>2026-03-29T11:15:57.999Z</time></trkpt><trkpt lat="41.94762013933702" lon="13.12172522443783"><ele>1103.5</ele><time>2026-03-29T11:15:58.999Z</time></trkpt><trkpt lat="41.94760021039682" lon="13.121550956821851"><ele>1099.0</ele><time>2026-03-29T11:15:59.999Z</time></trkpt><trkpt lat="41.94758910709746" lon="13.12140006929881"><ele>1091.2</ele><time>2026-03-29T11:16:00.999Z</time></trkpt><trkpt lat="41.94759369524761" lon="13.121281853769108"><ele>1083.4</ele><time>2026-03-29T11:16:01.999Z</time></trkpt><trkpt lat="41.947608331354346" lon="13.121177870083045"><ele>1075.6</ele><time>2026-03-29T11:16:02.999Z</time></trkpt><trkpt lat="41.94769558334915" lon="13.121133295417579"><ele>1067.8</ele><time>2026-03-29T11:16:03.999Z</time></trkpt><trkpt lat="41.94778211729708" lon="13.1212032095344"><ele>1060.0</ele><time>2026-03-29T11:16:04.999Z</time></trkpt><trkpt lat="41.94787763107822" lon="13.121241780777792"><ele>1060.0</ele><time>2026-03-29T11:16:05.999Z</time></trkpt><trkpt lat="41.9479992371375" lon="13.12132156876551"><ele>1060.0</ele><time>2026-03-29T11:16:06.999Z</time></trkpt><trkpt lat="41.948141704691174" lon="13.121395853211544"><ele>1060.0</ele><time>2026-03-29T11:16:07.999Z</time></trkpt><trkpt lat="41.948293772104016" lon="13.12147051297288"><ele>1054.3333333333333</ele><time>2026-03-29T11:16:08.999Z</time></trkpt><trkpt lat="41.94845785920465" lon="13.121537605062684"><ele>1048.6666666666667</ele><time>2026-03-29T11:16:09.999Z</time></trkpt><trkpt lat="41.94863508479113" lon="13.12158601076263"><ele>1043.0</ele><time>2026-03-29T11:16:10.999Z</time></trkpt><trkpt lat="41.9488040884829" lon="13.12161348083702"><ele>1050.0</ele><time>2026-03-29T11:16:11.999Z</time></trkpt><trkpt lat="41.948979503829484" lon="13.121619585212844"><ele>1057.0</ele><time>2026-03-29T11:16:12.999Z</time></trkpt><trkpt lat="41.94915572115988" lon="13.121648217165811"><ele>1064.0</ele><time>2026-03-29T11:16:13.999Z</time></trkpt><trkpt lat="41.94932162694791" lon="13.121651000825867"><ele>1064.0</ele><time>2026-03-29T11:16:14.999Z</time></trkpt><trkpt lat="41.949487435014156" lon="13.121658313698145"><ele>1064.0</ele><time>2026-03-29T11:16:15.999Z</time></trkpt><trkpt lat="41.9496493312028" lon="13.121700470023557"><ele>1064.0</ele><time>2026-03-29T11:16:16.999Z</time></trkpt><trkpt lat="41.94980888112755" lon="13.121801096314151"><ele>1064.0</ele><time>2026-03-29T11:16:17.999Z</time></trkpt><trkpt lat="41.9499583712489" lon="13.121947281656698"><ele>1064.0</ele><time>2026-03-29T11:16:18.999Z</time></trkpt><trkpt lat="41.9501092265619" lon="13.122118192210381"><ele>1064.0</ele><time>2026-03-29T11:16:19.999Z</time></trkpt><trkpt lat="41.95025724870452" lon="13.122285791311663"><ele>1059.3333333333335</ele><time>2026-03-29T11:16:20.999Z</time></trkpt><trkpt lat="41.95037960732269" lon="13.122472354201207"><ele>1054.6666666666667</ele><time>2026-03-29T11:16:21.999Z</time></trkpt><trkpt lat="41.95047923245066" lon="13.122661176053505"><ele>1050.0</ele><time>2026-03-29T11:16:22.999Z</time></trkpt><trkpt lat="41.95055388318149" lon="13.122851859082797"><ele>1050.0</ele><time>2026-03-29T11:16:23.999Z</time></trkpt><trkpt lat="41.95060447465003" lon="13.123037849004492"><ele>1050.0</ele><time>2026-03-29T11:16:24.999Z</time></trkpt><trkpt lat="41.950641399494415" lon="13.123217967136076"><ele>1050.0</ele><time>2026-03-29T11:16:25.999Z</time></trkpt><trkpt lat="41.95067071918961" lon="13.123388908341987"><ele>1050.0</ele><time>2026-03-29T11:16:26.999Z</time></trkpt><trkpt lat="41.95069893603199" lon="13.123537915833108"><ele>1048.0</ele><time>2026-03-29T11:16:27.999Z</time></trkpt><trkpt lat="41.95072462558633" lon="13.123673463186043"><ele>1046.0</ele><time>2026-03-29T11:16:28.999Z</time></trkpt><trkpt lat="41.95074877001137" lon="13.123787005185285"><ele>1044.0</ele><time>2026-03-29T11:16:29.999Z</time></trkpt><trkpt lat="41.95076463893833" lon="13.123881515493194"><ele>1042.0</ele><time>2026-03-29T11:16:30.999Z</time></trkpt><trkpt lat="41.95080881155549" lon="13.124021976804826"><ele>1040.0</ele><time>2026-03-29T11:16:32.999Z</time></trkpt><trkpt lat="41.950912696048384" lon="13.124076917212118"><ele>1036.4</ele><time>2026-03-29T11:16:34.999Z</time></trkpt><trkpt lat="41.95096181919939" lon="13.124004381277757"><ele>1032.8</ele><time>2026-03-29T11:16:35.999Z</time></trkpt><trkpt lat="41.95096329438521" lon="13.12388759205024"><ele>1029.2</ele><time>2026-03-29T11:16:36.999Z</time></trkpt><trkpt lat="41.95092298333817" lon="13.123754145770647"><ele>1025.6</ele><time>2026-03-29T11:16:37.999Z</time></trkpt><trkpt lat="41.950872297055824" lon="13.123607049535147"><ele>1022.0</ele><time>2026-03-29T11:16:38.999Z</time></trkpt><trkpt lat="41.95083269719168" lon="13.123418907239769"><ele>1031.3333333333335</ele><time>2026-03-29T11:16:39.999Z</time></trkpt><trkpt lat="41.95080092744433" lon="13.123207760497268"><ele>1040.6666666666667</ele><time>2026-03-29T11:16:40.999Z</time></trkpt><trkpt lat="41.95076735635537" lon="13.122979226753237"><ele>1050.0</ele><time>2026-03-29T11:16:41.999Z</time></trkpt><trkpt lat="41.950726851909145" lon="13.122742146253692"><ele>1050.0</ele><time>2026-03-29T11:16:42.999Z</time></trkpt><trkpt lat="41.95067435904475" lon="13.122508594308075"><ele>1050.0</ele><time>2026-03-29T11:16:43.999Z</time></trkpt><trkpt lat="41.95060100268751" lon="13.12228420018826"><ele>1050.0</ele><time>2026-03-29T11:16:44.999Z</time></trkpt><trkpt lat="41.95049927705809" lon="13.12206783651378"><ele>1042.6666666666667</ele><time>2026-03-29T11:16:45.999Z</time></trkpt><trkpt lat="41.95037484599664" lon="13.121864046491414"><ele>1035.3333333333335</ele><time>2026-03-29T11:16:46.999Z</time></trkpt><trkpt lat="41.95024625469146" lon="13.121670415938393"><ele>1028.0</ele><time>2026-03-29T11:16:47.999Z</time></trkpt><trkpt lat="41.95010822707159" lon="13.121486519100623"><ele>1028.0</ele><time>2026-03-29T11:16:48.999Z</time></trkpt><trkpt lat="41.94996062566773" lon="13.121316527084415"><ele>1028.0</ele><time>2026-03-29T11:16:49.999Z</time></trkpt><trkpt lat="41.94981282394005" lon="13.121178832471452"><ele>1028.0</ele><time>2026-03-29T11:16:50.999Z</time></trkpt><trkpt lat="41.94965526681046" lon="13.121070044867423"><ele>1028.0</ele><time>2026-03-29T11:16:51.999Z</time></trkpt><trkpt lat="41.94948068945141" lon="13.120985936203752"><ele>1028.0</ele><time>2026-03-29T11:16:52.998Z</time></trkpt><trkpt lat="41.94928132491165" lon="13.120932493895905"><ele>1028.0</ele><time>2026-03-29T11:16:53.998Z</time></trkpt><trkpt lat="41.949087945262356" lon="13.120852115261622"><ele>1033.0</ele><time>2026-03-29T11:16:54.998Z</time></trkpt><trkpt lat="41.9488922020321" lon="13.12076618489045"><ele>1038.0</ele><time>2026-03-29T11:16:55.998Z</time></trkpt><trkpt lat="41.94870813026207" lon="13.120675798892183"><ele>1043.0</ele><time>2026-03-29T11:16:56.998Z</time></trkpt><trkpt lat="41.94853363753574" lon="13.120572941300495"><ele>1036.0</ele><time>2026-03-29T11:16:57.998Z</time></trkpt><trkpt lat="41.94837051779199" lon="13.120456223529928"><ele>1029.0</ele><time>2026-03-29T11:16:58.998Z</time></trkpt><trkpt lat="41.94821254077383" lon="13.120340318484196"><ele>1022.0</ele><time>2026-03-29T11:16:59.998Z</time></trkpt><trkpt lat="41.94804010590681" lon="13.120222255748805"><ele>1022.0</ele><time>2026-03-29T11:17:00.998Z</time></trkpt><trkpt lat="41.947873718665846" lon="13.12010650092885"><ele>1022.0</ele><time>2026-03-29T11:17:01.998Z</time></trkpt><trkpt lat="41.9477106731196" lon="13.119985846667841"><ele>1022.0</ele><time>2026-03-29T11:17:02.998Z</time></trkpt><trkpt lat="41.94755495915567" lon="13.119832853573007"><ele>1017.0</ele><time>2026-03-29T11:17:03.998Z</time></trkpt><trkpt lat="41.94741705105823" lon="13.11963735035411"><ele>1012.0</ele><time>2026-03-29T11:17:04.998Z</time></trkpt><trkpt lat="41.9472844995129" lon="13.119435787328678"><ele>1007.0</ele><time>2026-03-29T11:17:05.998Z</time></trkpt><trkpt lat="41.94715906946419" lon="13.11926229458408"><ele>1007.0</ele><time>2026-03-29T11:17:06.998Z</time></trkpt><trkpt lat="41.947050833988506" lon="13.119120704092104"><ele>1007.0</ele><time>2026-03-29T11:17:07.998Z</time></trkpt><trkpt lat="41.946961618708585" lon="13.11900553407476"><ele>1007.0</ele><time>2026-03-29T11:17:08.998Z</time></trkpt><trkpt lat="41.94689191097909" lon="13.118927893709632"><ele>1007.0</ele><time>2026-03-29T11:17:09.998Z</time></trkpt><trkpt lat="41.94680013079338" lon="13.11889874467443"><ele>1009.25</ele><time>2026-03-29T11:17:10.998Z</time></trkpt><trkpt lat="41.94670981257242" lon="13.118939404944362"><ele>1011.5</ele><time>2026-03-29T11:17:11.998Z</time></trkpt><trkpt lat="41.94664161265027" lon="13.119050644849967"><ele>1013.75</ele><time>2026-03-29T11:17:12.998Z</time></trkpt><trkpt lat="41.94659715034253" lon="13.119214885472378"><ele>1016.0</ele><time>2026-03-29T11:17:13.998Z</time></trkpt><trkpt lat="41.94656264975166" lon="13.119416850301182"><ele>1016.0</ele><time>2026-03-29T11:17:14.998Z</time></trkpt><trkpt lat="41.946544180539306" lon="13.119636433364624"><ele>1016.0</ele><time>2026-03-29T11:17:15.998Z</time></trkpt><trkpt lat="41.94654026899322" lon="13.119899488543481"><ele>1016.0</ele><time>2026-03-29T11:17:16.998Z</time></trkpt><trkpt lat="41.94651723725237" lon="13.12014504966498"><ele>1018.6666666666667</ele><time>2026-03-29T11:17:17.998Z</time></trkpt><trkpt lat="41.94649510782688" lon="13.120414807552537"><ele>1021.3333333333333</ele><time>2026-03-29T11:17:18.998Z</time></trkpt><trkpt lat="41.94646388919765" lon="13.120696583065644"><ele>1024.0</ele><time>2026-03-29T11:17:19.998Z</time></trkpt><trkpt lat="41.946434626228935" lon="13.120973553194917"><ele>1024.0</ele><time>2026-03-29T11:17:20.998Z</time></trkpt><trkpt lat="41.94641212491742" lon="13.12125689602546"><ele>1024.0</ele><time>2026-03-29T11:17:21.998Z</time></trkpt><trkpt lat="41.94639222197505" lon="13.121547713617398"><ele>1024.0</ele><time>2026-03-29T11:17:22.998Z</time></trkpt><trkpt lat="41.94637014605713" lon="13.121845113448371"><ele>1025.6666666666665</ele><time>2026-03-29T11:17:23.998Z</time></trkpt><trkpt lat="41.94634788401041" lon="13.122122431091656"><ele>1027.3333333333333</ele><time>2026-03-29T11:17:25Z</time></trkpt><trkpt lat="41.94632586806318" lon="13.122374916141723"><ele>1029.0</ele><time>2026-03-29T11:17:26Z</time></trkpt><trkpt lat="41.946300142208095" lon="13.122610214441767"><ele>1029.6666666666667</ele><time>2026-03-29T11:17:27Z</time></trkpt><trkpt lat="41.94626758065222" lon="13.122834022893397"><ele>1030.3333333333335</ele><time>2026-03-29T11:17:28Z</time></trkpt><trkpt lat="41.9462319351754" lon="13.12303909572889"><ele>1031.0</ele><time>2026-03-29T11:17:29Z</time></trkpt><trkpt lat="41.946163576016005" lon="13.123216839189054"><ele>1031.75</ele><time>2026-03-29T11:17:30Z</time></trkpt><trkpt lat="41.946080985374635" lon="13.1233932102354"><ele>1032.5</ele><time>2026-03-29T11:17:31Z</time></trkpt><trkpt lat="41.946004561902754" lon="13.12355306042076"><ele>1033.25</ele><time>2026-03-29T11:17:32Z</time></trkpt><trkpt lat="41.9459361090147" lon="13.123693924523085"><ele>1034.0</ele><time>2026-03-29T11:17:33Z</time></trkpt><trkpt lat="41.94587628765771" lon="13.123815467360204"><ele>1027.3333333333335</ele><time>2026-03-29T11:17:34Z</time></trkpt><trkpt lat="41.94582694962959" lon="13.12391379432514"><ele>1020.6666666666667</ele><time>2026-03-29T11:17:35Z</time></trkpt><trkpt lat="41.945784175726025" lon="13.123990426034752"><ele>1014.0</ele><time>2026-03-29T11:17:36Z</time></trkpt><trkpt lat="41.945717652133034" lon="13.124007005643405"><ele>1007.3333333333333</ele><time>2026-03-29T11:17:38Z</time></trkpt><trkpt lat="41.94569044367634" lon="13.123861801853396"><ele>1000.6666666666666</ele><time>2026-03-29T11:17:40Z</time></trkpt><trkpt lat="41.94577316986755" lon="13.123774490246944"><ele>994.0</ele><time>2026-03-29T11:17:41Z</time></trkpt><trkpt lat="41.945844561478815" lon="13.123620939382999"><ele>1006.3333333333333</ele><time>2026-03-29T11:17:42Z</time></trkpt><trkpt lat="41.94593634630523" lon="13.123451923762477"><ele>1018.6666666666667</ele><time>2026-03-29T11:17:43Z</time></trkpt><trkpt lat="41.946014134782786" lon="13.123266009507248"><ele>1031.0</ele><time>2026-03-29T11:17:44Z</time></trkpt><trkpt lat="41.94607753926489" lon="13.123057263837165"><ele>1031.0</ele><time>2026-03-29T11:17:45Z</time></trkpt><trkpt lat="41.94610949800145" lon="13.122826132151879"><ele>1031.0</ele><time>2026-03-29T11:17:46Z</time></trkpt><trkpt lat="41.9460871583814" lon="13.122559397278165"><ele>1031.0</ele><time>2026-03-29T11:17:47Z</time></trkpt><trkpt lat="41.94606074582335" lon="13.122253065924015"><ele>1030.0</ele><time>2026-03-29T11:17:48Z</time></trkpt><trkpt lat="41.946043311597975" lon="13.121946946267343"><ele>1029.0</ele><time>2026-03-29T11:17:49Z</time></trkpt><trkpt lat="41.94602987748782" lon="13.121627783550919"><ele>1026.5</ele><time>2026-03-29T11:17:50Z</time></trkpt><trkpt lat="41.94602435503941" lon="13.121303646079753"><ele>1024.0</ele><time>2026-03-29T11:17:51Z</time></trkpt><trkpt lat="41.94601801431694" lon="13.121002866891688"><ele>1024.0</ele><time>2026-03-29T11:17:52Z</time></trkpt><trkpt lat="41.946031329059764" lon="13.12070994039954"><ele>1024.0</ele><time>2026-03-29T11:17:53Z</time></trkpt><trkpt lat="41.946030625418075" lon="13.120405579229656"><ele>1024.0</ele><time>2026-03-29T11:17:54Z</time></trkpt><trkpt lat="41.946024511100674" lon="13.12010930502885"><ele>1021.3333333333333</ele><time>2026-03-29T11:17:55Z</time></trkpt><trkpt lat="41.946013592297476" lon="13.119811459562186"><ele>1018.6666666666667</ele><time>2026-03-29T11:17:56Z</time></trkpt><trkpt lat="41.946004528030585" lon="13.119525130755994"><ele>1016.0</ele><time>2026-03-29T11:17:57Z</time></trkpt><trkpt lat="41.94600085336888" lon="13.119245485263864"><ele>1009.0</ele><time>2026-03-29T11:17:57.999Z</time></trkpt><trkpt lat="41.94599859224711" lon="13.118977824618192"><ele>1002.0</ele><time>2026-03-29T11:17:58.999Z</time></trkpt><trkpt lat="41.94599022607344" lon="13.11872489556626"><ele>995.0</ele><time>2026-03-29T11:17:59.999Z</time></trkpt><trkpt lat="41.94597479780527" lon="13.118494815357407"><ele>995.0</ele><time>2026-03-29T11:18:00.999Z</time></trkpt><trkpt lat="41.94596316282842" lon="13.118296367902829"><ele>995.0</ele><time>2026-03-29T11:18:01.999Z</time></trkpt><trkpt lat="41.94597815982288" lon="13.118109375257069"><ele>995.0</ele><time>2026-03-29T11:18:02.999Z</time></trkpt><trkpt lat="41.946024620826215" lon="13.117926876185395"><ele>995.0</ele><time>2026-03-29T11:18:03.999Z</time></trkpt><trkpt lat="41.94610411381637" lon="13.117804776408647"><ele>987.4</ele><time>2026-03-29T11:18:04.999Z</time></trkpt><trkpt lat="41.946185069534174" lon="13.11769534075609"><ele>979.8</ele><time>2026-03-29T11:18:05.999Z</time></trkpt><trkpt lat="41.946246501922516" lon="13.117595136512488"><ele>972.2</ele><time>2026-03-29T11:18:06.999Z</time></trkpt><trkpt lat="41.94628695603388" lon="13.117514630482914"><ele>964.6</ele><time>2026-03-29T11:18:07.999Z</time></trkpt><trkpt lat="41.94620501699728" lon="13.117359923294368"><ele>957.0</ele><time>2026-03-29T11:18:09.999Z</time></trkpt><trkpt lat="41.94608622219913" lon="13.117419756129113"><ele>957.0</ele><time>2026-03-29T11:18:10.999Z</time></trkpt><trkpt lat="41.94601180615163" lon="13.117526799127637"><ele>957.0</ele><time>2026-03-29T11:18:11.999Z</time></trkpt><trkpt lat="41.94594494961806" lon="13.11769113540226"><ele>957.0</ele><time>2026-03-29T11:18:12.999Z</time></trkpt><trkpt lat="41.94587959710887" lon="13.117873870948051"><ele>957.0</ele><time>2026-03-29T11:18:13.999Z</time></trkpt><trkpt lat="41.94582552833795" lon="13.118074866588765"><ele>958.0</ele><time>2026-03-29T11:18:14.999Z</time></trkpt><trkpt lat="41.94578762149962" lon="13.11831601846281"><ele>959.0</ele><time>2026-03-29T11:18:15.999Z</time></trkpt><trkpt lat="41.94576577036712" lon="13.1185763308405"><ele>960.0</ele><time>2026-03-29T11:18:16.999Z</time></trkpt><trkpt lat="41.94574291280588" lon="13.118862523033963"><ele>963.0</ele><time>2026-03-29T11:18:17.999Z</time></trkpt><trkpt lat="41.94570032534103" lon="13.119161513354415"><ele>966.0</ele><time>2026-03-29T11:18:18.999Z</time></trkpt><trkpt lat="41.9456483767065" lon="13.119433722801695"><ele>969.0</ele><time>2026-03-29T11:18:19.999Z</time></trkpt><trkpt lat="41.9456008416113" lon="13.11968924718846"><ele>970.0</ele><time>2026-03-29T11:18:20.999Z</time></trkpt><trkpt lat="41.945552136120334" lon="13.119943060549721"><ele>971.0</ele><time>2026-03-29T11:18:21.999Z</time></trkpt><trkpt lat="41.9455031081421" lon="13.120190678077341"><ele>972.0</ele><time>2026-03-29T11:18:22.999Z</time></trkpt><trkpt lat="41.945451512275376" lon="13.120423868913866"><ele>972.0</ele><time>2026-03-29T11:18:23.999Z</time></trkpt><trkpt lat="41.94539617020775" lon="13.12065150769224"><ele>972.0</ele><time>2026-03-29T11:18:24.999Z</time></trkpt><trkpt lat="41.94533997636143" lon="13.120868494049372"><ele>972.0</ele><time>2026-03-29T11:18:25.999Z</time></trkpt><trkpt lat="41.94529028087039" lon="13.121076234601828"><ele>973.25</ele><time>2026-03-29T11:18:26.999Z</time></trkpt><trkpt lat="41.94524755624585" lon="13.121271728721988"><ele>974.5</ele><time>2026-03-29T11:18:27.999Z</time></trkpt><trkpt lat="41.94521527882011" lon="13.121444090306849"><ele>975.75</ele><time>2026-03-29T11:18:28.999Z</time></trkpt><trkpt lat="41.94519082305081" lon="13.121602369546567"><ele>977.0</ele><time>2026-03-29T11:18:29.999Z</time></trkpt><trkpt lat="41.94517737443241" lon="13.121746029644749"><ele>977.5000000000001</ele><time>2026-03-29T11:18:30.999Z</time></trkpt><trkpt lat="41.945149368163555" lon="13.121861912039797"><ele>978.0</ele><time>2026-03-29T11:18:31.999Z</time></trkpt><trkpt lat="41.945135450028374" lon="13.121954171110424"><ele>978.5</ele><time>2026-03-29T11:18:32.999Z</time></trkpt><trkpt lat="41.94505073623342" lon="13.122003634638599"><ele>979.0</ele><time>2026-03-29T11:18:34.999Z</time></trkpt><trkpt lat="41.944996235868544" lon="13.121914031814722"><ele>979.5000000000001</ele><time>2026-03-29T11:18:35.999Z</time></trkpt><trkpt lat="41.94499167892184" lon="13.121786557245816"><ele>980.0</ele><time>2026-03-29T11:18:36.999Z</time></trkpt><trkpt lat="41.94504833735935" lon="13.12162074188694"><ele>979.0</ele><time>2026-03-29T11:18:37.999Z</time></trkpt><trkpt lat="41.94505702105929" lon="13.121401628911947"><ele>978.0</ele><time>2026-03-29T11:18:38.999Z</time></trkpt><trkpt lat="41.945076641164995" lon="13.121168656017097"><ele>977.0</ele><time>2026-03-29T11:18:39.999Z</time></trkpt><trkpt lat="41.94508895423767" lon="13.120897726559882"><ele>975.3333333333334</ele><time>2026-03-29T11:18:40.999Z</time></trkpt><trkpt lat="41.94510180571142" lon="13.120614698542171"><ele>973.6666666666667</ele><time>2026-03-29T11:18:41.999Z</time></trkpt><trkpt lat="41.94511328361983" lon="13.120326493376599"><ele>972.0</ele><time>2026-03-29T11:18:42.999Z</time></trkpt><trkpt lat="41.945139106622754" lon="13.120053667741045"><ele>971.0</ele><time>2026-03-29T11:18:43.999Z</time></trkpt><trkpt lat="41.94512729580837" lon="13.119775967828843"><ele>970.0</ele><time>2026-03-29T11:18:44.999Z</time></trkpt><trkpt lat="41.945124376002674" lon="13.119487013746062"><ele>969.0</ele><time>2026-03-29T11:18:45.999Z</time></trkpt><trkpt lat="41.94512062988788" lon="13.11920497435034"><ele>966.0</ele><time>2026-03-29T11:18:46.999Z</time></trkpt><trkpt lat="41.945121124708066" lon="13.11893136986791"><ele>963.0</ele><time>2026-03-29T11:18:47.999Z</time></trkpt><trkpt lat="41.945123602764575" lon="13.118671946317157"><ele>960.0</ele><time>2026-03-29T11:18:48.999Z</time></trkpt><trkpt lat="41.94511976959376" lon="13.118419611730168"><ele>955.6666666666667</ele><time>2026-03-29T11:18:49.999Z</time></trkpt><trkpt lat="41.945133423122066" lon="13.118176382631201"><ele>951.3333333333334</ele><time>2026-03-29T11:18:50.999Z</time></trkpt><trkpt lat="41.945138144685714" lon="13.117940790357743"><ele>947.0</ele><time>2026-03-29T11:18:51.999Z</time></trkpt><trkpt lat="41.945160507621445" lon="13.117695073435597"><ele>947.0</ele><time>2026-03-29T11:18:52.999Z</time></trkpt><trkpt lat="41.945201604352974" lon="13.117448951736181"><ele>947.0</ele><time>2026-03-29T11:18:53.999Z</time></trkpt><trkpt lat="41.94525485950004" lon="13.117221755064644"><ele>947.0</ele><time>2026-03-29T11:18:54.999Z</time></trkpt><trkpt lat="41.945321612709016" lon="13.117017122394643"><ele>939.6666666666667</ele><time>2026-03-29T11:18:55.999Z</time></trkpt><trkpt lat="41.9453970291672" lon="13.11682521479577"><ele>932.3333333333333</ele><time>2026-03-29T11:18:56.999Z</time></trkpt><trkpt lat="41.945481137712584" lon="13.116648058586005"><ele>925.0</ele><time>2026-03-29T11:18:57.998Z</time></trkpt><trkpt lat="41.94553288314738" lon="13.116431005194208"><ele>918.6666666666666</ele><time>2026-03-29T11:18:58.998Z</time></trkpt><trkpt lat="41.945549424302676" lon="13.116170855066477"><ele>912.3333333333333</ele><time>2026-03-29T11:18:59.998Z</time></trkpt><trkpt lat="41.94555029764189" lon="13.115923372888552"><ele>906.0</ele><time>2026-03-29T11:19:00.998Z</time></trkpt><trkpt lat="41.94554706671099" lon="13.115704936983448"><ele>901.75</ele><time>2026-03-29T11:19:01.998Z</time></trkpt><trkpt lat="41.945546987909985" lon="13.115510581696098"><ele>897.5</ele><time>2026-03-29T11:19:02.998Z</time></trkpt><trkpt lat="41.94555621483698" lon="13.115337027572936"><ele>893.25</ele><time>2026-03-29T11:19:03.998Z</time></trkpt><trkpt lat="41.94557192777056" lon="13.115173966979821"><ele>889.0</ele><time>2026-03-29T11:19:04.998Z</time></trkpt><trkpt lat="41.9455997843034" lon="13.115035566492194"><ele>889.0</ele><time>2026-03-29T11:19:05.998Z</time></trkpt><trkpt lat="41.94562624995498" lon="13.114928006467581"><ele>889.0000000000001</ele><time>2026-03-29T11:19:06.998Z</time></trkpt><trkpt lat="41.94562029585919" lon="13.114835353855932"><ele>889.0000000000001</ele><time>2026-03-29T11:19:07.998Z</time></trkpt><trkpt lat="41.94556325809214" lon="13.114770332797802"><ele>889.0</ele><time>2026-03-29T11:19:08.998Z</time></trkpt><trkpt lat="41.94548817223797" lon="13.114775383790626"><ele>889.0</ele><time>2026-03-29T11:19:09.998Z</time></trkpt><trkpt lat="41.945409892746305" lon="13.114985053139858"><ele>889.0</ele><time>2026-03-29T11:19:11.998Z</time></trkpt><trkpt lat="41.94540719374102" lon="13.11516042602013"><ele>889.0</ele><time>2026-03-29T11:19:12.998Z</time></trkpt><trkpt lat="41.945394821725856" lon="13.115371263252017"><ele>889.0</ele><time>2026-03-29T11:19:13.998Z</time></trkpt><trkpt lat="41.94537004688231" lon="13.115594473740487"><ele>894.6666666666666</ele><time>2026-03-29T11:19:14.998Z</time></trkpt><trkpt lat="41.94534009935117" lon="13.115833569360943"><ele>900.3333333333333</ele><time>2026-03-29T11:19:15.998Z</time></trkpt><trkpt lat="41.94530861024179" lon="13.11605418119442"><ele>906.0</ele><time>2026-03-29T11:19:16.998Z</time></trkpt><trkpt lat="41.94527972327022" lon="13.116243032872275"><ele>906.0</ele><time>2026-03-29T11:19:17.998Z</time></trkpt><trkpt lat="41.94524536839961" lon="13.116412153696386"><ele>906.0</ele><time>2026-03-29T11:19:18.998Z</time></trkpt><trkpt lat="41.9451810597088" lon="13.11656868613121"><ele>906.0</ele><time>2026-03-29T11:19:19.998Z</time></trkpt><trkpt lat="41.94508332646921" lon="13.116700540125635"><ele>906.0</ele><time>2026-03-29T11:19:20.998Z</time></trkpt><trkpt lat="41.944977882039495" lon="13.116793088983101"><ele>900.75</ele><time>2026-03-29T11:19:21.998Z</time></trkpt><trkpt lat="41.94489275167376" lon="13.116877512917526"><ele>895.5</ele><time>2026-03-29T11:19:22.998Z</time></trkpt><trkpt lat="41.944814423281855" lon="13.116977971095864"><ele>890.25</ele><time>2026-03-29T11:19:23.998Z</time></trkpt><trkpt lat="41.94474932616317" lon="13.11711196315926"><ele>885.0</ele><time>2026-03-29T11:19:24.998Z</time></trkpt><trkpt lat="41.94468831936816" lon="13.117265169054189"><ele>889.25</ele><time>2026-03-29T11:19:25.998Z</time></trkpt><trkpt lat="41.94462778597744" lon="13.117438931758395"><ele>893.5</ele><time>2026-03-29T11:19:26.998Z</time></trkpt><trkpt lat="41.94455325390968" lon="13.11761714425432"><ele>897.75</ele><time>2026-03-29T11:19:27.998Z</time></trkpt><trkpt lat="41.94451047516401" lon="13.117797936016537"><ele>902.0</ele><time>2026-03-29T11:19:28.998Z</time></trkpt><trkpt lat="41.944481667249036" lon="13.117959711308895"><ele>902.0</ele><time>2026-03-29T11:19:30Z</time></trkpt><trkpt lat="41.94445870934879" lon="13.11808408670288"><ele>902.0</ele><time>2026-03-29T11:19:31Z</time></trkpt><trkpt lat="41.94441562501372" lon="13.118204552036016"><ele>902.0</ele><time>2026-03-29T11:19:33Z</time></trkpt><trkpt lat="41.944318350784734" lon="13.118099554299512"><ele>902.0</ele><time>2026-03-29T11:19:35Z</time></trkpt><trkpt lat="41.944364108622224" lon="13.118002233609184"><ele>902.0</ele><time>2026-03-29T11:19:36Z</time></trkpt><trkpt lat="41.944382965454956" lon="13.117857462641174"><ele>902.0</ele><time>2026-03-29T11:19:37Z</time></trkpt><trkpt lat="41.94441752971135" lon="13.11769027652158"><ele>902.0</ele><time>2026-03-29T11:19:38Z</time></trkpt><trkpt lat="41.94443907469875" lon="13.117487052055314"><ele>902.0</ele><time>2026-03-29T11:19:39Z</time></trkpt><trkpt lat="41.944457677626595" lon="13.117264302878912"><ele>902.0</ele><time>2026-03-29T11:19:40Z</time></trkpt><trkpt lat="41.94447225139394" lon="13.117044999719203"><ele>896.3333333333334</ele><time>2026-03-29T11:19:41Z</time></trkpt><trkpt lat="41.94453552248164" lon="13.116863664741127"><ele>890.6666666666667</ele><time>2026-03-29T11:19:42Z</time></trkpt><trkpt lat="41.94462439750137" lon="13.116699543049872"><ele>885.0</ele><time>2026-03-29T11:19:43Z</time></trkpt><trkpt lat="41.94471474115321" lon="13.116529238730514"><ele>880.6666666666667</ele><time>2026-03-29T11:19:44Z</time></trkpt><trkpt lat="41.94479353555316" lon="13.116353253862625"><ele>876.3333333333334</ele><time>2026-03-29T11:19:45Z</time></trkpt><trkpt lat="41.944814995875" lon="13.116147326264631"><ele>872.0</ele><time>2026-03-29T11:19:46Z</time></trkpt><trkpt lat="41.944781623323244" lon="13.115902686138563"><ele>870.3333333333334</ele><time>2026-03-29T11:19:47Z</time></trkpt><trkpt lat="41.94472495772839" lon="13.115638590000948"><ele>868.6666666666667</ele><time>2026-03-29T11:19:48Z</time></trkpt><trkpt lat="41.944678755093264" lon="13.11539280117182"><ele>867.0</ele><time>2026-03-29T11:19:49Z</time></trkpt><trkpt lat="41.94464031851862" lon="13.115166667481699"><ele>867.0</ele><time>2026-03-29T11:19:50Z</time></trkpt><trkpt lat="41.94462529728038" lon="13.114951228296771"><ele>867.0</ele><time>2026-03-29T11:19:51Z</time></trkpt><trkpt lat="41.944598775743394" lon="13.114752289689811"><ele>867.0</ele><time>2026-03-29T11:19:52Z</time></trkpt><trkpt lat="41.94460117090163" lon="13.11454504657849"><ele>863.3333333333333</ele><time>2026-03-29T11:19:53Z</time></trkpt><trkpt lat="41.94463310619293" lon="13.11430494142293"><ele>859.6666666666666</ele><time>2026-03-29T11:19:54Z</time></trkpt><trkpt lat="41.944679690050144" lon="13.11404586704042"><ele>856.0</ele><time>2026-03-29T11:19:55Z</time></trkpt><trkpt lat="41.94472679725299" lon="13.113808540165724"><ele>849.25</ele><time>2026-03-29T11:19:56Z</time></trkpt><trkpt lat="41.944777963904016" lon="13.11361249136214"><ele>842.5</ele><time>2026-03-29T11:19:57Z</time></trkpt><trkpt lat="41.94485632803589" lon="13.113454811352513"><ele>835.75</ele><time>2026-03-29T11:19:58Z</time></trkpt><trkpt lat="41.94495843996989" lon="13.11332942475201"><ele>829.0</ele><time>2026-03-29T11:19:59Z</time></trkpt><trkpt lat="41.94503406971592" lon="13.113235637264285"><ele>824.0</ele><time>2026-03-29T11:20:00Z</time></trkpt><trkpt lat="41.945121972482625" lon="13.113238774390492"><ele>819.0</ele><time>2026-03-29T11:20:01Z</time></trkpt><trkpt lat="41.94521806221467" lon="13.113321547172756"><ele>814.0</ele><time>2026-03-29T11:20:02Z</time></trkpt><trkpt lat="41.94530884969489" lon="13.11344638220869"><ele>809.0</ele><time>2026-03-29T11:20:02.999Z</time></trkpt><trkpt lat="41.94543627367145" lon="13.113546993971438"><ele>809.0</ele><time>2026-03-29T11:20:03.999Z</time></trkpt><trkpt lat="41.94558763164439" lon="13.113657850745966"><ele>809.0</ele><time>2026-03-29T11:20:04.999Z</time></trkpt><trkpt lat="41.945732761837355" lon="13.113775758235766"><ele>809.0</ele><time>2026-03-29T11:20:05.999Z</time></trkpt><trkpt lat="41.94585089175909" lon="13.11390790938828"><ele>811.0</ele><time>2026-03-29T11:20:06.999Z</time></trkpt><trkpt lat="41.94595697837386" lon="13.114022533523274"><ele>813.0</ele><time>2026-03-29T11:20:07.999Z</time></trkpt><trkpt lat="41.946094156483724" lon="13.114117050727353"><ele>815.0</ele><time>2026-03-29T11:20:08.999Z</time></trkpt><trkpt lat="41.946260831661604" lon="13.114136243997917"><ele>815.0</ele><time>2026-03-29T11:20:09.999Z</time></trkpt><trkpt lat="41.9464229520661" lon="13.114168283424327"><ele>815.0</ele><time>2026-03-29T11:20:10.999Z</time></trkpt><trkpt lat="41.94656509977818" lon="13.114204376288573"><ele>815.0</ele><time>2026-03-29T11:20:11.999Z</time></trkpt><trkpt lat="41.946692092219386" lon="13.11424535077349"><ele>815.0</ele><time>2026-03-29T11:20:12.999Z</time></trkpt><trkpt lat="41.94680564317431" lon="13.114323693288503"><ele>811.3333333333334</ele><time>2026-03-29T11:20:13.999Z</time></trkpt><trkpt lat="41.946900310613444" lon="13.114466277351656"><ele>807.6666666666667</ele><time>2026-03-29T11:20:14.999Z</time></trkpt><trkpt lat="41.9470013186437" lon="13.114643133170304"><ele>804.0</ele><time>2026-03-29T11:20:15.999Z</time></trkpt><trkpt lat="41.947085578207805" lon="13.114812018064104"><ele>807.8000000000001</ele><time>2026-03-29T11:20:16.999Z</time></trkpt><trkpt lat="41.94716806340208" lon="13.114940301654668"><ele>811.6</ele><time>2026-03-29T11:20:17.999Z</time></trkpt><trkpt lat="41.94724110924939" lon="13.115033483785995"><ele>815.4</ele><time>2026-03-29T11:20:18.999Z</time></trkpt><trkpt lat="41.94732557537147" lon="13.115092153808929"><ele>819.2</ele><time>2026-03-29T11:20:19.999Z</time></trkpt><trkpt lat="41.94743088892491" lon="13.115115658601866"><ele>823.0</ele><time>2026-03-29T11:20:20.999Z</time></trkpt><trkpt lat="41.947565298970474" lon="13.115042969557358"><ele>823.0</ele><time>2026-03-29T11:20:21.999Z</time></trkpt><trkpt lat="41.94768219915836" lon="13.114919750050923"><ele>823.0</ele><time>2026-03-29T11:20:22.999Z</time></trkpt><trkpt lat="41.9477641317011" lon="13.114763315730627"><ele>823.0</ele><time>2026-03-29T11:20:23.999Z</time></trkpt><trkpt lat="41.94778437297357" lon="13.114618329513222"><ele>823.0</ele><time>2026-03-29T11:20:24.999Z</time></trkpt><trkpt lat="41.947773353698885" lon="13.114495438968767"><ele>823.0</ele><time>2026-03-29T11:20:25.999Z</time></trkpt><trkpt lat="41.947689988080924" lon="13.114380859834638"><ele>823.0</ele><time>2026-03-29T11:20:26.999Z</time></trkpt><trkpt lat="41.94755751711952" lon="13.114348547124171"><ele>823.0</ele><time>2026-03-29T11:20:27.999Z</time></trkpt><trkpt lat="41.947412060771924" lon="13.114332004900085"><ele>823.0</ele><time>2026-03-29T11:20:28.999Z</time></trkpt><trkpt lat="41.94726937047603" lon="13.114316745866203"><ele>818.25</ele><time>2026-03-29T11:20:29.999Z</time></trkpt><trkpt lat="41.94714958977644" lon="13.114250588995025"><ele>813.5</ele><time>2026-03-29T11:20:30.999Z</time></trkpt><trkpt lat="41.94705448585024" lon="13.114143523564573"><ele>808.75</ele><time>2026-03-29T11:20:31.999Z</time></trkpt><trkpt lat="41.94698674511031" lon="13.11398934024804"><ele>804.0</ele><time>2026-03-29T11:20:32.999Z</time></trkpt><trkpt lat="41.94690213572791" lon="13.113869130698996"><ele>802.75</ele><time>2026-03-29T11:20:33.999Z</time></trkpt><trkpt lat="41.94680793363744" lon="13.113776217278481"><ele>801.5</ele><time>2026-03-29T11:20:34.999Z</time></trkpt><trkpt lat="41.946681426357735" lon="13.113756491221796"><ele>800.25</ele><time>2026-03-29T11:20:35.999Z</time></trkpt><trkpt lat="41.946541368829536" lon="13.11378433093448"><ele>799.0</ele><time>2026-03-29T11:20:36.999Z</time></trkpt><trkpt lat="41.94641825534491" lon="13.11371189298649"><ele>795.6666666666666</ele><time>2026-03-29T11:20:37.999Z</time></trkpt><trkpt lat="41.94630366043847" lon="13.113581175524406"><ele>792.3333333333333</ele><time>2026-03-29T11:20:38.999Z</time></trkpt><trkpt lat="41.946171507610906" lon="13.113425424816793"><ele>789.0</ele><time>2026-03-29T11:20:39.999Z</time></trkpt><trkpt lat="41.946028890907456" lon="13.113245008137909"><ele>785.3333333333333</ele><time>2026-03-29T11:20:40.999Z</time></trkpt><trkpt lat="41.9458772199109" lon="13.113046394502845"><ele>781.6666666666666</ele><time>2026-03-29T11:20:41.999Z</time></trkpt><trkpt lat="41.945738094533795" lon="13.112869930978185"><ele>778.0</ele><time>2026-03-29T11:20:42.999Z</time></trkpt><trkpt lat="41.94560924128447" lon="13.112704755598875"><ele>778.0</ele><time>2026-03-29T11:20:43.999Z</time></trkpt><trkpt lat="41.945482571988244" lon="13.112539755772683"><ele>778.0</ele><time>2026-03-29T11:20:44.999Z</time></trkpt><trkpt lat="41.94536545615476" lon="13.112390974006114"><ele>778.0</ele><time>2026-03-29T11:20:45.999Z</time></trkpt><trkpt lat="41.94526039965718" lon="13.1122595934687"><ele>773.75</ele><time>2026-03-29T11:20:46.999Z</time></trkpt><trkpt lat="41.94518245477968" lon="13.112131279598596"><ele>769.5</ele><time>2026-03-29T11:20:47.999Z</time></trkpt><trkpt lat="41.945117854553395" lon="13.111970918756302"><ele>765.25</ele><time>2026-03-29T11:20:48.999Z</time></trkpt><trkpt lat="41.945077551875826" lon="13.111761489438454"><ele>761.0</ele><time>2026-03-29T11:20:49.999Z</time></trkpt><trkpt lat="41.94503779930885" lon="13.111522156484641"><ele>761.0</ele><time>2026-03-29T11:20:50.999Z</time></trkpt><trkpt lat="41.944979460955224" lon="13.111274605049633"><ele>761.0</ele><time>2026-03-29T11:20:51.999Z</time></trkpt><trkpt lat="41.944942890378385" lon="13.111037221126999"><ele>761.0</ele><time>2026-03-29T11:20:52.999Z</time></trkpt><trkpt lat="41.94490973018785" lon="13.110834683101427"><ele>758.5</ele><time>2026-03-29T11:20:53.999Z</time></trkpt><trkpt lat="41.94488615658571" lon="13.110654762930823"><ele>756.0</ele><time>2026-03-29T11:20:54.999Z</time></trkpt><trkpt lat="41.94486245594035" lon="13.110487925700635"><ele>753.5</ele><time>2026-03-29T11:20:55.999Z</time></trkpt><trkpt lat="41.94484187013385" lon="13.11034611714603"><ele>751.0</ele><time>2026-03-29T11:20:56.999Z</time></trkpt><trkpt lat="41.94482194226047" lon="13.110239557508404"><ele>751.0</ele><time>2026-03-29T11:20:57.999Z</time></trkpt><trkpt lat="41.94478180747355" lon="13.110154027163384"><ele>751.0</ele><time>2026-03-29T11:20:58.999Z</time></trkpt><trkpt lat="41.944702087223405" lon="13.110116114388296"><ele>751.0</ele><time>2026-03-29T11:20:59.999Z</time></trkpt><trkpt lat="41.94459079291103" lon="13.11015382249407"><ele>751.0</ele><time>2026-03-29T11:21:00.999Z</time></trkpt><trkpt lat="41.94446405829419" lon="13.110251972366793"><ele>751.0</ele><time>2026-03-29T11:21:01.998Z</time></trkpt><trkpt lat="41.94433969958706" lon="13.110374900982707"><ele>751.0</ele><time>2026-03-29T11:21:02.998Z</time></trkpt><trkpt lat="41.94423339645168" lon="13.11049360322388"><ele>751.0</ele><time>2026-03-29T11:21:03.998Z</time></trkpt><trkpt lat="41.944130319694764" lon="13.110571004181702"><ele>751.0</ele><time>2026-03-29T11:21:04.998Z</time></trkpt><trkpt lat="41.944050502951214" lon="13.110645780976265"><ele>751.0</ele><time>2026-03-29T11:21:05.998Z</time></trkpt><trkpt lat="41.943968139836805" lon="13.110682855682729"><ele>751.0</ele><time>2026-03-29T11:21:06.998Z</time></trkpt><trkpt lat="41.94387265087568" lon="13.110690454706855"><ele>751.0</ele><time>2026-03-29T11:21:07.998Z</time></trkpt><trkpt lat="41.94378964314136" lon="13.110579657123157"><ele>751.0</ele><time>2026-03-29T11:21:08.998Z</time></trkpt><trkpt lat="41.94367770172626" lon="13.110461731470458"><ele>751.0</ele><time>2026-03-29T11:21:09.998Z</time></trkpt><trkpt lat="41.94354698920158" lon="13.110332672926006"><ele>751.0</ele><time>2026-03-29T11:21:10.998Z</time></trkpt><trkpt lat="41.943431634940204" lon="13.110209878315743"><ele>748.25</ele><time>2026-03-29T11:21:11.998Z</time></trkpt><trkpt lat="41.943326751956675" lon="13.110096381192822"><ele>745.5</ele><time>2026-03-29T11:21:12.998Z</time></trkpt><trkpt lat="41.94321827652149" lon="13.11000095452074"><ele>742.75</ele><time>2026-03-29T11:21:13.998Z</time></trkpt><trkpt lat="41.94309513231925" lon="13.109954846197484"><ele>740.0</ele><time>2026-03-29T11:21:14.998Z</time></trkpt><trkpt lat="41.94295642451794" lon="13.10995312050379"><ele>740.0</ele><time>2026-03-29T11:21:15.998Z</time></trkpt><trkpt lat="41.942833365390904" lon="13.10995784766816"><ele>740.0</ele><time>2026-03-29T11:21:16.998Z</time></trkpt><trkpt lat="41.94272286442405" lon="13.109904831307711"><ele>740.0</ele><time>2026-03-29T11:21:17.998Z</time></trkpt><trkpt lat="41.94264286671107" lon="13.109762444375592"><ele>740.0</ele><time>2026-03-29T11:21:18.998Z</time></trkpt><trkpt lat="41.942561973263366" lon="13.109603074765941"><ele>734.3333333333333</ele><time>2026-03-29T11:21:19.998Z</time></trkpt><trkpt lat="41.942492737218004" lon="13.109423905234575"><ele>728.6666666666666</ele><time>2026-03-29T11:21:20.998Z</time></trkpt><trkpt lat="41.942407357472895" lon="13.10924794837109"><ele>723.0</ele><time>2026-03-29T11:21:21.998Z</time></trkpt><trkpt lat="41.94232942812803" lon="13.109060158907777"><ele>721.3333333333334</ele><time>2026-03-29T11:21:22.998Z</time></trkpt><trkpt lat="41.94224838931665" lon="13.108868769239788"><ele>719.6666666666667</ele><time>2026-03-29T11:21:23.998Z</time></trkpt><trkpt lat="41.94216325913899" lon="13.108680487984406"><ele>718.0</ele><time>2026-03-29T11:21:24.998Z</time></trkpt><trkpt lat="41.94207230793592" lon="13.108496947484596"><ele>718.0</ele><time>2026-03-29T11:21:25.998Z</time></trkpt><trkpt lat="41.94201120651913" lon="13.108301709616187"><ele>718.0</ele><time>2026-03-29T11:21:26.998Z</time></trkpt><trkpt lat="41.9419524829924" lon="13.108127648122895"><ele>718.0</ele><time>2026-03-29T11:21:27.998Z</time></trkpt><trkpt lat="41.94191878804404" lon="13.107963073664264"><ele>718.0</ele><time>2026-03-29T11:21:28.998Z</time></trkpt><trkpt lat="41.94191542735662" lon="13.107822267554711"><ele>715.75</ele><time>2026-03-29T11:21:29.998Z</time></trkpt><trkpt lat="41.94189240997346" lon="13.10770531074436"><ele>713.5</ele><time>2026-03-29T11:21:30.998Z</time></trkpt><trkpt lat="41.94184556747601" lon="13.107590865659764"><ele>711.25</ele><time>2026-03-29T11:21:31.998Z</time></trkpt><trkpt lat="41.94173570830249" lon="13.107495523879825"><ele>709.0</ele><time>2026-03-29T11:21:32.998Z</time></trkpt><trkpt lat="41.94159297200061" lon="13.107428041107788"><ele>704.75</ele><time>2026-03-29T11:21:33.998Z</time></trkpt><trkpt lat="41.94145577452549" lon="13.107373366492306"><ele>700.5</ele><time>2026-03-29T11:21:34.998Z</time></trkpt><trkpt lat="41.94134157383056" lon="13.107297784062338"><ele>696.25</ele><time>2026-03-29T11:21:36Z</time></trkpt><trkpt lat="41.94124296187123" lon="13.107207053324746"><ele>692.0</ele><time>2026-03-29T11:21:37Z</time></trkpt><trkpt lat="41.94118503886996" lon="13.107080149586752"><ele>692.0</ele><time>2026-03-29T11:21:38Z</time></trkpt><trkpt lat="41.94114877324133" lon="13.106943902603199"><ele>692.0</ele><time>2026-03-29T11:21:39Z</time></trkpt><trkpt lat="41.941131223496825" lon="13.106779786580871"><ele>692.0</ele><time>2026-03-29T11:21:40Z</time></trkpt><trkpt lat="41.94114939732809" lon="13.106599569426598"><ele>692.0</ele><time>2026-03-29T11:21:41Z</time></trkpt><trkpt lat="41.94118113072644" lon="13.106421910150543"><ele>690.0</ele><time>2026-03-29T11:21:42Z</time></trkpt><trkpt lat="41.94121863265629" lon="13.106267061385653"><ele>688.0</ele><time>2026-03-29T11:21:43Z</time></trkpt><trkpt lat="41.94129550046673" lon="13.106181770802136"><ele>686.0</ele><time>2026-03-29T11:21:44Z</time></trkpt><trkpt lat="41.94133562150726" lon="13.106095619435882"><ele>684.0</ele><time>2026-03-29T11:21:45Z</time></trkpt><trkpt lat="41.9413321943105" lon="13.10594667482166"><ele>682.0</ele><time>2026-03-29T11:21:47Z</time></trkpt><trkpt lat="41.94124110909848" lon="13.105885691730759"><ele>682.0</ele><time>2026-03-29T11:21:48Z</time></trkpt><trkpt lat="41.941134571193814" lon="13.105952353567075"><ele>682.0</ele><time>2026-03-29T11:21:49Z</time></trkpt><trkpt lat="41.941048920606825" lon="13.106063967539878"><ele>682.0</ele><time>2026-03-29T11:21:50Z</time></trkpt><trkpt lat="41.94097317808126" lon="13.106218372001003"><ele>682.0</ele><time>2026-03-29T11:21:51Z</time></trkpt><trkpt lat="41.940894689234725" lon="13.106354256326538"><ele>682.0</ele><time>2026-03-29T11:21:52Z</time></trkpt><trkpt lat="41.94083320589092" lon="13.106484005128927"><ele>682.0</ele><time>2026-03-29T11:21:53Z</time></trkpt><trkpt lat="41.94077486367621" lon="13.106580814794127"><ele>682.0</ele><time>2026-03-29T11:21:54Z</time></trkpt><trkpt lat="41.94073941715473" lon="13.106659392891046"><ele>682.0</ele><time>2026-03-29T11:21:55Z</time></trkpt><trkpt lat="41.9406529292924" lon="13.106706686773718"><ele>682.0</ele><time>2026-03-29T11:21:57Z</time></trkpt><trkpt lat="41.94064638273071" lon="13.106522035391182"><ele>679.75</ele><time>2026-03-29T11:21:59Z</time></trkpt><trkpt lat="41.94067739950223" lon="13.106383998606278"><ele>677.5</ele><time>2026-03-29T11:22:00Z</time></trkpt><trkpt lat="41.940728904315556" lon="13.106214426658173"><ele>675.25</ele><time>2026-03-29T11:22:01Z</time></trkpt><trkpt lat="41.940766372518304" lon="13.106053471366083"><ele>673.0</ele><time>2026-03-29T11:22:02Z</time></trkpt><trkpt lat="41.94080440032589" lon="13.105902715241742"><ele>673.0</ele><time>2026-03-29T11:22:03Z</time></trkpt><trkpt lat="41.94083439189067" lon="13.105763955694494"><ele>673.0</ele><time>2026-03-29T11:22:04Z</time></trkpt><trkpt lat="41.940827595158225" lon="13.105622138909636"><ele>673.0</ele><time>2026-03-29T11:22:05Z</time></trkpt><trkpt lat="41.940758957961656" lon="13.105466064376234"><ele>673.0</ele><time>2026-03-29T11:22:05.999Z</time></trkpt><trkpt lat="41.94064030204324" lon="13.105312102114853"><ele>670.0</ele><time>2026-03-29T11:22:06.999Z</time></trkpt><trkpt lat="41.94051977898844" lon="13.105125093244839"><ele>667.0</ele><time>2026-03-29T11:22:07.999Z</time></trkpt><trkpt lat="41.940392443325976" lon="13.10493324358317"><ele>664.0</ele><time>2026-03-29T11:22:08.999Z</time></trkpt><trkpt lat="41.94025583339996" lon="13.10473580212932"><ele>662.0</ele><time>2026-03-29T11:22:09.999Z</time></trkpt><trkpt lat="41.94011827252534" lon="13.104560862237262"><ele>660.0</ele><time>2026-03-29T11:22:10.999Z</time></trkpt><trkpt lat="41.9400062426946" lon="13.104370072693518"><ele>658.0</ele><time>2026-03-29T11:22:11.999Z</time></trkpt><trkpt lat="41.9399135869721" lon="13.104162439552518"><ele>653.6666666666667</ele><time>2026-03-29T11:22:12.999Z</time></trkpt><trkpt lat="41.939789404644536" lon="13.103994205334587"><ele>649.3333333333334</ele><time>2026-03-29T11:22:13.999Z</time></trkpt><trkpt lat="41.93966142691142" lon="13.10382494175739"><ele>645.0</ele><time>2026-03-29T11:22:14.999Z</time></trkpt><trkpt lat="41.93954039833515" lon="13.103636551063964"><ele>645.0</ele><time>2026-03-29T11:22:15.999Z</time></trkpt><trkpt lat="41.939409562648365" lon="13.10346092593182"><ele>645.0</ele><time>2026-03-29T11:22:16.999Z</time></trkpt><trkpt lat="41.93928140801638" lon="13.103289380615804"><ele>645.0</ele><time>2026-03-29T11:22:17.999Z</time></trkpt><trkpt lat="41.939153147646124" lon="13.103119458817067"><ele>640.6666666666666</ele><time>2026-03-29T11:22:18.999Z</time></trkpt><trkpt lat="41.939005514875355" lon="13.102953354653224"><ele>636.3333333333333</ele><time>2026-03-29T11:22:19.999Z</time></trkpt><trkpt lat="41.93887247469171" lon="13.102771664961574"><ele>632.0</ele><time>2026-03-29T11:22:20.999Z</time></trkpt><trkpt lat="41.93874310054949" lon="13.102596931957118"><ele>632.0</ele><time>2026-03-29T11:22:21.999Z</time></trkpt><trkpt lat="41.93862014412747" lon="13.102431266457842"><ele>632.0</ele><time>2026-03-29T11:22:22.999Z</time></trkpt><trkpt lat="41.93849483843936" lon="13.102276751457103"><ele>632.0</ele><time>2026-03-29T11:22:23.999Z</time></trkpt><trkpt lat="41.938358923585575" lon="13.102143686593182"><ele>628.0</ele><time>2026-03-29T11:22:24.999Z</time></trkpt><trkpt lat="41.938214541220525" lon="13.102030922732121"><ele>624.0</ele><time>2026-03-29T11:22:25.999Z</time></trkpt><trkpt lat="41.93806865350986" lon="13.101932576593418"><ele>620.0</ele><time>2026-03-29T11:22:26.999Z</time></trkpt><trkpt lat="41.93790716493221" lon="13.101851831300067"><ele>620.0</ele><time>2026-03-29T11:22:27.999Z</time></trkpt><trkpt lat="41.93774106899763" lon="13.101784713976564"><ele>620.0</ele><time>2026-03-29T11:22:28.999Z</time></trkpt><trkpt lat="41.93756944139326" lon="13.101722225062508"><ele>620.0</ele><time>2026-03-29T11:22:29.999Z</time></trkpt><trkpt lat="41.93740047535001" lon="13.101650595263502"><ele>616.0</ele><time>2026-03-29T11:22:30.999Z</time></trkpt><trkpt lat="41.93724368951929" lon="13.10157490225528"><ele>612.0</ele><time>2026-03-29T11:22:31.999Z</time></trkpt><trkpt lat="41.9370868951702" lon="13.101507405203257"><ele>608.0</ele><time>2026-03-29T11:22:32.999Z</time></trkpt><trkpt lat="41.93693334040333" lon="13.10146095187078"><ele>608.0</ele><time>2026-03-29T11:22:33.999Z</time></trkpt><trkpt lat="41.93678082828823" lon="13.101430281750957"><ele>608.0</ele><time>2026-03-29T11:22:34.999Z</time></trkpt><trkpt lat="41.93663159319163" lon="13.101409067241049"><ele>608.0</ele><time>2026-03-29T11:22:35.999Z</time></trkpt><trkpt lat="41.93648572819736" lon="13.101384149677804"><ele>605.5</ele><time>2026-03-29T11:22:36.999Z</time></trkpt><trkpt lat="41.93633626086102" lon="13.101337803804265"><ele>603.0</ele><time>2026-03-29T11:22:37.999Z</time></trkpt><trkpt lat="41.93621763708766" lon="13.101228877577608"><ele>600.5</ele><time>2026-03-29T11:22:38.999Z</time></trkpt><trkpt lat="41.93611491119754" lon="13.101105054146494"><ele>598.0</ele><time>2026-03-29T11:22:39.999Z</time></trkpt><trkpt lat="41.936006792671535" lon="13.100952581293894"><ele>594.3333333333334</ele><time>2026-03-29T11:22:40.999Z</time></trkpt><trkpt lat="41.93587601508046" lon="13.10081225415847"><ele>590.6666666666666</ele><time>2026-03-29T11:22:41.999Z</time></trkpt><trkpt lat="41.93576210319875" lon="13.100675757708556"><ele>587.0</ele><time>2026-03-29T11:22:42.999Z</time></trkpt><trkpt lat="41.93565883761089" lon="13.100562934175544"><ele>586.8333333333333</ele><time>2026-03-29T11:22:43.999Z</time></trkpt><trkpt lat="41.93558174991972" lon="13.100481064011442"><ele>586.6666666666666</ele><time>2026-03-29T11:22:44.999Z</time></trkpt><trkpt lat="41.935528042786686" lon="13.100399661645088"><ele>586.5</ele><time>2026-03-29T11:22:45.999Z</time></trkpt><trkpt lat="41.93549637886105" lon="13.10031242424448"><ele>586.3333333333334</ele><time>2026-03-29T11:22:46.999Z</time></trkpt><trkpt lat="41.93547223292287" lon="13.100210497121273"><ele>586.1666666666667</ele><time>2026-03-29T11:22:48.999Z</time></trkpt><trkpt lat="41.935483283535405" lon="13.10010907344672"><ele>586.0</ele><time>2026-03-29T11:22:53.999Z</time></trkpt><trkpt lat="41.935401419725274" lon="13.100086407206005"><ele>586.0</ele><time>2026-03-29T11:22:54.999Z</time></trkpt><trkpt lat="41.93534326650132" lon="13.100042443428693"><ele>586.0</ele><time>2026-03-29T11:22:57.999Z</time></trkpt><trkpt lat="41.935275066619106" lon="13.099932850800501"><ele>586.0</ele><time>2026-03-29T11:23:03.999Z</time></trkpt><trkpt lat="41.935228767621155" lon="13.099858867375005"><ele>586.0</ele><time>2026-03-29T11:23:04.998Z</time></trkpt><trkpt lat="41.93518554519309" lon="13.099751804925164"><ele>586.0</ele><time>2026-03-29T11:23:05.998Z</time></trkpt><trkpt lat="41.93510700935091" lon="13.099642971853012"><ele>586.0</ele><time>2026-03-29T11:23:06.998Z</time></trkpt><trkpt lat="41.93502834161374" lon="13.099536374887707"><ele>583.5</ele><time>2026-03-29T11:23:07.998Z</time></trkpt><trkpt lat="41.934953729867225" lon="13.099405792935768"><ele>581.0</ele><time>2026-03-29T11:23:08.998Z</time></trkpt><trkpt lat="41.934865940092415" lon="13.099270779841792"><ele>578.5</ele><time>2026-03-29T11:23:09.998Z</time></trkpt><trkpt lat="41.934747683153674" lon="13.099108208072236"><ele>576.0</ele><time>2026-03-29T11:23:11.998Z</time></trkpt><trkpt lat="41.93465418787468" lon="13.098944431216742"><ele>572.6666666666666</ele><time>2026-03-29T11:23:12.998Z</time></trkpt><trkpt lat="41.93453493826475" lon="13.098770906138201"><ele>569.3333333333333</ele><time>2026-03-29T11:23:13.998Z</time></trkpt><trkpt lat="41.93441781833812" lon="13.098580772268548"><ele>566.0</ele><time>2026-03-29T11:23:14.998Z</time></trkpt><trkpt lat="41.93428503948436" lon="13.098391389527192"><ele>565.0</ele><time>2026-03-29T11:23:15.998Z</time></trkpt><trkpt lat="41.93414774085541" lon="13.098211239098832"><ele>564.0</ele><time>2026-03-29T11:23:16.998Z</time></trkpt><trkpt lat="41.93400690105675" lon="13.098037882779398"><ele>563.0</ele><time>2026-03-29T11:23:17.998Z</time></trkpt><trkpt lat="41.93387799244051" lon="13.097868978984115"><ele>563.0</ele><time>2026-03-29T11:23:18.998Z</time></trkpt><trkpt lat="41.933759719610705" lon="13.097709247308988"><ele>563.0</ele><time>2026-03-29T11:23:19.998Z</time></trkpt><trkpt lat="41.93365102101297" lon="13.09757619821425"><ele>563.0</ele><time>2026-03-29T11:23:20.998Z</time></trkpt><trkpt lat="41.93354364576793" lon="13.097465879033331"><ele>561.5</ele><time>2026-03-29T11:23:21.998Z</time></trkpt><trkpt lat="41.93340513847523" lon="13.097382286388264"><ele>560.0</ele><time>2026-03-29T11:23:22.998Z</time></trkpt><trkpt lat="41.93325335986036" lon="13.097349771769977"><ele>558.5</ele><time>2026-03-29T11:23:23.998Z</time></trkpt><trkpt lat="41.933113646693855" lon="13.097317968134721"><ele>557.0</ele><time>2026-03-29T11:23:24.998Z</time></trkpt><trkpt lat="41.93301267856223" lon="13.09720996605724"><ele>557.0</ele><time>2026-03-29T11:23:25.998Z</time></trkpt><trkpt lat="41.93290693933326" lon="13.097085539428967"><ele>557.0</ele><time>2026-03-29T11:23:26.998Z</time></trkpt><trkpt lat="41.93281856533296" lon="13.096930327707481"><ele>557.0</ele><time>2026-03-29T11:23:27.998Z</time></trkpt><trkpt lat="41.932721148174195" lon="13.096748323461288"><ele>554.6666666666666</ele><time>2026-03-29T11:23:28.998Z</time></trkpt><trkpt lat="41.932625969876455" lon="13.096570500076746"><ele>552.3333333333334</ele><time>2026-03-29T11:23:29.998Z</time></trkpt><trkpt lat="41.93249598921128" lon="13.096414151928876"><ele>550.0</ele><time>2026-03-29T11:23:30.998Z</time></trkpt><trkpt lat="41.932389925798574" lon="13.096250339353736"><ele>550.0</ele><time>2026-03-29T11:23:31.998Z</time></trkpt><trkpt lat="41.93227382475688" lon="13.096108728778171"><ele>550.0</ele><time>2026-03-29T11:23:32.998Z</time></trkpt><trkpt lat="41.932153469107696" lon="13.09596225527789"><ele>550.0</ele><time>2026-03-29T11:23:33.998Z</time></trkpt><trkpt lat="41.932017026511225" lon="13.095807899970334"><ele>547.6666666666667</ele><time>2026-03-29T11:23:34.998Z</time></trkpt><trkpt lat="41.931875163839145" lon="13.09566142936073"><ele>545.3333333333334</ele><time>2026-03-29T11:23:35.998Z</time></trkpt><trkpt lat="41.931745887876126" lon="13.095528465974496"><ele>543.0</ele><time>2026-03-29T11:23:36.998Z</time></trkpt><trkpt lat="41.93162266756392" lon="13.095394643784127"><ele>543.0</ele><time>2026-03-29T11:23:37.998Z</time></trkpt><trkpt lat="41.93148979369965" lon="13.095285489708969"><ele>543.0</ele><time>2026-03-29T11:23:38.998Z</time></trkpt><trkpt lat="41.93136568166567" lon="13.095172618379424"><ele>543.0</ele><time>2026-03-29T11:23:39.998Z</time></trkpt><trkpt lat="41.931235411116745" lon="13.09506918751821"><ele>543.0</ele><time>2026-03-29T11:23:40.998Z</time></trkpt><trkpt lat="41.93109311232051" lon="13.094977017542242"><ele>543.0</ele><time>2026-03-29T11:23:42Z</time></trkpt><trkpt lat="41.930946994861245" lon="13.09489560409292"><ele>543.0</ele><time>2026-03-29T11:23:43Z</time></trkpt><trkpt lat="41.930815314220965" lon="13.094788962572606"><ele>540.75</ele><time>2026-03-29T11:23:44Z</time></trkpt><trkpt lat="41.93067659839818" lon="13.09470201957965"><ele>538.5</ele><time>2026-03-29T11:23:45Z</time></trkpt><trkpt lat="41.93054316563973" lon="13.09462360905152"><ele>536.25</ele><time>2026-03-29T11:23:46Z</time></trkpt><trkpt lat="41.93041349426906" lon="13.094562229240848"><ele>534.0</ele><time>2026-03-29T11:23:47Z</time></trkpt><trkpt lat="41.930287822206694" lon="13.094535671227266"><ele>534.0</ele><time>2026-03-29T11:23:48Z</time></trkpt><trkpt lat="41.93017550080378" lon="13.094488956606774"><ele>534.0</ele><time>2026-03-29T11:23:49Z</time></trkpt><trkpt lat="41.93007503968907" lon="13.094423587506572"><ele>534.0</ele><time>2026-03-29T11:23:50Z</time></trkpt><trkpt lat="41.92998949840034" lon="13.09433466541443"><ele>534.0</ele><time>2026-03-29T11:23:51Z</time></trkpt><trkpt lat="41.929938194398396" lon="13.094249585088132"><ele>534.0</ele><time>2026-03-29T11:23:52Z</time></trkpt><trkpt lat="41.92994695443159" lon="13.094100646975638"><ele>532.8</ele><time>2026-03-29T11:23:54Z</time></trkpt><trkpt lat="41.93000518720362" lon="13.094006670707413"><ele>531.5999999999999</ele><time>2026-03-29T11:23:55Z</time></trkpt><trkpt lat="41.9300092897367" lon="13.093867272064196"><ele>530.4</ele><time>2026-03-29T11:23:56Z</time></trkpt><trkpt lat="41.93002564959291" lon="13.09372154909366"><ele>529.1999999999999</ele><time>2026-03-29T11:23:57Z</time></trkpt><trkpt lat="41.930031894862616" lon="13.093592926131382"><ele>528.0</ele><time>2026-03-29T11:23:58Z</time></trkpt><trkpt lat="41.93003793966377" lon="13.09346781713983"><ele>528.0</ele><time>2026-03-29T11:23:59Z</time></trkpt><trkpt lat="41.9300581392734" lon="13.093318340948764"><ele>528.0</ele><time>2026-03-29T11:24:00Z</time></trkpt><trkpt lat="41.93009579930788" lon="13.093153658392112"><ele>528.0</ele><time>2026-03-29T11:24:01Z</time></trkpt><trkpt lat="41.93014909061894" lon="13.092983195794293"><ele>528.0</ele><time>2026-03-29T11:24:02Z</time></trkpt><trkpt lat="41.93020406844433" lon="13.092800206941147"><ele>528.0</ele><time>2026-03-29T11:24:03Z</time></trkpt><trkpt lat="41.93025634481524" lon="13.092610618776458"><ele>528.0</ele><time>2026-03-29T11:24:04Z</time></trkpt><trkpt lat="41.93030523931524" lon="13.092417114815028"><ele>528.0</ele><time>2026-03-29T11:24:05Z</time></trkpt><trkpt lat="41.93036655320672" lon="13.092234365643197"><ele>527.0</ele><time>2026-03-29T11:24:06Z</time></trkpt><trkpt lat="41.93039605383655" lon="13.092046048475463"><ele>526.0</ele><time>2026-03-29T11:24:07Z</time></trkpt><trkpt lat="41.93044241629331" lon="13.091886357980824"><ele>525.0</ele><time>2026-03-29T11:24:07.999Z</time></trkpt><trkpt lat="41.93048921917169" lon="13.091739752753087"><ele>524.0</ele><time>2026-03-29T11:24:08.999Z</time></trkpt><trkpt lat="41.93055889318615" lon="13.091602655869204"><ele>522.25</ele><time>2026-03-29T11:24:09.999Z</time></trkpt><trkpt lat="41.930673958859394" lon="13.091500483278013"><ele>520.5</ele><time>2026-03-29T11:24:10.999Z</time></trkpt><trkpt lat="41.930770442860265" lon="13.09136486367828"><ele>518.75</ele><time>2026-03-29T11:24:11.999Z</time></trkpt><trkpt lat="41.93087980826827" lon="13.09124470399222"><ele>517.0</ele><time>2026-03-29T11:24:12.999Z</time></trkpt><trkpt lat="41.930989136929796" lon="13.0911186019961"><ele>516.5</ele><time>2026-03-29T11:24:13.999Z</time></trkpt><trkpt lat="41.93109597541798" lon="13.090998986556231"><ele>516.0</ele><time>2026-03-29T11:24:14.999Z</time></trkpt><trkpt lat="41.93119959861578" lon="13.09089486560888"><ele>515.5</ele><time>2026-03-29T11:24:15.999Z</time></trkpt><trkpt lat="41.93131028240406" lon="13.090817867185322"><ele>515.0</ele><time>2026-03-29T11:24:16.999Z</time></trkpt><trkpt lat="41.931444091459014" lon="13.090783293602986"><ele>515.0</ele><time>2026-03-29T11:24:17.999Z</time></trkpt><trkpt lat="41.93158496727961" lon="13.090784511576539"><ele>515.0</ele><time>2026-03-29T11:24:18.999Z</time></trkpt><trkpt lat="41.931708151715114" lon="13.09084941910265"><ele>515.0</ele><time>2026-03-29T11:24:19.999Z</time></trkpt><trkpt lat="41.931844535788166" lon="13.090895275725028"><ele>515.0</ele><time>2026-03-29T11:24:20.999Z</time></trkpt><trkpt lat="41.93198473846199" lon="13.090955236642875"><ele>512.75</ele><time>2026-03-29T11:24:21.999Z</time></trkpt><trkpt lat="41.932117600154626" lon="13.091008073114804"><ele>510.5</ele><time>2026-03-29T11:24:22.999Z</time></trkpt><trkpt lat="41.932233901219064" lon="13.091051254368589"><ele>508.25</ele><time>2026-03-29T11:24:23.999Z</time></trkpt><trkpt lat="41.932333256008405" lon="13.09108476192832"><ele>506.0</ele><time>2026-03-29T11:24:24.999Z</time></trkpt><trkpt lat="41.93242130164523" lon="13.091105841401365"><ele>506.0</ele><time>2026-03-29T11:24:25.999Z</time></trkpt><trkpt lat="41.93249925035673" lon="13.091098572505274"><ele>506.0</ele><time>2026-03-29T11:24:26.999Z</time></trkpt><trkpt lat="41.932575474356156" lon="13.091043053986361"><ele>506.0</ele><time>2026-03-29T11:24:27.999Z</time></trkpt><trkpt lat="41.93265189420989" lon="13.09092870534942"><ele>506.0</ele><time>2026-03-29T11:24:28.999Z</time></trkpt><trkpt lat="41.93269467404083" lon="13.090780716527442"><ele>506.0</ele><time>2026-03-29T11:24:29.999Z</time></trkpt><trkpt lat="41.93269830995839" lon="13.090617596588801"><ele>508.20000000000005</ele><time>2026-03-29T11:24:30.999Z</time></trkpt><trkpt lat="41.93267749167854" lon="13.090449416808532"><ele>510.40000000000003</ele><time>2026-03-29T11:24:31.999Z</time></trkpt><trkpt lat="41.93266059381042" lon="13.090293308252132"><ele>512.6</ele><time>2026-03-29T11:24:32.999Z</time></trkpt><trkpt lat="41.93266657918209" lon="13.090163296126335"><ele>514.8000000000001</ele><time>2026-03-29T11:24:33.999Z</time></trkpt><trkpt lat="41.93269212838655" lon="13.090025947434912"><ele>517.0</ele><time>2026-03-29T11:24:34.999Z</time></trkpt><trkpt lat="41.932749458755" lon="13.089882843213884"><ele>517.25</ele><time>2026-03-29T11:24:35.999Z</time></trkpt><trkpt lat="41.932798024352195" lon="13.089731429831403"><ele>517.5</ele><time>2026-03-29T11:24:36.999Z</time></trkpt><trkpt lat="41.93283151618865" lon="13.089565028958372"><ele>517.75</ele><time>2026-03-29T11:24:37.999Z</time></trkpt><trkpt lat="41.932874932526914" lon="13.089407784499414"><ele>518.0</ele><time>2026-03-29T11:24:38.999Z</time></trkpt><trkpt lat="41.93292387285449" lon="13.089257909333558"><ele>518.0</ele><time>2026-03-29T11:24:39.999Z</time></trkpt><trkpt lat="41.93293026675198" lon="13.08909326962156"><ele>518.0</ele><time>2026-03-29T11:24:40.999Z</time></trkpt><trkpt lat="41.932968781561954" lon="13.088948531812095"><ele>518.0</ele><time>2026-03-29T11:24:41.999Z</time></trkpt><trkpt lat="41.93302868286429" lon="13.088805696137973"><ele>518.0</ele><time>2026-03-29T11:24:42.999Z</time></trkpt><trkpt lat="41.93310300368867" lon="13.088661036261989"><ele>518.25</ele><time>2026-03-29T11:24:43.999Z</time></trkpt><trkpt lat="41.93319837621389" lon="13.088532630419758"><ele>518.5</ele><time>2026-03-29T11:24:44.999Z</time></trkpt><trkpt lat="41.93328740948038" lon="13.088413445680231"><ele>518.75</ele><time>2026-03-29T11:24:45.999Z</time></trkpt><trkpt lat="41.93337386357293" lon="13.088291907096703"><ele>519.0</ele><time>2026-03-29T11:24:46.999Z</time></trkpt><trkpt lat="41.93347700857608" lon="13.088204935381517"><ele>519.6</ele><time>2026-03-29T11:24:47.999Z</time></trkpt><trkpt lat="41.933568117866244" lon="13.08813792052114"><ele>520.2</ele><time>2026-03-29T11:24:48.999Z</time></trkpt><trkpt lat="41.93363678501506" lon="13.088095257602482"><ele>520.8000000000001</ele><time>2026-03-29T11:24:49.999Z</time></trkpt><trkpt lat="41.93370546049295" lon="13.088048520085218"><ele>521.4</ele><time>2026-03-29T11:24:51.999Z</time></trkpt><trkpt lat="41.93371355785771" lon="13.087837125902123"><ele>522.0</ele><time>2026-03-29T11:24:56.999Z</time></trkpt><trkpt lat="41.93366766010757" lon="13.087720388658393"><ele>522.0</ele><time>2026-03-29T11:24:57.999Z</time></trkpt><trkpt lat="41.933599826085796" lon="13.087590096161076"><ele>522.0</ele><time>2026-03-29T11:24:58.999Z</time></trkpt><trkpt lat="41.933520628854424" lon="13.087433972016314"><ele>522.0</ele><time>2026-03-29T11:24:59.999Z</time></trkpt><trkpt lat="41.93345023726171" lon="13.08724760657483"><ele>522.0</ele><time>2026-03-29T11:25:00.999Z</time></trkpt><trkpt lat="41.93335168548607" lon="13.087080650477565"><ele>520.25</ele><time>2026-03-29T11:25:01.999Z</time></trkpt><trkpt lat="41.93327819904186" lon="13.086918453838964"><ele>518.5</ele><time>2026-03-29T11:25:02.999Z</time></trkpt><trkpt lat="41.93323403046203" lon="13.086750277875646"><ele>516.75</ele><time>2026-03-29T11:25:03.999Z</time></trkpt><trkpt lat="41.93320576553835" lon="13.086585194148414"><ele>515.0</ele><time>2026-03-29T11:25:04.999Z</time></trkpt><trkpt lat="41.93321739148385" lon="13.086391985587893"><ele>513.5</ele><time>2026-03-29T11:25:05.999Z</time></trkpt><trkpt lat="41.933269501122986" lon="13.086202434485934"><ele>512.0</ele><time>2026-03-29T11:25:06.999Z</time></trkpt><trkpt lat="41.933326786428495" lon="13.08602667184088"><ele>510.5</ele><time>2026-03-29T11:25:07.998Z</time></trkpt><trkpt lat="41.933390134702385" lon="13.085871218721206"><ele>509.0</ele><time>2026-03-29T11:25:08.998Z</time></trkpt><trkpt lat="41.93341358896637" lon="13.08571333765831"><ele>504.75</ele><time>2026-03-29T11:25:09.998Z</time></trkpt><trkpt lat="41.933396511216415" lon="13.085548557646948"><ele>500.5</ele><time>2026-03-29T11:25:10.998Z</time></trkpt><trkpt lat="41.9333273036914" lon="13.085384570799423"><ele>496.25</ele><time>2026-03-29T11:25:11.998Z</time></trkpt><trkpt lat="41.9332136828309" lon="13.085272349467653"><ele>492.0</ele><time>2026-03-29T11:25:12.998Z</time></trkpt><trkpt lat="41.93307420607567" lon="13.08523309779238"><ele>492.0</ele><time>2026-03-29T11:25:13.998Z</time></trkpt><trkpt lat="41.932929592204374" lon="13.085260743543397"><ele>492.0</ele><time>2026-03-29T11:25:14.998Z</time></trkpt><trkpt lat="41.93280217128358" lon="13.085356462421514"><ele>492.0</ele><time>2026-03-29T11:25:15.998Z</time></trkpt><trkpt lat="41.9326992182594" lon="13.085477563863106"><ele>492.0</ele><time>2026-03-29T11:25:16.998Z</time></trkpt><trkpt lat="41.93259719749943" lon="13.085566932675407"><ele>491.5</ele><time>2026-03-29T11:25:17.998Z</time></trkpt><trkpt lat="41.93249862374694" lon="13.085654640370645"><ele>491.0</ele><time>2026-03-29T11:25:18.998Z</time></trkpt><trkpt lat="41.932373917986276" lon="13.085652050565123"><ele>490.5</ele><time>2026-03-29T11:25:19.998Z</time></trkpt><trkpt lat="41.932245683849395" lon="13.085626626568416"><ele>490.0</ele><time>2026-03-29T11:25:20.998Z</time></trkpt><trkpt lat="41.93213134222971" lon="13.085490392866758"><ele>490.0</ele><time>2026-03-29T11:25:21.998Z</time></trkpt><trkpt lat="41.93204459541105" lon="13.085297189127882"><ele>490.0</ele><time>2026-03-29T11:25:22.998Z</time></trkpt><trkpt lat="41.93196352130011" lon="13.085101427313532"><ele>490.0</ele><time>2026-03-29T11:25:23.998Z</time></trkpt><trkpt lat="41.93188047302988" lon="13.084928453736076"><ele>489.0</ele><time>2026-03-29T11:25:24.998Z</time></trkpt><trkpt lat="41.931798963252035" lon="13.084790532949548"><ele>488.0</ele><time>2026-03-29T11:25:25.998Z</time></trkpt><trkpt lat="41.9317026765444" lon="13.08468093074702"><ele>487.0</ele><time>2026-03-29T11:25:26.998Z</time></trkpt><trkpt lat="41.931574266403416" lon="13.084592037270701"><ele>486.0</ele><time>2026-03-29T11:25:27.998Z</time></trkpt><trkpt lat="41.931433673074935" lon="13.084543300759513"><ele>486.0</ele><time>2026-03-29T11:25:28.998Z</time></trkpt><trkpt lat="41.93132029909105" lon="13.08448412924609"><ele>486.0</ele><time>2026-03-29T11:25:29.998Z</time></trkpt><trkpt lat="41.931230395752074" lon="13.084359800686501"><ele>486.0</ele><time>2026-03-29T11:25:30.998Z</time></trkpt><trkpt lat="41.9311527342757" lon="13.084174686486755"><ele>486.0</ele><time>2026-03-29T11:25:31.998Z</time></trkpt><trkpt lat="41.931133738806736" lon="13.083970472429545"><ele>480.66666666666663</ele><time>2026-03-29T11:25:32.998Z</time></trkpt><trkpt lat="41.93115458728281" lon="13.083751555546868"><ele>475.3333333333333</ele><time>2026-03-29T11:25:33.998Z</time></trkpt><trkpt lat="41.93118162638412" lon="13.08353752302011"><ele>470.0</ele><time>2026-03-29T11:25:34.998Z</time></trkpt><trkpt lat="41.931198399747345" lon="13.083342523231787"><ele>464.0</ele><time>2026-03-29T11:25:35.998Z</time></trkpt><trkpt lat="41.93119223640023" lon="13.083157080223453"><ele>458.0</ele><time>2026-03-29T11:25:36.998Z</time></trkpt><trkpt lat="41.93114387443795" lon="13.082964897735534"><ele>452.0</ele><time>2026-03-29T11:25:37.998Z</time></trkpt><trkpt lat="41.93106448472443" lon="13.08277139539499"><ele>452.0</ele><time>2026-03-29T11:25:38.998Z</time></trkpt><trkpt lat="41.9309692069196" lon="13.08258773101578"><ele>452.0</ele><time>2026-03-29T11:25:39.998Z</time></trkpt><trkpt lat="41.93088657824538" lon="13.08242977309597"><ele>452.0</ele><time>2026-03-29T11:25:40.998Z</time></trkpt><trkpt lat="41.93082222113044" lon="13.082300599182714"><ele>452.0</ele><time>2026-03-29T11:25:41.998Z</time></trkpt><trkpt lat="41.930772546848786" lon="13.082208400930412"><ele>455.5</ele><time>2026-03-29T11:25:42.998Z</time></trkpt><trkpt lat="41.93074162357164" lon="13.08213033118854"><ele>459.0</ele><time>2026-03-29T11:25:43.998Z</time></trkpt><trkpt lat="41.93055388563562" lon="13.082095065984337"><ele>462.5</ele><time>2026-03-29T11:25:45.998Z</time></trkpt><trkpt lat="41.93044952151463" lon="13.082124084824901"><ele>466.0</ele><time>2026-03-29T11:25:46.998Z</time></trkpt><trkpt lat="41.930356840076264" lon="13.082160345629442"><ele>466.0</ele><time>2026-03-29T11:25:48Z</time></trkpt><trkpt lat="41.93026183605386" lon="13.082221544908116"><ele>466.0</ele><time>2026-03-29T11:25:49Z</time></trkpt><trkpt lat="41.93016543627608" lon="13.082321294818023"><ele>466.0</ele><time>2026-03-29T11:25:50Z</time></trkpt><trkpt lat="41.930088444097606" lon="13.082463708064191"><ele>466.0</ele><time>2026-03-29T11:25:51Z</time></trkpt><trkpt lat="41.93002795505479" lon="13.082629297863129"><ele>467.0</ele><time>2026-03-29T11:25:52Z</time></trkpt><trkpt lat="41.929970626287734" lon="13.082791771204633"><ele>468.0</ele><time>2026-03-29T11:25:53Z</time></trkpt><trkpt lat="41.92991565143712" lon="13.082952298487355"><ele>469.0</ele><time>2026-03-29T11:25:54Z</time></trkpt><trkpt lat="41.92987475177663" lon="13.083126011493759"><ele>470.0</ele><time>2026-03-29T11:25:55Z</time></trkpt><trkpt lat="41.929856465353296" lon="13.083316479129127"><ele>470.0</ele><time>2026-03-29T11:25:56Z</time></trkpt><trkpt lat="41.92985005733797" lon="13.083522316368683"><ele>470.0</ele><time>2026-03-29T11:25:57Z</time></trkpt><trkpt lat="41.92986045675005" lon="13.083730541274985"><ele>470.0</ele><time>2026-03-29T11:25:58Z</time></trkpt><trkpt lat="41.929886710035916" lon="13.083930301472694"><ele>470.0</ele><time>2026-03-29T11:25:59Z</time></trkpt><trkpt lat="41.929908697319284" lon="13.084115323289849"><ele>470.0</ele><time>2026-03-29T11:26:00Z</time></trkpt><trkpt lat="41.92991650042015" lon="13.08428392663994"><ele>470.0</ele><time>2026-03-29T11:26:01Z</time></trkpt><trkpt lat="41.92989047660623" lon="13.084447283401236"><ele>470.0</ele><time>2026-03-29T11:26:02Z</time></trkpt><trkpt lat="41.92979573927969" lon="13.084588256239236"><ele>470.0</ele><time>2026-03-29T11:26:03Z</time></trkpt><trkpt lat="41.929696567005614" lon="13.0847631576257"><ele>470.0</ele><time>2026-03-29T11:26:04Z</time></trkpt><trkpt lat="41.92958924865758" lon="13.084961099413473"><ele>470.0</ele><time>2026-03-29T11:26:05Z</time></trkpt><trkpt lat="41.929478127902804" lon="13.085146090968697"><ele>472.0</ele><time>2026-03-29T11:26:06Z</time></trkpt><trkpt lat="41.92937114440529" lon="13.085316675255054"><ele>474.0</ele><time>2026-03-29T11:26:07Z</time></trkpt><trkpt lat="41.92925753233373" lon="13.08547529526787"><ele>476.0</ele><time>2026-03-29T11:26:07.999Z</time></trkpt><trkpt lat="41.92913286286905" lon="13.085623086908935"><ele>470.66666666666663</ele><time>2026-03-29T11:26:08.999Z</time></trkpt><trkpt lat="41.929009167893085" lon="13.085761390542698"><ele>465.33333333333337</ele><time>2026-03-29T11:26:09.999Z</time></trkpt><trkpt lat="41.92889321874834" lon="13.085894964101566"><ele>460.0</ele><time>2026-03-29T11:26:10.999Z</time></trkpt><trkpt lat="41.928789148982965" lon="13.086018065377079"><ele>460.0</ele><time>2026-03-29T11:26:11.999Z</time></trkpt><trkpt lat="41.92869945945872" lon="13.086142225674594"><ele>460.0</ele><time>2026-03-29T11:26:12.999Z</time></trkpt><trkpt lat="41.928644070712046" lon="13.086288803476707"><ele>460.0</ele><time>2026-03-29T11:26:13.999Z</time></trkpt><trkpt lat="41.92861614745945" lon="13.086448287868803"><ele>460.0</ele><time>2026-03-29T11:26:14.999Z</time></trkpt><trkpt lat="41.92863806965573" lon="13.086607531874469"><ele>458.75</ele><time>2026-03-29T11:26:15.999Z</time></trkpt><trkpt lat="41.92871239836855" lon="13.086752635837515"><ele>457.5</ele><time>2026-03-29T11:26:16.999Z</time></trkpt><trkpt lat="41.928824451504475" lon="13.086846914397706"><ele>456.25</ele><time>2026-03-29T11:26:17.999Z</time></trkpt><trkpt lat="41.928950051121554" lon="13.086917777694147"><ele>455.0</ele><time>2026-03-29T11:26:18.999Z</time></trkpt><trkpt lat="41.92903817881838" lon="13.087005966752539"><ele>455.0</ele><time>2026-03-29T11:26:19.999Z</time></trkpt><trkpt lat="41.92910500994311" lon="13.087080411879109"><ele>455.0</ele><time>2026-03-29T11:26:20.999Z</time></trkpt><trkpt lat="41.92915476321543" lon="13.08719083320611"><ele>455.0</ele><time>2026-03-29T11:26:21.999Z</time></trkpt><trkpt lat="41.929143284926084" lon="13.087343763857325"><ele>455.0</ele><time>2026-03-29T11:26:22.999Z</time></trkpt><trkpt lat="41.929066068954775" lon="13.087498244459955"><ele>455.0</ele><time>2026-03-29T11:26:23.999Z</time></trkpt><trkpt lat="41.928968262650564" lon="13.08756923140123"><ele>453.25</ele><time>2026-03-29T11:26:24.999Z</time></trkpt><trkpt lat="41.92885159326334" lon="13.087644435134193"><ele>451.5</ele><time>2026-03-29T11:26:25.999Z</time></trkpt><trkpt lat="41.92872648585637" lon="13.087740973086557"><ele>449.75</ele><time>2026-03-29T11:26:26.999Z</time></trkpt><trkpt lat="41.928601379560966" lon="13.087867835399585"><ele>448.0</ele><time>2026-03-29T11:26:27.999Z</time></trkpt><trkpt lat="41.92849332623356" lon="13.088002718681462"><ele>448.0</ele><time>2026-03-29T11:26:28.999Z</time></trkpt><trkpt lat="41.92839716663622" lon="13.088158352339345"><ele>448.0</ele><time>2026-03-29T11:26:29.999Z</time></trkpt><trkpt lat="41.92832513915531" lon="13.088320211194521"><ele>448.0</ele><time>2026-03-29T11:26:30.999Z</time></trkpt><trkpt lat="41.92827329623438" lon="13.088495701692597"><ele>448.0</ele><time>2026-03-29T11:26:31.999Z</time></trkpt><trkpt lat="41.92825331405549" lon="13.088677806856174"><ele>448.25</ele><time>2026-03-29T11:26:32.999Z</time></trkpt><trkpt lat="41.92823030397616" lon="13.088847963074036"><ele>448.5</ele><time>2026-03-29T11:26:33.999Z</time></trkpt><trkpt lat="41.92817641453174" lon="13.089004392537014"><ele>448.75</ele><time>2026-03-29T11:26:34.999Z</time></trkpt><trkpt lat="41.92807937688859" lon="13.08911620466105"><ele>449.0</ele><time>2026-03-29T11:26:35.999Z</time></trkpt><trkpt lat="41.9279913494101" lon="13.089207401049102"><ele>449.0</ele><time>2026-03-29T11:26:36.999Z</time></trkpt><trkpt lat="41.92788396915589" lon="13.089232677909369"><ele>449.0</ele><time>2026-03-29T11:26:37.999Z</time></trkpt><trkpt lat="41.92776622030553" lon="13.089217187090455"><ele>449.0</ele><time>2026-03-29T11:26:38.999Z</time></trkpt><trkpt lat="41.92764866612946" lon="13.089128006952"><ele>449.0</ele><time>2026-03-29T11:26:39.999Z</time></trkpt><trkpt lat="41.927522157828484" lon="13.089064114558797"><ele>439.5</ele><time>2026-03-29T11:26:40.999Z</time></trkpt><trkpt lat="41.92740817539013" lon="13.089000904194517"><ele>430.0</ele><time>2026-03-29T11:26:41.999Z</time></trkpt><trkpt lat="41.92728924867684" lon="13.088970223383043"><ele>420.5</ele><time>2026-03-29T11:26:42.999Z</time></trkpt><trkpt lat="41.927168703924686" lon="13.088985667494475"><ele>411.0</ele><time>2026-03-29T11:26:43.999Z</time></trkpt><trkpt lat="41.927049952659665" lon="13.089042559991004"><ele>415.5</ele><time>2026-03-29T11:26:44.999Z</time></trkpt><trkpt lat="41.92695134865988" lon="13.089123236268872"><ele>420.0</ele><time>2026-03-29T11:26:45.999Z</time></trkpt><trkpt lat="41.92687796606354" lon="13.089231357744504"><ele>424.5</ele><time>2026-03-29T11:26:46.999Z</time></trkpt><trkpt lat="41.926838929770405" lon="13.089369000970027"><ele>429.0</ele><time>2026-03-29T11:26:47.999Z</time></trkpt><trkpt lat="41.926833105992976" lon="13.08953859008722"><ele>429.0</ele><time>2026-03-29T11:26:48.999Z</time></trkpt><trkpt lat="41.92683916400711" lon="13.089719546950267"><ele>429.0</ele><time>2026-03-29T11:26:49.999Z</time></trkpt><trkpt lat="41.92683373858848" lon="13.089861641588168"><ele>429.0</ele><time>2026-03-29T11:26:50.999Z</time></trkpt><trkpt lat="41.92678599549662" lon="13.089969869459331"><ele>429.0</ele><time>2026-03-29T11:26:51.999Z</time></trkpt><trkpt lat="41.9267272475367" lon="13.09008802139982"><ele>429.0</ele><time>2026-03-29T11:26:52.999Z</time></trkpt><trkpt lat="41.92659087151522" lon="13.090145039841145"><ele>427.25</ele><time>2026-03-29T11:26:53.999Z</time></trkpt><trkpt lat="41.9264657019207" lon="13.090248947128355"><ele>425.5</ele><time>2026-03-29T11:26:54.999Z</time></trkpt><trkpt lat="41.9263656738875" lon="13.090346516345944"><ele>423.75</ele><time>2026-03-29T11:26:55.999Z</time></trkpt><trkpt lat="41.92629778333518" lon="13.09049416899412"><ele>422.0</ele><time>2026-03-29T11:26:56.999Z</time></trkpt><trkpt lat="41.92623579871143" lon="13.09066250303353"><ele>420.6</ele><time>2026-03-29T11:26:57.999Z</time></trkpt><trkpt lat="41.926156367091295" lon="13.090809005874647"><ele>419.20000000000005</ele><time>2026-03-29T11:26:58.999Z</time></trkpt><trkpt lat="41.92604753709736" lon="13.090884812192408"><ele>417.8</ele><time>2026-03-29T11:26:59.999Z</time></trkpt><trkpt lat="41.925962207499225" lon="13.090974578881065"><ele>416.4</ele><time>2026-03-29T11:27:00.999Z</time></trkpt><trkpt lat="41.925890555465685" lon="13.091029237516924"><ele>415.0</ele><time>2026-03-29T11:27:01.999Z</time></trkpt><trkpt lat="41.9258167082553" lon="13.091182157733863"><ele>415.0</ele><time>2026-03-29T11:27:03.999Z</time></trkpt><trkpt lat="41.925802561572944" lon="13.091304650720891"><ele>415.0</ele><time>2026-03-29T11:27:04.999Z</time></trkpt><trkpt lat="41.9257984724036" lon="13.091443318314985"><ele>415.0</ele><time>2026-03-29T11:27:05.999Z</time></trkpt><trkpt lat="41.92579441664405" lon="13.09156123320821"><ele>415.0</ele><time>2026-03-29T11:27:06.999Z</time></trkpt><trkpt lat="41.9257728292431" lon="13.09165109843788"><ele>415.0</ele><time>2026-03-29T11:27:07.999Z</time></trkpt><trkpt lat="41.9257683468952" lon="13.091801381019861"><ele>415.2</ele><time>2026-03-29T11:27:09.999Z</time></trkpt><trkpt lat="41.92577962385809" lon="13.09195338116848"><ele>415.4</ele><time>2026-03-29T11:27:11.998Z</time></trkpt><trkpt lat="41.92576376559106" lon="13.092119909936175"><ele>415.6</ele><time>2026-03-29T11:27:13.998Z</time></trkpt><trkpt lat="41.92571416602529" lon="13.092263561021397"><ele>415.8</ele><time>2026-03-29T11:27:15.998Z</time></trkpt><trkpt lat="41.925659197944114" lon="13.092333221214036"><ele>416.0</ele><time>2026-03-29T11:27:16.998Z</time></trkpt><trkpt lat="41.9255834524085" lon="13.092392335226053"><ele>417.4</ele><time>2026-03-29T11:27:17.998Z</time></trkpt><trkpt lat="41.92551210169632" lon="13.092468939233171"><ele>418.8</ele><time>2026-03-29T11:27:18.998Z</time></trkpt><trkpt lat="41.92544704830923" lon="13.09255710218817"><ele>420.2</ele><time>2026-03-29T11:27:19.998Z</time></trkpt><trkpt lat="41.92536537843461" lon="13.092634800654007"><ele>421.59999999999997</ele><time>2026-03-29T11:27:20.998Z</time></trkpt><trkpt lat="41.92532681048746" lon="13.092733675765418"><ele>423.0</ele><time>2026-03-29T11:27:21.998Z</time></trkpt><trkpt lat="41.92524790596285" lon="13.092830962226495"><ele>423.0</ele><time>2026-03-29T11:27:22.998Z</time></trkpt><trkpt lat="41.9251650241858" lon="13.092940270595683"><ele>423.0</ele><time>2026-03-29T11:27:23.998Z</time></trkpt><trkpt lat="41.92507801133834" lon="13.093056924211663"><ele>423.0</ele><time>2026-03-29T11:27:24.998Z</time></trkpt><trkpt lat="41.92497702555171" lon="13.093171039039719"><ele>423.0</ele><time>2026-03-29T11:27:25.998Z</time></trkpt><trkpt lat="41.92492011175333" lon="13.093260718313179"><ele>423.1666666666667</ele><time>2026-03-29T11:27:26.998Z</time></trkpt><trkpt lat="41.92486517966771" lon="13.093347492736324"><ele>423.33333333333337</ele><time>2026-03-29T11:27:27.998Z</time></trkpt><trkpt lat="41.924817250547484" lon="13.093442440252664"><ele>423.5</ele><time>2026-03-29T11:27:28.998Z</time></trkpt><trkpt lat="41.92476632053626" lon="13.093514412017793"><ele>423.6666666666667</ele><time>2026-03-29T11:27:29.998Z</time></trkpt><trkpt lat="41.92466358884955" lon="13.093515328782757"><ele>423.83333333333337</ele><time>2026-03-29T11:27:30.998Z</time></trkpt><trkpt lat="41.92461140560139" lon="13.093573593759604"><ele>424.0</ele><time>2026-03-29T11:27:31.998Z</time></trkpt><trkpt lat="41.92455902054242" lon="13.093674468017474"><ele>424.00000000000006</ele><time>2026-03-29T11:27:32.998Z</time></trkpt><trkpt lat="41.92450239121932" lon="13.09379103999164"><ele>424.0</ele><time>2026-03-29T11:27:33.998Z</time></trkpt><trkpt lat="41.92445022833321" lon="13.09389382245573"><ele>424.0</ele><time>2026-03-29T11:27:34.998Z</time></trkpt><trkpt lat="41.924415237150576" lon="13.094000021978715"><ele>424.0</ele><time>2026-03-29T11:27:35.998Z</time></trkpt><trkpt lat="41.92435355365028" lon="13.094091267313422"><ele>424.00000000000006</ele><time>2026-03-29T11:27:37.998Z</time></trkpt><trkpt lat="41.924285436222604" lon="13.094124310425412"><ele>424.0</ele><time>2026-03-29T11:27:39.998Z</time></trkpt><trkpt lat="41.92419658276163" lon="13.094144459143223"><ele>422.1666666666667</ele><time>2026-03-29T11:27:42.998Z</time></trkpt><trkpt lat="41.92412920195654" lon="13.094156244675032"><ele>420.33333333333337</ele><time>2026-03-29T11:27:43.998Z</time></trkpt><trkpt lat="41.924053419155086" lon="13.094176483692298"><ele>418.5</ele><time>2026-03-29T11:27:44.998Z</time></trkpt><trkpt lat="41.923969477813074" lon="13.094186110634933"><ele>416.66666666666663</ele><time>2026-03-29T11:27:46.998Z</time></trkpt><trkpt lat="41.9239578258066" lon="13.094285718941316"><ele>414.8333333333333</ele><time>2026-03-29T11:27:50.998Z</time></trkpt><trkpt lat="41.92396391733413" lon="13.09440409806587"><ele>413.0</ele><time>2026-03-29T11:27:51.998Z</time></trkpt><trkpt lat="41.92396758367661" lon="13.094527654651193"><ele>413.0</ele><time>2026-03-29T11:27:52.998Z</time></trkpt><trkpt lat="41.923962929133296" lon="13.094662835032622"><ele>413.0</ele><time>2026-03-29T11:27:54Z</time></trkpt><trkpt lat="41.92396266216171" lon="13.09481064219235"><ele>413.0</ele><time>2026-03-29T11:27:55Z</time></trkpt><trkpt lat="41.9239602967739" lon="13.094975601543501"><ele>413.0</ele><time>2026-03-29T11:27:55.999Z</time></trkpt><trkpt lat="41.92396356185376" lon="13.095145321162343"><ele>414.5</ele><time>2026-03-29T11:27:57Z</time></trkpt><trkpt lat="41.92396656969069" lon="13.095316122593873"><ele>416.0</ele><time>2026-03-29T11:27:58Z</time></trkpt><trkpt lat="41.923968052592215" lon="13.095483213859056"><ele>417.5</ele><time>2026-03-29T11:27:58.999Z</time></trkpt><trkpt lat="41.9239533239579" lon="13.095645530862674"><ele>419.0</ele><time>2026-03-29T11:28:00Z</time></trkpt><trkpt lat="41.923958907091404" lon="13.095796319374431"><ele>419.4</ele><time>2026-03-29T11:28:01Z</time></trkpt><trkpt lat="41.92397550331908" lon="13.095922403371743"><ele>419.79999999999995</ele><time>2026-03-29T11:28:01.999Z</time></trkpt><trkpt lat="41.92400350685746" lon="13.096017839716906"><ele>420.20000000000005</ele><time>2026-03-29T11:28:03Z</time></trkpt><trkpt lat="41.92401377842918" lon="13.096111908317777"><ele>420.6</ele><time>2026-03-29T11:28:04.999Z</time></trkpt><trkpt lat="41.92414916664813" lon="13.096120255137874"><ele>421.0</ele><time>2026-03-29T11:29:45.998Z</time></trkpt><trkpt lat="41.924149686810324" lon="13.0960187989955"><ele>421.00000000000006</ele><time>2026-03-29T11:29:46.998Z</time></trkpt><trkpt lat="41.9241468273776" lon="13.095915750622604"><ele>421.0</ele><time>2026-03-29T11:29:47.998Z</time></trkpt><trkpt lat="41.924150777880335" lon="13.095826908199786"><ele>421.0</ele><time>2026-03-29T11:29:48.998Z</time></trkpt><trkpt lat="41.92415073876322" lon="13.095736193584326"><ele>421.0</ele><time>2026-03-29T11:29:49.998Z</time></trkpt><trkpt lat="41.92415753012321" lon="13.095633349265178"><ele>421.00000000000006</ele><time>2026-03-29T11:29:50.998Z</time></trkpt><trkpt lat="41.924173505504115" lon="13.095530842604344"><ele>421.0</ele><time>2026-03-29T11:29:51.998Z</time></trkpt><trkpt lat="41.92418587501105" lon="13.095403229242192"><ele>420.7142857142857</ele><time>2026-03-29T11:29:52.998Z</time></trkpt><trkpt lat="41.92419363175821" lon="13.095292242149302"><ele>420.42857142857144</ele><time>2026-03-29T11:29:53.998Z</time></trkpt><trkpt lat="41.92420020257036" lon="13.095195348916851"><ele>420.1428571428571</ele><time>2026-03-29T11:29:54.998Z</time></trkpt><trkpt lat="41.924198464253934" lon="13.095099442706656"><ele>419.8571428571429</ele><time>2026-03-29T11:29:55.998Z</time></trkpt><trkpt lat="41.92420821204235" lon="13.094986076435521"><ele>419.57142857142856</ele><time>2026-03-29T11:29:56.998Z</time></trkpt><trkpt lat="41.92421696219314" lon="13.094895259213178"><ele>419.2857142857143</ele><time>2026-03-29T11:29:57.998Z</time></trkpt><trkpt lat="41.9242251263922" lon="13.094810523551033"><ele>419.0</ele><time>2026-03-29T11:29:58.998Z</time></trkpt><trkpt lat="41.92423534262662" lon="13.094704495055902"><ele>419.8333333333333</ele><time>2026-03-29T11:30:00Z</time></trkpt><trkpt lat="41.924251542396235" lon="13.094597285413922"><ele>420.66666666666663</ele><time>2026-03-29T11:30:01Z</time></trkpt><trkpt lat="41.92426167026806" lon="13.09447068659546"><ele>421.5</ele><time>2026-03-29T11:30:02Z</time></trkpt><trkpt lat="41.92431974995338" lon="13.094352175073979"><ele>422.33333333333337</ele><time>2026-03-29T11:30:03Z</time></trkpt><trkpt lat="41.92429797717406" lon="13.094258209929356"><ele>423.1666666666667</ele><time>2026-03-29T11:30:04Z</time></trkpt><trkpt lat="41.9242899226349" lon="13.09416183086874"><ele>424.0</ele><time>2026-03-29T11:30:05Z</time></trkpt><trkpt lat="41.924282749576015" lon="13.094051628731448"><ele>424.0</ele><time>2026-03-29T11:30:06Z</time></trkpt><trkpt lat="41.92425167080682" lon="13.093941026667041"><ele>424.0</ele><time>2026-03-29T11:30:07Z</time></trkpt><trkpt lat="41.924227169021584" lon="13.093813486785182"><ele>424.0</ele><time>2026-03-29T11:30:08Z</time></trkpt><trkpt lat="41.92425587239793" lon="13.093667028521299"><ele>424.0</ele><time>2026-03-29T11:30:09Z</time></trkpt><trkpt lat="41.924266068373704" lon="13.093531887924918"><ele>424.0</ele><time>2026-03-29T11:30:10Z</time></trkpt><trkpt lat="41.92427784917547" lon="13.093400906306728"><ele>424.00000000000006</ele><time>2026-03-29T11:30:11Z</time></trkpt><trkpt lat="41.92429199016051" lon="13.093272623611961"><ele>424.0</ele><time>2026-03-29T11:30:12Z</time></trkpt><trkpt lat="41.92430050057772" lon="13.093160016684871"><ele>424.0</ele><time>2026-03-29T11:30:13Z</time></trkpt><trkpt lat="41.92430578336826" lon="13.093040176743767"><ele>424.0</ele><time>2026-03-29T11:30:14Z</time></trkpt><trkpt lat="41.924323970707846" lon="13.092929151225006"><ele>424.00000000000006</ele><time>2026-03-29T11:30:15Z</time></trkpt><trkpt lat="41.92432489844686" lon="13.092828709771942"><ele>424.0</ele><time>2026-03-29T11:30:16Z</time></trkpt><trkpt lat="41.92433738424833" lon="13.092736193946854"><ele>422.33333333333337</ele><time>2026-03-29T11:30:17Z</time></trkpt><trkpt lat="41.924342494753205" lon="13.092642545303539"><ele>420.6666666666667</ele><time>2026-03-29T11:30:17.999Z</time></trkpt><trkpt lat="41.92435452382016" lon="13.092548504176785"><ele>419.0</ele><time>2026-03-29T11:30:18.999Z</time></trkpt><trkpt lat="41.9243712331695" lon="13.092423541751316"><ele>417.33333333333337</ele><time>2026-03-29T11:30:19.999Z</time></trkpt><trkpt lat="41.92439364097266" lon="13.092288057180747"><ele>415.6666666666667</ele><time>2026-03-29T11:30:20.999Z</time></trkpt><trkpt lat="41.9244192753812" lon="13.092146086579579"><ele>414.0</ele><time>2026-03-29T11:30:21.999Z</time></trkpt><trkpt lat="41.92445023388317" lon="13.09201646941672"><ele>410.79999999999995</ele><time>2026-03-29T11:30:22.999Z</time></trkpt><trkpt lat="41.924469713188984" lon="13.091880761565216"><ele>407.59999999999997</ele><time>2026-03-29T11:30:23.999Z</time></trkpt><trkpt lat="41.92447164330423" lon="13.091739350486145"><ele>404.4</ele><time>2026-03-29T11:30:24.999Z</time></trkpt><trkpt lat="41.9244449914167" lon="13.09157379252865"><ele>401.2</ele><time>2026-03-29T11:30:25.999Z</time></trkpt><trkpt lat="41.924439517103885" lon="13.091426221036754"><ele>398.0</ele><time>2026-03-29T11:30:26.999Z</time></trkpt><trkpt lat="41.92444732237247" lon="13.091277006389788"><ele>397.66666666666663</ele><time>2026-03-29T11:30:27.999Z</time></trkpt><trkpt lat="41.924453983538484" lon="13.091138184595827"><ele>397.3333333333333</ele><time>2026-03-29T11:30:28.999Z</time></trkpt><trkpt lat="41.92446447725134" lon="13.091007440609605"><ele>397.0</ele><time>2026-03-29T11:30:29.999Z</time></trkpt><trkpt lat="41.92447028121104" lon="13.090893261076621"><ele>396.66666666666663</ele><time>2026-03-29T11:30:30.999Z</time></trkpt><trkpt lat="41.924473120843736" lon="13.090798063826107"><ele>396.3333333333333</ele><time>2026-03-29T11:30:31.999Z</time></trkpt><trkpt lat="41.92447910368325" lon="13.090708563536301"><ele>396.0</ele><time>2026-03-29T11:30:32.999Z</time></trkpt><trkpt lat="41.92448070190412" lon="13.0906222015547"><ele>394.6666666666667</ele><time>2026-03-29T11:30:33.999Z</time></trkpt><trkpt lat="41.9244823092847" lon="13.090482052526069"><ele>393.33333333333337</ele><time>2026-03-29T11:30:35.999Z</time></trkpt><trkpt lat="41.92451206871937" lon="13.090394343952827"><ele>392.0</ele><time>2026-03-29T11:30:42.999Z</time></trkpt><trkpt lat="41.924502367452945" lon="13.09028690217391"><ele>390.6666666666667</ele><time>2026-03-29T11:30:44.999Z</time></trkpt><trkpt lat="41.92451322066468" lon="13.09016566462543"><ele>389.33333333333337</ele><time>2026-03-29T11:30:46.999Z</time></trkpt><trkpt lat="41.92450250375557" lon="13.090077337604898"><ele>388.0</ele><time>2026-03-29T11:30:48.999Z</time></trkpt><trkpt lat="41.92452345300723" lon="13.089994183958117"><ele>388.0</ele><time>2026-03-29T11:30:51.999Z</time></trkpt><trkpt lat="41.92436508596334" lon="13.090031636505772"><ele>388.0</ele><time>2026-03-29T11:30:54.999Z</time></trkpt><trkpt lat="41.92430611843073" lon="13.090097173870504"><ele>388.0</ele><time>2026-03-29T11:30:56.999Z</time></trkpt></trkseg><trkseg><trkpt lat="41.924386615870205" lon="13.090222696803155"><ele>388.00000000000006</ele><time>2026-03-29T12:24:17.626Z</time></trkpt><trkpt lat="41.92433164033522" lon="13.09016977097447"><ele>388.0</ele><time>2026-03-29T12:24:20.626Z</time></trkpt><trkpt lat="41.92426796378289" lon="13.090179720617598"><ele>388.0</ele><time>2026-03-29T12:24:30Z</time></trkpt><trkpt lat="41.92433566827247" lon="13.090196553900848"><ele>388.0</ele><time>2026-03-29T12:24:33Z</time></trkpt><trkpt lat="41.92442489888885" lon="13.09019849535032"><ele>388.00000000000006</ele><time>2026-03-29T12:24:36Z</time></trkpt><trkpt lat="41.924502104605224" lon="13.090168946439825"><ele>388.0</ele><time>2026-03-29T12:24:43Z</time></trkpt><trkpt lat="41.92452991993335" lon="13.090004875624663"><ele>387.2</ele><time>2026-03-29T12:24:45Z</time></trkpt><trkpt lat="41.92453962310135" lon="13.089865950407296"><ele>386.4</ele><time>2026-03-29T12:24:46Z</time></trkpt><trkpt lat="41.92454766566229" lon="13.089727079902634"><ele>385.59999999999997</ele><time>2026-03-29T12:24:47Z</time></trkpt><trkpt lat="41.92455482384942" lon="13.089608281625697"><ele>384.79999999999995</ele><time>2026-03-29T12:24:48Z</time></trkpt><trkpt lat="41.924562024545914" lon="13.089493438376222"><ele>384.0</ele><time>2026-03-29T12:24:49Z</time></trkpt><trkpt lat="41.92455783079199" lon="13.089376145689943"><ele>384.0</ele><time>2026-03-29T12:24:50Z</time></trkpt><trkpt lat="41.924564223478676" lon="13.089264497592358"><ele>384.0</ele><time>2026-03-29T12:24:51Z</time></trkpt><trkpt lat="41.92457255609871" lon="13.08915301980365"><ele>384.0</ele><time>2026-03-29T12:24:52Z</time></trkpt><trkpt lat="41.92457835985275" lon="13.089034830415567"><ele>384.0</ele><time>2026-03-29T12:24:53Z</time></trkpt><trkpt lat="41.924587609643865" lon="13.088909648772864"><ele>384.0</ele><time>2026-03-29T12:24:54Z</time></trkpt><trkpt lat="41.92459752925327" lon="13.088776580594784"><ele>384.0</ele><time>2026-03-29T12:24:55Z</time></trkpt><trkpt lat="41.92460703784051" lon="13.088639497216425"><ele>383.2</ele><time>2026-03-29T12:24:56Z</time></trkpt><trkpt lat="41.924614470935474" lon="13.088509749732735"><ele>382.4</ele><time>2026-03-29T12:24:57Z</time></trkpt><trkpt lat="41.9246240544587" lon="13.088383646720354"><ele>381.6</ele><time>2026-03-29T12:24:58Z</time></trkpt><trkpt lat="41.92462997780583" lon="13.088262842480413"><ele>380.8</ele><time>2026-03-29T12:24:59Z</time></trkpt><trkpt lat="41.9246360805081" lon="13.088133423161148"><ele>380.0</ele><time>2026-03-29T12:25:00Z</time></trkpt><trkpt lat="41.92464353905154" lon="13.088014848941274"><ele>379.2</ele><time>2026-03-29T12:25:01Z</time></trkpt><trkpt lat="41.92465393552705" lon="13.087890862492438"><ele>378.4</ele><time>2026-03-29T12:25:01.999Z</time></trkpt><trkpt lat="41.9246655633227" lon="13.087767908978691"><ele>377.6</ele><time>2026-03-29T12:25:02.999Z</time></trkpt><trkpt lat="41.924676758673094" lon="13.087641099590863"><ele>376.8</ele><time>2026-03-29T12:25:03.999Z</time></trkpt><trkpt lat="41.92468351392031" lon="13.087527009255613"><ele>376.0</ele><time>2026-03-29T12:25:04.999Z</time></trkpt><trkpt lat="41.92468877824732" lon="13.087411605822851"><ele>375.4</ele><time>2026-03-29T12:25:05.999Z</time></trkpt><trkpt lat="41.924697805620475" lon="13.087303849685318"><ele>374.8</ele><time>2026-03-29T12:25:06.999Z</time></trkpt><trkpt lat="41.924709992530545" lon="13.087177076521222"><ele>374.2</ele><time>2026-03-29T12:25:07.999Z</time></trkpt><trkpt lat="41.92471265831587" lon="13.087043085513436"><ele>373.59999999999997</ele><time>2026-03-29T12:25:08.999Z</time></trkpt><trkpt lat="41.924709828704394" lon="13.08687423836642"><ele>373.0</ele><time>2026-03-29T12:25:09.999Z</time></trkpt><trkpt lat="41.924722268378545" lon="13.086679027083694"><ele>372.75</ele><time>2026-03-29T12:25:10.999Z</time></trkpt><trkpt lat="41.92472980558889" lon="13.086524933783295"><ele>372.5</ele><time>2026-03-29T12:25:11.999Z</time></trkpt><trkpt lat="41.924740249911885" lon="13.0863970019938"><ele>372.25</ele><time>2026-03-29T12:25:12.999Z</time></trkpt><trkpt lat="41.924756648571375" lon="13.086270961708928"><ele>372.0</ele><time>2026-03-29T12:25:13.999Z</time></trkpt><trkpt lat="41.92573468372517" lon="13.084542636563638"><ele>370.0</ele><time>2026-03-29T12:26:26.998Z</time></trkpt><trkpt lat="41.92576924369624" lon="13.084469770317174"><ele>368.0</ele><time>2026-03-29T12:27:45.999Z</time></trkpt><trkpt lat="41.92445516977028" lon="13.090747085670545"><ele>375.0</ele><time>2026-03-29T12:29:14.999Z</time></trkpt><trkpt lat="41.9244467477982" lon="13.090905681640985"><ele>382.0</ele><time>2026-03-29T12:29:15.999Z</time></trkpt><trkpt lat="41.924448698683136" lon="13.091083782486796"><ele>389.0</ele><time>2026-03-29T12:29:16.999Z</time></trkpt><trkpt lat="41.924437293309765" lon="13.091271416223078"><ele>396.0</ele><time>2026-03-29T12:29:17.999Z</time></trkpt><trkpt lat="41.92443037868381" lon="13.091439138102329"><ele>396.4</ele><time>2026-03-29T12:29:18.999Z</time></trkpt><trkpt lat="41.92442305627325" lon="13.091597727306551"><ele>396.8</ele><time>2026-03-29T12:29:19.999Z</time></trkpt><trkpt lat="41.92442199222338" lon="13.091745555093"><ele>397.2</ele><time>2026-03-29T12:29:20.999Z</time></trkpt><trkpt lat="41.92441077910346" lon="13.091877296393637"><ele>397.59999999999997</ele><time>2026-03-29T12:29:21.999Z</time></trkpt><trkpt lat="41.92438986201529" lon="13.091987428152112"><ele>398.0</ele><time>2026-03-29T12:29:22.999Z</time></trkpt><trkpt lat="41.924358715860045" lon="13.092102558047067"><ele>398.0</ele><time>2026-03-29T12:29:23.999Z</time></trkpt><trkpt lat="41.92432898999558" lon="13.092348993966795"><ele>398.0</ele><time>2026-03-29T12:29:24.999Z</time></trkpt><trkpt lat="41.924285991366055" lon="13.092539303264639"><ele>398.0</ele><time>2026-03-29T12:29:25.999Z</time></trkpt><trkpt lat="41.924244733254184" lon="13.092730684624952"><ele>396.66666666666663</ele><time>2026-03-29T12:29:26.999Z</time></trkpt><trkpt lat="41.92419807326261" lon="13.09292068628134"><ele>395.33333333333337</ele><time>2026-03-29T12:29:27.999Z</time></trkpt><trkpt lat="41.92414974526487" lon="13.093122718510653"><ele>394.0</ele><time>2026-03-29T12:29:28.999Z</time></trkpt><trkpt lat="41.92409509408215" lon="13.093328845594469"><ele>396.0</ele><time>2026-03-29T12:29:29.999Z</time></trkpt><trkpt lat="41.924049694253824" lon="13.09352196080828"><ele>398.0</ele><time>2026-03-29T12:29:30.999Z</time></trkpt><trkpt lat="41.92400856896928" lon="13.093699948721714"><ele>400.0</ele><time>2026-03-29T12:29:31.999Z</time></trkpt><trkpt lat="41.923987534586665" lon="13.093862952863079"><ele>402.0</ele><time>2026-03-29T12:29:32.999Z</time></trkpt><trkpt lat="41.92395225750119" lon="13.094031350850978"><ele>404.75</ele><time>2026-03-29T12:29:33.999Z</time></trkpt><trkpt lat="41.923917473093546" lon="13.094204208272052"><ele>407.5</ele><time>2026-03-29T12:29:34.999Z</time></trkpt><trkpt lat="41.923913673765696" lon="13.094407683115403"><ele>410.25</ele><time>2026-03-29T12:29:35.999Z</time></trkpt><trkpt lat="41.92391834942235" lon="13.094611709955924"><ele>413.0</ele><time>2026-03-29T12:29:36.999Z</time></trkpt><trkpt lat="41.923920288406215" lon="13.094812218473708"><ele>414.2</ele><time>2026-03-29T12:29:37.999Z</time></trkpt><trkpt lat="41.92392701356136" lon="13.094984695013991"><ele>415.4</ele><time>2026-03-29T12:29:38.999Z</time></trkpt><trkpt lat="41.92393328114667" lon="13.095137093465059"><ele>416.59999999999997</ele><time>2026-03-29T12:29:39.999Z</time></trkpt><trkpt lat="41.923943355907674" lon="13.095254186165398"><ele>417.79999999999995</ele><time>2026-03-29T12:29:40.999Z</time></trkpt><trkpt lat="41.92394683949063" lon="13.095355200793792"><ele>419.0</ele><time>2026-03-29T12:29:41.999Z</time></trkpt><trkpt lat="41.92395602170978" lon="13.095462536883133"><ele>418.99999999999994</ele><time>2026-03-29T12:29:42.999Z</time></trkpt><trkpt lat="41.92396426972517" lon="13.09556619188128"><ele>419.0</ele><time>2026-03-29T12:29:43.999Z</time></trkpt><trkpt lat="41.92397221179823" lon="13.095690587233383"><ele>419.0</ele><time>2026-03-29T12:29:45.999Z</time></trkpt><trkpt lat="41.92398384716435" lon="13.0957824544764"><ele>419.0</ele><time>2026-03-29T12:29:48.999Z</time></trkpt><trkpt lat="41.923989678665976" lon="13.095871379392392"><ele>418.99999999999994</ele><time>2026-03-29T12:29:51.999Z</time></trkpt><trkpt lat="41.92401280590673" lon="13.096001245180277"><ele>419.0</ele><time>2026-03-29T12:29:53.999Z</time></trkpt><trkpt lat="41.92402399655255" lon="13.09613426303031"><ele>419.4</ele><time>2026-03-29T12:29:54.999Z</time></trkpt><trkpt lat="41.92404937771722" lon="13.096224457155948"><ele>419.79999999999995</ele><time>2026-03-29T12:29:55.999Z</time></trkpt><trkpt lat="41.924097433085514" lon="13.096348753900914"><ele>420.20000000000005</ele><time>2026-03-29T12:29:57.999Z</time></trkpt><trkpt lat="41.924140907204254" lon="13.096505811427402"><ele>420.6</ele><time>2026-03-29T12:29:59.999Z</time></trkpt><trkpt lat="41.92421136403106" lon="13.096617650011911"><ele>421.0</ele><time>2026-03-29T12:30:01.999Z</time></trkpt><trkpt lat="41.92429934708343" lon="13.096659549229987"><ele>421.33333333333337</ele><time>2026-03-29T12:30:03.999Z</time></trkpt><trkpt lat="41.924378604783676" lon="13.096628881925481"><ele>421.6666666666667</ele><time>2026-03-29T12:30:05.999Z</time></trkpt><trkpt lat="41.924446399633105" lon="13.096611322970963"><ele>422.0</ele><time>2026-03-29T12:30:07.999Z</time></trkpt><trkpt lat="41.92454131020915" lon="13.096629549431112"><ele>422.33333333333337</ele><time>2026-03-29T12:30:10.999Z</time></trkpt><trkpt lat="41.924577254370206" lon="13.096703143547778"><ele>422.6666666666667</ele><time>2026-03-29T12:30:11.998Z</time></trkpt><trkpt lat="41.924652884981604" lon="13.096789568989385"><ele>423.0</ele><time>2026-03-29T12:30:13.998Z</time></trkpt><trkpt lat="41.92507618300837" lon="13.105149147218615"><ele>423.5</ele><time>2026-03-29T12:31:14.999Z</time></trkpt><trkpt lat="41.924943001554254" lon="13.10519218980763"><ele>424.0</ele><time>2026-03-29T12:31:15.999Z</time></trkpt><trkpt lat="41.92482009379424" lon="13.105217031468072"><ele>424.5</ele><time>2026-03-29T12:31:16.999Z</time></trkpt><trkpt lat="41.92471074084772" lon="13.105229104361245"><ele>425.0</ele><time>2026-03-29T12:31:17.999Z</time></trkpt><trkpt lat="41.92460556389745" lon="13.105229502007198"><ele>425.0</ele><time>2026-03-29T12:31:18.999Z</time></trkpt><trkpt lat="41.924518182962245" lon="13.10521638810957"><ele>425.0</ele><time>2026-03-29T12:31:19.999Z</time></trkpt><trkpt lat="41.924431708589594" lon="13.105217219594927"><ele>425.0</ele><time>2026-03-29T12:31:20.999Z</time></trkpt><trkpt lat="41.924339109861535" lon="13.105240968599732"><ele>425.0</ele><time>2026-03-29T12:31:21.999Z</time></trkpt><trkpt lat="41.92422607273559" lon="13.10528787867431"><ele>425.0</ele><time>2026-03-29T12:31:22.999Z</time></trkpt><trkpt lat="41.924135587354144" lon="13.105355508442022"><ele>424.2</ele><time>2026-03-29T12:31:23.999Z</time></trkpt><trkpt lat="41.92406227899471" lon="13.105421405164062"><ele>423.4</ele><time>2026-03-29T12:31:24.999Z</time></trkpt><trkpt lat="41.92399465665397" lon="13.105460870263913"><ele>422.6</ele><time>2026-03-29T12:31:25.999Z</time></trkpt><trkpt lat="41.92387752155982" lon="13.105531565817499"><ele>421.8</ele><time>2026-03-29T12:31:27.999Z</time></trkpt><trkpt lat="41.92380365970687" lon="13.105570195959412"><ele>421.0</ele><time>2026-03-29T12:31:28.999Z</time></trkpt><trkpt lat="41.92370317426684" lon="13.105595253368351"><ele>421.0</ele><time>2026-03-29T12:31:29.999Z</time></trkpt><trkpt lat="41.92360058563736" lon="13.105655716979845"><ele>421.0</ele><time>2026-03-29T12:31:30.999Z</time></trkpt><trkpt lat="41.92349505975357" lon="13.105728111953455"><ele>421.0</ele><time>2026-03-29T12:31:31.999Z</time></trkpt><trkpt lat="41.92339901151872" lon="13.105798638306076"><ele>421.0</ele><time>2026-03-29T12:31:32.999Z</time></trkpt><trkpt lat="41.92332598959008" lon="13.105854425931414"><ele>421.0</ele><time>2026-03-29T12:31:33.999Z</time></trkpt><trkpt lat="41.92327069493325" lon="13.105915868183498"><ele>424.25</ele><time>2026-03-29T12:31:34.999Z</time></trkpt><trkpt lat="41.92317351854483" lon="13.105973427519258"><ele>427.5</ele><time>2026-03-29T12:31:35.999Z</time></trkpt><trkpt lat="41.923068725455785" lon="13.106046822679241"><ele>430.75</ele><time>2026-03-29T12:31:36.999Z</time></trkpt><trkpt lat="41.92295391884132" lon="13.106123965015822"><ele>434.0</ele><time>2026-03-29T12:31:37.999Z</time></trkpt><trkpt lat="41.92280365139122" lon="13.106195421358464"><ele>434.0</ele><time>2026-03-29T12:31:38.999Z</time></trkpt><trkpt lat="41.922615908611775" lon="13.106279359027548"><ele>434.0</ele><time>2026-03-29T12:31:39.999Z</time></trkpt><trkpt lat="41.92241144737264" lon="13.10632723103378"><ele>434.0</ele><time>2026-03-29T12:31:40.999Z</time></trkpt><trkpt lat="41.922225001388824" lon="13.106411570048468"><ele>432.0</ele><time>2026-03-29T12:31:41.999Z</time></trkpt><trkpt lat="41.92205347372576" lon="13.10646166672906"><ele>430.0</ele><time>2026-03-29T12:31:42.999Z</time></trkpt><trkpt lat="41.92191264294792" lon="13.106507334513164"><ele>428.0</ele><time>2026-03-29T12:31:43.999Z</time></trkpt><trkpt lat="41.921787163716616" lon="13.106564150618587"><ele>433.66666666666663</ele><time>2026-03-29T12:31:44.999Z</time></trkpt><trkpt lat="41.921642998303604" lon="13.106608477407834"><ele>439.33333333333337</ele><time>2026-03-29T12:31:45.999Z</time></trkpt><trkpt lat="41.9214982645286" lon="13.10667066499437"><ele>445.0</ele><time>2026-03-29T12:31:46.999Z</time></trkpt><trkpt lat="41.921350979591786" lon="13.106748161789907"><ele>445.0</ele><time>2026-03-29T12:31:47.999Z</time></trkpt><trkpt lat="41.92120047601448" lon="13.106843920678504"><ele>445.0</ele><time>2026-03-29T12:31:48.999Z</time></trkpt><trkpt lat="41.92104089569485" lon="13.106968980267492"><ele>445.0</ele><time>2026-03-29T12:31:49.999Z</time></trkpt><trkpt lat="41.92089677218851" lon="13.107098529152816"><ele>440.0</ele><time>2026-03-29T12:31:50.999Z</time></trkpt><trkpt lat="41.92078414469141" lon="13.107195379506878"><ele>435.0</ele><time>2026-03-29T12:31:51.999Z</time></trkpt><trkpt lat="41.9206664385489" lon="13.10722613728624"><ele>430.0</ele><time>2026-03-29T12:31:52.999Z</time></trkpt><trkpt lat="41.92056788904902" lon="13.107259122229623"><ele>425.0</ele><time>2026-03-29T12:31:53.999Z</time></trkpt><trkpt lat="41.920476609905535" lon="13.107293855081524"><ele>424.99999999999994</ele><time>2026-03-29T12:31:54.999Z</time></trkpt><trkpt lat="41.920394836814474" lon="13.107286189904094"><ele>425.0</ele><time>2026-03-29T12:31:55.999Z</time></trkpt><trkpt lat="41.920316169417944" lon="13.1072914800951"><ele>425.0</ele><time>2026-03-29T12:31:56.999Z</time></trkpt><trkpt lat="41.920234993178305" lon="13.10729550908046"><ele>425.0</ele><time>2026-03-29T12:31:57.999Z</time></trkpt><trkpt lat="41.920143720169406" lon="13.107340898588511"><ele>424.99999999999994</ele><time>2026-03-29T12:31:58.999Z</time></trkpt><trkpt lat="41.92006505818244" lon="13.107403545502597"><ele>425.0</ele><time>2026-03-29T12:31:59.999Z</time></trkpt><trkpt lat="41.91996494454953" lon="13.10741529027584"><ele>434.0</ele><time>2026-03-29T12:32:00.999Z</time></trkpt><trkpt lat="41.919848701166536" lon="13.107415339753587"><ele>443.0</ele><time>2026-03-29T12:32:01.999Z</time></trkpt><trkpt lat="41.91970934275761" lon="13.107421182008055"><ele>452.0</ele><time>2026-03-29T12:32:02.999Z</time></trkpt><trkpt lat="41.919565895515774" lon="13.107427700822706"><ele>461.0</ele><time>2026-03-29T12:32:03.999Z</time></trkpt><trkpt lat="41.91944537605726" lon="13.107428039009466"><ele>461.0</ele><time>2026-03-29T12:32:04.999Z</time></trkpt><trkpt lat="41.919350635559006" lon="13.10743735123999"><ele>461.0</ele><time>2026-03-29T12:32:05.999Z</time></trkpt><trkpt lat="41.91925914998065" lon="13.107419486012486"><ele>461.0</ele><time>2026-03-29T12:32:06.999Z</time></trkpt><trkpt lat="41.91917965451558" lon="13.107364713894547"><ele>461.0</ele><time>2026-03-29T12:32:07.998Z</time></trkpt><trkpt lat="41.919102656287706" lon="13.107299190589593"><ele>461.0</ele><time>2026-03-29T12:32:08.998Z</time></trkpt><trkpt lat="41.919034680520184" lon="13.107214794338923"><ele>459.6</ele><time>2026-03-29T12:32:09.998Z</time></trkpt><trkpt lat="41.918987214851114" lon="13.107097427237072"><ele>458.20000000000005</ele><time>2026-03-29T12:32:10.998Z</time></trkpt><trkpt lat="41.91891770708359" lon="13.107017784859284"><ele>456.79999999999995</ele><time>2026-03-29T12:32:11.998Z</time></trkpt><trkpt lat="41.91882192379442" lon="13.106973142822316"><ele>455.4</ele><time>2026-03-29T12:32:12.998Z</time></trkpt><trkpt lat="41.918691593032726" lon="13.106984276435385"><ele>454.0</ele><time>2026-03-29T12:32:13.998Z</time></trkpt><trkpt lat="41.91922123600174" lon="13.107927908193245"><ele>456.33333333333337</ele><time>2026-03-29T12:33:14.999Z</time></trkpt><trkpt lat="41.919391992090304" lon="13.108028079821754"><ele>458.66666666666663</ele><time>2026-03-29T12:33:15.999Z</time></trkpt><trkpt lat="41.919566031454686" lon="13.108114278191529"><ele>461.0</ele><time>2026-03-29T12:33:16.999Z</time></trkpt><trkpt lat="41.91973456565637" lon="13.10820263578018"><ele>472.66666666666663</ele><time>2026-03-29T12:33:17.999Z</time></trkpt><trkpt lat="41.91988895618471" lon="13.108275680044482"><ele>484.33333333333337</ele><time>2026-03-29T12:33:18.999Z</time></trkpt><trkpt lat="41.920045200794284" lon="13.108329026633793"><ele>496.0</ele><time>2026-03-29T12:33:19.999Z</time></trkpt><trkpt lat="41.920203079894705" lon="13.10837020477592"><ele>496.0</ele><time>2026-03-29T12:33:20.999Z</time></trkpt><trkpt lat="41.92033815931832" lon="13.108373957032383"><ele>496.0</ele><time>2026-03-29T12:33:21.999Z</time></trkpt><trkpt lat="41.92045352551488" lon="13.108358358796087"><ele>496.0</ele><time>2026-03-29T12:33:22.999Z</time></trkpt><trkpt lat="41.920547181704194" lon="13.108343547942725"><ele>496.0</ele><time>2026-03-29T12:33:23.999Z</time></trkpt><trkpt lat="41.92062177737902" lon="13.10834773746039"><ele>496.0</ele><time>2026-03-29T12:33:24.999Z</time></trkpt><trkpt lat="41.920684728931114" lon="13.108409686980819"><ele>496.0</ele><time>2026-03-29T12:33:25.999Z</time></trkpt><trkpt lat="41.92070992252622" lon="13.108517667408478"><ele>496.0</ele><time>2026-03-29T12:33:26.999Z</time></trkpt><trkpt lat="41.920675541239575" lon="13.108634951661228"><ele>496.0</ele><time>2026-03-29T12:33:27.999Z</time></trkpt><trkpt lat="41.920573430502266" lon="13.108723509690845"><ele>496.0</ele><time>2026-03-29T12:33:28.999Z</time></trkpt><trkpt lat="41.92043675108555" lon="13.108709697536472"><ele>496.0</ele><time>2026-03-29T12:33:29.999Z</time></trkpt><trkpt lat="41.92032644032459" lon="13.10877475481378"><ele>496.0</ele><time>2026-03-29T12:33:30.999Z</time></trkpt><trkpt lat="41.92018344909011" lon="13.108822851532814"><ele>496.0</ele><time>2026-03-29T12:33:31.999Z</time></trkpt><trkpt lat="41.920032118659975" lon="13.10891961449203"><ele>496.0</ele><time>2026-03-29T12:33:32.999Z</time></trkpt><trkpt lat="41.919889011687424" lon="13.109047189083633"><ele>502.6666666666667</ele><time>2026-03-29T12:33:33.999Z</time></trkpt><trkpt lat="41.91975582634695" lon="13.10917061134766"><ele>509.33333333333337</ele><time>2026-03-29T12:33:34.999Z</time></trkpt><trkpt lat="41.919623356364745" lon="13.109296658143185"><ele>516.0</ele><time>2026-03-29T12:33:35.999Z</time></trkpt><trkpt lat="41.919514172145824" lon="13.109399594455008"><ele>516.0</ele><time>2026-03-29T12:33:36.999Z</time></trkpt><trkpt lat="41.91943521643759" lon="13.109521565508954"><ele>516.0</ele><time>2026-03-29T12:33:37.999Z</time></trkpt><trkpt lat="41.91933122243327" lon="13.109591113663557"><ele>516.0</ele><time>2026-03-29T12:33:38.999Z</time></trkpt><trkpt lat="41.91922370199733" lon="13.109630781470296"><ele>516.0</ele><time>2026-03-29T12:33:39.999Z</time></trkpt><trkpt lat="41.919122395426655" lon="13.109661179731733"><ele>515.25</ele><time>2026-03-29T12:33:40.999Z</time></trkpt><trkpt lat="41.91902335350704" lon="13.109715033876762"><ele>514.5</ele><time>2026-03-29T12:33:41.999Z</time></trkpt><trkpt lat="41.91894662919436" lon="13.1098376090633"><ele>513.75</ele><time>2026-03-29T12:33:42.999Z</time></trkpt><trkpt lat="41.91891023930368" lon="13.110006335828393"><ele>513.0</ele><time>2026-03-29T12:33:43.999Z</time></trkpt><trkpt lat="41.91886389570817" lon="13.110165576002583"><ele>516.5</ele><time>2026-03-29T12:33:44.999Z</time></trkpt><trkpt lat="41.91880376453098" lon="13.11032589881816"><ele>520.0</ele><time>2026-03-29T12:33:45.999Z</time></trkpt><trkpt lat="41.91873484592931" lon="13.110474226645161"><ele>523.5</ele><time>2026-03-29T12:33:46.999Z</time></trkpt><trkpt lat="41.918669480071046" lon="13.110632403902976"><ele>527.0</ele><time>2026-03-29T12:33:47.999Z</time></trkpt><trkpt lat="41.91861737183638" lon="13.110782233937991"><ele>529.25</ele><time>2026-03-29T12:33:48.999Z</time></trkpt><trkpt lat="41.91855747762051" lon="13.110970079352198"><ele>531.5</ele><time>2026-03-29T12:33:49.999Z</time></trkpt><trkpt lat="41.918505872024" lon="13.11113257065726"><ele>533.75</ele><time>2026-03-29T12:33:50.999Z</time></trkpt><trkpt lat="41.91847699670306" lon="13.111298618111224"><ele>536.0</ele><time>2026-03-29T12:33:51.999Z</time></trkpt><trkpt lat="41.91845724797424" lon="13.11149541158783"><ele>536.5</ele><time>2026-03-29T12:33:52.999Z</time></trkpt><trkpt lat="41.91845175907124" lon="13.11165477995415"><ele>537.0</ele><time>2026-03-29T12:33:53.999Z</time></trkpt><trkpt lat="41.91845833519254" lon="13.111819856366674"><ele>537.5</ele><time>2026-03-29T12:33:54.999Z</time></trkpt><trkpt lat="41.91847764822827" lon="13.111977032723187"><ele>538.0</ele><time>2026-03-29T12:33:55.999Z</time></trkpt><trkpt lat="41.91852700019682" lon="13.112134393346162"><ele>538.0</ele><time>2026-03-29T12:33:56.999Z</time></trkpt><trkpt lat="41.91861358878073" lon="13.112273735647154"><ele>538.0</ele><time>2026-03-29T12:33:57.999Z</time></trkpt><trkpt lat="41.918688961110526" lon="13.112391028981037"><ele>538.0</ele><time>2026-03-29T12:33:58.999Z</time></trkpt><trkpt lat="41.91874301153379" lon="13.112499431015936"><ele>538.0</ele><time>2026-03-29T12:33:59.999Z</time></trkpt><trkpt lat="41.918784626970016" lon="13.112616324974585"><ele>538.0</ele><time>2026-03-29T12:34:00.999Z</time></trkpt><trkpt lat="41.918791541593265" lon="13.112730502952544"><ele>538.5</ele><time>2026-03-29T12:34:01.999Z</time></trkpt><trkpt lat="41.91877181533198" lon="13.112824386017"><ele>539.0</ele><time>2026-03-29T12:34:02.999Z</time></trkpt><trkpt lat="41.9187040471583" lon="13.112877248520823"><ele>539.5</ele><time>2026-03-29T12:34:03.999Z</time></trkpt><trkpt lat="41.91861152014066" lon="13.112841907786201"><ele>540.0</ele><time>2026-03-29T12:34:04.999Z</time></trkpt><trkpt lat="41.91856309016841" lon="13.112777565738284"><ele>540.5</ele><time>2026-03-29T12:34:05.999Z</time></trkpt><trkpt lat="41.91855219983156" lon="13.112675819884812"><ele>541.0</ele><time>2026-03-29T12:34:06.999Z</time></trkpt><trkpt lat="41.91852820497014" lon="13.112572690925589"><ele>541.0</ele><time>2026-03-29T12:34:07.999Z</time></trkpt><trkpt lat="41.918504646523125" lon="13.11243658033636"><ele>541.0</ele><time>2026-03-29T12:34:08.999Z</time></trkpt><trkpt lat="41.91844231723143" lon="13.11223838830128"><ele>541.0</ele><time>2026-03-29T12:34:09.999Z</time></trkpt><trkpt lat="41.91835211474781" lon="13.112044925820742"><ele>541.0</ele><time>2026-03-29T12:34:10.999Z</time></trkpt><trkpt lat="41.91826518601988" lon="13.111869639505313"><ele>538.3333333333334</ele><time>2026-03-29T12:34:11.999Z</time></trkpt><trkpt lat="41.91816833019585" lon="13.111730276045288"><ele>535.6666666666666</ele><time>2026-03-29T12:34:12.999Z</time></trkpt><trkpt lat="41.91807273302921" lon="13.111636114020659"><ele>533.0</ele><time>2026-03-29T12:34:13.999Z</time></trkpt><trkpt lat="41.914119133343746" lon="13.121244803791193"><ele>548.0</ele><time>2026-03-29T12:35:15Z</time></trkpt><trkpt lat="41.91402896922073" lon="13.12143433795292"><ele>563.0</ele><time>2026-03-29T12:35:16Z</time></trkpt><trkpt lat="41.91393979978702" lon="13.12158731093897"><ele>578.0</ele><time>2026-03-29T12:35:17Z</time></trkpt><trkpt lat="41.91384456672892" lon="13.121740735395775"><ele>586.75</ele><time>2026-03-29T12:35:17.999Z</time></trkpt><trkpt lat="41.91375338488893" lon="13.121896819716014"><ele>595.5</ele><time>2026-03-29T12:35:18.999Z</time></trkpt><trkpt lat="41.91366023323103" lon="13.122030776537335"><ele>604.25</ele><time>2026-03-29T12:35:19.999Z</time></trkpt><trkpt lat="41.9135986257244" lon="13.122197698195597"><ele>613.0</ele><time>2026-03-29T12:35:20.999Z</time></trkpt><trkpt lat="41.91356641352321" lon="13.12240330631876"><ele>619.75</ele><time>2026-03-29T12:35:21.999Z</time></trkpt><trkpt lat="41.91350551542521" lon="13.122599500898279"><ele>626.5</ele><time>2026-03-29T12:35:22.999Z</time></trkpt><trkpt lat="41.91343917569852" lon="13.122774209041582"><ele>633.25</ele><time>2026-03-29T12:35:23.999Z</time></trkpt><trkpt lat="41.91338646047535" lon="13.122940697806154"><ele>640.0</ele><time>2026-03-29T12:35:24.999Z</time></trkpt><trkpt lat="41.91333766239527" lon="13.123139123216996"><ele>626.0</ele><time>2026-03-29T12:35:25.999Z</time></trkpt><trkpt lat="41.91334407612672" lon="13.123368987931945"><ele>612.0</ele><time>2026-03-29T12:35:26.999Z</time></trkpt><trkpt lat="41.91336185464258" lon="13.123578667897158"><ele>598.0</ele><time>2026-03-29T12:35:27.999Z</time></trkpt><trkpt lat="41.91332015945744" lon="13.123746520110775"><ele>598.0</ele><time>2026-03-29T12:35:28.999Z</time></trkpt><trkpt lat="41.91325009569166" lon="13.123909521797001"><ele>598.0</ele><time>2026-03-29T12:35:29.999Z</time></trkpt><trkpt lat="41.913142693167146" lon="13.12405120587799"><ele>598.0</ele><time>2026-03-29T12:35:30.999Z</time></trkpt><trkpt lat="41.91302215452988" lon="13.124193043972731"><ele>609.6666666666667</ele><time>2026-03-29T12:35:31.999Z</time></trkpt><trkpt lat="41.91291931280779" lon="13.12435178270508"><ele>621.3333333333334</ele><time>2026-03-29T12:35:32.999Z</time></trkpt><trkpt lat="41.91281345546947" lon="13.12451644150423"><ele>633.0</ele><time>2026-03-29T12:35:33.999Z</time></trkpt><trkpt lat="41.912737097661136" lon="13.124705207228544"><ele>633.0</ele><time>2026-03-29T12:35:34.999Z</time></trkpt><trkpt lat="41.912680930139885" lon="13.124869571113267"><ele>633.0</ele><time>2026-03-29T12:35:35.999Z</time></trkpt><trkpt lat="41.91264947995019" lon="13.125024290002937"><ele>633.0</ele><time>2026-03-29T12:35:36.999Z</time></trkpt><trkpt lat="41.912648209933515" lon="13.125156766170889"><ele>633.0</ele><time>2026-03-29T12:35:37.999Z</time></trkpt><trkpt lat="41.912672789781745" lon="13.12523668782681"><ele>633.0</ele><time>2026-03-29T12:35:38.999Z</time></trkpt><trkpt lat="41.91272742208556" lon="13.125287271695115"><ele>633.0</ele><time>2026-03-29T12:35:39.999Z</time></trkpt><trkpt lat="41.91280519228137" lon="13.12527852051413"><ele>633.0</ele><time>2026-03-29T12:35:40.999Z</time></trkpt><trkpt lat="41.91284573098645" lon="13.125189928866753"><ele>633.0</ele><time>2026-03-29T12:35:41.999Z</time></trkpt><trkpt lat="41.91284743136888" lon="13.125072206920796"><ele>633.0</ele><time>2026-03-29T12:35:42.999Z</time></trkpt><trkpt lat="41.91281647288014" lon="13.124926952111586"><ele>633.0</ele><time>2026-03-29T12:35:43.999Z</time></trkpt><trkpt lat="41.91282939929823" lon="13.124795612220504"><ele>633.0</ele><time>2026-03-29T12:35:44.999Z</time></trkpt><trkpt lat="41.91290314912682" lon="13.124671705464971"><ele>633.0</ele><time>2026-03-29T12:35:45.999Z</time></trkpt><trkpt lat="41.91301782796567" lon="13.124564074269006"><ele>633.0</ele><time>2026-03-29T12:35:46.999Z</time></trkpt><trkpt lat="41.91314231232191" lon="13.124424840904965"><ele>633.0</ele><time>2026-03-29T12:35:47.999Z</time></trkpt><trkpt lat="41.913288476211356" lon="13.124289326735376"><ele>640.5</ele><time>2026-03-29T12:35:48.999Z</time></trkpt><trkpt lat="41.913405593574105" lon="13.124165395206536"><ele>648.0</ele><time>2026-03-29T12:35:49.999Z</time></trkpt><trkpt lat="41.913495501502226" lon="13.124047351523759"><ele>655.5</ele><time>2026-03-29T12:35:50.999Z</time></trkpt><trkpt lat="41.91357989533785" lon="13.123872914657142"><ele>663.0</ele><time>2026-03-29T12:35:51.999Z</time></trkpt><trkpt lat="41.91364451402732" lon="13.123659791283211"><ele>663.0</ele><time>2026-03-29T12:35:52.999Z</time></trkpt><trkpt lat="41.91371763727391" lon="13.123457938094543"><ele>663.0</ele><time>2026-03-29T12:35:53.999Z</time></trkpt><trkpt lat="41.913771512235684" lon="13.1232556633726"><ele>663.0</ele><time>2026-03-29T12:35:54.999Z</time></trkpt><trkpt lat="41.91383834654262" lon="13.123088549838071"><ele>655.3333333333334</ele><time>2026-03-29T12:35:55.999Z</time></trkpt><trkpt lat="41.91393031168279" lon="13.122921883688862"><ele>647.6666666666667</ele><time>2026-03-29T12:35:56.999Z</time></trkpt><trkpt lat="41.91402301695943" lon="13.122725882133365"><ele>640.0</ele><time>2026-03-29T12:35:57.999Z</time></trkpt><trkpt lat="41.91415683673614" lon="13.122551233449956"><ele>644.0</ele><time>2026-03-29T12:35:58.999Z</time></trkpt><trkpt lat="41.9143098926193" lon="13.122364235826433"><ele>648.0</ele><time>2026-03-29T12:35:59.999Z</time></trkpt><trkpt lat="41.914470822040904" lon="13.122161662348985"><ele>652.0</ele><time>2026-03-29T12:36:00.999Z</time></trkpt><trkpt lat="41.9146471200965" lon="13.121924318561625"><ele>652.0</ele><time>2026-03-29T12:36:01.999Z</time></trkpt><trkpt lat="41.914811158414054" lon="13.12171334647977"><ele>652.0</ele><time>2026-03-29T12:36:02.999Z</time></trkpt><trkpt lat="41.914949754640304" lon="13.121528943884195"><ele>652.0</ele><time>2026-03-29T12:36:03.999Z</time></trkpt><trkpt lat="41.9150800291835" lon="13.121365055399286"><ele>654.6</ele><time>2026-03-29T12:36:04.999Z</time></trkpt><trkpt lat="41.91519481124845" lon="13.121224933141407"><ele>657.2</ele><time>2026-03-29T12:36:05.999Z</time></trkpt><trkpt lat="41.91528043921344" lon="13.121120630705713"><ele>659.8</ele><time>2026-03-29T12:36:06.999Z</time></trkpt><trkpt lat="41.915358748333894" lon="13.121063817594658"><ele>662.4</ele><time>2026-03-29T12:36:07.999Z</time></trkpt><trkpt lat="41.915417965920426" lon="13.121002002884552"><ele>665.0</ele><time>2026-03-29T12:36:08.999Z</time></trkpt><trkpt lat="41.91547732446957" lon="13.120956394885365"><ele>665.0</ele><time>2026-03-29T12:36:09.999Z</time></trkpt><trkpt lat="41.915549305300864" lon="13.120954715351358"><ele>665.0</ele><time>2026-03-29T12:36:10.999Z</time></trkpt><trkpt lat="41.91560120326093" lon="13.121023924439392"><ele>665.0</ele><time>2026-03-29T12:36:11.999Z</time></trkpt><trkpt lat="41.91552091690313" lon="13.121168395364752"><ele>665.0</ele><time>2026-03-29T12:36:13.999Z</time></trkpt><trkpt lat="41.913043871713846" lon="13.13220976673686"><ele>681.5</ele><time>2026-03-29T12:37:15Z</time></trkpt><trkpt lat="41.9130990408356" lon="13.132314936130486"><ele>698.0</ele><time>2026-03-29T12:37:16Z</time></trkpt><trkpt lat="41.91313488521593" lon="13.13241805030886"><ele>714.5</ele><time>2026-03-29T12:37:17Z</time></trkpt><trkpt lat="41.91314135905484" lon="13.132569106295774"><ele>731.0</ele><time>2026-03-29T12:37:18Z</time></trkpt><trkpt lat="41.91316249198062" lon="13.132794395506092"><ele>731.0</ele><time>2026-03-29T12:37:19Z</time></trkpt><trkpt lat="41.913189261583184" lon="13.132999015206376"><ele>731.0</ele><time>2026-03-29T12:37:20Z</time></trkpt><trkpt lat="41.91319234240262" lon="13.133156409883162"><ele>731.0</ele><time>2026-03-29T12:37:21Z</time></trkpt><trkpt lat="41.91316694314672" lon="13.133306094283988"><ele>731.0</ele><time>2026-03-29T12:37:22Z</time></trkpt><trkpt lat="41.91305284847549" lon="13.133429094860327"><ele>736.25</ele><time>2026-03-29T12:37:23Z</time></trkpt><trkpt lat="41.91293721340731" lon="13.133593542021185"><ele>741.5</ele><time>2026-03-29T12:37:24Z</time></trkpt><trkpt lat="41.91287212015433" lon="13.13375878751425"><ele>746.75</ele><time>2026-03-29T12:37:25Z</time></trkpt><trkpt lat="41.91283457271275" lon="13.133923176837799"><ele>752.0</ele><time>2026-03-29T12:37:26Z</time></trkpt><trkpt lat="41.912841840294924" lon="13.134108153738982"><ele>752.0</ele><time>2026-03-29T12:37:27Z</time></trkpt><trkpt lat="41.912862566070984" lon="13.134304612501964"><ele>752.0</ele><time>2026-03-29T12:37:28Z</time></trkpt><trkpt lat="41.912818105202554" lon="13.13447197502635"><ele>752.0</ele><time>2026-03-29T12:37:29Z</time></trkpt><trkpt lat="41.91272413588835" lon="13.13457886752136"><ele>752.0</ele><time>2026-03-29T12:37:30Z</time></trkpt><trkpt lat="41.91265959139366" lon="13.134694992484711"><ele>752.0</ele><time>2026-03-29T12:37:30.999Z</time></trkpt><trkpt lat="41.91259645896275" lon="13.134786399800346"><ele>752.0</ele><time>2026-03-29T12:37:31.999Z</time></trkpt><trkpt lat="41.91256927816169" lon="13.134918691508355"><ele>752.0</ele><time>2026-03-29T12:37:32.999Z</time></trkpt><trkpt lat="41.9125872178959" lon="13.13511596496075"><ele>752.0</ele><time>2026-03-29T12:37:33.999Z</time></trkpt><trkpt lat="41.912595306306656" lon="13.135321232479589"><ele>750.6666666666666</ele><time>2026-03-29T12:37:34.999Z</time></trkpt><trkpt lat="41.91258278261962" lon="13.135517431331504"><ele>749.3333333333334</ele><time>2026-03-29T12:37:35.999Z</time></trkpt><trkpt lat="41.91255923305881" lon="13.135721446803583"><ele>748.0</ele><time>2026-03-29T12:37:36.999Z</time></trkpt><trkpt lat="41.91253670474808" lon="13.1359286909946"><ele>748.0</ele><time>2026-03-29T12:37:37.999Z</time></trkpt><trkpt lat="41.91246915578032" lon="13.136219202114752"><ele>748.0</ele><time>2026-03-29T12:37:38.999Z</time></trkpt><trkpt lat="41.912395939343824" lon="13.136357461898097"><ele>748.0</ele><time>2026-03-29T12:37:39.999Z</time></trkpt><trkpt lat="41.9123008755958" lon="13.136513899857295"><ele>752.5</ele><time>2026-03-29T12:37:40.999Z</time></trkpt><trkpt lat="41.912179971729095" lon="13.13667270323817"><ele>757.0</ele><time>2026-03-29T12:37:41.999Z</time></trkpt><trkpt lat="41.912086356026286" lon="13.136811115431215"><ele>761.5</ele><time>2026-03-29T12:37:43.999Z</time></trkpt><trkpt lat="41.911996439911334" lon="13.136949639037727"><ele>766.0</ele><time>2026-03-29T12:37:44.999Z</time></trkpt><trkpt lat="41.9119065542197" lon="13.13707858453777"><ele>766.0</ele><time>2026-03-29T12:37:45.999Z</time></trkpt><trkpt lat="41.911812734114626" lon="13.13720149049308"><ele>766.0</ele><time>2026-03-29T12:37:46.999Z</time></trkpt><trkpt lat="41.91169586035497" lon="13.137292699692175"><ele>766.0</ele><time>2026-03-29T12:37:47.999Z</time></trkpt><trkpt lat="41.911585293394936" lon="13.137341042198694"><ele>766.0</ele><time>2026-03-29T12:37:48.999Z</time></trkpt><trkpt lat="41.911343443247794" lon="13.137386585523094"><ele>763.5</ele><time>2026-03-29T12:37:49.999Z</time></trkpt><trkpt lat="41.91118863606413" lon="13.13747025951507"><ele>761.0</ele><time>2026-03-29T12:37:50.999Z</time></trkpt><trkpt lat="41.911057941970064" lon="13.13756745192079"><ele>758.5</ele><time>2026-03-29T12:37:51.999Z</time></trkpt><trkpt lat="41.91096684374027" lon="13.137660712334965"><ele>756.0</ele><time>2026-03-29T12:37:52.999Z</time></trkpt><trkpt lat="41.9108875949098" lon="13.137755690147708"><ele>749.75</ele><time>2026-03-29T12:37:53.999Z</time></trkpt><trkpt lat="41.91083138458621" lon="13.137864498020821"><ele>743.5</ele><time>2026-03-29T12:37:54.999Z</time></trkpt><trkpt lat="41.91081183856995" lon="13.138013223949706"><ele>737.25</ele><time>2026-03-29T12:37:55.999Z</time></trkpt><trkpt lat="41.91085402687627" lon="13.138191570852388"><ele>731.0</ele><time>2026-03-29T12:37:56.999Z</time></trkpt><trkpt lat="41.91090446726052" lon="13.138396307060338"><ele>749.6666666666666</ele><time>2026-03-29T12:37:57.999Z</time></trkpt><trkpt lat="41.91095925237188" lon="13.138649827255275"><ele>768.3333333333333</ele><time>2026-03-29T12:37:58.999Z</time></trkpt><trkpt lat="41.9110204701638" lon="13.138850621961476"><ele>787.0</ele><time>2026-03-29T12:37:59.999Z</time></trkpt><trkpt lat="41.91105713558772" lon="13.139022092659133"><ele>790.3333333333333</ele><time>2026-03-29T12:38:00.999Z</time></trkpt><trkpt lat="41.911032357856634" lon="13.139207470958642"><ele>793.6666666666667</ele><time>2026-03-29T12:38:01.999Z</time></trkpt><trkpt lat="41.91101175317707" lon="13.139419159278418"><ele>797.0</ele><time>2026-03-29T12:38:02.999Z</time></trkpt><trkpt lat="41.911014676320505" lon="13.139628052271538"><ele>797.0</ele><time>2026-03-29T12:38:03.999Z</time></trkpt><trkpt lat="41.91103683451624" lon="13.139840380468709"><ele>797.0</ele><time>2026-03-29T12:38:04.999Z</time></trkpt><trkpt lat="41.911072366991405" lon="13.140045225941545"><ele>797.0</ele><time>2026-03-29T12:38:05.999Z</time></trkpt><trkpt lat="41.91110645674685" lon="13.140263990359404"><ele>797.5</ele><time>2026-03-29T12:38:06.999Z</time></trkpt><trkpt lat="41.91113391430805" lon="13.140448126812533"><ele>798.0</ele><time>2026-03-29T12:38:07.999Z</time></trkpt><trkpt lat="41.91116758541889" lon="13.140617393219708"><ele>798.5</ele><time>2026-03-29T12:38:08.999Z</time></trkpt><trkpt lat="41.91123660551861" lon="13.140797174409531"><ele>799.0</ele><time>2026-03-29T12:38:09.999Z</time></trkpt><trkpt lat="41.91132118076727" lon="13.140945731783564"><ele>798.5</ele><time>2026-03-29T12:38:10.999Z</time></trkpt><trkpt lat="41.911388344736565" lon="13.141078391788977"><ele>798.0</ele><time>2026-03-29T12:38:11.999Z</time></trkpt><trkpt lat="41.9114069259391" lon="13.141230529357951"><ele>797.5</ele><time>2026-03-29T12:38:12.999Z</time></trkpt><trkpt lat="41.9113929187994" lon="13.141359236265691"><ele>797.0</ele><time>2026-03-29T12:38:13.999Z</time></trkpt><trkpt lat="41.91218635369903" lon="13.147986035833462"><ele>797.0</ele><time>2026-03-29T12:39:15Z</time></trkpt><trkpt lat="41.91218953527985" lon="13.148152719705674"><ele>797.0</ele><time>2026-03-29T12:39:16Z</time></trkpt><trkpt lat="41.91216523988192" lon="13.148294623629674"><ele>797.0</ele><time>2026-03-29T12:39:17Z</time></trkpt><trkpt lat="41.91214636465891" lon="13.148413926074475"><ele>797.0</ele><time>2026-03-29T12:39:18Z</time></trkpt><trkpt lat="41.91203333495125" lon="13.14846259799306"><ele>797.0</ele><time>2026-03-29T12:39:19Z</time></trkpt><trkpt lat="41.91192681975331" lon="13.148560188505309"><ele>798.6</ele><time>2026-03-29T12:39:20Z</time></trkpt><trkpt lat="41.91184410712101" lon="13.148654649436978"><ele>800.2</ele><time>2026-03-29T12:39:21Z</time></trkpt><trkpt lat="41.911768652791075" lon="13.14873360609939"><ele>801.8</ele><time>2026-03-29T12:39:22Z</time></trkpt><trkpt lat="41.911713126243356" lon="13.148844065449465"><ele>803.4</ele><time>2026-03-29T12:39:23Z</time></trkpt><trkpt lat="41.91168662550319" lon="13.148972914372045"><ele>805.0</ele><time>2026-03-29T12:39:24Z</time></trkpt><trkpt lat="41.911684833275956" lon="13.149097798399835"><ele>802.5714285714286</ele><time>2026-03-29T12:39:25Z</time></trkpt><trkpt lat="41.91168890452223" lon="13.149192076760663"><ele>800.1428571428571</ele><time>2026-03-29T12:39:26Z</time></trkpt><trkpt lat="41.91166360407016" lon="13.149280812057647"><ele>797.7142857142858</ele><time>2026-03-29T12:39:27Z</time></trkpt><trkpt lat="41.91163735095633" lon="13.149363912378156"><ele>795.2857142857142</ele><time>2026-03-29T12:39:28Z</time></trkpt><trkpt lat="41.911594395926535" lon="13.149435586112226"><ele>792.8571428571429</ele><time>2026-03-29T12:39:29Z</time></trkpt><trkpt lat="41.911523982856586" lon="13.149449901066433"><ele>790.4285714285714</ele><time>2026-03-29T12:39:30Z</time></trkpt><trkpt lat="41.911450374164716" lon="13.149407667910953"><ele>788.0</ele><time>2026-03-29T12:39:31Z</time></trkpt><trkpt lat="41.911381011317175" lon="13.149349806096538"><ele>788.0000000000001</ele><time>2026-03-29T12:39:32Z</time></trkpt><trkpt lat="41.911310812284164" lon="13.149296939765291"><ele>788.0</ele><time>2026-03-29T12:39:33Z</time></trkpt><trkpt lat="41.91124144651945" lon="13.149253253887442"><ele>788.0</ele><time>2026-03-29T12:39:34Z</time></trkpt><trkpt lat="41.91115262483108" lon="13.14922790052606"><ele>788.0</ele><time>2026-03-29T12:39:35Z</time></trkpt><trkpt lat="41.911088846837416" lon="13.149222316109464"><ele>788.0000000000001</ele><time>2026-03-29T12:39:36Z</time></trkpt><trkpt lat="41.91099243503503" lon="13.149235152173128"><ele>788.0</ele><time>2026-03-29T12:39:37Z</time></trkpt><trkpt lat="41.91086367640971" lon="13.149231705717368"><ele>787.3333333333334</ele><time>2026-03-29T12:39:38Z</time></trkpt><trkpt lat="41.91071565741068" lon="13.149248827523595"><ele>786.6666666666667</ele><time>2026-03-29T12:39:39Z</time></trkpt><trkpt lat="41.910549338249815" lon="13.149273972313036"><ele>786.0</ele><time>2026-03-29T12:39:39.999Z</time></trkpt><trkpt lat="41.91036159907193" lon="13.14929828153439"><ele>786.0</ele><time>2026-03-29T12:39:40.999Z</time></trkpt><trkpt lat="41.910152836352765" lon="13.149318851087518"><ele>786.0</ele><time>2026-03-29T12:39:41.999Z</time></trkpt><trkpt lat="41.90994158003091" lon="13.149326641261077"><ele>786.0</ele><time>2026-03-29T12:39:42.999Z</time></trkpt><trkpt lat="41.90974975231394" lon="13.149341284719245"><ele>786.75</ele><time>2026-03-29T12:39:43.999Z</time></trkpt><trkpt lat="41.909572934463796" lon="13.149365012040308"><ele>787.5</ele><time>2026-03-29T12:39:44.999Z</time></trkpt><trkpt lat="41.90942255628964" lon="13.149399024949375"><ele>788.25</ele><time>2026-03-29T12:39:45.999Z</time></trkpt><trkpt lat="41.9093038795457" lon="13.149407971512831"><ele>789.0</ele><time>2026-03-29T12:39:46.999Z</time></trkpt><trkpt lat="41.90918654368198" lon="13.149356307970333"><ele>791.3333333333333</ele><time>2026-03-29T12:39:47.999Z</time></trkpt><trkpt lat="41.90902297988806" lon="13.149275189500083"><ele>793.6666666666666</ele><time>2026-03-29T12:39:48.999Z</time></trkpt><trkpt lat="41.90883036772656" lon="13.149204090964814"><ele>796.0</ele><time>2026-03-29T12:39:49.999Z</time></trkpt><trkpt lat="41.90864601524144" lon="13.149148741214336"><ele>796.0</ele><time>2026-03-29T12:39:50.999Z</time></trkpt><trkpt lat="41.90845913034654" lon="13.149093285707933"><ele>796.0</ele><time>2026-03-29T12:39:51.999Z</time></trkpt><trkpt lat="41.908281178098086" lon="13.149021746965856"><ele>796.0</ele><time>2026-03-29T12:39:52.999Z</time></trkpt><trkpt lat="41.90812768470319" lon="13.148932462358504"><ele>788.75</ele><time>2026-03-29T12:39:53.999Z</time></trkpt><trkpt lat="41.90799443338808" lon="13.148893516305964"><ele>781.5</ele><time>2026-03-29T12:39:54.999Z</time></trkpt><trkpt lat="41.907851736109116" lon="13.148866551425392"><ele>774.25</ele><time>2026-03-29T12:39:55.999Z</time></trkpt><trkpt lat="41.907712899320266" lon="13.148841635871666"><ele>767.0</ele><time>2026-03-29T12:39:56.999Z</time></trkpt><trkpt lat="41.90760830092805" lon="13.148857000702769"><ele>768.75</ele><time>2026-03-29T12:39:57.999Z</time></trkpt><trkpt lat="41.907517751622194" lon="13.148928671926718"><ele>770.5</ele><time>2026-03-29T12:39:58.999Z</time></trkpt><trkpt lat="41.907444967835325" lon="13.149035522003443"><ele>772.25</ele><time>2026-03-29T12:39:59.999Z</time></trkpt><trkpt lat="41.90743153169707" lon="13.149222231504822"><ele>774.0</ele><time>2026-03-29T12:40:00.999Z</time></trkpt><trkpt lat="41.90743818419861" lon="13.149433305371126"><ele>783.3333333333333</ele><time>2026-03-29T12:40:01.999Z</time></trkpt><trkpt lat="41.907451188887755" lon="13.14965596821522"><ele>792.6666666666666</ele><time>2026-03-29T12:40:02.999Z</time></trkpt><trkpt lat="41.90748591062405" lon="13.149909097393497"><ele>802.0</ele><time>2026-03-29T12:40:03.999Z</time></trkpt><trkpt lat="41.90754046051905" lon="13.150187241345224"><ele>804.3333333333333</ele><time>2026-03-29T12:40:04.999Z</time></trkpt><trkpt lat="41.90757373433905" lon="13.150411470722808"><ele>806.6666666666667</ele><time>2026-03-29T12:40:05.999Z</time></trkpt><trkpt lat="41.90761502379516" lon="13.150585961030831"><ele>809.0</ele><time>2026-03-29T12:40:06.999Z</time></trkpt><trkpt lat="41.907687082523914" lon="13.150761293971033"><ele>823.3333333333334</ele><time>2026-03-29T12:40:07.999Z</time></trkpt><trkpt lat="41.90781063619712" lon="13.150946267842963"><ele>837.6666666666667</ele><time>2026-03-29T12:40:08.999Z</time></trkpt><trkpt lat="41.907924914180576" lon="13.15113301570144"><ele>852.0</ele><time>2026-03-29T12:40:09.999Z</time></trkpt><trkpt lat="41.908006772945924" lon="13.151311320967546"><ele>852.0</ele><time>2026-03-29T12:40:10.999Z</time></trkpt><trkpt lat="41.90806131747656" lon="13.151489097344335"><ele>852.0</ele><time>2026-03-29T12:40:11.999Z</time></trkpt><trkpt lat="41.90808593717257" lon="13.151671332465286"><ele>852.0</ele><time>2026-03-29T12:40:12.999Z</time></trkpt><trkpt lat="41.90809148047515" lon="13.151869031688038"><ele>852.0</ele><time>2026-03-29T12:40:13.999Z</time></trkpt><trkpt lat="41.904730820699335" lon="13.158848160420115"><ele>853.75</ele><time>2026-03-29T12:41:15Z</time></trkpt><trkpt lat="41.90463134297244" lon="13.158952908024192"><ele>855.5</ele><time>2026-03-29T12:41:16Z</time></trkpt><trkpt lat="41.90449364020974" lon="13.1589440007333"><ele>857.25</ele><time>2026-03-29T12:41:17Z</time></trkpt><trkpt lat="41.90435580382683" lon="13.158977081592655"><ele>859.0</ele><time>2026-03-29T12:41:18Z</time></trkpt><trkpt lat="41.904248678115785" lon="13.159015734645859"><ele>854.0</ele><time>2026-03-29T12:41:19Z</time></trkpt><trkpt lat="41.90411827327195" lon="13.159051305270491"><ele>849.0</ele><time>2026-03-29T12:41:20Z</time></trkpt><trkpt lat="41.90397097105431" lon="13.159072729099265"><ele>844.0</ele><time>2026-03-29T12:41:21Z</time></trkpt><trkpt lat="41.903840301130685" lon="13.159003251388175"><ele>839.0</ele><time>2026-03-29T12:41:22Z</time></trkpt><trkpt lat="41.903697035235616" lon="13.15889269429923"><ele>839.0</ele><time>2026-03-29T12:41:23Z</time></trkpt><trkpt lat="41.90355131433544" lon="13.158783595671807"><ele>839.0</ele><time>2026-03-29T12:41:24Z</time></trkpt><trkpt lat="41.903450913385385" lon="13.158685257109202"><ele>839.0</ele><time>2026-03-29T12:41:25Z</time></trkpt><trkpt lat="41.9033797626455" lon="13.158585978134955"><ele>839.0</ele><time>2026-03-29T12:41:26Z</time></trkpt><trkpt lat="41.90332033441016" lon="13.158453601614411"><ele>840.25</ele><time>2026-03-29T12:41:27Z</time></trkpt><trkpt lat="41.903286209705406" lon="13.158282561610774"><ele>841.5</ele><time>2026-03-29T12:41:28Z</time></trkpt><trkpt lat="41.903193307374515" lon="13.158170872036436"><ele>842.75</ele><time>2026-03-29T12:41:29Z</time></trkpt><trkpt lat="41.90307497876544" lon="13.15806462776467"><ele>844.0</ele><time>2026-03-29T12:41:30Z</time></trkpt><trkpt lat="41.90289028752228" lon="13.158006210640044"><ele>844.0</ele><time>2026-03-29T12:41:31Z</time></trkpt><trkpt lat="41.902728189295885" lon="13.157886031952302"><ele>844.0</ele><time>2026-03-29T12:41:32Z</time></trkpt><trkpt lat="41.90257010236296" lon="13.15777771017513"><ele>844.0</ele><time>2026-03-29T12:41:33Z</time></trkpt><trkpt lat="41.90239019146239" lon="13.157652157023444"><ele>839.3333333333333</ele><time>2026-03-29T12:41:34Z</time></trkpt><trkpt lat="41.90220288172429" lon="13.15750531515102"><ele>834.6666666666667</ele><time>2026-03-29T12:41:35Z</time></trkpt><trkpt lat="41.9020363819944" lon="13.1573452983433"><ele>830.0</ele><time>2026-03-29T12:41:36Z</time></trkpt><trkpt lat="41.901889323826296" lon="13.157206880559908"><ele>830.0</ele><time>2026-03-29T12:41:37Z</time></trkpt><trkpt lat="41.90178926440578" lon="13.157115481570155"><ele>830.0</ele><time>2026-03-29T12:41:38Z</time></trkpt><trkpt lat="41.901708436720384" lon="13.157051652933095"><ele>830.0</ele><time>2026-03-29T12:41:39Z</time></trkpt><trkpt lat="41.9016514211376" lon="13.157013641948625"><ele>830.0</ele><time>2026-03-29T12:41:40Z</time></trkpt><trkpt lat="41.901578067905795" lon="13.157075927321234"><ele>830.0</ele><time>2026-03-29T12:41:41Z</time></trkpt><trkpt lat="41.901537338139484" lon="13.157214399706552"><ele>837.0</ele><time>2026-03-29T12:41:42.999Z</time></trkpt><trkpt lat="41.90153568482007" lon="13.157311347553412"><ele>844.0</ele><time>2026-03-29T12:41:43.999Z</time></trkpt><trkpt lat="41.901546149381396" lon="13.157470086541819"><ele>851.0</ele><time>2026-03-29T12:41:44.999Z</time></trkpt><trkpt lat="41.90155562707469" lon="13.157658082635932"><ele>858.0</ele><time>2026-03-29T12:41:45.999Z</time></trkpt><trkpt lat="41.90156425226756" lon="13.157861366160171"><ele>865.0</ele><time>2026-03-29T12:41:46.999Z</time></trkpt><trkpt lat="41.90156211318173" lon="13.15807815599696"><ele>872.0</ele><time>2026-03-29T12:41:47.999Z</time></trkpt><trkpt lat="41.90152980504454" lon="13.158297080532687"><ele>879.0</ele><time>2026-03-29T12:41:48.999Z</time></trkpt><trkpt lat="41.901451435524464" lon="13.15853306438177"><ele>887.3333333333333</ele><time>2026-03-29T12:41:49.999Z</time></trkpt><trkpt lat="41.90135829841986" lon="13.158777433723715"><ele>895.6666666666666</ele><time>2026-03-29T12:41:50.999Z</time></trkpt><trkpt lat="41.90127476437927" lon="13.159008543282518"><ele>904.0</ele><time>2026-03-29T12:41:51.999Z</time></trkpt><trkpt lat="41.90116620457949" lon="13.15920652934828"><ele>912.6666666666666</ele><time>2026-03-29T12:41:52.999Z</time></trkpt><trkpt lat="41.90106327975967" lon="13.159392745883611"><ele>921.3333333333333</ele><time>2026-03-29T12:41:53.999Z</time></trkpt><trkpt lat="41.90095089390886" lon="13.15954914236907"><ele>930.0</ele><time>2026-03-29T12:41:54.999Z</time></trkpt><trkpt lat="41.900844312508674" lon="13.159696513368225"><ele>926.0</ele><time>2026-03-29T12:41:55.999Z</time></trkpt><trkpt lat="41.90070065265887" lon="13.159762329127945"><ele>922.0</ele><time>2026-03-29T12:41:56.999Z</time></trkpt><trkpt lat="41.90054734617794" lon="13.159844392383018"><ele>918.0</ele><time>2026-03-29T12:41:57.999Z</time></trkpt><trkpt lat="41.9003873819993" lon="13.159925020693704"><ele>918.0</ele><time>2026-03-29T12:41:58.999Z</time></trkpt><trkpt lat="41.90024198143213" lon="13.160069566028982"><ele>918.0</ele><time>2026-03-29T12:41:59.999Z</time></trkpt><trkpt lat="41.90010706497962" lon="13.160247396869766"><ele>918.0</ele><time>2026-03-29T12:42:00.999Z</time></trkpt><trkpt lat="41.89994868267606" lon="13.160382928177212"><ele>920.0</ele><time>2026-03-29T12:42:01.999Z</time></trkpt><trkpt lat="41.8997797650884" lon="13.16049412701268"><ele>922.0</ele><time>2026-03-29T12:42:02.999Z</time></trkpt><trkpt lat="41.899624145699214" lon="13.16063413830526"><ele>924.0</ele><time>2026-03-29T12:42:03.999Z</time></trkpt><trkpt lat="41.89949095520204" lon="13.16081711811686"><ele>924.0</ele><time>2026-03-29T12:42:04.999Z</time></trkpt><trkpt lat="41.89936868763865" lon="13.160980587177916"><ele>924.0</ele><time>2026-03-29T12:42:05.999Z</time></trkpt><trkpt lat="41.89923516371592" lon="13.161101573871491"><ele>924.0</ele><time>2026-03-29T12:42:06.999Z</time></trkpt><trkpt lat="41.89907937442774" lon="13.1611497980216"><ele>917.5</ele><time>2026-03-29T12:42:07.999Z</time></trkpt><trkpt lat="41.8989195079694" lon="13.161216266409083"><ele>911.0</ele><time>2026-03-29T12:42:08.999Z</time></trkpt><trkpt lat="41.89879471962258" lon="13.161233065454063"><ele>904.5</ele><time>2026-03-29T12:42:09.999Z</time></trkpt><trkpt lat="41.89871481031014" lon="13.161287022728574"><ele>898.0</ele><time>2026-03-29T12:42:10.999Z</time></trkpt><trkpt lat="41.8986612792048" lon="13.161391493500657"><ele>898.0</ele><time>2026-03-29T12:42:11.999Z</time></trkpt><trkpt lat="41.898630727409895" lon="13.161494584956861"><ele>898.0</ele><time>2026-03-29T12:42:12.999Z</time></trkpt><trkpt lat="41.89862207246949" lon="13.16161582877781"><ele>898.0</ele><time>2026-03-29T12:42:13.999Z</time></trkpt><trkpt lat="41.89422334838732" lon="13.169238330389604"><ele>889.3333333333333</ele><time>2026-03-29T12:43:15Z</time></trkpt><trkpt lat="41.89412767339343" lon="13.169017580855574"><ele>880.6666666666667</ele><time>2026-03-29T12:43:16Z</time></trkpt><trkpt lat="41.89403754402557" lon="13.16878516349688"><ele>872.0</ele><time>2026-03-29T12:43:17Z</time></trkpt><trkpt lat="41.89394919582142" lon="13.168586188132913"><ele>872.0</ele><time>2026-03-29T12:43:18Z</time></trkpt><trkpt lat="41.89388632315696" lon="13.16840971471656"><ele>872.0</ele><time>2026-03-29T12:43:19Z</time></trkpt><trkpt lat="41.893764078037535" lon="13.168273019445353"><ele>872.0</ele><time>2026-03-29T12:43:20Z</time></trkpt><trkpt lat="41.89361936170288" lon="13.168104410631733"><ele>872.6666666666667</ele><time>2026-03-29T12:43:21Z</time></trkpt><trkpt lat="41.89348018795191" lon="13.167920844731434"><ele>873.3333333333333</ele><time>2026-03-29T12:43:22Z</time></trkpt><trkpt lat="41.893362375219546" lon="13.167772818197719"><ele>874.0</ele><time>2026-03-29T12:43:23Z</time></trkpt><trkpt lat="41.893232918109035" lon="13.16764650405028"><ele>874.0</ele><time>2026-03-29T12:43:24Z</time></trkpt><trkpt lat="41.89310474886452" lon="13.167549052093499"><ele>874.0</ele><time>2026-03-29T12:43:25Z</time></trkpt><trkpt lat="41.89295124449669" lon="13.167493727965462"><ele>874.0</ele><time>2026-03-29T12:43:26Z</time></trkpt><trkpt lat="41.892751187330546" lon="13.167502145581865"><ele>881.3333333333333</ele><time>2026-03-29T12:43:27Z</time></trkpt><trkpt lat="41.89256281037891" lon="13.1674942228338"><ele>888.6666666666667</ele><time>2026-03-29T12:43:28Z</time></trkpt><trkpt lat="41.892420483982754" lon="13.167449296137017"><ele>896.0</ele><time>2026-03-29T12:43:29Z</time></trkpt><trkpt lat="41.892271905723526" lon="13.167347738612401"><ele>880.3333333333334</ele><time>2026-03-29T12:43:30Z</time></trkpt><trkpt lat="41.89211041184796" lon="13.16720412467455"><ele>864.6666666666667</ele><time>2026-03-29T12:43:31Z</time></trkpt><trkpt lat="41.89198024057119" lon="13.167077889823087"><ele>849.0</ele><time>2026-03-29T12:43:32Z</time></trkpt><trkpt lat="41.89190331003788" lon="13.16695901944742"><ele>849.0</ele><time>2026-03-29T12:43:33Z</time></trkpt><trkpt lat="41.891823090306815" lon="13.166787054475101"><ele>849.0</ele><time>2026-03-29T12:43:34Z</time></trkpt><trkpt lat="41.89173257969586" lon="13.166560123313458"><ele>849.0</ele><time>2026-03-29T12:43:35Z</time></trkpt><trkpt lat="41.89165682553105" lon="13.166346216689227"><ele>851.75</ele><time>2026-03-29T12:43:36Z</time></trkpt><trkpt lat="41.891608263293335" lon="13.16613829003109"><ele>854.5</ele><time>2026-03-29T12:43:37Z</time></trkpt><trkpt lat="41.89157369628112" lon="13.165979938674019"><ele>857.25</ele><time>2026-03-29T12:43:38Z</time></trkpt><trkpt lat="41.89155172489248" lon="13.165867958245627"><ele>860.0</ele><time>2026-03-29T12:43:39Z</time></trkpt><trkpt lat="41.89146787577579" lon="13.16579819680154"><ele>860.0</ele><time>2026-03-29T12:43:40Z</time></trkpt><trkpt lat="41.891321386195315" lon="13.16575915584514"><ele>860.0</ele><time>2026-03-29T12:43:41Z</time></trkpt><trkpt lat="41.89113943460694" lon="13.16573697181484"><ele>860.0</ele><time>2026-03-29T12:43:42Z</time></trkpt><trkpt lat="41.89100115556021" lon="13.165739441758536"><ele>860.0</ele><time>2026-03-29T12:43:43Z</time></trkpt><trkpt lat="41.89088897304879" lon="13.165777136985598"><ele>860.0</ele><time>2026-03-29T12:43:44Z</time></trkpt><trkpt lat="41.890937816436264" lon="13.165722980234639"><ele>860.0</ele><time>2026-03-29T12:43:44.999Z</time></trkpt><trkpt lat="41.89086029854657" lon="13.165834967428976"><ele>860.0</ele><time>2026-03-29T12:44:12.999Z</time></trkpt><trkpt lat="41.89081592005552" lon="13.165936522380393"><ele>860.0</ele><time>2026-03-29T12:44:13.999Z</time></trkpt><trkpt lat="41.88818517261871" lon="13.171844522606243"><ele>859.8333333333334</ele><time>2026-03-29T12:45:14.998Z</time></trkpt><trkpt lat="41.88823878063095" lon="13.171930063704549"><ele>859.6666666666667</ele><time>2026-03-29T12:45:16.998Z</time></trkpt><trkpt lat="41.88827058537936" lon="13.172004174452702"><ele>859.5</ele><time>2026-03-29T12:45:20Z</time></trkpt><trkpt lat="41.88831234536653" lon="13.172069098060007"><ele>859.3333333333333</ele><time>2026-03-29T12:46:13.999Z</time></trkpt><trkpt lat="41.888365180501964" lon="13.172167514735843"><ele>859.1666666666666</ele><time>2026-03-29T12:46:14.999Z</time></trkpt><trkpt lat="41.888440989465344" lon="13.172263632822931"><ele>859.0</ele><time>2026-03-29T12:46:15.999Z</time></trkpt><trkpt lat="41.88853729015166" lon="13.172372607643137"><ele>861.6666666666666</ele><time>2026-03-29T12:46:16.999Z</time></trkpt><trkpt lat="41.888657847482804" lon="13.172507996496059"><ele>864.3333333333333</ele><time>2026-03-29T12:46:17.999Z</time></trkpt><trkpt lat="41.888793897771365" lon="13.172637896802954"><ele>867.0</ele><time>2026-03-29T12:46:18.999Z</time></trkpt><trkpt lat="41.88890741353793" lon="13.172744779469928"><ele>867.0</ele><time>2026-03-29T12:46:19.999Z</time></trkpt><trkpt lat="41.88900113029376" lon="13.172837303126427"><ele>867.0</ele><time>2026-03-29T12:46:20.999Z</time></trkpt><trkpt lat="41.88908278834673" lon="13.172924967562839"><ele>867.0</ele><time>2026-03-29T12:46:21.999Z</time></trkpt><trkpt lat="41.88914926387216" lon="13.173014848017127"><ele>867.0</ele><time>2026-03-29T12:46:22.999Z</time></trkpt><trkpt lat="41.88919727021654" lon="13.173113651196685"><ele>867.0</ele><time>2026-03-29T12:46:23.999Z</time></trkpt><trkpt lat="41.889204512103404" lon="13.173243128171919"><ele>865.5</ele><time>2026-03-29T12:46:24.999Z</time></trkpt><trkpt lat="41.88913730469548" lon="13.173384978237639"><ele>864.0</ele><time>2026-03-29T12:46:25.999Z</time></trkpt><trkpt lat="41.88901387407234" lon="13.173450761641538"><ele>862.5</ele><time>2026-03-29T12:46:26.999Z</time></trkpt><trkpt lat="41.888859302253536" lon="13.173534152932255"><ele>861.0</ele><time>2026-03-29T12:46:27.999Z</time></trkpt><trkpt lat="41.888685798877034" lon="13.173610450933573"><ele>861.0</ele><time>2026-03-29T12:46:28.999Z</time></trkpt><trkpt lat="41.88854259891141" lon="13.17367340657603"><ele>861.0</ele><time>2026-03-29T12:46:29.999Z</time></trkpt><trkpt lat="41.88840315985404" lon="13.173743814882393"><ele>861.0</ele><time>2026-03-29T12:46:30.999Z</time></trkpt><trkpt lat="41.888266148608395" lon="13.173823078385487"><ele>861.0</ele><time>2026-03-29T12:46:31.999Z</time></trkpt><trkpt lat="41.88814124280256" lon="13.173923958372766"><ele>860.3333333333333</ele><time>2026-03-29T12:46:32.999Z</time></trkpt><trkpt lat="41.88803176261043" lon="13.174049203353919"><ele>859.6666666666666</ele><time>2026-03-29T12:46:33.999Z</time></trkpt><trkpt lat="41.887937267156325" lon="13.174220480433595"><ele>859.0</ele><time>2026-03-29T12:46:34.999Z</time></trkpt><trkpt lat="41.88786162062223" lon="13.174409851104533"><ele>859.0</ele><time>2026-03-29T12:46:35.999Z</time></trkpt><trkpt lat="41.88780738496353" lon="13.174592558606482"><ele>859.0</ele><time>2026-03-29T12:46:36.999Z</time></trkpt><trkpt lat="41.887764275801175" lon="13.174773382273347"><ele>859.0</ele><time>2026-03-29T12:46:37.999Z</time></trkpt><trkpt lat="41.8877259298371" lon="13.17493582708806"><ele>859.0</ele><time>2026-03-29T12:46:38.999Z</time></trkpt><trkpt lat="41.8876765417688" lon="13.175081357907375"><ele>856.5</ele><time>2026-03-29T12:46:39.999Z</time></trkpt><trkpt lat="41.88761998454493" lon="13.175218600568433"><ele>854.0</ele><time>2026-03-29T12:46:40.999Z</time></trkpt><trkpt lat="41.88755061512862" lon="13.175338006486516"><ele>851.5</ele><time>2026-03-29T12:46:41.999Z</time></trkpt><trkpt lat="41.88744098059699" lon="13.175419654914915"><ele>849.0</ele><time>2026-03-29T12:46:42.999Z</time></trkpt><trkpt lat="41.88730918158109" lon="13.175478713612575"><ele>849.0</ele><time>2026-03-29T12:46:43.999Z</time></trkpt><trkpt lat="41.887184125472544" lon="13.175531411305528"><ele>849.0</ele><time>2026-03-29T12:46:44.999Z</time></trkpt><trkpt lat="41.88709313899919" lon="13.175626727774135"><ele>849.0</ele><time>2026-03-29T12:46:45.999Z</time></trkpt><trkpt lat="41.88704219503629" lon="13.175769833713836"><ele>849.0</ele><time>2026-03-29T12:46:46.999Z</time></trkpt><trkpt lat="41.88702539372744" lon="13.1759754871756"><ele>852.6666666666667</ele><time>2026-03-29T12:46:47.999Z</time></trkpt><trkpt lat="41.887012022315005" lon="13.176186224831184"><ele>856.3333333333334</ele><time>2026-03-29T12:46:48.998Z</time></trkpt><trkpt lat="41.88699142282778" lon="13.176406178392778"><ele>860.0</ele><time>2026-03-29T12:46:49.998Z</time></trkpt><trkpt lat="41.88696609033163" lon="13.17662557550624"><ele>861.75</ele><time>2026-03-29T12:46:50.998Z</time></trkpt><trkpt lat="41.88693350133242" lon="13.176836949998009"><ele>863.5</ele><time>2026-03-29T12:46:51.998Z</time></trkpt><trkpt lat="41.886878781836465" lon="13.177017160184429"><ele>865.25</ele><time>2026-03-29T12:46:52.998Z</time></trkpt><trkpt lat="41.88683348164422" lon="13.177151615674186"><ele>867.0</ele><time>2026-03-29T12:46:53.998Z</time></trkpt><trkpt lat="41.88677415754013" lon="13.17725260535938"><ele>859.5</ele><time>2026-03-29T12:46:54.998Z</time></trkpt><trkpt lat="41.88669090939918" lon="13.177322287293467"><ele>852.0</ele><time>2026-03-29T12:46:55.998Z</time></trkpt><trkpt lat="41.88658860821719" lon="13.17735184880844"><ele>844.5</ele><time>2026-03-29T12:46:56.998Z</time></trkpt><trkpt lat="41.886473759446986" lon="13.177343374931569"><ele>837.0</ele><time>2026-03-29T12:46:57.998Z</time></trkpt><trkpt lat="41.88634064005914" lon="13.177350053087704"><ele>837.0</ele><time>2026-03-29T12:46:58.998Z</time></trkpt><trkpt lat="41.886201213148894" lon="13.177341079955582"><ele>837.0</ele><time>2026-03-29T12:46:59.998Z</time></trkpt><trkpt lat="41.88606015630964" lon="13.177377124454443"><ele>837.0</ele><time>2026-03-29T12:47:00.998Z</time></trkpt><trkpt lat="41.885922172573196" lon="13.177466900480985"><ele>837.0</ele><time>2026-03-29T12:47:01.998Z</time></trkpt><trkpt lat="41.88581376871695" lon="13.177606575742056"><ele>835.5</ele><time>2026-03-29T12:47:02.998Z</time></trkpt><trkpt lat="41.88573987701639" lon="13.17774968582774"><ele>834.0</ele><time>2026-03-29T12:47:03.998Z</time></trkpt><trkpt lat="41.88570175941081" lon="13.177916758113984"><ele>832.5</ele><time>2026-03-29T12:47:04.998Z</time></trkpt><trkpt lat="41.88569044978654" lon="13.178105873675104"><ele>831.0</ele><time>2026-03-29T12:47:05.998Z</time></trkpt><trkpt lat="41.88570885847953" lon="13.178323946343816"><ele>830.3333333333333</ele><time>2026-03-29T12:47:06.998Z</time></trkpt><trkpt lat="41.88573692353246" lon="13.178555384756741"><ele>829.6666666666666</ele><time>2026-03-29T12:47:07.998Z</time></trkpt><trkpt lat="41.885732396982185" lon="13.178782303819427"><ele>829.0</ele><time>2026-03-29T12:47:08.998Z</time></trkpt><trkpt lat="41.88571670177959" lon="13.179036980750373"><ele>828.3333333333333</ele><time>2026-03-29T12:47:09.998Z</time></trkpt><trkpt lat="41.88570422474356" lon="13.179309135687141"><ele>827.6666666666667</ele><time>2026-03-29T12:47:10.998Z</time></trkpt><trkpt lat="41.88567031150074" lon="13.179550922595203"><ele>827.0</ele><time>2026-03-29T12:47:11.998Z</time></trkpt><trkpt lat="41.88564476533726" lon="13.179800079440554"><ele>825.5</ele><time>2026-03-29T12:47:12.998Z</time></trkpt><trkpt lat="41.88562642823037" lon="13.180049839702537"><ele>824.0</ele><time>2026-03-29T12:47:13.998Z</time></trkpt><trkpt lat="41.88415035716049" lon="13.182241497407418"><ele>812.3333333333334</ele><time>2026-03-29T12:48:14.999Z</time></trkpt><trkpt lat="41.88404637894486" lon="13.182113133476317"><ele>800.6666666666667</ele><time>2026-03-29T12:48:15.999Z</time></trkpt><trkpt lat="41.88391893469895" lon="13.18196843363063"><ele>789.0</ele><time>2026-03-29T12:48:16.999Z</time></trkpt><trkpt lat="41.88379122527573" lon="13.18181721027065"><ele>789.0</ele><time>2026-03-29T12:48:17.999Z</time></trkpt><trkpt lat="41.883694668601" lon="13.181715688861196"><ele>789.0</ele><time>2026-03-29T12:48:18.999Z</time></trkpt><trkpt lat="41.883598745887745" lon="13.181657105195857"><ele>789.0</ele><time>2026-03-29T12:48:19.999Z</time></trkpt><trkpt lat="41.883497138165446" lon="13.181606267657775"><ele>789.0</ele><time>2026-03-29T12:48:20.999Z</time></trkpt><trkpt lat="41.88336099671661" lon="13.18168286951682"><ele>793.6666666666667</ele><time>2026-03-29T12:48:21.999Z</time></trkpt><trkpt lat="41.8832088205255" lon="13.181760188692772"><ele>798.3333333333334</ele><time>2026-03-29T12:48:22.999Z</time></trkpt><trkpt lat="41.883038307552034" lon="13.181848872260428"><ele>803.0</ele><time>2026-03-29T12:48:23.999Z</time></trkpt><trkpt lat="41.882831632791046" lon="13.181941837955211"><ele>803.0</ele><time>2026-03-29T12:48:24.999Z</time></trkpt><trkpt lat="41.8826023968322" lon="13.18202844337999"><ele>803.0</ele><time>2026-03-29T12:48:25.999Z</time></trkpt><trkpt lat="41.88238634587483" lon="13.182108240509322"><ele>804.3333333333334</ele><time>2026-03-29T12:48:26.999Z</time></trkpt><trkpt lat="41.88220586806815" lon="13.182197137827282"><ele>805.6666666666667</ele><time>2026-03-29T12:48:27.999Z</time></trkpt><trkpt lat="41.88204563761703" lon="13.182246632775747"><ele>807.0</ele><time>2026-03-29T12:48:28.999Z</time></trkpt><trkpt lat="41.88192784211412" lon="13.182286780577813"><ele>807.0</ele><time>2026-03-29T12:48:29.999Z</time></trkpt><trkpt lat="41.88182208044477" lon="13.182278989690419"><ele>807.0</ele><time>2026-03-29T12:48:30.999Z</time></trkpt><trkpt lat="41.881731669360946" lon="13.182279941766891"><ele>807.0</ele><time>2026-03-29T12:48:31.999Z</time></trkpt><trkpt lat="41.881661005835994" lon="13.182233578517593"><ele>807.0</ele><time>2026-03-29T12:48:32.999Z</time></trkpt><trkpt lat="41.88161775904513" lon="13.182123131983564"><ele>807.0</ele><time>2026-03-29T12:48:33.999Z</time></trkpt><trkpt lat="41.881620702460125" lon="13.181950999867817"><ele>812.0</ele><time>2026-03-29T12:48:34.999Z</time></trkpt><trkpt lat="41.88159651362754" lon="13.181757500758083"><ele>817.0</ele><time>2026-03-29T12:48:35.999Z</time></trkpt><trkpt lat="41.8816254829468" lon="13.181559574464725"><ele>822.0</ele><time>2026-03-29T12:48:36.999Z</time></trkpt><trkpt lat="41.88161917582866" lon="13.181392812747207"><ele>827.0</ele><time>2026-03-29T12:48:37.999Z</time></trkpt><trkpt lat="41.88163022039531" lon="13.18124029942064"><ele>828.75</ele><time>2026-03-29T12:48:38.999Z</time></trkpt><trkpt lat="41.88164105765781" lon="13.181097555095096"><ele>830.5</ele><time>2026-03-29T12:48:39.999Z</time></trkpt><trkpt lat="41.88170331798438" lon="13.180977608035098"><ele>832.25</ele><time>2026-03-29T12:48:40.999Z</time></trkpt><trkpt lat="41.88183044211087" lon="13.180912776453587"><ele>834.0</ele><time>2026-03-29T12:48:41.999Z</time></trkpt><trkpt lat="41.88197812557226" lon="13.180838350229541"><ele>833.5</ele><time>2026-03-29T12:48:42.999Z</time></trkpt><trkpt lat="41.882109563961336" lon="13.180746304751482"><ele>833.0</ele><time>2026-03-29T12:48:43.999Z</time></trkpt><trkpt lat="41.882221433920826" lon="13.18062484836442"><ele>832.5</ele><time>2026-03-29T12:48:44.999Z</time></trkpt><trkpt lat="41.8823127010414" lon="13.18045988178792"><ele>832.0</ele><time>2026-03-29T12:48:45.999Z</time></trkpt><trkpt lat="41.88237992093138" lon="13.180248741398543"><ele>832.0</ele><time>2026-03-29T12:48:46.998Z</time></trkpt><trkpt lat="41.882444884631276" lon="13.180042650642175"><ele>832.0</ele><time>2026-03-29T12:48:47.998Z</time></trkpt><trkpt lat="41.882519250118044" lon="13.179868431494198"><ele>832.0</ele><time>2026-03-29T12:48:48.998Z</time></trkpt><trkpt lat="41.88254899152696" lon="13.1796981178973"><ele>832.0</ele><time>2026-03-29T12:48:49.998Z</time></trkpt><trkpt lat="41.882573892000636" lon="13.179531718345416"><ele>831.75</ele><time>2026-03-29T12:48:50.998Z</time></trkpt><trkpt lat="41.88254558172712" lon="13.17933275836226"><ele>831.5</ele><time>2026-03-29T12:48:51.998Z</time></trkpt><trkpt lat="41.88247248984078" lon="13.179154461478204"><ele>831.25</ele><time>2026-03-29T12:48:52.998Z</time></trkpt><trkpt lat="41.88240147667215" lon="13.17899215797731"><ele>831.0</ele><time>2026-03-29T12:48:53.998Z</time></trkpt><trkpt lat="41.88229891247518" lon="13.178874996897248"><ele>827.0</ele><time>2026-03-29T12:48:54.998Z</time></trkpt><trkpt lat="41.882179531539016" lon="13.178751936696262"><ele>823.0</ele><time>2026-03-29T12:48:55.998Z</time></trkpt><trkpt lat="41.88204726601547" lon="13.178651138810029"><ele>819.0</ele><time>2026-03-29T12:48:56.998Z</time></trkpt><trkpt lat="41.88194664543023" lon="13.178582787027102"><ele>815.0</ele><time>2026-03-29T12:48:57.998Z</time></trkpt><trkpt lat="41.88187960092324" lon="13.17851268430242"><ele>815.0</ele><time>2026-03-29T12:48:58.998Z</time></trkpt><trkpt lat="41.88180453162463" lon="13.178438955648453"><ele>815.0</ele><time>2026-03-29T12:48:59.998Z</time></trkpt><trkpt lat="41.88181732911454" lon="13.17826529937937"><ele>815.0</ele><time>2026-03-29T12:49:00.998Z</time></trkpt><trkpt lat="41.88188617833641" lon="13.178097604962177"><ele>815.0</ele><time>2026-03-29T12:49:01.998Z</time></trkpt><trkpt lat="41.88199121270414" lon="13.177943709460331"><ele>815.0</ele><time>2026-03-29T12:49:02.998Z</time></trkpt><trkpt lat="41.882078555613965" lon="13.177780368084166"><ele>815.0</ele><time>2026-03-29T12:49:03.998Z</time></trkpt><trkpt lat="41.882141748881565" lon="13.177587754284716"><ele>815.0</ele><time>2026-03-29T12:49:04.998Z</time></trkpt><trkpt lat="41.882182898557694" lon="13.177366701186784"><ele>818.6666666666667</ele><time>2026-03-29T12:49:05.998Z</time></trkpt><trkpt lat="41.882246790424034" lon="13.177146132295265"><ele>822.3333333333333</ele><time>2026-03-29T12:49:06.998Z</time></trkpt><trkpt lat="41.882319038442525" lon="13.176925032411573"><ele>826.0</ele><time>2026-03-29T12:49:07.998Z</time></trkpt><trkpt lat="41.882418888132435" lon="13.176718264891495"><ele>829.6666666666666</ele><time>2026-03-29T12:49:08.998Z</time></trkpt><trkpt lat="41.88250884084009" lon="13.176498664040224"><ele>833.3333333333333</ele><time>2026-03-29T12:49:09.998Z</time></trkpt><trkpt lat="41.88260662558355" lon="13.17629316952319"><ele>837.0</ele><time>2026-03-29T12:49:10.998Z</time></trkpt><trkpt lat="41.882671847039354" lon="13.176050797977803"><ele>826.0</ele><time>2026-03-29T12:49:11.998Z</time></trkpt><trkpt lat="41.882718765883276" lon="13.175781241676445"><ele>815.0</ele><time>2026-03-29T12:49:12.998Z</time></trkpt><trkpt lat="41.88279207859293" lon="13.17550215934634"><ele>804.0</ele><time>2026-03-29T12:49:13.998Z</time></trkpt><trkpt lat="41.87794552657532" lon="13.175317843821315"><ele>792.6666666666667</ele><time>2026-03-29T12:50:14.999Z</time></trkpt><trkpt lat="41.87780301941182" lon="13.17546385784174"><ele>781.3333333333334</ele><time>2026-03-29T12:50:15.999Z</time></trkpt><trkpt lat="41.87768617322424" lon="13.17564445059771"><ele>770.0</ele><time>2026-03-29T12:50:16.999Z</time></trkpt><trkpt lat="41.877572875395174" lon="13.175827111950188"><ele>763.0</ele><time>2026-03-29T12:50:17.999Z</time></trkpt><trkpt lat="41.87746344012616" lon="13.176018161703144"><ele>756.0</ele><time>2026-03-29T12:50:18.999Z</time></trkpt><trkpt lat="41.87734868305643" lon="13.176192298184505"><ele>749.0</ele><time>2026-03-29T12:50:19.999Z</time></trkpt><trkpt lat="41.877237184950765" lon="13.176357017584118"><ele>749.0</ele><time>2026-03-29T12:50:20.999Z</time></trkpt><trkpt lat="41.87713594582925" lon="13.176515770000968"><ele>749.0</ele><time>2026-03-29T12:50:21.999Z</time></trkpt><trkpt lat="41.877056835185265" lon="13.176692543257392"><ele>749.0</ele><time>2026-03-29T12:50:22.999Z</time></trkpt><trkpt lat="41.87699565423538" lon="13.1768566972381"><ele>749.0</ele><time>2026-03-29T12:50:23.999Z</time></trkpt><trkpt lat="41.8769054431457" lon="13.17698673200693"><ele>745.75</ele><time>2026-03-29T12:50:24.999Z</time></trkpt><trkpt lat="41.876783308479844" lon="13.177071555400275"><ele>742.5</ele><time>2026-03-29T12:50:25.999Z</time></trkpt><trkpt lat="41.87664668746072" lon="13.17714970514571"><ele>739.25</ele><time>2026-03-29T12:50:26.999Z</time></trkpt><trkpt lat="41.87651315373296" lon="13.17723375587959"><ele>736.0</ele><time>2026-03-29T12:50:27.999Z</time></trkpt><trkpt lat="41.87640697228025" lon="13.177438012606224"><ele>746.3333333333334</ele><time>2026-03-29T12:50:28.999Z</time></trkpt><trkpt lat="41.876290836671046" lon="13.177654334491514"><ele>756.6666666666666</ele><time>2026-03-29T12:50:29.999Z</time></trkpt><trkpt lat="41.87618668034956" lon="13.17793890150952"><ele>767.0</ele><time>2026-03-29T12:50:30.999Z</time></trkpt><trkpt lat="41.87606530954835" lon="13.178234550455862"><ele>776.0</ele><time>2026-03-29T12:50:31.999Z</time></trkpt><trkpt lat="41.87594127866507" lon="13.178527869663034"><ele>785.0</ele><time>2026-03-29T12:50:32.999Z</time></trkpt><trkpt lat="41.87581793144477" lon="13.178828300842143"><ele>773.0</ele><time>2026-03-29T12:50:33.999Z</time></trkpt><trkpt lat="41.87571180505859" lon="13.179091445395855"><ele>761.0</ele><time>2026-03-29T12:50:34.999Z</time></trkpt><trkpt lat="41.87561387341609" lon="13.179336999736938"><ele>749.0</ele><time>2026-03-29T12:50:35.999Z</time></trkpt><trkpt lat="41.87550544530018" lon="13.179610569959074"><ele>754.6666666666666</ele><time>2026-03-29T12:50:36.999Z</time></trkpt><trkpt lat="41.875404943517374" lon="13.179854196939722"><ele>760.3333333333334</ele><time>2026-03-29T12:50:37.999Z</time></trkpt><trkpt lat="41.875306510071056" lon="13.180092402667587"><ele>766.0</ele><time>2026-03-29T12:50:38.999Z</time></trkpt><trkpt lat="41.875217755619936" lon="13.180321651613742"><ele>766.0</ele><time>2026-03-29T12:50:39.999Z</time></trkpt><trkpt lat="41.875154560525985" lon="13.180561223644297"><ele>766.0</ele><time>2026-03-29T12:50:40.999Z</time></trkpt><trkpt lat="41.875095198093845" lon="13.180815434546876"><ele>766.0</ele><time>2026-03-29T12:50:41.999Z</time></trkpt><trkpt lat="41.87506463284944" lon="13.181059905826503"><ele>773.6666666666667</ele><time>2026-03-29T12:50:42.999Z</time></trkpt><trkpt lat="41.875068570057465" lon="13.181324431310474"><ele>781.3333333333334</ele><time>2026-03-29T12:50:43.999Z</time></trkpt><trkpt lat="41.87508952485528" lon="13.18159605945026"><ele>789.0</ele><time>2026-03-29T12:50:44.999Z</time></trkpt><trkpt lat="41.87510656767079" lon="13.181849376995576"><ele>770.6666666666666</ele><time>2026-03-29T12:50:45.999Z</time></trkpt><trkpt lat="41.87509740315976" lon="13.182087127454185"><ele>752.3333333333333</ele><time>2026-03-29T12:50:46.999Z</time></trkpt><trkpt lat="41.87501975953653" lon="13.182300454472962"><ele>734.0</ele><time>2026-03-29T12:50:47.999Z</time></trkpt><trkpt lat="41.87493045874936" lon="13.182505287752495"><ele>734.0</ele><time>2026-03-29T12:50:48.998Z</time></trkpt><trkpt lat="41.87483136652774" lon="13.182736347658143"><ele>734.0</ele><time>2026-03-29T12:50:49.998Z</time></trkpt><trkpt lat="41.874728528891225" lon="13.182994016455705"><ele>734.0</ele><time>2026-03-29T12:50:50.998Z</time></trkpt><trkpt lat="41.874637595216115" lon="13.183266311543521"><ele>738.0</ele><time>2026-03-29T12:50:51.998Z</time></trkpt><trkpt lat="41.874548192125566" lon="13.183526245048107"><ele>742.0</ele><time>2026-03-29T12:50:52.998Z</time></trkpt><trkpt lat="41.874463554765434" lon="13.183762024637577"><ele>746.0</ele><time>2026-03-29T12:50:53.998Z</time></trkpt><trkpt lat="41.874388100170705" lon="13.183964265183747"><ele>748.75</ele><time>2026-03-29T12:50:54.998Z</time></trkpt><trkpt lat="41.87429919961417" lon="13.184127592498044"><ele>751.5</ele><time>2026-03-29T12:50:55.998Z</time></trkpt><trkpt lat="41.874241911920436" lon="13.18426813051989"><ele>754.25</ele><time>2026-03-29T12:50:56.998Z</time></trkpt><trkpt lat="41.874210689661545" lon="13.184416967928565"><ele>757.0</ele><time>2026-03-29T12:50:57.998Z</time></trkpt><trkpt lat="41.874200071402" lon="13.184580766584697"><ele>759.0</ele><time>2026-03-29T12:50:58.998Z</time></trkpt><trkpt lat="41.87425603403359" lon="13.184782103062153"><ele>761.0</ele><time>2026-03-29T12:50:59.998Z</time></trkpt><trkpt lat="41.87430086487521" lon="13.184960266568634"><ele>763.0</ele><time>2026-03-29T12:51:00.998Z</time></trkpt><trkpt lat="41.87431993206439" lon="13.18513206470568"><ele>765.0</ele><time>2026-03-29T12:51:01.998Z</time></trkpt><trkpt lat="41.874327648736966" lon="13.185325467115087"><ele>765.0</ele><time>2026-03-29T12:51:02.998Z</time></trkpt><trkpt lat="41.87432200310078" lon="13.185536295636572"><ele>765.0</ele><time>2026-03-29T12:51:03.998Z</time></trkpt><trkpt lat="41.87429686171342" lon="13.185732522388736"><ele>765.0</ele><time>2026-03-29T12:51:04.998Z</time></trkpt><trkpt lat="41.874240557574915" lon="13.18592744789556"><ele>744.0</ele><time>2026-03-29T12:51:05.998Z</time></trkpt><trkpt lat="41.874182229564404" lon="13.186132786264215"><ele>723.0</ele><time>2026-03-29T12:51:06.998Z</time></trkpt><trkpt lat="41.87408949901711" lon="13.18629988013935"><ele>702.0</ele><time>2026-03-29T12:51:07.998Z</time></trkpt><trkpt lat="41.8739994108886" lon="13.186449218305523"><ele>707.3333333333334</ele><time>2026-03-29T12:51:08.998Z</time></trkpt><trkpt lat="41.87392261994406" lon="13.186603428349715"><ele>712.6666666666667</ele><time>2026-03-29T12:51:09.998Z</time></trkpt><trkpt lat="41.87389046399622" lon="13.186793482868287"><ele>718.0</ele><time>2026-03-29T12:51:10.998Z</time></trkpt><trkpt lat="41.87388240585989" lon="13.187023233517094"><ele>718.0</ele><time>2026-03-29T12:51:11.998Z</time></trkpt><trkpt lat="41.873816069382585" lon="13.187218522033836"><ele>718.0</ele><time>2026-03-29T12:51:12.998Z</time></trkpt><trkpt lat="41.87373381816158" lon="13.187427177926917"><ele>718.0</ele><time>2026-03-29T12:51:13.998Z</time></trkpt><trkpt lat="41.872021307762886" lon="13.19999746133737"><ele>700.0</ele><time>2026-03-29T12:52:14.999Z</time></trkpt><trkpt lat="41.87215948938284" lon="13.200194228741868"><ele>682.0</ele><time>2026-03-29T12:52:15.999Z</time></trkpt><trkpt lat="41.87226733142291" lon="13.200392306029103"><ele>664.0</ele><time>2026-03-29T12:52:16.999Z</time></trkpt><trkpt lat="41.872342413550186" lon="13.200582051351196"><ele>667.0</ele><time>2026-03-29T12:52:17.999Z</time></trkpt><trkpt lat="41.87243693090598" lon="13.200716434480821"><ele>670.0</ele><time>2026-03-29T12:52:18.999Z</time></trkpt><trkpt lat="41.872527992302885" lon="13.200839284212172"><ele>673.0</ele><time>2026-03-29T12:52:19.999Z</time></trkpt><trkpt lat="41.87264805182728" lon="13.20091768617688"><ele>676.0</ele><time>2026-03-29T12:52:20.999Z</time></trkpt><trkpt lat="41.87276487444974" lon="13.20099150061207"><ele>676.0</ele><time>2026-03-29T12:52:21.999Z</time></trkpt><trkpt lat="41.87282018130302" lon="13.201151643609638"><ele>676.0</ele><time>2026-03-29T12:52:22.999Z</time></trkpt><trkpt lat="41.87284072800965" lon="13.20133085156116"><ele>676.0</ele><time>2026-03-29T12:52:23.999Z</time></trkpt><trkpt lat="41.87288363568538" lon="13.201491477331757"><ele>676.0</ele><time>2026-03-29T12:52:24.999Z</time></trkpt><trkpt lat="41.87295613301094" lon="13.201655100910457"><ele>668.0</ele><time>2026-03-29T12:52:25.999Z</time></trkpt><trkpt lat="41.87308761124512" lon="13.201821582838566"><ele>660.0</ele><time>2026-03-29T12:52:26.999Z</time></trkpt><trkpt lat="41.87321929766893" lon="13.202021845671265"><ele>652.0</ele><time>2026-03-29T12:52:27.999Z</time></trkpt><trkpt lat="41.8733589579379" lon="13.202209386184848"><ele>655.3333333333334</ele><time>2026-03-29T12:52:28.999Z</time></trkpt><trkpt lat="41.87346370903209" lon="13.202407124198661"><ele>658.6666666666666</ele><time>2026-03-29T12:52:29.999Z</time></trkpt><trkpt lat="41.87357584165572" lon="13.202605866413874"><ele>662.0</ele><time>2026-03-29T12:52:30.999Z</time></trkpt><trkpt lat="41.8736593256947" lon="13.202849627337132"><ele>662.0</ele><time>2026-03-29T12:52:31.999Z</time></trkpt><trkpt lat="41.8737503766782" lon="13.20310475692659"><ele>662.0</ele><time>2026-03-29T12:52:32.999Z</time></trkpt><trkpt lat="41.873843572543485" lon="13.20333885908654"><ele>662.0</ele><time>2026-03-29T12:52:33.999Z</time></trkpt><trkpt lat="41.873921085793796" lon="13.203578342741132"><ele>654.3333333333333</ele><time>2026-03-29T12:52:34.999Z</time></trkpt><trkpt lat="41.8739937098788" lon="13.20381106222574"><ele>646.6666666666666</ele><time>2026-03-29T12:52:35.999Z</time></trkpt><trkpt lat="41.87405319628456" lon="13.20406255842301"><ele>639.0</ele><time>2026-03-29T12:52:36.999Z</time></trkpt><trkpt lat="41.874105941647436" lon="13.204310526823084"><ele>630.6666666666666</ele><time>2026-03-29T12:52:37.999Z</time></trkpt><trkpt lat="41.87415660497768" lon="13.20453721491015"><ele>622.3333333333333</ele><time>2026-03-29T12:52:38.999Z</time></trkpt><trkpt lat="41.87420051675441" lon="13.204732816466898"><ele>614.0</ele><time>2026-03-29T12:52:39.999Z</time></trkpt><trkpt lat="41.874236471092814" lon="13.204905631043191"><ele>618.25</ele><time>2026-03-29T12:52:40.999Z</time></trkpt><trkpt lat="41.87428769958035" lon="13.205056002738049"><ele>622.5</ele><time>2026-03-29T12:52:41.999Z</time></trkpt><trkpt lat="41.874372388731715" lon="13.205201541249734"><ele>626.75</ele><time>2026-03-29T12:52:42.999Z</time></trkpt><trkpt lat="41.8745046821027" lon="13.20531731774585"><ele>631.0</ele><time>2026-03-29T12:52:43.999Z</time></trkpt><trkpt lat="41.87467971211594" lon="13.205416311850378"><ele>631.0</ele><time>2026-03-29T12:52:44.999Z</time></trkpt><trkpt lat="41.87485413256438" lon="13.205566721525832"><ele>631.0</ele><time>2026-03-29T12:52:45.999Z</time></trkpt><trkpt lat="41.875001259061996" lon="13.205676620968752"><ele>631.0</ele><time>2026-03-29T12:52:46.999Z</time></trkpt><trkpt lat="41.87512773402767" lon="13.205838806251572"><ele>629.6666666666667</ele><time>2026-03-29T12:52:47.999Z</time></trkpt><trkpt lat="41.875227638424015" lon="13.206047967636886"><ele>628.3333333333334</ele><time>2026-03-29T12:52:48.999Z</time></trkpt><trkpt lat="41.87527677600705" lon="13.206288240157585"><ele>627.0</ele><time>2026-03-29T12:52:49.999Z</time></trkpt><trkpt lat="41.8753251497925" lon="13.206509946989337"><ele>627.0</ele><time>2026-03-29T12:52:50.999Z</time></trkpt><trkpt lat="41.8753501213572" lon="13.206716108689633"><ele>627.0</ele><time>2026-03-29T12:52:51.999Z</time></trkpt><trkpt lat="41.875379503180774" lon="13.206877545373679"><ele>627.0</ele><time>2026-03-29T12:52:52.999Z</time></trkpt><trkpt lat="41.87543640607229" lon="13.20698964167535"><ele>627.0</ele><time>2026-03-29T12:52:53.999Z</time></trkpt><trkpt lat="41.875487061508935" lon="13.20708552641786"><ele>627.0</ele><time>2026-03-29T12:52:54.999Z</time></trkpt><trkpt lat="41.87552357525618" lon="13.207186928346331"><ele>627.0</ele><time>2026-03-29T12:52:55.999Z</time></trkpt><trkpt lat="41.87559406542186" lon="13.207293631400491"><ele>627.0</ele><time>2026-03-29T12:52:57.998Z</time></trkpt><trkpt lat="41.87564323831301" lon="13.207397706873254"><ele>627.0</ele><time>2026-03-29T12:52:59.998Z</time></trkpt><trkpt lat="41.875713379126765" lon="13.207483537855282"><ele>627.0</ele><time>2026-03-29T12:53:01.998Z</time></trkpt><trkpt lat="41.87575976612504" lon="13.207610108001155"><ele>621.5</ele><time>2026-03-29T12:53:03.998Z</time></trkpt><trkpt lat="41.875802463517395" lon="13.207676863824782"><ele>616.0</ele><time>2026-03-29T12:53:13.998Z</time></trkpt><trkpt lat="41.87285643347469" lon="13.202784559357298"><ele>616.0</ele><time>2026-03-29T12:54:14.999Z</time></trkpt><trkpt lat="41.872777084617034" lon="13.202640788943803"><ele>616.0</ele><time>2026-03-29T12:54:15.999Z</time></trkpt><trkpt lat="41.87268483512391" lon="13.202513141119415"><ele>616.0</ele><time>2026-03-29T12:54:16.999Z</time></trkpt><trkpt lat="41.87256800775667" lon="13.202416058154743"><ele>616.0</ele><time>2026-03-29T12:54:17.999Z</time></trkpt><trkpt lat="41.87244094207537" lon="13.202338306642181"><ele>613.5</ele><time>2026-03-29T12:54:18.999Z</time></trkpt><trkpt lat="41.87235657419368" lon="13.202227825724407"><ele>611.0</ele><time>2026-03-29T12:54:19.999Z</time></trkpt><trkpt lat="41.872283603263554" lon="13.202099338009326"><ele>608.5</ele><time>2026-03-29T12:54:20.999Z</time></trkpt><trkpt lat="41.87221554698818" lon="13.201959800232743"><ele>606.0</ele><time>2026-03-29T12:54:21.999Z</time></trkpt><trkpt lat="41.87213168274286" lon="13.201842823147397"><ele>606.0</ele><time>2026-03-29T12:54:22.999Z</time></trkpt><trkpt lat="41.87204043903998" lon="13.201707869460304"><ele>606.0</ele><time>2026-03-29T12:54:23.999Z</time></trkpt><trkpt lat="41.871944777421966" lon="13.201557098150095"><ele>606.0</ele><time>2026-03-29T12:54:24.999Z</time></trkpt><trkpt lat="41.871865693262436" lon="13.20138392946805"><ele>606.0</ele><time>2026-03-29T12:54:25.999Z</time></trkpt><trkpt lat="41.871780323654" lon="13.201211779967783"><ele>599.6666666666666</ele><time>2026-03-29T12:54:26.999Z</time></trkpt><trkpt lat="41.87169064753443" lon="13.20102763908369"><ele>593.3333333333333</ele><time>2026-03-29T12:54:27.999Z</time></trkpt><trkpt lat="41.87160778269035" lon="13.200857484374685"><ele>587.0</ele><time>2026-03-29T12:54:28.999Z</time></trkpt><trkpt lat="41.87153222456989" lon="13.200702706879648"><ele>595.25</ele><time>2026-03-29T12:54:29.999Z</time></trkpt><trkpt lat="41.87144159354163" lon="13.200568337969603"><ele>603.5</ele><time>2026-03-29T12:54:30.999Z</time></trkpt><trkpt lat="41.87134699162735" lon="13.200457900572271"><ele>611.75</ele><time>2026-03-29T12:54:31.999Z</time></trkpt><trkpt lat="41.87124609520741" lon="13.200360292542467"><ele>620.0</ele><time>2026-03-29T12:54:32.999Z</time></trkpt><trkpt lat="41.87111952037512" lon="13.200299104853753"><ele>620.0</ele><time>2026-03-29T12:54:33.999Z</time></trkpt><trkpt lat="41.870999277554795" lon="13.200246059829055"><ele>620.0</ele><time>2026-03-29T12:54:34.999Z</time></trkpt><trkpt lat="41.870881565293104" lon="13.200191901412634"><ele>620.0</ele><time>2026-03-29T12:54:35.999Z</time></trkpt><trkpt lat="41.870781648361316" lon="13.200139167320154"><ele>620.0</ele><time>2026-03-29T12:54:36.999Z</time></trkpt><trkpt lat="41.87069849555678" lon="13.200068527868712"><ele>614.5</ele><time>2026-03-29T12:54:37.999Z</time></trkpt><trkpt lat="41.870637763989265" lon="13.199948901299592"><ele>609.0</ele><time>2026-03-29T12:54:38.999Z</time></trkpt><trkpt lat="41.870600083316596" lon="13.199793311219334"><ele>603.5</ele><time>2026-03-29T12:54:39.999Z</time></trkpt><trkpt lat="41.87061593868956" lon="13.199601313348747"><ele>598.0</ele><time>2026-03-29T12:54:40.999Z</time></trkpt><trkpt lat="41.87062490917708" lon="13.199406781005115"><ele>598.0</ele><time>2026-03-29T12:54:41.999Z</time></trkpt><trkpt lat="41.870580856058794" lon="13.199207355930604"><ele>598.0</ele><time>2026-03-29T12:54:42.999Z</time></trkpt><trkpt lat="41.870490202815866" lon="13.198983843235723"><ele>598.0</ele><time>2026-03-29T12:54:43.999Z</time></trkpt><trkpt lat="41.87041547538002" lon="13.198778425087681"><ele>603.5</ele><time>2026-03-29T12:54:44.999Z</time></trkpt><trkpt lat="41.87040420537414" lon="13.19857753068702"><ele>609.0</ele><time>2026-03-29T12:54:45.999Z</time></trkpt><trkpt lat="41.87036992245999" lon="13.198367504912888"><ele>614.5</ele><time>2026-03-29T12:54:46.999Z</time></trkpt><trkpt lat="41.870308215902625" lon="13.198212741709312"><ele>620.0</ele><time>2026-03-29T12:54:47.999Z</time></trkpt><trkpt lat="41.87026033673618" lon="13.198039960391522"><ele>625.0</ele><time>2026-03-29T12:54:48.999Z</time></trkpt><trkpt lat="41.87016886141039" lon="13.19790153425225"><ele>630.0</ele><time>2026-03-29T12:54:49.999Z</time></trkpt><trkpt lat="41.87006160271688" lon="13.197770033215109"><ele>635.0</ele><time>2026-03-29T12:54:50.999Z</time></trkpt><trkpt lat="41.86996659716584" lon="13.197669434066636"><ele>640.0</ele><time>2026-03-29T12:54:51.999Z</time></trkpt><trkpt lat="41.86989662798302" lon="13.197568830741169"><ele>627.5</ele><time>2026-03-29T12:54:52.999Z</time></trkpt><trkpt lat="41.86986941456781" lon="13.197445843058544"><ele>615.0</ele><time>2026-03-29T12:54:53.999Z</time></trkpt><trkpt lat="41.86989601440555" lon="13.197293524551267"><ele>602.5</ele><time>2026-03-29T12:54:54.999Z</time></trkpt><trkpt lat="41.86996789741196" lon="13.197090782418313"><ele>590.0</ele><time>2026-03-29T12:54:55.999Z</time></trkpt><trkpt lat="41.87002829959275" lon="13.196934199856678"><ele>589.0</ele><time>2026-03-29T12:54:56.998Z</time></trkpt><trkpt lat="41.87008954118513" lon="13.196814699180866"><ele>588.0</ele><time>2026-03-29T12:54:57.998Z</time></trkpt><trkpt lat="41.87012056812329" lon="13.19667489688329"><ele>587.0</ele><time>2026-03-29T12:54:58.998Z</time></trkpt><trkpt lat="41.87014048249696" lon="13.196523294003528"><ele>586.0</ele><time>2026-03-29T12:54:59.998Z</time></trkpt><trkpt lat="41.87014025512048" lon="13.196356763849455"><ele>586.6</ele><time>2026-03-29T12:55:00.998Z</time></trkpt><trkpt lat="41.87011688667057" lon="13.196214352842778"><ele>587.2</ele><time>2026-03-29T12:55:01.998Z</time></trkpt><trkpt lat="41.87006668493358" lon="13.196094372385454"><ele>587.8</ele><time>2026-03-29T12:55:02.998Z</time></trkpt><trkpt lat="41.870014523462565" lon="13.1959590648456"><ele>588.4</ele><time>2026-03-29T12:55:03.998Z</time></trkpt><trkpt lat="41.8699313972974" lon="13.195834405314049"><ele>589.0</ele><time>2026-03-29T12:55:04.998Z</time></trkpt><trkpt lat="41.869837314149535" lon="13.195713713228441"><ele>594.5</ele><time>2026-03-29T12:55:05.998Z</time></trkpt><trkpt lat="41.86972047111579" lon="13.195617031673175"><ele>600.0</ele><time>2026-03-29T12:55:06.998Z</time></trkpt><trkpt lat="41.86959662668674" lon="13.19553284302542"><ele>605.5</ele><time>2026-03-29T12:55:07.998Z</time></trkpt><trkpt lat="41.86946337120874" lon="13.195447865896924"><ele>611.0</ele><time>2026-03-29T12:55:08.998Z</time></trkpt><trkpt lat="41.869332619228835" lon="13.195376936528428"><ele>604.8</ele><time>2026-03-29T12:55:09.998Z</time></trkpt><trkpt lat="41.86921852358362" lon="13.19532366205297"><ele>598.6</ele><time>2026-03-29T12:55:10.998Z</time></trkpt><trkpt lat="41.869112302194786" lon="13.195271768612809"><ele>592.4</ele><time>2026-03-29T12:55:11.998Z</time></trkpt><trkpt lat="41.86901602613306" lon="13.195209069791852"><ele>586.2</ele><time>2026-03-29T12:55:12.998Z</time></trkpt><trkpt lat="41.8689349250752" lon="13.195118821127215"><ele>580.0</ele><time>2026-03-29T12:55:13.998Z</time></trkpt><trkpt lat="41.86410664494084" lon="13.195591760360255"><ele>579.6666666666667</ele><time>2026-03-29T12:56:15Z</time></trkpt><trkpt lat="41.864103252623096" lon="13.19577605292661"><ele>579.3333333333334</ele><time>2026-03-29T12:56:16Z</time></trkpt><trkpt lat="41.86414181727308" lon="13.195988183687504"><ele>579.0</ele><time>2026-03-29T12:56:17Z</time></trkpt><trkpt lat="41.86417072716554" lon="13.196208185245547"><ele>579.0</ele><time>2026-03-29T12:56:18Z</time></trkpt><trkpt lat="41.86422056835915" lon="13.19643953104721"><ele>579.0</ele><time>2026-03-29T12:56:19Z</time></trkpt><trkpt lat="41.86426920844047" lon="13.196676574467633"><ele>579.0</ele><time>2026-03-29T12:56:20Z</time></trkpt><trkpt lat="41.86430676905844" lon="13.196883194564471"><ele>576.75</ele><time>2026-03-29T12:56:21Z</time></trkpt><trkpt lat="41.86434199774896" lon="13.197056549776091"><ele>574.5</ele><time>2026-03-29T12:56:22Z</time></trkpt><trkpt lat="41.86440644732353" lon="13.19720915472471"><ele>572.25</ele><time>2026-03-29T12:56:23Z</time></trkpt><trkpt lat="41.86448513187353" lon="13.197358761539899"><ele>570.0</ele><time>2026-03-29T12:56:24Z</time></trkpt><trkpt lat="41.86456791241232" lon="13.197488311817791"><ele>569.5</ele><time>2026-03-29T12:56:25Z</time></trkpt><trkpt lat="41.864633374720924" lon="13.197615547481538"><ele>569.0</ele><time>2026-03-29T12:56:26Z</time></trkpt><trkpt lat="41.86463550340304" lon="13.197769906071054"><ele>568.5</ele><time>2026-03-29T12:56:27Z</time></trkpt><trkpt lat="41.86461194897204" lon="13.197920647011193"><ele>568.0</ele><time>2026-03-29T12:56:28Z</time></trkpt><trkpt lat="41.86456595514811" lon="13.198077559614925"><ele>569.75</ele><time>2026-03-29T12:56:29Z</time></trkpt><trkpt lat="41.86452176279516" lon="13.198210909870282"><ele>571.5</ele><time>2026-03-29T12:56:30Z</time></trkpt><trkpt lat="41.8644862954113" lon="13.198345286902216"><ele>573.25</ele><time>2026-03-29T12:56:31Z</time></trkpt><trkpt lat="41.86442258430651" lon="13.198467315804178"><ele>575.0</ele><time>2026-03-29T12:56:32Z</time></trkpt><trkpt lat="41.864365842559785" lon="13.198615848768858"><ele>575.0</ele><time>2026-03-29T12:56:33Z</time></trkpt><trkpt lat="41.86430132927779" lon="13.198766375789457"><ele>575.0</ele><time>2026-03-29T12:56:34Z</time></trkpt><trkpt lat="41.864193654215384" lon="13.198863970889303"><ele>575.0</ele><time>2026-03-29T12:56:35Z</time></trkpt><trkpt lat="41.8640776111745" lon="13.198966856593565"><ele>575.0</ele><time>2026-03-29T12:56:36Z</time></trkpt><trkpt lat="41.86393483129908" lon="13.19905930553938"><ele>576.3333333333333</ele><time>2026-03-29T12:56:37Z</time></trkpt><trkpt lat="41.86376163919874" lon="13.19914642889683"><ele>577.6666666666666</ele><time>2026-03-29T12:56:38Z</time></trkpt><trkpt lat="41.86358876178657" lon="13.199234076108352"><ele>579.0</ele><time>2026-03-29T12:56:39Z</time></trkpt><trkpt lat="41.86343237858899" lon="13.199309056561143"><ele>576.3333333333334</ele><time>2026-03-29T12:56:40Z</time></trkpt><trkpt lat="41.86326988621298" lon="13.199344871646682"><ele>573.6666666666667</ele><time>2026-03-29T12:56:41Z</time></trkpt><trkpt lat="41.863092595278" lon="13.199369571337744"><ele>571.0</ele><time>2026-03-29T12:56:42Z</time></trkpt><trkpt lat="41.86292540446695" lon="13.199393080080178"><ele>571.0</ele><time>2026-03-29T12:56:43Z</time></trkpt><trkpt lat="41.862793548808106" lon="13.199411620320248"><ele>571.0</ele><time>2026-03-29T12:56:44Z</time></trkpt><trkpt lat="41.8626756695784" lon="13.199428901855738"><ele>571.0</ele><time>2026-03-29T12:56:45Z</time></trkpt><trkpt lat="41.86256378630856" lon="13.199448595947041"><ele>571.0</ele><time>2026-03-29T12:56:46Z</time></trkpt><trkpt lat="41.8624601212195" lon="13.199471737787594"><ele>570.6</ele><time>2026-03-29T12:56:47Z</time></trkpt><trkpt lat="41.86234374799616" lon="13.199509319705887"><ele>570.2</ele><time>2026-03-29T12:56:48Z</time></trkpt><trkpt lat="41.86222202023319" lon="13.199555928528088"><ele>569.8</ele><time>2026-03-29T12:56:49Z</time></trkpt><trkpt lat="41.86212452024744" lon="13.199599200161344"><ele>569.4</ele><time>2026-03-29T12:56:50Z</time></trkpt><trkpt lat="41.86205769555382" lon="13.199632434741469"><ele>569.0</ele><time>2026-03-29T12:56:51Z</time></trkpt><trkpt lat="41.86197256334532" lon="13.19968399907792"><ele>569.0</ele><time>2026-03-29T12:56:53Z</time></trkpt><trkpt lat="41.8618866170802" lon="13.199831122521607"><ele>569.0</ele><time>2026-03-29T12:56:55Z</time></trkpt><trkpt lat="41.86185076318288" lon="13.199937487883778"><ele>569.0</ele><time>2026-03-29T12:56:56Z</time></trkpt><trkpt lat="41.861816980536226" lon="13.200029878477224"><ele>569.0</ele><time>2026-03-29T12:56:57Z</time></trkpt><trkpt lat="41.861823601941964" lon="13.200127175955766"><ele>569.0</ele><time>2026-03-29T12:56:58Z</time></trkpt><trkpt lat="41.86181956435791" lon="13.200225046700146"><ele>569.0</ele><time>2026-03-29T12:56:59Z</time></trkpt><trkpt lat="41.8618100141129" lon="13.200326950677526"><ele>569.5</ele><time>2026-03-29T12:56:59.999Z</time></trkpt><trkpt lat="41.86179723903405" lon="13.200424480009005"><ele>570.0</ele><time>2026-03-29T12:57:00.999Z</time></trkpt><trkpt lat="41.86175866112537" lon="13.200513139890989"><ele>570.5</ele><time>2026-03-29T12:57:01.999Z</time></trkpt><trkpt lat="41.86171617106916" lon="13.200609388378865"><ele>571.0</ele><time>2026-03-29T12:57:02.999Z</time></trkpt><trkpt lat="41.86164320224446" lon="13.20068282683937"><ele>571.5</ele><time>2026-03-29T12:57:03.999Z</time></trkpt><trkpt lat="41.86157287199527" lon="13.200754680997555"><ele>572.0</ele><time>2026-03-29T12:57:04.999Z</time></trkpt><trkpt lat="41.86150166976513" lon="13.200825305372607"><ele>572.4</ele><time>2026-03-29T12:57:05.999Z</time></trkpt><trkpt lat="41.86143230255188" lon="13.200896053934603"><ele>572.8000000000001</ele><time>2026-03-29T12:57:06.999Z</time></trkpt><trkpt lat="41.861360145152545" lon="13.200972228770462"><ele>573.2</ele><time>2026-03-29T12:57:07.999Z</time></trkpt><trkpt lat="41.861280929945885" lon="13.201054901173544"><ele>573.6</ele><time>2026-03-29T12:57:08.999Z</time></trkpt><trkpt lat="41.8612023714742" lon="13.201136888208245"><ele>574.0</ele><time>2026-03-29T12:57:09.999Z</time></trkpt><trkpt lat="41.861125061747515" lon="13.201218836559216"><ele>574.0</ele><time>2026-03-29T12:57:10.999Z</time></trkpt><trkpt lat="41.86105036650247" lon="13.201299655955328"><ele>574.0</ele><time>2026-03-29T12:57:11.999Z</time></trkpt><trkpt lat="41.86097637637836" lon="13.201382094434187"><ele>574.0</ele><time>2026-03-29T12:57:12.999Z</time></trkpt><trkpt lat="41.86090754007451" lon="13.201472182466874"><ele>574.0</ele><time>2026-03-29T12:57:13.999Z</time></trkpt><trkpt lat="41.85930753333779" lon="13.210333333483716"><ele>590.0</ele><time>2026-03-29T12:58:15Z</time></trkpt><trkpt lat="41.85934234206312" lon="13.21057249302949"><ele>606.0</ele><time>2026-03-29T12:58:16Z</time></trkpt><trkpt lat="41.85937610422103" lon="13.210804990178012"><ele>622.0</ele><time>2026-03-29T12:58:17Z</time></trkpt><trkpt lat="41.85940664118301" lon="13.211021748250358"><ele>622.0</ele><time>2026-03-29T12:58:18Z</time></trkpt><trkpt lat="41.859403277455854" lon="13.21121279387757"><ele>622.0</ele><time>2026-03-29T12:58:19Z</time></trkpt><trkpt lat="41.859374594192175" lon="13.211393641502184"><ele>622.0</ele><time>2026-03-29T12:58:20Z</time></trkpt><trkpt lat="41.85935507437191" lon="13.211599087004696"><ele>622.0</ele><time>2026-03-29T12:58:21Z</time></trkpt><trkpt lat="41.8593109095425" lon="13.211816413685222"><ele>622.6666666666667</ele><time>2026-03-29T12:58:22Z</time></trkpt><trkpt lat="41.85927881102388" lon="13.212043086481337"><ele>623.3333333333334</ele><time>2026-03-29T12:58:23Z</time></trkpt><trkpt lat="41.859246801576816" lon="13.212270505320678"><ele>624.0</ele><time>2026-03-29T12:58:24Z</time></trkpt><trkpt lat="41.85921665194855" lon="13.212501593875256"><ele>625.6666666666666</ele><time>2026-03-29T12:58:25Z</time></trkpt><trkpt lat="41.859218113573256" lon="13.212749086865523"><ele>627.3333333333333</ele><time>2026-03-29T12:58:26Z</time></trkpt><trkpt lat="41.859210528172405" lon="13.212996333348565"><ele>629.0</ele><time>2026-03-29T12:58:27Z</time></trkpt><trkpt lat="41.85918940527105" lon="13.213231343958798"><ele>629.3333333333333</ele><time>2026-03-29T12:58:28Z</time></trkpt><trkpt lat="41.85915451581327" lon="13.213471517292632"><ele>629.6666666666666</ele><time>2026-03-29T12:58:29Z</time></trkpt><trkpt lat="41.85912892645939" lon="13.2137105032406"><ele>630.0</ele><time>2026-03-29T12:58:30Z</time></trkpt><trkpt lat="41.85909255105129" lon="13.213946532390862"><ele>629.6666666666666</ele><time>2026-03-29T12:58:31Z</time></trkpt><trkpt lat="41.859022744557954" lon="13.2141663258776"><ele>629.3333333333333</ele><time>2026-03-29T12:58:32Z</time></trkpt><trkpt lat="41.85895669313194" lon="13.214397826263271"><ele>629.0</ele><time>2026-03-29T12:58:33Z</time></trkpt><trkpt lat="41.85889203807578" lon="13.214645814027405"><ele>629.3333333333333</ele><time>2026-03-29T12:58:34Z</time></trkpt><trkpt lat="41.858833533579244" lon="13.214889796096307"><ele>629.6666666666666</ele><time>2026-03-29T12:58:35Z</time></trkpt><trkpt lat="41.85879645705431" lon="13.215139053624616"><ele>630.0</ele><time>2026-03-29T12:58:36Z</time></trkpt><trkpt lat="41.85876381264109" lon="13.215398339737261"><ele>631.5</ele><time>2026-03-29T12:58:37Z</time></trkpt><trkpt lat="41.858749287867155" lon="13.215706303665655"><ele>633.0</ele><time>2026-03-29T12:58:38Z</time></trkpt><trkpt lat="41.85874860134186" lon="13.216012577211982"><ele>633.0</ele><time>2026-03-29T12:58:39Z</time></trkpt><trkpt lat="41.85874134430936" lon="13.216282557443014"><ele>633.0</ele><time>2026-03-29T12:58:40Z</time></trkpt><trkpt lat="41.85877167613413" lon="13.216534462612506"><ele>633.0</ele><time>2026-03-29T12:58:41Z</time></trkpt><trkpt lat="41.858781504666005" lon="13.2167656513823"><ele>634.0</ele><time>2026-03-29T12:58:42Z</time></trkpt><trkpt lat="41.85880121041695" lon="13.21700883003207"><ele>635.0</ele><time>2026-03-29T12:58:43Z</time></trkpt><trkpt lat="41.85880443369418" lon="13.2172773124166"><ele>636.0</ele><time>2026-03-29T12:58:44Z</time></trkpt><trkpt lat="41.85881939832823" lon="13.217540782977363"><ele>636.6666666666666</ele><time>2026-03-29T12:58:45Z</time></trkpt><trkpt lat="41.85883405833467" lon="13.217798890123657"><ele>637.3333333333333</ele><time>2026-03-29T12:58:46Z</time></trkpt><trkpt lat="41.858861468747875" lon="13.218034471299088"><ele>638.0</ele><time>2026-03-29T12:58:47Z</time></trkpt><trkpt lat="41.85887349510313" lon="13.218283860053486"><ele>639.3333333333333</ele><time>2026-03-29T12:58:48Z</time></trkpt><trkpt lat="41.85888819520778" lon="13.218525365632352"><ele>640.6666666666666</ele><time>2026-03-29T12:58:49Z</time></trkpt><trkpt lat="41.85890052113927" lon="13.218744760472452"><ele>642.0</ele><time>2026-03-29T12:58:50Z</time></trkpt><trkpt lat="41.85888972620233" lon="13.218941519090935"><ele>643.3333333333334</ele><time>2026-03-29T12:58:51Z</time></trkpt><trkpt lat="41.8588721672304" lon="13.21913377748612"><ele>644.6666666666667</ele><time>2026-03-29T12:58:52Z</time></trkpt><trkpt lat="41.858843962532944" lon="13.219360097284133"><ele>646.0</ele><time>2026-03-29T12:58:53Z</time></trkpt><trkpt lat="41.85878069007508" lon="13.219590251821645"><ele>646.0</ele><time>2026-03-29T12:58:54Z</time></trkpt><trkpt lat="41.85872482906066" lon="13.219814782691826"><ele>646.0</ele><time>2026-03-29T12:58:55Z</time></trkpt><trkpt lat="41.85868650796713" lon="13.22005666212881"><ele>646.0</ele><time>2026-03-29T12:58:56Z</time></trkpt><trkpt lat="41.85866931360884" lon="13.22032497701007"><ele>646.3333333333334</ele><time>2026-03-29T12:58:57Z</time></trkpt><trkpt lat="41.858656938004096" lon="13.220592502346832"><ele>646.6666666666666</ele><time>2026-03-29T12:58:58Z</time></trkpt><trkpt lat="41.85863779783744" lon="13.22084954857721"><ele>647.0</ele><time>2026-03-29T12:58:59Z</time></trkpt><trkpt lat="41.85860966790561" lon="13.221094993033185"><ele>648.6666666666666</ele><time>2026-03-29T12:59:00Z</time></trkpt><trkpt lat="41.85857030776962" lon="13.22131654429561"><ele>650.3333333333334</ele><time>2026-03-29T12:59:01Z</time></trkpt><trkpt lat="41.85852404406263" lon="13.22151449422719"><ele>652.0</ele><time>2026-03-29T12:59:02Z</time></trkpt><trkpt lat="41.85849446255942" lon="13.221705865110241"><ele>654.6666666666667</ele><time>2026-03-29T12:59:03Z</time></trkpt><trkpt lat="41.85849591147415" lon="13.221938509138933"><ele>657.3333333333334</ele><time>2026-03-29T12:59:04Z</time></trkpt><trkpt lat="41.858532582391675" lon="13.222195046601964"><ele>660.0</ele><time>2026-03-29T12:59:05Z</time></trkpt><trkpt lat="41.85859155355521" lon="13.222466059319817"><ele>661.3333333333334</ele><time>2026-03-29T12:59:06Z</time></trkpt><trkpt lat="41.858645487582116" lon="13.222731792470277"><ele>662.6666666666667</ele><time>2026-03-29T12:59:07Z</time></trkpt><trkpt lat="41.858691755857976" lon="13.222991140626355"><ele>664.0</ele><time>2026-03-29T12:59:08Z</time></trkpt><trkpt lat="41.85873718956847" lon="13.223254251523059"><ele>666.0</ele><time>2026-03-29T12:59:09Z</time></trkpt><trkpt lat="41.858778882395086" lon="13.223486597879619"><ele>668.0</ele><time>2026-03-29T12:59:09.999Z</time></trkpt><trkpt lat="41.85880890563611" lon="13.223677637409939"><ele>670.0</ele><time>2026-03-29T12:59:10.999Z</time></trkpt><trkpt lat="41.85880606435118" lon="13.223850944022645"><ele>669.3333333333334</ele><time>2026-03-29T12:59:11.999Z</time></trkpt><trkpt lat="41.85873019545929" lon="13.224026009916855"><ele>668.6666666666666</ele><time>2026-03-29T12:59:12.999Z</time></trkpt><trkpt lat="41.85865837991097" lon="13.224231924519838"><ele>668.0</ele><time>2026-03-29T12:59:13.999Z</time></trkpt><trkpt lat="41.85984553182101" lon="13.22714455373051"><ele>668.0</ele><time>2026-03-29T13:00:15Z</time></trkpt><trkpt lat="41.8598677821846" lon="13.227004602878154"><ele>668.0</ele><time>2026-03-29T13:00:18Z</time></trkpt><trkpt lat="41.85990438771255" lon="13.2269102573553"><ele>668.0</ele><time>2026-03-29T13:00:24Z</time></trkpt><trkpt lat="41.86002344478515" lon="13.22687018673191"><ele>668.0</ele><time>2026-03-29T13:00:26Z</time></trkpt><trkpt lat="41.86008329936707" lon="13.226942154935418"><ele>668.0</ele><time>2026-03-29T13:00:27Z</time></trkpt><trkpt lat="41.86010857415977" lon="13.227066597793883"><ele>675.0</ele><time>2026-03-29T13:00:28Z</time></trkpt><trkpt lat="41.86012472522296" lon="13.227245094264491"><ele>682.0</ele><time>2026-03-29T13:00:29Z</time></trkpt><trkpt lat="41.86013236777252" lon="13.227478485261207"><ele>689.0</ele><time>2026-03-29T13:00:30Z</time></trkpt><trkpt lat="41.86014888801156" lon="13.227667715129117"><ele>689.75</ele><time>2026-03-29T13:00:31Z</time></trkpt><trkpt lat="41.86016541239928" lon="13.2278590597939"><ele>690.5</ele><time>2026-03-29T13:00:32Z</time></trkpt><trkpt lat="41.860185985674725" lon="13.228050784435572"><ele>691.25</ele><time>2026-03-29T13:00:33Z</time></trkpt><trkpt lat="41.86021362875524" lon="13.22824476343888"><ele>692.0</ele><time>2026-03-29T13:00:34Z</time></trkpt><trkpt lat="41.860252528340745" lon="13.228429909572938"><ele>692.2</ele><time>2026-03-29T13:00:35Z</time></trkpt><trkpt lat="41.86029696591639" lon="13.228588577401437"><ele>692.4000000000001</ele><time>2026-03-29T13:00:36Z</time></trkpt><trkpt lat="41.860349370968905" lon="13.228724092807163"><ele>692.5999999999999</ele><time>2026-03-29T13:00:37Z</time></trkpt><trkpt lat="41.86040403073158" lon="13.228841984850165"><ele>692.8</ele><time>2026-03-29T13:00:38Z</time></trkpt><trkpt lat="41.8604680786408" lon="13.228935393615885"><ele>693.0</ele><time>2026-03-29T13:00:39Z</time></trkpt><trkpt lat="41.86053283373576" lon="13.22899521518847"><ele>692.4</ele><time>2026-03-29T13:00:40Z</time></trkpt><trkpt lat="41.86062766469985" lon="13.229073032765475"><ele>691.8</ele><time>2026-03-29T13:00:42Z</time></trkpt><trkpt lat="41.86063750429801" lon="13.229159480934834"><ele>691.2</ele><time>2026-03-29T13:00:43Z</time></trkpt><trkpt lat="41.86051569958303" lon="13.229331283353769"><ele>690.6</ele><time>2026-03-29T13:00:45Z</time></trkpt><trkpt lat="41.86043038937328" lon="13.229390350108408"><ele>690.0</ele><time>2026-03-29T13:00:46Z</time></trkpt><trkpt lat="41.860360175348006" lon="13.229444035645054"><ele>690.0</ele><time>2026-03-29T13:00:47Z</time></trkpt><trkpt lat="41.860307747858684" lon="13.229516675259438"><ele>690.0</ele><time>2026-03-29T13:00:48Z</time></trkpt><trkpt lat="41.86027593132286" lon="13.229631919038122"><ele>690.0</ele><time>2026-03-29T13:00:49Z</time></trkpt><trkpt lat="41.860272975813864" lon="13.229756888267515"><ele>690.0</ele><time>2026-03-29T13:00:50Z</time></trkpt><trkpt lat="41.86030599235007" lon="13.229895657765308"><ele>690.0</ele><time>2026-03-29T13:00:51Z</time></trkpt><trkpt lat="41.860344589750824" lon="13.230042037422661"><ele>691.5</ele><time>2026-03-29T13:00:52Z</time></trkpt><trkpt lat="41.86038331229553" lon="13.23018662369336"><ele>693.0</ele><time>2026-03-29T13:00:53Z</time></trkpt><trkpt lat="41.86044556459399" lon="13.230315363636528"><ele>694.5</ele><time>2026-03-29T13:00:54Z</time></trkpt><trkpt lat="41.860531705687976" lon="13.230444664201018"><ele>696.0</ele><time>2026-03-29T13:00:55Z</time></trkpt><trkpt lat="41.86063073165979" lon="13.230571940363896"><ele>694.5</ele><time>2026-03-29T13:00:56Z</time></trkpt><trkpt lat="41.860733708517785" lon="13.23069842739202"><ele>693.0</ele><time>2026-03-29T13:00:57Z</time></trkpt><trkpt lat="41.86083132457216" lon="13.230822164538289"><ele>691.5</ele><time>2026-03-29T13:00:58Z</time></trkpt><trkpt lat="41.860910857828166" lon="13.230932519760236"><ele>690.0</ele><time>2026-03-29T13:00:59Z</time></trkpt><trkpt lat="41.86097670969324" lon="13.231033426713909"><ele>695.4</ele><time>2026-03-29T13:01:00Z</time></trkpt><trkpt lat="41.86103392724037" lon="13.231140868719187"><ele>700.8</ele><time>2026-03-29T13:01:01Z</time></trkpt><trkpt lat="41.86107878162398" lon="13.231265445522169"><ele>706.2</ele><time>2026-03-29T13:01:02Z</time></trkpt><trkpt lat="41.86111786177075" lon="13.231401423612873"><ele>711.6</ele><time>2026-03-29T13:01:03Z</time></trkpt><trkpt lat="41.86116009042732" lon="13.231535165497142"><ele>717.0</ele><time>2026-03-29T13:01:04Z</time></trkpt><trkpt lat="41.86120111823523" lon="13.231652681974913"><ele>717.0</ele><time>2026-03-29T13:01:05Z</time></trkpt><trkpt lat="41.86124367945741" lon="13.231749619393213"><ele>717.0</ele><time>2026-03-29T13:01:06Z</time></trkpt><trkpt lat="41.86128416854404" lon="13.231836137079602"><ele>717.0</ele><time>2026-03-29T13:01:07Z</time></trkpt><trkpt lat="41.86131820669353" lon="13.231913196546394"><ele>717.0</ele><time>2026-03-29T13:01:08Z</time></trkpt><trkpt lat="41.861351037647495" lon="13.232039545423536"><ele>717.0</ele><time>2026-03-29T13:01:10Z</time></trkpt><trkpt lat="41.86126115942756" lon="13.232142102675436"><ele>717.0</ele><time>2026-03-29T13:01:12Z</time></trkpt><trkpt lat="41.861179744260546" lon="13.232126849640778"><ele>717.0</ele><time>2026-03-29T13:01:13Z</time></trkpt><trkpt lat="41.861113092283624" lon="13.232013941555548"><ele>717.0</ele><time>2026-03-29T13:01:14Z</time></trkpt><trkpt lat="41.86169531820211" lon="13.239468968626351"><ele>726.0</ele><time>2026-03-29T13:02:15Z</time></trkpt><trkpt lat="41.86178228359227" lon="13.239491779492003"><ele>735.0</ele><time>2026-03-29T13:02:16.001Z</time></trkpt><trkpt lat="41.86186711666332" lon="13.23952315322118"><ele>744.0</ele><time>2026-03-29T13:02:17Z</time></trkpt><trkpt lat="41.86194430712002" lon="13.239547472734344"><ele>753.0</ele><time>2026-03-29T13:02:18Z</time></trkpt><trkpt lat="41.86203654624513" lon="13.239593429677724"><ele>762.0</ele><time>2026-03-29T13:02:20Z</time></trkpt><trkpt lat="41.86208616410853" lon="13.239658123085754"><ele>771.0</ele><time>2026-03-29T13:02:22Z</time></trkpt><trkpt lat="41.86202353610649" lon="13.23985098075932"><ele>771.0</ele><time>2026-03-29T13:02:24Z</time></trkpt><trkpt lat="41.861944290341384" lon="13.239928019205177"><ele>771.0</ele><time>2026-03-29T13:02:25Z</time></trkpt><trkpt lat="41.8618477885087" lon="13.240020524471019"><ele>771.0</ele><time>2026-03-29T13:02:26Z</time></trkpt><trkpt lat="41.86175181335338" lon="13.240128223710855"><ele>771.0</ele><time>2026-03-29T13:02:27Z</time></trkpt><trkpt lat="41.86165402873108" lon="13.240253822956934"><ele>768.0</ele><time>2026-03-29T13:02:28Z</time></trkpt><trkpt lat="41.86155802376588" lon="13.240384498026307"><ele>765.0</ele><time>2026-03-29T13:02:29Z</time></trkpt><trkpt lat="41.86147045498954" lon="13.240518388653046"><ele>762.0</ele><time>2026-03-29T13:02:30Z</time></trkpt><trkpt lat="41.86138721211448" lon="13.24064839525772"><ele>759.0</ele><time>2026-03-29T13:02:31Z</time></trkpt><trkpt lat="41.861326390552705" lon="13.24078061842898"><ele>759.0</ele><time>2026-03-29T13:02:32Z</time></trkpt><trkpt lat="41.8612691037685" lon="13.240914299328962"><ele>759.0</ele><time>2026-03-29T13:02:33Z</time></trkpt><trkpt lat="41.861220501557185" lon="13.241048372941126"><ele>759.0</ele><time>2026-03-29T13:02:34Z</time></trkpt><trkpt lat="41.86120122783878" lon="13.24120329706378"><ele>759.0</ele><time>2026-03-29T13:02:35Z</time></trkpt><trkpt lat="41.8612001746181" lon="13.24137061879779"><ele>761.75</ele><time>2026-03-29T13:02:36Z</time></trkpt><trkpt lat="41.861215694237806" lon="13.24152665130663"><ele>764.5</ele><time>2026-03-29T13:02:37Z</time></trkpt><trkpt lat="41.86123371567157" lon="13.241666449238561"><ele>767.25</ele><time>2026-03-29T13:02:38Z</time></trkpt><trkpt lat="41.861252527922204" lon="13.24181340064031"><ele>770.0</ele><time>2026-03-29T13:02:39Z</time></trkpt><trkpt lat="41.86128555927724" lon="13.241964608781648"><ele>770.0</ele><time>2026-03-29T13:02:40Z</time></trkpt><trkpt lat="41.86133434006455" lon="13.242111530090527"><ele>770.0</ele><time>2026-03-29T13:02:41Z</time></trkpt><trkpt lat="41.86140444333018" lon="13.242256686288664"><ele>770.0</ele><time>2026-03-29T13:02:42Z</time></trkpt><trkpt lat="41.86149095737271" lon="13.242413520706544"><ele>770.0</ele><time>2026-03-29T13:02:43Z</time></trkpt><trkpt lat="41.86158611715596" lon="13.242592232329944"><ele>767.0</ele><time>2026-03-29T13:02:44Z</time></trkpt><trkpt lat="41.86165936314948" lon="13.242777549813141"><ele>764.0</ele><time>2026-03-29T13:02:45Z</time></trkpt><trkpt lat="41.86173705078859" lon="13.242951879030514"><ele>761.0</ele><time>2026-03-29T13:02:46Z</time></trkpt><trkpt lat="41.861812525845764" lon="13.24311826812671"><ele>763.0</ele><time>2026-03-29T13:02:47Z</time></trkpt><trkpt lat="41.86188826254183" lon="13.243270750668556"><ele>765.0</ele><time>2026-03-29T13:02:48Z</time></trkpt><trkpt lat="41.86197009791104" lon="13.243403701858028"><ele>767.0</ele><time>2026-03-29T13:02:49Z</time></trkpt><trkpt lat="41.86208077070329" lon="13.243513909756938"><ele>769.0</ele><time>2026-03-29T13:02:50Z</time></trkpt><trkpt lat="41.862196807481986" lon="13.243601734412374"><ele>769.0</ele><time>2026-03-29T13:02:51Z</time></trkpt><trkpt lat="41.86231205942744" lon="13.243663060927842"><ele>769.0</ele><time>2026-03-29T13:02:52Z</time></trkpt><trkpt lat="41.86242187436245" lon="13.243686318963318"><ele>769.0</ele><time>2026-03-29T13:02:53Z</time></trkpt><trkpt lat="41.86253403996387" lon="13.243665065677293"><ele>769.0</ele><time>2026-03-29T13:02:54Z</time></trkpt><trkpt lat="41.86265125170361" lon="13.24363029929221"><ele>773.75</ele><time>2026-03-29T13:02:55Z</time></trkpt><trkpt lat="41.8627551734687" lon="13.243599895649853"><ele>778.5</ele><time>2026-03-29T13:02:56Z</time></trkpt><trkpt lat="41.862862601881595" lon="13.243645004892414"><ele>783.25</ele><time>2026-03-29T13:02:57Z</time></trkpt><trkpt lat="41.86294786629203" lon="13.243766191701257"><ele>788.0</ele><time>2026-03-29T13:02:58Z</time></trkpt><trkpt lat="41.86299393002593" lon="13.24392796513314"><ele>786.75</ele><time>2026-03-29T13:02:59Z</time></trkpt><trkpt lat="41.86299901588553" lon="13.244106179187332"><ele>785.5</ele><time>2026-03-29T13:03:00Z</time></trkpt><trkpt lat="41.86298489826498" lon="13.244309362532329"><ele>784.25</ele><time>2026-03-29T13:03:01Z</time></trkpt><trkpt lat="41.86297129154995" lon="13.244517034293047"><ele>783.0</ele><time>2026-03-29T13:03:02Z</time></trkpt><trkpt lat="41.86295870086039" lon="13.24469640256621"><ele>782.75</ele><time>2026-03-29T13:03:03Z</time></trkpt><trkpt lat="41.862953188325186" lon="13.244866294017767"><ele>782.5</ele><time>2026-03-29T13:03:04Z</time></trkpt><trkpt lat="41.86294874040599" lon="13.245037972746726"><ele>782.25</ele><time>2026-03-29T13:03:05Z</time></trkpt><trkpt lat="41.862942546783614" lon="13.245205609492071"><ele>782.0</ele><time>2026-03-29T13:03:06Z</time></trkpt><trkpt lat="41.8629369365654" lon="13.245362328570192"><ele>782.0</ele><time>2026-03-29T13:03:07Z</time></trkpt><trkpt lat="41.86292994241473" lon="13.245530523215974"><ele>782.0</ele><time>2026-03-29T13:03:08Z</time></trkpt><trkpt lat="41.862924328150164" lon="13.245681379012604"><ele>782.0</ele><time>2026-03-29T13:03:09Z</time></trkpt><trkpt lat="41.86291715122596" lon="13.245802797054907"><ele>782.0</ele><time>2026-03-29T13:03:10Z</time></trkpt><trkpt lat="41.86291309059282" lon="13.245900167911765"><ele>782.0</ele><time>2026-03-29T13:03:11Z</time></trkpt><trkpt lat="41.862928845003935" lon="13.246051645654015"><ele>728.0</ele><time>2026-03-29T13:03:13Z</time></trkpt><trkpt lat="41.866666685501514" lon="13.255373953140682"><ele>728.0</ele><time>2026-03-29T13:04:15Z</time></trkpt><trkpt lat="41.866724062390375" lon="13.255580322558929"><ele>728.0</ele><time>2026-03-29T13:04:16.001Z</time></trkpt><trkpt lat="41.86677520625398" lon="13.255793116363796"><ele>728.0</ele><time>2026-03-29T13:04:17Z</time></trkpt><trkpt lat="41.86682102752465" lon="13.256026005404836"><ele>731.6666666666666</ele><time>2026-03-29T13:04:18Z</time></trkpt><trkpt lat="41.866876476400186" lon="13.256248401692371"><ele>735.3333333333334</ele><time>2026-03-29T13:04:19Z</time></trkpt><trkpt lat="41.866927308019015" lon="13.256461804499944"><ele>739.0</ele><time>2026-03-29T13:04:20Z</time></trkpt><trkpt lat="41.86698286093069" lon="13.256659618525578"><ele>739.0</ele><time>2026-03-29T13:04:21Z</time></trkpt><trkpt lat="41.867034011762435" lon="13.256860103876322"><ele>739.0</ele><time>2026-03-29T13:04:22Z</time></trkpt><trkpt lat="41.86708325098318" lon="13.257065832010392"><ele>739.0</ele><time>2026-03-29T13:04:23Z</time></trkpt><trkpt lat="41.86712988319453" lon="13.257277749592083"><ele>736.0</ele><time>2026-03-29T13:04:24Z</time></trkpt><trkpt lat="41.8671759008728" lon="13.257493882215922"><ele>733.0</ele><time>2026-03-29T13:04:25Z</time></trkpt><trkpt lat="41.86724152774097" lon="13.257714691446328"><ele>730.0</ele><time>2026-03-29T13:04:26Z</time></trkpt><trkpt lat="41.8673320095555" lon="13.257945690485116"><ele>726.6666666666667</ele><time>2026-03-29T13:04:27Z</time></trkpt><trkpt lat="41.867421461059934" lon="13.258183843513562"><ele>723.3333333333334</ele><time>2026-03-29T13:04:28Z</time></trkpt><trkpt lat="41.86750563026853" lon="13.258415471569009"><ele>720.0</ele><time>2026-03-29T13:04:29Z</time></trkpt><trkpt lat="41.86758462981667" lon="13.258632943678748"><ele>725.3333333333334</ele><time>2026-03-29T13:04:30Z</time></trkpt><trkpt lat="41.86766582142991" lon="13.258848318323128"><ele>730.6666666666667</ele><time>2026-03-29T13:04:31Z</time></trkpt><trkpt lat="41.86776211006014" lon="13.259060655081981"><ele>736.0</ele><time>2026-03-29T13:04:32Z</time></trkpt><trkpt lat="41.86787483352806" lon="13.259266582041763"><ele>736.0</ele><time>2026-03-29T13:04:33Z</time></trkpt><trkpt lat="41.867986422112004" lon="13.259466059291235"><ele>736.0</ele><time>2026-03-29T13:04:34Z</time></trkpt><trkpt lat="41.868105856943664" lon="13.259668596034473"><ele>736.0</ele><time>2026-03-29T13:04:35Z</time></trkpt><trkpt lat="41.8682385747285" lon="13.259874664521488"><ele>737.0</ele><time>2026-03-29T13:04:36Z</time></trkpt><trkpt lat="41.868374922213576" lon="13.260059569862788"><ele>738.0</ele><time>2026-03-29T13:04:37Z</time></trkpt><trkpt lat="41.868501174626296" lon="13.260185987741508"><ele>739.0</ele><time>2026-03-29T13:04:38Z</time></trkpt><trkpt lat="41.868588411729334" lon="13.26027527984959"><ele>739.0</ele><time>2026-03-29T13:04:39Z</time></trkpt><trkpt lat="41.86862819946277" lon="13.260372258699158"><ele>739.0</ele><time>2026-03-29T13:04:40Z</time></trkpt><trkpt lat="41.86858837205204" lon="13.260496622810072"><ele>739.0</ele><time>2026-03-29T13:04:41Z</time></trkpt><trkpt lat="41.86856633497702" lon="13.26062860954113"><ele>739.0</ele><time>2026-03-29T13:04:42Z</time></trkpt><trkpt lat="41.86851238752287" lon="13.260750676190854"><ele>739.0</ele><time>2026-03-29T13:04:43Z</time></trkpt><trkpt lat="41.868394992060225" lon="13.260853318533417"><ele>734.3333333333334</ele><time>2026-03-29T13:04:44Z</time></trkpt><trkpt lat="41.86825842037862" lon="13.260973136025068"><ele>729.6666666666666</ele><time>2026-03-29T13:04:45Z</time></trkpt><trkpt lat="41.86813535131532" lon="13.261092374479047"><ele>725.0</ele><time>2026-03-29T13:04:46Z</time></trkpt><trkpt lat="41.868026014774635" lon="13.261201318578246"><ele>725.0</ele><time>2026-03-29T13:04:47Z</time></trkpt><trkpt lat="41.86792339865373" lon="13.261306854020582"><ele>725.0</ele><time>2026-03-29T13:04:48Z</time></trkpt><trkpt lat="41.867831652699614" lon="13.261414340390553"><ele>725.0</ele><time>2026-03-29T13:04:49Z</time></trkpt><trkpt lat="41.86776726275893" lon="13.261551749902454"><ele>725.0</ele><time>2026-03-29T13:04:50Z</time></trkpt><trkpt lat="41.8677422163056" lon="13.261728467061404"><ele>727.6666666666666</ele><time>2026-03-29T13:04:51Z</time></trkpt><trkpt lat="41.867760568984544" lon="13.261952123832826"><ele>730.3333333333334</ele><time>2026-03-29T13:04:52Z</time></trkpt><trkpt lat="41.86778611380041" lon="13.262197322454647"><ele>733.0</ele><time>2026-03-29T13:04:53Z</time></trkpt><trkpt lat="41.86779460284321" lon="13.262431392327446"><ele>735.0</ele><time>2026-03-29T13:04:54Z</time></trkpt><trkpt lat="41.86780854580275" lon="13.262692921485325"><ele>737.0</ele><time>2026-03-29T13:04:55Z</time></trkpt><trkpt lat="41.867826689051434" lon="13.262955457798915"><ele>739.0</ele><time>2026-03-29T13:04:56Z</time></trkpt><trkpt lat="41.867842646603" lon="13.263203783231804"><ele>740.0</ele><time>2026-03-29T13:04:57Z</time></trkpt><trkpt lat="41.86785682371479" lon="13.26344605173639"><ele>741.0</ele><time>2026-03-29T13:04:58Z</time></trkpt><trkpt lat="41.86787415831689" lon="13.263692497201447"><ele>742.0</ele><time>2026-03-29T13:04:59Z</time></trkpt><trkpt lat="41.86788913508995" lon="13.263941986742788"><ele>742.6666666666667</ele><time>2026-03-29T13:05:00Z</time></trkpt><trkpt lat="41.867908548896644" lon="13.264203048826928"><ele>743.3333333333334</ele><time>2026-03-29T13:05:01Z</time></trkpt><trkpt lat="41.867935883723376" lon="13.264460895650398"><ele>744.0</ele><time>2026-03-29T13:05:02Z</time></trkpt><trkpt lat="41.86797005237469" lon="13.264712514970048"><ele>744.6666666666666</ele><time>2026-03-29T13:05:03Z</time></trkpt><trkpt lat="41.86800636111665" lon="13.264953031400808"><ele>745.3333333333333</ele><time>2026-03-29T13:05:04Z</time></trkpt><trkpt lat="41.86804736402855" lon="13.26519645380834"><ele>746.0</ele><time>2026-03-29T13:05:05Z</time></trkpt><trkpt lat="41.868093845026486" lon="13.2654376675117"><ele>746.6666666666666</ele><time>2026-03-29T13:05:06Z</time></trkpt><trkpt lat="41.86814368305359" lon="13.265681960462832"><ele>747.3333333333334</ele><time>2026-03-29T13:05:07Z</time></trkpt><trkpt lat="41.8681994024669" lon="13.265935794765063"><ele>748.0</ele><time>2026-03-29T13:05:08Z</time></trkpt><trkpt lat="41.868257135753716" lon="13.266193707318392"><ele>748.3333333333334</ele><time>2026-03-29T13:05:09Z</time></trkpt><trkpt lat="41.868310249681755" lon="13.266452229158636"><ele>748.6666666666666</ele><time>2026-03-29T13:05:10Z</time></trkpt><trkpt lat="41.86836721119434" lon="13.266719094698427"><ele>749.0</ele><time>2026-03-29T13:05:11Z</time></trkpt><trkpt lat="41.86842456112542" lon="13.266984920560839"><ele>752.0</ele><time>2026-03-29T13:05:12Z</time></trkpt><trkpt lat="41.86848188722502" lon="13.267254830677176"><ele>755.0</ele><time>2026-03-29T13:05:13Z</time></trkpt><trkpt lat="41.868541367096185" lon="13.267524152725686"><ele>758.0</ele><time>2026-03-29T13:05:14Z</time></trkpt><trkpt lat="41.87190785863494" lon="13.27880933246112"><ele>758.75</ele><time>2026-03-29T13:06:14.999Z</time></trkpt><trkpt lat="41.871836178207474" lon="13.278941983804073"><ele>759.5</ele><time>2026-03-29T13:06:15.999Z</time></trkpt><trkpt lat="41.87171565494284" lon="13.27906061117903"><ele>760.25</ele><time>2026-03-29T13:06:16.999Z</time></trkpt><trkpt lat="41.87159831370438" lon="13.279198933797797"><ele>761.0</ele><time>2026-03-29T13:06:18Z</time></trkpt><trkpt lat="41.87151682057789" lon="13.279371207556903"><ele>757.0</ele><time>2026-03-29T13:06:19Z</time></trkpt><trkpt lat="41.87146243900903" lon="13.279568548290777"><ele>753.0</ele><time>2026-03-29T13:06:20Z</time></trkpt><trkpt lat="41.871414890604505" lon="13.279767963988181"><ele>749.0</ele><time>2026-03-29T13:06:21Z</time></trkpt><trkpt lat="41.87138504662357" lon="13.279972453460987"><ele>748.0</ele><time>2026-03-29T13:06:22Z</time></trkpt><trkpt lat="41.87138459091631" lon="13.28018786753969"><ele>747.0</ele><time>2026-03-29T13:06:23Z</time></trkpt><trkpt lat="41.87141960530327" lon="13.280395550038786"><ele>746.0</ele><time>2026-03-29T13:06:24Z</time></trkpt><trkpt lat="41.871478275972805" lon="13.280612747809489"><ele>744.3333333333333</ele><time>2026-03-29T13:06:25Z</time></trkpt><trkpt lat="41.871548541049734" lon="13.28083274031251"><ele>742.6666666666666</ele><time>2026-03-29T13:06:26Z</time></trkpt><trkpt lat="41.8716189574305" lon="13.281035796409057"><ele>741.0</ele><time>2026-03-29T13:06:27Z</time></trkpt><trkpt lat="41.87170320008241" lon="13.281242222539477"><ele>741.6666666666666</ele><time>2026-03-29T13:06:28Z</time></trkpt><trkpt lat="41.87180593816053" lon="13.281443486521933"><ele>742.3333333333333</ele><time>2026-03-29T13:06:29Z</time></trkpt><trkpt lat="41.8719114830734" lon="13.281639640105073"><ele>743.0</ele><time>2026-03-29T13:06:30Z</time></trkpt><trkpt lat="41.872022383245756" lon="13.281849726057402"><ele>743.0</ele><time>2026-03-29T13:06:31Z</time></trkpt><trkpt lat="41.872116639047434" lon="13.282065642459713"><ele>743.0</ele><time>2026-03-29T13:06:32Z</time></trkpt><trkpt lat="41.872202764337295" lon="13.282290853416834"><ele>743.0</ele><time>2026-03-29T13:06:33Z</time></trkpt><trkpt lat="41.87227329342373" lon="13.282536818576522"><ele>740.6666666666666</ele><time>2026-03-29T13:06:34Z</time></trkpt><trkpt lat="41.87234073241217" lon="13.282788693149039"><ele>738.3333333333334</ele><time>2026-03-29T13:06:35Z</time></trkpt><trkpt lat="41.872409797662876" lon="13.28304246403775"><ele>736.0</ele><time>2026-03-29T13:06:36Z</time></trkpt><trkpt lat="41.87248151649897" lon="13.283289177405639"><ele>736.6666666666667</ele><time>2026-03-29T13:06:37Z</time></trkpt><trkpt lat="41.87255247589912" lon="13.283522212403707"><ele>737.3333333333334</ele><time>2026-03-29T13:06:38Z</time></trkpt><trkpt lat="41.87262573010563" lon="13.283761884347776"><ele>738.0</ele><time>2026-03-29T13:06:39Z</time></trkpt><trkpt lat="41.87269245021458" lon="13.284003231149933"><ele>735.6666666666666</ele><time>2026-03-29T13:06:40Z</time></trkpt><trkpt lat="41.872760900031174" lon="13.284259547585922"><ele>733.3333333333333</ele><time>2026-03-29T13:06:41Z</time></trkpt><trkpt lat="41.87283791936908" lon="13.284549355637754"><ele>731.0</ele><time>2026-03-29T13:06:42Z</time></trkpt><trkpt lat="41.87291280937206" lon="13.284839085029011"><ele>731.0</ele><time>2026-03-29T13:06:43Z</time></trkpt><trkpt lat="41.872980578324984" lon="13.285093433229376"><ele>731.0</ele><time>2026-03-29T13:06:44Z</time></trkpt><trkpt lat="41.873038773786405" lon="13.285317022902959"><ele>731.0</ele><time>2026-03-29T13:06:45Z</time></trkpt><trkpt lat="41.87308883504368" lon="13.285523161317673"><ele>730.75</ele><time>2026-03-29T13:06:46Z</time></trkpt><trkpt lat="41.87312029624273" lon="13.285688574356483"><ele>730.5</ele><time>2026-03-29T13:06:47Z</time></trkpt><trkpt lat="41.87315997944859" lon="13.285830328017605"><ele>730.25</ele><time>2026-03-29T13:06:48Z</time></trkpt><trkpt lat="41.87315816936042" lon="13.286004915017038"><ele>730.0</ele><time>2026-03-29T13:06:49Z</time></trkpt><trkpt lat="41.87309437356721" lon="13.2861941510526"><ele>730.0</ele><time>2026-03-29T13:06:50Z</time></trkpt><trkpt lat="41.8729925152548" lon="13.286361771858598"><ele>730.0</ele><time>2026-03-29T13:06:51Z</time></trkpt><trkpt lat="41.87290178084326" lon="13.286499823854632"><ele>730.0</ele><time>2026-03-29T13:06:52Z</time></trkpt><trkpt lat="41.87285152297704" lon="13.286662660111016"><ele>730.0</ele><time>2026-03-29T13:06:53Z</time></trkpt><trkpt lat="41.87284662817304" lon="13.286859697958745"><ele>731.3333333333334</ele><time>2026-03-29T13:06:54Z</time></trkpt><trkpt lat="41.872886428403255" lon="13.287087707663224"><ele>732.6666666666666</ele><time>2026-03-29T13:06:55Z</time></trkpt><trkpt lat="41.87291176140319" lon="13.287300427538815"><ele>734.0</ele><time>2026-03-29T13:06:56Z</time></trkpt><trkpt lat="41.87292738743733" lon="13.287514080041834"><ele>735.6666666666666</ele><time>2026-03-29T13:06:57Z</time></trkpt><trkpt lat="41.87291524611035" lon="13.287724832410476"><ele>737.3333333333334</ele><time>2026-03-29T13:06:58Z</time></trkpt><trkpt lat="41.87289021429468" lon="13.287923626496088"><ele>739.0</ele><time>2026-03-29T13:06:59Z</time></trkpt><trkpt lat="41.87285920951395" lon="13.28812142637794"><ele>739.6666666666667</ele><time>2026-03-29T13:07:00Z</time></trkpt><trkpt lat="41.87288024441221" lon="13.288329045851082"><ele>740.3333333333334</ele><time>2026-03-29T13:07:01Z</time></trkpt><trkpt lat="41.87293787363494" lon="13.288522808097419"><ele>741.0</ele><time>2026-03-29T13:07:02Z</time></trkpt><trkpt lat="41.87302877190636" lon="13.288702144018727"><ele>741.0</ele><time>2026-03-29T13:07:03Z</time></trkpt><trkpt lat="41.87314980165848" lon="13.288862651736473"><ele>741.0</ele><time>2026-03-29T13:07:04Z</time></trkpt><trkpt lat="41.87327366423562" lon="13.289022864028786"><ele>741.0</ele><time>2026-03-29T13:07:05Z</time></trkpt><trkpt lat="41.87337593820009" lon="13.289197126668938"><ele>744.3333333333334</ele><time>2026-03-29T13:07:06Z</time></trkpt><trkpt lat="41.87348524315524" lon="13.289383985477311"><ele>747.6666666666667</ele><time>2026-03-29T13:07:07Z</time></trkpt><trkpt lat="41.873566904143516" lon="13.289593526576565"><ele>751.0</ele><time>2026-03-29T13:07:08Z</time></trkpt><trkpt lat="41.87364824228752" lon="13.289812399006442"><ele>751.0</ele><time>2026-03-29T13:07:09Z</time></trkpt><trkpt lat="41.873723166560204" lon="13.290058820906573"><ele>751.0</ele><time>2026-03-29T13:07:10Z</time></trkpt><trkpt lat="41.873779632602464" lon="13.290304831625365"><ele>751.0</ele><time>2026-03-29T13:07:11Z</time></trkpt><trkpt lat="41.87383757468214" lon="13.290557277716957"><ele>748.3333333333334</ele><time>2026-03-29T13:07:12Z</time></trkpt><trkpt lat="41.873886394761236" lon="13.290822065125232"><ele>745.6666666666666</ele><time>2026-03-29T13:07:13Z</time></trkpt><trkpt lat="41.87393281660959" lon="13.291076860088229"><ele>743.0</ele><time>2026-03-29T13:07:14Z</time></trkpt><trkpt lat="41.87761535756831" lon="13.302153356930544"><ele>764.5</ele><time>2026-03-29T13:08:14.999Z</time></trkpt><trkpt lat="41.87764967979961" lon="13.30236920309648"><ele>786.0</ele><time>2026-03-29T13:08:15.999Z</time></trkpt><trkpt lat="41.87770108882611" lon="13.302571032152546"><ele>807.5</ele><time>2026-03-29T13:08:16.999Z</time></trkpt><trkpt lat="41.877759416484345" lon="13.302719941703996"><ele>829.0</ele><time>2026-03-29T13:08:17.999Z</time></trkpt><trkpt lat="41.877800241566476" lon="13.30289577470494"><ele>827.3333333333333</ele><time>2026-03-29T13:08:18.999Z</time></trkpt><trkpt lat="41.87779766328665" lon="13.303105909896797"><ele>825.6666666666667</ele><time>2026-03-29T13:08:19.999Z</time></trkpt><trkpt lat="41.87776445345597" lon="13.303322945922238"><ele>824.0</ele><time>2026-03-29T13:08:20.999Z</time></trkpt><trkpt lat="41.877735507535256" lon="13.30350758677947"><ele>824.0</ele><time>2026-03-29T13:08:21.999Z</time></trkpt><trkpt lat="41.87773388067811" lon="13.303683681231222"><ele>824.0</ele><time>2026-03-29T13:08:22.999Z</time></trkpt><trkpt lat="41.877772499026634" lon="13.30388054325325"><ele>824.0</ele><time>2026-03-29T13:08:24.001Z</time></trkpt><trkpt lat="41.87784482599755" lon="13.304079523960342"><ele>824.0</ele><time>2026-03-29T13:08:25.001Z</time></trkpt><trkpt lat="41.877923687810394" lon="13.304279586880606"><ele>821.0</ele><time>2026-03-29T13:08:26.001Z</time></trkpt><trkpt lat="41.87799567810661" lon="13.304459693012303"><ele>818.0</ele><time>2026-03-29T13:08:27.001Z</time></trkpt><trkpt lat="41.87807742458777" lon="13.304621703907262"><ele>815.0</ele><time>2026-03-29T13:08:28.001Z</time></trkpt><trkpt lat="41.87818129405584" lon="13.304774187823448"><ele>811.25</ele><time>2026-03-29T13:08:29.001Z</time></trkpt><trkpt lat="41.87830831864574" lon="13.304893098672448"><ele>807.5</ele><time>2026-03-29T13:08:30.001Z</time></trkpt><trkpt lat="41.878446092239884" lon="13.304978729193026"><ele>803.75</ele><time>2026-03-29T13:08:31.001Z</time></trkpt><trkpt lat="41.878549810300065" lon="13.305087117102884"><ele>800.0</ele><time>2026-03-29T13:08:32.001Z</time></trkpt><trkpt lat="41.878639407244734" lon="13.305238755013201"><ele>806.6666666666667</ele><time>2026-03-29T13:08:33.001Z</time></trkpt><trkpt lat="41.87874692374035" lon="13.305420114729923"><ele>813.3333333333333</ele><time>2026-03-29T13:08:34.001Z</time></trkpt><trkpt lat="41.87883044361514" lon="13.305636472066592"><ele>820.0</ele><time>2026-03-29T13:08:35.001Z</time></trkpt><trkpt lat="41.87892702640426" lon="13.30585119074659"><ele>820.0</ele><time>2026-03-29T13:08:36.001Z</time></trkpt><trkpt lat="41.8790243372871" lon="13.306071885161094"><ele>820.0</ele><time>2026-03-29T13:08:37.001Z</time></trkpt><trkpt lat="41.87910172770814" lon="13.306296531110348"><ele>820.0</ele><time>2026-03-29T13:08:38Z</time></trkpt><trkpt lat="41.879175502122415" lon="13.306506426145859"><ele>817.3333333333333</ele><time>2026-03-29T13:08:39Z</time></trkpt><trkpt lat="41.879239484765385" lon="13.306704057420545"><ele>814.6666666666667</ele><time>2026-03-29T13:08:40Z</time></trkpt><trkpt lat="41.87930735869902" lon="13.306891675896797"><ele>812.0</ele><time>2026-03-29T13:08:41Z</time></trkpt><trkpt lat="41.879393441234775" lon="13.30705977075524"><ele>813.0</ele><time>2026-03-29T13:08:42Z</time></trkpt><trkpt lat="41.87949228159349" lon="13.307207217413303"><ele>814.0</ele><time>2026-03-29T13:08:43Z</time></trkpt><trkpt lat="41.8796027181619" lon="13.3073307898721"><ele>815.0</ele><time>2026-03-29T13:08:44Z</time></trkpt><trkpt lat="41.8797585308968" lon="13.30741492352902"><ele>815.0</ele><time>2026-03-29T13:08:45Z</time></trkpt><trkpt lat="41.87992856877547" lon="13.30748749629253"><ele>815.0</ele><time>2026-03-29T13:08:46Z</time></trkpt><trkpt lat="41.88009859622154" lon="13.30757305693016"><ele>815.0</ele><time>2026-03-29T13:08:47Z</time></trkpt><trkpt lat="41.88026241365974" lon="13.307634843246989"><ele>820.0</ele><time>2026-03-29T13:08:48Z</time></trkpt><trkpt lat="41.88041402433036" lon="13.307658362655216"><ele>825.0</ele><time>2026-03-29T13:08:49Z</time></trkpt><trkpt lat="41.880555903648045" lon="13.3076777442914"><ele>830.0</ele><time>2026-03-29T13:08:50Z</time></trkpt><trkpt lat="41.880691483985125" lon="13.307779192449928"><ele>830.0</ele><time>2026-03-29T13:08:51Z</time></trkpt><trkpt lat="41.88081831611573" lon="13.30791749908218"><ele>830.0</ele><time>2026-03-29T13:08:52Z</time></trkpt><trkpt lat="41.880943495087166" lon="13.30804674590109"><ele>830.0</ele><time>2026-03-29T13:08:53Z</time></trkpt><trkpt lat="41.88104534015124" lon="13.308183245037576"><ele>829.0</ele><time>2026-03-29T13:08:54Z</time></trkpt><trkpt lat="41.88116607779053" lon="13.308303858943063"><ele>828.0</ele><time>2026-03-29T13:08:55Z</time></trkpt><trkpt lat="41.881291429656486" lon="13.308436213876426"><ele>827.0</ele><time>2026-03-29T13:08:56Z</time></trkpt><trkpt lat="41.88140905053131" lon="13.308547291577652"><ele>827.0</ele><time>2026-03-29T13:08:57Z</time></trkpt><trkpt lat="41.88151598493636" lon="13.308648530234947"><ele>827.0</ele><time>2026-03-29T13:08:58Z</time></trkpt><trkpt lat="41.8816454687516" lon="13.308721465699639"><ele>827.0</ele><time>2026-03-29T13:08:59Z</time></trkpt><trkpt lat="41.88179044973017" lon="13.30876007140213"><ele>827.0</ele><time>2026-03-29T13:09:00Z</time></trkpt><trkpt lat="41.88193584031444" lon="13.308780567645874"><ele>829.25</ele><time>2026-03-29T13:09:01Z</time></trkpt><trkpt lat="41.88208327375035" lon="13.308779858426234"><ele>831.5</ele><time>2026-03-29T13:09:02Z</time></trkpt><trkpt lat="41.88223218782665" lon="13.30874519277911"><ele>833.75</ele><time>2026-03-29T13:09:03Z</time></trkpt><trkpt lat="41.88236167451249" lon="13.308672959320946"><ele>836.0</ele><time>2026-03-29T13:09:04Z</time></trkpt><trkpt lat="41.882478455266444" lon="13.308613468610318"><ele>839.25</ele><time>2026-03-29T13:09:05Z</time></trkpt><trkpt lat="41.88261054277119" lon="13.308609908024629"><ele>842.5</ele><time>2026-03-29T13:09:06Z</time></trkpt><trkpt lat="41.882754104207336" lon="13.308645223282657"><ele>845.75</ele><time>2026-03-29T13:09:07Z</time></trkpt><trkpt lat="41.88290436645821" lon="13.308729842627752"><ele>849.0</ele><time>2026-03-29T13:09:08Z</time></trkpt><trkpt lat="41.88303635512443" lon="13.308849330153919"><ele>844.0</ele><time>2026-03-29T13:09:09Z</time></trkpt><trkpt lat="41.883149944226254" lon="13.308960375953118"><ele>839.0</ele><time>2026-03-29T13:09:10Z</time></trkpt><trkpt lat="41.88326278577105" lon="13.309042333182234"><ele>834.0</ele><time>2026-03-29T13:09:11Z</time></trkpt><trkpt lat="41.88340710443425" lon="13.309060809949706"><ele>829.0</ele><time>2026-03-29T13:09:12Z</time></trkpt><trkpt lat="41.883548248632174" lon="13.309033698864342"><ele>829.0</ele><time>2026-03-29T13:09:13Z</time></trkpt><trkpt lat="41.88367179958074" lon="13.309017523330672"><ele>829.0</ele><time>2026-03-29T13:09:14Z</time></trkpt><trkpt lat="41.887524647272414" lon="13.313299339577583"><ele>845.75</ele><time>2026-03-29T13:10:14.999Z</time></trkpt><trkpt lat="41.88759603577812" lon="13.31342945727261"><ele>862.5</ele><time>2026-03-29T13:10:15.999Z</time></trkpt><trkpt lat="41.88766396782957" lon="13.313586848847557"><ele>879.25</ele><time>2026-03-29T13:10:16.999Z</time></trkpt><trkpt lat="41.887709579204405" lon="13.3137735100812"><ele>896.0</ele><time>2026-03-29T13:10:17.999Z</time></trkpt><trkpt lat="41.88773809858623" lon="13.313965386448762"><ele>896.0</ele><time>2026-03-29T13:10:18.999Z</time></trkpt><trkpt lat="41.88775785724555" lon="13.314174288695657"><ele>896.0</ele><time>2026-03-29T13:10:19.999Z</time></trkpt><trkpt lat="41.88776856547899" lon="13.31435066543252"><ele>896.0</ele><time>2026-03-29T13:10:20.999Z</time></trkpt><trkpt lat="41.887783271975195" lon="13.31446824075719"><ele>896.0</ele><time>2026-03-29T13:10:21.999Z</time></trkpt><trkpt lat="41.88784357246915" lon="13.314606028191669"><ele>896.0</ele><time>2026-03-29T13:10:23.999Z</time></trkpt><trkpt lat="41.887915620116225" lon="13.314621174798797"><ele>896.0</ele><time>2026-03-29T13:10:25.999Z</time></trkpt><trkpt lat="41.887962254079135" lon="13.314370947316627"><ele>896.0</ele><time>2026-03-29T13:10:26.999Z</time></trkpt><trkpt lat="41.88792048320093" lon="13.314209508873608"><ele>896.0</ele><time>2026-03-29T13:10:27.999Z</time></trkpt><trkpt lat="41.88790533329914" lon="13.314016715703545"><ele>901.3333333333334</ele><time>2026-03-29T13:10:28.999Z</time></trkpt><trkpt lat="41.88791525588554" lon="13.313774818949538"><ele>906.6666666666667</ele><time>2026-03-29T13:10:30Z</time></trkpt><trkpt lat="41.88787354310324" lon="13.313555590008853"><ele>912.0</ele><time>2026-03-29T13:10:31Z</time></trkpt><trkpt lat="41.88782183679876" lon="13.313370363679736"><ele>912.0</ele><time>2026-03-29T13:10:32Z</time></trkpt><trkpt lat="41.88775835626637" lon="13.313231060698087"><ele>912.0</ele><time>2026-03-29T13:10:33Z</time></trkpt><trkpt lat="41.88773373472852" lon="13.313130305379223"><ele>912.0</ele><time>2026-03-29T13:10:34Z</time></trkpt><trkpt lat="41.88778513477522" lon="13.313023970097552"><ele>912.0</ele><time>2026-03-29T13:10:37Z</time></trkpt><trkpt lat="41.88785912838983" lon="13.313091338986805"><ele>912.0</ele><time>2026-03-29T13:10:38Z</time></trkpt><trkpt lat="41.88788456301375" lon="13.313225606987864"><ele>912.0</ele><time>2026-03-29T13:10:39Z</time></trkpt><trkpt lat="41.88794116958027" lon="13.313403850138009"><ele>912.0</ele><time>2026-03-29T13:10:40Z</time></trkpt><trkpt lat="41.88800244750533" lon="13.313586371797662"><ele>912.0</ele><time>2026-03-29T13:10:41Z</time></trkpt><trkpt lat="41.888032897670634" lon="13.31373557768732"><ele>912.0</ele><time>2026-03-29T13:10:42Z</time></trkpt><trkpt lat="41.88809003254841" lon="13.31385662325001"><ele>908.0</ele><time>2026-03-29T13:10:43Z</time></trkpt><trkpt lat="41.88812102453307" lon="13.31399094552005"><ele>904.0</ele><time>2026-03-29T13:10:44Z</time></trkpt><trkpt lat="41.888209251868055" lon="13.314194240049524"><ele>900.0</ele><time>2026-03-29T13:10:45Z</time></trkpt><trkpt lat="41.888250161032595" lon="13.31440727844746"><ele>896.0</ele><time>2026-03-29T13:10:46Z</time></trkpt><trkpt lat="41.88831905777467" lon="13.314523197476925"><ele>896.0</ele><time>2026-03-29T13:10:47Z</time></trkpt><trkpt lat="41.8884180686888" lon="13.314610118144813"><ele>896.0</ele><time>2026-03-29T13:10:48Z</time></trkpt><trkpt lat="41.888547994476845" lon="13.314652377947429"><ele>896.0</ele><time>2026-03-29T13:10:49Z</time></trkpt><trkpt lat="41.888710133478995" lon="13.314692653149178"><ele>896.0</ele><time>2026-03-29T13:10:50Z</time></trkpt><trkpt lat="41.88887529789664" lon="13.314734264596426"><ele>896.6666666666667</ele><time>2026-03-29T13:10:51Z</time></trkpt><trkpt lat="41.88903476209978" lon="13.314834362637447"><ele>897.3333333333333</ele><time>2026-03-29T13:10:52Z</time></trkpt><trkpt lat="41.889212459263646" lon="13.314956496924504"><ele>898.0</ele><time>2026-03-29T13:10:53Z</time></trkpt><trkpt lat="41.88939348085809" lon="13.315094868245922"><ele>907.3333333333333</ele><time>2026-03-29T13:10:54Z</time></trkpt><trkpt lat="41.88954923855287" lon="13.315228634543502"><ele>916.6666666666667</ele><time>2026-03-29T13:10:55Z</time></trkpt><trkpt lat="41.88967922243245" lon="13.315341921637211"><ele>926.0</ele><time>2026-03-29T13:10:56Z</time></trkpt><trkpt lat="41.8897972022603" lon="13.315446681275342"><ele>926.0</ele><time>2026-03-29T13:10:57Z</time></trkpt><trkpt lat="41.88989593447131" lon="13.315534349788868"><ele>926.0</ele><time>2026-03-29T13:10:58Z</time></trkpt><trkpt lat="41.88997887783955" lon="13.315607998713602"><ele>926.0</ele><time>2026-03-29T13:10:59Z</time></trkpt><trkpt lat="41.89012598219857" lon="13.315510140390646"><ele>926.0</ele><time>2026-03-29T13:11:00Z</time></trkpt><trkpt lat="41.89023124121476" lon="13.315463566707843"><ele>925.0</ele><time>2026-03-29T13:11:01Z</time></trkpt><trkpt lat="41.89035474636774" lon="13.315468632064382"><ele>924.0</ele><time>2026-03-29T13:11:02Z</time></trkpt><trkpt lat="41.890485173589056" lon="13.31552934897099"><ele>923.0</ele><time>2026-03-29T13:11:03Z</time></trkpt><trkpt lat="41.890613253529445" lon="13.315656694561808"><ele>922.0</ele><time>2026-03-29T13:11:04Z</time></trkpt><trkpt lat="41.89072549987474" lon="13.315795690091122"><ele>921.9999999999999</ele><time>2026-03-29T13:11:05Z</time></trkpt><trkpt lat="41.89080295286639" lon="13.315899661793122"><ele>922.0</ele><time>2026-03-29T13:11:06Z</time></trkpt><trkpt lat="41.89085843414833" lon="13.315992255841042"><ele>922.0</ele><time>2026-03-29T13:11:07Z</time></trkpt><trkpt lat="41.89085994112042" lon="13.316109359218101"><ele>922.0</ele><time>2026-03-29T13:11:08Z</time></trkpt><trkpt lat="41.89082123955365" lon="13.316207933416397"><ele>921.9999999999999</ele><time>2026-03-29T13:11:09Z</time></trkpt><trkpt lat="41.89078504563456" lon="13.316288985087226"><ele>922.0</ele><time>2026-03-29T13:11:10Z</time></trkpt><trkpt lat="41.89067363180215" lon="13.316341492822815"><ele>922.0</ele><time>2026-03-29T13:11:12Z</time></trkpt><trkpt lat="41.89059492272936" lon="13.316312790234393"><ele>922.0</ele><time>2026-03-29T13:11:13Z</time></trkpt><trkpt lat="41.89051821324144" lon="13.316269623389527"><ele>922.0</ele><time>2026-03-29T13:11:14Z</time></trkpt><trkpt lat="41.88909233516157" lon="13.320084510747533"><ele>934.75</ele><time>2026-03-29T13:12:14.999Z</time></trkpt><trkpt lat="41.88895546810858" lon="13.319991637796921"><ele>947.5</ele><time>2026-03-29T13:12:15.999Z</time></trkpt><trkpt lat="41.88886507446384" lon="13.319891328405939"><ele>960.25</ele><time>2026-03-29T13:12:16.999Z</time></trkpt><trkpt lat="41.88880833083781" lon="13.319770646271191"><ele>973.0</ele><time>2026-03-29T13:12:17.999Z</time></trkpt><trkpt lat="41.888769658765675" lon="13.319626016090837"><ele>976.0</ele><time>2026-03-29T13:12:18.999Z</time></trkpt><trkpt lat="41.888758395468564" lon="13.319437741816557"><ele>979.0</ele><time>2026-03-29T13:12:19.999Z</time></trkpt><trkpt lat="41.88875118227979" lon="13.319248350261173"><ele>982.0</ele><time>2026-03-29T13:12:20.999Z</time></trkpt><trkpt lat="41.888731256755214" lon="13.31908299349495"><ele>985.0</ele><time>2026-03-29T13:12:21.999Z</time></trkpt><trkpt lat="41.888694018402276" lon="13.318948215713128"><ele>984.4</ele><time>2026-03-29T13:12:22.999Z</time></trkpt><trkpt lat="41.888659923019034" lon="13.318844416704112"><ele>983.8</ele><time>2026-03-29T13:12:23.999Z</time></trkpt><trkpt lat="41.88865572868637" lon="13.318713856450017"><ele>983.2</ele><time>2026-03-29T13:12:25.999Z</time></trkpt><trkpt lat="41.88876382911085" lon="13.318686191188728"><ele>982.6</ele><time>2026-03-29T13:12:27.999Z</time></trkpt><trkpt lat="41.88881379771744" lon="13.318763338117169"><ele>982.0</ele><time>2026-03-29T13:12:28.999Z</time></trkpt><trkpt lat="41.888825421350944" lon="13.318878918215416"><ele>982.75</ele><time>2026-03-29T13:12:29.999Z</time></trkpt><trkpt lat="41.88881495365025" lon="13.319044021787235"><ele>983.5</ele><time>2026-03-29T13:12:30.999Z</time></trkpt><trkpt lat="41.88882057215382" lon="13.319224476104628"><ele>984.25</ele><time>2026-03-29T13:12:31.999Z</time></trkpt><trkpt lat="41.88884452244742" lon="13.319402537302793"><ele>985.0</ele><time>2026-03-29T13:12:32.999Z</time></trkpt><trkpt lat="41.888885745223604" lon="13.31954825690277"><ele>985.0</ele><time>2026-03-29T13:12:33.999Z</time></trkpt><trkpt lat="41.88896803936615" lon="13.319678766330966"><ele>985.0</ele><time>2026-03-29T13:12:34.999Z</time></trkpt><trkpt lat="41.889091229894454" lon="13.319789349447388"><ele>985.0</ele><time>2026-03-29T13:12:36Z</time></trkpt><trkpt lat="41.889222347362534" lon="13.319868049327328"><ele>985.0</ele><time>2026-03-29T13:12:37Z</time></trkpt><trkpt lat="41.88932031820507" lon="13.319938842450595"><ele>989.5</ele><time>2026-03-29T13:12:38Z</time></trkpt><trkpt lat="41.88943275940659" lon="13.32003979029297"><ele>994.0</ele><time>2026-03-29T13:12:39Z</time></trkpt><trkpt lat="41.88955220892465" lon="13.32015282515485"><ele>998.5</ele><time>2026-03-29T13:12:40Z</time></trkpt><trkpt lat="41.889693789457915" lon="13.320228284434927"><ele>1003.0</ele><time>2026-03-29T13:12:41Z</time></trkpt><trkpt lat="41.889817243768036" lon="13.320265958673987"><ele>1003.0</ele><time>2026-03-29T13:12:42Z</time></trkpt><trkpt lat="41.88995698469586" lon="13.320318348426985"><ele>1003.0</ele><time>2026-03-29T13:12:43Z</time></trkpt><trkpt lat="41.89007287517582" lon="13.320402835122746"><ele>1003.0</ele><time>2026-03-29T13:12:44Z</time></trkpt><trkpt lat="41.890180499555925" lon="13.320473199273248"><ele>1003.0</ele><time>2026-03-29T13:12:45Z</time></trkpt><trkpt lat="41.89025852938064" lon="13.32057356386118"><ele>1005.2</ele><time>2026-03-29T13:12:46Z</time></trkpt><trkpt lat="41.890282787995645" lon="13.320726232684535"><ele>1007.4</ele><time>2026-03-29T13:12:47Z</time></trkpt><trkpt lat="41.89025213783579" lon="13.320867240695039"><ele>1009.6000000000001</ele><time>2026-03-29T13:12:48Z</time></trkpt><trkpt lat="41.890246519632875" lon="13.32096678205878"><ele>1011.8000000000001</ele><time>2026-03-29T13:12:49Z</time></trkpt><trkpt lat="41.890320826146755" lon="13.321071857155474"><ele>1014.0</ele><time>2026-03-29T13:12:50Z</time></trkpt><trkpt lat="41.89044024512071" lon="13.321186893892715"><ele>1014.0</ele><time>2026-03-29T13:12:51Z</time></trkpt><trkpt lat="41.890568778335634" lon="13.321286928051023"><ele>1014.0</ele><time>2026-03-29T13:12:52Z</time></trkpt><trkpt lat="41.89068586292603" lon="13.321422968366587"><ele>1014.0</ele><time>2026-03-29T13:12:53Z</time></trkpt><trkpt lat="41.89077124077522" lon="13.321556173132661"><ele>1014.0</ele><time>2026-03-29T13:12:54Z</time></trkpt><trkpt lat="41.890826408261454" lon="13.32170290534411"><ele>1014.0</ele><time>2026-03-29T13:12:55Z</time></trkpt><trkpt lat="41.89085929074143" lon="13.32183368834928"><ele>1014.0000000000001</ele><time>2026-03-29T13:12:56Z</time></trkpt><trkpt lat="41.890918645669835" lon="13.321921099647053"><ele>1014.0000000000001</ele><time>2026-03-29T13:12:57Z</time></trkpt><trkpt lat="41.89101659605102" lon="13.321966306664866"><ele>1014.0</ele><time>2026-03-29T13:12:58Z</time></trkpt><trkpt lat="41.89114330307746" lon="13.321933796209224"><ele>1014.0</ele><time>2026-03-29T13:12:59Z</time></trkpt><trkpt lat="41.89126495311007" lon="13.321854554414983"><ele>1014.0</ele><time>2026-03-29T13:13:00Z</time></trkpt><trkpt lat="41.89135879569739" lon="13.321823986178202"><ele>1014.0000000000001</ele><time>2026-03-29T13:13:01Z</time></trkpt><trkpt lat="41.891433580320545" lon="13.321816350795608"><ele>1014.0000000000001</ele><time>2026-03-29T13:13:02Z</time></trkpt><trkpt lat="41.89150172728487" lon="13.321878605116545"><ele>1014.0</ele><time>2026-03-29T13:13:03Z</time></trkpt><trkpt lat="41.891547665115006" lon="13.322028186652764"><ele>1014.0</ele><time>2026-03-29T13:13:04Z</time></trkpt><trkpt lat="41.89155697249538" lon="13.322194457458622"><ele>1014.75</ele><time>2026-03-29T13:13:05Z</time></trkpt><trkpt lat="41.89153324476813" lon="13.32235980119199"><ele>1015.5</ele><time>2026-03-29T13:13:06Z</time></trkpt><trkpt lat="41.89148613921268" lon="13.322508956357895"><ele>1016.25</ele><time>2026-03-29T13:13:07Z</time></trkpt><trkpt lat="41.89140263123607" lon="13.322637182178017"><ele>1017.0</ele><time>2026-03-29T13:13:08Z</time></trkpt><trkpt lat="41.8912916226528" lon="13.322745855943682"><ele>1017.0</ele><time>2026-03-29T13:13:09Z</time></trkpt><trkpt lat="41.89118126446852" lon="13.322852085423857"><ele>1017.0</ele><time>2026-03-29T13:13:10Z</time></trkpt><trkpt lat="41.89108768547673" lon="13.322954033530431"><ele>1017.0</ele><time>2026-03-29T13:13:11Z</time></trkpt><trkpt lat="41.89100738949586" lon="13.323041484150846"><ele>1017.0</ele><time>2026-03-29T13:13:12Z</time></trkpt><trkpt lat="41.890948093933844" lon="13.32313261681115"><ele>1017.0</ele><time>2026-03-29T13:13:13Z</time></trkpt><trkpt lat="41.890899933291124" lon="13.323266537386763"><ele>1017.0</ele><time>2026-03-29T13:13:14Z</time></trkpt><trkpt lat="41.89058411618933" lon="13.32430777498774"><ele>1017.0</ele><time>2026-03-29T13:14:17.999Z</time></trkpt><trkpt lat="41.89055326153653" lon="13.324392164886289"><ele>1017.0</ele><time>2026-03-29T13:14:55Z</time></trkpt><trkpt lat="41.89056914439265" lon="13.324503713776322"><ele>1017.0</ele><time>2026-03-29T13:14:57Z</time></trkpt><trkpt lat="41.8906346632957" lon="13.324506834741552"><ele>1017.0</ele><time>2026-03-29T13:15:00Z</time></trkpt></trkseg><trkseg><trkpt lat="41.89087808836167" lon="13.327413336327979"><ele>1037.4</ele><time>2026-03-29T13:25:16Z</time></trkpt><trkpt lat="41.89097532109126" lon="13.327534766506632"><ele>1040.8000000000002</ele><time>2026-03-29T13:25:17Z</time></trkpt><trkpt lat="41.89105096659574" lon="13.327645062582404"><ele>1044.1999999999998</ele><time>2026-03-29T13:25:18Z</time></trkpt><trkpt lat="41.89109629885321" lon="13.327769937223906"><ele>1047.6</ele><time>2026-03-29T13:25:19Z</time></trkpt><trkpt lat="41.891099733562285" lon="13.327899955213468"><ele>1051.0</ele><time>2026-03-29T13:25:20Z</time></trkpt><trkpt lat="41.891050795154946" lon="13.327995421658846"><ele>1051.0</ele><time>2026-03-29T13:25:21Z</time></trkpt><trkpt lat="41.89096705006727" lon="13.328051100098476"><ele>1051.0</ele><time>2026-03-29T13:25:22Z</time></trkpt><trkpt lat="41.89085980028943" lon="13.32808512815457"><ele>1051.0</ele><time>2026-03-29T13:25:23Z</time></trkpt><trkpt lat="41.89073979516643" lon="13.328131805861176"><ele>1051.0</ele><time>2026-03-29T13:25:24Z</time></trkpt><trkpt lat="41.89061078744199" lon="13.328197089545567"><ele>1047.5</ele><time>2026-03-29T13:25:25Z</time></trkpt><trkpt lat="41.89048550050794" lon="13.328256229880932"><ele>1044.0</ele><time>2026-03-29T13:25:26Z</time></trkpt><trkpt lat="41.89036072221044" lon="13.328276036322395"><ele>1040.5</ele><time>2026-03-29T13:25:27Z</time></trkpt><trkpt lat="41.89024222164526" lon="13.328238861747469"><ele>1037.0</ele><time>2026-03-29T13:25:28Z</time></trkpt><trkpt lat="41.89013811473143" lon="13.32819651647712"><ele>1036.0</ele><time>2026-03-29T13:25:29Z</time></trkpt><trkpt lat="41.89003797080465" lon="13.328203577893452"><ele>1035.0</ele><time>2026-03-29T13:25:30Z</time></trkpt><trkpt lat="41.88994516535635" lon="13.328282696050474"><ele>1034.0</ele><time>2026-03-29T13:25:31Z</time></trkpt><trkpt lat="41.88988035280202" lon="13.328420483095474"><ele>1033.0</ele><time>2026-03-29T13:25:32Z</time></trkpt><trkpt lat="41.88984693897317" lon="13.328585459175638"><ele>1033.0</ele><time>2026-03-29T13:25:33Z</time></trkpt><trkpt lat="41.88986965994035" lon="13.328772638080887"><ele>1033.0</ele><time>2026-03-29T13:25:34Z</time></trkpt><trkpt lat="41.889914408188574" lon="13.328935501802407"><ele>1033.0</ele><time>2026-03-29T13:25:35Z</time></trkpt><trkpt lat="41.88997969294513" lon="13.329068189331908"><ele>1033.0</ele><time>2026-03-29T13:25:36Z</time></trkpt><trkpt lat="41.890064800399756" lon="13.32919402418522"><ele>1037.25</ele><time>2026-03-29T13:25:37Z</time></trkpt><trkpt lat="41.890183713375315" lon="13.329269233336749"><ele>1041.5</ele><time>2026-03-29T13:25:38Z</time></trkpt><trkpt lat="41.890312632913734" lon="13.329311871651974"><ele>1045.75</ele><time>2026-03-29T13:25:39Z</time></trkpt><trkpt lat="41.8904606394125" lon="13.329302358707142"><ele>1050.0</ele><time>2026-03-29T13:25:40Z</time></trkpt><trkpt lat="41.890604237002485" lon="13.329267151091244"><ele>1050.0</ele><time>2026-03-29T13:25:41Z</time></trkpt><trkpt lat="41.89072927435483" lon="13.329277354126246"><ele>1050.0</ele><time>2026-03-29T13:25:42Z</time></trkpt><trkpt lat="41.89082128338974" lon="13.32936958964459"><ele>1050.0</ele><time>2026-03-29T13:25:43Z</time></trkpt><trkpt lat="41.89091621957262" lon="13.329526972332959"><ele>1050.0</ele><time>2026-03-29T13:25:44Z</time></trkpt><trkpt lat="41.89100638774927" lon="13.329703313852484"><ele>1054.0</ele><time>2026-03-29T13:25:45Z</time></trkpt><trkpt lat="41.89108283146448" lon="13.329869496417155"><ele>1058.0</ele><time>2026-03-29T13:25:46Z</time></trkpt><trkpt lat="41.8911195405688" lon="13.330052821548792"><ele>1062.0</ele><time>2026-03-29T13:25:47Z</time></trkpt><trkpt lat="41.891143356627815" lon="13.330241694364444"><ele>1066.0</ele><time>2026-03-29T13:25:48Z</time></trkpt><trkpt lat="41.89114942163363" lon="13.330411959815056"><ele>1066.0</ele><time>2026-03-29T13:25:49Z</time></trkpt><trkpt lat="41.89110904339358" lon="13.330553803718784"><ele>1066.0</ele><time>2026-03-29T13:25:50Z</time></trkpt><trkpt lat="41.89104527842037" lon="13.330688003389415"><ele>1066.0</ele><time>2026-03-29T13:25:51Z</time></trkpt><trkpt lat="41.89097066405561" lon="13.330825624687145"><ele>1066.0</ele><time>2026-03-29T13:25:52Z</time></trkpt><trkpt lat="41.89090543137782" lon="13.330989302274816"><ele>1066.5</ele><time>2026-03-29T13:25:53Z</time></trkpt><trkpt lat="41.89084282408905" lon="13.331168617004806"><ele>1067.0</ele><time>2026-03-29T13:25:54Z</time></trkpt><trkpt lat="41.89075496173193" lon="13.331335199880774"><ele>1067.5</ele><time>2026-03-29T13:25:55Z</time></trkpt><trkpt lat="41.890656280038996" lon="13.331465395913005"><ele>1068.0</ele><time>2026-03-29T13:25:56Z</time></trkpt><trkpt lat="41.890574248902176" lon="13.331592787856778"><ele>1068.0</ele><time>2026-03-29T13:25:57Z</time></trkpt><trkpt lat="41.890528605077606" lon="13.331770772403036"><ele>1068.0</ele><time>2026-03-29T13:25:58Z</time></trkpt><trkpt lat="41.89052147688052" lon="13.33199224096797"><ele>1068.0</ele><time>2026-03-29T13:25:59Z</time></trkpt><trkpt lat="41.89053950312692" lon="13.332218627632155"><ele>1069.3333333333333</ele><time>2026-03-29T13:26:00Z</time></trkpt><trkpt lat="41.890579336605924" lon="13.332445532592791"><ele>1070.6666666666665</ele><time>2026-03-29T13:26:01Z</time></trkpt><trkpt lat="41.89061222658308" lon="13.332663633059544"><ele>1072.0</ele><time>2026-03-29T13:26:02Z</time></trkpt><trkpt lat="41.89067838796321" lon="13.332894634421242"><ele>1072.3333333333333</ele><time>2026-03-29T13:26:03Z</time></trkpt><trkpt lat="41.89076713121835" lon="13.33310434431918"><ele>1072.6666666666667</ele><time>2026-03-29T13:26:04Z</time></trkpt><trkpt lat="41.89085236874022" lon="13.333286057134263"><ele>1073.0</ele><time>2026-03-29T13:26:05Z</time></trkpt><trkpt lat="41.89094784703719" lon="13.333470300415712"><ele>1075.6666666666667</ele><time>2026-03-29T13:26:06Z</time></trkpt><trkpt lat="41.89107388156127" lon="13.333653779397077"><ele>1078.3333333333333</ele><time>2026-03-29T13:26:07Z</time></trkpt><trkpt lat="41.89121737925282" lon="13.333842452567326"><ele>1081.0</ele><time>2026-03-29T13:26:08Z</time></trkpt><trkpt lat="41.891363044265624" lon="13.334028974303852"><ele>1081.0</ele><time>2026-03-29T13:26:09Z</time></trkpt><trkpt lat="41.89147732504306" lon="13.334205682294844"><ele>1081.0</ele><time>2026-03-29T13:26:09.999Z</time></trkpt><trkpt lat="41.89156939993512" lon="13.33436982103591"><ele>1081.0</ele><time>2026-03-29T13:26:10.999Z</time></trkpt><trkpt lat="41.89165741278646" lon="13.334518568642423"><ele>1085.6666666666665</ele><time>2026-03-29T13:26:11.999Z</time></trkpt><trkpt lat="41.891770577679566" lon="13.334652719233741"><ele>1090.3333333333333</ele><time>2026-03-29T13:26:12.999Z</time></trkpt><trkpt lat="41.89191285424587" lon="13.334764931759786"><ele>1095.0</ele><time>2026-03-29T13:26:13.999Z</time></trkpt><trkpt lat="41.89509849767943" lon="13.336379111177303"><ele>1114.6666666666667</ele><time>2026-03-29T13:27:15Z</time></trkpt><trkpt lat="41.89516197145779" lon="13.336582203912794"><ele>1134.3333333333335</ele><time>2026-03-29T13:27:16Z</time></trkpt><trkpt lat="41.89525565133241" lon="13.336771607588886"><ele>1154.0</ele><time>2026-03-29T13:27:17Z</time></trkpt><trkpt lat="41.89538009841209" lon="13.336957560274003"><ele>1154.0</ele><time>2026-03-29T13:27:18Z</time></trkpt><trkpt lat="41.89551543938856" lon="13.337159980646177"><ele>1154.0</ele><time>2026-03-29T13:27:19Z</time></trkpt><trkpt lat="41.89564165768201" lon="13.337374112649663"><ele>1154.0</ele><time>2026-03-29T13:27:20Z</time></trkpt><trkpt lat="41.89576007684178" lon="13.337564448548509"><ele>1150.6666666666667</ele><time>2026-03-29T13:27:21Z</time></trkpt><trkpt lat="41.89587552180745" lon="13.337727728645348"><ele>1147.3333333333333</ele><time>2026-03-29T13:27:22Z</time></trkpt><trkpt lat="41.89599257068815" lon="13.337871518647539"><ele>1144.0</ele><time>2026-03-29T13:27:23Z</time></trkpt><trkpt lat="41.89610058668059" lon="13.337999289637434"><ele>1152.3333333333333</ele><time>2026-03-29T13:27:24Z</time></trkpt><trkpt lat="41.89616583918031" lon="13.3381618820851"><ele>1160.6666666666667</ele><time>2026-03-29T13:27:25Z</time></trkpt><trkpt lat="41.89618007474143" lon="13.338405690222581"><ele>1169.0</ele><time>2026-03-29T13:27:26Z</time></trkpt><trkpt lat="41.896195178806614" lon="13.338628756039746"><ele>1169.0</ele><time>2026-03-29T13:27:27Z</time></trkpt><trkpt lat="41.89622894659781" lon="13.338801151969518"><ele>1169.0</ele><time>2026-03-29T13:27:28Z</time></trkpt><trkpt lat="41.896277777922315" lon="13.338963108019293"><ele>1169.0</ele><time>2026-03-29T13:27:29Z</time></trkpt><trkpt lat="41.8963254160467" lon="13.339136198476902"><ele>1169.0</ele><time>2026-03-29T13:27:30Z</time></trkpt><trkpt lat="41.89637346002106" lon="13.339308757891994"><ele>1168.5</ele><time>2026-03-29T13:27:31Z</time></trkpt><trkpt lat="41.89642236390534" lon="13.339488322380776"><ele>1168.0</ele><time>2026-03-29T13:27:32Z</time></trkpt><trkpt lat="41.896470164240505" lon="13.339672641597176"><ele>1167.5</ele><time>2026-03-29T13:27:33Z</time></trkpt><trkpt lat="41.8965206593566" lon="13.339851094910546"><ele>1167.0</ele><time>2026-03-29T13:27:34Z</time></trkpt><trkpt lat="41.8965731963196" lon="13.340028496957517"><ele>1165.5</ele><time>2026-03-29T13:27:35Z</time></trkpt><trkpt lat="41.896628941459014" lon="13.340200981222155"><ele>1164.0</ele><time>2026-03-29T13:27:36Z</time></trkpt><trkpt lat="41.89668823332412" lon="13.340374479987215"><ele>1162.5</ele><time>2026-03-29T13:27:37Z</time></trkpt><trkpt lat="41.89674775906193" lon="13.340546759724173"><ele>1161.0</ele><time>2026-03-29T13:27:38Z</time></trkpt><trkpt lat="41.89681095297697" lon="13.340717495874905"><ele>1164.5</ele><time>2026-03-29T13:27:39Z</time></trkpt><trkpt lat="41.89687468441596" lon="13.34089137803622"><ele>1168.0</ele><time>2026-03-29T13:27:40Z</time></trkpt><trkpt lat="41.896935547585116" lon="13.341065604606573"><ele>1171.5</ele><time>2026-03-29T13:27:41Z</time></trkpt><trkpt lat="41.89699859463913" lon="13.341238693593802"><ele>1175.0</ele><time>2026-03-29T13:27:42Z</time></trkpt><trkpt lat="41.89706116521446" lon="13.34141227427506"><ele>1175.0</ele><time>2026-03-29T13:27:43Z</time></trkpt><trkpt lat="41.89712058519101" lon="13.341584264780463"><ele>1175.0</ele><time>2026-03-29T13:27:44Z</time></trkpt><trkpt lat="41.897180196826596" lon="13.341756989131316"><ele>1175.0</ele><time>2026-03-29T13:27:45Z</time></trkpt><trkpt lat="41.897235484568455" lon="13.34193878790451"><ele>1175.0</ele><time>2026-03-29T13:27:46Z</time></trkpt><trkpt lat="41.89730347295618" lon="13.342111956507315"><ele>1173.75</ele><time>2026-03-29T13:27:47Z</time></trkpt><trkpt lat="41.89738000152022" lon="13.342279537607187"><ele>1172.5</ele><time>2026-03-29T13:27:48Z</time></trkpt><trkpt lat="41.89744655600941" lon="13.34244813343838"><ele>1171.25</ele><time>2026-03-29T13:27:49Z</time></trkpt><trkpt lat="41.89748879878027" lon="13.342626567747534"><ele>1170.0</ele><time>2026-03-29T13:27:50Z</time></trkpt><trkpt lat="41.89750661257867" lon="13.342802551562333"><ele>1170.0</ele><time>2026-03-29T13:27:51Z</time></trkpt><trkpt lat="41.897530050444274" lon="13.342973353054042"><ele>1170.0</ele><time>2026-03-29T13:27:52Z</time></trkpt><trkpt lat="41.897583342375725" lon="13.34313618843043"><ele>1170.0</ele><time>2026-03-29T13:27:53Z</time></trkpt><trkpt lat="41.897670688956076" lon="13.343293089512906"><ele>1170.0</ele><time>2026-03-29T13:27:54Z</time></trkpt><trkpt lat="41.89778661849584" lon="13.34342711449231"><ele>1177.3333333333333</ele><time>2026-03-29T13:27:55Z</time></trkpt><trkpt lat="41.89792130104515" lon="13.343529054670752"><ele>1184.6666666666665</ele><time>2026-03-29T13:27:56Z</time></trkpt><trkpt lat="41.89805800948539" lon="13.34362245424643"><ele>1192.0</ele><time>2026-03-29T13:27:57Z</time></trkpt><trkpt lat="41.898170335899735" lon="13.343760181627513"><ele>1187.6666666666665</ele><time>2026-03-29T13:27:58Z</time></trkpt><trkpt lat="41.89824987455631" lon="13.34394470267139"><ele>1183.3333333333333</ele><time>2026-03-29T13:27:59Z</time></trkpt><trkpt lat="41.8983162369534" lon="13.344164135581083"><ele>1179.0</ele><time>2026-03-29T13:28:00Z</time></trkpt><trkpt lat="41.898405782140706" lon="13.344367530368116"><ele>1180.0</ele><time>2026-03-29T13:28:01Z</time></trkpt><trkpt lat="41.898509629220165" lon="13.344528573827528"><ele>1181.0</ele><time>2026-03-29T13:28:02Z</time></trkpt><trkpt lat="41.89860841404006" lon="13.344651628186567"><ele>1182.0</ele><time>2026-03-29T13:28:03Z</time></trkpt><trkpt lat="41.898718410810616" lon="13.344740523441391"><ele>1183.0</ele><time>2026-03-29T13:28:04Z</time></trkpt><trkpt lat="41.89887267027179" lon="13.344770620110955"><ele>1183.0</ele><time>2026-03-29T13:28:05Z</time></trkpt><trkpt lat="41.89903940646419" lon="13.344754657029636"><ele>1183.0</ele><time>2026-03-29T13:28:06Z</time></trkpt><trkpt lat="41.89919909886757" lon="13.344726512905378"><ele>1183.0</ele><time>2026-03-29T13:28:07Z</time></trkpt><trkpt lat="41.89937031234613" lon="13.344727512241276"><ele>1187.5</ele><time>2026-03-29T13:28:08Z</time></trkpt><trkpt lat="41.899538919318005" lon="13.344754053158574"><ele>1192.0</ele><time>2026-03-29T13:28:09Z</time></trkpt><trkpt lat="41.89967925517048" lon="13.344792229213546"><ele>1196.5</ele><time>2026-03-29T13:28:10Z</time></trkpt><trkpt lat="41.89979848794502" lon="13.344834935670493"><ele>1201.0</ele><time>2026-03-29T13:28:11Z</time></trkpt><trkpt lat="41.89989042698856" lon="13.344895888371736"><ele>1201.0</ele><time>2026-03-29T13:28:12Z</time></trkpt><trkpt lat="41.89993808324422" lon="13.345011859144247"><ele>1201.0</ele><time>2026-03-29T13:28:13Z</time></trkpt><trkpt lat="41.899939620070164" lon="13.345157049844065"><ele>1201.0</ele><time>2026-03-29T13:28:14Z</time></trkpt><trkpt lat="41.90333444706787" lon="13.348269834386373"><ele>1225.6666666666665</ele><time>2026-03-29T13:29:14.998Z</time></trkpt><trkpt lat="41.903248320501724" lon="13.348036393977585"><ele>1250.3333333333333</ele><time>2026-03-29T13:29:15.998Z</time></trkpt><trkpt lat="41.903155258591234" lon="13.347812141595197"><ele>1275.0</ele><time>2026-03-29T13:29:16.998Z</time></trkpt><trkpt lat="41.90305180030491" lon="13.347598897112853"><ele>1275.0</ele><time>2026-03-29T13:29:17.998Z</time></trkpt><trkpt lat="41.9029304998834" lon="13.34741153919427"><ele>1275.0</ele><time>2026-03-29T13:29:18.998Z</time></trkpt><trkpt lat="41.90281099367944" lon="13.347257713409551"><ele>1275.0</ele><time>2026-03-29T13:29:19.998Z</time></trkpt><trkpt lat="41.902710342299606" lon="13.347123198645649"><ele>1272.8</ele><time>2026-03-29T13:29:21Z</time></trkpt><trkpt lat="41.902632234196695" lon="13.347002829630991"><ele>1270.6</ele><time>2026-03-29T13:29:22Z</time></trkpt><trkpt lat="41.90257973062795" lon="13.346884943803497"><ele>1268.4</ele><time>2026-03-29T13:29:23Z</time></trkpt><trkpt lat="41.902567911457616" lon="13.346743012300351"><ele>1266.2</ele><time>2026-03-29T13:29:24Z</time></trkpt><trkpt lat="41.90260478439025" lon="13.34660226210434"><ele>1264.0</ele><time>2026-03-29T13:29:25Z</time></trkpt><trkpt lat="41.90268933151101" lon="13.346526011256854"><ele>1269.75</ele><time>2026-03-29T13:29:26Z</time></trkpt><trkpt lat="41.90278958879813" lon="13.346523444392457"><ele>1275.5</ele><time>2026-03-29T13:29:27Z</time></trkpt><trkpt lat="41.90288371859403" lon="13.346601317904694"><ele>1281.25</ele><time>2026-03-29T13:29:28Z</time></trkpt><trkpt lat="41.902942857360586" lon="13.34673409891513"><ele>1287.0</ele><time>2026-03-29T13:29:29Z</time></trkpt><trkpt lat="41.90301128006861" lon="13.346888409424102"><ele>1287.0</ele><time>2026-03-29T13:29:30Z</time></trkpt><trkpt lat="41.90312972220161" lon="13.34702417959883"><ele>1287.0</ele><time>2026-03-29T13:29:31Z</time></trkpt><trkpt lat="41.9032672534772" lon="13.347117383497611"><ele>1287.0</ele><time>2026-03-29T13:29:32Z</time></trkpt><trkpt lat="41.90343120168881" lon="13.34715581743047"><ele>1287.3333333333333</ele><time>2026-03-29T13:29:33Z</time></trkpt><trkpt lat="41.90360727540512" lon="13.347162776865927"><ele>1287.6666666666665</ele><time>2026-03-29T13:29:34Z</time></trkpt><trkpt lat="41.90378728080348" lon="13.347217342926761"><ele>1288.0</ele><time>2026-03-29T13:29:35Z</time></trkpt><trkpt lat="41.90395893065093" lon="13.347308830844316"><ele>1288.0</ele><time>2026-03-29T13:29:36Z</time></trkpt><trkpt lat="41.90414142260409" lon="13.347390059069195"><ele>1288.0</ele><time>2026-03-29T13:29:37Z</time></trkpt><trkpt lat="41.904336554503175" lon="13.347438577898217"><ele>1288.0</ele><time>2026-03-29T13:29:38Z</time></trkpt><trkpt lat="41.904536197754275" lon="13.347465157168834"><ele>1292.3333333333333</ele><time>2026-03-29T13:29:39Z</time></trkpt><trkpt lat="41.904742931085266" lon="13.34748351486864"><ele>1296.6666666666667</ele><time>2026-03-29T13:29:40Z</time></trkpt><trkpt lat="41.904941769135135" lon="13.347503867823999"><ele>1301.0</ele><time>2026-03-29T13:29:41Z</time></trkpt><trkpt lat="41.90513078346522" lon="13.347527341792418"><ele>1303.6666666666667</ele><time>2026-03-29T13:29:42Z</time></trkpt><trkpt lat="41.905320469478895" lon="13.347543180024264"><ele>1306.3333333333333</ele><time>2026-03-29T13:29:43Z</time></trkpt><trkpt lat="41.90550718237298" lon="13.347561247436518"><ele>1309.0</ele><time>2026-03-29T13:29:44Z</time></trkpt><trkpt lat="41.90569570131775" lon="13.347588200381393"><ele>1309.0</ele><time>2026-03-29T13:29:45Z</time></trkpt><trkpt lat="41.905878449216836" lon="13.34762920893842"><ele>1309.0</ele><time>2026-03-29T13:29:46Z</time></trkpt><trkpt lat="41.90605841269256" lon="13.347675039897725"><ele>1309.0</ele><time>2026-03-29T13:29:47Z</time></trkpt><trkpt lat="41.906242092444764" lon="13.347716149901403"><ele>1313.6666666666665</ele><time>2026-03-29T13:29:48Z</time></trkpt><trkpt lat="41.90642785246879" lon="13.347755237413622"><ele>1318.3333333333333</ele><time>2026-03-29T13:29:49Z</time></trkpt><trkpt lat="41.90661985795704" lon="13.347790612387508"><ele>1323.0</ele><time>2026-03-29T13:29:50Z</time></trkpt><trkpt lat="41.90680512651534" lon="13.347828285363244"><ele>1329.3333333333333</ele><time>2026-03-29T13:29:51Z</time></trkpt><trkpt lat="41.906984846243674" lon="13.34786248888357"><ele>1335.6666666666665</ele><time>2026-03-29T13:29:52Z</time></trkpt><trkpt lat="41.90714758114845" lon="13.347907069054173"><ele>1342.0</ele><time>2026-03-29T13:29:53Z</time></trkpt><trkpt lat="41.90729393733998" lon="13.347985463642013"><ele>1336.3333333333333</ele><time>2026-03-29T13:29:54Z</time></trkpt><trkpt lat="41.90741318057419" lon="13.348125909600261"><ele>1330.6666666666667</ele><time>2026-03-29T13:29:55Z</time></trkpt><trkpt lat="41.90754765685218" lon="13.348244258775512"><ele>1325.0</ele><time>2026-03-29T13:29:56Z</time></trkpt><trkpt lat="41.907627648155945" lon="13.348455693096804"><ele>1330.0</ele><time>2026-03-29T13:29:57Z</time></trkpt><trkpt lat="41.907685678741174" lon="13.348669242754923"><ele>1335.0</ele><time>2026-03-29T13:29:58Z</time></trkpt><trkpt lat="41.907736558820226" lon="13.34885186676104"><ele>1340.0</ele><time>2026-03-29T13:29:59Z</time></trkpt><trkpt lat="41.907807138002944" lon="13.34901974671424"><ele>1340.0</ele><time>2026-03-29T13:30:00Z</time></trkpt><trkpt lat="41.907896424875446" lon="13.34915626766437"><ele>1340.0</ele><time>2026-03-29T13:30:01Z</time></trkpt><trkpt lat="41.9079806986948" lon="13.349260589924151"><ele>1340.0</ele><time>2026-03-29T13:30:02Z</time></trkpt><trkpt lat="41.90805778431679" lon="13.349353818648774"><ele>1340.0</ele><time>2026-03-29T13:30:03Z</time></trkpt><trkpt lat="41.90814403316055" lon="13.349456941940007"><ele>1340.0</ele><time>2026-03-29T13:30:04Z</time></trkpt><trkpt lat="41.90822519472273" lon="13.349561393581755"><ele>1340.0</ele><time>2026-03-29T13:30:05Z</time></trkpt><trkpt lat="41.90830384163654" lon="13.349669027751473"><ele>1340.0</ele><time>2026-03-29T13:30:06Z</time></trkpt><trkpt lat="41.908377221092685" lon="13.349761079164237"><ele>1340.0</ele><time>2026-03-29T13:30:07Z</time></trkpt><trkpt lat="41.908452516460066" lon="13.349851697161263"><ele>1340.0</ele><time>2026-03-29T13:30:08Z</time></trkpt><trkpt lat="41.9085288349471" lon="13.349937962072941"><ele>1342.6</ele><time>2026-03-29T13:30:09Z</time></trkpt><trkpt lat="41.90860083773143" lon="13.350021193960467"><ele>1345.2</ele><time>2026-03-29T13:30:10Z</time></trkpt><trkpt lat="41.908667308490735" lon="13.3501121046821"><ele>1347.8000000000002</ele><time>2026-03-29T13:30:11Z</time></trkpt><trkpt lat="41.90872679225713" lon="13.350208899134062"><ele>1350.4</ele><time>2026-03-29T13:30:12Z</time></trkpt><trkpt lat="41.90878125214739" lon="13.350300875609719"><ele>1353.0</ele><time>2026-03-29T13:30:13Z</time></trkpt><trkpt lat="41.90883706674988" lon="13.35038028662772"><ele>1408.0</ele><time>2026-03-29T13:30:14Z</time></trkpt><trkpt lat="41.91348657194283" lon="13.355132971937023"><ele>1402.0</ele><time>2026-03-29T13:31:14.999Z</time></trkpt><trkpt lat="41.91339559689441" lon="13.355054933068168"><ele>1396.0</ele><time>2026-03-29T13:31:15.999Z</time></trkpt><trkpt lat="41.91328991882898" lon="13.355000960905393"><ele>1390.0</ele><time>2026-03-29T13:31:16.999Z</time></trkpt><trkpt lat="41.91318667593616" lon="13.354916439020307"><ele>1384.0</ele><time>2026-03-29T13:31:17.999Z</time></trkpt><trkpt lat="41.91310693578593" lon="13.354786630199468"><ele>1390.3333333333333</ele><time>2026-03-29T13:31:18.998Z</time></trkpt><trkpt lat="41.91304678373918" lon="13.354602782122347"><ele>1396.6666666666667</ele><time>2026-03-29T13:31:19.998Z</time></trkpt><trkpt lat="41.912995185937724" lon="13.354398875441449"><ele>1403.0</ele><time>2026-03-29T13:31:20.998Z</time></trkpt><trkpt lat="41.9129405951494" lon="13.354201976883846"><ele>1403.0</ele><time>2026-03-29T13:31:21.998Z</time></trkpt><trkpt lat="41.91287919502974" lon="13.353992555744087"><ele>1403.0</ele><time>2026-03-29T13:31:22.998Z</time></trkpt><trkpt lat="41.9128116431725" lon="13.353768471100112"><ele>1403.0</ele><time>2026-03-29T13:31:23.998Z</time></trkpt><trkpt lat="41.912742586911165" lon="13.353547982714751"><ele>1404.3333333333335</ele><time>2026-03-29T13:31:24.998Z</time></trkpt><trkpt lat="41.9126682487444" lon="13.353316996156229"><ele>1405.6666666666667</ele><time>2026-03-29T13:31:25.998Z</time></trkpt><trkpt lat="41.91258754665922" lon="13.353077286902609"><ele>1407.0</ele><time>2026-03-29T13:31:27Z</time></trkpt><trkpt lat="41.91249810519971" lon="13.352838436333156"><ele>1407.0</ele><time>2026-03-29T13:31:28Z</time></trkpt><trkpt lat="41.91239637289864" lon="13.352605586464863"><ele>1407.0</ele><time>2026-03-29T13:31:29Z</time></trkpt><trkpt lat="41.91228663397686" lon="13.352372975155006"><ele>1407.0</ele><time>2026-03-29T13:31:30Z</time></trkpt><trkpt lat="41.9121836299301" lon="13.352130381786427"><ele>1413.6666666666667</ele><time>2026-03-29T13:31:31Z</time></trkpt><trkpt lat="41.91208614895778" lon="13.351875154653198"><ele>1420.3333333333335</ele><time>2026-03-29T13:31:32Z</time></trkpt><trkpt lat="41.911990334116716" lon="13.351610786046717"><ele>1427.0</ele><time>2026-03-29T13:31:33Z</time></trkpt><trkpt lat="41.91189669154662" lon="13.351359439635605"><ele>1421.3333333333335</ele><time>2026-03-29T13:31:34Z</time></trkpt><trkpt lat="41.911797373934526" lon="13.351125275542843"><ele>1415.6666666666667</ele><time>2026-03-29T13:31:35Z</time></trkpt><trkpt lat="41.911693672811495" lon="13.350916937361673"><ele>1410.0</ele><time>2026-03-29T13:31:36Z</time></trkpt><trkpt lat="41.911590997121046" lon="13.350736346673834"><ele>1410.0</ele><time>2026-03-29T13:31:37Z</time></trkpt><trkpt lat="41.91147598946386" lon="13.350569183678338"><ele>1410.0</ele><time>2026-03-29T13:31:38Z</time></trkpt><trkpt lat="41.911323297562646" lon="13.35043167619315"><ele>1410.0</ele><time>2026-03-29T13:31:39Z</time></trkpt><trkpt lat="41.911152052720375" lon="13.350313448246961"><ele>1410.3333333333333</ele><time>2026-03-29T13:31:40Z</time></trkpt><trkpt lat="41.910990682345776" lon="13.35014347248023"><ele>1410.6666666666665</ele><time>2026-03-29T13:31:41Z</time></trkpt><trkpt lat="41.910836529960804" lon="13.34993715044149"><ele>1411.0</ele><time>2026-03-29T13:31:42Z</time></trkpt><trkpt lat="41.91068532995585" lon="13.34972910330492"><ele>1421.3333333333333</ele><time>2026-03-29T13:31:43Z</time></trkpt><trkpt lat="41.91053356157667" lon="13.349536699622947"><ele>1431.6666666666667</ele><time>2026-03-29T13:31:44Z</time></trkpt><trkpt lat="41.91036874854145" lon="13.349370397779984"><ele>1442.0</ele><time>2026-03-29T13:31:45Z</time></trkpt><trkpt lat="41.910202037226604" lon="13.349239958820444"><ele>1443.1999999999998</ele><time>2026-03-29T13:31:46Z</time></trkpt><trkpt lat="41.91007443021898" lon="13.3491279936006"><ele>1444.4</ele><time>2026-03-29T13:31:47Z</time></trkpt><trkpt lat="41.909990367910346" lon="13.349029614449167"><ele>1445.6</ele><time>2026-03-29T13:31:48Z</time></trkpt><trkpt lat="41.90992756066722" lon="13.34894158366212"><ele>1446.8000000000002</ele><time>2026-03-29T13:31:49Z</time></trkpt><trkpt lat="41.90986376603943" lon="13.348853617299659"><ele>1448.0</ele><time>2026-03-29T13:31:50Z</time></trkpt><trkpt lat="41.909791408067896" lon="13.348750458253125"><ele>1448.0</ele><time>2026-03-29T13:31:51Z</time></trkpt><trkpt lat="41.90971088320807" lon="13.348637570212162"><ele>1448.0</ele><time>2026-03-29T13:31:52Z</time></trkpt><trkpt lat="41.90963848732822" lon="13.348518192011824"><ele>1448.0</ele><time>2026-03-29T13:31:53Z</time></trkpt><trkpt lat="41.90957051492013" lon="13.348393306653877"><ele>1448.0</ele><time>2026-03-29T13:31:54Z</time></trkpt><trkpt lat="41.909499101140554" lon="13.348258857274233"><ele>1448.0</ele><time>2026-03-29T13:31:55Z</time></trkpt><trkpt lat="41.90942149088148" lon="13.348106889584647"><ele>1448.0</ele><time>2026-03-29T13:31:56Z</time></trkpt><trkpt lat="41.909339117278435" lon="13.347936135224336"><ele>1448.0</ele><time>2026-03-29T13:31:57Z</time></trkpt><trkpt lat="41.909257423121005" lon="13.347765041688763"><ele>1448.0</ele><time>2026-03-29T13:31:58Z</time></trkpt><trkpt lat="41.9091867263497" lon="13.347604441811766"><ele>1448.75</ele><time>2026-03-29T13:31:59Z</time></trkpt><trkpt lat="41.90912254323397" lon="13.347453795660707"><ele>1449.5</ele><time>2026-03-29T13:32:00Z</time></trkpt><trkpt lat="41.90906660002846" lon="13.347311632147518"><ele>1450.25</ele><time>2026-03-29T13:32:01Z</time></trkpt><trkpt lat="41.90901389285438" lon="13.347171961177246"><ele>1451.0</ele><time>2026-03-29T13:32:02Z</time></trkpt><trkpt lat="41.90896033580774" lon="13.347022208057385"><ele>1451.0</ele><time>2026-03-29T13:32:03Z</time></trkpt><trkpt lat="41.90891710627302" lon="13.34688955639726"><ele>1451.0</ele><time>2026-03-29T13:32:04Z</time></trkpt><trkpt lat="41.90888410084729" lon="13.346772538197177"><ele>1451.0</ele><time>2026-03-29T13:32:05Z</time></trkpt><trkpt lat="41.908854757150095" lon="13.346667544592796"><ele>1451.0</ele><time>2026-03-29T13:32:06Z</time></trkpt><trkpt lat="41.908829292636874" lon="13.346575225130838"><ele>1451.0</ele><time>2026-03-29T13:32:07Z</time></trkpt><trkpt lat="41.908806106768985" lon="13.346493525845045"><ele>1451.0</ele><time>2026-03-29T13:32:08Z</time></trkpt><trkpt lat="41.908785571246895" lon="13.34639766360658"><ele>1483.0</ele><time>2026-03-29T13:32:10Z</time></trkpt><trkpt lat="41.908744499435365" lon="13.345422904820916"><ele>1480.6000000000001</ele><time>2026-03-29T13:34:15Z</time></trkpt><trkpt lat="41.90879386031505" lon="13.345546188357924"><ele>1478.2</ele><time>2026-03-29T13:34:49.999Z</time></trkpt><trkpt lat="41.908829119575884" lon="13.345642567773774"><ele>1475.8</ele><time>2026-03-29T13:34:50.999Z</time></trkpt><trkpt lat="41.90886267031708" lon="13.345743313935106"><ele>1473.4</ele><time>2026-03-29T13:34:51.999Z</time></trkpt><trkpt lat="41.908904467233576" lon="13.345856323663256"><ele>1471.0</ele><time>2026-03-29T13:34:52.999Z</time></trkpt><trkpt lat="41.908948902658636" lon="13.345973906663868"><ele>1471.0</ele><time>2026-03-29T13:34:53.999Z</time></trkpt><trkpt lat="41.90899784007181" lon="13.346098496844244"><ele>1471.0</ele><time>2026-03-29T13:34:54.999Z</time></trkpt><trkpt lat="41.90904978548622" lon="13.346235768845538"><ele>1471.0</ele><time>2026-03-29T13:34:55.999Z</time></trkpt><trkpt lat="41.909108702285344" lon="13.346373063711821"><ele>1471.0</ele><time>2026-03-29T13:34:56.999Z</time></trkpt><trkpt lat="41.90917266609359" lon="13.346507219875354"><ele>1479.0</ele><time>2026-03-29T13:34:57.999Z</time></trkpt><trkpt lat="41.90924305772695" lon="13.346654836366158"><ele>1487.0</ele><time>2026-03-29T13:34:58.999Z</time></trkpt><trkpt lat="41.90931879429424" lon="13.34681588080896"><ele>1495.0</ele><time>2026-03-29T13:34:59.999Z</time></trkpt><trkpt lat="41.90939638575253" lon="13.346974323191507"><ele>1503.0</ele><time>2026-03-29T13:35:00.999Z</time></trkpt><trkpt lat="41.90949337401142" lon="13.34712930681944"><ele>1494.3333333333333</ele><time>2026-03-29T13:35:01.999Z</time></trkpt><trkpt lat="41.909595608700734" lon="13.347285699592316"><ele>1485.6666666666665</ele><time>2026-03-29T13:35:02.999Z</time></trkpt><trkpt lat="41.909702749029435" lon="13.347448706368025"><ele>1477.0</ele><time>2026-03-29T13:35:03.999Z</time></trkpt><trkpt lat="41.9098180025507" lon="13.347618578231861"><ele>1477.0</ele><time>2026-03-29T13:35:04.999Z</time></trkpt><trkpt lat="41.90993580620905" lon="13.347776931501837"><ele>1477.0</ele><time>2026-03-29T13:35:05.999Z</time></trkpt><trkpt lat="41.91005529575922" lon="13.347921473229393"><ele>1477.0</ele><time>2026-03-29T13:35:06.999Z</time></trkpt><trkpt lat="41.910176644174705" lon="13.348053389789255"><ele>1477.75</ele><time>2026-03-29T13:35:07.999Z</time></trkpt><trkpt lat="41.91030299327315" lon="13.34816640362224"><ele>1478.5</ele><time>2026-03-29T13:35:08.999Z</time></trkpt><trkpt lat="41.910424471379976" lon="13.348262093924488"><ele>1479.25</ele><time>2026-03-29T13:35:09.999Z</time></trkpt><trkpt lat="41.91054433996357" lon="13.348347856869074"><ele>1480.0</ele><time>2026-03-29T13:35:10.999Z</time></trkpt><trkpt lat="41.910677273081156" lon="13.348415519674678"><ele>1480.0</ele><time>2026-03-29T13:35:11.999Z</time></trkpt><trkpt lat="41.910823996349464" lon="13.348451853365606"><ele>1480.0</ele><time>2026-03-29T13:35:12.999Z</time></trkpt><trkpt lat="41.91097877434725" lon="13.348473478483921"><ele>1480.0</ele><time>2026-03-29T13:35:13.999Z</time></trkpt><trkpt lat="41.916555883340926" lon="13.355787756602359"><ele>1489.75</ele><time>2026-03-29T13:36:15Z</time></trkpt><trkpt lat="41.91658872137739" lon="13.355969539078899"><ele>1499.5</ele><time>2026-03-29T13:36:16Z</time></trkpt><trkpt lat="41.9166161398271" lon="13.356137706519613"><ele>1509.25</ele><time>2026-03-29T13:36:17Z</time></trkpt><trkpt lat="41.916649342455706" lon="13.356281810771229"><ele>1519.0</ele><time>2026-03-29T13:36:18Z</time></trkpt><trkpt lat="41.91668500565969" lon="13.356397885143187"><ele>1519.0</ele><time>2026-03-29T13:36:19Z</time></trkpt><trkpt lat="41.91670939721851" lon="13.356496247600457"><ele>1519.0</ele><time>2026-03-29T13:36:20Z</time></trkpt><trkpt lat="41.91671853576904" lon="13.356585027621117"><ele>1519.0</ele><time>2026-03-29T13:36:45.999Z</time></trkpt><trkpt lat="41.916745850099005" lon="13.356749638864908"><ele>1519.0</ele><time>2026-03-29T13:36:47.999Z</time></trkpt><trkpt lat="41.91676048996831" lon="13.356860664249"><ele>1519.0</ele><time>2026-03-29T13:36:48.999Z</time></trkpt><trkpt lat="41.916781738451846" lon="13.356981009269305"><ele>1519.0</ele><time>2026-03-29T13:36:49.999Z</time></trkpt><trkpt lat="41.916809013889825" lon="13.357117743300941"><ele>1530.25</ele><time>2026-03-29T13:36:50.999Z</time></trkpt><trkpt lat="41.91684190495461" lon="13.357263849505305"><ele>1541.5</ele><time>2026-03-29T13:36:51.999Z</time></trkpt><trkpt lat="41.91688130788646" lon="13.357422179680936"><ele>1552.75</ele><time>2026-03-29T13:36:52.999Z</time></trkpt><trkpt lat="41.916929571253746" lon="13.35758743547732"><ele>1564.0</ele><time>2026-03-29T13:36:53.999Z</time></trkpt><trkpt lat="41.91697872278946" lon="13.357750425691377"><ele>1564.0</ele><time>2026-03-29T13:36:54.999Z</time></trkpt><trkpt lat="41.91703088258772" lon="13.357910063441095"><ele>1564.0</ele><time>2026-03-29T13:36:55.999Z</time></trkpt><trkpt lat="41.917086418315726" lon="13.358070812444225"><ele>1564.0</ele><time>2026-03-29T13:36:56.999Z</time></trkpt><trkpt lat="41.91714887131392" lon="13.35822969152025"><ele>1564.0</ele><time>2026-03-29T13:36:57.999Z</time></trkpt><trkpt lat="41.91722104905698" lon="13.358383588310485"><ele>1565.75</ele><time>2026-03-29T13:36:58.999Z</time></trkpt><trkpt lat="41.917301462905996" lon="13.358538213783618"><ele>1567.5</ele><time>2026-03-29T13:36:59.999Z</time></trkpt><trkpt lat="41.91739479840924" lon="13.358677990212174"><ele>1569.25</ele><time>2026-03-29T13:37:00.999Z</time></trkpt><trkpt lat="41.91749687627884" lon="13.35880747234791"><ele>1571.0</ele><time>2026-03-29T13:37:01.999Z</time></trkpt><trkpt lat="41.91760341021559" lon="13.35893726713794"><ele>1571.0</ele><time>2026-03-29T13:37:02.999Z</time></trkpt><trkpt lat="41.917709693889776" lon="13.359073512757497"><ele>1571.0</ele><time>2026-03-29T13:37:03.999Z</time></trkpt><trkpt lat="41.917807034933354" lon="13.359225606586783"><ele>1571.0</ele><time>2026-03-29T13:37:04.999Z</time></trkpt><trkpt lat="41.91789958738318" lon="13.359392043097214"><ele>1571.0</ele><time>2026-03-29T13:37:05.999Z</time></trkpt><trkpt lat="41.917992290115556" lon="13.359553909972464"><ele>1571.0</ele><time>2026-03-29T13:37:06.999Z</time></trkpt><trkpt lat="41.91809416393797" lon="13.35971063909835"><ele>1571.0</ele><time>2026-03-29T13:37:07.999Z</time></trkpt><trkpt lat="41.91820596788238" lon="13.359853004843016"><ele>1574.75</ele><time>2026-03-29T13:37:08.999Z</time></trkpt><trkpt lat="41.918330292768545" lon="13.35997951574267"><ele>1578.5</ele><time>2026-03-29T13:37:09.999Z</time></trkpt><trkpt lat="41.918448411677296" lon="13.360077110345133"><ele>1582.25</ele><time>2026-03-29T13:37:10.999Z</time></trkpt><trkpt lat="41.918558171438534" lon="13.360152790193219"><ele>1586.0</ele><time>2026-03-29T13:37:11.999Z</time></trkpt><trkpt lat="41.91864692182569" lon="13.360241335608745"><ele>1586.0</ele><time>2026-03-29T13:37:12.999Z</time></trkpt><trkpt lat="41.9187063932803" lon="13.36036635927786"><ele>1586.0</ele><time>2026-03-29T13:37:13.999Z</time></trkpt><trkpt lat="41.91845900803395" lon="13.368437330780798"><ele>1590.9999999999998</ele><time>2026-03-29T13:38:15Z</time></trkpt><trkpt lat="41.91845848496728" lon="13.368531855533078"><ele>1596.0</ele><time>2026-03-29T13:38:16Z</time></trkpt><trkpt lat="41.91846041510719" lon="13.368674965205503"><ele>1601.0</ele><time>2026-03-29T13:38:18Z</time></trkpt><trkpt lat="41.918519398405614" lon="13.368731722260854"><ele>1606.0</ele><time>2026-03-29T13:42:08Z</time></trkpt><trkpt lat="41.91861249782818" lon="13.368656185021695"><ele>1610.9999999999998</ele><time>2026-03-29T13:42:10Z</time></trkpt><trkpt lat="41.91869667939856" lon="13.368609213567952"><ele>1616.0</ele><time>2026-03-29T13:42:12Z</time></trkpt><trkpt lat="41.918798946818995" lon="13.368538710368849"><ele>1585.0</ele><time>2026-03-29T13:42:14Z</time></trkpt><trkpt lat="41.92142207001445" lon="13.371479008978962"><ele>1585.0</ele><time>2026-03-29T13:43:14.999Z</time></trkpt><trkpt lat="41.9215052673057" lon="13.37143357668815"><ele>1585.0</ele><time>2026-03-29T13:43:15.999Z</time></trkpt><trkpt lat="41.92159384397813" lon="13.37139164648293"><ele>1585.0</ele><time>2026-03-29T13:43:16.999Z</time></trkpt><trkpt lat="41.921689713727886" lon="13.371349283811137"><ele>1585.0</ele><time>2026-03-29T13:43:17.999Z</time></trkpt><trkpt lat="41.92178526996196" lon="13.371301605686776"><ele>1585.0</ele><time>2026-03-29T13:43:18.999Z</time></trkpt><trkpt lat="41.921880026268774" lon="13.371255778079183"><ele>1588.8</ele><time>2026-03-29T13:43:19.999Z</time></trkpt><trkpt lat="41.92197993554816" lon="13.371209152931186"><ele>1592.6</ele><time>2026-03-29T13:43:20.999Z</time></trkpt><trkpt lat="41.92207826482469" lon="13.371166963486417"><ele>1596.4</ele><time>2026-03-29T13:43:21.999Z</time></trkpt><trkpt lat="41.922169280707905" lon="13.371126118344284"><ele>1600.2</ele><time>2026-03-29T13:43:22.999Z</time></trkpt><trkpt lat="41.922268914527486" lon="13.371081198200095"><ele>1604.0</ele><time>2026-03-29T13:43:23.999Z</time></trkpt><trkpt lat="41.922370479373626" lon="13.371043461524458"><ele>1604.0</ele><time>2026-03-29T13:43:24.999Z</time></trkpt><trkpt lat="41.92246617278713" lon="13.371000515315862"><ele>1604.0</ele><time>2026-03-29T13:43:25.999Z</time></trkpt><trkpt lat="41.922561341562016" lon="13.370945264133788"><ele>1604.0</ele><time>2026-03-29T13:43:26.999Z</time></trkpt><trkpt lat="41.92264781889728" lon="13.370881090302872"><ele>1604.0</ele><time>2026-03-29T13:43:27.999Z</time></trkpt><trkpt lat="41.922736212101995" lon="13.370817947749831"><ele>1604.0</ele><time>2026-03-29T13:43:28.999Z</time></trkpt><trkpt lat="41.92281948407741" lon="13.370745294673211"><ele>1605.9999999999998</ele><time>2026-03-29T13:43:29.999Z</time></trkpt><trkpt lat="41.92290573108199" lon="13.370679814396995"><ele>1608.0</ele><time>2026-03-29T13:43:30.999Z</time></trkpt><trkpt lat="41.92297840165145" lon="13.37062424643966"><ele>1610.0</ele><time>2026-03-29T13:43:31.999Z</time></trkpt><trkpt lat="41.92303721374684" lon="13.37057449916568"><ele>1612.0</ele><time>2026-03-29T13:43:32.999Z</time></trkpt><trkpt lat="41.92309498987374" lon="13.370536762221384"><ele>1613.9999999999998</ele><time>2026-03-29T13:43:33.999Z</time></trkpt><trkpt lat="41.92317228616476" lon="13.370522187313863"><ele>1616.0</ele><time>2026-03-29T13:43:34.999Z</time></trkpt><trkpt lat="41.92326370953873" lon="13.370484931388866"><ele>1616.0</ele><time>2026-03-29T13:43:35.999Z</time></trkpt><trkpt lat="41.923313244198035" lon="13.37042164444583"><ele>1616.0</ele><time>2026-03-29T13:43:36.999Z</time></trkpt><trkpt lat="41.92337748929729" lon="13.370375982580933"><ele>1616.0</ele><time>2026-03-29T13:43:37.999Z</time></trkpt><trkpt lat="41.92344977760841" lon="13.370331026633126"><ele>1616.0</ele><time>2026-03-29T13:43:38.999Z</time></trkpt><trkpt lat="41.92351874716324" lon="13.370302848844199"><ele>1616.0</ele><time>2026-03-29T13:43:39.999Z</time></trkpt><trkpt lat="41.92359642453742" lon="13.370291308221868"><ele>1616.0</ele><time>2026-03-29T13:43:40.999Z</time></trkpt><trkpt lat="41.923669461074724" lon="13.370309740177344"><ele>1616.0</ele><time>2026-03-29T13:43:41.999Z</time></trkpt><trkpt lat="41.923730552418" lon="13.370374753422515"><ele>1615.4</ele><time>2026-03-29T13:43:42.999Z</time></trkpt><trkpt lat="41.92375215601002" lon="13.370497066431124"><ele>1614.8</ele><time>2026-03-29T13:43:43.999Z</time></trkpt><trkpt lat="41.92374242725346" lon="13.370640080142818"><ele>1614.2</ele><time>2026-03-29T13:43:44.998Z</time></trkpt><trkpt lat="41.92372020671089" lon="13.370786538486422"><ele>1613.6000000000001</ele><time>2026-03-29T13:43:45.998Z</time></trkpt><trkpt lat="41.92370801498549" lon="13.370930543832323"><ele>1613.0</ele><time>2026-03-29T13:43:46.998Z</time></trkpt><trkpt lat="41.923712796714426" lon="13.371067464884264"><ele>1613.0</ele><time>2026-03-29T13:43:47.998Z</time></trkpt><trkpt lat="41.92371748514567" lon="13.371216619494472"><ele>1613.0</ele><time>2026-03-29T13:43:48.998Z</time></trkpt><trkpt lat="41.92372805361673" lon="13.371370224619406"><ele>1613.0</ele><time>2026-03-29T13:43:49.998Z</time></trkpt><trkpt lat="41.923748786344575" lon="13.371523434191625"><ele>1613.0</ele><time>2026-03-29T13:43:50.998Z</time></trkpt><trkpt lat="41.923781551113244" lon="13.371654285689045"><ele>1613.0</ele><time>2026-03-29T13:43:51.998Z</time></trkpt><trkpt lat="41.92381785159755" lon="13.371782838333392"><ele>1611.2</ele><time>2026-03-29T13:43:52.998Z</time></trkpt><trkpt lat="41.92386789561718" lon="13.371908520321512"><ele>1609.4</ele><time>2026-03-29T13:43:53.998Z</time></trkpt><trkpt lat="41.92392730005248" lon="13.372026895313233"><ele>1607.6000000000001</ele><time>2026-03-29T13:43:54.998Z</time></trkpt><trkpt lat="41.92400242526389" lon="13.372128464512807"><ele>1605.8000000000002</ele><time>2026-03-29T13:43:55.998Z</time></trkpt><trkpt lat="41.924085449636394" lon="13.372228492358063"><ele>1604.0</ele><time>2026-03-29T13:43:56.998Z</time></trkpt><trkpt lat="41.924173457411236" lon="13.37231469413462"><ele>1604.4</ele><time>2026-03-29T13:43:57.998Z</time></trkpt><trkpt lat="41.92425997598232" lon="13.372396993794032"><ele>1604.8000000000002</ele><time>2026-03-29T13:43:58.998Z</time></trkpt><trkpt lat="41.924351241672966" lon="13.372478615108715"><ele>1605.1999999999998</ele><time>2026-03-29T13:43:59.998Z</time></trkpt><trkpt lat="41.92444608830581" lon="13.372544962660934"><ele>1605.6</ele><time>2026-03-29T13:44:00.998Z</time></trkpt><trkpt lat="41.92453321197354" lon="13.37259693240753"><ele>1606.0</ele><time>2026-03-29T13:44:02Z</time></trkpt><trkpt lat="41.92461367004922" lon="13.372654494147275"><ele>1606.0000000000002</ele><time>2026-03-29T13:44:03Z</time></trkpt><trkpt lat="41.9246744589684" lon="13.372727220268972"><ele>1606.0</ele><time>2026-03-29T13:44:04Z</time></trkpt><trkpt lat="41.92470445975692" lon="13.372813480383604"><ele>1606.0</ele><time>2026-03-29T13:44:05Z</time></trkpt><trkpt lat="41.92469281050203" lon="13.372921205364417"><ele>1606.0</ele><time>2026-03-29T13:44:06Z</time></trkpt><trkpt lat="41.92463966622083" lon="13.373029927253123"><ele>1606.0000000000002</ele><time>2026-03-29T13:44:07Z</time></trkpt><trkpt lat="41.924574960872235" lon="13.373119115536207"><ele>1606.0</ele><time>2026-03-29T13:44:08Z</time></trkpt><trkpt lat="41.924488966668314" lon="13.373209455195257"><ele>1606.5</ele><time>2026-03-29T13:44:09Z</time></trkpt><trkpt lat="41.92439896852273" lon="13.373291252096863"><ele>1607.0</ele><time>2026-03-29T13:44:10Z</time></trkpt><trkpt lat="41.92429562193273" lon="13.373374731382622"><ele>1607.5</ele><time>2026-03-29T13:44:11Z</time></trkpt><trkpt lat="41.92418170470833" lon="13.373447863549059"><ele>1608.0</ele><time>2026-03-29T13:44:12Z</time></trkpt><trkpt lat="41.924068252032356" lon="13.373509273245666"><ele>1596.5</ele><time>2026-03-29T13:44:13Z</time></trkpt><trkpt lat="41.92395064176466" lon="13.373573687055172"><ele>1585.0</ele><time>2026-03-29T13:44:14Z</time></trkpt><trkpt lat="41.926372221136134" lon="13.376594002220907"><ele>1581.5</ele><time>2026-03-29T13:45:14.999Z</time></trkpt><trkpt lat="41.92648662163852" lon="13.376579437664393"><ele>1578.0</ele><time>2026-03-29T13:45:15.999Z</time></trkpt><trkpt lat="41.92660265514117" lon="13.376567821275918"><ele>1574.5</ele><time>2026-03-29T13:45:16.999Z</time></trkpt><trkpt lat="41.926724806036965" lon="13.37655637166592"><ele>1571.0</ele><time>2026-03-29T13:45:17.999Z</time></trkpt><trkpt lat="41.92684848239678" lon="13.376546176096449"><ele>1568.25</ele><time>2026-03-29T13:45:18.999Z</time></trkpt><trkpt lat="41.92697230089876" lon="13.376546801884134"><ele>1565.5</ele><time>2026-03-29T13:45:19.999Z</time></trkpt><trkpt lat="41.927102872933226" lon="13.376553661455674"><ele>1562.75</ele><time>2026-03-29T13:45:20.999Z</time></trkpt><trkpt lat="41.92723477422431" lon="13.37655293989505"><ele>1560.0</ele><time>2026-03-29T13:45:21.999Z</time></trkpt><trkpt lat="41.927357233458885" lon="13.376542700090447"><ele>1560.0</ele><time>2026-03-29T13:45:22.999Z</time></trkpt><trkpt lat="41.92747894667545" lon="13.37650847554973"><ele>1560.0</ele><time>2026-03-29T13:45:23.999Z</time></trkpt><trkpt lat="41.92759857726483" lon="13.376448614046412"><ele>1560.0</ele><time>2026-03-29T13:45:24.999Z</time></trkpt><trkpt lat="41.92771667617919" lon="13.37635999709148"><ele>1560.0</ele><time>2026-03-29T13:45:25.999Z</time></trkpt><trkpt lat="41.9278310428769" lon="13.37626249592916"><ele>1561.25</ele><time>2026-03-29T13:45:26.999Z</time></trkpt><trkpt lat="41.927947901388386" lon="13.37617287129781"><ele>1562.5</ele><time>2026-03-29T13:45:27.999Z</time></trkpt><trkpt lat="41.92806930759206" lon="13.376094049718308"><ele>1563.75</ele><time>2026-03-29T13:45:28.999Z</time></trkpt><trkpt lat="41.92818261421099" lon="13.376027503367844"><ele>1565.0</ele><time>2026-03-29T13:45:29.999Z</time></trkpt><trkpt lat="41.92830037056329" lon="13.375965193616818"><ele>1564.5</ele><time>2026-03-29T13:45:30.999Z</time></trkpt><trkpt lat="41.92842566449887" lon="13.375913866414665"><ele>1564.0</ele><time>2026-03-29T13:45:31.999Z</time></trkpt><trkpt lat="41.928566743121344" lon="13.37591402717552"><ele>1563.5</ele><time>2026-03-29T13:45:32.999Z</time></trkpt><trkpt lat="41.92870010022356" lon="13.375911760779347"><ele>1563.0</ele><time>2026-03-29T13:45:33.999Z</time></trkpt><trkpt lat="41.92883599680807" lon="13.37591736388108"><ele>1563.0</ele><time>2026-03-29T13:45:34.999Z</time></trkpt><trkpt lat="41.9289631518056" lon="13.375909269203976"><ele>1563.0</ele><time>2026-03-29T13:45:35.999Z</time></trkpt><trkpt lat="41.92909568413906" lon="13.375898517304941"><ele>1563.0</ele><time>2026-03-29T13:45:36.999Z</time></trkpt><trkpt lat="41.92922130647148" lon="13.375856682790713"><ele>1563.0</ele><time>2026-03-29T13:45:37.999Z</time></trkpt><trkpt lat="41.92934172507333" lon="13.375786286048129"><ele>1564.25</ele><time>2026-03-29T13:45:38.999Z</time></trkpt><trkpt lat="41.929455571302334" lon="13.375698857656866"><ele>1565.5</ele><time>2026-03-29T13:45:39.999Z</time></trkpt><trkpt lat="41.929575108627695" lon="13.375620721847769"><ele>1566.75</ele><time>2026-03-29T13:45:40.999Z</time></trkpt><trkpt lat="41.92970234210742" lon="13.375512284032975"><ele>1568.0</ele><time>2026-03-29T13:45:41.999Z</time></trkpt><trkpt lat="41.92983074573611" lon="13.375430549295574"><ele>1568.0</ele><time>2026-03-29T13:45:42.999Z</time></trkpt><trkpt lat="41.92995685548191" lon="13.375351983847409"><ele>1568.0</ele><time>2026-03-29T13:45:43.999Z</time></trkpt><trkpt lat="41.930088443489964" lon="13.375286872677648"><ele>1568.0</ele><time>2026-03-29T13:45:44.999Z</time></trkpt><trkpt lat="41.930204773821075" lon="13.375219136471255"><ele>1568.0</ele><time>2026-03-29T13:45:45.999Z</time></trkpt><trkpt lat="41.93032630839478" lon="13.375150565311332"><ele>1568.0</ele><time>2026-03-29T13:45:46.999Z</time></trkpt><trkpt lat="41.930438512702764" lon="13.375087258398827"><ele>1568.0</ele><time>2026-03-29T13:45:47.999Z</time></trkpt><trkpt lat="41.93053421135636" lon="13.375009059037415"><ele>1568.0</ele><time>2026-03-29T13:45:48.999Z</time></trkpt><trkpt lat="41.93063945991265" lon="13.374955988538698"><ele>1568.0</ele><time>2026-03-29T13:45:49.998Z</time></trkpt><trkpt lat="41.93074054986334" lon="13.37489195199539"><ele>1568.0</ele><time>2026-03-29T13:45:50.998Z</time></trkpt><trkpt lat="41.93084641321319" lon="13.374829999290894"><ele>1568.0</ele><time>2026-03-29T13:45:51.998Z</time></trkpt><trkpt lat="41.93095219506294" lon="13.374764175178528"><ele>1568.0</ele><time>2026-03-29T13:45:52.998Z</time></trkpt><trkpt lat="41.93105745148581" lon="13.37470145712716"><ele>1568.0</ele><time>2026-03-29T13:45:53.998Z</time></trkpt><trkpt lat="41.931165589287616" lon="13.374637747596585"><ele>1569.0</ele><time>2026-03-29T13:45:54.998Z</time></trkpt><trkpt lat="41.93127688445139" lon="13.374575253253298"><ele>1570.0</ele><time>2026-03-29T13:45:55.998Z</time></trkpt><trkpt lat="41.931387315755174" lon="13.374512603828576"><ele>1571.0</ele><time>2026-03-29T13:45:56.998Z</time></trkpt><trkpt lat="41.931498578314056" lon="13.374449052299989"><ele>1572.0</ele><time>2026-03-29T13:45:57.998Z</time></trkpt><trkpt lat="41.93161472981706" lon="13.374378048201836"><ele>1569.75</ele><time>2026-03-29T13:45:58.998Z</time></trkpt><trkpt lat="41.93173696857483" lon="13.374303372259336"><ele>1567.5</ele><time>2026-03-29T13:45:59.998Z</time></trkpt><trkpt lat="41.93186385977529" lon="13.37422669297149"><ele>1565.25</ele><time>2026-03-29T13:46:00.998Z</time></trkpt><trkpt lat="41.93199400237193" lon="13.37415391439223"><ele>1563.0</ele><time>2026-03-29T13:46:01.998Z</time></trkpt><trkpt lat="41.932122019416546" lon="13.374081910554073"><ele>1563.0</ele><time>2026-03-29T13:46:02.998Z</time></trkpt><trkpt lat="41.93225207811341" lon="13.374007590090356"><ele>1563.0</ele><time>2026-03-29T13:46:03.998Z</time></trkpt><trkpt lat="41.93237998556137" lon="13.37393796978521"><ele>1563.0</ele><time>2026-03-29T13:46:04.998Z</time></trkpt><trkpt lat="41.932505072429414" lon="13.373871797342245"><ele>1563.0</ele><time>2026-03-29T13:46:05.998Z</time></trkpt><trkpt lat="41.932631246279286" lon="13.373814860356998"><ele>1568.5</ele><time>2026-03-29T13:46:06.998Z</time></trkpt><trkpt lat="41.93275766528112" lon="13.373758985036043"><ele>1574.0</ele><time>2026-03-29T13:46:08Z</time></trkpt><trkpt lat="41.93287584736318" lon="13.37371337201734"><ele>1579.5</ele><time>2026-03-29T13:46:09Z</time></trkpt><trkpt lat="41.93299904315999" lon="13.373690900693184"><ele>1585.0</ele><time>2026-03-29T13:46:10Z</time></trkpt><trkpt lat="41.9331192408528" lon="13.373664984085485"><ele>1585.0</ele><time>2026-03-29T13:46:11Z</time></trkpt><trkpt lat="41.93325152912376" lon="13.373644829212122"><ele>1585.0</ele><time>2026-03-29T13:46:12Z</time></trkpt><trkpt lat="41.9333803587663" lon="13.373629884430313"><ele>1585.0</ele><time>2026-03-29T13:46:13Z</time></trkpt><trkpt lat="41.933509558655544" lon="13.37361576327438"><ele>1585.0</ele><time>2026-03-29T13:46:14Z</time></trkpt><trkpt lat="41.93578423313072" lon="13.369030397422005"><ele>1583.1666666666667</ele><time>2026-03-29T13:47:14.999Z</time></trkpt><trkpt lat="41.93582368864422" lon="13.368921588434523"><ele>1581.3333333333335</ele><time>2026-03-29T13:47:15.999Z</time></trkpt><trkpt lat="41.935858679959466" lon="13.368821788301563"><ele>1579.5</ele><time>2026-03-29T13:47:16.999Z</time></trkpt><trkpt lat="41.935892850682436" lon="13.36872332651079"><ele>1577.6666666666665</ele><time>2026-03-29T13:47:17.999Z</time></trkpt><trkpt lat="41.93589683838183" lon="13.368632363630764"><ele>1575.8333333333333</ele><time>2026-03-29T13:47:18.999Z</time></trkpt><trkpt lat="41.93590833817424" lon="13.368545858532897"><ele>1574.0</ele><time>2026-03-29T13:47:19.999Z</time></trkpt><trkpt lat="41.93594729135183" lon="13.368442434478771"><ele>1569.4999999999998</ele><time>2026-03-29T13:47:21.999Z</time></trkpt><trkpt lat="41.93596895726975" lon="13.368336548012904"><ele>1565.0</ele><time>2026-03-29T13:47:24.999Z</time></trkpt><trkpt lat="41.93597008867763" lon="13.368244240621527"><ele>1560.5</ele><time>2026-03-29T13:47:26.999Z</time></trkpt><trkpt lat="41.93599855134473" lon="13.368137890759957"><ele>1556.0</ele><time>2026-03-29T13:47:28.999Z</time></trkpt><trkpt lat="41.93602528780658" lon="13.367967785894127"><ele>1551.4999999999998</ele><time>2026-03-29T13:47:30.999Z</time></trkpt><trkpt lat="41.936045904509626" lon="13.36786928340977"><ele>1547.0</ele><time>2026-03-29T13:47:31.999Z</time></trkpt><trkpt lat="41.93605993188697" lon="13.36776567676699"><ele>1546.9999999999998</ele><time>2026-03-29T13:47:32.999Z</time></trkpt><trkpt lat="41.93605623189328" lon="13.36765569324869"><ele>1547.0</ele><time>2026-03-29T13:47:33.999Z</time></trkpt><trkpt lat="41.93603882884754" lon="13.367553130251663"><ele>1547.0</ele><time>2026-03-29T13:47:34.999Z</time></trkpt><trkpt lat="41.936006245603494" lon="13.367462765475674"><ele>1547.0</ele><time>2026-03-29T13:47:35.999Z</time></trkpt><trkpt lat="41.93596644294027" lon="13.36737665189631"><ele>1546.9999999999998</ele><time>2026-03-29T13:47:36.999Z</time></trkpt><trkpt lat="41.93594494494494" lon="13.367280766831497"><ele>1547.0</ele><time>2026-03-29T13:47:37.999Z</time></trkpt><trkpt lat="41.93591118967625" lon="13.367196717325186"><ele>1545.1666666666665</ele><time>2026-03-29T13:47:38.999Z</time></trkpt><trkpt lat="41.93588211703041" lon="13.3671213833244"><ele>1543.3333333333333</ele><time>2026-03-29T13:47:39.999Z</time></trkpt><trkpt lat="41.93582991260024" lon="13.366984016762832"><ele>1541.5</ele><time>2026-03-29T13:47:41.999Z</time></trkpt><trkpt lat="41.93585010801552" lon="13.366882465957682"><ele>1539.6666666666665</ele><time>2026-03-29T13:47:42.999Z</time></trkpt><trkpt lat="41.93586045975446" lon="13.366778073786481"><ele>1537.8333333333333</ele><time>2026-03-29T13:47:43.999Z</time></trkpt><trkpt lat="41.935881144438014" lon="13.36667197754814"><ele>1536.0</ele><time>2026-03-29T13:47:44.999Z</time></trkpt><trkpt lat="41.93590507789374" lon="13.366564710356913"><ele>1536.0</ele><time>2026-03-29T13:47:45.999Z</time></trkpt><trkpt lat="41.93592614919075" lon="13.366457928646078"><ele>1536.0</ele><time>2026-03-29T13:47:46.999Z</time></trkpt><trkpt lat="41.935944792715134" lon="13.366351252303135"><ele>1536.0</ele><time>2026-03-29T13:47:47.999Z</time></trkpt><trkpt lat="41.93593064616548" lon="13.366234369201525"><ele>1536.0</ele><time>2026-03-29T13:47:48.999Z</time></trkpt><trkpt lat="41.935913870899114" lon="13.36611624505359"><ele>1536.0</ele><time>2026-03-29T13:47:49.999Z</time></trkpt><trkpt lat="41.93589638911318" lon="13.36600642939429"><ele>1536.0</ele><time>2026-03-29T13:47:50.999Z</time></trkpt><trkpt lat="41.935878048457376" lon="13.365882730011803"><ele>1540.6</ele><time>2026-03-29T13:47:51.999Z</time></trkpt><trkpt lat="41.93586174413772" lon="13.365772564333646"><ele>1545.1999999999998</ele><time>2026-03-29T13:47:52.999Z</time></trkpt><trkpt lat="41.93585428381837" lon="13.365665944764615"><ele>1549.8000000000002</ele><time>2026-03-29T13:47:53.998Z</time></trkpt><trkpt lat="41.935831025869845" lon="13.3655818640636"><ele>1554.4</ele><time>2026-03-29T13:47:54.998Z</time></trkpt><trkpt lat="41.93580342546236" lon="13.365436804785046"><ele>1559.0</ele><time>2026-03-29T13:47:56.998Z</time></trkpt><trkpt lat="41.93579333540926" lon="13.36528953885604"><ele>1558.9999999999998</ele><time>2026-03-29T13:47:58.998Z</time></trkpt><trkpt lat="41.935767971826984" lon="13.365147949103461"><ele>1559.0</ele><time>2026-03-29T13:48:00.998Z</time></trkpt><trkpt lat="41.9357449433572" lon="13.365067776298647"><ele>1559.0</ele><time>2026-03-29T13:48:01.998Z</time></trkpt><trkpt lat="41.935725132660835" lon="13.364982268921784"><ele>1559.0</ele><time>2026-03-29T13:48:02.998Z</time></trkpt><trkpt lat="41.93570736486574" lon="13.36488939713704"><ele>1558.9999999999998</ele><time>2026-03-29T13:48:03.998Z</time></trkpt><trkpt lat="41.93569247617664" lon="13.364803801232505"><ele>1559.0</ele><time>2026-03-29T13:48:04.998Z</time></trkpt><trkpt lat="41.93562655629011" lon="13.364666299704176"><ele>1555.2</ele><time>2026-03-29T13:48:06.998Z</time></trkpt><trkpt lat="41.93559234055746" lon="13.364590000977278"><ele>1551.4</ele><time>2026-03-29T13:48:07.998Z</time></trkpt><trkpt lat="41.93554179289569" lon="13.364429584693317"><ele>1547.6</ele><time>2026-03-29T13:48:09.998Z</time></trkpt><trkpt lat="41.935511115269954" lon="13.364351865431491"><ele>1543.8</ele><time>2026-03-29T13:48:10.998Z</time></trkpt><trkpt lat="41.93548090132828" lon="13.364275320838873"><ele>1540.0</ele><time>2026-03-29T13:48:11.998Z</time></trkpt><trkpt lat="41.93543025354258" lon="13.364121200771525"><ele>1534.0</ele><time>2026-03-29T13:48:14Z</time></trkpt><trkpt lat="41.93654105056605" lon="13.358135712125588"><ele>1536.5</ele><time>2026-03-29T13:49:14.999Z</time></trkpt><trkpt lat="41.93661836389141" lon="13.358001247427643"><ele>1539.0</ele><time>2026-03-29T13:49:15.999Z</time></trkpt><trkpt lat="41.93669967983813" lon="13.35787415066557"><ele>1541.5</ele><time>2026-03-29T13:49:16.999Z</time></trkpt><trkpt lat="41.93678316144367" lon="13.357749653954606"><ele>1544.0</ele><time>2026-03-29T13:49:17.999Z</time></trkpt><trkpt lat="41.936875118197264" lon="13.357629978519947"><ele>1544.0</ele><time>2026-03-29T13:49:18.999Z</time></trkpt><trkpt lat="41.93696844691219" lon="13.357514144810688"><ele>1544.0</ele><time>2026-03-29T13:49:19.999Z</time></trkpt><trkpt lat="41.937055030036554" lon="13.357408606486777"><ele>1544.0</ele><time>2026-03-29T13:49:20.999Z</time></trkpt><trkpt lat="41.93713668361832" lon="13.357313590148374"><ele>1544.0</ele><time>2026-03-29T13:49:21.999Z</time></trkpt><trkpt lat="41.937207738155614" lon="13.357230442307705"><ele>1544.0</ele><time>2026-03-29T13:49:22.999Z</time></trkpt><trkpt lat="41.93726165900196" lon="13.357161649435843"><ele>1543.9999999999998</ele><time>2026-03-29T13:49:23.999Z</time></trkpt><trkpt lat="41.937343876174346" lon="13.357099820352062"><ele>1544.0</ele><time>2026-03-29T13:49:25.999Z</time></trkpt><trkpt lat="41.93741063362893" lon="13.357083633364123"><ele>1544.0</ele><time>2026-03-29T13:49:32.999Z</time></trkpt><trkpt lat="41.937488210224174" lon="13.35713389865159"><ele>1544.0</ele><time>2026-03-29T13:49:35.999Z</time></trkpt><trkpt lat="41.9375361473274" lon="13.357198276723139"><ele>1543.9999999999998</ele><time>2026-03-29T13:49:37.999Z</time></trkpt><trkpt lat="41.93751566933059" lon="13.357335888658083"><ele>1544.0</ele><time>2026-03-29T13:49:40.999Z</time></trkpt><trkpt lat="41.93750228621166" lon="13.357471882710701"><ele>1543.9999999999998</ele><time>2026-03-29T13:49:42.999Z</time></trkpt><trkpt lat="41.93748985378842" lon="13.357555201122905"><ele>1544.0</ele><time>2026-03-29T13:49:43.999Z</time></trkpt><trkpt lat="41.937473816423505" lon="13.357647045801874"><ele>1544.0</ele><time>2026-03-29T13:49:44.999Z</time></trkpt><trkpt lat="41.937453078902365" lon="13.35774601911552"><ele>1544.0</ele><time>2026-03-29T13:49:45.999Z</time></trkpt><trkpt lat="41.93742659234926" lon="13.357855927984376"><ele>1543.9999999999998</ele><time>2026-03-29T13:49:46.999Z</time></trkpt><trkpt lat="41.93739712315044" lon="13.35796736351312"><ele>1544.0</ele><time>2026-03-29T13:49:47.999Z</time></trkpt><trkpt lat="41.937367410331504" lon="13.35807546291539"><ele>1543.1666666666665</ele><time>2026-03-29T13:49:48.999Z</time></trkpt><trkpt lat="41.937349849327276" lon="13.358192456442255"><ele>1542.3333333333333</ele><time>2026-03-29T13:49:49.999Z</time></trkpt><trkpt lat="41.93732458477859" lon="13.358301168988929"><ele>1541.5</ele><time>2026-03-29T13:49:50.999Z</time></trkpt><trkpt lat="41.93730923277413" lon="13.358418538616677"><ele>1540.6666666666665</ele><time>2026-03-29T13:49:51.999Z</time></trkpt><trkpt lat="41.937309923064475" lon="13.358533654893748"><ele>1539.8333333333333</ele><time>2026-03-29T13:49:52.999Z</time></trkpt><trkpt lat="41.93732634303717" lon="13.358650426422273"><ele>1539.0</ele><time>2026-03-29T13:49:53.999Z</time></trkpt><trkpt lat="41.93735836767201" lon="13.358756669981858"><ele>1539.0</ele><time>2026-03-29T13:49:54.999Z</time></trkpt><trkpt lat="41.93740924511027" lon="13.358855188565116"><ele>1539.0</ele><time>2026-03-29T13:49:55.999Z</time></trkpt><trkpt lat="41.93747914541817" lon="13.358934953565376"><ele>1539.0</ele><time>2026-03-29T13:49:56.999Z</time></trkpt><trkpt lat="41.937568160967466" lon="13.358994547275806"><ele>1539.0</ele><time>2026-03-29T13:49:57.999Z</time></trkpt><trkpt lat="41.937656179523614" lon="13.359052549893821"><ele>1539.0</ele><time>2026-03-29T13:49:58.999Z</time></trkpt><trkpt lat="41.93774334878982" lon="13.359118093628403"><ele>1541.8333333333333</ele><time>2026-03-29T13:49:59.999Z</time></trkpt><trkpt lat="41.93780505880827" lon="13.359177335158513"><ele>1544.6666666666665</ele><time>2026-03-29T13:50:00.999Z</time></trkpt><trkpt lat="41.93787751459217" lon="13.359234124868722"><ele>1547.5</ele><time>2026-03-29T13:50:01.999Z</time></trkpt><trkpt lat="41.93794178710941" lon="13.359280004324603"><ele>1550.3333333333333</ele><time>2026-03-29T13:50:02.999Z</time></trkpt><trkpt lat="41.93801059614427" lon="13.359298482717683"><ele>1553.1666666666665</ele><time>2026-03-29T13:50:03.998Z</time></trkpt><trkpt lat="41.93808208850522" lon="13.359298183466317"><ele>1556.0</ele><time>2026-03-29T13:50:04.998Z</time></trkpt><trkpt lat="41.93815820554134" lon="13.35928956266252"><ele>1555.9999999999998</ele><time>2026-03-29T13:50:05.998Z</time></trkpt><trkpt lat="41.93823322913907" lon="13.35929633792881"><ele>1556.0</ele><time>2026-03-29T13:50:06.998Z</time></trkpt><trkpt lat="41.9382947392959" lon="13.359378461455428"><ele>1556.0</ele><time>2026-03-29T13:50:07.998Z</time></trkpt><trkpt lat="41.93834775142594" lon="13.359458723696306"><ele>1556.0</ele><time>2026-03-29T13:50:08.998Z</time></trkpt><trkpt lat="41.938402744913446" lon="13.359540261646398"><ele>1555.9999999999998</ele><time>2026-03-29T13:50:09.998Z</time></trkpt><trkpt lat="41.93845924492639" lon="13.359624099999007"><ele>1556.0</ele><time>2026-03-29T13:50:10.998Z</time></trkpt><trkpt lat="41.93854426162168" lon="13.359672670191152"><ele>1552.6666666666665</ele><time>2026-03-29T13:50:11.998Z</time></trkpt><trkpt lat="41.93863099189809" lon="13.359722877119621"><ele>1549.3333333333335</ele><time>2026-03-29T13:50:12.998Z</time></trkpt><trkpt lat="41.93871940425416" lon="13.359768310935946"><ele>1546.0</ele><time>2026-03-29T13:50:13.998Z</time></trkpt><trkpt lat="41.94037419555609" lon="13.362256910996688"><ele>1548.0</ele><time>2026-03-29T13:51:14.999Z</time></trkpt><trkpt lat="41.93970741889189" lon="13.360950512046237"><ele>1548.0</ele><time>2026-03-29T14:08:14.999Z</time></trkpt><trkpt lat="41.93957705816291" lon="13.360946206039214"><ele>1548.0</ele><time>2026-03-29T14:08:15.999Z</time></trkpt><trkpt lat="41.93946735968149" lon="13.36091694834452"><ele>1548.0</ele><time>2026-03-29T14:08:16.999Z</time></trkpt><trkpt lat="41.93938481610791" lon="13.360844833560291"><ele>1548.0</ele><time>2026-03-29T14:08:17.999Z</time></trkpt><trkpt lat="41.93934339088766" lon="13.360756295635476"><ele>1548.0</ele><time>2026-03-29T14:08:18.999Z</time></trkpt><trkpt lat="41.93931987327006" lon="13.360636451717102"><ele>1547.5</ele><time>2026-03-29T14:08:19.999Z</time></trkpt><trkpt lat="41.939298717554806" lon="13.360490641673247"><ele>1547.0</ele><time>2026-03-29T14:08:20.999Z</time></trkpt><trkpt lat="41.93923412818859" lon="13.360340270356353"><ele>1546.5</ele><time>2026-03-29T14:08:21.999Z</time></trkpt><trkpt lat="41.939158826303654" lon="13.36021453989682"><ele>1546.0</ele><time>2026-03-29T14:08:22.999Z</time></trkpt><trkpt lat="41.939074636153215" lon="13.360103812381423"><ele>1546.0</ele><time>2026-03-29T14:08:23.999Z</time></trkpt><trkpt lat="41.93899369877114" lon="13.35999699020713"><ele>1546.0</ele><time>2026-03-29T14:08:24.999Z</time></trkpt><trkpt lat="41.93892631768566" lon="13.359894769307179"><ele>1546.0</ele><time>2026-03-29T14:08:25.999Z</time></trkpt><trkpt lat="41.938827103532105" lon="13.359810449234649"><ele>1546.0</ele><time>2026-03-29T14:08:26.999Z</time></trkpt><trkpt lat="41.93870697126793" lon="13.35972365549381"><ele>1548.5</ele><time>2026-03-29T14:08:27.999Z</time></trkpt><trkpt lat="41.93859320922078" lon="13.359666384971053"><ele>1551.0</ele><time>2026-03-29T14:08:28.999Z</time></trkpt><trkpt lat="41.93848518450011" lon="13.359592320844857"><ele>1553.5</ele><time>2026-03-29T14:08:29.999Z</time></trkpt><trkpt lat="41.93839787078763" lon="13.359485497816735"><ele>1556.0</ele><time>2026-03-29T14:08:30.999Z</time></trkpt><trkpt lat="41.93833076930481" lon="13.359365110345522"><ele>1556.0</ele><time>2026-03-29T14:08:31.999Z</time></trkpt><trkpt lat="41.93824068699822" lon="13.359285919561477"><ele>1556.0</ele><time>2026-03-29T14:08:32.999Z</time></trkpt><trkpt lat="41.938154594171515" lon="13.359250357728078"><ele>1556.0</ele><time>2026-03-29T14:08:33.999Z</time></trkpt><trkpt lat="41.93802482172095" lon="13.359249640129969"><ele>1556.0</ele><time>2026-03-29T14:08:34.999Z</time></trkpt><trkpt lat="41.937922478738386" lon="13.35923988363459"><ele>1556.0</ele><time>2026-03-29T14:08:35.999Z</time></trkpt><trkpt lat="41.93784540995737" lon="13.359232358187137"><ele>1556.0</ele><time>2026-03-29T14:08:36.999Z</time></trkpt><trkpt lat="41.93778465196792" lon="13.359114215034879"><ele>1556.0</ele><time>2026-03-29T14:08:37.999Z</time></trkpt><trkpt lat="41.937684831410245" lon="13.359031986492337"><ele>1556.0</ele><time>2026-03-29T14:08:38.999Z</time></trkpt><trkpt lat="41.93757048309088" lon="13.358937790163553"><ele>1556.0</ele><time>2026-03-29T14:08:39.999Z</time></trkpt><trkpt lat="41.937465748929384" lon="13.35887185898301"><ele>1553.1666666666665</ele><time>2026-03-29T14:08:40.999Z</time></trkpt><trkpt lat="41.937393687999524" lon="13.358796743972938"><ele>1550.3333333333333</ele><time>2026-03-29T14:08:41.999Z</time></trkpt><trkpt lat="41.937342479987876" lon="13.358713737441155"><ele>1547.5</ele><time>2026-03-29T14:08:42.998Z</time></trkpt><trkpt lat="41.93734069865682" lon="13.358600312029793"><ele>1544.6666666666665</ele><time>2026-03-29T14:08:43.998Z</time></trkpt><trkpt lat="41.937331130251245" lon="13.358485691109262"><ele>1541.8333333333333</ele><time>2026-03-29T14:08:44.998Z</time></trkpt><trkpt lat="41.93733056363479" lon="13.358349560697723"><ele>1539.0</ele><time>2026-03-29T14:08:45.998Z</time></trkpt><trkpt lat="41.93736288036794" lon="13.358225620595597"><ele>1539.0</ele><time>2026-03-29T14:08:46.998Z</time></trkpt><trkpt lat="41.9374026547369" lon="13.358075965921449"><ele>1539.0</ele><time>2026-03-29T14:08:47.998Z</time></trkpt><trkpt lat="41.937448246141656" lon="13.357908636038532"><ele>1539.0</ele><time>2026-03-29T14:08:48.998Z</time></trkpt><trkpt lat="41.93747582399143" lon="13.357732731710497"><ele>1539.0</ele><time>2026-03-29T14:08:49.998Z</time></trkpt><trkpt lat="41.93750940003642" lon="13.357582653807196"><ele>1539.8333333333333</ele><time>2026-03-29T14:08:50.998Z</time></trkpt><trkpt lat="41.937539744175226" lon="13.357447884936235"><ele>1540.6666666666665</ele><time>2026-03-29T14:08:51.998Z</time></trkpt><trkpt lat="41.93755668627203" lon="13.357347693274262"><ele>1541.5</ele><time>2026-03-29T14:08:52.998Z</time></trkpt><trkpt lat="41.937560149753494" lon="13.357212752869534"><ele>1542.3333333333333</ele><time>2026-03-29T14:08:54.998Z</time></trkpt><trkpt lat="41.93751902902876" lon="13.357113930400144"><ele>1543.1666666666665</ele><time>2026-03-29T14:08:56.998Z</time></trkpt><trkpt lat="41.93745756123354" lon="13.35705436518087"><ele>1544.0</ele><time>2026-03-29T14:08:58.998Z</time></trkpt><trkpt lat="41.93736581552971" lon="13.357041329392555"><ele>1555.0</ele><time>2026-03-29T14:09:13Z</time></trkpt><trkpt lat="41.93578054069909" lon="13.360220315767044"><ele>1555.0</ele><time>2026-03-29T14:10:14.999Z</time></trkpt><trkpt lat="41.9357207564959" lon="13.360336656364472"><ele>1555.0</ele><time>2026-03-29T14:10:15.999Z</time></trkpt><trkpt lat="41.935676699548566" lon="13.360461888470676"><ele>1555.0</ele><time>2026-03-29T14:10:16.999Z</time></trkpt><trkpt lat="41.93563643111878" lon="13.360588095110023"><ele>1555.0</ele><time>2026-03-29T14:10:17.999Z</time></trkpt><trkpt lat="41.935603881537524" lon="13.360712183159366"><ele>1555.0</ele><time>2026-03-29T14:10:18.999Z</time></trkpt><trkpt lat="41.93558684916767" lon="13.360833282053628"><ele>1552.3333333333335</ele><time>2026-03-29T14:10:19.999Z</time></trkpt><trkpt lat="41.9355573568943" lon="13.360957243841687"><ele>1549.6666666666667</ele><time>2026-03-29T14:10:20.999Z</time></trkpt><trkpt lat="41.93555122025141" lon="13.361077811425433"><ele>1547.0</ele><time>2026-03-29T14:10:21.999Z</time></trkpt><trkpt lat="41.93555328880167" lon="13.361193611309186"><ele>1544.3333333333335</ele><time>2026-03-29T14:10:22.999Z</time></trkpt><trkpt lat="41.93556667010915" lon="13.361296787290168"><ele>1541.6666666666667</ele><time>2026-03-29T14:10:23.999Z</time></trkpt><trkpt lat="41.93557919722025" lon="13.36140677030491"><ele>1539.0</ele><time>2026-03-29T14:10:24.999Z</time></trkpt><trkpt lat="41.93558863345854" lon="13.361495074584983"><ele>1539.0</ele><time>2026-03-29T14:10:25.999Z</time></trkpt><trkpt lat="41.93560147331725" lon="13.361655244379506"><ele>1539.0</ele><time>2026-03-29T14:10:27.999Z</time></trkpt><trkpt lat="41.935618390704754" lon="13.361820213305833"><ele>1539.0</ele><time>2026-03-29T14:10:29.999Z</time></trkpt><trkpt lat="41.935622584361845" lon="13.361916063422013"><ele>1539.0</ele><time>2026-03-29T14:10:30.999Z</time></trkpt><trkpt lat="41.93563809761381" lon="13.362008484551406"><ele>1539.0</ele><time>2026-03-29T14:10:31.999Z</time></trkpt><trkpt lat="41.9356625413652" lon="13.362112684959115"><ele>1540.6666666666667</ele><time>2026-03-29T14:10:32.999Z</time></trkpt><trkpt lat="41.93569568867583" lon="13.36221497130804"><ele>1542.3333333333335</ele><time>2026-03-29T14:10:33.999Z</time></trkpt><trkpt lat="41.93572113407752" lon="13.362305390826464"><ele>1544.0</ele><time>2026-03-29T14:10:34.999Z</time></trkpt><trkpt lat="41.93574196578134" lon="13.362399498042167"><ele>1545.6666666666667</ele><time>2026-03-29T14:10:35.999Z</time></trkpt><trkpt lat="41.93576043858002" lon="13.362498226551635"><ele>1547.3333333333335</ele><time>2026-03-29T14:10:36.999Z</time></trkpt><trkpt lat="41.935769467476085" lon="13.362602574700018"><ele>1549.0</ele><time>2026-03-29T14:10:37.999Z</time></trkpt><trkpt lat="41.9357614061859" lon="13.362707290893866"><ele>1549.0000000000002</ele><time>2026-03-29T14:10:38.999Z</time></trkpt><trkpt lat="41.93574270050315" lon="13.362796163162908"><ele>1549.0</ele><time>2026-03-29T14:10:39.999Z</time></trkpt><trkpt lat="41.93571686442541" lon="13.362939266880932"><ele>1549.0</ele><time>2026-03-29T14:10:41.999Z</time></trkpt><trkpt lat="41.935693375781135" lon="13.363041432316948"><ele>1549.0</ele><time>2026-03-29T14:10:43.999Z</time></trkpt><trkpt lat="41.93564363870555" lon="13.363147209011247"><ele>1549.0000000000002</ele><time>2026-03-29T14:10:45.999Z</time></trkpt><trkpt lat="41.935597804068365" lon="13.363259753261584"><ele>1549.0</ele><time>2026-03-29T14:10:48.999Z</time></trkpt><trkpt lat="41.935560622644985" lon="13.363346286750488"><ele>1548.5</ele><time>2026-03-29T14:10:51.998Z</time></trkpt><trkpt lat="41.935535087198794" lon="13.363442723660011"><ele>1548.0</ele><time>2026-03-29T14:10:54.998Z</time></trkpt><trkpt lat="41.93556295328768" lon="13.363340997472351"><ele>1547.5</ele><time>2026-03-29T14:11:10.998Z</time></trkpt><trkpt lat="41.93559754618544" lon="13.363260364871635"><ele>1547.0</ele><time>2026-03-29T14:11:12.998Z</time></trkpt><trkpt lat="41.93561437763526" lon="13.361797355167328"><ele>1545.857142857143</ele><time>2026-03-29T14:12:14.999Z</time></trkpt><trkpt lat="41.935616204020796" lon="13.3617031242975"><ele>1544.7142857142858</ele><time>2026-03-29T14:12:16.999Z</time></trkpt><trkpt lat="41.93563588017943" lon="13.361613192876598"><ele>1543.5714285714284</ele><time>2026-03-29T14:12:17.999Z</time></trkpt><trkpt lat="41.93562669294977" lon="13.36152718234951"><ele>1542.4285714285716</ele><time>2026-03-29T14:12:18.999Z</time></trkpt><trkpt lat="41.93561966688451" lon="13.361437416004572"><ele>1541.2857142857142</ele><time>2026-03-29T14:12:19.999Z</time></trkpt><trkpt lat="41.935612363817725" lon="13.361344110633077"><ele>1540.142857142857</ele><time>2026-03-29T14:12:20.999Z</time></trkpt><trkpt lat="41.935589154510694" lon="13.361259707509928"><ele>1539.0</ele><time>2026-03-29T14:12:21.999Z</time></trkpt><trkpt lat="41.93560198275401" lon="13.361171717030235"><ele>1538.0</ele><time>2026-03-29T14:12:22.999Z</time></trkpt><trkpt lat="41.93558338264861" lon="13.361086507947388"><ele>1537.0</ele><time>2026-03-29T14:12:23.999Z</time></trkpt><trkpt lat="41.93558538191915" lon="13.3609934404081"><ele>1536.0</ele><time>2026-03-29T14:12:24.999Z</time></trkpt><trkpt lat="41.93559598657319" lon="13.360895465484125"><ele>1535.0</ele><time>2026-03-29T14:12:25.999Z</time></trkpt><trkpt lat="41.93562093450668" lon="13.360792240409554"><ele>1534.0</ele><time>2026-03-29T14:12:26.999Z</time></trkpt><trkpt lat="41.93564826890268" lon="13.36068196249379"><ele>1533.0</ele><time>2026-03-29T14:12:27.999Z</time></trkpt><trkpt lat="41.935687805723695" lon="13.360564997143175"><ele>1538.5</ele><time>2026-03-29T14:12:28.999Z</time></trkpt><trkpt lat="41.9357272376413" lon="13.36043775949295"><ele>1544.0</ele><time>2026-03-29T14:12:29.999Z</time></trkpt><trkpt lat="41.93576626270195" lon="13.360305406447523"><ele>1549.5</ele><time>2026-03-29T14:12:30.999Z</time></trkpt><trkpt lat="41.93581239957112" lon="13.360159052378732"><ele>1555.0</ele><time>2026-03-29T14:12:31.999Z</time></trkpt><trkpt lat="41.935862825252315" lon="13.359997290264571"><ele>1542.25</ele><time>2026-03-29T14:12:32.999Z</time></trkpt><trkpt lat="41.935919666516746" lon="13.359841485266378"><ele>1529.5</ele><time>2026-03-29T14:12:33.999Z</time></trkpt><trkpt lat="41.93596263750412" lon="13.359700535300416"><ele>1516.75</ele><time>2026-03-29T14:12:34.999Z</time></trkpt><trkpt lat="41.936006062359226" lon="13.359564404809722"><ele>1504.0</ele><time>2026-03-29T14:12:35.999Z</time></trkpt><trkpt lat="41.93604460349583" lon="13.359424548567471"><ele>1504.0</ele><time>2026-03-29T14:12:36.999Z</time></trkpt><trkpt lat="41.93607849088791" lon="13.35928652859785"><ele>1504.0</ele><time>2026-03-29T14:12:37.999Z</time></trkpt><trkpt lat="41.93611018392687" lon="13.359143396284308"><ele>1504.0</ele><time>2026-03-29T14:12:38.999Z</time></trkpt><trkpt lat="41.93616351517896" lon="13.359019241467612"><ele>1504.0</ele><time>2026-03-29T14:12:39.999Z</time></trkpt><trkpt lat="41.93620815750925" lon="13.358886785680038"><ele>1504.0</ele><time>2026-03-29T14:12:40.999Z</time></trkpt><trkpt lat="41.936262897490444" lon="13.35873891566435"><ele>1511.5</ele><time>2026-03-29T14:12:41.999Z</time></trkpt><trkpt lat="41.93632622078765" lon="13.358586865409688"><ele>1519.0</ele><time>2026-03-29T14:12:42.999Z</time></trkpt><trkpt lat="41.93639834492646" lon="13.358430164353708"><ele>1526.5</ele><time>2026-03-29T14:12:43.999Z</time></trkpt><trkpt lat="41.936464271777375" lon="13.358259773762752"><ele>1534.0</ele><time>2026-03-29T14:12:44.999Z</time></trkpt><trkpt lat="41.93654764752713" lon="13.358112703397243"><ele>1536.5</ele><time>2026-03-29T14:12:45.999Z</time></trkpt><trkpt lat="41.93661948233417" lon="13.357967551587928"><ele>1539.0</ele><time>2026-03-29T14:12:46.999Z</time></trkpt><trkpt lat="41.93671622176775" lon="13.35784583821333"><ele>1541.5</ele><time>2026-03-29T14:12:47.999Z</time></trkpt><trkpt lat="41.93679681866311" lon="13.357706987984853"><ele>1544.0</ele><time>2026-03-29T14:12:48.999Z</time></trkpt><trkpt lat="41.93689323510427" lon="13.357588366807615"><ele>1544.0</ele><time>2026-03-29T14:12:49.999Z</time></trkpt><trkpt lat="41.93699010965736" lon="13.35747673460028"><ele>1544.0</ele><time>2026-03-29T14:12:50.999Z</time></trkpt><trkpt lat="41.93707868106138" lon="13.357366116432372"><ele>1544.0</ele><time>2026-03-29T14:12:51.998Z</time></trkpt><trkpt lat="41.93716072881713" lon="13.357264654479696"><ele>1544.0</ele><time>2026-03-29T14:12:52.998Z</time></trkpt><trkpt lat="41.9372240830122" lon="13.357177755742205"><ele>1543.9999999999998</ele><time>2026-03-29T14:12:53.998Z</time></trkpt><trkpt lat="41.93728645403502" lon="13.357118119982315"><ele>1544.0</ele><time>2026-03-29T14:12:54.998Z</time></trkpt><trkpt lat="41.93740202771614" lon="13.357071395106214"><ele>1544.0</ele><time>2026-03-29T14:12:56.998Z</time></trkpt><trkpt lat="41.93747921496189" lon="13.357111318819594"><ele>1544.0</ele><time>2026-03-29T14:12:58.998Z</time></trkpt><trkpt lat="41.93753102999846" lon="13.357203750393325"><ele>1543.9999999999998</ele><time>2026-03-29T14:13:00.998Z</time></trkpt><trkpt lat="41.937545902803585" lon="13.35728807300322"><ele>1544.0</ele><time>2026-03-29T14:13:01.998Z</time></trkpt><trkpt lat="41.93751189079435" lon="13.357389170771789"><ele>1543.9999999999998</ele><time>2026-03-29T14:13:02.998Z</time></trkpt><trkpt lat="41.937498908885104" lon="13.357499697454736"><ele>1544.0</ele><time>2026-03-29T14:13:03.998Z</time></trkpt><trkpt lat="41.937476678646156" lon="13.357630654177516"><ele>1544.0</ele><time>2026-03-29T14:13:04.998Z</time></trkpt><trkpt lat="41.93745975116929" lon="13.35775695139668"><ele>1544.0</ele><time>2026-03-29T14:13:05.998Z</time></trkpt><trkpt lat="41.93743695822909" lon="13.357855625038708"><ele>1543.9999999999998</ele><time>2026-03-29T14:13:06.998Z</time></trkpt><trkpt lat="41.93741474427789" lon="13.35794415299126"><ele>1544.0</ele><time>2026-03-29T14:13:07.998Z</time></trkpt><trkpt lat="41.937388613991544" lon="13.358033738440355"><ele>1543.0</ele><time>2026-03-29T14:13:08.998Z</time></trkpt><trkpt lat="41.937363859444815" lon="13.35812594084033"><ele>1542.0</ele><time>2026-03-29T14:13:09.998Z</time></trkpt><trkpt lat="41.93734239268184" lon="13.358213768576276"><ele>1541.0</ele><time>2026-03-29T14:13:10.998Z</time></trkpt><trkpt lat="41.93730018263465" lon="13.358348662677132"><ele>1540.0</ele><time>2026-03-29T14:13:12.998Z</time></trkpt><trkpt lat="41.93729563249147" lon="13.358434102580903"><ele>1539.0</ele><time>2026-03-29T14:13:13.998Z</time></trkpt><trkpt lat="41.94047878476164" lon="13.362247560282148"><ele>1541.6666666666667</ele><time>2026-03-29T14:14:14.999Z</time></trkpt><trkpt lat="41.94056175508384" lon="13.362192482940712"><ele>1544.3333333333335</ele><time>2026-03-29T14:14:21.999Z</time></trkpt><trkpt lat="41.94063271118004" lon="13.362162329381286"><ele>1547.0</ele><time>2026-03-29T14:14:22.999Z</time></trkpt><trkpt lat="41.94070656464025" lon="13.362133286165816"><ele>1549.6666666666667</ele><time>2026-03-29T14:14:23.999Z</time></trkpt><trkpt lat="41.94079164745708" lon="13.362113266493646"><ele>1552.3333333333335</ele><time>2026-03-29T14:14:24.999Z</time></trkpt><trkpt lat="41.940880655227765" lon="13.362160284939694"><ele>1555.0</ele><time>2026-03-29T14:14:25.999Z</time></trkpt><trkpt lat="41.94097443474046" lon="13.362189563411897"><ele>1556.8333333333335</ele><time>2026-03-29T14:14:26.999Z</time></trkpt><trkpt lat="41.941057246648334" lon="13.362194208011832"><ele>1558.6666666666667</ele><time>2026-03-29T14:14:27.999Z</time></trkpt><trkpt lat="41.941135519958586" lon="13.362244103097265"><ele>1560.5</ele><time>2026-03-29T14:14:28.999Z</time></trkpt><trkpt lat="41.94121501822892" lon="13.36224585734207"><ele>1562.3333333333335</ele><time>2026-03-29T14:14:29.999Z</time></trkpt><trkpt lat="41.941296187344506" lon="13.362253789149372"><ele>1564.1666666666667</ele><time>2026-03-29T14:14:30.999Z</time></trkpt><trkpt lat="41.94138008787949" lon="13.362250756936723"><ele>1566.0</ele><time>2026-03-29T14:14:31.999Z</time></trkpt><trkpt lat="41.94146993791333" lon="13.36224370748421"><ele>1553.8</ele><time>2026-03-29T14:14:32.999Z</time></trkpt><trkpt lat="41.941545942978415" lon="13.36226215402222"><ele>1541.6</ele><time>2026-03-29T14:14:33.999Z</time></trkpt><trkpt lat="41.941657988278905" lon="13.3622652230844"><ele>1529.4</ele><time>2026-03-29T14:14:35.999Z</time></trkpt><trkpt lat="41.94177607313078" lon="13.362300366075859"><ele>1517.2</ele><time>2026-03-29T14:14:37.999Z</time></trkpt><trkpt lat="41.941837993092214" lon="13.36235140157428"><ele>1505.0</ele><time>2026-03-29T14:14:38.999Z</time></trkpt><trkpt lat="41.94189449927915" lon="13.362430833214473"><ele>1505.0</ele><time>2026-03-29T14:14:39.999Z</time></trkpt><trkpt lat="41.94195352723558" lon="13.362515077657978"><ele>1505.0</ele><time>2026-03-29T14:14:40.999Z</time></trkpt><trkpt lat="41.942014822240516" lon="13.36258400705815"><ele>1505.0</ele><time>2026-03-29T14:14:41.999Z</time></trkpt><trkpt lat="41.942059435911375" lon="13.362646117036522"><ele>1505.0</ele><time>2026-03-29T14:14:42.999Z</time></trkpt><trkpt lat="41.94212059325365" lon="13.3626891260211"><ele>1505.0</ele><time>2026-03-29T14:14:43.999Z</time></trkpt><trkpt lat="41.942204268167714" lon="13.362697900107744"><ele>1505.0</ele><time>2026-03-29T14:14:44.999Z</time></trkpt><trkpt lat="41.9422936629153" lon="13.362679831444709"><ele>1505.0</ele><time>2026-03-29T14:14:45.999Z</time></trkpt><trkpt lat="41.942373233945325" lon="13.362647151426055"><ele>1505.0</ele><time>2026-03-29T14:14:46.999Z</time></trkpt><trkpt lat="41.9424482170131" lon="13.362620098502822"><ele>1505.0</ele><time>2026-03-29T14:14:47.999Z</time></trkpt><trkpt lat="41.94251225404803" lon="13.36262066863611"><ele>1505.0</ele><time>2026-03-29T14:14:48.999Z</time></trkpt><trkpt lat="41.94262130541919" lon="13.362643421644917"><ele>1505.0</ele><time>2026-03-29T14:14:50.999Z</time></trkpt><trkpt lat="41.94268588195831" lon="13.362664083502091"><ele>1505.0</ele><time>2026-03-29T14:14:51.999Z</time></trkpt><trkpt lat="41.942763220391384" lon="13.362695267974264"><ele>1503.5</ele><time>2026-03-29T14:14:52.999Z</time></trkpt><trkpt lat="41.9428465933529" lon="13.362724333837193"><ele>1502.0</ele><time>2026-03-29T14:14:53.999Z</time></trkpt><trkpt lat="41.94292596821249" lon="13.36273154960216"><ele>1500.5</ele><time>2026-03-29T14:14:54.999Z</time></trkpt><trkpt lat="41.94300463195467" lon="13.36271929968232"><ele>1499.0</ele><time>2026-03-29T14:14:55.999Z</time></trkpt><trkpt lat="41.943080193118014" lon="13.362686467857818"><ele>1497.5</ele><time>2026-03-29T14:14:56.998Z</time></trkpt><trkpt lat="41.9431473626783" lon="13.362626757116663"><ele>1496.0</ele><time>2026-03-29T14:14:57.998Z</time></trkpt><trkpt lat="41.943228359355004" lon="13.362590133175342"><ele>1496.0</ele><time>2026-03-29T14:14:58.998Z</time></trkpt><trkpt lat="41.943301659240845" lon="13.362534162624437"><ele>1496.0</ele><time>2026-03-29T14:14:59.998Z</time></trkpt><trkpt lat="41.94337303969875" lon="13.362477445570184"><ele>1496.0</ele><time>2026-03-29T14:15:00.998Z</time></trkpt><trkpt lat="41.94344114582925" lon="13.362423330302189"><ele>1496.0</ele><time>2026-03-29T14:15:01.998Z</time></trkpt><trkpt lat="41.94350974988729" lon="13.362366724633846"><ele>1496.0</ele><time>2026-03-29T14:15:02.998Z</time></trkpt><trkpt lat="41.943570205781704" lon="13.362315654855772"><ele>1496.0</ele><time>2026-03-29T14:15:03.998Z</time></trkpt><trkpt lat="41.94363682223831" lon="13.362257528248419"><ele>1495.8333333333335</ele><time>2026-03-29T14:15:04.998Z</time></trkpt><trkpt lat="41.943696879992835" lon="13.362200075962262"><ele>1495.6666666666667</ele><time>2026-03-29T14:15:05.998Z</time></trkpt><trkpt lat="41.94376518212319" lon="13.36212621953367"><ele>1495.5</ele><time>2026-03-29T14:15:06.998Z</time></trkpt><trkpt lat="41.94382569407335" lon="13.362042023409757"><ele>1495.3333333333333</ele><time>2026-03-29T14:15:07.998Z</time></trkpt><trkpt lat="41.94388100148118" lon="13.361956413571548"><ele>1495.1666666666665</ele><time>2026-03-29T14:15:08.998Z</time></trkpt><trkpt lat="41.943926743210895" lon="13.361864622214645"><ele>1495.0</ele><time>2026-03-29T14:15:09.998Z</time></trkpt><trkpt lat="41.944013587852005" lon="13.36180124314563"><ele>1495.0</ele><time>2026-03-29T14:15:10.998Z</time></trkpt><trkpt lat="41.944094541510076" lon="13.361751724039305"><ele>1495.0</ele><time>2026-03-29T14:15:11.998Z</time></trkpt><trkpt lat="41.944171877119615" lon="13.361718912680763"><ele>1495.0</ele><time>2026-03-29T14:15:12.998Z</time></trkpt><trkpt lat="41.94425355404925" lon="13.361688920464308"><ele>1495.0</ele><time>2026-03-29T14:15:13.998Z</time></trkpt><trkpt lat="41.94800419958952" lon="13.35617328325352"><ele>1482.25</ele><time>2026-03-29T14:16:14.999Z</time></trkpt><trkpt lat="41.94811260736719" lon="13.356126643273294"><ele>1469.5</ele><time>2026-03-29T14:16:15.999Z</time></trkpt><trkpt lat="41.9482118982235" lon="13.356057846036887"><ele>1456.75</ele><time>2026-03-29T14:16:16.999Z</time></trkpt><trkpt lat="41.9483013839123" lon="13.355961236814268"><ele>1444.0</ele><time>2026-03-29T14:16:17.999Z</time></trkpt><trkpt lat="41.94836972198754" lon="13.355838265413437"><ele>1440.8000000000002</ele><time>2026-03-29T14:16:18.999Z</time></trkpt><trkpt lat="41.94842055561363" lon="13.355698521343484"><ele>1437.6000000000001</ele><time>2026-03-29T14:16:19.999Z</time></trkpt><trkpt lat="41.94845689297542" lon="13.355554011113755"><ele>1434.4</ele><time>2026-03-29T14:16:20.999Z</time></trkpt><trkpt lat="41.94849742952237" lon="13.355426775851074"><ele>1431.2</ele><time>2026-03-29T14:16:21.999Z</time></trkpt><trkpt lat="41.948533752453265" lon="13.355295308803335"><ele>1428.0</ele><time>2026-03-29T14:16:22.999Z</time></trkpt><trkpt lat="41.94856878785984" lon="13.355165028007548"><ele>1428.0</ele><time>2026-03-29T14:16:23.999Z</time></trkpt><trkpt lat="41.948593217388265" lon="13.355034188112635"><ele>1428.0</ele><time>2026-03-29T14:16:24.999Z</time></trkpt><trkpt lat="41.94863501272738" lon="13.354919223522161"><ele>1428.0</ele><time>2026-03-29T14:16:25.999Z</time></trkpt><trkpt lat="41.94869393786091" lon="13.3548142299372"><ele>1428.0</ele><time>2026-03-29T14:16:26.999Z</time></trkpt><trkpt lat="41.948768727876036" lon="13.354723762747579"><ele>1428.0</ele><time>2026-03-29T14:16:27.999Z</time></trkpt><trkpt lat="41.948867018334575" lon="13.354662814893585"><ele>1430.4</ele><time>2026-03-29T14:16:28.999Z</time></trkpt><trkpt lat="41.948973138231736" lon="13.35463506977348"><ele>1432.8000000000002</ele><time>2026-03-29T14:16:29.999Z</time></trkpt><trkpt lat="41.949062861206464" lon="13.354620778853452"><ele>1435.2</ele><time>2026-03-29T14:16:30.999Z</time></trkpt><trkpt lat="41.94917831898405" lon="13.354613987010815"><ele>1437.6</ele><time>2026-03-29T14:16:31.999Z</time></trkpt><trkpt lat="41.94927625653219" lon="13.354611824987972"><ele>1440.0</ele><time>2026-03-29T14:16:32.999Z</time></trkpt><trkpt lat="41.94937082853608" lon="13.354655748267243"><ele>1437.2</ele><time>2026-03-29T14:16:33.999Z</time></trkpt><trkpt lat="41.94945162262574" lon="13.354730718728673"><ele>1434.4</ele><time>2026-03-29T14:16:34.999Z</time></trkpt><trkpt lat="41.94952135572064" lon="13.354837395899938"><ele>1431.6</ele><time>2026-03-29T14:16:35.999Z</time></trkpt><trkpt lat="41.949577565699364" lon="13.35495057114254"><ele>1428.8</ele><time>2026-03-29T14:16:36.999Z</time></trkpt><trkpt lat="41.949639413838526" lon="13.355038845966178"><ele>1426.0</ele><time>2026-03-29T14:16:37.999Z</time></trkpt><trkpt lat="41.9497225605931" lon="13.355101725173657"><ele>1426.0</ele><time>2026-03-29T14:16:38.999Z</time></trkpt><trkpt lat="41.949835166312006" lon="13.35513828847216"><ele>1426.0</ele><time>2026-03-29T14:16:39.999Z</time></trkpt><trkpt lat="41.94995403251353" lon="13.3551503560424"><ele>1426.0</ele><time>2026-03-29T14:16:40.999Z</time></trkpt><trkpt lat="41.950069356760686" lon="13.355163275901353"><ele>1426.0</ele><time>2026-03-29T14:16:41.999Z</time></trkpt><trkpt lat="41.950179946564546" lon="13.355154865947844"><ele>1422.8</ele><time>2026-03-29T14:16:42.999Z</time></trkpt><trkpt lat="41.95028606806016" lon="13.35516539538392"><ele>1419.6</ele><time>2026-03-29T14:16:43.999Z</time></trkpt><trkpt lat="41.950393234778815" lon="13.355151028368653"><ele>1416.4</ele><time>2026-03-29T14:16:44.999Z</time></trkpt><trkpt lat="41.95049608921769" lon="13.355120377256803"><ele>1413.2</ele><time>2026-03-29T14:16:45.999Z</time></trkpt><trkpt lat="41.95057585065976" lon="13.355046398119152"><ele>1410.0</ele><time>2026-03-29T14:16:46.999Z</time></trkpt><trkpt lat="41.950654343655096" lon="13.35498960090712"><ele>1410.0</ele><time>2026-03-29T14:16:47.999Z</time></trkpt><trkpt lat="41.95072495518784" lon="13.354921852726534"><ele>1410.0</ele><time>2026-03-29T14:16:48.999Z</time></trkpt><trkpt lat="41.950800774569444" lon="13.354832423334324"><ele>1410.0</ele><time>2026-03-29T14:16:49.999Z</time></trkpt><trkpt lat="41.950880562885146" lon="13.354739362882718"><ele>1410.0</ele><time>2026-03-29T14:16:50.999Z</time></trkpt><trkpt lat="41.95095896017713" lon="13.354650108662199"><ele>1410.0</ele><time>2026-03-29T14:16:51.999Z</time></trkpt><trkpt lat="41.951046361065785" lon="13.354548324879724"><ele>1408.2</ele><time>2026-03-29T14:16:52.999Z</time></trkpt><trkpt lat="41.95112079471876" lon="13.354458969564398"><ele>1406.4</ele><time>2026-03-29T14:16:53.999Z</time></trkpt><trkpt lat="41.951183186830605" lon="13.354359786731127"><ele>1404.6</ele><time>2026-03-29T14:16:54.999Z</time></trkpt><trkpt lat="41.951271863544505" lon="13.354306720674092"><ele>1402.8</ele><time>2026-03-29T14:16:55.999Z</time></trkpt><trkpt lat="41.951338949016375" lon="13.354243224094438"><ele>1401.0</ele><time>2026-03-29T14:16:56.999Z</time></trkpt><trkpt lat="41.95141299299179" lon="13.35414815986178"><ele>1401.0</ele><time>2026-03-29T14:16:57.999Z</time></trkpt><trkpt lat="41.95146768938991" lon="13.354023078825232"><ele>1401.0</ele><time>2026-03-29T14:16:58.999Z</time></trkpt><trkpt lat="41.95153220153236" lon="13.353889855654511"><ele>1401.0</ele><time>2026-03-29T14:16:59.999Z</time></trkpt><trkpt lat="41.95159270417079" lon="13.353760526090522"><ele>1401.0</ele><time>2026-03-29T14:17:00.999Z</time></trkpt><trkpt lat="41.951655125473614" lon="13.353635259849376"><ele>1400.0</ele><time>2026-03-29T14:17:01.999Z</time></trkpt><trkpt lat="41.951717914218584" lon="13.353526369097484"><ele>1399.0</ele><time>2026-03-29T14:17:02.999Z</time></trkpt><trkpt lat="41.95178526441159" lon="13.353427208676894"><ele>1398.0</ele><time>2026-03-29T14:17:03.999Z</time></trkpt><trkpt lat="41.951850116166035" lon="13.353323511042978"><ele>1397.0</ele><time>2026-03-29T14:17:04.999Z</time></trkpt><trkpt lat="41.95191071171993" lon="13.353223545788703"><ele>1396.0</ele><time>2026-03-29T14:17:05.999Z</time></trkpt><trkpt lat="41.95197933046933" lon="13.353153242335974"><ele>1396.0</ele><time>2026-03-29T14:17:06.999Z</time></trkpt><trkpt lat="41.95204981382293" lon="13.35310773677893"><ele>1396.0</ele><time>2026-03-29T14:17:07.998Z</time></trkpt><trkpt lat="41.95211410441103" lon="13.353082481062039"><ele>1396.0</ele><time>2026-03-29T14:17:08.998Z</time></trkpt><trkpt lat="41.952219823427406" lon="13.35309160356946"><ele>1396.0</ele><time>2026-03-29T14:17:10.998Z</time></trkpt><trkpt lat="41.952302783928786" lon="13.353123077083316"><ele>1396.0</ele><time>2026-03-29T14:17:11.998Z</time></trkpt><trkpt lat="41.952376033249934" lon="13.353171136601155"><ele>1396.0</ele><time>2026-03-29T14:17:12.998Z</time></trkpt><trkpt lat="41.95243982972718" lon="13.353212592188163"><ele>1411.0</ele><time>2026-03-29T14:17:13.998Z</time></trkpt><trkpt lat="41.9534818410693" lon="13.354442923737793"><ele>1411.0</ele><time>2026-03-29T14:24:11Z</time></trkpt><trkpt lat="41.95351221656549" lon="13.354589468525054"><ele>1411.0</ele><time>2026-03-29T14:24:13Z</time></trkpt><trkpt lat="41.95366577720233" lon="13.36075428359111"><ele>1402.0</ele><time>2026-03-29T14:25:14.999Z</time></trkpt><trkpt lat="41.95366509661292" lon="13.360841791352039"><ele>1393.0</ele><time>2026-03-29T14:25:15.999Z</time></trkpt><trkpt lat="41.95360827916859" lon="13.360947630370545"><ele>1384.0</ele><time>2026-03-29T14:25:17.999Z</time></trkpt><trkpt lat="41.95351839728062" lon="13.360952769610657"><ele>1375.0</ele><time>2026-03-29T14:25:19.999Z</time></trkpt><trkpt lat="41.95341752666229" lon="13.360861791636353"><ele>1366.0</ele><time>2026-03-29T14:25:21.999Z</time></trkpt><trkpt lat="41.95335520765447" lon="13.360799584010273"><ele>1364.1666666666665</ele><time>2026-03-29T14:25:22.999Z</time></trkpt><trkpt lat="41.95329527154329" lon="13.360741153106257"><ele>1362.3333333333333</ele><time>2026-03-29T14:25:23.999Z</time></trkpt><trkpt lat="41.953237133716115" lon="13.360688834750405"><ele>1360.5</ele><time>2026-03-29T14:25:24.998Z</time></trkpt><trkpt lat="41.953178814685344" lon="13.360640434799553"><ele>1358.6666666666667</ele><time>2026-03-29T14:25:25.998Z</time></trkpt><trkpt lat="41.953116946640776" lon="13.360581288496304"><ele>1356.8333333333335</ele><time>2026-03-29T14:25:26.998Z</time></trkpt><trkpt lat="41.95303708518097" lon="13.36053988302245"><ele>1355.0</ele><time>2026-03-29T14:25:27.998Z</time></trkpt><trkpt lat="41.9529511169712" lon="13.36050724137908"><ele>1355.0</ele><time>2026-03-29T14:25:28.998Z</time></trkpt><trkpt lat="41.952869331228854" lon="13.360472925202478"><ele>1355.0</ele><time>2026-03-29T14:25:29.998Z</time></trkpt><trkpt lat="41.95278987547474" lon="13.36044455535538"><ele>1355.0</ele><time>2026-03-29T14:25:30.998Z</time></trkpt><trkpt lat="41.952710175853184" lon="13.36041788403365"><ele>1355.0</ele><time>2026-03-29T14:25:31.998Z</time></trkpt><trkpt lat="41.952627052624024" lon="13.360399524834977"><ele>1355.0</ele><time>2026-03-29T14:25:32.998Z</time></trkpt><trkpt lat="41.95253503570503" lon="13.360374319129312"><ele>1355.0</ele><time>2026-03-29T14:25:33.998Z</time></trkpt><trkpt lat="41.95244560951847" lon="13.360354774633546"><ele>1352.6666666666667</ele><time>2026-03-29T14:25:34.998Z</time></trkpt><trkpt lat="41.95236150081277" lon="13.360331361571072"><ele>1350.3333333333335</ele><time>2026-03-29T14:25:35.998Z</time></trkpt><trkpt lat="41.9522851844952" lon="13.36030148697736"><ele>1348.0</ele><time>2026-03-29T14:25:36.998Z</time></trkpt><trkpt lat="41.95220793944082" lon="13.360258737998295"><ele>1345.6666666666667</ele><time>2026-03-29T14:25:37.998Z</time></trkpt><trkpt lat="41.95212568733259" lon="13.360197082223761"><ele>1343.3333333333333</ele><time>2026-03-29T14:25:38.998Z</time></trkpt><trkpt lat="41.95207264080883" lon="13.360095821040701"><ele>1341.0</ele><time>2026-03-29T14:25:39.998Z</time></trkpt><trkpt lat="41.95199296057819" lon="13.360001610005531"><ele>1341.0</ele><time>2026-03-29T14:25:40.998Z</time></trkpt><trkpt lat="41.95193369356965" lon="13.359900374188962"><ele>1341.0</ele><time>2026-03-29T14:25:41.998Z</time></trkpt><trkpt lat="41.95187615673149" lon="13.359810191517816"><ele>1341.0</ele><time>2026-03-29T14:25:42.998Z</time></trkpt><trkpt lat="41.95182242680791" lon="13.359735711913627"><ele>1341.0</ele><time>2026-03-29T14:25:43.998Z</time></trkpt><trkpt lat="41.95177410696023" lon="13.359667433544393"><ele>1341.0</ele><time>2026-03-29T14:25:44.998Z</time></trkpt><trkpt lat="41.951721229112245" lon="13.359610663982409"><ele>1341.0</ele><time>2026-03-29T14:25:45.998Z</time></trkpt><trkpt lat="41.95166277331809" lon="13.359573153373745"><ele>1341.6666666666667</ele><time>2026-03-29T14:25:46.998Z</time></trkpt><trkpt lat="41.95159553796764" lon="13.359579048989241"><ele>1342.3333333333333</ele><time>2026-03-29T14:25:47.998Z</time></trkpt><trkpt lat="41.95153091525229" lon="13.359633469299052"><ele>1343.0</ele><time>2026-03-29T14:25:48.998Z</time></trkpt><trkpt lat="41.951493244037394" lon="13.359719815570578"><ele>1343.6666666666665</ele><time>2026-03-29T14:25:49.998Z</time></trkpt><trkpt lat="41.95148822675021" lon="13.359833008793794"><ele>1344.3333333333333</ele><time>2026-03-29T14:25:50.998Z</time></trkpt><trkpt lat="41.95153031345433" lon="13.359936784469117"><ele>1345.0</ele><time>2026-03-29T14:25:51.998Z</time></trkpt><trkpt lat="41.951598683368985" lon="13.360043520504549"><ele>1344.2</ele><time>2026-03-29T14:25:52.998Z</time></trkpt><trkpt lat="41.95166020365919" lon="13.360162004155294"><ele>1343.4</ele><time>2026-03-29T14:25:53.998Z</time></trkpt><trkpt lat="41.951718980985284" lon="13.360287032194229"><ele>1342.6</ele><time>2026-03-29T14:25:54.998Z</time></trkpt><trkpt lat="41.95177812064068" lon="13.360414571594493"><ele>1341.8</ele><time>2026-03-29T14:25:55.998Z</time></trkpt><trkpt lat="41.95183320611099" lon="13.360545645956119"><ele>1341.0</ele><time>2026-03-29T14:25:56.998Z</time></trkpt><trkpt lat="41.95187405165642" lon="13.360676207575692"><ele>1337.4</ele><time>2026-03-29T14:25:57.998Z</time></trkpt><trkpt lat="41.951908986168334" lon="13.360799330769096"><ele>1333.8</ele><time>2026-03-29T14:25:59Z</time></trkpt><trkpt lat="41.95195075923004" lon="13.360911964556008"><ele>1330.2</ele><time>2026-03-29T14:26:00Z</time></trkpt><trkpt lat="41.95199863690546" lon="13.361020298750661"><ele>1326.6000000000001</ele><time>2026-03-29T14:26:01Z</time></trkpt><trkpt lat="41.952054918681036" lon="13.36113283289556"><ele>1323.0</ele><time>2026-03-29T14:26:02Z</time></trkpt><trkpt lat="41.95212059180703" lon="13.36124475329853"><ele>1323.0</ele><time>2026-03-29T14:26:03Z</time></trkpt><trkpt lat="41.9521910565466" lon="13.361337690961301"><ele>1323.0</ele><time>2026-03-29T14:26:04Z</time></trkpt><trkpt lat="41.95226799944587" lon="13.36142141339379"><ele>1323.0</ele><time>2026-03-29T14:26:05Z</time></trkpt><trkpt lat="41.95234395155913" lon="13.361499028249144"><ele>1323.0</ele><time>2026-03-29T14:26:06Z</time></trkpt><trkpt lat="41.95241412812054" lon="13.361578124045112"><ele>1323.0</ele><time>2026-03-29T14:26:07Z</time></trkpt><trkpt lat="41.952486347411906" lon="13.361664301917862"><ele>1324.0</ele><time>2026-03-29T14:26:08Z</time></trkpt><trkpt lat="41.952554465740626" lon="13.361746175757936"><ele>1325.0</ele><time>2026-03-29T14:26:09Z</time></trkpt><trkpt lat="41.95261501899581" lon="13.361822459729233"><ele>1326.0</ele><time>2026-03-29T14:26:10Z</time></trkpt><trkpt lat="41.95266947415668" lon="13.361910872231325"><ele>1327.0</ele><time>2026-03-29T14:26:11Z</time></trkpt><trkpt lat="41.95271174711982" lon="13.362012484155521"><ele>1328.0</ele><time>2026-03-29T14:26:12Z</time></trkpt><trkpt lat="41.95273930804026" lon="13.362125086128593"><ele>1329.0</ele><time>2026-03-29T14:26:13Z</time></trkpt><trkpt lat="41.95275205877707" lon="13.36223909148898"><ele>1260.0</ele><time>2026-03-29T14:26:14Z</time></trkpt><trkpt lat="41.95147816573698" lon="13.36841495685297"><ele>1260.0</ele><time>2026-03-29T14:27:14.999Z</time></trkpt><trkpt lat="41.95156909230401" lon="13.368429263568627"><ele>1260.0</ele><time>2026-03-29T14:27:15.999Z</time></trkpt><trkpt lat="41.95166417011562" lon="13.368420981679588"><ele>1260.0</ele><time>2026-03-29T14:27:16.999Z</time></trkpt><trkpt lat="41.95175593270312" lon="13.368392398280458"><ele>1260.0</ele><time>2026-03-29T14:27:17.999Z</time></trkpt><trkpt lat="41.95184629095854" lon="13.368357638096612"><ele>1260.0</ele><time>2026-03-29T14:27:18.999Z</time></trkpt><trkpt lat="41.95194390307109" lon="13.368318198578244"><ele>1257.6</ele><time>2026-03-29T14:27:19.999Z</time></trkpt><trkpt lat="41.952037384464305" lon="13.368274057825698"><ele>1255.2</ele><time>2026-03-29T14:27:20.999Z</time></trkpt><trkpt lat="41.95211904706785" lon="13.368206826209805"><ele>1252.8</ele><time>2026-03-29T14:27:21.999Z</time></trkpt><trkpt lat="41.952179625491944" lon="13.368093946910097"><ele>1250.4</ele><time>2026-03-29T14:27:22.999Z</time></trkpt><trkpt lat="41.9522030715258" lon="13.367951394631007"><ele>1248.0</ele><time>2026-03-29T14:27:23.999Z</time></trkpt><trkpt lat="41.95222793090498" lon="13.367794131146464"><ele>1248.0</ele><time>2026-03-29T14:27:24.999Z</time></trkpt><trkpt lat="41.95225614907416" lon="13.367657218706517"><ele>1248.0</ele><time>2026-03-29T14:27:25.999Z</time></trkpt><trkpt lat="41.95228795818338" lon="13.36753650437104"><ele>1248.0</ele><time>2026-03-29T14:27:26.999Z</time></trkpt><trkpt lat="41.95231509429774" lon="13.367394205303315"><ele>1248.0</ele><time>2026-03-29T14:27:27.999Z</time></trkpt><trkpt lat="41.95235717188501" lon="13.367263217337433"><ele>1248.0</ele><time>2026-03-29T14:27:28.999Z</time></trkpt><trkpt lat="41.95240466521364" lon="13.367140002557242"><ele>1243.25</ele><time>2026-03-29T14:27:29.999Z</time></trkpt><trkpt lat="41.95248936086504" lon="13.36705004195445"><ele>1238.5</ele><time>2026-03-29T14:27:30.999Z</time></trkpt><trkpt lat="41.95258311762711" lon="13.36696468783755"><ele>1233.75</ele><time>2026-03-29T14:27:31.999Z</time></trkpt><trkpt lat="41.952686271153574" lon="13.366876558257076"><ele>1229.0</ele><time>2026-03-29T14:27:32.998Z</time></trkpt><trkpt lat="41.95278432338392" lon="13.366771426436024"><ele>1229.0</ele><time>2026-03-29T14:27:33.998Z</time></trkpt><trkpt lat="41.952884928411194" lon="13.366696954096689"><ele>1229.0</ele><time>2026-03-29T14:27:34.998Z</time></trkpt><trkpt lat="41.952978863740725" lon="13.366632953458241"><ele>1229.0</ele><time>2026-03-29T14:27:35.998Z</time></trkpt><trkpt lat="41.9530617437316" lon="13.366580301385001"><ele>1229.0</ele><time>2026-03-29T14:27:36.998Z</time></trkpt><trkpt lat="41.95314659104635" lon="13.366523838708106"><ele>1229.0</ele><time>2026-03-29T14:27:37.998Z</time></trkpt><trkpt lat="41.95322870832874" lon="13.366458321208569"><ele>1226.25</ele><time>2026-03-29T14:27:38.998Z</time></trkpt><trkpt lat="41.953303345480464" lon="13.366357668030581"><ele>1223.5</ele><time>2026-03-29T14:27:39.998Z</time></trkpt><trkpt lat="41.953363989579366" lon="13.366229882637617"><ele>1220.75</ele><time>2026-03-29T14:27:40.998Z</time></trkpt><trkpt lat="41.9534126224988" lon="13.366086780593015"><ele>1218.0</ele><time>2026-03-29T14:27:41.998Z</time></trkpt><trkpt lat="41.953453873816294" lon="13.36594367826707"><ele>1218.0</ele><time>2026-03-29T14:27:42.998Z</time></trkpt><trkpt lat="41.95350769441913" lon="13.365813846173264"><ele>1218.0</ele><time>2026-03-29T14:27:43.998Z</time></trkpt><trkpt lat="41.95360686590151" lon="13.365725396173783"><ele>1218.0</ele><time>2026-03-29T14:27:44.998Z</time></trkpt><trkpt lat="41.953713203383714" lon="13.3656263309083"><ele>1218.0</ele><time>2026-03-29T14:27:45.998Z</time></trkpt><trkpt lat="41.95381955538983" lon="13.365516634516341"><ele>1214.8</ele><time>2026-03-29T14:27:46.998Z</time></trkpt><trkpt lat="41.95394262787403" lon="13.365458988510026"><ele>1211.6</ele><time>2026-03-29T14:27:47.998Z</time></trkpt><trkpt lat="41.95405041399406" lon="13.365408313627945"><ele>1208.4</ele><time>2026-03-29T14:27:48.998Z</time></trkpt><trkpt lat="41.95413525835776" lon="13.365368016468485"><ele>1205.2</ele><time>2026-03-29T14:27:49.998Z</time></trkpt><trkpt lat="41.954209276236796" lon="13.365286139001931"><ele>1202.0</ele><time>2026-03-29T14:27:50.998Z</time></trkpt><trkpt lat="41.954278423088105" lon="13.36516706788313"><ele>1202.0</ele><time>2026-03-29T14:27:51.998Z</time></trkpt><trkpt lat="41.954328002429946" lon="13.365022717048323"><ele>1202.0</ele><time>2026-03-29T14:27:52.998Z</time></trkpt><trkpt lat="41.95437602500752" lon="13.364888405663972"><ele>1202.0</ele><time>2026-03-29T14:27:53.998Z</time></trkpt><trkpt lat="41.95442010437014" lon="13.364773419681988"><ele>1202.0</ele><time>2026-03-29T14:27:54.998Z</time></trkpt><trkpt lat="41.95447868362839" lon="13.364657200601252"><ele>1202.0</ele><time>2026-03-29T14:27:55.998Z</time></trkpt><trkpt lat="41.954571524035" lon="13.36456602294382"><ele>1211.0</ele><time>2026-03-29T14:27:56.998Z</time></trkpt><trkpt lat="41.9546896060434" lon="13.364492036253154"><ele>1220.0</ele><time>2026-03-29T14:27:57.998Z</time></trkpt><trkpt lat="41.954803876422886" lon="13.364400549766588"><ele>1229.0</ele><time>2026-03-29T14:27:58.998Z</time></trkpt><trkpt lat="41.95490959598426" lon="13.364330096878419"><ele>1238.0</ele><time>2026-03-29T14:27:59.998Z</time></trkpt><trkpt lat="41.95501211542202" lon="13.364249479731052"><ele>1232.5</ele><time>2026-03-29T14:28:00.998Z</time></trkpt><trkpt lat="41.955113238535105" lon="13.364173959612456"><ele>1227.0</ele><time>2026-03-29T14:28:01.998Z</time></trkpt><trkpt lat="41.9552045037579" lon="13.364083786095849"><ele>1221.5</ele><time>2026-03-29T14:28:02.998Z</time></trkpt><trkpt lat="41.955285282666004" lon="13.36398287065438"><ele>1216.0</ele><time>2026-03-29T14:28:03.998Z</time></trkpt><trkpt lat="41.955351682144354" lon="13.363862531242503"><ele>1216.0</ele><time>2026-03-29T14:28:05Z</time></trkpt><trkpt lat="41.95540913237409" lon="13.363729347458293"><ele>1216.0</ele><time>2026-03-29T14:28:06Z</time></trkpt><trkpt lat="41.95546281412691" lon="13.363573097865665"><ele>1216.0</ele><time>2026-03-29T14:28:07Z</time></trkpt><trkpt lat="41.955526592752" lon="13.363413347920782"><ele>1216.0</ele><time>2026-03-29T14:28:08Z</time></trkpt><trkpt lat="41.95560083535486" lon="13.363269546509189"><ele>1216.0</ele><time>2026-03-29T14:28:09Z</time></trkpt><trkpt lat="41.955668058660486" lon="13.363136135780575"><ele>1216.0</ele><time>2026-03-29T14:28:10Z</time></trkpt><trkpt lat="41.95572565972981" lon="13.362999311000324"><ele>1216.0</ele><time>2026-03-29T14:28:11Z</time></trkpt><trkpt lat="41.955805020483965" lon="13.362883215798698"><ele>1216.0</ele><time>2026-03-29T14:28:12Z</time></trkpt><trkpt lat="41.955913309755886" lon="13.362807480323518"><ele>1212.0</ele><time>2026-03-29T14:28:13Z</time></trkpt><trkpt lat="41.95601288128052" lon="13.362704525397687"><ele>1208.0</ele><time>2026-03-29T14:28:14Z</time></trkpt><trkpt lat="41.9619668426125" lon="13.35576962054557"><ele>1199.5</ele><time>2026-03-29T14:29:14.999Z</time></trkpt><trkpt lat="41.96204140805662" lon="13.35564768245796"><ele>1191.0</ele><time>2026-03-29T14:29:15.999Z</time></trkpt><trkpt lat="41.96213086855777" lon="13.355542078167893"><ele>1182.5</ele><time>2026-03-29T14:29:16.999Z</time></trkpt><trkpt lat="41.96223094613794" lon="13.35546047460981"><ele>1174.0</ele><time>2026-03-29T14:29:17.999Z</time></trkpt><trkpt lat="41.962338615922185" lon="13.355389044709439"><ele>1174.0</ele><time>2026-03-29T14:29:18.999Z</time></trkpt><trkpt lat="41.96245246207957" lon="13.355302254707723"><ele>1174.0</ele><time>2026-03-29T14:29:19.999Z</time></trkpt><trkpt lat="41.96256924406969" lon="13.355205117655819"><ele>1174.0</ele><time>2026-03-29T14:29:20.999Z</time></trkpt><trkpt lat="41.96268877307351" lon="13.355112932659239"><ele>1174.0</ele><time>2026-03-29T14:29:21.999Z</time></trkpt><trkpt lat="41.962811386641725" lon="13.355023238375482"><ele>1163.75</ele><time>2026-03-29T14:29:22.999Z</time></trkpt><trkpt lat="41.962938778136696" lon="13.354941629940342"><ele>1153.5</ele><time>2026-03-29T14:29:23.999Z</time></trkpt><trkpt lat="41.9630701776579" lon="13.354864259041108"><ele>1143.25</ele><time>2026-03-29T14:29:24.999Z</time></trkpt><trkpt lat="41.963204790615706" lon="13.354797910036632"><ele>1133.0</ele><time>2026-03-29T14:29:25.999Z</time></trkpt><trkpt lat="41.96334656012582" lon="13.354752603768867"><ele>1136.5</ele><time>2026-03-29T14:29:26.999Z</time></trkpt><trkpt lat="41.963486710922844" lon="13.35470492508071"><ele>1140.0</ele><time>2026-03-29T14:29:27.999Z</time></trkpt><trkpt lat="41.96362321876139" lon="13.354631985216441"><ele>1143.5</ele><time>2026-03-29T14:29:28.999Z</time></trkpt><trkpt lat="41.96375834892249" lon="13.354537852878563"><ele>1147.0</ele><time>2026-03-29T14:29:29.999Z</time></trkpt><trkpt lat="41.96389696237162" lon="13.35444734059098"><ele>1147.0</ele><time>2026-03-29T14:29:30.999Z</time></trkpt><trkpt lat="41.964036529643955" lon="13.354353960453576"><ele>1147.0</ele><time>2026-03-29T14:29:31.999Z</time></trkpt><trkpt lat="41.9641647232869" lon="13.354253473130004"><ele>1147.0</ele><time>2026-03-29T14:29:32.999Z</time></trkpt><trkpt lat="41.96429320920488" lon="13.35416133536577"><ele>1137.5</ele><time>2026-03-29T14:29:33.999Z</time></trkpt><trkpt lat="41.96441885732706" lon="13.354091857620668"><ele>1128.0</ele><time>2026-03-29T14:29:34.999Z</time></trkpt><trkpt lat="41.964548803619145" lon="13.354031293831637"><ele>1118.5</ele><time>2026-03-29T14:29:35.999Z</time></trkpt><trkpt lat="41.96466920624427" lon="13.353972673558749"><ele>1109.0</ele><time>2026-03-29T14:29:36.998Z</time></trkpt><trkpt lat="41.964771102369035" lon="13.353892803275778"><ele>1114.2</ele><time>2026-03-29T14:29:37.998Z</time></trkpt><trkpt lat="41.9648525550869" lon="13.3537924883296"><ele>1119.4</ele><time>2026-03-29T14:29:38.998Z</time></trkpt><trkpt lat="41.96489728768454" lon="13.353693022974083"><ele>1124.6</ele><time>2026-03-29T14:29:39.998Z</time></trkpt><trkpt lat="41.96496067794461" lon="13.353622884450582"><ele>1129.8</ele><time>2026-03-29T14:29:40.998Z</time></trkpt><trkpt lat="41.965018867295285" lon="13.353568604791255"><ele>1135.0</ele><time>2026-03-29T14:29:41.998Z</time></trkpt><trkpt lat="41.96511416628831" lon="13.353515907259514"><ele>1135.0</ele><time>2026-03-29T14:29:42.998Z</time></trkpt><trkpt lat="41.96523764460375" lon="13.353522251537981"><ele>1135.0</ele><time>2026-03-29T14:29:43.998Z</time></trkpt><trkpt lat="41.96535854195806" lon="13.353560325101894"><ele>1135.0</ele><time>2026-03-29T14:29:44.998Z</time></trkpt><trkpt lat="41.96547511498939" lon="13.35359306040566"><ele>1135.0</ele><time>2026-03-29T14:29:45.998Z</time></trkpt><trkpt lat="41.96559061817916" lon="13.353609063009328"><ele>1135.0</ele><time>2026-03-29T14:29:46.998Z</time></trkpt><trkpt lat="41.96570158025221" lon="13.353606507529914"><ele>1135.0</ele><time>2026-03-29T14:29:47.998Z</time></trkpt><trkpt lat="41.96580717425594" lon="13.353596831104575"><ele>1135.0</ele><time>2026-03-29T14:29:48.998Z</time></trkpt><trkpt lat="41.96591310726874" lon="13.353589140976633"><ele>1135.0</ele><time>2026-03-29T14:29:49.998Z</time></trkpt><trkpt lat="41.96601504440005" lon="13.353573276177368"><ele>1135.0</ele><time>2026-03-29T14:29:50.998Z</time></trkpt><trkpt lat="41.96610488827424" lon="13.353511436898902"><ele>1136.8</ele><time>2026-03-29T14:29:51.998Z</time></trkpt><trkpt lat="41.966189606912465" lon="13.353439804864085"><ele>1138.6</ele><time>2026-03-29T14:29:52.998Z</time></trkpt><trkpt lat="41.96627258652688" lon="13.353318839566109"><ele>1140.4</ele><time>2026-03-29T14:29:53.998Z</time></trkpt><trkpt lat="41.96635478068771" lon="13.353207326624268"><ele>1142.2</ele><time>2026-03-29T14:29:54.998Z</time></trkpt><trkpt lat="41.966430216356855" lon="13.35310262770014"><ele>1144.0</ele><time>2026-03-29T14:29:55.998Z</time></trkpt><trkpt lat="41.96650621967983" lon="13.353002437142594"><ele>1144.0</ele><time>2026-03-29T14:29:56.998Z</time></trkpt><trkpt lat="41.966585904389326" lon="13.352908658226609"><ele>1144.0</ele><time>2026-03-29T14:29:57.998Z</time></trkpt><trkpt lat="41.96669117341382" lon="13.352873791196314"><ele>1144.0</ele><time>2026-03-29T14:29:58.998Z</time></trkpt><trkpt lat="41.96680148590566" lon="13.352877869488982"><ele>1144.0</ele><time>2026-03-29T14:29:59.998Z</time></trkpt><trkpt lat="41.966899735272456" lon="13.352912256507507"><ele>1144.0</ele><time>2026-03-29T14:30:00.998Z</time></trkpt><trkpt lat="41.96699338699113" lon="13.352910301259493"><ele>1135.4</ele><time>2026-03-29T14:30:01.998Z</time></trkpt><trkpt lat="41.967081955022145" lon="13.352858296814945"><ele>1126.8000000000002</ele><time>2026-03-29T14:30:02.998Z</time></trkpt><trkpt lat="41.96715965898377" lon="13.35277022953717"><ele>1118.1999999999998</ele><time>2026-03-29T14:30:03.998Z</time></trkpt><trkpt lat="41.967231351689264" lon="13.35265478431496"><ele>1109.6</ele><time>2026-03-29T14:30:04.998Z</time></trkpt><trkpt lat="41.9672966608932" lon="13.352545975800663"><ele>1101.0</ele><time>2026-03-29T14:30:05.998Z</time></trkpt><trkpt lat="41.96735473066873" lon="13.352471144516866"><ele>1101.0</ele><time>2026-03-29T14:30:06.998Z</time></trkpt><trkpt lat="41.96742671668845" lon="13.352397143222833"><ele>1101.0</ele><time>2026-03-29T14:30:07.998Z</time></trkpt><trkpt lat="41.96750349533885" lon="13.352319975211753"><ele>1101.0</ele><time>2026-03-29T14:30:08.998Z</time></trkpt><trkpt lat="41.96761825015147" lon="13.352193640998467"><ele>1101.0</ele><time>2026-03-29T14:30:09.998Z</time></trkpt><trkpt lat="41.967696260667466" lon="13.352140598779892"><ele>1101.0</ele><time>2026-03-29T14:30:11Z</time></trkpt><trkpt lat="41.96779499113559" lon="13.352091920325382"><ele>1102.3333333333333</ele><time>2026-03-29T14:30:12Z</time></trkpt><trkpt lat="41.96792060819901" lon="13.352065676121669"><ele>1103.6666666666665</ele><time>2026-03-29T14:30:13Z</time></trkpt><trkpt lat="41.96800146987531" lon="13.351991262735822"><ele>1105.0</ele><time>2026-03-29T14:30:14Z</time></trkpt><trkpt lat="41.96567593437476" lon="13.354974652342811"><ele>1083.6666666666665</ele><time>2026-03-29T14:31:14.999Z</time></trkpt><trkpt lat="41.965536370903465" lon="13.355053470262115"><ele>1062.3333333333333</ele><time>2026-03-29T14:31:15.999Z</time></trkpt><trkpt lat="41.965411640247375" lon="13.355176096994297"><ele>1041.0</ele><time>2026-03-29T14:31:16.999Z</time></trkpt><trkpt lat="41.965279657013575" lon="13.355283853146066"><ele>1041.0</ele><time>2026-03-29T14:31:17.999Z</time></trkpt><trkpt lat="41.96514771464794" lon="13.355396931573287"><ele>1041.0</ele><time>2026-03-29T14:31:18.999Z</time></trkpt><trkpt lat="41.96500294593148" lon="13.355498899544234"><ele>1041.0</ele><time>2026-03-29T14:31:19.999Z</time></trkpt><trkpt lat="41.96486932721319" lon="13.355624741879806"><ele>1036.0</ele><time>2026-03-29T14:31:20.999Z</time></trkpt><trkpt lat="41.96474387712669" lon="13.355746841873035"><ele>1031.0</ele><time>2026-03-29T14:31:21.999Z</time></trkpt><trkpt lat="41.96462160176606" lon="13.355864513929188"><ele>1026.0</ele><time>2026-03-29T14:31:22.999Z</time></trkpt><trkpt lat="41.96449905200545" lon="13.355978502348202"><ele>1026.0</ele><time>2026-03-29T14:31:23.999Z</time></trkpt><trkpt lat="41.96437814196608" lon="13.356097479483008"><ele>1026.0</ele><time>2026-03-29T14:31:24.999Z</time></trkpt><trkpt lat="41.964265999148786" lon="13.356225623915504"><ele>1026.0</ele><time>2026-03-29T14:31:25.999Z</time></trkpt><trkpt lat="41.964162664789754" lon="13.356361392454682"><ele>1026.0</ele><time>2026-03-29T14:31:26.999Z</time></trkpt><trkpt lat="41.964053901062115" lon="13.356508222304827"><ele>1024.6666666666667</ele><time>2026-03-29T14:31:27.999Z</time></trkpt><trkpt lat="41.96393866222142" lon="13.356666106141718"><ele>1023.3333333333334</ele><time>2026-03-29T14:31:28.999Z</time></trkpt><trkpt lat="41.963820247830235" lon="13.35682151860262"><ele>1022.0</ele><time>2026-03-29T14:31:29.999Z</time></trkpt><trkpt lat="41.963703487599524" lon="13.35696031790485"><ele>1022.0</ele><time>2026-03-29T14:31:30.999Z</time></trkpt><trkpt lat="41.96358426199611" lon="13.35709706725463"><ele>1022.0</ele><time>2026-03-29T14:31:31.999Z</time></trkpt><trkpt lat="41.96346525663968" lon="13.35723356368795"><ele>1022.0</ele><time>2026-03-29T14:31:32.999Z</time></trkpt><trkpt lat="41.96335226610925" lon="13.357365725513441"><ele>1023.3333333333334</ele><time>2026-03-29T14:31:33.999Z</time></trkpt><trkpt lat="41.963236409096126" lon="13.357503670576515"><ele>1024.6666666666667</ele><time>2026-03-29T14:31:34.999Z</time></trkpt><trkpt lat="41.96312673696736" lon="13.357644032602883"><ele>1026.0</ele><time>2026-03-29T14:31:35.999Z</time></trkpt><trkpt lat="41.96302287058242" lon="13.357791388194684"><ele>1026.0</ele><time>2026-03-29T14:31:36.999Z</time></trkpt><trkpt lat="41.96291887881844" lon="13.35795260621439"><ele>1026.0</ele><time>2026-03-29T14:31:37.999Z</time></trkpt><trkpt lat="41.96282190988026" lon="13.358130833633632"><ele>1026.0</ele><time>2026-03-29T14:31:38.999Z</time></trkpt><trkpt lat="41.96273545389155" lon="13.358314924801524"><ele>1028.5</ele><time>2026-03-29T14:31:39.998Z</time></trkpt><trkpt lat="41.962656980844926" lon="13.358487025663317"><ele>1031.0</ele><time>2026-03-29T14:31:40.998Z</time></trkpt><trkpt lat="41.96258080647506" lon="13.358660456336244"><ele>1033.5</ele><time>2026-03-29T14:31:41.998Z</time></trkpt><trkpt lat="41.96249744504625" lon="13.35882663430787"><ele>1036.0</ele><time>2026-03-29T14:31:42.998Z</time></trkpt><trkpt lat="41.96239825816398" lon="13.358997298963912"><ele>1025.3333333333333</ele><time>2026-03-29T14:31:43.998Z</time></trkpt><trkpt lat="41.96229976068566" lon="13.359169195380609"><ele>1014.6666666666667</ele><time>2026-03-29T14:31:44.998Z</time></trkpt><trkpt lat="41.962204787390604" lon="13.359351392906712"><ele>1004.0</ele><time>2026-03-29T14:31:45.998Z</time></trkpt><trkpt lat="41.96211461387706" lon="13.359531874264505"><ele>995.3333333333334</ele><time>2026-03-29T14:31:46.998Z</time></trkpt><trkpt lat="41.96202561287701" lon="13.35971606015448"><ele>986.6666666666667</ele><time>2026-03-29T14:31:47.998Z</time></trkpt><trkpt lat="41.9619381262268" lon="13.359906597413516"><ele>978.0</ele><time>2026-03-29T14:31:48.998Z</time></trkpt><trkpt lat="41.96185397895649" lon="13.360095972890967"><ele>978.0</ele><time>2026-03-29T14:31:49.998Z</time></trkpt><trkpt lat="41.96177863581051" lon="13.360294261923384"><ele>978.0</ele><time>2026-03-29T14:31:50.998Z</time></trkpt><trkpt lat="41.96170865353334" lon="13.360493563721171"><ele>978.0</ele><time>2026-03-29T14:31:51.998Z</time></trkpt><trkpt lat="41.9616429990073" lon="13.360692185330743"><ele>984.6666666666667</ele><time>2026-03-29T14:31:52.998Z</time></trkpt><trkpt lat="41.96157891765166" lon="13.36089278862857"><ele>991.3333333333334</ele><time>2026-03-29T14:31:53.998Z</time></trkpt><trkpt lat="41.96152062111245" lon="13.361087882119508"><ele>998.0</ele><time>2026-03-29T14:31:54.998Z</time></trkpt><trkpt lat="41.96146627696714" lon="13.361268830671536"><ele>992.0</ele><time>2026-03-29T14:31:55.998Z</time></trkpt><trkpt lat="41.9614057972986" lon="13.361431531714569"><ele>986.0</ele><time>2026-03-29T14:31:56.998Z</time></trkpt><trkpt lat="41.96132125105545" lon="13.3615755582946"><ele>980.0</ele><time>2026-03-29T14:31:57.998Z</time></trkpt><trkpt lat="41.96120688785262" lon="13.361699343402613"><ele>974.0</ele><time>2026-03-29T14:31:58.998Z</time></trkpt><trkpt lat="41.96107970911085" lon="13.361842766580258"><ele>974.0</ele><time>2026-03-29T14:31:59.998Z</time></trkpt><trkpt lat="41.960962199495306" lon="13.362008052838515"><ele>974.0</ele><time>2026-03-29T14:32:00.998Z</time></trkpt><trkpt lat="41.9608554305019" lon="13.362189515324953"><ele>974.0</ele><time>2026-03-29T14:32:01.998Z</time></trkpt><trkpt lat="41.96075419160077" lon="13.362373931567385"><ele>977.0</ele><time>2026-03-29T14:32:02.998Z</time></trkpt><trkpt lat="41.96065115024623" lon="13.362564498626645"><ele>980.0</ele><time>2026-03-29T14:32:03.998Z</time></trkpt><trkpt lat="41.960551147139654" lon="13.362749446604427"><ele>983.0</ele><time>2026-03-29T14:32:04.998Z</time></trkpt><trkpt lat="41.96045698114715" lon="13.362943260678897"><ele>974.6666666666667</ele><time>2026-03-29T14:32:05.998Z</time></trkpt><trkpt lat="41.96036726458483" lon="13.363140307211456"><ele>966.3333333333333</ele><time>2026-03-29T14:32:06.998Z</time></trkpt><trkpt lat="41.96027492601806" lon="13.363339979653217"><ele>958.0</ele><time>2026-03-29T14:32:07.998Z</time></trkpt><trkpt lat="41.96017050994439" lon="13.363542074687995"><ele>958.0</ele><time>2026-03-29T14:32:08.998Z</time></trkpt><trkpt lat="41.960059859542895" lon="13.363731738257348"><ele>958.0</ele><time>2026-03-29T14:32:09.998Z</time></trkpt><trkpt lat="41.95995366719064" lon="13.363926868092578"><ele>958.0</ele><time>2026-03-29T14:32:10.998Z</time></trkpt><trkpt lat="41.9598542031516" lon="13.364119230584615"><ele>962.6666666666666</ele><time>2026-03-29T14:32:11.998Z</time></trkpt><trkpt lat="41.95975716765482" lon="13.364311444899714"><ele>967.3333333333333</ele><time>2026-03-29T14:32:12.998Z</time></trkpt><trkpt lat="41.95966101631451" lon="13.364501907703094"><ele>972.0</ele><time>2026-03-29T14:32:13.998Z</time></trkpt><trkpt lat="41.95322766350925" lon="13.373768949938626"><ele>953.0</ele><time>2026-03-29T14:33:14.999Z</time></trkpt><trkpt lat="41.95305426652521" lon="13.373786238499122"><ele>934.0</ele><time>2026-03-29T14:33:15.999Z</time></trkpt><trkpt lat="41.952884416551754" lon="13.373752643250338"><ele>915.0</ele><time>2026-03-29T14:33:16.999Z</time></trkpt><trkpt lat="41.952721391235606" lon="13.373689240469709"><ele>915.0</ele><time>2026-03-29T14:33:17.999Z</time></trkpt><trkpt lat="41.95255964793438" lon="13.373637149854607"><ele>915.0</ele><time>2026-03-29T14:33:18.999Z</time></trkpt><trkpt lat="41.952379455138455" lon="13.373630068507033"><ele>915.0</ele><time>2026-03-29T14:33:19.999Z</time></trkpt><trkpt lat="41.9522187067983" lon="13.373648831813304"><ele>913.3333333333333</ele><time>2026-03-29T14:33:20.999Z</time></trkpt><trkpt lat="41.95204829888501" lon="13.373664933923072"><ele>911.6666666666666</ele><time>2026-03-29T14:33:21.999Z</time></trkpt><trkpt lat="41.95188132001239" lon="13.37370213908934"><ele>910.0</ele><time>2026-03-29T14:33:22.999Z</time></trkpt><trkpt lat="41.9517166168135" lon="13.373717855162925"><ele>910.3333333333333</ele><time>2026-03-29T14:33:23.999Z</time></trkpt><trkpt lat="41.95155434161303" lon="13.3737120669345"><ele>910.6666666666667</ele><time>2026-03-29T14:33:24.999Z</time></trkpt><trkpt lat="41.95139272779111" lon="13.373736230384598"><ele>911.0</ele><time>2026-03-29T14:33:25.999Z</time></trkpt><trkpt lat="41.95123100386079" lon="13.373774074717037"><ele>911.0</ele><time>2026-03-29T14:33:26.999Z</time></trkpt><trkpt lat="41.95107297022956" lon="13.373838245545844"><ele>911.0</ele><time>2026-03-29T14:33:27.999Z</time></trkpt><trkpt lat="41.950912222910915" lon="13.373881810301526"><ele>911.0</ele><time>2026-03-29T14:33:28.999Z</time></trkpt><trkpt lat="41.950759826810334" lon="13.373922435359953"><ele>899.0</ele><time>2026-03-29T14:33:29.999Z</time></trkpt><trkpt lat="41.95061577787225" lon="13.37395436902947"><ele>887.0</ele><time>2026-03-29T14:33:30.999Z</time></trkpt><trkpt lat="41.95046568683149" lon="13.373958884534279"><ele>875.0</ele><time>2026-03-29T14:33:31.999Z</time></trkpt><trkpt lat="41.95031774561552" lon="13.374016194234695"><ele>875.0</ele><time>2026-03-29T14:33:32.999Z</time></trkpt><trkpt lat="41.95015813999387" lon="13.374069140396028"><ele>875.0</ele><time>2026-03-29T14:33:33.999Z</time></trkpt><trkpt lat="41.94999638488825" lon="13.374140141081522"><ele>875.0</ele><time>2026-03-29T14:33:34.999Z</time></trkpt><trkpt lat="41.94982831259933" lon="13.37418370813918"><ele>876.25</ele><time>2026-03-29T14:33:35.999Z</time></trkpt><trkpt lat="41.94967487729602" lon="13.374262596167464"><ele>877.5</ele><time>2026-03-29T14:33:36.999Z</time></trkpt><trkpt lat="41.949535588534566" lon="13.374314262725706"><ele>878.75</ele><time>2026-03-29T14:33:37.999Z</time></trkpt><trkpt lat="41.949405874013955" lon="13.374361933859259"><ele>880.0</ele><time>2026-03-29T14:33:38.999Z</time></trkpt><trkpt lat="41.949291660490466" lon="13.374408910795996"><ele>882.4</ele><time>2026-03-29T14:33:39.999Z</time></trkpt><trkpt lat="41.949177889268654" lon="13.374447776156575"><ele>884.8</ele><time>2026-03-29T14:33:40.999Z</time></trkpt><trkpt lat="41.94907402877072" lon="13.37448556286245"><ele>887.2</ele><time>2026-03-29T14:33:41.999Z</time></trkpt><trkpt lat="41.948977153342376" lon="13.374513692580882"><ele>889.6</ele><time>2026-03-29T14:33:42.999Z</time></trkpt><trkpt lat="41.948894901313345" lon="13.37454544060312"><ele>892.0</ele><time>2026-03-29T14:33:43.999Z</time></trkpt><trkpt lat="41.94881912111351" lon="13.374602066128404"><ele>887.4285714285714</ele><time>2026-03-29T14:33:44.999Z</time></trkpt><trkpt lat="41.948766254355256" lon="13.374691761926622"><ele>882.8571428571429</ele><time>2026-03-29T14:33:45.998Z</time></trkpt><trkpt lat="41.94874265667109" lon="13.374794869195968"><ele>878.2857142857142</ele><time>2026-03-29T14:33:46.998Z</time></trkpt><trkpt lat="41.94874765069927" lon="13.374887257359953"><ele>873.7142857142858</ele><time>2026-03-29T14:33:47.998Z</time></trkpt><trkpt lat="41.94876290830195" lon="13.374975489591003"><ele>869.1428571428572</ele><time>2026-03-29T14:33:48.998Z</time></trkpt><trkpt lat="41.94880371751993" lon="13.375045124567263"><ele>864.5714285714286</ele><time>2026-03-29T14:33:49.998Z</time></trkpt><trkpt lat="41.94886752993091" lon="13.375091638700335"><ele>860.0</ele><time>2026-03-29T14:33:50.998Z</time></trkpt><trkpt lat="41.948954401386686" lon="13.375106404749932"><ele>860.0</ele><time>2026-03-29T14:33:51.998Z</time></trkpt><trkpt lat="41.94903605844094" lon="13.375039584991343"><ele>860.0</ele><time>2026-03-29T14:33:52.998Z</time></trkpt><trkpt lat="41.949130134959596" lon="13.374996293512112"><ele>860.0</ele><time>2026-03-29T14:33:53.998Z</time></trkpt><trkpt lat="41.949236094748926" lon="13.374928436754898"><ele>860.0</ele><time>2026-03-29T14:33:54.998Z</time></trkpt><trkpt lat="41.949348611880595" lon="13.37487324793443"><ele>860.0</ele><time>2026-03-29T14:33:55.998Z</time></trkpt><trkpt lat="41.94947320189494" lon="13.37482504706361"><ele>858.3333333333334</ele><time>2026-03-29T14:33:56.998Z</time></trkpt><trkpt lat="41.94961244199339" lon="13.374795157887666"><ele>856.6666666666667</ele><time>2026-03-29T14:33:57.998Z</time></trkpt><trkpt lat="41.949761647832865" lon="13.374797952842272"><ele>855.0</ele><time>2026-03-29T14:33:58.998Z</time></trkpt><trkpt lat="41.94993627553736" lon="13.37480695024375"><ele>853.3333333333333</ele><time>2026-03-29T14:33:59.998Z</time></trkpt><trkpt lat="41.95010997019405" lon="13.37481278115283"><ele>851.6666666666666</ele><time>2026-03-29T14:34:00.998Z</time></trkpt><trkpt lat="41.950289562301535" lon="13.374815761620043"><ele>850.0</ele><time>2026-03-29T14:34:01.998Z</time></trkpt><trkpt lat="41.950468013305525" lon="13.37482061771582"><ele>850.0</ele><time>2026-03-29T14:34:02.998Z</time></trkpt><trkpt lat="41.95064208688114" lon="13.37482572738609"><ele>850.0</ele><time>2026-03-29T14:34:03.998Z</time></trkpt><trkpt lat="41.95080546176196" lon="13.37483156986036"><ele>850.0</ele><time>2026-03-29T14:34:04.998Z</time></trkpt><trkpt lat="41.9509646905158" lon="13.374838386958311"><ele>850.0</ele><time>2026-03-29T14:34:05.998Z</time></trkpt><trkpt lat="41.9511143742919" lon="13.374848944180078"><ele>850.0</ele><time>2026-03-29T14:34:06.998Z</time></trkpt><trkpt lat="41.95126298772986" lon="13.374871961480704"><ele>850.0</ele><time>2026-03-29T14:34:07.998Z</time></trkpt><trkpt lat="41.95140872008781" lon="13.374913363669418"><ele>850.0</ele><time>2026-03-29T14:34:08.998Z</time></trkpt><trkpt lat="41.951565708470426" lon="13.374985397516044"><ele>852.0</ele><time>2026-03-29T14:34:09.998Z</time></trkpt><trkpt lat="41.95171937837185" lon="13.375075063695935"><ele>854.0</ele><time>2026-03-29T14:34:10.998Z</time></trkpt><trkpt lat="41.951859487034135" lon="13.375167161512918"><ele>856.0</ele><time>2026-03-29T14:34:11.998Z</time></trkpt><trkpt lat="41.95200217433765" lon="13.375257509297663"><ele>856.0</ele><time>2026-03-29T14:34:12.998Z</time></trkpt><trkpt lat="41.95215780138714" lon="13.375336542635228"><ele>856.0</ele><time>2026-03-29T14:34:13.998Z</time></trkpt><trkpt lat="41.95944536672588" lon="13.375740662561137"><ele>830.0</ele><time>2026-03-29T14:35:14.999Z</time></trkpt><trkpt lat="41.95930400860107" lon="13.37582478669432"><ele>804.0</ele><time>2026-03-29T14:35:15.999Z</time></trkpt><trkpt lat="41.95917029385639" lon="13.375950176860188"><ele>778.0</ele><time>2026-03-29T14:35:16.999Z</time></trkpt><trkpt lat="41.959033489408796" lon="13.376082075469322"><ele>778.0</ele><time>2026-03-29T14:35:17.999Z</time></trkpt><trkpt lat="41.958887626971965" lon="13.37620322987816"><ele>778.0</ele><time>2026-03-29T14:35:18.999Z</time></trkpt><trkpt lat="41.958732133713745" lon="13.376315241531579"><ele>778.0</ele><time>2026-03-29T14:35:19.999Z</time></trkpt><trkpt lat="41.95855995844343" lon="13.376419140024998"><ele>772.3333333333333</ele><time>2026-03-29T14:35:20.999Z</time></trkpt><trkpt lat="41.958381671195596" lon="13.376508544291207"><ele>766.6666666666666</ele><time>2026-03-29T14:35:21.999Z</time></trkpt><trkpt lat="41.95820833711428" lon="13.376595155292026"><ele>761.0</ele><time>2026-03-29T14:35:22.999Z</time></trkpt><trkpt lat="41.958042415464924" lon="13.376698097378451"><ele>761.0</ele><time>2026-03-29T14:35:23.999Z</time></trkpt><trkpt lat="41.957882712204075" lon="13.376826393294815"><ele>761.0</ele><time>2026-03-29T14:35:24.999Z</time></trkpt><trkpt lat="41.95774176765063" lon="13.37697478055859"><ele>761.0</ele><time>2026-03-29T14:35:25.999Z</time></trkpt><trkpt lat="41.95762007486269" lon="13.377108977214897"><ele>760.3333333333333</ele><time>2026-03-29T14:35:26.999Z</time></trkpt><trkpt lat="41.957522733907474" lon="13.377243553672587"><ele>759.6666666666666</ele><time>2026-03-29T14:35:27.999Z</time></trkpt><trkpt lat="41.95744110810977" lon="13.377411094205804"><ele>759.0</ele><time>2026-03-29T14:35:28.999Z</time></trkpt><trkpt lat="41.95737989265098" lon="13.377619182348015"><ele>759.0</ele><time>2026-03-29T14:35:29.999Z</time></trkpt><trkpt lat="41.957330502464885" lon="13.377841445452924"><ele>759.0</ele><time>2026-03-29T14:35:30.999Z</time></trkpt><trkpt lat="41.9572405475782" lon="13.378053246770309"><ele>759.0</ele><time>2026-03-29T14:35:31.999Z</time></trkpt><trkpt lat="41.95713013979896" lon="13.378254463589531"><ele>755.0</ele><time>2026-03-29T14:35:32.999Z</time></trkpt><trkpt lat="41.95703380533852" lon="13.378468934886707"><ele>751.0</ele><time>2026-03-29T14:35:33.999Z</time></trkpt><trkpt lat="41.95696586564096" lon="13.378697245897566"><ele>747.0</ele><time>2026-03-29T14:35:34.999Z</time></trkpt><trkpt lat="41.95691932340927" lon="13.37891959372473"><ele>743.0</ele><time>2026-03-29T14:35:35.999Z</time></trkpt><trkpt lat="41.95686895105666" lon="13.379125230743218"><ele>739.0</ele><time>2026-03-29T14:35:36.999Z</time></trkpt><trkpt lat="41.95679664571447" lon="13.379312451979612"><ele>735.0</ele><time>2026-03-29T14:35:37.999Z</time></trkpt><trkpt lat="41.956718786602906" lon="13.379476420232802"><ele>738.4</ele><time>2026-03-29T14:35:38.999Z</time></trkpt><trkpt lat="41.95665343362978" lon="13.379614151494168"><ele>741.8</ele><time>2026-03-29T14:35:39.999Z</time></trkpt><trkpt lat="41.95660133786816" lon="13.379732154893187"><ele>745.2</ele><time>2026-03-29T14:35:40.999Z</time></trkpt><trkpt lat="41.956589020038564" lon="13.379839153177718"><ele>748.6</ele><time>2026-03-29T14:35:41.999Z</time></trkpt><trkpt lat="41.95662007848846" lon="13.379957948623414"><ele>752.0</ele><time>2026-03-29T14:35:42.999Z</time></trkpt><trkpt lat="41.95669979742624" lon="13.380043353907386"><ele>748.8</ele><time>2026-03-29T14:35:43.999Z</time></trkpt><trkpt lat="41.956784025383605" lon="13.380062724608"><ele>745.6</ele><time>2026-03-29T14:35:44.999Z</time></trkpt><trkpt lat="41.95685961832479" lon="13.37999473459767"><ele>742.4</ele><time>2026-03-29T14:35:45.999Z</time></trkpt><trkpt lat="41.95691036095722" lon="13.379897551386895"><ele>739.1999999999999</ele><time>2026-03-29T14:35:46.999Z</time></trkpt><trkpt lat="41.95695867130525" lon="13.379767711528963"><ele>736.0</ele><time>2026-03-29T14:35:47.999Z</time></trkpt><trkpt lat="41.95700776257553" lon="13.379598891756157"><ele>735.6666666666667</ele><time>2026-03-29T14:35:48.999Z</time></trkpt><trkpt lat="41.95706263191171" lon="13.379419563591574"><ele>735.3333333333334</ele><time>2026-03-29T14:35:49.999Z</time></trkpt><trkpt lat="41.957123216813415" lon="13.379234045927069"><ele>735.0</ele><time>2026-03-29T14:35:50.999Z</time></trkpt><trkpt lat="41.957187494703426" lon="13.379041352441764"><ele>739.0</ele><time>2026-03-29T14:35:51.999Z</time></trkpt><trkpt lat="41.957262650223505" lon="13.378844605915564"><ele>743.0</ele><time>2026-03-29T14:35:52.998Z</time></trkpt><trkpt lat="41.957356596708244" lon="13.378659962611874"><ele>747.0</ele><time>2026-03-29T14:35:53.998Z</time></trkpt><trkpt lat="41.957460584218516" lon="13.378493981369168"><ele>745.5</ele><time>2026-03-29T14:35:54.998Z</time></trkpt><trkpt lat="41.95756135545107" lon="13.378344072455429"><ele>744.0</ele><time>2026-03-29T14:35:55.998Z</time></trkpt><trkpt lat="41.957656243263166" lon="13.378198939557405"><ele>742.5</ele><time>2026-03-29T14:35:56.998Z</time></trkpt><trkpt lat="41.95775006322331" lon="13.37805866713743"><ele>741.0</ele><time>2026-03-29T14:35:57.998Z</time></trkpt><trkpt lat="41.95786568042948" lon="13.377933092839672"><ele>741.0</ele><time>2026-03-29T14:35:58.998Z</time></trkpt><trkpt lat="41.958008745171476" lon="13.377847624737047"><ele>741.0</ele><time>2026-03-29T14:35:59.998Z</time></trkpt><trkpt lat="41.958183728274975" lon="13.377796797419778"><ele>741.0</ele><time>2026-03-29T14:36:00.998Z</time></trkpt><trkpt lat="41.95834612444625" lon="13.377748738899355"><ele>739.0</ele><time>2026-03-29T14:36:01.998Z</time></trkpt><trkpt lat="41.95849733120326" lon="13.377708722314207"><ele>737.0</ele><time>2026-03-29T14:36:02.998Z</time></trkpt><trkpt lat="41.95864118775867" lon="13.377681812972416"><ele>735.0</ele><time>2026-03-29T14:36:03.998Z</time></trkpt><trkpt lat="41.95879176280482" lon="13.377686174513823"><ele>735.0</ele><time>2026-03-29T14:36:04.998Z</time></trkpt><trkpt lat="41.95894406714669" lon="13.377752326161925"><ele>735.0</ele><time>2026-03-29T14:36:05.998Z</time></trkpt><trkpt lat="41.959082612348844" lon="13.377853126991837"><ele>735.0</ele><time>2026-03-29T14:36:06.998Z</time></trkpt><trkpt lat="41.9592020083415" lon="13.377962139268122"><ele>729.0</ele><time>2026-03-29T14:36:07.998Z</time></trkpt><trkpt lat="41.95933218986595" lon="13.37806077050092"><ele>723.0</ele><time>2026-03-29T14:36:08.998Z</time></trkpt><trkpt lat="41.95948194322882" lon="13.37814468572807"><ele>717.0</ele><time>2026-03-29T14:36:09.998Z</time></trkpt><trkpt lat="41.95962982484134" lon="13.378208638593527"><ele>717.0</ele><time>2026-03-29T14:36:10.998Z</time></trkpt><trkpt lat="41.959779289014094" lon="13.37824222035483"><ele>717.0</ele><time>2026-03-29T14:36:11.998Z</time></trkpt><trkpt lat="41.9599344395859" lon="13.378261280447862"><ele>717.0</ele><time>2026-03-29T14:36:12.998Z</time></trkpt><trkpt lat="41.96008942497682" lon="13.37824932244918"><ele>665.0</ele><time>2026-03-29T14:36:13.998Z</time></trkpt><trkpt lat="41.9624681834463" lon="13.381636882533083"><ele>665.0</ele><time>2026-03-29T14:37:14.999Z</time></trkpt><trkpt lat="41.96245297945994" lon="13.381827091366048"><ele>665.0</ele><time>2026-03-29T14:37:15.999Z</time></trkpt><trkpt lat="41.96244682992103" lon="13.382034975807937"><ele>665.0</ele><time>2026-03-29T14:37:16.999Z</time></trkpt><trkpt lat="41.962419360587845" lon="13.382239318790743"><ele>665.6666666666666</ele><time>2026-03-29T14:37:17.999Z</time></trkpt><trkpt lat="41.962410943084755" lon="13.382446337460523"><ele>666.3333333333334</ele><time>2026-03-29T14:37:18.999Z</time></trkpt><trkpt lat="41.96243830583948" lon="13.382660861579744"><ele>667.0</ele><time>2026-03-29T14:37:19.999Z</time></trkpt><trkpt lat="41.96251494693222" lon="13.382888596363728"><ele>660.3333333333334</ele><time>2026-03-29T14:37:20.999Z</time></trkpt><trkpt lat="41.96261638219572" lon="13.383120071697265"><ele>653.6666666666666</ele><time>2026-03-29T14:37:21.999Z</time></trkpt><trkpt lat="41.96271740772711" lon="13.383340365985651"><ele>647.0</ele><time>2026-03-29T14:37:22.999Z</time></trkpt><trkpt lat="41.962803548135156" lon="13.38353572788882"><ele>647.0</ele><time>2026-03-29T14:37:23.999Z</time></trkpt><trkpt lat="41.96287416745842" lon="13.383705061912051"><ele>647.0</ele><time>2026-03-29T14:37:24.999Z</time></trkpt><trkpt lat="41.96294103102809" lon="13.383850951937898"><ele>647.0</ele><time>2026-03-29T14:37:25.999Z</time></trkpt><trkpt lat="41.963025297352004" lon="13.38398039939184"><ele>647.0</ele><time>2026-03-29T14:37:26.999Z</time></trkpt><trkpt lat="41.96313348716127" lon="13.38407168209656"><ele>650.75</ele><time>2026-03-29T14:37:27.999Z</time></trkpt><trkpt lat="41.96326900999834" lon="13.38413233587223"><ele>654.5</ele><time>2026-03-29T14:37:28.999Z</time></trkpt><trkpt lat="41.963422642806044" lon="13.384146832548693"><ele>658.25</ele><time>2026-03-29T14:37:29.999Z</time></trkpt><trkpt lat="41.9635711061658" lon="13.384113049564354"><ele>662.0</ele><time>2026-03-29T14:37:30.999Z</time></trkpt><trkpt lat="41.963702528561925" lon="13.384040667693982"><ele>661.75</ele><time>2026-03-29T14:37:31.999Z</time></trkpt><trkpt lat="41.96382741118565" lon="13.38393744226935"><ele>661.5</ele><time>2026-03-29T14:37:32.999Z</time></trkpt><trkpt lat="41.96394188688006" lon="13.38382270798446"><ele>661.25</ele><time>2026-03-29T14:37:33.999Z</time></trkpt><trkpt lat="41.964024900046006" lon="13.383744472836229"><ele>661.0</ele><time>2026-03-29T14:37:34.999Z</time></trkpt><trkpt lat="41.9640857134868" lon="13.383644725754003"><ele>661.0</ele><time>2026-03-29T14:37:35.999Z</time></trkpt><trkpt lat="41.96413599000765" lon="13.383526035460783"><ele>661.0</ele><time>2026-03-29T14:37:36.999Z</time></trkpt><trkpt lat="41.964079659592905" lon="13.3833522760599"><ele>661.0</ele><time>2026-03-29T14:37:37.999Z</time></trkpt><trkpt lat="41.964034357740154" lon="13.383188450177405"><ele>661.0</ele><time>2026-03-29T14:37:38.999Z</time></trkpt><trkpt lat="41.96402775807449" lon="13.383014305299131"><ele>660.75</ele><time>2026-03-29T14:37:39.999Z</time></trkpt><trkpt lat="41.96404634270926" lon="13.382799226195356"><ele>660.5</ele><time>2026-03-29T14:37:40.999Z</time></trkpt><trkpt lat="41.964067081653766" lon="13.382607190793784"><ele>660.25</ele><time>2026-03-29T14:37:41.999Z</time></trkpt><trkpt lat="41.964081898386624" lon="13.382453030855226"><ele>660.0</ele><time>2026-03-29T14:37:42.999Z</time></trkpt><trkpt lat="41.96410307241311" lon="13.382314559784861"><ele>659.75</ele><time>2026-03-29T14:37:43.999Z</time></trkpt><trkpt lat="41.96413519301082" lon="13.382178816604371"><ele>659.5</ele><time>2026-03-29T14:37:44.999Z</time></trkpt><trkpt lat="41.964178743153326" lon="13.382020146717272"><ele>659.25</ele><time>2026-03-29T14:37:45.999Z</time></trkpt><trkpt lat="41.9642407389434" lon="13.381862928711888"><ele>659.0</ele><time>2026-03-29T14:37:46.999Z</time></trkpt><trkpt lat="41.964295251714766" lon="13.381744863583936"><ele>662.6</ele><time>2026-03-29T14:37:47.999Z</time></trkpt><trkpt lat="41.96433545580278" lon="13.381648240214721"><ele>666.2</ele><time>2026-03-29T14:37:48.999Z</time></trkpt><trkpt lat="41.964386513441625" lon="13.381522983490862"><ele>669.8000000000001</ele><time>2026-03-29T14:37:50.999Z</time></trkpt><trkpt lat="41.964447758750566" lon="13.381358176181987"><ele>673.4000000000001</ele><time>2026-03-29T14:37:52.999Z</time></trkpt><trkpt lat="41.96448974637888" lon="13.38123443645574"><ele>677.0</ele><time>2026-03-29T14:37:54.998Z</time></trkpt><trkpt lat="41.96451697238571" lon="13.381156028402721"><ele>677.0</ele><time>2026-03-29T14:37:55.998Z</time></trkpt><trkpt lat="41.96455288859412" lon="13.381061307671816"><ele>677.0</ele><time>2026-03-29T14:37:56.998Z</time></trkpt><trkpt lat="41.96458681912857" lon="13.380952584178102"><ele>677.0</ele><time>2026-03-29T14:37:57.998Z</time></trkpt><trkpt lat="41.96462705810344" lon="13.380820172318838"><ele>677.0</ele><time>2026-03-29T14:37:58.998Z</time></trkpt><trkpt lat="41.964664615729625" lon="13.380664649446814"><ele>677.0</ele><time>2026-03-29T14:37:59.998Z</time></trkpt><trkpt lat="41.96468077688765" lon="13.380531936734165"><ele>676.8</ele><time>2026-03-29T14:38:00.998Z</time></trkpt><trkpt lat="41.96469219733206" lon="13.380399787835346"><ele>676.6</ele><time>2026-03-29T14:38:01.998Z</time></trkpt><trkpt lat="41.9647114066337" lon="13.380273033847528"><ele>676.4</ele><time>2026-03-29T14:38:02.998Z</time></trkpt><trkpt lat="41.96473118152768" lon="13.380148298225482"><ele>676.1999999999999</ele><time>2026-03-29T14:38:03.998Z</time></trkpt><trkpt lat="41.96475113125737" lon="13.380037900767253"><ele>676.0</ele><time>2026-03-29T14:38:04.998Z</time></trkpt><trkpt lat="41.9647771201089" lon="13.379911663119113"><ele>676.0</ele><time>2026-03-29T14:38:05.998Z</time></trkpt><trkpt lat="41.96480066484112" lon="13.37975688511116"><ele>676.0</ele><time>2026-03-29T14:38:06.998Z</time></trkpt><trkpt lat="41.96483399932368" lon="13.379586343131658"><ele>676.0</ele><time>2026-03-29T14:38:07.998Z</time></trkpt><trkpt lat="41.964890680854865" lon="13.37941986811989"><ele>676.0</ele><time>2026-03-29T14:38:08.998Z</time></trkpt><trkpt lat="41.9649633784076" lon="13.379250329117966"><ele>679.1999999999999</ele><time>2026-03-29T14:38:09.998Z</time></trkpt><trkpt lat="41.965035369417926" lon="13.379095084044012"><ele>682.4</ele><time>2026-03-29T14:38:10.998Z</time></trkpt><trkpt lat="41.96509462544459" lon="13.378965362341201"><ele>685.6</ele><time>2026-03-29T14:38:11.998Z</time></trkpt><trkpt lat="41.96515876229469" lon="13.37887032148592"><ele>688.8</ele><time>2026-03-29T14:38:12.998Z</time></trkpt><trkpt lat="41.965201858377796" lon="13.378798031181896"><ele>692.0</ele><time>2026-03-29T14:38:13.998Z</time></trkpt><trkpt lat="41.965124525453696" lon="13.387949717750253"><ele>703.0</ele><time>2026-03-29T14:39:14.999Z</time></trkpt><trkpt lat="41.96521643763668" lon="13.38811478239743"><ele>714.0</ele><time>2026-03-29T14:39:15.999Z</time></trkpt><trkpt lat="41.96530524151009" lon="13.388258940261014"><ele>725.0</ele><time>2026-03-29T14:39:16.999Z</time></trkpt><trkpt lat="41.96537559896283" lon="13.388392520546335"><ele>736.0</ele><time>2026-03-29T14:39:17.999Z</time></trkpt><trkpt lat="41.96545041071206" lon="13.388510975351274"><ele>736.0</ele><time>2026-03-29T14:39:18.999Z</time></trkpt><trkpt lat="41.96551759403452" lon="13.388634254622364"><ele>736.0</ele><time>2026-03-29T14:39:19.999Z</time></trkpt><trkpt lat="41.96558345547436" lon="13.388751890826734"><ele>736.0</ele><time>2026-03-29T14:39:20.999Z</time></trkpt><trkpt lat="41.96565822554997" lon="13.38888401922348"><ele>736.0</ele><time>2026-03-29T14:39:21.999Z</time></trkpt><trkpt lat="41.96573619686673" lon="13.38902058988162"><ele>735.75</ele><time>2026-03-29T14:39:22.999Z</time></trkpt><trkpt lat="41.9658187207423" lon="13.389156601568766"><ele>735.5</ele><time>2026-03-29T14:39:23.999Z</time></trkpt><trkpt lat="41.965896235056405" lon="13.389284890241521"><ele>735.25</ele><time>2026-03-29T14:39:24.999Z</time></trkpt><trkpt lat="41.965966796315435" lon="13.389401383826025"><ele>735.0</ele><time>2026-03-29T14:39:25.999Z</time></trkpt><trkpt lat="41.96603582178406" lon="13.38951155469075"><ele>736.0</ele><time>2026-03-29T14:39:26.999Z</time></trkpt><trkpt lat="41.96610587620397" lon="13.38962531141519"><ele>737.0</ele><time>2026-03-29T14:39:27.999Z</time></trkpt><trkpt lat="41.9661638207746" lon="13.38972199949625"><ele>738.0</ele><time>2026-03-29T14:39:28.999Z</time></trkpt><trkpt lat="41.96621176781195" lon="13.389800867439444"><ele>739.0</ele><time>2026-03-29T14:39:29.999Z</time></trkpt><trkpt lat="41.966253106140016" lon="13.389865835021318"><ele>740.0</ele><time>2026-03-29T14:39:30.999Z</time></trkpt><trkpt lat="41.966325609882894" lon="13.389989290412707"><ele>740.0</ele><time>2026-03-29T14:39:32.999Z</time></trkpt><trkpt lat="41.96637269190811" lon="13.390073176263028"><ele>740.0</ele><time>2026-03-29T14:39:34.999Z</time></trkpt><trkpt lat="41.966416019286484" lon="13.39015790712973"><ele>740.0</ele><time>2026-03-29T14:39:36.999Z</time></trkpt><trkpt lat="41.96647761860251" lon="13.390266516754105"><ele>740.0</ele><time>2026-03-29T14:39:38.999Z</time></trkpt><trkpt lat="41.96659008944987" lon="13.390369873124765"><ele>740.0</ele><time>2026-03-29T14:39:40.999Z</time></trkpt><trkpt lat="41.966643756768214" lon="13.390423385842912"><ele>740.0</ele><time>2026-03-29T14:39:41.999Z</time></trkpt><trkpt lat="41.966721784147865" lon="13.390537478338832"><ele>740.0</ele><time>2026-03-29T14:39:43.999Z</time></trkpt><trkpt lat="41.96681427823162" lon="13.390665594652763"><ele>740.0</ele><time>2026-03-29T14:39:45.999Z</time></trkpt><trkpt lat="41.96686748042014" lon="13.390748398698555"><ele>740.0</ele><time>2026-03-29T14:39:46.999Z</time></trkpt><trkpt lat="41.96692817903674" lon="13.390837165860717"><ele>740.0</ele><time>2026-03-29T14:39:47.999Z</time></trkpt><trkpt lat="41.9670087317921" lon="13.39095498139847"><ele>740.0</ele><time>2026-03-29T14:39:48.999Z</time></trkpt><trkpt lat="41.96708138626608" lon="13.391067416867257"><ele>740.0</ele><time>2026-03-29T14:39:49.999Z</time></trkpt><trkpt lat="41.96714521232374" lon="13.391170197022056"><ele>740.0</ele><time>2026-03-29T14:39:50.999Z</time></trkpt><trkpt lat="41.96722128244637" lon="13.391305671284467"><ele>740.0</ele><time>2026-03-29T14:39:51.999Z</time></trkpt><trkpt lat="41.96730569907311" lon="13.391435718648925"><ele>739.75</ele><time>2026-03-29T14:39:52.999Z</time></trkpt><trkpt lat="41.96739912920862" lon="13.391550227590304"><ele>739.5</ele><time>2026-03-29T14:39:53.999Z</time></trkpt><trkpt lat="41.96747466190656" lon="13.391670300285234"><ele>739.25</ele><time>2026-03-29T14:39:54.999Z</time></trkpt><trkpt lat="41.96755203015577" lon="13.391787950329851"><ele>739.0</ele><time>2026-03-29T14:39:55.999Z</time></trkpt><trkpt lat="41.96763236118625" lon="13.391908210558903"><ele>738.75</ele><time>2026-03-29T14:39:56.999Z</time></trkpt><trkpt lat="41.967712355808864" lon="13.392028758449882"><ele>738.5</ele><time>2026-03-29T14:39:57.999Z</time></trkpt><trkpt lat="41.96778886179577" lon="13.392145685906295"><ele>738.25</ele><time>2026-03-29T14:39:58.999Z</time></trkpt><trkpt lat="41.967863491104126" lon="13.392258133873495"><ele>738.0</ele><time>2026-03-29T14:39:59.999Z</time></trkpt><trkpt lat="41.96793567709035" lon="13.392365706544986"><ele>738.0</ele><time>2026-03-29T14:40:00.999Z</time></trkpt><trkpt lat="41.967999152217295" lon="13.392463071247235"><ele>738.0</ele><time>2026-03-29T14:40:01.998Z</time></trkpt><trkpt lat="41.968058032928894" lon="13.392558259685165"><ele>738.0</ele><time>2026-03-29T14:40:02.998Z</time></trkpt><trkpt lat="41.96811849005053" lon="13.392652803061306"><ele>738.0</ele><time>2026-03-29T14:40:03.998Z</time></trkpt><trkpt lat="41.96817028639806" lon="13.392732671592592"><ele>738.0</ele><time>2026-03-29T14:40:04.998Z</time></trkpt><trkpt lat="41.96821811225495" lon="13.39279953243479"><ele>738.0</ele><time>2026-03-29T14:40:05.998Z</time></trkpt><trkpt lat="41.9682674775464" lon="13.392859134217895"><ele>738.0</ele><time>2026-03-29T14:40:06.998Z</time></trkpt><trkpt lat="41.968342339366956" lon="13.392982607343667"><ele>738.0</ele><time>2026-03-29T14:40:08.998Z</time></trkpt><trkpt lat="41.96839364450048" lon="13.393071775701994"><ele>738.0</ele><time>2026-03-29T14:40:10.998Z</time></trkpt><trkpt lat="41.96842125050364" lon="13.393163148377944"><ele>738.0</ele><time>2026-03-29T14:40:13.998Z</time></trkpt><trkpt lat="41.966670348510554" lon="13.390149881571393"><ele>738.5</ele><time>2026-03-29T14:42:14.998Z</time></trkpt><trkpt lat="41.966638312018766" lon="13.38997660017682"><ele>739.0</ele><time>2026-03-29T14:42:26.998Z</time></trkpt><trkpt lat="41.96660795118686" lon="13.389861967752745"><ele>739.5</ele><time>2026-03-29T14:42:27.998Z</time></trkpt><trkpt lat="41.966571410348806" lon="13.38972571377231"><ele>740.0</ele><time>2026-03-29T14:42:28.998Z</time></trkpt><trkpt lat="41.96652715982768" lon="13.389570622598633"><ele>741.6666666666666</ele><time>2026-03-29T14:42:29.998Z</time></trkpt><trkpt lat="41.966471596200876" lon="13.389381195874694"><ele>743.3333333333334</ele><time>2026-03-29T14:42:30.998Z</time></trkpt><trkpt lat="41.966415326775625" lon="13.389164469192858"><ele>745.0</ele><time>2026-03-29T14:42:31.998Z</time></trkpt><trkpt lat="41.96635420069464" lon="13.388922502704604"><ele>747.6666666666667</ele><time>2026-03-29T14:42:32.998Z</time></trkpt><trkpt lat="41.9662985926466" lon="13.388707574646842"><ele>750.3333333333334</ele><time>2026-03-29T14:42:33.998Z</time></trkpt><trkpt lat="41.966241980638664" lon="13.388494472194711"><ele>753.0</ele><time>2026-03-29T14:42:34.998Z</time></trkpt><trkpt lat="41.96619063385036" lon="13.38828500725202"><ele>753.0</ele><time>2026-03-29T14:42:35.998Z</time></trkpt><trkpt lat="41.966139743499326" lon="13.388079817620826"><ele>753.0</ele><time>2026-03-29T14:42:36.998Z</time></trkpt><trkpt lat="41.96608544945937" lon="13.387875394768447"><ele>753.0</ele><time>2026-03-29T14:42:37.998Z</time></trkpt><trkpt lat="41.96602961340143" lon="13.3876824846144"><ele>757.6666666666666</ele><time>2026-03-29T14:42:38.998Z</time></trkpt><trkpt lat="41.96599252727445" lon="13.387485744912876"><ele>762.3333333333333</ele><time>2026-03-29T14:42:39.998Z</time></trkpt><trkpt lat="41.96592167660673" lon="13.387305296533524"><ele>767.0</ele><time>2026-03-29T14:42:40.998Z</time></trkpt><trkpt lat="41.965876968629445" lon="13.387116253305182"><ele>763.75</ele><time>2026-03-29T14:42:41.998Z</time></trkpt><trkpt lat="41.96583563999352" lon="13.386938019248937"><ele>760.5</ele><time>2026-03-29T14:42:42.998Z</time></trkpt><trkpt lat="41.96578804221055" lon="13.386761851005074"><ele>757.25</ele><time>2026-03-29T14:42:44Z</time></trkpt><trkpt lat="41.965742842244524" lon="13.386579403586431"><ele>754.0</ele><time>2026-03-29T14:42:45Z</time></trkpt><trkpt lat="41.96570303858303" lon="13.38639665115111"><ele>755.6</ele><time>2026-03-29T14:42:46Z</time></trkpt><trkpt lat="41.965648676949066" lon="13.386234628131186"><ele>757.2</ele><time>2026-03-29T14:42:47Z</time></trkpt><trkpt lat="41.96558416789715" lon="13.386097414789234"><ele>758.8000000000001</ele><time>2026-03-29T14:42:48Z</time></trkpt><trkpt lat="41.96552544215101" lon="13.385987934718393"><ele>760.4000000000001</ele><time>2026-03-29T14:42:49Z</time></trkpt><trkpt lat="41.96547669587349" lon="13.385895589046976"><ele>762.0</ele><time>2026-03-29T14:42:50Z</time></trkpt><trkpt lat="41.96543591252534" lon="13.385810188552766"><ele>762.0</ele><time>2026-03-29T14:42:51Z</time></trkpt><trkpt lat="41.9654005536636" lon="13.385739454843785"><ele>762.0</ele><time>2026-03-29T14:42:52Z</time></trkpt><trkpt lat="41.96535580285396" lon="13.385623852155861"><ele>762.0</ele><time>2026-03-29T14:42:54Z</time></trkpt><trkpt lat="41.96574770580519" lon="13.383444341278802"><ele>762.4000000000001</ele><time>2026-03-29T14:45:14.999Z</time></trkpt><trkpt lat="41.96582081984309" lon="13.383371502392178"><ele>762.8000000000001</ele><time>2026-03-29T14:45:15.999Z</time></trkpt><trkpt lat="41.96588985443316" lon="13.383286848566755"><ele>763.2</ele><time>2026-03-29T14:45:16.999Z</time></trkpt><trkpt lat="41.965938210769686" lon="13.383170065458549"><ele>763.6</ele><time>2026-03-29T14:45:17.999Z</time></trkpt><trkpt lat="41.965998216643996" lon="13.383063088523363"><ele>764.0</ele><time>2026-03-29T14:45:18.999Z</time></trkpt><trkpt lat="41.966066061890196" lon="13.38295727912295"><ele>764.0</ele><time>2026-03-29T14:45:19.999Z</time></trkpt><trkpt lat="41.9661267748986" lon="13.382847853052366"><ele>764.0</ele><time>2026-03-29T14:45:20.999Z</time></trkpt><trkpt lat="41.9661942246346" lon="13.382734209098007"><ele>764.0</ele><time>2026-03-29T14:45:21.999Z</time></trkpt><trkpt lat="41.966286352696095" lon="13.382663355634158"><ele>764.0</ele><time>2026-03-29T14:45:22.999Z</time></trkpt><trkpt lat="41.96635343400261" lon="13.382547967257231"><ele>764.0</ele><time>2026-03-29T14:45:23.999Z</time></trkpt><trkpt lat="41.96643567292258" lon="13.382434157243585"><ele>764.0</ele><time>2026-03-29T14:45:24.999Z</time></trkpt><trkpt lat="41.96651704825551" lon="13.382317450122112"><ele>764.0</ele><time>2026-03-29T14:45:25.999Z</time></trkpt><trkpt lat="41.966607596090725" lon="13.38217920108648"><ele>764.0</ele><time>2026-03-29T14:45:26.999Z</time></trkpt><trkpt lat="41.96671862820524" lon="13.381981537277907"><ele>764.0</ele><time>2026-03-29T14:45:27.999Z</time></trkpt><trkpt lat="41.96684782548168" lon="13.3817412621254"><ele>768.0</ele><time>2026-03-29T14:45:28.999Z</time></trkpt><trkpt lat="41.9669845306552" lon="13.381481358803208"><ele>772.0</ele><time>2026-03-29T14:45:29.999Z</time></trkpt><trkpt lat="41.96711741490971" lon="13.381242236979963"><ele>772.0</ele><time>2026-03-29T14:45:30.999Z</time></trkpt><trkpt lat="41.96723270069422" lon="13.38103852339275"><ele>772.0</ele><time>2026-03-29T14:45:31.999Z</time></trkpt><trkpt lat="41.96733097615395" lon="13.380841122506348"><ele>772.0</ele><time>2026-03-29T14:45:32.999Z</time></trkpt><trkpt lat="41.967429210524024" lon="13.380621079270838"><ele>766.3333333333333</ele><time>2026-03-29T14:45:33.999Z</time></trkpt><trkpt lat="41.967504128226146" lon="13.380366817798583"><ele>760.6666666666666</ele><time>2026-03-29T14:45:34.999Z</time></trkpt><trkpt lat="41.96755997124926" lon="13.380063239746502"><ele>755.0</ele><time>2026-03-29T14:45:35.999Z</time></trkpt><trkpt lat="41.96760582464468" lon="13.379789526053198"><ele>769.0</ele><time>2026-03-29T14:45:36.999Z</time></trkpt><trkpt lat="41.96766734335336" lon="13.37955134852853"><ele>783.0</ele><time>2026-03-29T14:45:37.999Z</time></trkpt><trkpt lat="41.96776832162588" lon="13.379335515140715"><ele>797.0</ele><time>2026-03-29T14:45:38.999Z</time></trkpt><trkpt lat="41.967858735573046" lon="13.379099103916538"><ele>792.3333333333334</ele><time>2026-03-29T14:45:39.999Z</time></trkpt><trkpt lat="41.967907805569375" lon="13.378823522212492"><ele>787.6666666666667</ele><time>2026-03-29T14:45:40.999Z</time></trkpt><trkpt lat="41.967957752714476" lon="13.378551294070684"><ele>783.0</ele><time>2026-03-29T14:45:41.999Z</time></trkpt><trkpt lat="41.96804048361289" lon="13.378331295516483"><ele>783.0</ele><time>2026-03-29T14:45:42.999Z</time></trkpt><trkpt lat="41.968115351701975" lon="13.37810641741365"><ele>783.0</ele><time>2026-03-29T14:45:43.999Z</time></trkpt><trkpt lat="41.96815287337878" lon="13.377857083976135"><ele>783.0</ele><time>2026-03-29T14:45:44.999Z</time></trkpt><trkpt lat="41.968173673209755" lon="13.37757459634373"><ele>779.6666666666667</ele><time>2026-03-29T14:45:45.999Z</time></trkpt><trkpt lat="41.96816965916356" lon="13.377305038701103"><ele>776.3333333333334</ele><time>2026-03-29T14:45:46.999Z</time></trkpt><trkpt lat="41.9681508109136" lon="13.377060493135275"><ele>773.0</ele><time>2026-03-29T14:45:47.999Z</time></trkpt><trkpt lat="41.96813335098319" lon="13.376825525691627"><ele>769.3333333333334</ele><time>2026-03-29T14:45:48.999Z</time></trkpt><trkpt lat="41.968160331003794" lon="13.376584067961215"><ele>765.6666666666667</ele><time>2026-03-29T14:45:49.999Z</time></trkpt><trkpt lat="41.96821586839306" lon="13.376310173198949"><ele>762.0</ele><time>2026-03-29T14:45:50.999Z</time></trkpt><trkpt lat="41.96828159688541" lon="13.375994540619812"><ele>759.5</ele><time>2026-03-29T14:45:51.999Z</time></trkpt><trkpt lat="41.968350656824015" lon="13.375649048454592"><ele>757.0</ele><time>2026-03-29T14:45:52.999Z</time></trkpt><trkpt lat="41.96842530714524" lon="13.375295412233339"><ele>773.0</ele><time>2026-03-29T14:45:53.999Z</time></trkpt><trkpt lat="41.96848929316749" lon="13.374982406332258"><ele>789.0</ele><time>2026-03-29T14:45:54.999Z</time></trkpt><trkpt lat="41.96854643367337" lon="13.374707843615528"><ele>789.3333333333333</ele><time>2026-03-29T14:45:55.999Z</time></trkpt><trkpt lat="41.96860321835046" lon="13.37445575804352"><ele>789.6666666666666</ele><time>2026-03-29T14:45:56.999Z</time></trkpt><trkpt lat="41.96865091431729" lon="13.374230766876087"><ele>790.0</ele><time>2026-03-29T14:45:57.999Z</time></trkpt><trkpt lat="41.96869991622981" lon="13.374019084171666"><ele>785.6666666666666</ele><time>2026-03-29T14:45:58.999Z</time></trkpt><trkpt lat="41.96878799519266" lon="13.373799535173246"><ele>781.3333333333333</ele><time>2026-03-29T14:45:59.999Z</time></trkpt><trkpt lat="41.9689185482127" lon="13.373574078454007"><ele>777.0</ele><time>2026-03-29T14:46:00.999Z</time></trkpt><trkpt lat="41.969047936820765" lon="13.373357325203955"><ele>777.0</ele><time>2026-03-29T14:46:01.999Z</time></trkpt><trkpt lat="41.969153914372676" lon="13.373156434801949"><ele>777.0</ele><time>2026-03-29T14:46:02.999Z</time></trkpt><trkpt lat="41.969242292399834" lon="13.372926317963064"><ele>777.0</ele><time>2026-03-29T14:46:03.999Z</time></trkpt><trkpt lat="41.96929379811972" lon="13.372661654025004"><ele>784.3333333333333</ele><time>2026-03-29T14:46:04.999Z</time></trkpt><trkpt lat="41.96930560565572" lon="13.372378589402166"><ele>791.6666666666666</ele><time>2026-03-29T14:46:05.999Z</time></trkpt><trkpt lat="41.969282378177" lon="13.372086720638965"><ele>799.0</ele><time>2026-03-29T14:46:06.998Z</time></trkpt><trkpt lat="41.96925109028425" lon="13.371816315159046"><ele>799.0</ele><time>2026-03-29T14:46:07.998Z</time></trkpt><trkpt lat="41.969242458770466" lon="13.371563914480525"><ele>799.0</ele><time>2026-03-29T14:46:08.998Z</time></trkpt><trkpt lat="41.96926478636546" lon="13.371290670393892"><ele>799.0</ele><time>2026-03-29T14:46:09.998Z</time></trkpt><trkpt lat="41.96930761326426" lon="13.371006759407663"><ele>798.6666666666666</ele><time>2026-03-29T14:46:10.998Z</time></trkpt><trkpt lat="41.96935719628766" lon="13.37070566385682"><ele>798.3333333333333</ele><time>2026-03-29T14:46:11.998Z</time></trkpt><trkpt lat="41.96940548983725" lon="13.370445729759453"><ele>798.0</ele><time>2026-03-29T14:46:12.998Z</time></trkpt><trkpt lat="41.96944104252653" lon="13.370222400446643"><ele>831.0</ele><time>2026-03-29T14:46:13.998Z</time></trkpt><trkpt lat="41.97686208737095" lon="13.36108605442275"><ele>831.0</ele><time>2026-03-29T14:47:15Z</time></trkpt><trkpt lat="41.97700310355246" lon="13.360902520907965"><ele>831.0</ele><time>2026-03-29T14:47:16Z</time></trkpt><trkpt lat="41.97713911463286" lon="13.360725525837477"><ele>831.0</ele><time>2026-03-29T14:47:17Z</time></trkpt><trkpt lat="41.977283169346315" lon="13.360588927258123"><ele>829.6666666666667</ele><time>2026-03-29T14:47:18Z</time></trkpt><trkpt lat="41.977412130445025" lon="13.360465077808765"><ele>828.3333333333334</ele><time>2026-03-29T14:47:19Z</time></trkpt><trkpt lat="41.977563939369794" lon="13.360398117164223"><ele>827.0</ele><time>2026-03-29T14:47:19.999Z</time></trkpt><trkpt lat="41.97775083961403" lon="13.360387671074887"><ele>827.0</ele><time>2026-03-29T14:47:20.999Z</time></trkpt><trkpt lat="41.977965437443295" lon="13.360400241185193"><ele>827.0</ele><time>2026-03-29T14:47:21.999Z</time></trkpt><trkpt lat="41.978181540918456" lon="13.360411525061696"><ele>827.0</ele><time>2026-03-29T14:47:22.999Z</time></trkpt><trkpt lat="41.97837130697358" lon="13.360401821840279"><ele>831.3333333333334</ele><time>2026-03-29T14:47:23.999Z</time></trkpt><trkpt lat="41.97855163656845" lon="13.36037288745499"><ele>835.6666666666667</ele><time>2026-03-29T14:47:24.999Z</time></trkpt><trkpt lat="41.97871845039083" lon="13.360315580471765"><ele>840.0</ele><time>2026-03-29T14:47:25.999Z</time></trkpt><trkpt lat="41.97887773904266" lon="13.360221031311179"><ele>840.0</ele><time>2026-03-29T14:47:26.999Z</time></trkpt><trkpt lat="41.97903298096244" lon="13.360082673019997"><ele>840.0</ele><time>2026-03-29T14:47:27.999Z</time></trkpt><trkpt lat="41.979159128648" lon="13.35989549425424"><ele>840.0</ele><time>2026-03-29T14:47:28.999Z</time></trkpt><trkpt lat="41.979263960797475" lon="13.359674722712503"><ele>843.3333333333333</ele><time>2026-03-29T14:47:29.999Z</time></trkpt><trkpt lat="41.97933881870255" lon="13.359414165436581"><ele>846.6666666666666</ele><time>2026-03-29T14:47:30.999Z</time></trkpt><trkpt lat="41.97938142375315" lon="13.359112710795012"><ele>850.0</ele><time>2026-03-29T14:47:31.999Z</time></trkpt><trkpt lat="41.979407775546676" lon="13.358780540590708"><ele>850.0</ele><time>2026-03-29T14:47:32.999Z</time></trkpt><trkpt lat="41.979427142794385" lon="13.358441936479386"><ele>850.0</ele><time>2026-03-29T14:47:33.999Z</time></trkpt><trkpt lat="41.97947474729284" lon="13.35812303270003"><ele>849.0</ele><time>2026-03-29T14:47:34.999Z</time></trkpt><trkpt lat="41.97952463143693" lon="13.357830399710755"><ele>848.0</ele><time>2026-03-29T14:47:35.999Z</time></trkpt><trkpt lat="41.97958868005419" lon="13.357534378127841"><ele>848.0</ele><time>2026-03-29T14:47:36.999Z</time></trkpt><trkpt lat="41.979663195781725" lon="13.357248201072613"><ele>848.0</ele><time>2026-03-29T14:47:37.999Z</time></trkpt><trkpt lat="41.97972161786713" lon="13.356945321196498"><ele>847.3333333333334</ele><time>2026-03-29T14:47:38.999Z</time></trkpt><trkpt lat="41.979793914171736" lon="13.356674783126662"><ele>846.6666666666667</ele><time>2026-03-29T14:47:39.999Z</time></trkpt><trkpt lat="41.97987489054839" lon="13.356402929356078"><ele>846.0</ele><time>2026-03-29T14:47:40.999Z</time></trkpt><trkpt lat="41.979974055517786" lon="13.356140371060373"><ele>853.6666666666667</ele><time>2026-03-29T14:47:41.999Z</time></trkpt><trkpt lat="41.98007588412568" lon="13.35588514678525"><ele>861.3333333333334</ele><time>2026-03-29T14:47:42.999Z</time></trkpt><trkpt lat="41.98015570688309" lon="13.355614853114444"><ele>869.0</ele><time>2026-03-29T14:47:43.999Z</time></trkpt><trkpt lat="41.980212261807196" lon="13.355369675912346"><ele>869.0</ele><time>2026-03-29T14:47:44.999Z</time></trkpt><trkpt lat="41.98025712425494" lon="13.355131593516127"><ele>869.0</ele><time>2026-03-29T14:47:45.999Z</time></trkpt><trkpt lat="41.980316083572426" lon="13.35489580251166"><ele>869.0</ele><time>2026-03-29T14:47:46.999Z</time></trkpt><trkpt lat="41.98041544590908" lon="13.354676178789935"><ele>864.3333333333334</ele><time>2026-03-29T14:47:47.999Z</time></trkpt><trkpt lat="41.980534186744364" lon="13.354463983551932"><ele>859.6666666666667</ele><time>2026-03-29T14:47:48.999Z</time></trkpt><trkpt lat="41.98065815096031" lon="13.354224809490812"><ele>855.0</ele><time>2026-03-29T14:47:49.999Z</time></trkpt><trkpt lat="41.98080152310417" lon="13.353991991321793"><ele>860.5</ele><time>2026-03-29T14:47:50.999Z</time></trkpt><trkpt lat="41.980944459909615" lon="13.353754447124999"><ele>866.0</ele><time>2026-03-29T14:47:51.999Z</time></trkpt><trkpt lat="41.98109348588461" lon="13.3535016664828"><ele>866.0</ele><time>2026-03-29T14:47:52.999Z</time></trkpt><trkpt lat="41.98125155116967" lon="13.353244252452406"><ele>866.0</ele><time>2026-03-29T14:47:53.999Z</time></trkpt><trkpt lat="41.98141370632802" lon="13.352988550918193"><ele>867.5</ele><time>2026-03-29T14:47:54.999Z</time></trkpt><trkpt lat="41.98157595125" lon="13.35274166719156"><ele>869.0</ele><time>2026-03-29T14:47:55.999Z</time></trkpt><trkpt lat="41.98173607052729" lon="13.352490360645703"><ele>869.0</ele><time>2026-03-29T14:47:56.999Z</time></trkpt><trkpt lat="41.98189801678529" lon="13.352230123823855"><ele>869.0</ele><time>2026-03-29T14:47:57.999Z</time></trkpt><trkpt lat="41.982052838697555" lon="13.35199319360235"><ele>865.5</ele><time>2026-03-29T14:47:58.999Z</time></trkpt><trkpt lat="41.98221600947789" lon="13.351756043981624"><ele>862.0</ele><time>2026-03-29T14:47:59.999Z</time></trkpt><trkpt lat="41.98236168116975" lon="13.351528833184135"><ele>858.3333333333333</ele><time>2026-03-29T14:48:00.999Z</time></trkpt><trkpt lat="41.98249614080986" lon="13.351313105662229"><ele>854.6666666666667</ele><time>2026-03-29T14:48:01.999Z</time></trkpt><trkpt lat="41.982627972971905" lon="13.35108288194677"><ele>851.0</ele><time>2026-03-29T14:48:02.999Z</time></trkpt><trkpt lat="41.982745077693" lon="13.350831732229118"><ele>857.3333333333334</ele><time>2026-03-29T14:48:03.999Z</time></trkpt><trkpt lat="41.982845964996216" lon="13.350557838187266"><ele>863.6666666666667</ele><time>2026-03-29T14:48:04.999Z</time></trkpt><trkpt lat="41.98292745770552" lon="13.350286786149905"><ele>870.0</ele><time>2026-03-29T14:48:05.999Z</time></trkpt><trkpt lat="41.98300897475238" lon="13.350029156478966"><ele>870.0</ele><time>2026-03-29T14:48:06.999Z</time></trkpt><trkpt lat="41.98308940908716" lon="13.349797207783771"><ele>870.0</ele><time>2026-03-29T14:48:07.999Z</time></trkpt><trkpt lat="41.98316593883982" lon="13.349557055221315"><ele>870.0</ele><time>2026-03-29T14:48:08.999Z</time></trkpt><trkpt lat="41.983229520960265" lon="13.349301623853448"><ele>868.3333333333333</ele><time>2026-03-29T14:48:09.999Z</time></trkpt><trkpt lat="41.98326485569056" lon="13.349017745277488"><ele>866.6666666666666</ele><time>2026-03-29T14:48:10.999Z</time></trkpt><trkpt lat="41.98329021414757" lon="13.348731285188755"><ele>865.0</ele><time>2026-03-29T14:48:11.999Z</time></trkpt><trkpt lat="41.98331943017802" lon="13.348453056756655"><ele>879.5</ele><time>2026-03-29T14:48:12.999Z</time></trkpt><trkpt lat="41.983356249537295" lon="13.348196243563146"><ele>894.0</ele><time>2026-03-29T14:48:13.999Z</time></trkpt><trkpt lat="41.98937543324128" lon="13.33717712391433"><ele>896.3333333333333</ele><time>2026-03-29T14:49:15Z</time></trkpt><trkpt lat="41.98951709726263" lon="13.337076360287899"><ele>898.6666666666666</ele><time>2026-03-29T14:49:16Z</time></trkpt><trkpt lat="41.98966604712977" lon="13.33699302393469"><ele>901.0</ele><time>2026-03-29T14:49:17Z</time></trkpt><trkpt lat="41.98981656924191" lon="13.336900400718665"><ele>901.0</ele><time>2026-03-29T14:49:18Z</time></trkpt><trkpt lat="41.98997123540236" lon="13.336802637747388"><ele>901.0</ele><time>2026-03-29T14:49:19Z</time></trkpt><trkpt lat="41.99011599305709" lon="13.336711144472085"><ele>901.0</ele><time>2026-03-29T14:49:20Z</time></trkpt><trkpt lat="41.99024747600119" lon="13.336625301904565"><ele>902.75</ele><time>2026-03-29T14:49:21Z</time></trkpt><trkpt lat="41.990374296517594" lon="13.336539372274956"><ele>904.5</ele><time>2026-03-29T14:49:22Z</time></trkpt><trkpt lat="41.99048550303115" lon="13.336441633639875"><ele>906.25</ele><time>2026-03-29T14:49:23Z</time></trkpt><trkpt lat="41.990577069143754" lon="13.33631146251707"><ele>908.0</ele><time>2026-03-29T14:49:23.999Z</time></trkpt><trkpt lat="41.990645400726805" lon="13.33615222900895"><ele>908.0</ele><time>2026-03-29T14:49:24.999Z</time></trkpt><trkpt lat="41.99068280935962" lon="13.335965053542434"><ele>908.0</ele><time>2026-03-29T14:49:25.999Z</time></trkpt><trkpt lat="41.9906818612072" lon="13.335754028223569"><ele>908.0</ele><time>2026-03-29T14:49:26.999Z</time></trkpt><trkpt lat="41.9906557023534" lon="13.335531837286998"><ele>908.0</ele><time>2026-03-29T14:49:27.999Z</time></trkpt><trkpt lat="41.990622917869466" lon="13.335316713977262"><ele>908.0</ele><time>2026-03-29T14:49:28.999Z</time></trkpt><trkpt lat="41.99059750905278" lon="13.335105274342148"><ele>908.0</ele><time>2026-03-29T14:49:29.999Z</time></trkpt><trkpt lat="41.990596659975054" lon="13.334901388417938"><ele>906.5</ele><time>2026-03-29T14:49:30.999Z</time></trkpt><trkpt lat="41.990588986145525" lon="13.334712548900038"><ele>905.0</ele><time>2026-03-29T14:49:31.999Z</time></trkpt><trkpt lat="41.9906014323523" lon="13.334529536978179"><ele>903.5</ele><time>2026-03-29T14:49:32.999Z</time></trkpt><trkpt lat="41.99061247277382" lon="13.33437467696762"><ele>902.0</ele><time>2026-03-29T14:49:33.999Z</time></trkpt><trkpt lat="41.99069749830148" lon="13.334275476971287"><ele>902.0</ele><time>2026-03-29T14:49:34.999Z</time></trkpt><trkpt lat="41.9907866122355" lon="13.334139597444182"><ele>902.0</ele><time>2026-03-29T14:49:35.999Z</time></trkpt><trkpt lat="41.99089402290869" lon="13.33403405346251"><ele>902.0</ele><time>2026-03-29T14:49:36.999Z</time></trkpt><trkpt lat="41.99098644509002" lon="13.333943126781058"><ele>902.0</ele><time>2026-03-29T14:49:37.999Z</time></trkpt><trkpt lat="41.99106489363852" lon="13.333861412338454"><ele>902.0000000000001</ele><time>2026-03-29T14:49:38.999Z</time></trkpt><trkpt lat="41.991132797950414" lon="13.333789793298974"><ele>902.0</ele><time>2026-03-29T14:49:39.999Z</time></trkpt><trkpt lat="41.99119635219693" lon="13.333721026355947"><ele>902.0</ele><time>2026-03-29T14:49:40.999Z</time></trkpt><trkpt lat="41.991248563066364" lon="13.333658165495732"><ele>902.0</ele><time>2026-03-29T14:49:41.999Z</time></trkpt><trkpt lat="41.99127309161246" lon="13.333577456058249"><ele>902.0000000000001</ele><time>2026-03-29T14:49:42.999Z</time></trkpt><trkpt lat="41.99136449663863" lon="13.333508764386794"><ele>902.0</ele><time>2026-03-29T14:49:43.999Z</time></trkpt><trkpt lat="41.99145865738443" lon="13.33340567953997"><ele>902.0</ele><time>2026-03-29T14:49:44.999Z</time></trkpt><trkpt lat="41.99156212302549" lon="13.333284975939714"><ele>902.0</ele><time>2026-03-29T14:49:45.999Z</time></trkpt><trkpt lat="41.991662224099116" lon="13.333160982463731"><ele>902.0</ele><time>2026-03-29T14:49:46.999Z</time></trkpt><trkpt lat="41.99176138594364" lon="13.333049951491292"><ele>902.0</ele><time>2026-03-29T14:49:47.999Z</time></trkpt><trkpt lat="41.99184786330191" lon="13.332948942852285"><ele>901.5</ele><time>2026-03-29T14:49:48.999Z</time></trkpt><trkpt lat="41.99193496299152" lon="13.332863861399074"><ele>901.0</ele><time>2026-03-29T14:49:49.999Z</time></trkpt><trkpt lat="41.99203761239905" lon="13.332798219293117"><ele>900.5</ele><time>2026-03-29T14:49:50.999Z</time></trkpt><trkpt lat="41.992164019699324" lon="13.332754670821785"><ele>900.0</ele><time>2026-03-29T14:49:51.999Z</time></trkpt><trkpt lat="41.99231377100965" lon="13.332743968043726"><ele>900.0</ele><time>2026-03-29T14:49:52.999Z</time></trkpt><trkpt lat="41.99248007590496" lon="13.332755286211494"><ele>900.0</ele><time>2026-03-29T14:49:53.999Z</time></trkpt><trkpt lat="41.992634750075425" lon="13.332746938816603"><ele>900.0</ele><time>2026-03-29T14:49:54.999Z</time></trkpt><trkpt lat="41.99279519431819" lon="13.332704388936419"><ele>903.3333333333333</ele><time>2026-03-29T14:49:55.999Z</time></trkpt><trkpt lat="41.992959957009724" lon="13.332628098652522"><ele>906.6666666666666</ele><time>2026-03-29T14:49:56.999Z</time></trkpt><trkpt lat="41.993119327246575" lon="13.332520241853356"><ele>910.0</ele><time>2026-03-29T14:49:57.999Z</time></trkpt><trkpt lat="41.99328896467367" lon="13.33241500261178"><ele>910.3333333333333</ele><time>2026-03-29T14:49:58.999Z</time></trkpt><trkpt lat="41.99346117621322" lon="13.332315788232167"><ele>910.6666666666667</ele><time>2026-03-29T14:49:59.999Z</time></trkpt><trkpt lat="41.99364009314125" lon="13.332208149098975"><ele>911.0</ele><time>2026-03-29T14:50:00.999Z</time></trkpt><trkpt lat="41.99381578034727" lon="13.332102327437298"><ele>911.0</ele><time>2026-03-29T14:50:01.999Z</time></trkpt><trkpt lat="41.9939776572892" lon="13.332007267542478"><ele>911.0</ele><time>2026-03-29T14:50:02.999Z</time></trkpt><trkpt lat="41.99413413589648" lon="13.331923130787384"><ele>911.0</ele><time>2026-03-29T14:50:03.999Z</time></trkpt><trkpt lat="41.994290648419735" lon="13.33185165076752"><ele>913.3333333333334</ele><time>2026-03-29T14:50:04.999Z</time></trkpt><trkpt lat="41.9944577444818" lon="13.331826989464318"><ele>915.6666666666667</ele><time>2026-03-29T14:50:05.999Z</time></trkpt><trkpt lat="41.99463782760044" lon="13.331847689261144"><ele>918.0</ele><time>2026-03-29T14:50:06.999Z</time></trkpt><trkpt lat="41.99482128561072" lon="13.331882898891962"><ele>918.0</ele><time>2026-03-29T14:50:07.999Z</time></trkpt><trkpt lat="41.995001135373585" lon="13.331920919469203"><ele>918.0</ele><time>2026-03-29T14:50:08.999Z</time></trkpt><trkpt lat="41.99515596225042" lon="13.3319535707693"><ele>918.0</ele><time>2026-03-29T14:50:09.999Z</time></trkpt><trkpt lat="41.995310173289035" lon="13.331977574528826"><ele>919.6666666666667</ele><time>2026-03-29T14:50:10.999Z</time></trkpt><trkpt lat="41.99547203840268" lon="13.331980371132731"><ele>921.3333333333334</ele><time>2026-03-29T14:50:11.999Z</time></trkpt><trkpt lat="41.99563684731011" lon="13.331939421860186"><ele>923.0</ele><time>2026-03-29T14:50:12.999Z</time></trkpt><trkpt lat="41.99580067368377" lon="13.331860724105564"><ele>986.0</ele><time>2026-03-29T14:50:13.999Z</time></trkpt><trkpt lat="42.00260785903994" lon="13.325113466877353"><ele>986.0</ele><time>2026-03-29T14:51:15Z</time></trkpt><trkpt lat="42.00273897040349" lon="13.32500409317427"><ele>986.0</ele><time>2026-03-29T14:51:16Z</time></trkpt><trkpt lat="42.002865292785195" lon="13.3248916323315"><ele>986.0</ele><time>2026-03-29T14:51:17Z</time></trkpt><trkpt lat="42.00298363257634" lon="13.324759001468507"><ele>983.3333333333334</ele><time>2026-03-29T14:51:18Z</time></trkpt><trkpt lat="42.00308567372546" lon="13.32460335192045"><ele>980.6666666666667</ele><time>2026-03-29T14:51:19Z</time></trkpt><trkpt lat="42.00315838117723" lon="13.324405480375168"><ele>978.0</ele><time>2026-03-29T14:51:20Z</time></trkpt><trkpt lat="42.003194506757474" lon="13.324181205011508"><ele>978.0</ele><time>2026-03-29T14:51:21Z</time></trkpt><trkpt lat="42.003193199725224" lon="13.323945446165443"><ele>978.0</ele><time>2026-03-29T14:51:22Z</time></trkpt><trkpt lat="42.00314661077347" lon="13.32369795096271"><ele>978.0</ele><time>2026-03-29T14:51:23Z</time></trkpt><trkpt lat="42.003076582955906" lon="13.32344873317004"><ele>977.6666666666667</ele><time>2026-03-29T14:51:24Z</time></trkpt><trkpt lat="42.003038920249104" lon="13.32322154508802"><ele>977.3333333333334</ele><time>2026-03-29T14:51:25Z</time></trkpt><trkpt lat="42.00300324171346" lon="13.323027586870506"><ele>977.0</ele><time>2026-03-29T14:51:26Z</time></trkpt><trkpt lat="42.00298864861814" lon="13.322831485590486"><ele>975.6666666666667</ele><time>2026-03-29T14:51:27Z</time></trkpt><trkpt lat="42.0030186310429" lon="13.32262996522404"><ele>974.3333333333333</ele><time>2026-03-29T14:51:28Z</time></trkpt><trkpt lat="42.0031051197744" lon="13.322449864008744"><ele>973.0</ele><time>2026-03-29T14:51:29Z</time></trkpt><trkpt lat="42.003228664124826" lon="13.32228680742434"><ele>979.6666666666666</ele><time>2026-03-29T14:51:29.999Z</time></trkpt><trkpt lat="42.00336787695413" lon="13.322121767893703"><ele>986.3333333333333</ele><time>2026-03-29T14:51:30.999Z</time></trkpt><trkpt lat="42.003496423627666" lon="13.321973317383318"><ele>993.0</ele><time>2026-03-29T14:51:31.999Z</time></trkpt><trkpt lat="42.0035903992935" lon="13.321788154139803"><ele>993.0</ele><time>2026-03-29T14:51:32.999Z</time></trkpt><trkpt lat="42.00364627593801" lon="13.32155823902749"><ele>993.0</ele><time>2026-03-29T14:51:33.999Z</time></trkpt><trkpt lat="42.003667604736144" lon="13.321300240112922"><ele>993.0</ele><time>2026-03-29T14:51:34.999Z</time></trkpt><trkpt lat="42.00367774291659" lon="13.321020278895109"><ele>992.0</ele><time>2026-03-29T14:51:35.999Z</time></trkpt><trkpt lat="42.00369906083588" lon="13.320730714166851"><ele>991.0</ele><time>2026-03-29T14:51:36.999Z</time></trkpt><trkpt lat="42.00372193771612" lon="13.320451979760529"><ele>990.0</ele><time>2026-03-29T14:51:37.999Z</time></trkpt><trkpt lat="42.00374512015039" lon="13.320188136830463"><ele>989.3333333333333</ele><time>2026-03-29T14:51:38.999Z</time></trkpt><trkpt lat="42.003768756696495" lon="13.319925860388807"><ele>988.6666666666666</ele><time>2026-03-29T14:51:39.999Z</time></trkpt><trkpt lat="42.00379321678271" lon="13.319652727431496"><ele>988.0</ele><time>2026-03-29T14:51:40.999Z</time></trkpt><trkpt lat="42.0038115890288" lon="13.319370484245644"><ele>987.3333333333333</ele><time>2026-03-29T14:51:41.999Z</time></trkpt><trkpt lat="42.00382199861199" lon="13.319089331747001"><ele>986.6666666666667</ele><time>2026-03-29T14:51:42.999Z</time></trkpt><trkpt lat="42.003828469658586" lon="13.318789952896342"><ele>986.0</ele><time>2026-03-29T14:51:43.999Z</time></trkpt><trkpt lat="42.0038281564801" lon="13.318475557035516"><ele>985.5</ele><time>2026-03-29T14:51:44.999Z</time></trkpt><trkpt lat="42.00383245234484" lon="13.31815351113558"><ele>985.0</ele><time>2026-03-29T14:51:45.999Z</time></trkpt><trkpt lat="42.00384091052531" lon="13.317846646292672"><ele>984.0</ele><time>2026-03-29T14:51:46.999Z</time></trkpt><trkpt lat="42.00385123664763" lon="13.317558643681707"><ele>983.0</ele><time>2026-03-29T14:51:47.999Z</time></trkpt><trkpt lat="42.003859687272566" lon="13.317282865202417"><ele>982.0</ele><time>2026-03-29T14:51:48.999Z</time></trkpt><trkpt lat="42.00386735592937" lon="13.317028478835747"><ele>980.6666666666666</ele><time>2026-03-29T14:51:49.999Z</time></trkpt><trkpt lat="42.00387231578018" lon="13.31678921201184"><ele>979.3333333333333</ele><time>2026-03-29T14:51:50.999Z</time></trkpt><trkpt lat="42.00388111071666" lon="13.31656654469156"><ele>978.0</ele><time>2026-03-29T14:51:51.999Z</time></trkpt><trkpt lat="42.003900603092674" lon="13.316344808544123"><ele>974.6666666666667</ele><time>2026-03-29T14:51:52.999Z</time></trkpt><trkpt lat="42.003974361701964" lon="13.316131386682098"><ele>971.3333333333334</ele><time>2026-03-29T14:51:53.999Z</time></trkpt><trkpt lat="42.004051128921745" lon="13.315915163993933"><ele>968.0</ele><time>2026-03-29T14:51:54.999Z</time></trkpt><trkpt lat="42.00411902017736" lon="13.315707950636076"><ele>972.25</ele><time>2026-03-29T14:51:55.999Z</time></trkpt><trkpt lat="42.00418847054058" lon="13.315550816438407"><ele>976.5</ele><time>2026-03-29T14:51:56.999Z</time></trkpt><trkpt lat="42.00426649123716" lon="13.315409115333551"><ele>980.75</ele><time>2026-03-29T14:51:57.999Z</time></trkpt><trkpt lat="42.00438834180663" lon="13.315291772848209"><ele>985.0</ele><time>2026-03-29T14:51:58.999Z</time></trkpt><trkpt lat="42.00454874751975" lon="13.315200171419852"><ele>985.0</ele><time>2026-03-29T14:51:59.999Z</time></trkpt><trkpt lat="42.00471297684643" lon="13.315132663394575"><ele>985.0</ele><time>2026-03-29T14:52:00.999Z</time></trkpt><trkpt lat="42.00486497391081" lon="13.31505297983698"><ele>985.0</ele><time>2026-03-29T14:52:01.999Z</time></trkpt><trkpt lat="42.00499397693282" lon="13.314939526252262"><ele>987.0</ele><time>2026-03-29T14:52:02.999Z</time></trkpt><trkpt lat="42.005107018620016" lon="13.314786480296025"><ele>989.0</ele><time>2026-03-29T14:52:03.999Z</time></trkpt><trkpt lat="42.00518679784851" lon="13.314589539861569"><ele>991.0</ele><time>2026-03-29T14:52:04.999Z</time></trkpt><trkpt lat="42.0052382804947" lon="13.314361043631008"><ele>991.0</ele><time>2026-03-29T14:52:05.999Z</time></trkpt><trkpt lat="42.00528109907818" lon="13.3141065059106"><ele>991.0</ele><time>2026-03-29T14:52:06.999Z</time></trkpt><trkpt lat="42.005336695140144" lon="13.313872680928311"><ele>991.0</ele><time>2026-03-29T14:52:07.999Z</time></trkpt><trkpt lat="42.005388646141455" lon="13.313668550794445"><ele>990.0</ele><time>2026-03-29T14:52:08.999Z</time></trkpt><trkpt lat="42.00543641889303" lon="13.313479775971937"><ele>989.0</ele><time>2026-03-29T14:52:09.999Z</time></trkpt><trkpt lat="42.00548191536996" lon="13.313292620329692"><ele>988.0</ele><time>2026-03-29T14:52:10.999Z</time></trkpt><trkpt lat="42.00551319788374" lon="13.313102597834412"><ele>987.0</ele><time>2026-03-29T14:52:11.999Z</time></trkpt><trkpt lat="42.00550364111405" lon="13.31289666495754"><ele>987.0</ele><time>2026-03-29T14:52:12.999Z</time></trkpt><trkpt lat="42.00544668784922" lon="13.312709542870785"><ele>987.0</ele><time>2026-03-29T14:52:13.999Z</time></trkpt><trkpt lat="42.00956414683828" lon="13.301758227676315"><ele>986.3333333333333</ele><time>2026-03-29T14:53:15Z</time></trkpt><trkpt lat="42.00971533061974" lon="13.301591228335191"><ele>985.6666666666666</ele><time>2026-03-29T14:53:16Z</time></trkpt><trkpt lat="42.009861832695144" lon="13.301399974536817"><ele>985.0</ele><time>2026-03-29T14:53:17Z</time></trkpt><trkpt lat="42.01000882540216" lon="13.301183013560953"><ele>983.6666666666666</ele><time>2026-03-29T14:53:18Z</time></trkpt><trkpt lat="42.0101547565492" lon="13.300978749711769"><ele>982.3333333333333</ele><time>2026-03-29T14:53:19Z</time></trkpt><trkpt lat="42.010303880016856" lon="13.300771714198314"><ele>981.0</ele><time>2026-03-29T14:53:20Z</time></trkpt><trkpt lat="42.01045356090008" lon="13.300569441931815"><ele>982.6666666666667</ele><time>2026-03-29T14:53:21Z</time></trkpt><trkpt lat="42.0105964032546" lon="13.300377416962807"><ele>984.3333333333334</ele><time>2026-03-29T14:53:22Z</time></trkpt><trkpt lat="42.01073017607288" lon="13.30020019027498"><ele>986.0</ele><time>2026-03-29T14:53:23Z</time></trkpt><trkpt lat="42.01086167241206" lon="13.300021822577289"><ele>986.0</ele><time>2026-03-29T14:53:24Z</time></trkpt><trkpt lat="42.01098817831119" lon="13.299835070545067"><ele>986.0</ele><time>2026-03-29T14:53:25Z</time></trkpt><trkpt lat="42.011101970105294" lon="13.299617744785754"><ele>986.0</ele><time>2026-03-29T14:53:26Z</time></trkpt><trkpt lat="42.011193669879646" lon="13.299385211141347"><ele>982.3333333333334</ele><time>2026-03-29T14:53:27Z</time></trkpt><trkpt lat="42.011285464499544" lon="13.299138414251894"><ele>978.6666666666667</ele><time>2026-03-29T14:53:28Z</time></trkpt><trkpt lat="42.01138566564865" lon="13.29889698946083"><ele>975.0</ele><time>2026-03-29T14:53:29Z</time></trkpt><trkpt lat="42.011485108613506" lon="13.298662124888853"><ele>975.0</ele><time>2026-03-29T14:53:30Z</time></trkpt><trkpt lat="42.01157754454029" lon="13.298440762496222"><ele>975.0</ele><time>2026-03-29T14:53:31Z</time></trkpt><trkpt lat="42.011669933954515" lon="13.29822297461462"><ele>975.0</ele><time>2026-03-29T14:53:32Z</time></trkpt><trkpt lat="42.01176304507537" lon="13.297998654062795"><ele>975.0</ele><time>2026-03-29T14:53:33Z</time></trkpt><trkpt lat="42.011860952088384" lon="13.297770547607769"><ele>975.0</ele><time>2026-03-29T14:53:34Z</time></trkpt><trkpt lat="42.01196094500561" lon="13.297540310764152"><ele>975.0</ele><time>2026-03-29T14:53:34.999Z</time></trkpt><trkpt lat="42.0120622009542" lon="13.29730897200023"><ele>971.0</ele><time>2026-03-29T14:53:35.999Z</time></trkpt><trkpt lat="42.01216200306721" lon="13.297069736758816"><ele>967.0</ele><time>2026-03-29T14:53:36.999Z</time></trkpt><trkpt lat="42.01226095193205" lon="13.296827497873679"><ele>963.0</ele><time>2026-03-29T14:53:37.999Z</time></trkpt><trkpt lat="42.012351100160714" lon="13.296583194712351"><ele>961.3333333333333</ele><time>2026-03-29T14:53:38.999Z</time></trkpt><trkpt lat="42.01242396083632" lon="13.296323471885868"><ele>959.6666666666666</ele><time>2026-03-29T14:53:39.999Z</time></trkpt><trkpt lat="42.01247551168343" lon="13.296043278572204"><ele>958.0</ele><time>2026-03-29T14:53:40.999Z</time></trkpt><trkpt lat="42.012526089939506" lon="13.29577578202931"><ele>966.3333333333333</ele><time>2026-03-29T14:53:41.999Z</time></trkpt><trkpt lat="42.01257864523204" lon="13.295531684167338"><ele>974.6666666666667</ele><time>2026-03-29T14:53:42.999Z</time></trkpt><trkpt lat="42.01262630339847" lon="13.295316732884528"><ele>983.0</ele><time>2026-03-29T14:53:43.999Z</time></trkpt><trkpt lat="42.01266805345669" lon="13.295130682535067"><ele>983.0</ele><time>2026-03-29T14:53:44.999Z</time></trkpt><trkpt lat="42.01272416812901" lon="13.294960957209222"><ele>983.0</ele><time>2026-03-29T14:53:45.999Z</time></trkpt><trkpt lat="42.01283778093951" lon="13.29482637067655"><ele>983.0</ele><time>2026-03-29T14:53:46.999Z</time></trkpt><trkpt lat="42.012986821567544" lon="13.294709890527443"><ele>981.0</ele><time>2026-03-29T14:53:47.999Z</time></trkpt><trkpt lat="42.0131321116443" lon="13.294594789031608"><ele>979.0</ele><time>2026-03-29T14:53:48.999Z</time></trkpt><trkpt lat="42.01324836556117" lon="13.29448182971597"><ele>977.0</ele><time>2026-03-29T14:53:49.999Z</time></trkpt><trkpt lat="42.013339110917016" lon="13.294342198929414"><ele>984.0</ele><time>2026-03-29T14:53:50.999Z</time></trkpt><trkpt lat="42.01340174724033" lon="13.294166218410128"><ele>991.0</ele><time>2026-03-29T14:53:51.999Z</time></trkpt><trkpt lat="42.01341756732503" lon="13.293959233497457"><ele>998.0</ele><time>2026-03-29T14:53:52.999Z</time></trkpt><trkpt lat="42.01338588733509" lon="13.293741946217542"><ele>991.0</ele><time>2026-03-29T14:53:53.999Z</time></trkpt><trkpt lat="42.0133206587966" lon="13.293523805325492"><ele>984.0</ele><time>2026-03-29T14:53:54.999Z</time></trkpt><trkpt lat="42.013278310898436" lon="13.29328834097104"><ele>977.0</ele><time>2026-03-29T14:53:55.999Z</time></trkpt><trkpt lat="42.01325696783644" lon="13.293051319658273"><ele>975.3333333333334</ele><time>2026-03-29T14:53:56.999Z</time></trkpt><trkpt lat="42.013275848384" lon="13.292792052231327"><ele>973.6666666666667</ele><time>2026-03-29T14:53:57.999Z</time></trkpt><trkpt lat="42.013316226911016" lon="13.292501805471623"><ele>972.0</ele><time>2026-03-29T14:53:58.999Z</time></trkpt><trkpt lat="42.01338962107051" lon="13.292194597000554"><ele>981.3333333333333</ele><time>2026-03-29T14:53:59.999Z</time></trkpt><trkpt lat="42.01345516372467" lon="13.291910149482469"><ele>990.6666666666666</ele><time>2026-03-29T14:54:00.999Z</time></trkpt><trkpt lat="42.013499921791286" lon="13.291692109441863"><ele>1000.0</ele><time>2026-03-29T14:54:01.999Z</time></trkpt><trkpt lat="42.01354128187962" lon="13.29152934087603"><ele>999.6666666666666</ele><time>2026-03-29T14:54:02.999Z</time></trkpt><trkpt lat="42.01357398077658" lon="13.291387769922729"><ele>999.3333333333333</ele><time>2026-03-29T14:54:03.999Z</time></trkpt><trkpt lat="42.01360059428071" lon="13.291262566756426"><ele>999.0</ele><time>2026-03-29T14:54:04.999Z</time></trkpt><trkpt lat="42.01362859901676" lon="13.291149376402892"><ele>998.6666666666667</ele><time>2026-03-29T14:54:05.999Z</time></trkpt><trkpt lat="42.0136566434398" lon="13.291054697107462"><ele>998.3333333333334</ele><time>2026-03-29T14:54:06.999Z</time></trkpt><trkpt lat="42.013684775752786" lon="13.290974606602253"><ele>998.0</ele><time>2026-03-29T14:54:07.999Z</time></trkpt><trkpt lat="42.01375517247601" lon="13.290835283401673"><ele>998.0</ele><time>2026-03-29T14:54:09.999Z</time></trkpt><trkpt lat="42.013804896170214" lon="13.290758227896504"><ele>998.0</ele><time>2026-03-29T14:54:10.999Z</time></trkpt><trkpt lat="42.01386914079076" lon="13.290669867772998"><ele>998.0</ele><time>2026-03-29T14:54:11.999Z</time></trkpt><trkpt lat="42.0139468385532" lon="13.290571702798935"><ele>998.0</ele><time>2026-03-29T14:54:12.999Z</time></trkpt><trkpt lat="42.014007992786645" lon="13.290487382277297"><ele>998.0</ele><time>2026-03-29T14:54:13.999Z</time></trkpt><trkpt lat="42.01755422718334" lon="13.280828130321927"><ele>1014.8</ele><time>2026-03-29T14:55:14.998Z</time></trkpt><trkpt lat="42.01763814879525" lon="13.280891200795327"><ele>1031.6</ele><time>2026-03-29T14:55:15.998Z</time></trkpt><trkpt lat="42.01770052558835" lon="13.280996345690808"><ele>1048.4</ele><time>2026-03-29T14:55:16.998Z</time></trkpt><trkpt lat="42.01770510847194" lon="13.281157384752225"><ele>1065.2</ele><time>2026-03-29T14:55:17.998Z</time></trkpt><trkpt lat="42.01774108724765" lon="13.281282285134157"><ele>1082.0</ele><time>2026-03-29T14:55:18.998Z</time></trkpt><trkpt lat="42.017760161361274" lon="13.281365481141517"><ele>1082.0</ele><time>2026-03-29T14:55:20Z</time></trkpt><trkpt lat="42.017839671008446" lon="13.28138943816314"><ele>1082.0</ele><time>2026-03-29T14:55:22Z</time></trkpt><trkpt lat="42.01791623436338" lon="13.281324584067207"><ele>1082.0</ele><time>2026-03-29T14:55:24Z</time></trkpt><trkpt lat="42.01791621811747" lon="13.281136275420392"><ele>1082.0</ele><time>2026-03-29T14:55:26Z</time></trkpt><trkpt lat="42.01789559335956" lon="13.281002766069255"><ele>1082.0</ele><time>2026-03-29T14:55:27Z</time></trkpt><trkpt lat="42.01788213320623" lon="13.280847140112146"><ele>1082.0</ele><time>2026-03-29T14:55:27.999Z</time></trkpt><trkpt lat="42.01787219160251" lon="13.280675423174165"><ele>1082.0</ele><time>2026-03-29T14:55:28.999Z</time></trkpt><trkpt lat="42.01786826229438" lon="13.280510032024402"><ele>1082.0</ele><time>2026-03-29T14:55:29.999Z</time></trkpt><trkpt lat="42.01786690846534" lon="13.280340503352145"><ele>1082.0</ele><time>2026-03-29T14:55:30.999Z</time></trkpt><trkpt lat="42.01787101254116" lon="13.280187788434473"><ele>1083.5</ele><time>2026-03-29T14:55:31.999Z</time></trkpt><trkpt lat="42.01789018818216" lon="13.280047259215692"><ele>1085.0</ele><time>2026-03-29T14:55:32.999Z</time></trkpt><trkpt lat="42.01794021749324" lon="13.279913969585246"><ele>1086.5</ele><time>2026-03-29T14:55:33.999Z</time></trkpt><trkpt lat="42.01801544679477" lon="13.279779096141208"><ele>1088.0</ele><time>2026-03-29T14:55:34.999Z</time></trkpt><trkpt lat="42.01812319939776" lon="13.279648143681152"><ele>1088.0</ele><time>2026-03-29T14:55:35.999Z</time></trkpt><trkpt lat="42.01824984814197" lon="13.279526082221938"><ele>1088.0</ele><time>2026-03-29T14:55:36.999Z</time></trkpt><trkpt lat="42.018376028527065" lon="13.279416406693084"><ele>1088.0</ele><time>2026-03-29T14:55:37.999Z</time></trkpt><trkpt lat="42.01848779975337" lon="13.279323191496452"><ele>1088.0</ele><time>2026-03-29T14:55:38.999Z</time></trkpt><trkpt lat="42.01859491308831" lon="13.279226395446505"><ele>1088.0</ele><time>2026-03-29T14:55:39.999Z</time></trkpt><trkpt lat="42.01869147746558" lon="13.279094341758096"><ele>1088.0</ele><time>2026-03-29T14:55:40.999Z</time></trkpt><trkpt lat="42.01875683838473" lon="13.27889651876537"><ele>1088.0</ele><time>2026-03-29T14:55:41.999Z</time></trkpt><trkpt lat="42.018796672769014" lon="13.278667039287917"><ele>1086.3333333333335</ele><time>2026-03-29T14:55:42.999Z</time></trkpt><trkpt lat="42.0188297450848" lon="13.278423257859627"><ele>1084.6666666666667</ele><time>2026-03-29T14:55:43.999Z</time></trkpt><trkpt lat="42.01886256974464" lon="13.278216154346453"><ele>1083.0</ele><time>2026-03-29T14:55:44.999Z</time></trkpt><trkpt lat="42.01888890930487" lon="13.278029412020269"><ele>1083.0</ele><time>2026-03-29T14:55:45.999Z</time></trkpt><trkpt lat="42.01891807166681" lon="13.277868776339782"><ele>1083.0</ele><time>2026-03-29T14:55:46.999Z</time></trkpt><trkpt lat="42.018962324598434" lon="13.277733291646737"><ele>1083.0</ele><time>2026-03-29T14:55:47.999Z</time></trkpt><trkpt lat="42.019049598700725" lon="13.277629914940553"><ele>1083.0</ele><time>2026-03-29T14:55:48.999Z</time></trkpt><trkpt lat="42.01917513262941" lon="13.27756975251703"><ele>1084.3333333333333</ele><time>2026-03-29T14:55:49.999Z</time></trkpt><trkpt lat="42.01933581744874" lon="13.277571314116898"><ele>1085.6666666666665</ele><time>2026-03-29T14:55:50.999Z</time></trkpt><trkpt lat="42.0195051662149" lon="13.27759059399429"><ele>1087.0</ele><time>2026-03-29T14:55:51.999Z</time></trkpt><trkpt lat="42.019667465792836" lon="13.277606549197841"><ele>1087.0</ele><time>2026-03-29T14:55:52.999Z</time></trkpt><trkpt lat="42.01981695067639" lon="13.27761068127259"><ele>1087.0</ele><time>2026-03-29T14:55:53.999Z</time></trkpt><trkpt lat="42.019966192264945" lon="13.277573444097452"><ele>1087.0</ele><time>2026-03-29T14:55:54.999Z</time></trkpt><trkpt lat="42.020110524259856" lon="13.277478577088326"><ele>1088.0</ele><time>2026-03-29T14:55:55.999Z</time></trkpt><trkpt lat="42.02024816171881" lon="13.277328458907888"><ele>1089.0</ele><time>2026-03-29T14:55:56.999Z</time></trkpt><trkpt lat="42.02035738571243" lon="13.277132764810762"><ele>1090.0</ele><time>2026-03-29T14:55:57.999Z</time></trkpt><trkpt lat="42.02048147231867" lon="13.276930385228757"><ele>1088.0</ele><time>2026-03-29T14:55:58.999Z</time></trkpt><trkpt lat="42.020610191309274" lon="13.276725216728542"><ele>1086.0</ele><time>2026-03-29T14:55:59.999Z</time></trkpt><trkpt lat="42.02073743212129" lon="13.276519325537645"><ele>1084.0</ele><time>2026-03-29T14:56:00.999Z</time></trkpt><trkpt lat="42.02086070895605" lon="13.276317350662946"><ele>1084.0</ele><time>2026-03-29T14:56:01.999Z</time></trkpt><trkpt lat="42.020987537858595" lon="13.276112674590197"><ele>1084.0</ele><time>2026-03-29T14:56:02.999Z</time></trkpt><trkpt lat="42.02111644377335" lon="13.275921483401222"><ele>1084.0</ele><time>2026-03-29T14:56:03.999Z</time></trkpt><trkpt lat="42.02124458123531" lon="13.2757268737295"><ele>1079.6666666666665</ele><time>2026-03-29T14:56:04.999Z</time></trkpt><trkpt lat="42.02137361204257" lon="13.275525053943221"><ele>1075.3333333333333</ele><time>2026-03-29T14:56:05.999Z</time></trkpt><trkpt lat="42.02150046601136" lon="13.275329734002733"><ele>1071.0</ele><time>2026-03-29T14:56:06.999Z</time></trkpt><trkpt lat="42.02161489846968" lon="13.275147316070973"><ele>1071.0</ele><time>2026-03-29T14:56:07.999Z</time></trkpt><trkpt lat="42.0217247680506" lon="13.274981707717165"><ele>1071.0</ele><time>2026-03-29T14:56:08.999Z</time></trkpt><trkpt lat="42.02183503384407" lon="13.274819708055093"><ele>1071.0</ele><time>2026-03-29T14:56:09.999Z</time></trkpt><trkpt lat="42.02195831253558" lon="13.274654623462846"><ele>1071.0</ele><time>2026-03-29T14:56:10.999Z</time></trkpt><trkpt lat="42.022116966210916" lon="13.27454264874032"><ele>1071.0</ele><time>2026-03-29T14:56:11.999Z</time></trkpt><trkpt lat="42.022282786501734" lon="13.274407819129685"><ele>1071.0</ele><time>2026-03-29T14:56:12.999Z</time></trkpt><trkpt lat="42.022454850479406" lon="13.274304232959185"><ele>1045.0</ele><time>2026-03-29T14:56:13.999Z</time></trkpt><trkpt lat="42.03095042494502" lon="13.265541050232475"><ele>1045.0</ele><time>2026-03-29T14:57:14.998Z</time></trkpt><trkpt lat="42.031136345473634" lon="13.265361438853988"><ele>1045.0</ele><time>2026-03-29T14:57:15.998Z</time></trkpt><trkpt lat="42.03131843889217" lon="13.265184571363957"><ele>1045.0</ele><time>2026-03-29T14:57:16.998Z</time></trkpt><trkpt lat="42.03149985844527" lon="13.265003527119337"><ele>1045.0</ele><time>2026-03-29T14:57:17.998Z</time></trkpt><trkpt lat="42.031683436418646" lon="13.264821784656556"><ele>1044.5</ele><time>2026-03-29T14:57:18.998Z</time></trkpt><trkpt lat="42.03187210912446" lon="13.264634712860088"><ele>1044.0</ele><time>2026-03-29T14:57:19.998Z</time></trkpt><trkpt lat="42.032058187788905" lon="13.26444496457443"><ele>1044.0</ele><time>2026-03-29T14:57:20.998Z</time></trkpt><trkpt lat="42.03223963162675" lon="13.2642630636977"><ele>1044.0</ele><time>2026-03-29T14:57:21.998Z</time></trkpt><trkpt lat="42.032412218866995" lon="13.264089579696892"><ele>1044.0</ele><time>2026-03-29T14:57:22.998Z</time></trkpt><trkpt lat="42.032588588826194" lon="13.26392162163268"><ele>1040.0</ele><time>2026-03-29T14:57:23.998Z</time></trkpt><trkpt lat="42.03278912581249" lon="13.263768268194369"><ele>1036.0</ele><time>2026-03-29T14:57:24.998Z</time></trkpt><trkpt lat="42.033005742544525" lon="13.26364061863864"><ele>1036.0</ele><time>2026-03-29T14:57:26Z</time></trkpt><trkpt lat="42.033228267384175" lon="13.263526113091052"><ele>1036.0</ele><time>2026-03-29T14:57:27Z</time></trkpt><trkpt lat="42.03344206448636" lon="13.263387196897801"><ele>1030.0</ele><time>2026-03-29T14:57:28Z</time></trkpt><trkpt lat="42.033652763490736" lon="13.263234733823808"><ele>1024.0</ele><time>2026-03-29T14:57:29Z</time></trkpt><trkpt lat="42.03385970844258" lon="13.263087114727364"><ele>1024.0</ele><time>2026-03-29T14:57:30Z</time></trkpt><trkpt lat="42.03406775686143" lon="13.26294225692162"><ele>1024.0</ele><time>2026-03-29T14:57:31Z</time></trkpt><trkpt lat="42.03427340236258" lon="13.262791457999436"><ele>1039.5</ele><time>2026-03-29T14:57:32Z</time></trkpt><trkpt lat="42.0344787699225" lon="13.262636543617187"><ele>1055.0</ele><time>2026-03-29T14:57:33Z</time></trkpt><trkpt lat="42.03468212641756" lon="13.262468887097292"><ele>1055.0</ele><time>2026-03-29T14:57:34Z</time></trkpt><trkpt lat="42.03488124356331" lon="13.262291280179962"><ele>1055.0</ele><time>2026-03-29T14:57:35Z</time></trkpt><trkpt lat="42.03507258908808" lon="13.26210914024315"><ele>1053.5</ele><time>2026-03-29T14:57:36Z</time></trkpt><trkpt lat="42.03525396698777" lon="13.261928095812149"><ele>1052.0</ele><time>2026-03-29T14:57:37Z</time></trkpt><trkpt lat="42.03543733714152" lon="13.261742749481096"><ele>1052.0</ele><time>2026-03-29T14:57:38Z</time></trkpt><trkpt lat="42.035631383405956" lon="13.26155917868464"><ele>1052.0</ele><time>2026-03-29T14:57:39Z</time></trkpt><trkpt lat="42.0358251830214" lon="13.26138897342198"><ele>1048.0</ele><time>2026-03-29T14:57:40Z</time></trkpt><trkpt lat="42.036019823106216" lon="13.261232379594109"><ele>1044.0</ele><time>2026-03-29T14:57:41Z</time></trkpt><trkpt lat="42.03621574974397" lon="13.261088274897295"><ele>1044.0</ele><time>2026-03-29T14:57:42Z</time></trkpt><trkpt lat="42.03641158126954" lon="13.26094057067427"><ele>1044.0</ele><time>2026-03-29T14:57:43Z</time></trkpt><trkpt lat="42.03661421758428" lon="13.260780128014858"><ele>1039.0</ele><time>2026-03-29T14:57:44Z</time></trkpt><trkpt lat="42.03681211107824" lon="13.260607986959204"><ele>1034.0</ele><time>2026-03-29T14:57:44.999Z</time></trkpt><trkpt lat="42.0370112216678" lon="13.26042485773552"><ele>1034.0</ele><time>2026-03-29T14:57:45.999Z</time></trkpt><trkpt lat="42.037214668462646" lon="13.260231864409981"><ele>1034.0</ele><time>2026-03-29T14:57:46.999Z</time></trkpt><trkpt lat="42.037418551669944" lon="13.26003898837745"><ele>1028.5</ele><time>2026-03-29T14:57:47.999Z</time></trkpt><trkpt lat="42.03763231197423" lon="13.25984190653079"><ele>1023.0</ele><time>2026-03-29T14:57:48.999Z</time></trkpt><trkpt lat="42.03785013094082" lon="13.25964542504235"><ele>1023.0</ele><time>2026-03-29T14:57:49.999Z</time></trkpt><trkpt lat="42.03806380322759" lon="13.25944631759599"><ele>1023.0</ele><time>2026-03-29T14:57:50.999Z</time></trkpt><trkpt lat="42.03827544327775" lon="13.259245611266069"><ele>1022.0</ele><time>2026-03-29T14:57:51.999Z</time></trkpt><trkpt lat="42.0384837133892" lon="13.259050472144342"><ele>1021.0</ele><time>2026-03-29T14:57:52.999Z</time></trkpt><trkpt lat="42.0386829688726" lon="13.258864210185562"><ele>1021.0</ele><time>2026-03-29T14:57:53.999Z</time></trkpt><trkpt lat="42.03886282439858" lon="13.258693631820963"><ele>1021.0</ele><time>2026-03-29T14:57:54.999Z</time></trkpt><trkpt lat="42.039023455825365" lon="13.258543374925237"><ele>1021.0</ele><time>2026-03-29T14:57:55.999Z</time></trkpt><trkpt lat="42.03916154253576" lon="13.258421045202915"><ele>1024.6666666666665</ele><time>2026-03-29T14:57:56.999Z</time></trkpt><trkpt lat="42.039319697178314" lon="13.258301650986919"><ele>1028.3333333333333</ele><time>2026-03-29T14:57:57.999Z</time></trkpt><trkpt lat="42.03951316242967" lon="13.258213293414633"><ele>1032.0</ele><time>2026-03-29T14:57:58.999Z</time></trkpt><trkpt lat="42.039717273303616" lon="13.258147340342948"><ele>1027.6666666666667</ele><time>2026-03-29T14:57:59.999Z</time></trkpt><trkpt lat="42.03990516923921" lon="13.258079737935137"><ele>1023.3333333333334</ele><time>2026-03-29T14:58:00.999Z</time></trkpt><trkpt lat="42.04008443553147" lon="13.257979637306265"><ele>1019.0</ele><time>2026-03-29T14:58:01.999Z</time></trkpt><trkpt lat="42.04026030323116" lon="13.257831804571921"><ele>1019.0</ele><time>2026-03-29T14:58:02.999Z</time></trkpt><trkpt lat="42.04042951874668" lon="13.257640973321935"><ele>1019.0</ele><time>2026-03-29T14:58:03.999Z</time></trkpt><trkpt lat="42.04060629980982" lon="13.25742334161632"><ele>1018.0</ele><time>2026-03-29T14:58:04.999Z</time></trkpt><trkpt lat="42.04079499223542" lon="13.25720324243325"><ele>1017.0</ele><time>2026-03-29T14:58:05.999Z</time></trkpt><trkpt lat="42.040980172589784" lon="13.256993993207887"><ele>1017.0</ele><time>2026-03-29T14:58:06.999Z</time></trkpt><trkpt lat="42.04115798024349" lon="13.25679431035234"><ele>1017.0</ele><time>2026-03-29T14:58:07.999Z</time></trkpt><trkpt lat="42.04133998168884" lon="13.256597999241569"><ele>1016.0</ele><time>2026-03-29T14:58:08.999Z</time></trkpt><trkpt lat="42.04153587170808" lon="13.256410557901107"><ele>1015.0</ele><time>2026-03-29T14:58:09.999Z</time></trkpt><trkpt lat="42.041750516853504" lon="13.25624690246791"><ele>1015.0</ele><time>2026-03-29T14:58:10.999Z</time></trkpt><trkpt lat="42.041970781879996" lon="13.25609880826278"><ele>1015.0</ele><time>2026-03-29T14:58:11.999Z</time></trkpt><trkpt lat="42.04218249787803" lon="13.255949760102933"><ele>1015.0</ele><time>2026-03-29T14:58:12.999Z</time></trkpt><trkpt lat="42.04238472823523" lon="13.255801655186836"><ele>1015.0</ele><time>2026-03-29T14:58:13.999Z</time></trkpt><trkpt lat="42.05249965827137" lon="13.24460028999848"><ele>998.0</ele><time>2026-03-29T14:59:14.998Z</time></trkpt><trkpt lat="42.05265944449827" lon="13.244421987412784"><ele>981.0</ele><time>2026-03-29T14:59:15.998Z</time></trkpt><trkpt lat="42.05284315899043" lon="13.244273498800673"><ele>964.0</ele><time>2026-03-29T14:59:16.998Z</time></trkpt><trkpt lat="42.053028960902054" lon="13.244148341257858"><ele>964.0</ele><time>2026-03-29T14:59:17.998Z</time></trkpt><trkpt lat="42.05319447471316" lon="13.244037209317224"><ele>964.0</ele><time>2026-03-29T14:59:18.998Z</time></trkpt><trkpt lat="42.05334681734825" lon="13.2439241042118"><ele>964.0</ele><time>2026-03-29T14:59:19.998Z</time></trkpt><trkpt lat="42.05351344704361" lon="13.243817191712834"><ele>965.6666666666666</ele><time>2026-03-29T14:59:20.998Z</time></trkpt><trkpt lat="42.053703324109954" lon="13.24373134956927"><ele>967.3333333333333</ele><time>2026-03-29T14:59:21.998Z</time></trkpt><trkpt lat="42.053908718721814" lon="13.243667730589266"><ele>969.0</ele><time>2026-03-29T14:59:22.998Z</time></trkpt><trkpt lat="42.05413002941511" lon="13.243600709249172"><ele>970.0</ele><time>2026-03-29T14:59:23.998Z</time></trkpt><trkpt lat="42.05435714691889" lon="13.243518579427386"><ele>971.0</ele><time>2026-03-29T14:59:24.998Z</time></trkpt><trkpt lat="42.054575100160726" lon="13.243439727915746"><ele>971.0</ele><time>2026-03-29T14:59:25.998Z</time></trkpt><trkpt lat="42.054789060213466" lon="13.243364486223493"><ele>971.0</ele><time>2026-03-29T14:59:26.998Z</time></trkpt><trkpt lat="42.0549928396242" lon="13.243296510081795"><ele>971.0</ele><time>2026-03-29T14:59:27.998Z</time></trkpt><trkpt lat="42.05518598547698" lon="13.243228102002643"><ele>970.6666666666667</ele><time>2026-03-29T14:59:28.998Z</time></trkpt><trkpt lat="42.05536293883671" lon="13.24314934665686"><ele>970.3333333333333</ele><time>2026-03-29T14:59:29.998Z</time></trkpt><trkpt lat="42.05553693354341" lon="13.243027785736087"><ele>970.0</ele><time>2026-03-29T14:59:30.998Z</time></trkpt><trkpt lat="42.055707329780596" lon="13.242853236377579"><ele>967.0</ele><time>2026-03-29T14:59:32Z</time></trkpt><trkpt lat="42.05587414510657" lon="13.242662021464163"><ele>964.0</ele><time>2026-03-29T14:59:33Z</time></trkpt><trkpt lat="42.05605059936219" lon="13.24248856367789"><ele>961.0</ele><time>2026-03-29T14:59:34Z</time></trkpt><trkpt lat="42.05623887649273" lon="13.242312979470157"><ele>953.0</ele><time>2026-03-29T14:59:35Z</time></trkpt><trkpt lat="42.05642818090467" lon="13.242130146265747"><ele>945.0</ele><time>2026-03-29T14:59:36Z</time></trkpt><trkpt lat="42.05661363664388" lon="13.241947256244016"><ele>947.3333333333333</ele><time>2026-03-29T14:59:36.999Z</time></trkpt><trkpt lat="42.05679454886208" lon="13.24176816997693"><ele>949.6666666666666</ele><time>2026-03-29T14:59:38Z</time></trkpt><trkpt lat="42.05696053691066" lon="13.24160751900093"><ele>952.0</ele><time>2026-03-29T14:59:39Z</time></trkpt><trkpt lat="42.057131913804255" lon="13.24146262047525"><ele>947.5</ele><time>2026-03-29T14:59:40Z</time></trkpt><trkpt lat="42.05733106207115" lon="13.241346174241032"><ele>943.0</ele><time>2026-03-29T14:59:41Z</time></trkpt><trkpt lat="42.05756262945161" lon="13.24126286913605"><ele>943.0</ele><time>2026-03-29T14:59:42Z</time></trkpt><trkpt lat="42.05779373655543" lon="13.24120615697834"><ele>943.0</ele><time>2026-03-29T14:59:43Z</time></trkpt><trkpt lat="42.058008104954254" lon="13.241146910152526"><ele>943.0</ele><time>2026-03-29T14:59:44Z</time></trkpt><trkpt lat="42.05820686599335" lon="13.24108176138484"><ele>943.0</ele><time>2026-03-29T14:59:45Z</time></trkpt><trkpt lat="42.05839812027749" lon="13.241019332772776"><ele>943.0</ele><time>2026-03-29T14:59:45.999Z</time></trkpt><trkpt lat="42.058581358863535" lon="13.240951109599687"><ele>944.3333333333333</ele><time>2026-03-29T14:59:46.999Z</time></trkpt><trkpt lat="42.058757216426415" lon="13.240869004046262"><ele>945.6666666666667</ele><time>2026-03-29T14:59:47.999Z</time></trkpt><trkpt lat="42.05893543065947" lon="13.240763707395777"><ele>947.0</ele><time>2026-03-29T14:59:48.999Z</time></trkpt><trkpt lat="42.05911450532192" lon="13.24064044321662"><ele>943.0</ele><time>2026-03-29T14:59:49.999Z</time></trkpt><trkpt lat="42.05929712894386" lon="13.240508193299025"><ele>939.0</ele><time>2026-03-29T14:59:50.999Z</time></trkpt><trkpt lat="42.05948626854947" lon="13.240373339811441"><ele>935.0</ele><time>2026-03-29T14:59:51.999Z</time></trkpt><trkpt lat="42.05968244670038" lon="13.240238788271153"><ele>935.0</ele><time>2026-03-29T14:59:52.999Z</time></trkpt><trkpt lat="42.05987835659308" lon="13.240103199621696"><ele>935.0</ele><time>2026-03-29T14:59:53.999Z</time></trkpt><trkpt lat="42.06008619314617" lon="13.23995522366258"><ele>937.5</ele><time>2026-03-29T14:59:54.999Z</time></trkpt><trkpt lat="42.0603014795053" lon="13.239803946140208"><ele>940.0</ele><time>2026-03-29T14:59:55.999Z</time></trkpt><trkpt lat="42.0605182747849" lon="13.239655248623478"><ele>936.0</ele><time>2026-03-29T14:59:56.999Z</time></trkpt><trkpt lat="42.06073479194013" lon="13.239507926555406"><ele>932.0</ele><time>2026-03-29T14:59:57.999Z</time></trkpt><trkpt lat="42.060954556436776" lon="13.239357457403408"><ele>932.0</ele><time>2026-03-29T14:59:58.999Z</time></trkpt><trkpt lat="42.06116505439478" lon="13.239212009567261"><ele>932.0</ele><time>2026-03-29T14:59:59.999Z</time></trkpt><trkpt lat="42.06136683677037" lon="13.239073089707208"><ele>929.6666666666667</ele><time>2026-03-29T15:00:00.999Z</time></trkpt><trkpt lat="42.06156280397018" lon="13.23893316711524"><ele>927.3333333333333</ele><time>2026-03-29T15:00:01.999Z</time></trkpt><trkpt lat="42.061750681977514" lon="13.238786872493266"><ele>925.0</ele><time>2026-03-29T15:00:02.999Z</time></trkpt><trkpt lat="42.06193337745453" lon="13.238621523250186"><ele>925.0</ele><time>2026-03-29T15:00:03.999Z</time></trkpt><trkpt lat="42.0621021226617" lon="13.238443249993862"><ele>925.0</ele><time>2026-03-29T15:00:04.999Z</time></trkpt><trkpt lat="42.06224961797719" lon="13.238261103026494"><ele>925.0</ele><time>2026-03-29T15:00:05.999Z</time></trkpt><trkpt lat="42.06239527585784" lon="13.238082874955326"><ele>922.3333333333333</ele><time>2026-03-29T15:00:06.999Z</time></trkpt><trkpt lat="42.06254587622329" lon="13.237936725873217"><ele>919.6666666666667</ele><time>2026-03-29T15:00:07.999Z</time></trkpt><trkpt lat="42.06271955340706" lon="13.23783077429819"><ele>917.0</ele><time>2026-03-29T15:00:08.999Z</time></trkpt><trkpt lat="42.06291345553473" lon="13.23775242296013"><ele>917.0</ele><time>2026-03-29T15:00:09.999Z</time></trkpt><trkpt lat="42.06309217536324" lon="13.237680271351762"><ele>917.0</ele><time>2026-03-29T15:00:10.999Z</time></trkpt><trkpt lat="42.06323107255753" lon="13.237616692777792"><ele>917.0</ele><time>2026-03-29T15:00:11.999Z</time></trkpt><trkpt lat="42.06333425222593" lon="13.237565434480512"><ele>917.0</ele><time>2026-03-29T15:00:12.999Z</time></trkpt><trkpt lat="42.06341961695813" lon="13.23755222122743"><ele>884.0</ele><time>2026-03-29T15:00:13.999Z</time></trkpt><trkpt lat="42.067419390138404" lon="13.2440842097965"><ele>889.25</ele><time>2026-03-29T15:01:14.998Z</time></trkpt><trkpt lat="42.06750890726662" lon="13.244202882765833"><ele>894.5</ele><time>2026-03-29T15:01:15.998Z</time></trkpt><trkpt lat="42.067592498300634" lon="13.24432131778748"><ele>899.75</ele><time>2026-03-29T15:01:16.998Z</time></trkpt><trkpt lat="42.06767352840333" lon="13.244443267395996"><ele>905.0</ele><time>2026-03-29T15:01:17.998Z</time></trkpt><trkpt lat="42.06774942663782" lon="13.24456491313048"><ele>905.0</ele><time>2026-03-29T15:01:18.998Z</time></trkpt><trkpt lat="42.06782711318318" lon="13.244691905415147"><ele>905.0</ele><time>2026-03-29T15:01:19.998Z</time></trkpt><trkpt lat="42.06790524053316" lon="13.244817539221934"><ele>905.0</ele><time>2026-03-29T15:01:20.998Z</time></trkpt><trkpt lat="42.067977036215325" lon="13.24493976711763"><ele>905.0</ele><time>2026-03-29T15:01:21.998Z</time></trkpt><trkpt lat="42.068048622033714" lon="13.245068257335426"><ele>908.0</ele><time>2026-03-29T15:01:22.998Z</time></trkpt><trkpt lat="42.06812145278352" lon="13.245197649027975"><ele>911.0</ele><time>2026-03-29T15:01:23.998Z</time></trkpt><trkpt lat="42.06818962452156" lon="13.245334197775216"><ele>914.0</ele><time>2026-03-29T15:01:24.998Z</time></trkpt><trkpt lat="42.068245861353994" lon="13.245479078397532"><ele>917.0</ele><time>2026-03-29T15:01:25.998Z</time></trkpt><trkpt lat="42.06828524857941" lon="13.245609378603566"><ele>912.6</ele><time>2026-03-29T15:01:26.998Z</time></trkpt><trkpt lat="42.06831378728259" lon="13.245738142367404"><ele>908.2</ele><time>2026-03-29T15:01:27.998Z</time></trkpt><trkpt lat="42.068344016579154" lon="13.245849076891943"><ele>903.8</ele><time>2026-03-29T15:01:28.998Z</time></trkpt><trkpt lat="42.06837362790843" lon="13.245980189899566"><ele>899.4</ele><time>2026-03-29T15:01:29.998Z</time></trkpt><trkpt lat="42.068402787840846" lon="13.246096005906054"><ele>895.0</ele><time>2026-03-29T15:01:30.998Z</time></trkpt><trkpt lat="42.068436280460695" lon="13.246195005535993"><ele>895.0</ele><time>2026-03-29T15:01:31.998Z</time></trkpt><trkpt lat="42.06849660381437" lon="13.246284928384753"><ele>895.0</ele><time>2026-03-29T15:01:32.998Z</time></trkpt><trkpt lat="42.06858075246426" lon="13.24634030562412"><ele>895.0</ele><time>2026-03-29T15:01:33.998Z</time></trkpt><trkpt lat="42.06868293774957" lon="13.246336787591785"><ele>895.0</ele><time>2026-03-29T15:01:34.998Z</time></trkpt><trkpt lat="42.068784785223755" lon="13.246290097162712"><ele>895.0</ele><time>2026-03-29T15:01:35.998Z</time></trkpt><trkpt lat="42.06888094734971" lon="13.246231516303274"><ele>895.0</ele><time>2026-03-29T15:01:36.998Z</time></trkpt><trkpt lat="42.06898628275462" lon="13.246179905118986"><ele>895.0</ele><time>2026-03-29T15:01:37.999Z</time></trkpt><trkpt lat="42.06909876971844" lon="13.24613442891178"><ele>895.0</ele><time>2026-03-29T15:01:39Z</time></trkpt><trkpt lat="42.069215933279835" lon="13.246080722907756"><ele>895.0</ele><time>2026-03-29T15:01:39.999Z</time></trkpt><trkpt lat="42.06934475719917" lon="13.246016913382665"><ele>898.0</ele><time>2026-03-29T15:01:41Z</time></trkpt><trkpt lat="42.06947798705301" lon="13.24594041038404"><ele>901.0</ele><time>2026-03-29T15:01:42Z</time></trkpt><trkpt lat="42.06962485772678" lon="13.245837284727925"><ele>904.0</ele><time>2026-03-29T15:01:42.999Z</time></trkpt><trkpt lat="42.069798001024026" lon="13.245709094412693"><ele>910.3333333333333</ele><time>2026-03-29T15:01:44Z</time></trkpt><trkpt lat="42.06997809189071" lon="13.24559331285149"><ele>916.6666666666667</ele><time>2026-03-29T15:01:45Z</time></trkpt><trkpt lat="42.07014817598982" lon="13.245507052002752"><ele>923.0</ele><time>2026-03-29T15:01:45.999Z</time></trkpt><trkpt lat="42.070308545190535" lon="13.24542013782603"><ele>923.0</ele><time>2026-03-29T15:01:47Z</time></trkpt><trkpt lat="42.07046646150528" lon="13.245346129732486"><ele>923.0</ele><time>2026-03-29T15:01:48Z</time></trkpt><trkpt lat="42.07061224951874" lon="13.245273713764375"><ele>923.0</ele><time>2026-03-29T15:01:49Z</time></trkpt><trkpt lat="42.070754800838394" lon="13.245180126945009"><ele>921.0</ele><time>2026-03-29T15:01:50Z</time></trkpt><trkpt lat="42.07089225810202" lon="13.245033792568426"><ele>919.0</ele><time>2026-03-29T15:01:51Z</time></trkpt><trkpt lat="42.07103241014417" lon="13.244869600357987"><ele>917.0</ele><time>2026-03-29T15:01:52Z</time></trkpt><trkpt lat="42.071181287173026" lon="13.244718120982773"><ele>917.0</ele><time>2026-03-29T15:01:52.999Z</time></trkpt><trkpt lat="42.07132803235704" lon="13.24459337437757"><ele>917.0</ele><time>2026-03-29T15:01:53.999Z</time></trkpt><trkpt lat="42.071465013878374" lon="13.244479498117634"><ele>917.0</ele><time>2026-03-29T15:01:54.999Z</time></trkpt><trkpt lat="42.071596877771505" lon="13.244373475853129"><ele>909.0</ele><time>2026-03-29T15:01:55.999Z</time></trkpt><trkpt lat="42.07172240293008" lon="13.244282534225"><ele>901.0</ele><time>2026-03-29T15:01:56.999Z</time></trkpt><trkpt lat="42.07183214216545" lon="13.24420240531597"><ele>893.0</ele><time>2026-03-29T15:01:57.999Z</time></trkpt><trkpt lat="42.071932203404" lon="13.24414084606782"><ele>885.0</ele><time>2026-03-29T15:01:58.999Z</time></trkpt><trkpt lat="42.072011111600766" lon="13.244093544158597"><ele>885.0</ele><time>2026-03-29T15:01:59.999Z</time></trkpt><trkpt lat="42.07208684390391" lon="13.24404277296624"><ele>885.0</ele><time>2026-03-29T15:02:00.999Z</time></trkpt><trkpt lat="42.07215309473328" lon="13.24399958111712"><ele>885.0</ele><time>2026-03-29T15:02:01.999Z</time></trkpt><trkpt lat="42.0722251742557" lon="13.243975751214231"><ele>885.0</ele><time>2026-03-29T15:02:02.999Z</time></trkpt><trkpt lat="42.07229352496273" lon="13.243949399869999"><ele>885.0</ele><time>2026-03-29T15:02:04.999Z</time></trkpt><trkpt lat="42.07233631922179" lon="13.244018551228951"><ele>885.0</ele><time>2026-03-29T15:02:05.999Z</time></trkpt><trkpt lat="42.07233067313313" lon="13.244122219953017"><ele>885.0</ele><time>2026-03-29T15:02:06.999Z</time></trkpt><trkpt lat="42.072252616939366" lon="13.244173271404888"><ele>885.0</ele><time>2026-03-29T15:02:07.999Z</time></trkpt><trkpt lat="42.07216654062865" lon="13.24420064307717"><ele>885.0</ele><time>2026-03-29T15:02:08.999Z</time></trkpt><trkpt lat="42.07205542220537" lon="13.244267328442431"><ele>885.0</ele><time>2026-03-29T15:02:09.999Z</time></trkpt><trkpt lat="42.071939010493445" lon="13.244337190453273"><ele>885.0</ele><time>2026-03-29T15:02:10.999Z</time></trkpt><trkpt lat="42.07181126280123" lon="13.244410724412504"><ele>885.0</ele><time>2026-03-29T15:02:11.999Z</time></trkpt><trkpt lat="42.07168797974835" lon="13.244488350002227"><ele>885.0</ele><time>2026-03-29T15:02:12.999Z</time></trkpt><trkpt lat="42.071567299004535" lon="13.244580401552673"><ele>885.0</ele><time>2026-03-29T15:02:13.999Z</time></trkpt><trkpt lat="42.07272876825744" lon="13.245525685347559"><ele>868.25</ele><time>2026-03-29T15:03:14.998Z</time></trkpt><trkpt lat="42.072657586607754" lon="13.245651053103593"><ele>851.5</ele><time>2026-03-29T15:03:15.998Z</time></trkpt><trkpt lat="42.0725478733461" lon="13.245689741207126"><ele>834.75</ele><time>2026-03-29T15:03:16.998Z</time></trkpt><trkpt lat="42.072429295946215" lon="13.2457926828105"><ele>818.0</ele><time>2026-03-29T15:03:17.998Z</time></trkpt><trkpt lat="42.07230158029584" lon="13.245907974277756"><ele>818.0</ele><time>2026-03-29T15:03:18.998Z</time></trkpt><trkpt lat="42.0721440811561" lon="13.2460494724553"><ele>818.0</ele><time>2026-03-29T15:03:19.998Z</time></trkpt><trkpt lat="42.07197011333102" lon="13.246198837788235"><ele>818.0</ele><time>2026-03-29T15:03:20.998Z</time></trkpt><trkpt lat="42.07178475382839" lon="13.246339629875827"><ele>813.6666666666667</ele><time>2026-03-29T15:03:21.998Z</time></trkpt><trkpt lat="42.07160079909897" lon="13.246449975796128"><ele>809.3333333333333</ele><time>2026-03-29T15:03:22.998Z</time></trkpt><trkpt lat="42.07143267494483" lon="13.246550665160653"><ele>805.0</ele><time>2026-03-29T15:03:23.998Z</time></trkpt><trkpt lat="42.07127529238654" lon="13.2466907820022"><ele>805.0</ele><time>2026-03-29T15:03:24.998Z</time></trkpt><trkpt lat="42.0711191848529" lon="13.246838782825611"><ele>805.0</ele><time>2026-03-29T15:03:25.998Z</time></trkpt><trkpt lat="42.07098309828049" lon="13.247002634657203"><ele>805.0</ele><time>2026-03-29T15:03:26.998Z</time></trkpt><trkpt lat="42.07087202492801" lon="13.247184345025511"><ele>807.0</ele><time>2026-03-29T15:03:27.998Z</time></trkpt><trkpt lat="42.07077573805444" lon="13.247373962418719"><ele>809.0</ele><time>2026-03-29T15:03:28.998Z</time></trkpt><trkpt lat="42.07069299955562" lon="13.247591559087716"><ele>811.0</ele><time>2026-03-29T15:03:29.998Z</time></trkpt><trkpt lat="42.07062243998853" lon="13.247840717021521"><ele>811.0</ele><time>2026-03-29T15:03:30.998Z</time></trkpt><trkpt lat="42.07056746280584" lon="13.248097515661227"><ele>811.0</ele><time>2026-03-29T15:03:31.998Z</time></trkpt><trkpt lat="42.07049480263838" lon="13.248318760884263"><ele>811.0</ele><time>2026-03-29T15:03:32.998Z</time></trkpt><trkpt lat="42.070416211149336" lon="13.248505239884645"><ele>807.5999999999999</ele><time>2026-03-29T15:03:33.998Z</time></trkpt><trkpt lat="42.070344907572284" lon="13.248648846274172"><ele>804.2</ele><time>2026-03-29T15:03:34.998Z</time></trkpt><trkpt lat="42.07029063324855" lon="13.248753764657424"><ele>800.8</ele><time>2026-03-29T15:03:35.998Z</time></trkpt><trkpt lat="42.07026204751767" lon="13.248844278491744"><ele>797.4000000000001</ele><time>2026-03-29T15:03:36.998Z</time></trkpt><trkpt lat="42.070245946585516" lon="13.248995272016144"><ele>794.0</ele><time>2026-03-29T15:03:38.998Z</time></trkpt><trkpt lat="42.070327234780905" lon="13.249060023316606"><ele>794.0</ele><time>2026-03-29T15:03:39.998Z</time></trkpt><trkpt lat="42.07042119210081" lon="13.24904340662218"><ele>794.0</ele><time>2026-03-29T15:03:40.998Z</time></trkpt><trkpt lat="42.070497166367936" lon="13.248950218438932"><ele>794.0</ele><time>2026-03-29T15:03:41.998Z</time></trkpt><trkpt lat="42.07057110606049" lon="13.248804116289119"><ele>794.0</ele><time>2026-03-29T15:03:42.999Z</time></trkpt><trkpt lat="42.07066445538519" lon="13.248644057378545"><ele>794.0</ele><time>2026-03-29T15:03:43.999Z</time></trkpt><trkpt lat="42.0707691423304" lon="13.248497418568133"><ele>794.0</ele><time>2026-03-29T15:03:44.999Z</time></trkpt><trkpt lat="42.07087886946044" lon="13.248359726404754"><ele>794.0</ele><time>2026-03-29T15:03:45.999Z</time></trkpt><trkpt lat="42.070984107523785" lon="13.248242364652784"><ele>794.0</ele><time>2026-03-29T15:03:46.999Z</time></trkpt><trkpt lat="42.07109505377635" lon="13.248142061971983"><ele>791.0</ele><time>2026-03-29T15:03:47.999Z</time></trkpt><trkpt lat="42.07122606072493" lon="13.248056742785414"><ele>788.0</ele><time>2026-03-29T15:03:48.999Z</time></trkpt><trkpt lat="42.07138585161358" lon="13.247996545951993"><ele>785.0</ele><time>2026-03-29T15:03:49.999Z</time></trkpt><trkpt lat="42.071574504057835" lon="13.247946348483662"><ele>781.3333333333334</ele><time>2026-03-29T15:03:50.999Z</time></trkpt><trkpt lat="42.071747810447995" lon="13.247895974997226"><ele>777.6666666666667</ele><time>2026-03-29T15:03:51.999Z</time></trkpt><trkpt lat="42.071906293616024" lon="13.247842416581436"><ele>774.0</ele><time>2026-03-29T15:03:53Z</time></trkpt><trkpt lat="42.072053024175375" lon="13.247783876157785"><ele>774.0</ele><time>2026-03-29T15:03:53.999Z</time></trkpt><trkpt lat="42.07220590518604" lon="13.247701273913183"><ele>774.0</ele><time>2026-03-29T15:03:55Z</time></trkpt><trkpt lat="42.07236129864852" lon="13.247594105575725"><ele>774.0</ele><time>2026-03-29T15:03:56Z</time></trkpt><trkpt lat="42.07249941937411" lon="13.247482407228844"><ele>774.5</ele><time>2026-03-29T15:03:56.999Z</time></trkpt><trkpt lat="42.072624583578275" lon="13.247393785357167"><ele>775.0</ele><time>2026-03-29T15:03:57.999Z</time></trkpt><trkpt lat="42.07274101341092" lon="13.247320696276107"><ele>775.5</ele><time>2026-03-29T15:03:58.999Z</time></trkpt><trkpt lat="42.072842194353846" lon="13.247255500248844"><ele>776.0</ele><time>2026-03-29T15:03:59.999Z</time></trkpt><trkpt lat="42.07292245598791" lon="13.247193649101987"><ele>776.0</ele><time>2026-03-29T15:04:00.999Z</time></trkpt><trkpt lat="42.07298250040984" lon="13.247134841151649"><ele>776.0</ele><time>2026-03-29T15:04:01.999Z</time></trkpt><trkpt lat="42.07306070628307" lon="13.247048496415298"><ele>776.0</ele><time>2026-03-29T15:04:03.999Z</time></trkpt><trkpt lat="42.07524288157795" lon="13.243475042114513"><ele>784.6666666666667</ele><time>2026-03-29T15:06:15Z</time></trkpt><trkpt lat="42.07531002319292" lon="13.243275374175012"><ele>793.3333333333333</ele><time>2026-03-29T15:06:16Z</time></trkpt><trkpt lat="42.07542793138453" lon="13.243138240024878"><ele>802.0</ele><time>2026-03-29T15:06:17Z</time></trkpt><trkpt lat="42.07558780989186" lon="13.242971082439608"><ele>798.6666666666666</ele><time>2026-03-29T15:06:18Z</time></trkpt><trkpt lat="42.075782167564824" lon="13.242821817479465"><ele>795.3333333333333</ele><time>2026-03-29T15:06:19Z</time></trkpt><trkpt lat="42.07593090886296" lon="13.24267940692699"><ele>792.0</ele><time>2026-03-29T15:06:20Z</time></trkpt><trkpt lat="42.076042189716645" lon="13.242545910640922"><ele>792.0</ele><time>2026-03-29T15:06:21Z</time></trkpt><trkpt lat="42.07612990683723" lon="13.242373693208988"><ele>792.0</ele><time>2026-03-29T15:06:22Z</time></trkpt><trkpt lat="42.076199086914286" lon="13.242190586440337"><ele>792.0</ele><time>2026-03-29T15:06:23Z</time></trkpt><trkpt lat="42.076303641492146" lon="13.242057860706572"><ele>790.5</ele><time>2026-03-29T15:06:24Z</time></trkpt><trkpt lat="42.07644065210882" lon="13.241959838322833"><ele>789.0</ele><time>2026-03-29T15:06:25Z</time></trkpt><trkpt lat="42.07656533801598" lon="13.241864946737268"><ele>787.5</ele><time>2026-03-29T15:06:26Z</time></trkpt><trkpt lat="42.07666428893821" lon="13.24173550751777"><ele>786.0</ele><time>2026-03-29T15:06:27Z</time></trkpt><trkpt lat="42.07673662269306" lon="13.24155168833815"><ele>791.0</ele><time>2026-03-29T15:06:28Z</time></trkpt><trkpt lat="42.0767810317998" lon="13.241360339257277"><ele>796.0</ele><time>2026-03-29T15:06:29Z</time></trkpt><trkpt lat="42.07680482344704" lon="13.241240722543132"><ele>801.0</ele><time>2026-03-29T15:06:30Z</time></trkpt><trkpt lat="42.07681657094502" lon="13.241139907359488"><ele>806.0</ele><time>2026-03-29T15:06:31Z</time></trkpt><trkpt lat="42.07684442810669" lon="13.241023205052525"><ele>811.0</ele><time>2026-03-29T15:06:32Z</time></trkpt><trkpt lat="42.076900470123455" lon="13.240915575722052"><ele>811.0</ele><time>2026-03-29T15:06:33Z</time></trkpt><trkpt lat="42.076992423713115" lon="13.240842851244157"><ele>811.0</ele><time>2026-03-29T15:06:34Z</time></trkpt><trkpt lat="42.07709868949499" lon="13.240786421222028"><ele>811.0</ele><time>2026-03-29T15:06:35Z</time></trkpt><trkpt lat="42.07719394639776" lon="13.240700896467697"><ele>811.0</ele><time>2026-03-29T15:06:36Z</time></trkpt><trkpt lat="42.07727075503795" lon="13.240549029745749"><ele>807.0</ele><time>2026-03-29T15:06:37Z</time></trkpt><trkpt lat="42.0773516199906" lon="13.24035031885573"><ele>803.0</ele><time>2026-03-29T15:06:38Z</time></trkpt><trkpt lat="42.07741280582398" lon="13.24018898813803"><ele>799.0</ele><time>2026-03-29T15:06:39Z</time></trkpt><trkpt lat="42.07745271369969" lon="13.240064646423484"><ele>795.0</ele><time>2026-03-29T15:06:40Z</time></trkpt><trkpt lat="42.07746232284195" lon="13.239974596589049"><ele>800.6666666666666</ele><time>2026-03-29T15:06:41Z</time></trkpt><trkpt lat="42.077430397855544" lon="13.239823860349663"><ele>806.3333333333333</ele><time>2026-03-29T15:06:42.999Z</time></trkpt><trkpt lat="42.077406451974674" lon="13.239730983028025"><ele>812.0</ele><time>2026-03-29T15:06:43.999Z</time></trkpt><trkpt lat="42.077389181413885" lon="13.239641132441367"><ele>817.6666666666666</ele><time>2026-03-29T15:06:45.999Z</time></trkpt><trkpt lat="42.077411825638386" lon="13.239749821717243"><ele>823.3333333333333</ele><time>2026-03-29T15:06:49.999Z</time></trkpt><trkpt lat="42.07740472109376" lon="13.239852991078711"><ele>829.0</ele><time>2026-03-29T15:06:50.999Z</time></trkpt><trkpt lat="42.07742293373389" lon="13.239952543681149"><ele>829.0</ele><time>2026-03-29T15:06:51.999Z</time></trkpt><trkpt lat="42.07742196462398" lon="13.240069787383808"><ele>829.0</ele><time>2026-03-29T15:06:52.999Z</time></trkpt><trkpt lat="42.077423850899166" lon="13.240180061510127"><ele>829.0</ele><time>2026-03-29T15:06:53.999Z</time></trkpt><trkpt lat="42.07738447728825" lon="13.240284435201126"><ele>829.0</ele><time>2026-03-29T15:06:54.999Z</time></trkpt><trkpt lat="42.07733402087274" lon="13.24039480799253"><ele>829.0</ele><time>2026-03-29T15:06:55.999Z</time></trkpt><trkpt lat="42.077271038182566" lon="13.240529219355214"><ele>824.5</ele><time>2026-03-29T15:06:56.999Z</time></trkpt><trkpt lat="42.077205763735364" lon="13.240670080686694"><ele>820.0</ele><time>2026-03-29T15:06:57.999Z</time></trkpt><trkpt lat="42.077114254463226" lon="13.240789249369753"><ele>815.5</ele><time>2026-03-29T15:06:58.999Z</time></trkpt><trkpt lat="42.076961288530306" lon="13.240797510941592"><ele>811.0</ele><time>2026-03-29T15:06:59.999Z</time></trkpt><trkpt lat="42.07687051993029" lon="13.240891841427826"><ele>811.0</ele><time>2026-03-29T15:07:00.999Z</time></trkpt><trkpt lat="42.076801036858456" lon="13.241027406741706"><ele>811.0</ele><time>2026-03-29T15:07:01.999Z</time></trkpt><trkpt lat="42.076761749993715" lon="13.241208668981752"><ele>811.0</ele><time>2026-03-29T15:07:02.999Z</time></trkpt><trkpt lat="42.0767382873872" lon="13.241404222944691"><ele>811.0</ele><time>2026-03-29T15:07:03.999Z</time></trkpt><trkpt lat="42.07670865763915" lon="13.24156891650899"><ele>812.25</ele><time>2026-03-29T15:07:04.999Z</time></trkpt><trkpt lat="42.076648038788214" lon="13.2417051171209"><ele>813.5</ele><time>2026-03-29T15:07:05.999Z</time></trkpt><trkpt lat="42.0765666868974" lon="13.24181428946201"><ele>814.75</ele><time>2026-03-29T15:07:06.999Z</time></trkpt><trkpt lat="42.076461961953484" lon="13.241892658345447"><ele>816.0</ele><time>2026-03-29T15:07:07.999Z</time></trkpt><trkpt lat="42.0763358260688" lon="13.241977253912136"><ele>816.0</ele><time>2026-03-29T15:07:08.999Z</time></trkpt><trkpt lat="42.07621135829275" lon="13.242082249237034"><ele>816.0</ele><time>2026-03-29T15:07:09.999Z</time></trkpt><trkpt lat="42.076135369483175" lon="13.242231467881236"><ele>816.0</ele><time>2026-03-29T15:07:10.999Z</time></trkpt><trkpt lat="42.076085457223286" lon="13.242388619537774"><ele>816.0</ele><time>2026-03-29T15:07:11.999Z</time></trkpt><trkpt lat="42.07601514314499" lon="13.24253315290752"><ele>804.0</ele><time>2026-03-29T15:07:12.999Z</time></trkpt><trkpt lat="42.07590074204305" lon="13.242631330928326"><ele>792.0</ele><time>2026-03-29T15:07:13.999Z</time></trkpt><trkpt lat="42.07313213115004" lon="13.247013261661323"><ele>789.3333333333334</ele><time>2026-03-29T15:08:15Z</time></trkpt><trkpt lat="42.0731013827362" lon="13.247101447682164"><ele>786.6666666666667</ele><time>2026-03-29T15:08:17Z</time></trkpt><trkpt lat="42.07305796142121" lon="13.247169782498316"><ele>784.0</ele><time>2026-03-29T15:08:18Z</time></trkpt><trkpt lat="42.0729908866125" lon="13.247262207138698"><ele>781.3333333333334</ele><time>2026-03-29T15:08:19Z</time></trkpt><trkpt lat="42.07291866539595" lon="13.247355808304489"><ele>778.6666666666667</ele><time>2026-03-29T15:08:20Z</time></trkpt><trkpt lat="42.07283837116104" lon="13.247456745411682"><ele>776.0</ele><time>2026-03-29T15:08:21Z</time></trkpt><trkpt lat="42.07276136928791" lon="13.247559538262367"><ele>772.5</ele><time>2026-03-29T15:08:22Z</time></trkpt><trkpt lat="42.072688885933246" lon="13.247670925551361"><ele>769.0</ele><time>2026-03-29T15:08:23Z</time></trkpt><trkpt lat="42.07260650070336" lon="13.247775349222236"><ele>765.5</ele><time>2026-03-29T15:08:24Z</time></trkpt><trkpt lat="42.07254814383939" lon="13.247904689043171"><ele>762.0</ele><time>2026-03-29T15:08:25Z</time></trkpt><trkpt lat="42.072476021424954" lon="13.248030156207957"><ele>762.25</ele><time>2026-03-29T15:08:26Z</time></trkpt><trkpt lat="42.07240114593267" lon="13.248164397800357"><ele>762.5</ele><time>2026-03-29T15:08:27Z</time></trkpt><trkpt lat="42.072320500985086" lon="13.24829953696125"><ele>762.75</ele><time>2026-03-29T15:08:28Z</time></trkpt><trkpt lat="42.07223489141387" lon="13.248437209846877"><ele>763.0</ele><time>2026-03-29T15:08:29Z</time></trkpt><trkpt lat="42.07215228006888" lon="13.248575437668213"><ele>763.0</ele><time>2026-03-29T15:08:30Z</time></trkpt><trkpt lat="42.07207320506682" lon="13.248716300965356"><ele>763.0</ele><time>2026-03-29T15:08:31Z</time></trkpt><trkpt lat="42.07200029526838" lon="13.248841826063243"><ele>763.0</ele><time>2026-03-29T15:08:32Z</time></trkpt><trkpt lat="42.07193367765431" lon="13.248961601084869"><ele>763.0</ele><time>2026-03-29T15:08:33Z</time></trkpt><trkpt lat="42.071875569623835" lon="13.249073903298479"><ele>761.4</ele><time>2026-03-29T15:08:34Z</time></trkpt><trkpt lat="42.0718245702811" lon="13.24918611919875"><ele>759.8</ele><time>2026-03-29T15:08:35Z</time></trkpt><trkpt lat="42.07177986002609" lon="13.249301158105661"><ele>758.2</ele><time>2026-03-29T15:08:36Z</time></trkpt><trkpt lat="42.071735255926995" lon="13.24943648595585"><ele>756.6</ele><time>2026-03-29T15:08:37Z</time></trkpt><trkpt lat="42.07169753666402" lon="13.24957983848118"><ele>755.0</ele><time>2026-03-29T15:08:38Z</time></trkpt><trkpt lat="42.07166141048766" lon="13.249721581112134"><ele>754.0</ele><time>2026-03-29T15:08:39Z</time></trkpt><trkpt lat="42.07162745877675" lon="13.24986136806801"><ele>753.0</ele><time>2026-03-29T15:08:40Z</time></trkpt><trkpt lat="42.071593502695656" lon="13.249988096923788"><ele>752.0</ele><time>2026-03-29T15:08:41Z</time></trkpt><trkpt lat="42.07156071067419" lon="13.250112692404512"><ele>751.0</ele><time>2026-03-29T15:08:42Z</time></trkpt><trkpt lat="42.07152068024259" lon="13.25024286391168"><ele>750.0</ele><time>2026-03-29T15:08:43Z</time></trkpt><trkpt lat="42.07147206888512" lon="13.250376339902617"><ele>750.25</ele><time>2026-03-29T15:08:44Z</time></trkpt><trkpt lat="42.071398850394246" lon="13.250480499488647"><ele>750.5</ele><time>2026-03-29T15:08:45Z</time></trkpt><trkpt lat="42.07133297875957" lon="13.250603704738882"><ele>750.75</ele><time>2026-03-29T15:08:46Z</time></trkpt><trkpt lat="42.0712732568891" lon="13.250744398620474"><ele>751.0</ele><time>2026-03-29T15:08:47Z</time></trkpt><trkpt lat="42.071194645596385" lon="13.250862265868834"><ele>751.0</ele><time>2026-03-29T15:08:48Z</time></trkpt><trkpt lat="42.071125677683035" lon="13.250963426822647"><ele>751.0</ele><time>2026-03-29T15:08:49Z</time></trkpt><trkpt lat="42.07106551049086" lon="13.25104189045638"><ele>751.0</ele><time>2026-03-29T15:08:50Z</time></trkpt><trkpt lat="42.07100933560149" lon="13.251117645349499"><ele>751.0</ele><time>2026-03-29T15:08:52Z</time></trkpt><trkpt lat="42.07094122432414" lon="13.251182094230055"><ele>751.0</ele><time>2026-03-29T15:08:56Z</time></trkpt><trkpt lat="42.07102628434678" lon="13.25132734677141"><ele>751.0</ele><time>2026-03-29T15:08:58Z</time></trkpt><trkpt lat="42.071084041883864" lon="13.251367195030669"><ele>751.0</ele><time>2026-03-29T15:08:59Z</time></trkpt><trkpt lat="42.07114578809998" lon="13.251407372823422"><ele>751.0</ele><time>2026-03-29T15:09:00Z</time></trkpt><trkpt lat="42.07121885191575" lon="13.251459455481145"><ele>751.0</ele><time>2026-03-29T15:09:01Z</time></trkpt><trkpt lat="42.07129755164899" lon="13.251514119113402"><ele>751.0</ele><time>2026-03-29T15:09:02Z</time></trkpt><trkpt lat="42.07138127000309" lon="13.251573412286815"><ele>751.0</ele><time>2026-03-29T15:09:03Z</time></trkpt><trkpt lat="42.07147114985278" lon="13.251639821134368"><ele>749.4</ele><time>2026-03-29T15:09:04Z</time></trkpt><trkpt lat="42.071553800576105" lon="13.251706852163453"><ele>747.8</ele><time>2026-03-29T15:09:05Z</time></trkpt><trkpt lat="42.071634334525804" lon="13.25176557236798"><ele>746.1999999999999</ele><time>2026-03-29T15:09:06Z</time></trkpt><trkpt lat="42.07171658886549" lon="13.251828725120752"><ele>744.5999999999999</ele><time>2026-03-29T15:09:07Z</time></trkpt><trkpt lat="42.07179464845085" lon="13.25188551066669"><ele>743.0</ele><time>2026-03-29T15:09:07.999Z</time></trkpt><trkpt lat="42.07186538083145" lon="13.251942352698503"><ele>742.5</ele><time>2026-03-29T15:09:08.999Z</time></trkpt><trkpt lat="42.071932435508735" lon="13.251992704277724"><ele>742.0</ele><time>2026-03-29T15:09:09.999Z</time></trkpt><trkpt lat="42.07200027472372" lon="13.252048541588051"><ele>741.5</ele><time>2026-03-29T15:09:10.999Z</time></trkpt><trkpt lat="42.07207482571039" lon="13.252106180326711"><ele>741.0</ele><time>2026-03-29T15:09:11.999Z</time></trkpt><trkpt lat="42.072145955323485" lon="13.252164232924128"><ele>740.5</ele><time>2026-03-29T15:09:12.999Z</time></trkpt><trkpt lat="42.072206492847236" lon="13.252216492412948"><ele>740.0</ele><time>2026-03-29T15:09:13.999Z</time></trkpt><trkpt lat="42.0794537551923" lon="13.242518487660845"><ele>746.5</ele><time>2026-03-29T15:10:15Z</time></trkpt><trkpt lat="42.07962691789387" lon="13.242281701158394"><ele>753.0</ele><time>2026-03-29T15:10:16Z</time></trkpt><trkpt lat="42.079795557655466" lon="13.242055242916623"><ele>757.0</ele><time>2026-03-29T15:10:17Z</time></trkpt><trkpt lat="42.07996235216285" lon="13.241836943669218"><ele>761.0</ele><time>2026-03-29T15:10:18Z</time></trkpt><trkpt lat="42.080129427902136" lon="13.241621361859726"><ele>759.0</ele><time>2026-03-29T15:10:19Z</time></trkpt><trkpt lat="42.080291427509366" lon="13.241401007862697"><ele>757.0</ele><time>2026-03-29T15:10:20Z</time></trkpt><trkpt lat="42.08044562686634" lon="13.241170987422874"><ele>757.0</ele><time>2026-03-29T15:10:21Z</time></trkpt><trkpt lat="42.08061819253936" lon="13.240962253592572"><ele>757.0</ele><time>2026-03-29T15:10:22Z</time></trkpt><trkpt lat="42.08078268109278" lon="13.240732916108605"><ele>762.5</ele><time>2026-03-29T15:10:23Z</time></trkpt><trkpt lat="42.08084022435269" lon="13.240351691980571"><ele>768.0</ele><time>2026-03-29T15:10:24Z</time></trkpt><trkpt lat="42.08097845826103" lon="13.240075182187342"><ele>768.0</ele><time>2026-03-29T15:10:25Z</time></trkpt><trkpt lat="42.081106739572085" lon="13.239832014508162"><ele>768.0</ele><time>2026-03-29T15:10:26Z</time></trkpt><trkpt lat="42.0812217417864" lon="13.239600115413014"><ele>768.0</ele><time>2026-03-29T15:10:27Z</time></trkpt><trkpt lat="42.0813131556432" lon="13.23934782216821"><ele>767.6666666666666</ele><time>2026-03-29T15:10:28Z</time></trkpt><trkpt lat="42.08136843768347" lon="13.239074142823792"><ele>767.3333333333333</ele><time>2026-03-29T15:10:29Z</time></trkpt><trkpt lat="42.081390657130186" lon="13.238788720260366"><ele>767.0</ele><time>2026-03-29T15:10:30Z</time></trkpt><trkpt lat="42.08137960356188" lon="13.238497215084253"><ele>768.3333333333333</ele><time>2026-03-29T15:10:31Z</time></trkpt><trkpt lat="42.08132781342551" lon="13.238205272671875"><ele>769.6666666666666</ele><time>2026-03-29T15:10:32Z</time></trkpt><trkpt lat="42.081256538138966" lon="13.237915985254885"><ele>771.0</ele><time>2026-03-29T15:10:33Z</time></trkpt><trkpt lat="42.081195696351244" lon="13.237644967970036"><ele>774.0</ele><time>2026-03-29T15:10:34Z</time></trkpt><trkpt lat="42.081147679029705" lon="13.237406139855063"><ele>777.0</ele><time>2026-03-29T15:10:35Z</time></trkpt><trkpt lat="42.081113584135" lon="13.237186753635308"><ele>780.0</ele><time>2026-03-29T15:10:36Z</time></trkpt><trkpt lat="42.08109738540287" lon="13.236951920489757"><ele>781.0</ele><time>2026-03-29T15:10:37Z</time></trkpt><trkpt lat="42.08111317038511" lon="13.236705984900452"><ele>782.0</ele><time>2026-03-29T15:10:38Z</time></trkpt><trkpt lat="42.081169047770324" lon="13.236454830578046"><ele>783.0</ele><time>2026-03-29T15:10:39Z</time></trkpt><trkpt lat="42.08125967751691" lon="13.236202586825438"><ele>783.6666666666667</ele><time>2026-03-29T15:10:40Z</time></trkpt><trkpt lat="42.0813839397782" lon="13.235966647440724"><ele>784.3333333333334</ele><time>2026-03-29T15:10:41Z</time></trkpt><trkpt lat="42.08152912748082" lon="13.2357454202035"><ele>785.0</ele><time>2026-03-29T15:10:42Z</time></trkpt><trkpt lat="42.08168767290908" lon="13.235523555407157"><ele>788.5</ele><time>2026-03-29T15:10:43Z</time></trkpt><trkpt lat="42.08184608651296" lon="13.235294968800476"><ele>792.0</ele><time>2026-03-29T15:10:44Z</time></trkpt><trkpt lat="42.08199813706563" lon="13.23506823802821"><ele>792.0</ele><time>2026-03-29T15:10:45Z</time></trkpt><trkpt lat="42.08214727442386" lon="13.234844778632409"><ele>792.0</ele><time>2026-03-29T15:10:46Z</time></trkpt><trkpt lat="42.08229393346632" lon="13.234622097900106"><ele>792.0</ele><time>2026-03-29T15:10:47Z</time></trkpt><trkpt lat="42.08243916854783" lon="13.234405035857277"><ele>792.6666666666667</ele><time>2026-03-29T15:10:48Z</time></trkpt><trkpt lat="42.082582156046186" lon="13.234196159985705"><ele>793.3333333333334</ele><time>2026-03-29T15:10:49Z</time></trkpt><trkpt lat="42.08271714226325" lon="13.233994848250372"><ele>794.0</ele><time>2026-03-29T15:10:50Z</time></trkpt><trkpt lat="42.08283983690624" lon="13.233808915525955"><ele>797.6666666666667</ele><time>2026-03-29T15:10:51Z</time></trkpt><trkpt lat="42.082948795915485" lon="13.233622817549547"><ele>801.3333333333333</ele><time>2026-03-29T15:10:52Z</time></trkpt><trkpt lat="42.083043423115036" lon="13.23341817577185"><ele>805.0</ele><time>2026-03-29T15:10:53Z</time></trkpt><trkpt lat="42.0831179103093" lon="13.233189320474937"><ele>807.6666666666666</ele><time>2026-03-29T15:10:54Z</time></trkpt><trkpt lat="42.083169395516855" lon="13.232946809645016"><ele>810.3333333333333</ele><time>2026-03-29T15:10:55Z</time></trkpt><trkpt lat="42.08320533917337" lon="13.23269773029476"><ele>813.0</ele><time>2026-03-29T15:10:56Z</time></trkpt><trkpt lat="42.083235902352925" lon="13.23243313795064"><ele>808.3333333333333</ele><time>2026-03-29T15:10:57Z</time></trkpt><trkpt lat="42.08326561118978" lon="13.232164034403814"><ele>803.6666666666666</ele><time>2026-03-29T15:10:58Z</time></trkpt><trkpt lat="42.08330106465294" lon="13.231897998761552"><ele>799.0</ele><time>2026-03-29T15:10:59Z</time></trkpt><trkpt lat="42.08333589837101" lon="13.231635619031632"><ele>799.0</ele><time>2026-03-29T15:11:00Z</time></trkpt><trkpt lat="42.083369525519586" lon="13.231377878377796"><ele>799.0</ele><time>2026-03-29T15:11:01Z</time></trkpt><trkpt lat="42.083402943876486" lon="13.231111879147564"><ele>799.0</ele><time>2026-03-29T15:11:02Z</time></trkpt><trkpt lat="42.08343913042219" lon="13.230841673999057"><ele>799.0</ele><time>2026-03-29T15:11:03Z</time></trkpt><trkpt lat="42.083485641325616" lon="13.230567430591684"><ele>799.0</ele><time>2026-03-29T15:11:04Z</time></trkpt><trkpt lat="42.083551128945906" lon="13.230292965430852"><ele>799.0</ele><time>2026-03-29T15:11:05Z</time></trkpt><trkpt lat="42.08363974536751" lon="13.230015819479329"><ele>804.0</ele><time>2026-03-29T15:11:06Z</time></trkpt><trkpt lat="42.083740151714316" lon="13.229726572467456"><ele>809.0</ele><time>2026-03-29T15:11:07Z</time></trkpt><trkpt lat="42.083840346273305" lon="13.22942905025239"><ele>809.0</ele><time>2026-03-29T15:11:08Z</time></trkpt><trkpt lat="42.08393809085425" lon="13.229130152691468"><ele>809.0</ele><time>2026-03-29T15:11:09Z</time></trkpt><trkpt lat="42.08403858439004" lon="13.228826930511078"><ele>805.0</ele><time>2026-03-29T15:11:10Z</time></trkpt><trkpt lat="42.08414159395082" lon="13.22851792681747"><ele>801.0</ele><time>2026-03-29T15:11:11Z</time></trkpt><trkpt lat="42.08424225572503" lon="13.228213151567731"><ele>801.0</ele><time>2026-03-29T15:11:12Z</time></trkpt><trkpt lat="42.08433553706561" lon="13.227927645678678"><ele>801.0</ele><time>2026-03-29T15:11:13Z</time></trkpt><trkpt lat="42.08442600401944" lon="13.22764908633143"><ele>833.0</ele><time>2026-03-29T15:11:13.999Z</time></trkpt><trkpt lat="42.088406756702554" lon="13.21208921863951"><ele>833.0</ele><time>2026-03-29T15:12:15.001Z</time></trkpt><trkpt lat="42.088383893126064" lon="13.211842916523644"><ele>833.0</ele><time>2026-03-29T15:12:16.001Z</time></trkpt><trkpt lat="42.08834256217308" lon="13.211599896698047"><ele>833.0</ele><time>2026-03-29T15:12:17Z</time></trkpt><trkpt lat="42.08828558278149" lon="13.211364602955037"><ele>834.6666666666667</ele><time>2026-03-29T15:12:18.001Z</time></trkpt><trkpt lat="42.08817481404255" lon="13.211149807353717"><ele>836.3333333333333</ele><time>2026-03-29T15:12:19.001Z</time></trkpt><trkpt lat="42.088029030668295" lon="13.21097101046061"><ele>838.0</ele><time>2026-03-29T15:12:20Z</time></trkpt><trkpt lat="42.087858297543654" lon="13.210821917877096"><ele>838.0</ele><time>2026-03-29T15:12:21Z</time></trkpt><trkpt lat="42.08767309022722" lon="13.210702094135625"><ele>838.0</ele><time>2026-03-29T15:12:22Z</time></trkpt><trkpt lat="42.08750631213065" lon="13.210546100016629"><ele>838.0</ele><time>2026-03-29T15:12:23Z</time></trkpt><trkpt lat="42.087335769923556" lon="13.21042466224392"><ele>838.3333333333333</ele><time>2026-03-29T15:12:24Z</time></trkpt><trkpt lat="42.08718814213858" lon="13.210252301791407"><ele>838.6666666666667</ele><time>2026-03-29T15:12:25Z</time></trkpt><trkpt lat="42.08709019631376" lon="13.21004232663396"><ele>839.0</ele><time>2026-03-29T15:12:26Z</time></trkpt><trkpt lat="42.08700608128245" lon="13.209818219451444"><ele>842.0</ele><time>2026-03-29T15:12:27Z</time></trkpt><trkpt lat="42.0869665036073" lon="13.209563170159319"><ele>845.0</ele><time>2026-03-29T15:12:28Z</time></trkpt><trkpt lat="42.08696663465883" lon="13.209295970082884"><ele>848.0</ele><time>2026-03-29T15:12:29Z</time></trkpt><trkpt lat="42.0869879635161" lon="13.208998936901462"><ele>850.3333333333334</ele><time>2026-03-29T15:12:30Z</time></trkpt><trkpt lat="42.087006992964824" lon="13.208710293012667"><ele>852.6666666666667</ele><time>2026-03-29T15:12:31Z</time></trkpt><trkpt lat="42.08702540195661" lon="13.208452102934658"><ele>855.0</ele><time>2026-03-29T15:12:32Z</time></trkpt><trkpt lat="42.08706644713308" lon="13.20821962712681"><ele>855.6666666666667</ele><time>2026-03-29T15:12:33Z</time></trkpt><trkpt lat="42.08713601169469" lon="13.20799520046343"><ele>856.3333333333334</ele><time>2026-03-29T15:12:34Z</time></trkpt><trkpt lat="42.087248135338605" lon="13.20778344216206"><ele>857.0</ele><time>2026-03-29T15:12:35Z</time></trkpt><trkpt lat="42.087399156783704" lon="13.207611533022066"><ele>857.0</ele><time>2026-03-29T15:12:36Z</time></trkpt><trkpt lat="42.08757288732806" lon="13.207462266793945"><ele>857.0</ele><time>2026-03-29T15:12:37Z</time></trkpt><trkpt lat="42.087764772774925" lon="13.207304245646615"><ele>857.0</ele><time>2026-03-29T15:12:38Z</time></trkpt><trkpt lat="42.08794442650378" lon="13.207130875022216"><ele>857.0</ele><time>2026-03-29T15:12:39Z</time></trkpt><trkpt lat="42.088139635024625" lon="13.206970786560852"><ele>857.0</ele><time>2026-03-29T15:12:40Z</time></trkpt><trkpt lat="42.088329102146055" lon="13.206819266126095"><ele>857.0</ele><time>2026-03-29T15:12:41Z</time></trkpt><trkpt lat="42.08852827677409" lon="13.206660587757135"><ele>856.5</ele><time>2026-03-29T15:12:42Z</time></trkpt><trkpt lat="42.088727223240845" lon="13.206495370151961"><ele>856.0</ele><time>2026-03-29T15:12:43Z</time></trkpt><trkpt lat="42.088935644180694" lon="13.20632113332133"><ele>859.5</ele><time>2026-03-29T15:12:44Z</time></trkpt><trkpt lat="42.08913399394046" lon="13.2061588667792"><ele>863.0</ele><time>2026-03-29T15:12:45Z</time></trkpt><trkpt lat="42.089332610932686" lon="13.206002825407614"><ele>863.0</ele><time>2026-03-29T15:12:46Z</time></trkpt><trkpt lat="42.089528899555454" lon="13.205846353695362"><ele>863.0</ele><time>2026-03-29T15:12:47Z</time></trkpt><trkpt lat="42.08972667068697" lon="13.20568393642208"><ele>866.0</ele><time>2026-03-29T15:12:48Z</time></trkpt><trkpt lat="42.08992247264903" lon="13.2055196367408"><ele>869.0</ele><time>2026-03-29T15:12:49Z</time></trkpt><trkpt lat="42.09011415051983" lon="13.20535786164125"><ele>869.0</ele><time>2026-03-29T15:12:50Z</time></trkpt><trkpt lat="42.09029714174918" lon="13.205201812341242"><ele>869.0</ele><time>2026-03-29T15:12:51Z</time></trkpt><trkpt lat="42.090473034033174" lon="13.205046670084222"><ele>869.0</ele><time>2026-03-29T15:12:52Z</time></trkpt><trkpt lat="42.09064573135353" lon="13.204877250570998"><ele>872.0</ele><time>2026-03-29T15:12:53Z</time></trkpt><trkpt lat="42.09081712580933" lon="13.204676221565668"><ele>875.0</ele><time>2026-03-29T15:12:54Z</time></trkpt><trkpt lat="42.09099587933167" lon="13.204460819058072"><ele>875.0</ele><time>2026-03-29T15:12:55Z</time></trkpt><trkpt lat="42.091187774574415" lon="13.20422462441715"><ele>875.0</ele><time>2026-03-29T15:12:56Z</time></trkpt><trkpt lat="42.091403594032776" lon="13.203994986145313"><ele>874.0</ele><time>2026-03-29T15:12:57Z</time></trkpt><trkpt lat="42.091618859672515" lon="13.203735748427206"><ele>873.0</ele><time>2026-03-29T15:12:58Z</time></trkpt><trkpt lat="42.09181593135044" lon="13.20347396809505"><ele>873.0</ele><time>2026-03-29T15:12:59Z</time></trkpt><trkpt lat="42.09198926410363" lon="13.203273973967123"><ele>873.0</ele><time>2026-03-29T15:13:00Z</time></trkpt><trkpt lat="42.09213887582365" lon="13.203106484883792"><ele>873.0</ele><time>2026-03-29T15:13:01Z</time></trkpt><trkpt lat="42.092272904407125" lon="13.202953000629277"><ele>876.0</ele><time>2026-03-29T15:13:02Z</time></trkpt><trkpt lat="42.092411282722544" lon="13.202811133812544"><ele>879.0</ele><time>2026-03-29T15:13:03Z</time></trkpt><trkpt lat="42.092572705714566" lon="13.202709474587177"><ele>882.0</ele><time>2026-03-29T15:13:04Z</time></trkpt><trkpt lat="42.09274286857836" lon="13.202613897935366"><ele>882.0</ele><time>2026-03-29T15:13:05Z</time></trkpt><trkpt lat="42.092922438975855" lon="13.202543273190024"><ele>882.0</ele><time>2026-03-29T15:13:06Z</time></trkpt><trkpt lat="42.09311070596069" lon="13.202506826587591"><ele>882.0</ele><time>2026-03-29T15:13:07Z</time></trkpt><trkpt lat="42.093302469751166" lon="13.202500017991692"><ele>882.0</ele><time>2026-03-29T15:13:08Z</time></trkpt><trkpt lat="42.093497426548346" lon="13.202502038995778"><ele>882.0</ele><time>2026-03-29T15:13:09Z</time></trkpt><trkpt lat="42.09369673445287" lon="13.202588575661515"><ele>882.0</ele><time>2026-03-29T15:13:10Z</time></trkpt><trkpt lat="42.09390976639047" lon="13.202685636620068"><ele>884.5</ele><time>2026-03-29T15:13:11Z</time></trkpt><trkpt lat="42.09414344807163" lon="13.202798356756045"><ele>887.0</ele><time>2026-03-29T15:13:12Z</time></trkpt><trkpt lat="42.09439421371862" lon="13.20290226990603"><ele>887.0</ele><time>2026-03-29T15:13:13Z</time></trkpt><trkpt lat="42.09464523627483" lon="13.203039160602607"><ele>887.0</ele><time>2026-03-29T15:13:14Z</time></trkpt><trkpt lat="42.10679954161859" lon="13.197296230410966"><ele>920.5</ele><time>2026-03-29T15:14:15Z</time></trkpt><trkpt lat="42.10703083840405" lon="13.197214562235997"><ele>954.0</ele><time>2026-03-29T15:14:16Z</time></trkpt><trkpt lat="42.107281569103016" lon="13.197138114166917"><ele>959.5</ele><time>2026-03-29T15:14:17Z</time></trkpt><trkpt lat="42.107543659376276" lon="13.197080599442756"><ele>965.0</ele><time>2026-03-29T15:14:18Z</time></trkpt><trkpt lat="42.10778975184138" lon="13.197042657039292"><ele>965.0</ele><time>2026-03-29T15:14:19Z</time></trkpt><trkpt lat="42.10801389339423" lon="13.197004072488777"><ele>965.0</ele><time>2026-03-29T15:14:20Z</time></trkpt><trkpt lat="42.1082651606504" lon="13.196948082968934"><ele>962.0</ele><time>2026-03-29T15:14:21Z</time></trkpt><trkpt lat="42.10848891545298" lon="13.196884471348785"><ele>959.0</ele><time>2026-03-29T15:14:22Z</time></trkpt><trkpt lat="42.10868639509504" lon="13.196847094691744"><ele>956.0</ele><time>2026-03-29T15:14:23Z</time></trkpt><trkpt lat="42.10888046798593" lon="13.196741015142745"><ele>952.0</ele><time>2026-03-29T15:14:24Z</time></trkpt><trkpt lat="42.109082921666236" lon="13.19657652294565"><ele>948.0</ele><time>2026-03-29T15:14:25Z</time></trkpt><trkpt lat="42.109275428386354" lon="13.196387753895625"><ele>955.3333333333333</ele><time>2026-03-29T15:14:26Z</time></trkpt><trkpt lat="42.10945272438608" lon="13.196191192653195"><ele>962.6666666666666</ele><time>2026-03-29T15:14:27Z</time></trkpt><trkpt lat="42.10961981905142" lon="13.19600198691292"><ele>970.0</ele><time>2026-03-29T15:14:28Z</time></trkpt><trkpt lat="42.10977882483052" lon="13.195829560381405"><ele>972.6666666666666</ele><time>2026-03-29T15:14:29Z</time></trkpt><trkpt lat="42.109932075607325" lon="13.195671988253766"><ele>975.3333333333333</ele><time>2026-03-29T15:14:30Z</time></trkpt><trkpt lat="42.11008724892477" lon="13.195528074302551"><ele>978.0</ele><time>2026-03-29T15:14:31Z</time></trkpt><trkpt lat="42.11024147560241" lon="13.195407069971385"><ele>978.0</ele><time>2026-03-29T15:14:32Z</time></trkpt><trkpt lat="42.11042239622854" lon="13.19532189841598"><ele>978.0</ele><time>2026-03-29T15:14:33Z</time></trkpt><trkpt lat="42.11063688960036" lon="13.195288262134065"><ele>978.0</ele><time>2026-03-29T15:14:34Z</time></trkpt><trkpt lat="42.1108588129721" lon="13.195304473719712"><ele>970.5</ele><time>2026-03-29T15:14:35Z</time></trkpt><trkpt lat="42.11109172721143" lon="13.19539072565708"><ele>963.0</ele><time>2026-03-29T15:14:36Z</time></trkpt><trkpt lat="42.11132557122573" lon="13.195531855156547"><ele>958.5</ele><time>2026-03-29T15:14:37Z</time></trkpt><trkpt lat="42.111574107777656" lon="13.195682436166797"><ele>954.0</ele><time>2026-03-29T15:14:38Z</time></trkpt><trkpt lat="42.11181949659419" lon="13.195824629121063"><ele>954.0</ele><time>2026-03-29T15:14:39Z</time></trkpt><trkpt lat="42.112034024415095" lon="13.19595178373787"><ele>954.0</ele><time>2026-03-29T15:14:40Z</time></trkpt><trkpt lat="42.11224283634687" lon="13.196081854772665"><ele>951.0</ele><time>2026-03-29T15:14:41Z</time></trkpt><trkpt lat="42.11243453205175" lon="13.196231820935662"><ele>948.0</ele><time>2026-03-29T15:14:42Z</time></trkpt><trkpt lat="42.11261399467537" lon="13.196376173801866"><ele>945.0</ele><time>2026-03-29T15:14:43Z</time></trkpt><trkpt lat="42.11280029493312" lon="13.196513173580055"><ele>945.0</ele><time>2026-03-29T15:14:44Z</time></trkpt><trkpt lat="42.1129933254545" lon="13.196617909679894"><ele>945.0</ele><time>2026-03-29T15:14:45Z</time></trkpt><trkpt lat="42.11318797814754" lon="13.196660977867861"><ele>945.0</ele><time>2026-03-29T15:14:46Z</time></trkpt><trkpt lat="42.11339186055743" lon="13.196639696157352"><ele>949.3333333333333</ele><time>2026-03-29T15:14:47Z</time></trkpt><trkpt lat="42.1135974752927" lon="13.196551677534751"><ele>953.6666666666666</ele><time>2026-03-29T15:14:48Z</time></trkpt><trkpt lat="42.11378711663098" lon="13.196402227389836"><ele>958.0</ele><time>2026-03-29T15:14:49Z</time></trkpt><trkpt lat="42.11394256807556" lon="13.196210176090414"><ele>958.0</ele><time>2026-03-29T15:14:50Z</time></trkpt><trkpt lat="42.11405694216039" lon="13.195965954767003"><ele>958.0</ele><time>2026-03-29T15:14:51Z</time></trkpt><trkpt lat="42.11413726699092" lon="13.195675273350751"><ele>958.0</ele><time>2026-03-29T15:14:52Z</time></trkpt><trkpt lat="42.11420097524982" lon="13.195373167931761"><ele>962.0</ele><time>2026-03-29T15:14:53Z</time></trkpt><trkpt lat="42.11426594494975" lon="13.195097908226408"><ele>966.0</ele><time>2026-03-29T15:14:54Z</time></trkpt><trkpt lat="42.11432848210951" lon="13.194862245028606"><ele>970.0</ele><time>2026-03-29T15:14:55Z</time></trkpt><trkpt lat="42.11441493827396" lon="13.194676478781492"><ele>974.3333333333333</ele><time>2026-03-29T15:14:56Z</time></trkpt><trkpt lat="42.114521646952966" lon="13.194505351142531"><ele>978.6666666666667</ele><time>2026-03-29T15:14:57Z</time></trkpt><trkpt lat="42.11466081571652" lon="13.194344542319106"><ele>983.0</ele><time>2026-03-29T15:14:58Z</time></trkpt><trkpt lat="42.11482454297811" lon="13.194193608798669"><ele>986.0</ele><time>2026-03-29T15:14:59Z</time></trkpt><trkpt lat="42.11502805787344" lon="13.194093004168826"><ele>989.0</ele><time>2026-03-29T15:15:00Z</time></trkpt><trkpt lat="42.11523898003948" lon="13.194013393406435"><ele>992.0</ele><time>2026-03-29T15:15:01Z</time></trkpt><trkpt lat="42.11544793552982" lon="13.193924558596594"><ele>992.0</ele><time>2026-03-29T15:15:02Z</time></trkpt><trkpt lat="42.11566162301183" lon="13.19380887530009"><ele>992.0</ele><time>2026-03-29T15:15:03Z</time></trkpt><trkpt lat="42.11586463674454" lon="13.193682952242167"><ele>986.0</ele><time>2026-03-29T15:15:04Z</time></trkpt><trkpt lat="42.11606380845341" lon="13.19354357460559"><ele>980.0</ele><time>2026-03-29T15:15:05Z</time></trkpt><trkpt lat="42.11626478638012" lon="13.193399937137926"><ele>980.0</ele><time>2026-03-29T15:15:06Z</time></trkpt><trkpt lat="42.11646065055875" lon="13.193257516269085"><ele>980.0</ele><time>2026-03-29T15:15:07Z</time></trkpt><trkpt lat="42.11665334737324" lon="13.193127440260096"><ele>980.0</ele><time>2026-03-29T15:15:08Z</time></trkpt><trkpt lat="42.11683447267658" lon="13.193001820758381"><ele>983.0</ele><time>2026-03-29T15:15:09Z</time></trkpt><trkpt lat="42.1170017971548" lon="13.192874404176507"><ele>986.0</ele><time>2026-03-29T15:15:10Z</time></trkpt><trkpt lat="42.117160216867575" lon="13.192721472574245"><ele>989.0</ele><time>2026-03-29T15:15:11Z</time></trkpt><trkpt lat="42.11729081032543" lon="13.192527449068193"><ele>985.3333333333334</ele><time>2026-03-29T15:15:12Z</time></trkpt><trkpt lat="42.117391438356144" lon="13.192277633735035"><ele>981.6666666666667</ele><time>2026-03-29T15:15:13Z</time></trkpt><trkpt lat="42.11746496869988" lon="13.191986515646093"><ele>978.0</ele><time>2026-03-29T15:15:14Z</time></trkpt><trkpt lat="42.12339364850406" lon="13.178144915176592"><ele>959.6666666666667</ele><time>2026-03-29T15:16:14.999Z</time></trkpt><trkpt lat="42.12347442211471" lon="13.177902420253641"><ele>941.3333333333334</ele><time>2026-03-29T15:16:15.999Z</time></trkpt><trkpt lat="42.12357243002227" lon="13.177626351370566"><ele>923.0</ele><time>2026-03-29T15:16:16.999Z</time></trkpt><trkpt lat="42.12368506845165" lon="13.177338340049001"><ele>921.3333333333334</ele><time>2026-03-29T15:16:18Z</time></trkpt><trkpt lat="42.123793292113184" lon="13.177061769500853"><ele>919.6666666666667</ele><time>2026-03-29T15:16:19Z</time></trkpt><trkpt lat="42.12388922573215" lon="13.176805535177069"><ele>918.0</ele><time>2026-03-29T15:16:20Z</time></trkpt><trkpt lat="42.1239767333426" lon="13.176560639234905"><ele>917.3333333333333</ele><time>2026-03-29T15:16:21Z</time></trkpt><trkpt lat="42.12405198896904" lon="13.176303405041388"><ele>916.6666666666666</ele><time>2026-03-29T15:16:22Z</time></trkpt><trkpt lat="42.12408602395119" lon="13.17602619477915"><ele>916.0</ele><time>2026-03-29T15:16:23Z</time></trkpt><trkpt lat="42.124077717029785" lon="13.175723402531302"><ele>916.6666666666666</ele><time>2026-03-29T15:16:24Z</time></trkpt><trkpt lat="42.124053181371856" lon="13.175453742212559"><ele>917.3333333333333</ele><time>2026-03-29T15:16:25Z</time></trkpt><trkpt lat="42.12397236225079" lon="13.175153125839538"><ele>918.0</ele><time>2026-03-29T15:16:26Z</time></trkpt><trkpt lat="42.123871874763545" lon="13.17482382536888"><ele>918.0</ele><time>2026-03-29T15:16:27Z</time></trkpt><trkpt lat="42.12377337017466" lon="13.174482722250783"><ele>918.0</ele><time>2026-03-29T15:16:28Z</time></trkpt><trkpt lat="42.12367775961807" lon="13.174124629768857"><ele>917.5</ele><time>2026-03-29T15:16:29Z</time></trkpt><trkpt lat="42.12358112822216" lon="13.17375966118318"><ele>917.0</ele><time>2026-03-29T15:16:30Z</time></trkpt><trkpt lat="42.123486757992765" lon="13.173408485264819"><ele>921.0</ele><time>2026-03-29T15:16:31Z</time></trkpt><trkpt lat="42.1233973254801" lon="13.173084783493728"><ele>925.0</ele><time>2026-03-29T15:16:32Z</time></trkpt><trkpt lat="42.12330972581592" lon="13.172773515051414"><ele>922.5</ele><time>2026-03-29T15:16:33Z</time></trkpt><trkpt lat="42.12322165258055" lon="13.17244992004739"><ele>920.0</ele><time>2026-03-29T15:16:34Z</time></trkpt><trkpt lat="42.123138089261865" lon="13.172136529737092"><ele>920.0</ele><time>2026-03-29T15:16:35Z</time></trkpt><trkpt lat="42.12304973867901" lon="13.17181011388464"><ele>920.0</ele><time>2026-03-29T15:16:36Z</time></trkpt><trkpt lat="42.12294671196297" lon="13.17145818082284"><ele>920.0</ele><time>2026-03-29T15:16:37Z</time></trkpt><trkpt lat="42.12283465460212" lon="13.171114003394756"><ele>920.0</ele><time>2026-03-29T15:16:38Z</time></trkpt><trkpt lat="42.122718780184876" lon="13.170784948592077"><ele>922.5</ele><time>2026-03-29T15:16:39Z</time></trkpt><trkpt lat="42.12260698793986" lon="13.170484975863967"><ele>925.0</ele><time>2026-03-29T15:16:40Z</time></trkpt><trkpt lat="42.12250706450678" lon="13.170205820524211"><ele>925.0</ele><time>2026-03-29T15:16:41Z</time></trkpt><trkpt lat="42.12241430001248" lon="13.169956641551575"><ele>925.0</ele><time>2026-03-29T15:16:42Z</time></trkpt><trkpt lat="42.12233541568492" lon="13.16973811450384"><ele>925.0</ele><time>2026-03-29T15:16:43Z</time></trkpt><trkpt lat="42.122270905296475" lon="13.169519180966573"><ele>920.0</ele><time>2026-03-29T15:16:44Z</time></trkpt><trkpt lat="42.1222153874896" lon="13.169279815283852"><ele>915.0</ele><time>2026-03-29T15:16:45Z</time></trkpt><trkpt lat="42.12217186451313" lon="13.16901302447137"><ele>910.0</ele><time>2026-03-29T15:16:46Z</time></trkpt><trkpt lat="42.122143556394846" lon="13.168717104034972"><ele>910.0</ele><time>2026-03-29T15:16:47Z</time></trkpt><trkpt lat="42.122128688923375" lon="13.16840657432332"><ele>910.0</ele><time>2026-03-29T15:16:48Z</time></trkpt><trkpt lat="42.122118998790924" lon="13.168085247261477"><ele>909.5</ele><time>2026-03-29T15:16:49Z</time></trkpt><trkpt lat="42.122109635633976" lon="13.167770326966837"><ele>909.0</ele><time>2026-03-29T15:16:50Z</time></trkpt><trkpt lat="42.122120747365706" lon="13.167478662566094"><ele>908.6666666666667</ele><time>2026-03-29T15:16:51Z</time></trkpt><trkpt lat="42.12211215631794" lon="13.167223451698463"><ele>908.3333333333334</ele><time>2026-03-29T15:16:52Z</time></trkpt><trkpt lat="42.122106299551724" lon="13.16700207756123"><ele>908.0</ele><time>2026-03-29T15:16:53Z</time></trkpt><trkpt lat="42.12210067579867" lon="13.166778378436515"><ele>907.3333333333334</ele><time>2026-03-29T15:16:54Z</time></trkpt><trkpt lat="42.122102128215616" lon="13.166525771308704"><ele>906.6666666666667</ele><time>2026-03-29T15:16:55Z</time></trkpt><trkpt lat="42.12211302572189" lon="13.1662398645418"><ele>906.0</ele><time>2026-03-29T15:16:56Z</time></trkpt><trkpt lat="42.122136847203045" lon="13.16596153665806"><ele>906.0</ele><time>2026-03-29T15:16:57Z</time></trkpt><trkpt lat="42.12217342877227" lon="13.165695432530965"><ele>906.0</ele><time>2026-03-29T15:16:58Z</time></trkpt><trkpt lat="42.12222355021896" lon="13.165411113002277"><ele>906.0</ele><time>2026-03-29T15:16:59Z</time></trkpt><trkpt lat="42.122295740170664" lon="13.165087870851204"><ele>907.5</ele><time>2026-03-29T15:17:00Z</time></trkpt><trkpt lat="42.12237667650526" lon="13.164734730833832"><ele>909.0</ele><time>2026-03-29T15:17:01Z</time></trkpt><trkpt lat="42.12245495404966" lon="13.16435498530862"><ele>908.5</ele><time>2026-03-29T15:17:02Z</time></trkpt><trkpt lat="42.12254743428056" lon="13.163988997404662"><ele>908.0</ele><time>2026-03-29T15:17:03Z</time></trkpt><trkpt lat="42.1226273318217" lon="13.163641584424566"><ele>908.0</ele><time>2026-03-29T15:17:04Z</time></trkpt><trkpt lat="42.12270106632854" lon="13.163319134064507"><ele>908.0</ele><time>2026-03-29T15:17:05Z</time></trkpt><trkpt lat="42.12276520104572" lon="13.163002650572082"><ele>907.0</ele><time>2026-03-29T15:17:06Z</time></trkpt><trkpt lat="42.12281764391742" lon="13.162685451864848"><ele>906.0</ele><time>2026-03-29T15:17:07Z</time></trkpt><trkpt lat="42.12282979906964" lon="13.162373889483456"><ele>906.0</ele><time>2026-03-29T15:17:08Z</time></trkpt><trkpt lat="42.12280859267703" lon="13.16203581963655"><ele>906.0</ele><time>2026-03-29T15:17:09Z</time></trkpt><trkpt lat="42.122769594107396" lon="13.161673923586479"><ele>906.5</ele><time>2026-03-29T15:17:10Z</time></trkpt><trkpt lat="42.122733423393726" lon="13.161298548939723"><ele>907.0</ele><time>2026-03-29T15:17:11Z</time></trkpt><trkpt lat="42.12269925180211" lon="13.16091934048712"><ele>906.5</ele><time>2026-03-29T15:17:12Z</time></trkpt><trkpt lat="42.122660179850484" lon="13.160541107203505"><ele>906.0</ele><time>2026-03-29T15:17:13Z</time></trkpt><trkpt lat="42.12263853020569" lon="13.160149364916464"><ele>914.0</ele><time>2026-03-29T15:17:14Z</time></trkpt><trkpt lat="42.12989553056172" lon="13.143781182774363"><ele>914.0</ele><time>2026-03-29T15:18:14.999Z</time></trkpt><trkpt lat="42.13012332413983" lon="13.143621137388191"><ele>914.0</ele><time>2026-03-29T15:18:15.999Z</time></trkpt><trkpt lat="42.13033650628602" lon="13.143476374005692"><ele>914.0</ele><time>2026-03-29T15:18:16.999Z</time></trkpt><trkpt lat="42.13053423408193" lon="13.143333570960968"><ele>914.0</ele><time>2026-03-29T15:18:17.999Z</time></trkpt><trkpt lat="42.13072344261748" lon="13.143185417890937"><ele>914.0</ele><time>2026-03-29T15:18:18.999Z</time></trkpt><trkpt lat="42.13089694688331" lon="13.143016295440475"><ele>913.3333333333334</ele><time>2026-03-29T15:18:19.999Z</time></trkpt><trkpt lat="42.131042847021725" lon="13.142805066076791"><ele>912.6666666666667</ele><time>2026-03-29T15:18:20.999Z</time></trkpt><trkpt lat="42.131164373175174" lon="13.142546952366539"><ele>912.0</ele><time>2026-03-29T15:18:21.999Z</time></trkpt><trkpt lat="42.131247777380416" lon="13.142274737462378"><ele>912.0</ele><time>2026-03-29T15:18:22.999Z</time></trkpt><trkpt lat="42.131306817339315" lon="13.14200980051079"><ele>912.0</ele><time>2026-03-29T15:18:24Z</time></trkpt><trkpt lat="42.131366728653006" lon="13.141728227450296"><ele>912.0</ele><time>2026-03-29T15:18:25Z</time></trkpt><trkpt lat="42.13143147480953" lon="13.141440505431408"><ele>911.3333333333333</ele><time>2026-03-29T15:18:26Z</time></trkpt><trkpt lat="42.1315047344646" lon="13.14115610293118"><ele>910.6666666666666</ele><time>2026-03-29T15:18:27Z</time></trkpt><trkpt lat="42.13158327936797" lon="13.140878782295427"><ele>910.0</ele><time>2026-03-29T15:18:28Z</time></trkpt><trkpt lat="42.13169549832359" lon="13.140602942151215"><ele>910.0</ele><time>2026-03-29T15:18:29Z</time></trkpt><trkpt lat="42.13185137646687" lon="13.140336431756836"><ele>910.0</ele><time>2026-03-29T15:18:30Z</time></trkpt><trkpt lat="42.132040470242266" lon="13.140080292679329"><ele>909.0</ele><time>2026-03-29T15:18:31Z</time></trkpt><trkpt lat="42.13224703903247" lon="13.139836301659901"><ele>908.0</ele><time>2026-03-29T15:18:32Z</time></trkpt><trkpt lat="42.13247002922098" lon="13.139589432579653"><ele>908.0</ele><time>2026-03-29T15:18:33Z</time></trkpt><trkpt lat="42.13270665933677" lon="13.139315910055982"><ele>908.0</ele><time>2026-03-29T15:18:34Z</time></trkpt><trkpt lat="42.13295228372043" lon="13.139028317764488"><ele>904.5</ele><time>2026-03-29T15:18:35Z</time></trkpt><trkpt lat="42.133178737137584" lon="13.13876452317745"><ele>901.0</ele><time>2026-03-29T15:18:36Z</time></trkpt><trkpt lat="42.1333786083073" lon="13.13853194084893"><ele>901.0</ele><time>2026-03-29T15:18:37Z</time></trkpt><trkpt lat="42.13354509557365" lon="13.138339211756374"><ele>901.0</ele><time>2026-03-29T15:18:38Z</time></trkpt><trkpt lat="42.13369647742844" lon="13.138154185306165"><ele>901.0</ele><time>2026-03-29T15:18:39Z</time></trkpt><trkpt lat="42.13383952104929" lon="13.137929284348836"><ele>899.5</ele><time>2026-03-29T15:18:40Z</time></trkpt><trkpt lat="42.13397026020467" lon="13.13764413000347"><ele>898.0</ele><time>2026-03-29T15:18:41Z</time></trkpt><trkpt lat="42.134082975737385" lon="13.137314331958105"><ele>898.0</ele><time>2026-03-29T15:18:42Z</time></trkpt><trkpt lat="42.13418853850254" lon="13.136994215246377"><ele>898.0</ele><time>2026-03-29T15:18:43Z</time></trkpt><trkpt lat="42.13429484982741" lon="13.136710427618386"><ele>899.6666666666666</ele><time>2026-03-29T15:18:44Z</time></trkpt><trkpt lat="42.134389753943495" lon="13.136449997765679"><ele>901.3333333333333</ele><time>2026-03-29T15:18:45Z</time></trkpt><trkpt lat="42.13448337272294" lon="13.136200766942096"><ele>903.0</ele><time>2026-03-29T15:18:46Z</time></trkpt><trkpt lat="42.134574959548225" lon="13.135960070313546"><ele>903.0</ele><time>2026-03-29T15:18:47Z</time></trkpt><trkpt lat="42.13466019583454" lon="13.135727768635729"><ele>903.0</ele><time>2026-03-29T15:18:48Z</time></trkpt><trkpt lat="42.13472888662441" lon="13.135493233868685"><ele>903.0</ele><time>2026-03-29T15:18:49Z</time></trkpt><trkpt lat="42.13477250046049" lon="13.135241650744032"><ele>903.3333333333333</ele><time>2026-03-29T15:18:50Z</time></trkpt><trkpt lat="42.134779590036885" lon="13.134965896795643"><ele>903.6666666666666</ele><time>2026-03-29T15:18:51Z</time></trkpt><trkpt lat="42.134760816333" lon="13.134679167239137"><ele>904.0</ele><time>2026-03-29T15:18:52Z</time></trkpt><trkpt lat="42.134718932076126" lon="13.134405095477383"><ele>901.0</ele><time>2026-03-29T15:18:53Z</time></trkpt><trkpt lat="42.13465728165946" lon="13.134133879824235"><ele>898.0</ele><time>2026-03-29T15:18:54Z</time></trkpt><trkpt lat="42.13456829097281" lon="13.133867582939365"><ele>895.0</ele><time>2026-03-29T15:18:55Z</time></trkpt><trkpt lat="42.13445369754229" lon="13.133603638125972"><ele>889.5</ele><time>2026-03-29T15:18:56Z</time></trkpt><trkpt lat="42.13430670553221" lon="13.133328227254191"><ele>884.0</ele><time>2026-03-29T15:18:57Z</time></trkpt><trkpt lat="42.134150967136" lon="13.133041380232958"><ele>879.5</ele><time>2026-03-29T15:18:58Z</time></trkpt><trkpt lat="42.13400574797435" lon="13.13275401481382"><ele>875.0</ele><time>2026-03-29T15:18:59Z</time></trkpt><trkpt lat="42.13387458627251" lon="13.132487505817261"><ele>874.3333333333334</ele><time>2026-03-29T15:19:00Z</time></trkpt><trkpt lat="42.13375581117366" lon="13.132228702252423"><ele>873.6666666666667</ele><time>2026-03-29T15:19:01Z</time></trkpt><trkpt lat="42.133640603352646" lon="13.131991250279059"><ele>873.0</ele><time>2026-03-29T15:19:02Z</time></trkpt><trkpt lat="42.133529751342586" lon="13.131769555721426"><ele>873.0</ele><time>2026-03-29T15:19:03Z</time></trkpt><trkpt lat="42.133420346437276" lon="13.13156319326859"><ele>873.0</ele><time>2026-03-29T15:19:04Z</time></trkpt><trkpt lat="42.133307000219936" lon="13.131349142753836"><ele>873.0</ele><time>2026-03-29T15:19:05Z</time></trkpt><trkpt lat="42.13313212622576" lon="13.131154270259119"><ele>875.0</ele><time>2026-03-29T15:19:06Z</time></trkpt><trkpt lat="42.13297204962209" lon="13.130926332837625"><ele>877.0</ele><time>2026-03-29T15:19:07Z</time></trkpt><trkpt lat="42.132778651802084" lon="13.130716195926384"><ele>871.0</ele><time>2026-03-29T15:19:08Z</time></trkpt><trkpt lat="42.13258603435069" lon="13.130471959457777"><ele>865.0</ele><time>2026-03-29T15:19:09Z</time></trkpt><trkpt lat="42.13239508645844" lon="13.130229633320155"><ele>868.5</ele><time>2026-03-29T15:19:10Z</time></trkpt><trkpt lat="42.13221886553503" lon="13.130004178539858"><ele>872.0</ele><time>2026-03-29T15:19:11Z</time></trkpt><trkpt lat="42.13204533318126" lon="13.129800639296471"><ele>866.0</ele><time>2026-03-29T15:19:12Z</time></trkpt><trkpt lat="42.13188156442246" lon="13.129597733289806"><ele>860.0</ele><time>2026-03-29T15:19:13Z</time></trkpt><trkpt lat="42.13172444231863" lon="13.129400292877111"><ele>854.0</ele><time>2026-03-29T15:19:14Z</time></trkpt><trkpt lat="42.13002288456692" lon="13.124506616207107"><ele>833.0</ele><time>2026-03-29T15:20:14.999Z</time></trkpt><trkpt lat="42.13023834630312" lon="13.124605248676806"><ele>812.0</ele><time>2026-03-29T15:20:15.999Z</time></trkpt><trkpt lat="42.130433176510145" lon="13.124696873088718"><ele>791.0</ele><time>2026-03-29T15:20:16.999Z</time></trkpt><trkpt lat="42.130622248259115" lon="13.124790136131546"><ele>790.0</ele><time>2026-03-29T15:20:17.999Z</time></trkpt><trkpt lat="42.130797686792356" lon="13.124874032270968"><ele>789.0</ele><time>2026-03-29T15:20:18.999Z</time></trkpt><trkpt lat="42.130973873300896" lon="13.12494572551844"><ele>788.0</ele><time>2026-03-29T15:20:19.999Z</time></trkpt><trkpt lat="42.131153513225094" lon="13.124981069021716"><ele>788.0</ele><time>2026-03-29T15:20:20.999Z</time></trkpt><trkpt lat="42.13134064566968" lon="13.124990571240849"><ele>788.0</ele><time>2026-03-29T15:20:21.999Z</time></trkpt><trkpt lat="42.1315355911033" lon="13.124969731925196"><ele>788.0</ele><time>2026-03-29T15:20:22.999Z</time></trkpt><trkpt lat="42.13173766568319" lon="13.124913177604418"><ele>779.3333333333334</ele><time>2026-03-29T15:20:23.999Z</time></trkpt><trkpt lat="42.13193826823724" lon="13.124822167395829"><ele>770.6666666666667</ele><time>2026-03-29T15:20:24.999Z</time></trkpt><trkpt lat="42.13213709291117" lon="13.124732910168008"><ele>762.0</ele><time>2026-03-29T15:20:25.999Z</time></trkpt><trkpt lat="42.13227951106208" lon="13.124524962293753"><ele>763.6666666666666</ele><time>2026-03-29T15:20:26.999Z</time></trkpt><trkpt lat="42.13243543622898" lon="13.12432498481343"><ele>765.3333333333333</ele><time>2026-03-29T15:20:27.999Z</time></trkpt><trkpt lat="42.13258812259555" lon="13.124117220966522"><ele>767.0</ele><time>2026-03-29T15:20:28.999Z</time></trkpt><trkpt lat="42.13271147848879" lon="13.123861105430798"><ele>767.0</ele><time>2026-03-29T15:20:30Z</time></trkpt><trkpt lat="42.13280580734044" lon="13.12360307790707"><ele>767.0</ele><time>2026-03-29T15:20:31Z</time></trkpt><trkpt lat="42.132891436833994" lon="13.123378550340783"><ele>767.0</ele><time>2026-03-29T15:20:32Z</time></trkpt><trkpt lat="42.132979356586375" lon="13.123183100885287"><ele>761.0</ele><time>2026-03-29T15:20:33Z</time></trkpt><trkpt lat="42.13304918642259" lon="13.122975402015363"><ele>755.0</ele><time>2026-03-29T15:20:34Z</time></trkpt><trkpt lat="42.133090462107454" lon="13.12273249631982"><ele>749.0</ele><time>2026-03-29T15:20:35Z</time></trkpt><trkpt lat="42.13308510923773" lon="13.122468042556706"><ele>752.3333333333333</ele><time>2026-03-29T15:20:36Z</time></trkpt><trkpt lat="42.133040200758295" lon="13.122199522395015"><ele>755.6666666666666</ele><time>2026-03-29T15:20:37Z</time></trkpt><trkpt lat="42.13295167575411" lon="13.121945133087724"><ele>759.0</ele><time>2026-03-29T15:20:38Z</time></trkpt><trkpt lat="42.13282441863374" lon="13.121714719166738"><ele>765.3333333333333</ele><time>2026-03-29T15:20:39Z</time></trkpt><trkpt lat="42.13266214951132" lon="13.121503445796842"><ele>771.6666666666666</ele><time>2026-03-29T15:20:40Z</time></trkpt><trkpt lat="42.132513369778586" lon="13.121315561399562"><ele>778.0</ele><time>2026-03-29T15:20:41Z</time></trkpt><trkpt lat="42.132400170595105" lon="13.121101478828303"><ele>764.0</ele><time>2026-03-29T15:20:42Z</time></trkpt><trkpt lat="42.13232150921982" lon="13.12084439250209"><ele>750.0</ele><time>2026-03-29T15:20:43Z</time></trkpt><trkpt lat="42.132270140886426" lon="13.120567117763091"><ele>736.0</ele><time>2026-03-29T15:20:44Z</time></trkpt><trkpt lat="42.132225553054376" lon="13.120265879288585"><ele>736.0</ele><time>2026-03-29T15:20:45Z</time></trkpt><trkpt lat="42.13218181139405" lon="13.1199543007559"><ele>736.0</ele><time>2026-03-29T15:20:46Z</time></trkpt><trkpt lat="42.13213522188862" lon="13.119624675542102"><ele>736.0</ele><time>2026-03-29T15:20:47Z</time></trkpt><trkpt lat="42.13208837951383" lon="13.119317221355594"><ele>736.0</ele><time>2026-03-29T15:20:48Z</time></trkpt><trkpt lat="42.13203968976964" lon="13.119024850214327"><ele>737.6666666666667</ele><time>2026-03-29T15:20:49Z</time></trkpt><trkpt lat="42.13198949839759" lon="13.118747090625057"><ele>739.3333333333334</ele><time>2026-03-29T15:20:50Z</time></trkpt><trkpt lat="42.13193935967894" lon="13.1184809149288"><ele>741.0</ele><time>2026-03-29T15:20:51Z</time></trkpt><trkpt lat="42.13189550700887" lon="13.1182226142807"><ele>741.0</ele><time>2026-03-29T15:20:52Z</time></trkpt><trkpt lat="42.13187941195279" lon="13.117967569159696"><ele>741.0</ele><time>2026-03-29T15:20:53Z</time></trkpt><trkpt lat="42.13188856616021" lon="13.117671028195693"><ele>741.0</ele><time>2026-03-29T15:20:54Z</time></trkpt><trkpt lat="42.131901240391485" lon="13.117351381920097"><ele>740.3333333333334</ele><time>2026-03-29T15:20:55Z</time></trkpt><trkpt lat="42.13190693225257" lon="13.117047721908776"><ele>739.6666666666667</ele><time>2026-03-29T15:20:56Z</time></trkpt><trkpt lat="42.131916604597876" lon="13.116748995203334"><ele>739.0</ele><time>2026-03-29T15:20:57Z</time></trkpt><trkpt lat="42.131902644901395" lon="13.11645461874805"><ele>743.5</ele><time>2026-03-29T15:20:58Z</time></trkpt><trkpt lat="42.13185839618603" lon="13.116151485202566"><ele>748.0</ele><time>2026-03-29T15:20:59Z</time></trkpt><trkpt lat="42.13176489610654" lon="13.11585494901471"><ele>751.5</ele><time>2026-03-29T15:21:00Z</time></trkpt><trkpt lat="42.131657870345926" lon="13.115580122346275"><ele>755.0</ele><time>2026-03-29T15:21:01Z</time></trkpt><trkpt lat="42.131578940461395" lon="13.115292431867145"><ele>736.0</ele><time>2026-03-29T15:21:02Z</time></trkpt><trkpt lat="42.13153664385637" lon="13.114958284602304"><ele>717.0</ele><time>2026-03-29T15:21:03Z</time></trkpt><trkpt lat="42.13151693336683" lon="13.114646484916474"><ele>717.0</ele><time>2026-03-29T15:21:04Z</time></trkpt><trkpt lat="42.13149956808969" lon="13.114352747096605"><ele>717.0</ele><time>2026-03-29T15:21:05Z</time></trkpt><trkpt lat="42.13147401381322" lon="13.114099703774716"><ele>717.0</ele><time>2026-03-29T15:21:06Z</time></trkpt><trkpt lat="42.13142111468238" lon="13.113833149260685"><ele>720.6666666666666</ele><time>2026-03-29T15:21:07Z</time></trkpt><trkpt lat="42.13132120151819" lon="13.113580711310355"><ele>724.3333333333333</ele><time>2026-03-29T15:21:08Z</time></trkpt><trkpt lat="42.13116827051662" lon="13.113355961534307"><ele>728.0</ele><time>2026-03-29T15:21:09Z</time></trkpt><trkpt lat="42.13098182779447" lon="13.113173359448595"><ele>732.3333333333333</ele><time>2026-03-29T15:21:10Z</time></trkpt><trkpt lat="42.13080271797289" lon="13.113027162310411"><ele>736.6666666666666</ele><time>2026-03-29T15:21:11Z</time></trkpt><trkpt lat="42.130638664090874" lon="13.112876702608101"><ele>741.0</ele><time>2026-03-29T15:21:12Z</time></trkpt><trkpt lat="42.13050553723644" lon="13.112712991316693"><ele>727.5</ele><time>2026-03-29T15:21:13Z</time></trkpt><trkpt lat="42.13040876099279" lon="13.112494688908065"><ele>714.0</ele><time>2026-03-29T15:21:14Z</time></trkpt><trkpt lat="42.117616055823206" lon="13.109588164916333"><ele>689.0</ele><time>2026-03-29T15:22:14.999Z</time></trkpt><trkpt lat="42.11752692682937" lon="13.109291132403724"><ele>664.0</ele><time>2026-03-29T15:22:15.999Z</time></trkpt><trkpt lat="42.11742197873441" lon="13.108996371991086"><ele>656.0</ele><time>2026-03-29T15:22:16.999Z</time></trkpt><trkpt lat="42.11733468893065" lon="13.108706924970935"><ele>648.0</ele><time>2026-03-29T15:22:17.999Z</time></trkpt><trkpt lat="42.11727149585074" lon="13.108437892677552"><ele>640.0</ele><time>2026-03-29T15:22:18.999Z</time></trkpt><trkpt lat="42.11720848934808" lon="13.108208294761846"><ele>639.6666666666667</ele><time>2026-03-29T15:22:19.999Z</time></trkpt><trkpt lat="42.11716149262576" lon="13.1079656253338"><ele>639.3333333333334</ele><time>2026-03-29T15:22:20.999Z</time></trkpt><trkpt lat="42.11714368202872" lon="13.10768307972995"><ele>639.0</ele><time>2026-03-29T15:22:21.999Z</time></trkpt><trkpt lat="42.117140439857494" lon="13.107369562026198"><ele>638.5</ele><time>2026-03-29T15:22:22.999Z</time></trkpt><trkpt lat="42.117127557960316" lon="13.107055011109134"><ele>638.0</ele><time>2026-03-29T15:22:23.999Z</time></trkpt><trkpt lat="42.117137661978056" lon="13.106719454987099"><ele>637.5</ele><time>2026-03-29T15:22:24.999Z</time></trkpt><trkpt lat="42.117147885362385" lon="13.10637374014676"><ele>637.0</ele><time>2026-03-29T15:22:25.999Z</time></trkpt><trkpt lat="42.117174344903454" lon="13.106022044865185"><ele>637.0</ele><time>2026-03-29T15:22:26.999Z</time></trkpt><trkpt lat="42.11722556511241" lon="13.105665086188129"><ele>637.0</ele><time>2026-03-29T15:22:27.999Z</time></trkpt><trkpt lat="42.1172881253977" lon="13.105309656108862"><ele>637.0</ele><time>2026-03-29T15:22:28.999Z</time></trkpt><trkpt lat="42.11735125652141" lon="13.104954847016272"><ele>637.0</ele><time>2026-03-29T15:22:29.999Z</time></trkpt><trkpt lat="42.11740675512738" lon="13.104621287621097"><ele>636.0</ele><time>2026-03-29T15:22:30.999Z</time></trkpt><trkpt lat="42.117455909220496" lon="13.10430097842805"><ele>635.0</ele><time>2026-03-29T15:22:31.999Z</time></trkpt><trkpt lat="42.117494166893756" lon="13.10397185591923"><ele>635.0</ele><time>2026-03-29T15:22:32.999Z</time></trkpt><trkpt lat="42.117512131025734" lon="13.103625284872175"><ele>635.0</ele><time>2026-03-29T15:22:33.999Z</time></trkpt><trkpt lat="42.11750506508612" lon="13.10326758259002"><ele>635.0</ele><time>2026-03-29T15:22:34.999Z</time></trkpt><trkpt lat="42.11748644078659" lon="13.102903720833327"><ele>635.0</ele><time>2026-03-29T15:22:36Z</time></trkpt><trkpt lat="42.11747012578261" lon="13.1025542064901"><ele>635.5</ele><time>2026-03-29T15:22:37Z</time></trkpt><trkpt lat="42.11746591268821" lon="13.102225080733053"><ele>636.0</ele><time>2026-03-29T15:22:38Z</time></trkpt><trkpt lat="42.11746234042651" lon="13.101915808587288"><ele>636.0</ele><time>2026-03-29T15:22:39Z</time></trkpt><trkpt lat="42.117458174255674" lon="13.10163600679391"><ele>636.0</ele><time>2026-03-29T15:22:40Z</time></trkpt><trkpt lat="42.11747731781371" lon="13.101377822966993"><ele>636.0</ele><time>2026-03-29T15:22:41Z</time></trkpt><trkpt lat="42.1174950894656" lon="13.101136339409866"><ele>634.6666666666666</ele><time>2026-03-29T15:22:42Z</time></trkpt><trkpt lat="42.11753454241969" lon="13.10088510702029"><ele>633.3333333333333</ele><time>2026-03-29T15:22:43Z</time></trkpt><trkpt lat="42.1175961425958" lon="13.100614647980036"><ele>632.0</ele><time>2026-03-29T15:22:44Z</time></trkpt><trkpt lat="42.117677298650825" lon="13.100345820647572"><ele>631.0</ele><time>2026-03-29T15:22:45Z</time></trkpt><trkpt lat="42.117789420915514" lon="13.10008316314719"><ele>630.0</ele><time>2026-03-29T15:22:46Z</time></trkpt><trkpt lat="42.11792185605884" lon="13.099824312828272"><ele>629.0</ele><time>2026-03-29T15:22:47Z</time></trkpt><trkpt lat="42.11805395049648" lon="13.099558600967745"><ele>628.0</ele><time>2026-03-29T15:22:48Z</time></trkpt><trkpt lat="42.118192858040466" lon="13.099318006585396"><ele>627.0</ele><time>2026-03-29T15:22:49Z</time></trkpt><trkpt lat="42.11831625235823" lon="13.09908241782373"><ele>626.0</ele><time>2026-03-29T15:22:50Z</time></trkpt><trkpt lat="42.118430493590076" lon="13.098850741722588"><ele>625.0</ele><time>2026-03-29T15:22:51Z</time></trkpt><trkpt lat="42.118526385581504" lon="13.098617701015918"><ele>625.0</ele><time>2026-03-29T15:22:52Z</time></trkpt><trkpt lat="42.11860741363092" lon="13.098373597824354"><ele>625.0</ele><time>2026-03-29T15:22:53Z</time></trkpt><trkpt lat="42.1186712506167" lon="13.098133291147809"><ele>625.0</ele><time>2026-03-29T15:22:54Z</time></trkpt><trkpt lat="42.11872399156937" lon="13.097892113349266"><ele>624.5</ele><time>2026-03-29T15:22:55Z</time></trkpt><trkpt lat="42.11877412530063" lon="13.097603139324796"><ele>624.0</ele><time>2026-03-29T15:22:56Z</time></trkpt><trkpt lat="42.118809136713445" lon="13.097293030178157"><ele>623.5</ele><time>2026-03-29T15:22:57Z</time></trkpt><trkpt lat="42.11882480346323" lon="13.096970665058528"><ele>623.0</ele><time>2026-03-29T15:22:58Z</time></trkpt><trkpt lat="42.11883044223189" lon="13.096643002948262"><ele>623.3333333333333</ele><time>2026-03-29T15:22:59Z</time></trkpt><trkpt lat="42.11885802763492" lon="13.096354137605504"><ele>623.6666666666666</ele><time>2026-03-29T15:23:00Z</time></trkpt><trkpt lat="42.11886725606567" lon="13.096085346944108"><ele>624.0</ele><time>2026-03-29T15:23:01Z</time></trkpt><trkpt lat="42.1188725536921" lon="13.095834247939461"><ele>624.3333333333334</ele><time>2026-03-29T15:23:02Z</time></trkpt><trkpt lat="42.11887255369204" lon="13.095557810058882"><ele>624.6666666666667</ele><time>2026-03-29T15:23:03Z</time></trkpt><trkpt lat="42.118872553692846" lon="13.095237459669738"><ele>625.0</ele><time>2026-03-29T15:23:04Z</time></trkpt><trkpt lat="42.118872553693436" lon="13.094886983274952"><ele>626.5</ele><time>2026-03-29T15:23:05Z</time></trkpt><trkpt lat="42.11870859325754" lon="13.094508542645332"><ele>628.0</ele><time>2026-03-29T15:23:06Z</time></trkpt><trkpt lat="42.1186281400123" lon="13.09410787907924"><ele>629.5</ele><time>2026-03-29T15:23:07Z</time></trkpt><trkpt lat="42.118547886502554" lon="13.093704973287766"><ele>631.0</ele><time>2026-03-29T15:23:08Z</time></trkpt><trkpt lat="42.118467247979986" lon="13.093279859827975"><ele>631.5</ele><time>2026-03-29T15:23:09Z</time></trkpt><trkpt lat="42.11838631755129" lon="13.092834539796206"><ele>632.0</ele><time>2026-03-29T15:23:10Z</time></trkpt><trkpt lat="42.118303215075414" lon="13.092384621616548"><ele>626.5</ele><time>2026-03-29T15:23:11Z</time></trkpt><trkpt lat="42.118218905793064" lon="13.091937853283168"><ele>621.0</ele><time>2026-03-29T15:23:12Z</time></trkpt><trkpt lat="42.118144963082685" lon="13.091533597801456"><ele>621.0</ele><time>2026-03-29T15:23:13Z</time></trkpt><trkpt lat="42.118081895082284" lon="13.091175846230524"><ele>621.0</ele><time>2026-03-29T15:23:14Z</time></trkpt><trkpt lat="42.104939297935324" lon="13.0839906439193"><ele>622.0</ele><time>2026-03-29T15:24:14.999Z</time></trkpt><trkpt lat="42.10481017921097" lon="13.08409637536763"><ele>623.0</ele><time>2026-03-29T15:24:15.999Z</time></trkpt><trkpt lat="42.10467859692786" lon="13.084199695924179"><ele>624.0</ele><time>2026-03-29T15:24:16.999Z</time></trkpt><trkpt lat="42.104540475314934" lon="13.084282608309959"><ele>624.0</ele><time>2026-03-29T15:24:17.999Z</time></trkpt><trkpt lat="42.104407076262" lon="13.08437277583882"><ele>624.0</ele><time>2026-03-29T15:24:18.999Z</time></trkpt><trkpt lat="42.10425946474729" lon="13.084440404907964"><ele>624.0</ele><time>2026-03-29T15:24:19.999Z</time></trkpt><trkpt lat="42.104124277461786" lon="13.084509752240393"><ele>624.3333333333334</ele><time>2026-03-29T15:24:20.999Z</time></trkpt><trkpt lat="42.103972257168095" lon="13.08458418353346"><ele>624.6666666666667</ele><time>2026-03-29T15:24:21.999Z</time></trkpt><trkpt lat="42.10381216253768" lon="13.084608011707513"><ele>625.0</ele><time>2026-03-29T15:24:22.999Z</time></trkpt><trkpt lat="42.10365489345685" lon="13.084659651600697"><ele>625.0</ele><time>2026-03-29T15:24:23.999Z</time></trkpt><trkpt lat="42.10348454096039" lon="13.08468146088781"><ele>625.0</ele><time>2026-03-29T15:24:24.999Z</time></trkpt><trkpt lat="42.10331851223216" lon="13.084690446842528"><ele>625.0</ele><time>2026-03-29T15:24:25.999Z</time></trkpt><trkpt lat="42.103158420423604" lon="13.084677881641428"><ele>623.5</ele><time>2026-03-29T15:24:26.999Z</time></trkpt><trkpt lat="42.103007800137924" lon="13.084656904024046"><ele>622.0</ele><time>2026-03-29T15:24:27.999Z</time></trkpt><trkpt lat="42.10286907182486" lon="13.08461542725257"><ele>620.5</ele><time>2026-03-29T15:24:28.999Z</time></trkpt><trkpt lat="42.102734380773384" lon="13.084568680351618"><ele>619.0</ele><time>2026-03-29T15:24:29.999Z</time></trkpt><trkpt lat="42.10260014583668" lon="13.08452147466349"><ele>619.0</ele><time>2026-03-29T15:24:30.999Z</time></trkpt><trkpt lat="42.10247483357864" lon="13.084458184997844"><ele>619.0</ele><time>2026-03-29T15:24:31.999Z</time></trkpt><trkpt lat="42.10235194135763" lon="13.084381372556196"><ele>619.0</ele><time>2026-03-29T15:24:32.999Z</time></trkpt><trkpt lat="42.102226695961946" lon="13.084305890719511"><ele>619.0</ele><time>2026-03-29T15:24:33.999Z</time></trkpt><trkpt lat="42.10210040071024" lon="13.084239426827894"><ele>619.0</ele><time>2026-03-29T15:24:34.999Z</time></trkpt><trkpt lat="42.10198686018622" lon="13.084186074785505"><ele>619.0</ele><time>2026-03-29T15:24:35.999Z</time></trkpt><trkpt lat="42.10188375414303" lon="13.084134791600853"><ele>619.0</ele><time>2026-03-29T15:24:36.999Z</time></trkpt><trkpt lat="42.10178964978903" lon="13.084089314792937"><ele>619.0</ele><time>2026-03-29T15:24:37.999Z</time></trkpt><trkpt lat="42.10170796862579" lon="13.084053175030597"><ele>619.0</ele><time>2026-03-29T15:24:38.998Z</time></trkpt><trkpt lat="42.10161807252871" lon="13.084027611569795"><ele>619.25</ele><time>2026-03-29T15:24:39.998Z</time></trkpt><trkpt lat="42.10151207007019" lon="13.084013311463245"><ele>619.5</ele><time>2026-03-29T15:24:40.998Z</time></trkpt><trkpt lat="42.101390744625704" lon="13.084006652278838"><ele>619.75</ele><time>2026-03-29T15:24:42Z</time></trkpt><trkpt lat="42.10126136746945" lon="13.084006981613648"><ele>620.0</ele><time>2026-03-29T15:24:43Z</time></trkpt><trkpt lat="42.10111698689245" lon="13.083984937126449"><ele>620.0</ele><time>2026-03-29T15:24:44Z</time></trkpt><trkpt lat="42.10096364269257" lon="13.083988236664416"><ele>620.0</ele><time>2026-03-29T15:24:45Z</time></trkpt><trkpt lat="42.10081245992958" lon="13.083995771851532"><ele>620.0</ele><time>2026-03-29T15:24:46Z</time></trkpt><trkpt lat="42.100650286775604" lon="13.084004784132334"><ele>619.3333333333333</ele><time>2026-03-29T15:24:47Z</time></trkpt><trkpt lat="42.1004850375279" lon="13.084010645736463"><ele>618.6666666666666</ele><time>2026-03-29T15:24:48Z</time></trkpt><trkpt lat="42.10031810279851" lon="13.084008977080247"><ele>618.0</ele><time>2026-03-29T15:24:49Z</time></trkpt><trkpt lat="42.10015258643622" lon="13.084007269027936"><ele>618.0</ele><time>2026-03-29T15:24:50Z</time></trkpt><trkpt lat="42.09999200271424" lon="13.08395765334884"><ele>618.0</ele><time>2026-03-29T15:24:51Z</time></trkpt><trkpt lat="42.09984592908977" lon="13.083883956401786"><ele>618.0</ele><time>2026-03-29T15:24:52Z</time></trkpt><trkpt lat="42.09970594359442" lon="13.083803188854917"><ele>615.0</ele><time>2026-03-29T15:24:53Z</time></trkpt><trkpt lat="42.099569305481545" lon="13.083697949104893"><ele>612.0</ele><time>2026-03-29T15:24:54Z</time></trkpt><trkpt lat="42.0994358299992" lon="13.083590674326764"><ele>609.0</ele><time>2026-03-29T15:24:55Z</time></trkpt><trkpt lat="42.09929838051116" lon="13.083481331360547"><ele>609.0</ele><time>2026-03-29T15:24:56Z</time></trkpt><trkpt lat="42.09916138725918" lon="13.08335994961344"><ele>609.0</ele><time>2026-03-29T15:24:57Z</time></trkpt><trkpt lat="42.09903393134464" lon="13.083212807499542"><ele>609.0</ele><time>2026-03-29T15:24:58Z</time></trkpt><trkpt lat="42.09888463011486" lon="13.083055780146317"><ele>608.0</ele><time>2026-03-29T15:24:59Z</time></trkpt><trkpt lat="42.09872859272543" lon="13.082894994839533"><ele>607.0</ele><time>2026-03-29T15:25:00Z</time></trkpt><trkpt lat="42.098586537223056" lon="13.082752554481223"><ele>606.0</ele><time>2026-03-29T15:25:01Z</time></trkpt><trkpt lat="42.098452356719804" lon="13.082618076403234"><ele>606.0</ele><time>2026-03-29T15:25:02Z</time></trkpt><trkpt lat="42.09831613947594" lon="13.082503555138368"><ele>606.0</ele><time>2026-03-29T15:25:03Z</time></trkpt><trkpt lat="42.098199117390465" lon="13.082380262520672"><ele>606.0</ele><time>2026-03-29T15:25:04Z</time></trkpt><trkpt lat="42.098084643235104" lon="13.08226429725602"><ele>605.0</ele><time>2026-03-29T15:25:05Z</time></trkpt><trkpt lat="42.097976455021254" lon="13.082150392818546"><ele>604.0</ele><time>2026-03-29T15:25:06Z</time></trkpt><trkpt lat="42.09787003314509" lon="13.082035937243408"><ele>603.0</ele><time>2026-03-29T15:25:07Z</time></trkpt><trkpt lat="42.09775820302411" lon="13.081919585781185"><ele>602.0</ele><time>2026-03-29T15:25:08Z</time></trkpt><trkpt lat="42.09764634579568" lon="13.081802297838466"><ele>602.0</ele><time>2026-03-29T15:25:09Z</time></trkpt><trkpt lat="42.097530903373126" lon="13.081686995071305"><ele>602.0</ele><time>2026-03-29T15:25:10Z</time></trkpt><trkpt lat="42.097411925665725" lon="13.081570158851475"><ele>602.0</ele><time>2026-03-29T15:25:11Z</time></trkpt><trkpt lat="42.097294271723264" lon="13.081448622879728"><ele>602.0</ele><time>2026-03-29T15:25:12Z</time></trkpt><trkpt lat="42.09717925901846" lon="13.081307488246127"><ele>602.0</ele><time>2026-03-29T15:25:13Z</time></trkpt><trkpt lat="42.09706671436059" lon="13.081159155189036"><ele>602.0</ele><time>2026-03-29T15:25:14Z</time></trkpt><trkpt lat="42.091390237335744" lon="13.068439358175038"><ele>594.5</ele><time>2026-03-29T15:26:14.999Z</time></trkpt><trkpt lat="42.09124971657511" lon="13.068168775656106"><ele>587.0</ele><time>2026-03-29T15:26:15.999Z</time></trkpt><trkpt lat="42.09110983654192" lon="13.067901237662536"><ele>587.0</ele><time>2026-03-29T15:26:16.999Z</time></trkpt><trkpt lat="42.090963504119806" lon="13.067644946717813"><ele>587.0</ele><time>2026-03-29T15:26:17.999Z</time></trkpt><trkpt lat="42.09079910409507" lon="13.067410166234154"><ele>586.0</ele><time>2026-03-29T15:26:18.999Z</time></trkpt><trkpt lat="42.090621276216524" lon="13.067215233177834"><ele>585.0</ele><time>2026-03-29T15:26:19.999Z</time></trkpt><trkpt lat="42.09041087550921" lon="13.067041246455268"><ele>585.0</ele><time>2026-03-29T15:26:20.999Z</time></trkpt><trkpt lat="42.09018266850498" lon="13.0668956411893"><ele>585.0</ele><time>2026-03-29T15:26:21.999Z</time></trkpt><trkpt lat="42.089946548206704" lon="13.066751673955318"><ele>584.0</ele><time>2026-03-29T15:26:22.999Z</time></trkpt><trkpt lat="42.08971478753782" lon="13.066605313009905"><ele>583.0</ele><time>2026-03-29T15:26:23.999Z</time></trkpt><trkpt lat="42.089494367899455" lon="13.066459010633862"><ele>583.0</ele><time>2026-03-29T15:26:24.999Z</time></trkpt><trkpt lat="42.08929128304929" lon="13.06632065078682"><ele>583.0</ele><time>2026-03-29T15:26:25.999Z</time></trkpt><trkpt lat="42.089099967370935" lon="13.066190591382405"><ele>583.0</ele><time>2026-03-29T15:26:26.999Z</time></trkpt><trkpt lat="42.08892521942825" lon="13.066071312560714"><ele>583.6666666666667</ele><time>2026-03-29T15:26:27.999Z</time></trkpt><trkpt lat="42.08877061806574" lon="13.065965720191793"><ele>584.3333333333334</ele><time>2026-03-29T15:26:28.999Z</time></trkpt><trkpt lat="42.088632470541555" lon="13.06587136248781"><ele>585.0</ele><time>2026-03-29T15:26:29.999Z</time></trkpt><trkpt lat="42.0884971377715" lon="13.065787607791442"><ele>585.25</ele><time>2026-03-29T15:26:30.999Z</time></trkpt><trkpt lat="42.08836216776459" lon="13.065699537046465"><ele>585.5</ele><time>2026-03-29T15:26:31.999Z</time></trkpt><trkpt lat="42.08822679507392" lon="13.065612141203152"><ele>585.75</ele><time>2026-03-29T15:26:32.999Z</time></trkpt><trkpt lat="42.08810314386288" lon="13.065528397523986"><ele>586.0</ele><time>2026-03-29T15:26:33.999Z</time></trkpt><trkpt lat="42.08799357040133" lon="13.065454886080602"><ele>586.5</ele><time>2026-03-29T15:26:34.999Z</time></trkpt><trkpt lat="42.08788705012" lon="13.065381000205258"><ele>587.0</ele><time>2026-03-29T15:26:35.999Z</time></trkpt><trkpt lat="42.08776506784333" lon="13.065298390206692"><ele>587.5</ele><time>2026-03-29T15:26:36.999Z</time></trkpt><trkpt lat="42.08763452506398" lon="13.065208740539116"><ele>588.0</ele><time>2026-03-29T15:26:37.999Z</time></trkpt><trkpt lat="42.087498700037244" lon="13.06510330020548"><ele>588.3333333333334</ele><time>2026-03-29T15:26:38.999Z</time></trkpt><trkpt lat="42.087360131791435" lon="13.064988935454338"><ele>588.6666666666667</ele><time>2026-03-29T15:26:39.999Z</time></trkpt><trkpt lat="42.08722285010317" lon="13.064869139888618"><ele>589.0</ele><time>2026-03-29T15:26:40.999Z</time></trkpt><trkpt lat="42.08708052962806" lon="13.064743734123857"><ele>589.3333333333334</ele><time>2026-03-29T15:26:41.999Z</time></trkpt><trkpt lat="42.08693970760611" lon="13.0646198402562"><ele>589.6666666666666</ele><time>2026-03-29T15:26:42.999Z</time></trkpt><trkpt lat="42.08681425006174" lon="13.064503570534812"><ele>590.0</ele><time>2026-03-29T15:26:43.999Z</time></trkpt><trkpt lat="42.0866893568416" lon="13.06438934657298"><ele>590.3333333333333</ele><time>2026-03-29T15:26:44.999Z</time></trkpt><trkpt lat="42.08655477634894" lon="13.064272830055916"><ele>590.6666666666666</ele><time>2026-03-29T15:26:45.999Z</time></trkpt><trkpt lat="42.08641785218249" lon="13.064146338458396"><ele>591.0</ele><time>2026-03-29T15:26:46.998Z</time></trkpt><trkpt lat="42.086294319090484" lon="13.06402578106784"><ele>591.0</ele><time>2026-03-29T15:26:48Z</time></trkpt><trkpt lat="42.08618341102701" lon="13.063916296446457"><ele>591.0</ele><time>2026-03-29T15:26:49Z</time></trkpt><trkpt lat="42.08608460472303" lon="13.063821448291755"><ele>591.0</ele><time>2026-03-29T15:26:50Z</time></trkpt><trkpt lat="42.08599074417185" lon="13.063732048661626"><ele>591.0</ele><time>2026-03-29T15:26:51Z</time></trkpt><trkpt lat="42.08589970259902" lon="13.063647511018306"><ele>591.0</ele><time>2026-03-29T15:26:52Z</time></trkpt><trkpt lat="42.085812612502586" lon="13.063571602615372"><ele>591.0</ele><time>2026-03-29T15:26:53Z</time></trkpt><trkpt lat="42.085720967969316" lon="13.06349144221782"><ele>591.0</ele><time>2026-03-29T15:26:54Z</time></trkpt><trkpt lat="42.08563617846653" lon="13.063411077436026"><ele>591.0</ele><time>2026-03-29T15:26:55Z</time></trkpt><trkpt lat="42.0855622258637" lon="13.063338370999187"><ele>591.0</ele><time>2026-03-29T15:26:56Z</time></trkpt><trkpt lat="42.08549615675669" lon="13.063277827211618"><ele>591.0</ele><time>2026-03-29T15:26:57Z</time></trkpt><trkpt lat="42.0854367286384" lon="13.063224099798777"><ele>591.0</ele><time>2026-03-29T15:26:58Z</time></trkpt><trkpt lat="42.085377832873164" lon="13.063183234258554"><ele>591.0</ele><time>2026-03-29T15:26:59Z</time></trkpt><trkpt lat="42.08530497072638" lon="13.063169159216862"><ele>591.0</ele><time>2026-03-29T15:27:00Z</time></trkpt><trkpt lat="42.085225852285305" lon="13.063174614598035"><ele>591.0</ele><time>2026-03-29T15:27:01Z</time></trkpt><trkpt lat="42.085144147576564" lon="13.06315498962378"><ele>591.0</ele><time>2026-03-29T15:27:02Z</time></trkpt><trkpt lat="42.08507292118191" lon="13.063113380242134"><ele>591.0</ele><time>2026-03-29T15:27:03Z</time></trkpt><trkpt lat="42.084993438971" lon="13.063024776750108"><ele>591.0</ele><time>2026-03-29T15:27:05Z</time></trkpt><trkpt lat="42.08491763919427" lon="13.063000540135878"><ele>591.0</ele><time>2026-03-29T15:27:08Z</time></trkpt><trkpt lat="42.084875152067724" lon="13.063070489732695"><ele>591.0</ele><time>2026-03-29T15:27:11Z</time></trkpt><trkpt lat="42.08431170481494" lon="13.06211540508861"><ele>591.0</ele><time>2026-03-29T15:54:14.999Z</time></trkpt><trkpt lat="42.08422945248386" lon="13.062037766601843"><ele>591.0</ele><time>2026-03-29T15:54:15.999Z</time></trkpt><trkpt lat="42.08413595255972" lon="13.061970871590994"><ele>591.0</ele><time>2026-03-29T15:54:16.999Z</time></trkpt><trkpt lat="42.08404647661076" lon="13.061886541202021"><ele>591.0</ele><time>2026-03-29T15:54:17.999Z</time></trkpt><trkpt lat="42.08395264424796" lon="13.061797857167518"><ele>591.0</ele><time>2026-03-29T15:54:18.999Z</time></trkpt><trkpt lat="42.08386281075608" lon="13.061710709069198"><ele>591.2</ele><time>2026-03-29T15:54:19.999Z</time></trkpt><trkpt lat="42.08377643754185" lon="13.061631392404728"><ele>591.4000000000001</ele><time>2026-03-29T15:54:20.999Z</time></trkpt><trkpt lat="42.083691900285515" lon="13.061552111281776"><ele>591.6</ele><time>2026-03-29T15:54:21.999Z</time></trkpt><trkpt lat="42.083607459599115" lon="13.061466602612786"><ele>591.8000000000001</ele><time>2026-03-29T15:54:22.999Z</time></trkpt><trkpt lat="42.083522847856734" lon="13.061380626943546"><ele>592.0</ele><time>2026-03-29T15:54:23.999Z</time></trkpt><trkpt lat="42.08343866303018" lon="13.061296730789742"><ele>592.0</ele><time>2026-03-29T15:54:24.999Z</time></trkpt><trkpt lat="42.083355999611086" lon="13.061215400523452"><ele>592.0</ele><time>2026-03-29T15:54:25.999Z</time></trkpt><trkpt lat="42.0832745243547" lon="13.061129775041422"><ele>592.0</ele><time>2026-03-29T15:54:26.999Z</time></trkpt><trkpt lat="42.08318507195722" lon="13.061043527291726"><ele>592.0</ele><time>2026-03-29T15:54:27.999Z</time></trkpt><trkpt lat="42.08308583746064" lon="13.060950206415802"><ele>592.0</ele><time>2026-03-29T15:54:28.999Z</time></trkpt><trkpt lat="42.082984179566374" lon="13.060852133178543"><ele>593.0</ele><time>2026-03-29T15:54:29.999Z</time></trkpt><trkpt lat="42.08287674600732" lon="13.060748595516394"><ele>594.0</ele><time>2026-03-29T15:54:30.999Z</time></trkpt><trkpt lat="42.08276064896828" lon="13.060632234537735"><ele>595.0</ele><time>2026-03-29T15:54:31.999Z</time></trkpt><trkpt lat="42.082620923480704" lon="13.060493541808441"><ele>595.0</ele><time>2026-03-29T15:54:32.999Z</time></trkpt><trkpt lat="42.08248604349234" lon="13.06036105814233"><ele>595.0</ele><time>2026-03-29T15:54:33.999Z</time></trkpt><trkpt lat="42.08235757266592" lon="13.060236994692085"><ele>595.0</ele><time>2026-03-29T15:54:34.999Z</time></trkpt><trkpt lat="42.08223503173268" lon="13.060120342734079"><ele>594.75</ele><time>2026-03-29T15:54:35.999Z</time></trkpt><trkpt lat="42.08211840601448" lon="13.06000680149462"><ele>594.5</ele><time>2026-03-29T15:54:36.999Z</time></trkpt><trkpt lat="42.082006573521845" lon="13.059896428393921"><ele>594.25</ele><time>2026-03-29T15:54:37.999Z</time></trkpt><trkpt lat="42.081892178164246" lon="13.059785637491874"><ele>594.0</ele><time>2026-03-29T15:54:38.999Z</time></trkpt><trkpt lat="42.08177500910088" lon="13.0596721926334"><ele>594.0</ele><time>2026-03-29T15:54:39.999Z</time></trkpt><trkpt lat="42.08165753683858" lon="13.059564743913379"><ele>594.0</ele><time>2026-03-29T15:54:40.999Z</time></trkpt><trkpt lat="42.08154676339204" lon="13.059463316402553"><ele>594.0</ele><time>2026-03-29T15:54:41.999Z</time></trkpt><trkpt lat="42.08145244788194" lon="13.059369548374352"><ele>594.0</ele><time>2026-03-29T15:54:42.999Z</time></trkpt><trkpt lat="42.08136643948412" lon="13.059285611460826"><ele>594.6</ele><time>2026-03-29T15:54:43.999Z</time></trkpt><trkpt lat="42.0812985545286" lon="13.059202178777852"><ele>595.2</ele><time>2026-03-29T15:54:44.999Z</time></trkpt><trkpt lat="42.081239225158825" lon="13.059124527040185"><ele>595.8000000000001</ele><time>2026-03-29T15:54:45.999Z</time></trkpt><trkpt lat="42.08119597510739" lon="13.05901015894195"><ele>596.4</ele><time>2026-03-29T15:54:46.999Z</time></trkpt><trkpt lat="42.0811845644832" lon="13.058881811335873"><ele>597.0</ele><time>2026-03-29T15:54:47.999Z</time></trkpt><trkpt lat="42.08120315109612" lon="13.058751949733995"><ele>597.0</ele><time>2026-03-29T15:54:48.999Z</time></trkpt><trkpt lat="42.081247338863804" lon="13.058624774031259"><ele>597.0</ele><time>2026-03-29T15:54:49.999Z</time></trkpt><trkpt lat="42.08128000863246" lon="13.058484876471402"><ele>597.0</ele><time>2026-03-29T15:54:50.999Z</time></trkpt><trkpt lat="42.08128438890576" lon="13.058345997753893"><ele>597.0</ele><time>2026-03-29T15:54:51.999Z</time></trkpt><trkpt lat="42.08125431921193" lon="13.058214129614965"><ele>597.0</ele><time>2026-03-29T15:54:52.999Z</time></trkpt><trkpt lat="42.081186792433016" lon="13.058093036078061"><ele>596.75</ele><time>2026-03-29T15:54:53.999Z</time></trkpt><trkpt lat="42.0810994669362" lon="13.057985313681959"><ele>596.5</ele><time>2026-03-29T15:54:54.998Z</time></trkpt><trkpt lat="42.08099262076538" lon="13.057892814415554"><ele>596.25</ele><time>2026-03-29T15:54:55.998Z</time></trkpt><trkpt lat="42.08087383381637" lon="13.057797819123937"><ele>596.0</ele><time>2026-03-29T15:54:56.998Z</time></trkpt><trkpt lat="42.08075429291832" lon="13.057700901950476"><ele>596.0</ele><time>2026-03-29T15:54:57.998Z</time></trkpt><trkpt lat="42.08061984078351" lon="13.057592203254929"><ele>596.0</ele><time>2026-03-29T15:54:58.998Z</time></trkpt><trkpt lat="42.080482073832755" lon="13.057481925980374"><ele>596.0</ele><time>2026-03-29T15:54:59.998Z</time></trkpt><trkpt lat="42.08034671835261" lon="13.057369707179879"><ele>596.0</ele><time>2026-03-29T15:55:00.998Z</time></trkpt><trkpt lat="42.08020767999362" lon="13.05725943108753"><ele>596.0</ele><time>2026-03-29T15:55:01.998Z</time></trkpt><trkpt lat="42.08007804695409" lon="13.057184108201586"><ele>596.0</ele><time>2026-03-29T15:55:02.998Z</time></trkpt><trkpt lat="42.079944353858814" lon="13.057150942962293"><ele>596.0</ele><time>2026-03-29T15:55:03.998Z</time></trkpt><trkpt lat="42.07980608844582" lon="13.057168683551543"><ele>596.6666666666666</ele><time>2026-03-29T15:55:04.998Z</time></trkpt><trkpt lat="42.07966324866614" lon="13.057210648285077"><ele>597.3333333333334</ele><time>2026-03-29T15:55:05.998Z</time></trkpt><trkpt lat="42.07951271119032" lon="13.057181082181287"><ele>598.0</ele><time>2026-03-29T15:55:06.998Z</time></trkpt><trkpt lat="42.079360330119755" lon="13.057080953686038"><ele>598.0</ele><time>2026-03-29T15:55:07.998Z</time></trkpt><trkpt lat="42.0792007788394" lon="13.056973358100613"><ele>598.0</ele><time>2026-03-29T15:55:09Z</time></trkpt><trkpt lat="42.0790042084497" lon="13.056936196557489"><ele>598.0</ele><time>2026-03-29T15:55:10Z</time></trkpt><trkpt lat="42.078823842492476" lon="13.056937611611273"><ele>598.0</ele><time>2026-03-29T15:55:11Z</time></trkpt><trkpt lat="42.078646885344604" lon="13.056880448553244"><ele>598.0</ele><time>2026-03-29T15:55:12Z</time></trkpt><trkpt lat="42.078480725222285" lon="13.056742374000763"><ele>598.0</ele><time>2026-03-29T15:55:13Z</time></trkpt><trkpt lat="42.0783137227223" lon="13.056581781480048"><ele>619.0</ele><time>2026-03-29T15:55:14Z</time></trkpt><trkpt lat="42.06643636884868" lon="13.045647056284167"><ele>619.0</ele><time>2026-03-29T15:56:14.999Z</time></trkpt><trkpt lat="42.066230818605106" lon="13.045521216361164"><ele>619.0</ele><time>2026-03-29T15:56:15.999Z</time></trkpt><trkpt lat="42.06604536251387" lon="13.045405765614936"><ele>619.0</ele><time>2026-03-29T15:56:16.999Z</time></trkpt><trkpt lat="42.06586471426975" lon="13.045283960799651"><ele>618.6666666666667</ele><time>2026-03-29T15:56:17.999Z</time></trkpt><trkpt lat="42.06568678332713" lon="13.045147493190065"><ele>618.3333333333334</ele><time>2026-03-29T15:56:18.999Z</time></trkpt><trkpt lat="42.065520625585" lon="13.044990832360936"><ele>618.0</ele><time>2026-03-29T15:56:19.999Z</time></trkpt><trkpt lat="42.06537271031856" lon="13.044805771606514"><ele>619.3333333333334</ele><time>2026-03-29T15:56:20.999Z</time></trkpt><trkpt lat="42.06525453352736" lon="13.044577143144885"><ele>620.6666666666667</ele><time>2026-03-29T15:56:21.999Z</time></trkpt><trkpt lat="42.06515217848587" lon="13.04431072574068"><ele>622.0</ele><time>2026-03-29T15:56:22.999Z</time></trkpt><trkpt lat="42.06505533956894" lon="13.044071143152635"><ele>622.25</ele><time>2026-03-29T15:56:23.999Z</time></trkpt><trkpt lat="42.06496066759768" lon="13.04386897656994"><ele>622.5</ele><time>2026-03-29T15:56:24.999Z</time></trkpt><trkpt lat="42.06488181742174" lon="13.043698943997235"><ele>622.75</ele><time>2026-03-29T15:56:25.999Z</time></trkpt><trkpt lat="42.06481786969942" lon="13.043561100444753"><ele>623.0</ele><time>2026-03-29T15:56:26.999Z</time></trkpt><trkpt lat="42.06477348409938" lon="13.043456298414814"><ele>623.0</ele><time>2026-03-29T15:56:27.999Z</time></trkpt><trkpt lat="42.06473378119253" lon="13.043368111192208"><ele>623.0</ele><time>2026-03-29T15:56:28.999Z</time></trkpt><trkpt lat="42.06470328059458" lon="13.043282625602908"><ele>623.0</ele><time>2026-03-29T15:56:29.999Z</time></trkpt><trkpt lat="42.06468248681983" lon="13.043183183384867"><ele>623.0</ele><time>2026-03-29T15:56:30.999Z</time></trkpt><trkpt lat="42.064671718789874" lon="13.043070557896336"><ele>623.0</ele><time>2026-03-29T15:56:31.999Z</time></trkpt><trkpt lat="42.06464931495362" lon="13.042962691685421"><ele>623.0</ele><time>2026-03-29T15:56:32.999Z</time></trkpt><trkpt lat="42.06460487663167" lon="13.042882409008541"><ele>623.0</ele><time>2026-03-29T15:56:33.999Z</time></trkpt><trkpt lat="42.06453743154813" lon="13.042835113384369"><ele>623.0</ele><time>2026-03-29T15:56:34.999Z</time></trkpt><trkpt lat="42.06445485623515" lon="13.042812348798568"><ele>623.0</ele><time>2026-03-29T15:56:35.999Z</time></trkpt><trkpt lat="42.06435317302823" lon="13.042785779853125"><ele>623.0</ele><time>2026-03-29T15:56:36.999Z</time></trkpt><trkpt lat="42.064242962044105" lon="13.042732816624282"><ele>623.0</ele><time>2026-03-29T15:56:37.999Z</time></trkpt><trkpt lat="42.0641205713539" lon="13.042635630723993"><ele>623.3333333333333</ele><time>2026-03-29T15:56:38.999Z</time></trkpt><trkpt lat="42.063974588170254" lon="13.042507543944408"><ele>623.6666666666666</ele><time>2026-03-29T15:56:39.999Z</time></trkpt><trkpt lat="42.06380244095597" lon="13.042342716398366"><ele>624.0</ele><time>2026-03-29T15:56:40.999Z</time></trkpt><trkpt lat="42.06362961010255" lon="13.042172730980722"><ele>625.0</ele><time>2026-03-29T15:56:41.999Z</time></trkpt><trkpt lat="42.063436780620385" lon="13.041986667086942"><ele>626.0</ele><time>2026-03-29T15:56:42.999Z</time></trkpt><trkpt lat="42.06323578296721" lon="13.041797664031918"><ele>626.0</ele><time>2026-03-29T15:56:43.999Z</time></trkpt><trkpt lat="42.063024538360814" lon="13.041603215663502"><ele>626.0</ele><time>2026-03-29T15:56:44.999Z</time></trkpt><trkpt lat="42.062812352241025" lon="13.041415870352813"><ele>626.0</ele><time>2026-03-29T15:56:45.999Z</time></trkpt><trkpt lat="42.06262302643151" lon="13.041246159686194"><ele>626.0</ele><time>2026-03-29T15:56:46.999Z</time></trkpt><trkpt lat="42.06244801512527" lon="13.04108396879817"><ele>626.0</ele><time>2026-03-29T15:56:47.999Z</time></trkpt><trkpt lat="42.062285793806865" lon="13.040914146907292"><ele>625.0</ele><time>2026-03-29T15:56:48.999Z</time></trkpt><trkpt lat="42.062139156345005" lon="13.040704731372246"><ele>624.0</ele><time>2026-03-29T15:56:49.999Z</time></trkpt><trkpt lat="42.062008957439375" lon="13.040466168902254"><ele>623.0</ele><time>2026-03-29T15:56:50.999Z</time></trkpt><trkpt lat="42.06188344480821" lon="13.04022285239051"><ele>622.0</ele><time>2026-03-29T15:56:51.999Z</time></trkpt><trkpt lat="42.06175976321166" lon="13.039959655506781"><ele>621.0</ele><time>2026-03-29T15:56:52.999Z</time></trkpt><trkpt lat="42.06164782309992" lon="13.039683547950581"><ele>617.5</ele><time>2026-03-29T15:56:53.999Z</time></trkpt><trkpt lat="42.061550288322366" lon="13.03939473446414"><ele>614.0</ele><time>2026-03-29T15:56:54.999Z</time></trkpt><trkpt lat="42.06147120651112" lon="13.039077801888352"><ele>613.0</ele><time>2026-03-29T15:56:55.999Z</time></trkpt><trkpt lat="42.06141052448234" lon="13.038744847579013"><ele>612.0</ele><time>2026-03-29T15:56:56.999Z</time></trkpt><trkpt lat="42.06137251149746" lon="13.038390416294126"><ele>611.5</ele><time>2026-03-29T15:56:57.999Z</time></trkpt><trkpt lat="42.06134794400961" lon="13.038015683283856"><ele>611.0</ele><time>2026-03-29T15:56:58.998Z</time></trkpt><trkpt lat="42.06133457788229" lon="13.037629532555142"><ele>610.5</ele><time>2026-03-29T15:56:59.998Z</time></trkpt><trkpt lat="42.0613208590692" lon="13.037238610893379"><ele>610.0</ele><time>2026-03-29T15:57:00.998Z</time></trkpt><trkpt lat="42.06130645076625" lon="13.03685069809639"><ele>610.0</ele><time>2026-03-29T15:57:01.998Z</time></trkpt><trkpt lat="42.06128960301209" lon="13.036469346281622"><ele>610.0</ele><time>2026-03-29T15:57:02.998Z</time></trkpt><trkpt lat="42.06127459252847" lon="13.036081326504183"><ele>610.0</ele><time>2026-03-29T15:57:03.998Z</time></trkpt><trkpt lat="42.06123602571973" lon="13.035678599938745"><ele>610.0</ele><time>2026-03-29T15:57:04.998Z</time></trkpt><trkpt lat="42.06118216615295" lon="13.03527648694226"><ele>611.0</ele><time>2026-03-29T15:57:05.998Z</time></trkpt><trkpt lat="42.06110880711785" lon="13.034881026670242"><ele>612.0</ele><time>2026-03-29T15:57:06.998Z</time></trkpt><trkpt lat="42.06102849135202" lon="13.034485836628356"><ele>612.5</ele><time>2026-03-29T15:57:07.998Z</time></trkpt><trkpt lat="42.06094888390717" lon="13.034095101147475"><ele>613.0</ele><time>2026-03-29T15:57:08.998Z</time></trkpt><trkpt lat="42.060875086946886" lon="13.033714815296754"><ele>613.0</ele><time>2026-03-29T15:57:09.998Z</time></trkpt><trkpt lat="42.06081030567489" lon="13.033350808080481"><ele>613.0</ele><time>2026-03-29T15:57:10.998Z</time></trkpt><trkpt lat="42.0607541601956" lon="13.032973449256499"><ele>619.5</ele><time>2026-03-29T15:57:11.998Z</time></trkpt><trkpt lat="42.06072684857706" lon="13.032588791507584"><ele>626.0</ele><time>2026-03-29T15:57:12.998Z</time></trkpt><trkpt lat="42.060731482714296" lon="13.032202602352298"><ele>571.0</ele><time>2026-03-29T15:57:13.998Z</time></trkpt><trkpt lat="42.05592327378921" lon="13.015502668977467"><ele>570.5</ele><time>2026-03-29T15:58:14.999Z</time></trkpt><trkpt lat="42.05563833476239" lon="13.015522448020043"><ele>570.0</ele><time>2026-03-29T15:58:15.999Z</time></trkpt><trkpt lat="42.05536413649496" lon="13.015538534434661"><ele>570.0</ele><time>2026-03-29T15:58:16.999Z</time></trkpt><trkpt lat="42.05509009753366" lon="13.015480877428264"><ele>570.0</ele><time>2026-03-29T15:58:17.999Z</time></trkpt><trkpt lat="42.05481096014763" lon="13.015416448566125"><ele>570.5</ele><time>2026-03-29T15:58:18.999Z</time></trkpt><trkpt lat="42.05453788318154" lon="13.015323204342394"><ele>571.0</ele><time>2026-03-29T15:58:19.999Z</time></trkpt><trkpt lat="42.054271700115066" lon="13.01519997162586"><ele>570.0</ele><time>2026-03-29T15:58:20.999Z</time></trkpt><trkpt lat="42.05399757382321" lon="13.015052331991479"><ele>569.0</ele><time>2026-03-29T15:58:21.999Z</time></trkpt><trkpt lat="42.053714669208304" lon="13.014899252143897"><ele>569.0</ele><time>2026-03-29T15:58:22.999Z</time></trkpt><trkpt lat="42.053419642126876" lon="13.014763489255584"><ele>569.0</ele><time>2026-03-29T15:58:23.999Z</time></trkpt><trkpt lat="42.05313360355666" lon="13.014604684142945"><ele>567.5</ele><time>2026-03-29T15:58:24.999Z</time></trkpt><trkpt lat="42.052859539871264" lon="13.014454088587895"><ele>566.0</ele><time>2026-03-29T15:58:25.999Z</time></trkpt><trkpt lat="42.05260299837803" lon="13.014316001359635"><ele>562.5</ele><time>2026-03-29T15:58:26.999Z</time></trkpt><trkpt lat="42.05235954291977" lon="13.014191167458527"><ele>559.0</ele><time>2026-03-29T15:58:27.998Z</time></trkpt><trkpt lat="42.05214422269605" lon="13.014078300611402"><ele>565.0</ele><time>2026-03-29T15:58:28.998Z</time></trkpt><trkpt lat="42.051964752685684" lon="13.013941029427787"><ele>571.0</ele><time>2026-03-29T15:58:29.998Z</time></trkpt><trkpt lat="42.0518025254298" lon="13.013776054504456"><ele>577.0</ele><time>2026-03-29T15:58:30.998Z</time></trkpt><trkpt lat="42.05165304921122" lon="13.013564175648074"><ele>580.0</ele><time>2026-03-29T15:58:31.998Z</time></trkpt><trkpt lat="42.05151830935256" lon="13.013337173886267"><ele>583.0</ele><time>2026-03-29T15:58:32.998Z</time></trkpt><trkpt lat="42.05135483947836" lon="13.013184930100508"><ele>586.0</ele><time>2026-03-29T15:58:33.998Z</time></trkpt><trkpt lat="42.0511817338963" lon="13.013040714657942"><ele>586.0</ele><time>2026-03-29T15:58:34.998Z</time></trkpt><trkpt lat="42.05101362255509" lon="13.012910724042102"><ele>586.0</ele><time>2026-03-29T15:58:35.998Z</time></trkpt><trkpt lat="42.05082091911665" lon="13.012849069363797"><ele>586.0</ele><time>2026-03-29T15:58:36.998Z</time></trkpt><trkpt lat="42.050640811966126" lon="13.012791230305218"><ele>584.0</ele><time>2026-03-29T15:58:37.998Z</time></trkpt><trkpt lat="42.05048301844054" lon="13.012678321653153"><ele>582.0</ele><time>2026-03-29T15:58:38.998Z</time></trkpt><trkpt lat="42.05028840812878" lon="13.01260313224674"><ele>580.0</ele><time>2026-03-29T15:58:39.998Z</time></trkpt><trkpt lat="42.050085295454394" lon="13.012586117992251"><ele>580.3333333333334</ele><time>2026-03-29T15:58:40.998Z</time></trkpt><trkpt lat="42.04990037957019" lon="13.012567069292533"><ele>580.6666666666666</ele><time>2026-03-29T15:58:41.998Z</time></trkpt><trkpt lat="42.04972878726949" lon="13.012566101131252"><ele>581.0</ele><time>2026-03-29T15:58:42.998Z</time></trkpt><trkpt lat="42.04954253613427" lon="13.01261041377034"><ele>581.0</ele><time>2026-03-29T15:58:43.998Z</time></trkpt><trkpt lat="42.04935125265287" lon="13.012724007637166"><ele>581.0</ele><time>2026-03-29T15:58:44.998Z</time></trkpt><trkpt lat="42.049188573379965" lon="13.012867099599418"><ele>581.0</ele><time>2026-03-29T15:58:45.998Z</time></trkpt><trkpt lat="42.04905619000718" lon="13.013005692144404"><ele>582.0</ele><time>2026-03-29T15:58:46.998Z</time></trkpt><trkpt lat="42.04889994909833" lon="13.013138563293007"><ele>583.0</ele><time>2026-03-29T15:58:47.998Z</time></trkpt><trkpt lat="42.04870619982667" lon="13.013229857187165"><ele>584.0</ele><time>2026-03-29T15:58:48.998Z</time></trkpt><trkpt lat="42.048538674784005" lon="13.013336926886225"><ele>576.0</ele><time>2026-03-29T15:58:49.998Z</time></trkpt><trkpt lat="42.04833691472122" lon="13.013337093634048"><ele>568.0</ele><time>2026-03-29T15:58:50.998Z</time></trkpt><trkpt lat="42.048167765306616" lon="13.01340926918252"><ele>560.0</ele><time>2026-03-29T15:58:51.998Z</time></trkpt><trkpt lat="42.04800349466578" lon="13.013529906480457"><ele>558.6666666666666</ele><time>2026-03-29T15:58:52.998Z</time></trkpt><trkpt lat="42.047849535183" lon="13.013723111327769"><ele>557.3333333333334</ele><time>2026-03-29T15:58:53.998Z</time></trkpt><trkpt lat="42.04771614295702" lon="13.013932591355196"><ele>556.0</ele><time>2026-03-29T15:58:54.998Z</time></trkpt><trkpt lat="42.0475992949216" lon="13.014111271722607"><ele>554.2</ele><time>2026-03-29T15:58:55.998Z</time></trkpt><trkpt lat="42.0475015364279" lon="13.014239070256725"><ele>552.4000000000001</ele><time>2026-03-29T15:58:56.998Z</time></trkpt><trkpt lat="42.04742577818196" lon="13.014352765933538"><ele>550.6</ele><time>2026-03-29T15:58:57.998Z</time></trkpt><trkpt lat="42.04735900820736" lon="13.01443210675666"><ele>548.8000000000001</ele><time>2026-03-29T15:58:58.998Z</time></trkpt><trkpt lat="42.047271513562364" lon="13.01446347813582"><ele>547.0</ele><time>2026-03-29T15:58:59.998Z</time></trkpt><trkpt lat="42.04716934060146" lon="13.014408387068507"><ele>546.6666666666667</ele><time>2026-03-29T15:59:00.998Z</time></trkpt><trkpt lat="42.04708670471315" lon="13.014295352693113"><ele>546.3333333333334</ele><time>2026-03-29T15:59:01.998Z</time></trkpt><trkpt lat="42.047007176226785" lon="13.014110552764793"><ele>546.0</ele><time>2026-03-29T15:59:02.998Z</time></trkpt><trkpt lat="42.04689973773406" lon="13.013916363825368"><ele>546.75</ele><time>2026-03-29T15:59:03.998Z</time></trkpt><trkpt lat="42.04679929145765" lon="13.013739689654777"><ele>547.5</ele><time>2026-03-29T15:59:04.998Z</time></trkpt><trkpt lat="42.04669272317512" lon="13.01361387290737"><ele>548.25</ele><time>2026-03-29T15:59:05.998Z</time></trkpt><trkpt lat="42.04657877556717" lon="13.013536883290708"><ele>549.0</ele><time>2026-03-29T15:59:06.998Z</time></trkpt><trkpt lat="42.04645166195369" lon="13.013516527655968"><ele>549.0</ele><time>2026-03-29T15:59:07.998Z</time></trkpt><trkpt lat="42.04632149548684" lon="13.01359101290528"><ele>549.0</ele><time>2026-03-29T15:59:08.998Z</time></trkpt><trkpt lat="42.04621718509556" lon="13.013736316459028"><ele>549.0</ele><time>2026-03-29T15:59:09.998Z</time></trkpt><trkpt lat="42.046131022318065" lon="13.013951412196267"><ele>546.0</ele><time>2026-03-29T15:59:10.998Z</time></trkpt><trkpt lat="42.046051958729926" lon="13.014178998933046"><ele>543.0</ele><time>2026-03-29T15:59:11.998Z</time></trkpt><trkpt lat="42.04598009748776" lon="13.014393356742891"><ele>540.0</ele><time>2026-03-29T15:59:12.998Z</time></trkpt><trkpt lat="42.04592963610674" lon="13.014596804344906"><ele>469.0</ele><time>2026-03-29T15:59:13.998Z</time></trkpt><trkpt lat="42.038971174395606" lon="13.015110601430067"><ele>469.0</ele><time>2026-03-29T16:00:14.999Z</time></trkpt><trkpt lat="42.03907613031106" lon="13.015294217831341"><ele>469.0</ele><time>2026-03-29T16:00:15.999Z</time></trkpt><trkpt lat="42.03917589535846" lon="13.015490530267078"><ele>469.0</ele><time>2026-03-29T16:00:16.999Z</time></trkpt><trkpt lat="42.039259012865664" lon="13.01567665228751"><ele>471.25</ele><time>2026-03-29T16:00:17.999Z</time></trkpt><trkpt lat="42.03933930884872" lon="13.015836386226814"><ele>473.5</ele><time>2026-03-29T16:00:18.999Z</time></trkpt><trkpt lat="42.03941845994027" lon="13.01596893878029"><ele>475.75</ele><time>2026-03-29T16:00:19.999Z</time></trkpt><trkpt lat="42.03951412055907" lon="13.016068066872776"><ele>478.0</ele><time>2026-03-29T16:00:20.999Z</time></trkpt><trkpt lat="42.03963871226937" lon="13.016108904560827"><ele>478.0</ele><time>2026-03-29T16:00:21.999Z</time></trkpt><trkpt lat="42.03979759156401" lon="13.016110471973382"><ele>478.0</ele><time>2026-03-29T16:00:22.999Z</time></trkpt><trkpt lat="42.03993478034855" lon="13.01608845594578"><ele>478.0</ele><time>2026-03-29T16:00:23.999Z</time></trkpt><trkpt lat="42.040068418185484" lon="13.016046910707123"><ele>478.0</ele><time>2026-03-29T16:00:24.999Z</time></trkpt><trkpt lat="42.040179282063306" lon="13.015938513424127"><ele>479.25</ele><time>2026-03-29T16:00:25.999Z</time></trkpt><trkpt lat="42.04028726560809" lon="13.01583683466278"><ele>480.5</ele><time>2026-03-29T16:00:26.999Z</time></trkpt><trkpt lat="42.04042069477099" lon="13.015811874708712"><ele>481.75</ele><time>2026-03-29T16:00:27.999Z</time></trkpt><trkpt lat="42.04055899265305" lon="13.015786179540992"><ele>483.0</ele><time>2026-03-29T16:00:28.999Z</time></trkpt><trkpt lat="42.04071719060068" lon="13.015781659074515"><ele>487.79999999999995</ele><time>2026-03-29T16:00:29.999Z</time></trkpt><trkpt lat="42.04084928376912" lon="13.01577484435601"><ele>492.59999999999997</ele><time>2026-03-29T16:00:30.999Z</time></trkpt><trkpt lat="42.04096883461249" lon="13.015765087091816"><ele>497.40000000000003</ele><time>2026-03-29T16:00:31.999Z</time></trkpt><trkpt lat="42.04107919634802" lon="13.015785923270327"><ele>502.20000000000005</ele><time>2026-03-29T16:00:32.999Z</time></trkpt><trkpt lat="42.04116018756565" lon="13.015791912728343"><ele>507.0</ele><time>2026-03-29T16:00:33.999Z</time></trkpt><trkpt lat="42.041227658729674" lon="13.01581945647116"><ele>500.25</ele><time>2026-03-29T16:00:34.999Z</time></trkpt><trkpt lat="42.04127600838189" lon="13.01595861349548"><ele>493.5</ele><time>2026-03-29T16:00:36.999Z</time></trkpt><trkpt lat="42.04121830831897" lon="13.01605199478561"><ele>486.75</ele><time>2026-03-29T16:00:37.999Z</time></trkpt><trkpt lat="42.04119603574139" lon="13.016131315034404"><ele>480.0</ele><time>2026-03-29T16:00:38.999Z</time></trkpt><trkpt lat="42.040922758470685" lon="13.016052032293604"><ele>481.0</ele><time>2026-03-29T16:00:39.999Z</time></trkpt><trkpt lat="42.040759856363195" lon="13.016072685424636"><ele>482.0</ele><time>2026-03-29T16:00:40.999Z</time></trkpt><trkpt lat="42.040612621258354" lon="13.016106430704918"><ele>483.0</ele><time>2026-03-29T16:00:41.999Z</time></trkpt><trkpt lat="42.04043687030383" lon="13.016141077895497"><ele>483.0</ele><time>2026-03-29T16:00:42.999Z</time></trkpt><trkpt lat="42.04027416626518" lon="13.016168932199715"><ele>483.0</ele><time>2026-03-29T16:00:43.999Z</time></trkpt><trkpt lat="42.04011662816898" lon="13.0162396270181"><ele>483.0</ele><time>2026-03-29T16:00:44.999Z</time></trkpt><trkpt lat="42.0399634012488" lon="13.016337094976688"><ele>481.75</ele><time>2026-03-29T16:00:45.999Z</time></trkpt><trkpt lat="42.03982489632349" lon="13.016428485532424"><ele>480.5</ele><time>2026-03-29T16:00:46.999Z</time></trkpt><trkpt lat="42.03969403682784" lon="13.01649895313606"><ele>479.25</ele><time>2026-03-29T16:00:47.999Z</time></trkpt><trkpt lat="42.03954923505111" lon="13.016549549684516"><ele>478.0</ele><time>2026-03-29T16:00:48.999Z</time></trkpt><trkpt lat="42.03941359573231" lon="13.016571747488376"><ele>478.0</ele><time>2026-03-29T16:00:49.999Z</time></trkpt><trkpt lat="42.03926384173503" lon="13.016551244034018"><ele>478.0</ele><time>2026-03-29T16:00:50.999Z</time></trkpt><trkpt lat="42.03910574728037" lon="13.016476763875097"><ele>478.0</ele><time>2026-03-29T16:00:51.999Z</time></trkpt><trkpt lat="42.038927030606914" lon="13.016392740154982"><ele>472.5</ele><time>2026-03-29T16:00:52.999Z</time></trkpt><trkpt lat="42.038775783411864" lon="13.016335549514409"><ele>467.0</ele><time>2026-03-29T16:00:53.999Z</time></trkpt><trkpt lat="42.038650824870444" lon="13.016294236999652"><ele>461.5</ele><time>2026-03-29T16:00:54.999Z</time></trkpt><trkpt lat="42.03851679525358" lon="13.016233688921238"><ele>456.0</ele><time>2026-03-29T16:00:55.999Z</time></trkpt><trkpt lat="42.038438234916796" lon="13.01614036708252"><ele>456.0</ele><time>2026-03-29T16:00:56.999Z</time></trkpt><trkpt lat="42.03840793303232" lon="13.015975139287518"><ele>456.0</ele><time>2026-03-29T16:00:57.999Z</time></trkpt><trkpt lat="42.03837372955469" lon="13.015793737424564"><ele>456.0</ele><time>2026-03-29T16:00:58.999Z</time></trkpt><trkpt lat="42.03826000387123" lon="13.01560706268556"><ele>456.0</ele><time>2026-03-29T16:00:59.999Z</time></trkpt><trkpt lat="42.03815415691749" lon="13.015451330980857"><ele>455.0</ele><time>2026-03-29T16:01:00.999Z</time></trkpt><trkpt lat="42.03804625995004" lon="13.015330254346045"><ele>454.0</ele><time>2026-03-29T16:01:01.999Z</time></trkpt><trkpt lat="42.03794490793731" lon="13.015228854398824"><ele>453.0</ele><time>2026-03-29T16:01:02.999Z</time></trkpt><trkpt lat="42.03781147632582" lon="13.015171332332931"><ele>452.0</ele><time>2026-03-29T16:01:03.999Z</time></trkpt><trkpt lat="42.0376512190733" lon="13.015182022503685"><ele>452.0</ele><time>2026-03-29T16:01:04.999Z</time></trkpt><trkpt lat="42.03750520940772" lon="13.015183280574897"><ele>452.0</ele><time>2026-03-29T16:01:05.999Z</time></trkpt><trkpt lat="42.03737813729058" lon="13.015153283923128"><ele>452.0</ele><time>2026-03-29T16:01:06.999Z</time></trkpt><trkpt lat="42.037267944952816" lon="13.015032487179539"><ele>452.0</ele><time>2026-03-29T16:01:07.999Z</time></trkpt><trkpt lat="42.03716739684498" lon="13.01484708500629"><ele>451.3333333333333</ele><time>2026-03-29T16:01:08.999Z</time></trkpt><trkpt lat="42.03707494324439" lon="13.014655612735186"><ele>450.66666666666663</ele><time>2026-03-29T16:01:09.999Z</time></trkpt><trkpt lat="42.03697961513754" lon="13.014489113985158"><ele>450.0</ele><time>2026-03-29T16:01:10.999Z</time></trkpt><trkpt lat="42.036904749655605" lon="13.014336625946726"><ele>450.0</ele><time>2026-03-29T16:01:11.998Z</time></trkpt><trkpt lat="42.03682095074855" lon="13.014213080998317"><ele>450.0</ele><time>2026-03-29T16:01:12.998Z</time></trkpt><trkpt lat="42.03669665335957" lon="13.014133754002247"><ele>450.0</ele><time>2026-03-29T16:01:13.998Z</time></trkpt><trkpt lat="42.027066680613515" lon="13.01619155491073"><ele>431.5</ele><time>2026-03-29T16:02:14.999Z</time></trkpt><trkpt lat="42.026905874606214" lon="13.016159393001676"><ele>413.0</ele><time>2026-03-29T16:02:15.999Z</time></trkpt><trkpt lat="42.02676875760909" lon="13.016119927766134"><ele>394.5</ele><time>2026-03-29T16:02:16.999Z</time></trkpt><trkpt lat="42.02664610164119" lon="13.016040474344376"><ele>376.0</ele><time>2026-03-29T16:02:17.999Z</time></trkpt><trkpt lat="42.02652117047871" lon="13.01589882673748"><ele>373.3333333333333</ele><time>2026-03-29T16:02:18.999Z</time></trkpt><trkpt lat="42.026395463807795" lon="13.015759964590346"><ele>370.6666666666667</ele><time>2026-03-29T16:02:19.999Z</time></trkpt><trkpt lat="42.02628293859485" lon="13.015618695838977"><ele>368.0</ele><time>2026-03-29T16:02:20.999Z</time></trkpt><trkpt lat="42.02616729481675" lon="13.015498359218011"><ele>368.0</ele><time>2026-03-29T16:02:21.999Z</time></trkpt><trkpt lat="42.02603746945412" lon="13.015400432382377"><ele>368.0</ele><time>2026-03-29T16:02:22.999Z</time></trkpt><trkpt lat="42.025893465810306" lon="13.015347245588767"><ele>368.0</ele><time>2026-03-29T16:02:23.999Z</time></trkpt><trkpt lat="42.025749650899684" lon="13.01535822378783"><ele>368.0</ele><time>2026-03-29T16:02:24.999Z</time></trkpt><trkpt lat="42.025615892212706" lon="13.015448037627682"><ele>364.33333333333337</ele><time>2026-03-29T16:02:25.999Z</time></trkpt><trkpt lat="42.02548425944403" lon="13.015590160962978"><ele>360.6666666666667</ele><time>2026-03-29T16:02:26.999Z</time></trkpt><trkpt lat="42.025341032314515" lon="13.015696171204938"><ele>357.0</ele><time>2026-03-29T16:02:27.999Z</time></trkpt><trkpt lat="42.025187628516946" lon="13.015752329731221"><ele>357.0</ele><time>2026-03-29T16:02:28.999Z</time></trkpt><trkpt lat="42.02500043765338" lon="13.015775413008871"><ele>357.0</ele><time>2026-03-29T16:02:29.999Z</time></trkpt><trkpt lat="42.02482142610126" lon="13.015818433944228"><ele>357.0</ele><time>2026-03-29T16:02:30.999Z</time></trkpt><trkpt lat="42.02467920295613" lon="13.015837791330819"><ele>356.0</ele><time>2026-03-29T16:02:31.999Z</time></trkpt><trkpt lat="42.02456935491074" lon="13.015830351290026"><ele>355.0</ele><time>2026-03-29T16:02:32.999Z</time></trkpt><trkpt lat="42.02447557471501" lon="13.01584065004525"><ele>354.0</ele><time>2026-03-29T16:02:33.999Z</time></trkpt><trkpt lat="42.024363944720136" lon="13.015818906291372"><ele>353.0</ele><time>2026-03-29T16:02:35.999Z</time></trkpt><trkpt lat="42.02431681586807" lon="13.015758940627936"><ele>352.0</ele><time>2026-03-29T16:02:36.999Z</time></trkpt><trkpt lat="42.02433348507952" lon="13.015621862904899"><ele>351.0</ele><time>2026-03-29T16:02:37.999Z</time></trkpt><trkpt lat="42.02441740597357" lon="13.01550615360491"><ele>350.0</ele><time>2026-03-29T16:02:38.999Z</time></trkpt><trkpt lat="42.02453875002287" lon="13.015437885738978"><ele>349.0</ele><time>2026-03-29T16:02:39.999Z</time></trkpt><trkpt lat="42.024666545572885" lon="13.015376649674822"><ele>348.0</ele><time>2026-03-29T16:02:40.999Z</time></trkpt><trkpt lat="42.02477886319678" lon="13.01525957674114"><ele>348.0</ele><time>2026-03-29T16:02:41.999Z</time></trkpt><trkpt lat="42.02486676092223" lon="13.015090179151969"><ele>348.0</ele><time>2026-03-29T16:02:42.999Z</time></trkpt><trkpt lat="42.02490521350016" lon="13.014871459673415"><ele>348.0</ele><time>2026-03-29T16:02:43.999Z</time></trkpt><trkpt lat="42.02490737418564" lon="13.01467718583273"><ele>347.6666666666667</ele><time>2026-03-29T16:02:44.999Z</time></trkpt><trkpt lat="42.02488585403718" lon="13.014487920644175"><ele>347.33333333333337</ele><time>2026-03-29T16:02:45.999Z</time></trkpt><trkpt lat="42.02481792362898" lon="13.014311847209942"><ele>347.0</ele><time>2026-03-29T16:02:46.999Z</time></trkpt><trkpt lat="42.02469835005981" lon="13.014143868642936"><ele>347.6666666666667</ele><time>2026-03-29T16:02:47.999Z</time></trkpt><trkpt lat="42.02454212491708" lon="13.014013175951517"><ele>348.3333333333333</ele><time>2026-03-29T16:02:48.999Z</time></trkpt><trkpt lat="42.02439845356785" lon="13.013863060803773"><ele>349.0</ele><time>2026-03-29T16:02:49.999Z</time></trkpt><trkpt lat="42.024252975008665" lon="13.01370881292861"><ele>345.66666666666663</ele><time>2026-03-29T16:02:50.999Z</time></trkpt><trkpt lat="42.02412593259964" lon="13.013517812290488"><ele>342.3333333333333</ele><time>2026-03-29T16:02:51.999Z</time></trkpt><trkpt lat="42.02403151422755" lon="13.013306756063905"><ele>339.0</ele><time>2026-03-29T16:02:52.999Z</time></trkpt><trkpt lat="42.02391152681035" lon="13.013127921485884"><ele>339.0</ele><time>2026-03-29T16:02:53.999Z</time></trkpt><trkpt lat="42.02375963140277" lon="13.012948058149469"><ele>339.0</ele><time>2026-03-29T16:02:54.999Z</time></trkpt><trkpt lat="42.023579574683986" lon="13.01281763719974"><ele>339.0</ele><time>2026-03-29T16:02:55.999Z</time></trkpt><trkpt lat="42.023435644859866" lon="13.012658251573379"><ele>336.3333333333333</ele><time>2026-03-29T16:02:56.999Z</time></trkpt><trkpt lat="42.023292044250915" lon="13.012467433394589"><ele>333.66666666666663</ele><time>2026-03-29T16:02:57.999Z</time></trkpt><trkpt lat="42.02316000206741" lon="13.012237991971606"><ele>331.0</ele><time>2026-03-29T16:02:58.999Z</time></trkpt><trkpt lat="42.0230348418612" lon="13.012011057171494"><ele>331.0</ele><time>2026-03-29T16:02:59.999Z</time></trkpt><trkpt lat="42.02290742672897" lon="13.011790276779031"><ele>331.0</ele><time>2026-03-29T16:03:00.999Z</time></trkpt><trkpt lat="42.02278193716238" lon="13.01154741144288"><ele>331.0</ele><time>2026-03-29T16:03:01.999Z</time></trkpt><trkpt lat="42.02268132778512" lon="13.011283038916396"><ele>332.0</ele><time>2026-03-29T16:03:02.999Z</time></trkpt><trkpt lat="42.02254753129144" lon="13.011028813585437"><ele>333.0</ele><time>2026-03-29T16:03:03.999Z</time></trkpt><trkpt lat="42.022399877663624" lon="13.010762701742012"><ele>329.5</ele><time>2026-03-29T16:03:04.999Z</time></trkpt><trkpt lat="42.02223990897048" lon="13.010505503783328"><ele>326.0</ele><time>2026-03-29T16:03:05.999Z</time></trkpt><trkpt lat="42.02208788199957" lon="13.010287226586366"><ele>326.0</ele><time>2026-03-29T16:03:06.999Z</time></trkpt><trkpt lat="42.021960209449844" lon="13.010064944696127"><ele>326.0</ele><time>2026-03-29T16:03:07.999Z</time></trkpt><trkpt lat="42.02183163418223" lon="13.00987295360477"><ele>326.0</ele><time>2026-03-29T16:03:08.999Z</time></trkpt><trkpt lat="42.0217074752007" lon="13.009717025595346"><ele>325.0</ele><time>2026-03-29T16:03:09.999Z</time></trkpt><trkpt lat="42.021613690714126" lon="13.00954730998054"><ele>324.0</ele><time>2026-03-29T16:03:10.999Z</time></trkpt><trkpt lat="42.02156247329077" lon="13.009330711844697"><ele>323.0</ele><time>2026-03-29T16:03:11.998Z</time></trkpt><trkpt lat="42.02155210460464" lon="13.009070231637976"><ele>323.0</ele><time>2026-03-29T16:03:12.998Z</time></trkpt><trkpt lat="42.02154035883183" lon="13.008803125459568"><ele>323.0</ele><time>2026-03-29T16:03:13.998Z</time></trkpt><trkpt lat="42.02249528587044" lon="12.990766066615835"><ele>327.6666666666667</ele><time>2026-03-29T16:04:15Z</time></trkpt><trkpt lat="42.022579629405" lon="12.990583626799573"><ele>332.3333333333333</ele><time>2026-03-29T16:04:15.999Z</time></trkpt><trkpt lat="42.0226558867555" lon="12.99042407258315"><ele>337.0</ele><time>2026-03-29T16:04:16.999Z</time></trkpt><trkpt lat="42.02274616897707" lon="12.990243475941716"><ele>337.0</ele><time>2026-03-29T16:04:17.999Z</time></trkpt><trkpt lat="42.02284980823561" lon="12.990064923522588"><ele>337.0</ele><time>2026-03-29T16:04:18.999Z</time></trkpt><trkpt lat="42.02295530205305" lon="12.98991810765716"><ele>337.0</ele><time>2026-03-29T16:04:19.999Z</time></trkpt><trkpt lat="42.02305442887296" lon="12.989797828568582"><ele>336.75</ele><time>2026-03-29T16:04:20.999Z</time></trkpt><trkpt lat="42.023146773471936" lon="12.989691397127638"><ele>336.5</ele><time>2026-03-29T16:04:21.999Z</time></trkpt><trkpt lat="42.02323715203658" lon="12.989586336759963"><ele>336.25</ele><time>2026-03-29T16:04:22.999Z</time></trkpt><trkpt lat="42.0233346002182" lon="12.989475434235072"><ele>336.0</ele><time>2026-03-29T16:04:23.999Z</time></trkpt><trkpt lat="42.02343746673098" lon="12.98935809982212"><ele>336.0</ele><time>2026-03-29T16:04:24.999Z</time></trkpt><trkpt lat="42.02354759904213" lon="12.989232287918005"><ele>336.0</ele><time>2026-03-29T16:04:25.999Z</time></trkpt><trkpt lat="42.02366793769638" lon="12.989092987615855"><ele>336.0</ele><time>2026-03-29T16:04:26.999Z</time></trkpt><trkpt lat="42.02379289464202" lon="12.988938167584836"><ele>333.6666666666667</ele><time>2026-03-29T16:04:27.999Z</time></trkpt><trkpt lat="42.02391318643743" lon="12.988760029126432"><ele>331.33333333333337</ele><time>2026-03-29T16:04:28.999Z</time></trkpt><trkpt lat="42.02402610305148" lon="12.988562561549992"><ele>329.0</ele><time>2026-03-29T16:04:29.999Z</time></trkpt><trkpt lat="42.02412902867228" lon="12.988325586408743"><ele>328.6666666666667</ele><time>2026-03-29T16:04:30.999Z</time></trkpt><trkpt lat="42.024210040754255" lon="12.988060777274184"><ele>328.3333333333333</ele><time>2026-03-29T16:04:31.999Z</time></trkpt><trkpt lat="42.024260922655714" lon="12.98777343746185"><ele>328.0</ele><time>2026-03-29T16:04:32.999Z</time></trkpt><trkpt lat="42.0242906202366" lon="12.987459719741008"><ele>328.0</ele><time>2026-03-29T16:04:33.999Z</time></trkpt><trkpt lat="42.02431436551616" lon="12.98714985755402"><ele>328.0</ele><time>2026-03-29T16:04:34.999Z</time></trkpt><trkpt lat="42.024332695925025" lon="12.986838978208105"><ele>327.0</ele><time>2026-03-29T16:04:35.999Z</time></trkpt><trkpt lat="42.02435713234623" lon="12.986501008707993"><ele>326.0</ele><time>2026-03-29T16:04:36.999Z</time></trkpt><trkpt lat="42.0243868677373" lon="12.986152672836004"><ele>327.0</ele><time>2026-03-29T16:04:37.999Z</time></trkpt><trkpt lat="42.02441695684778" lon="12.985820982619758"><ele>328.0</ele><time>2026-03-29T16:04:38.999Z</time></trkpt><trkpt lat="42.02445782258358" lon="12.985493606087914"><ele>328.0</ele><time>2026-03-29T16:04:39.999Z</time></trkpt><trkpt lat="42.02451393953863" lon="12.98516875026903"><ele>328.0</ele><time>2026-03-29T16:04:40.999Z</time></trkpt><trkpt lat="42.024578415868895" lon="12.984858588408992"><ele>326.0</ele><time>2026-03-29T16:04:41.999Z</time></trkpt><trkpt lat="42.02467028485936" lon="12.984593289677418"><ele>324.0</ele><time>2026-03-29T16:04:42.999Z</time></trkpt><trkpt lat="42.024785304912086" lon="12.984272461633495"><ele>321.0</ele><time>2026-03-29T16:04:43.999Z</time></trkpt><trkpt lat="42.024905405956865" lon="12.983994924281536"><ele>318.0</ele><time>2026-03-29T16:04:44.999Z</time></trkpt><trkpt lat="42.02504857772739" lon="12.983730432508107"><ele>321.0</ele><time>2026-03-29T16:04:45.999Z</time></trkpt><trkpt lat="42.025207276304506" lon="12.98347526722485"><ele>324.0</ele><time>2026-03-29T16:04:46.999Z</time></trkpt><trkpt lat="42.02537577093579" lon="12.983229759954023"><ele>324.0</ele><time>2026-03-29T16:04:47.999Z</time></trkpt><trkpt lat="42.02557106102642" lon="12.982950664848497"><ele>324.0</ele><time>2026-03-29T16:04:48.999Z</time></trkpt><trkpt lat="42.02577423654836" lon="12.982657216304816"><ele>323.5</ele><time>2026-03-29T16:04:49.999Z</time></trkpt><trkpt lat="42.0259516094364" lon="12.982381531948185"><ele>323.0</ele><time>2026-03-29T16:04:50.999Z</time></trkpt><trkpt lat="42.02612941806452" lon="12.982142014600102"><ele>323.0</ele><time>2026-03-29T16:04:51.999Z</time></trkpt><trkpt lat="42.02630667465156" lon="12.981890011221044"><ele>323.0</ele><time>2026-03-29T16:04:52.999Z</time></trkpt><trkpt lat="42.02647490276094" lon="12.981646992608763"><ele>322.5</ele><time>2026-03-29T16:04:53.999Z</time></trkpt><trkpt lat="42.02664422061891" lon="12.981398072259635"><ele>322.0</ele><time>2026-03-29T16:04:54.999Z</time></trkpt><trkpt lat="42.026804777252636" lon="12.981139021942413"><ele>322.0</ele><time>2026-03-29T16:04:55.999Z</time></trkpt><trkpt lat="42.026955106503785" lon="12.980855523589279"><ele>322.0</ele><time>2026-03-29T16:04:56.999Z</time></trkpt><trkpt lat="42.02708605422412" lon="12.980559149804977"><ele>322.0</ele><time>2026-03-29T16:04:57.999Z</time></trkpt><trkpt lat="42.02720082297903" lon="12.980234278775594"><ele>322.0</ele><time>2026-03-29T16:04:58.999Z</time></trkpt><trkpt lat="42.027286501223855" lon="12.979894027332627"><ele>321.0</ele><time>2026-03-29T16:04:59.999Z</time></trkpt><trkpt lat="42.02734638321036" lon="12.979537353161932"><ele>320.0</ele><time>2026-03-29T16:05:00.999Z</time></trkpt><trkpt lat="42.027384500417895" lon="12.979172087454184"><ele>320.0</ele><time>2026-03-29T16:05:01.999Z</time></trkpt><trkpt lat="42.02741125132828" lon="12.978792303477556"><ele>320.0</ele><time>2026-03-29T16:05:02.999Z</time></trkpt><trkpt lat="42.027435511755" lon="12.978406282584547"><ele>320.0</ele><time>2026-03-29T16:05:03.999Z</time></trkpt><trkpt lat="42.027461275538734" lon="12.978066117398074"><ele>320.0</ele><time>2026-03-29T16:05:04.999Z</time></trkpt><trkpt lat="42.02748488742751" lon="12.977757666430639"><ele>322.33333333333337</ele><time>2026-03-29T16:05:05.999Z</time></trkpt><trkpt lat="42.02750489923909" lon="12.977508642617737"><ele>324.6666666666667</ele><time>2026-03-29T16:05:06.999Z</time></trkpt><trkpt lat="42.027525078713325" lon="12.977295696465719"><ele>327.0</ele><time>2026-03-29T16:05:07.999Z</time></trkpt><trkpt lat="42.02754973431073" lon="12.97708620146127"><ele>327.0</ele><time>2026-03-29T16:05:08.999Z</time></trkpt><trkpt lat="42.027585166251995" lon="12.976863021786574"><ele>327.0</ele><time>2026-03-29T16:05:09.999Z</time></trkpt><trkpt lat="42.027661008939376" lon="12.97666374501663"><ele>327.0</ele><time>2026-03-29T16:05:10.999Z</time></trkpt><trkpt lat="42.02775641786574" lon="12.976479196625593"><ele>326.0</ele><time>2026-03-29T16:05:11.999Z</time></trkpt><trkpt lat="42.02786288540648" lon="12.976330503746746"><ele>325.0</ele><time>2026-03-29T16:05:12.999Z</time></trkpt><trkpt lat="42.02799127253183" lon="12.976204838955189"><ele>324.0</ele><time>2026-03-29T16:05:13.999Z</time></trkpt><trkpt lat="42.03431750155564" lon="12.96345538595098"><ele>323.3333333333333</ele><time>2026-03-29T16:06:15Z</time></trkpt><trkpt lat="42.03437827749979" lon="12.963215570541758"><ele>322.66666666666663</ele><time>2026-03-29T16:06:16Z</time></trkpt><trkpt lat="42.03443062679863" lon="12.962977794049488"><ele>322.0</ele><time>2026-03-29T16:06:17Z</time></trkpt><trkpt lat="42.0344683981889" lon="12.962717851643614"><ele>321.0</ele><time>2026-03-29T16:06:18Z</time></trkpt><trkpt lat="42.034490110223466" lon="12.962454416499893"><ele>320.0</ele><time>2026-03-29T16:06:18.999Z</time></trkpt><trkpt lat="42.034487180121026" lon="12.962218928938027"><ele>319.0</ele><time>2026-03-29T16:06:19.999Z</time></trkpt><trkpt lat="42.03448115833971" lon="12.962003133465792"><ele>319.0</ele><time>2026-03-29T16:06:20.999Z</time></trkpt><trkpt lat="42.03448344930633" lon="12.961803918077347"><ele>319.0</ele><time>2026-03-29T16:06:21.999Z</time></trkpt><trkpt lat="42.03450783881249" lon="12.961601017783412"><ele>319.0</ele><time>2026-03-29T16:06:22.999Z</time></trkpt><trkpt lat="42.034595924195024" lon="12.961408254469239"><ele>318.66666666666663</ele><time>2026-03-29T16:06:23.999Z</time></trkpt><trkpt lat="42.034695388642376" lon="12.961186375247332"><ele>318.3333333333333</ele><time>2026-03-29T16:06:24.999Z</time></trkpt><trkpt lat="42.034806814556056" lon="12.960988407634755"><ele>318.0</ele><time>2026-03-29T16:06:25.999Z</time></trkpt><trkpt lat="42.034900222925096" lon="12.960801956696551"><ele>320.6666666666667</ele><time>2026-03-29T16:06:26.999Z</time></trkpt><trkpt lat="42.03499026851524" lon="12.96060728620999"><ele>323.33333333333337</ele><time>2026-03-29T16:06:27.999Z</time></trkpt><trkpt lat="42.0350832057053" lon="12.960410055478109"><ele>326.0</ele><time>2026-03-29T16:06:28.999Z</time></trkpt><trkpt lat="42.03517089750325" lon="12.960229266190295"><ele>326.0</ele><time>2026-03-29T16:06:29.999Z</time></trkpt><trkpt lat="42.035250992050614" lon="12.960071099935899"><ele>326.0</ele><time>2026-03-29T16:06:30.999Z</time></trkpt><trkpt lat="42.03533535758959" lon="12.959928906753897"><ele>326.0</ele><time>2026-03-29T16:06:31.999Z</time></trkpt><trkpt lat="42.03544689390673" lon="12.959801042011879"><ele>326.0</ele><time>2026-03-29T16:06:32.999Z</time></trkpt><trkpt lat="42.035595747782914" lon="12.95969949708423"><ele>327.33333333333337</ele><time>2026-03-29T16:06:33.999Z</time></trkpt><trkpt lat="42.03576748005607" lon="12.959613568820163"><ele>328.6666666666667</ele><time>2026-03-29T16:06:34.999Z</time></trkpt><trkpt lat="42.03595469397571" lon="12.959550221572156"><ele>330.0</ele><time>2026-03-29T16:06:35.999Z</time></trkpt><trkpt lat="42.036152949307905" lon="12.959450167477957"><ele>330.0</ele><time>2026-03-29T16:06:36.999Z</time></trkpt><trkpt lat="42.03634768962949" lon="12.959383253357657"><ele>330.0</ele><time>2026-03-29T16:06:37.999Z</time></trkpt><trkpt lat="42.03651966981694" lon="12.959321889575119"><ele>330.0</ele><time>2026-03-29T16:06:38.999Z</time></trkpt><trkpt lat="42.0366870649704" lon="12.95925297533724"><ele>326.6666666666667</ele><time>2026-03-29T16:06:39.999Z</time></trkpt><trkpt lat="42.036856034222616" lon="12.959171847226605"><ele>323.33333333333337</ele><time>2026-03-29T16:06:40.999Z</time></trkpt><trkpt lat="42.037015338536534" lon="12.959055990384115"><ele>320.0</ele><time>2026-03-29T16:06:41.999Z</time></trkpt><trkpt lat="42.03716725303369" lon="12.958893578989185"><ele>320.0</ele><time>2026-03-29T16:06:42.999Z</time></trkpt><trkpt lat="42.03732103547462" lon="12.958731820163074"><ele>320.0</ele><time>2026-03-29T16:06:43.999Z</time></trkpt><trkpt lat="42.037462277536434" lon="12.958593530882775"><ele>320.0</ele><time>2026-03-29T16:06:44.999Z</time></trkpt><trkpt lat="42.037601178827515" lon="12.95846084497772"><ele>320.0</ele><time>2026-03-29T16:06:45.999Z</time></trkpt><trkpt lat="42.037731034422265" lon="12.95832896653704"><ele>320.0</ele><time>2026-03-29T16:06:46.999Z</time></trkpt><trkpt lat="42.03784827858746" lon="12.958181840111896"><ele>320.0</ele><time>2026-03-29T16:06:47.999Z</time></trkpt><trkpt lat="42.037946196514824" lon="12.958019231512537"><ele>320.0</ele><time>2026-03-29T16:06:48.999Z</time></trkpt><trkpt lat="42.03801221536921" lon="12.957852280674997"><ele>320.0</ele><time>2026-03-29T16:06:49.999Z</time></trkpt><trkpt lat="42.03806158531701" lon="12.957669594770298"><ele>320.0</ele><time>2026-03-29T16:06:50.999Z</time></trkpt><trkpt lat="42.03810213055386" lon="12.957461742333896"><ele>320.0</ele><time>2026-03-29T16:06:51.999Z</time></trkpt><trkpt lat="42.03808312784693" lon="12.957228421402565"><ele>319.33333333333337</ele><time>2026-03-29T16:06:52.999Z</time></trkpt><trkpt lat="42.03804545383873" lon="12.956998868325941"><ele>318.6666666666667</ele><time>2026-03-29T16:06:53.999Z</time></trkpt><trkpt lat="42.037987071638725" lon="12.95676887544352"><ele>318.0</ele><time>2026-03-29T16:06:54.999Z</time></trkpt><trkpt lat="42.03791318330386" lon="12.956551939321928"><ele>317.6666666666667</ele><time>2026-03-29T16:06:55.999Z</time></trkpt><trkpt lat="42.03782667178761" lon="12.956330205763008"><ele>317.33333333333337</ele><time>2026-03-29T16:06:56.999Z</time></trkpt><trkpt lat="42.03773718592907" lon="12.956089212659169"><ele>317.0</ele><time>2026-03-29T16:06:57.999Z</time></trkpt><trkpt lat="42.03765431724858" lon="12.955846950996879"><ele>316.6666666666667</ele><time>2026-03-29T16:06:58.999Z</time></trkpt><trkpt lat="42.0375744569447" lon="12.955614232941135"><ele>316.3333333333333</ele><time>2026-03-29T16:06:59.999Z</time></trkpt><trkpt lat="42.03747213566409" lon="12.955376501119641"><ele>316.0</ele><time>2026-03-29T16:07:00.999Z</time></trkpt><trkpt lat="42.03735496856096" lon="12.955138989414909"><ele>316.3333333333333</ele><time>2026-03-29T16:07:01.999Z</time></trkpt><trkpt lat="42.037248076839056" lon="12.95492398161117"><ele>316.6666666666667</ele><time>2026-03-29T16:07:02.999Z</time></trkpt><trkpt lat="42.037143224702675" lon="12.954718273602534"><ele>317.0</ele><time>2026-03-29T16:07:03.999Z</time></trkpt><trkpt lat="42.03703334612521" lon="12.954505676294255"><ele>317.0</ele><time>2026-03-29T16:07:04.999Z</time></trkpt><trkpt lat="42.03692067079111" lon="12.954280395421259"><ele>317.0</ele><time>2026-03-29T16:07:05.999Z</time></trkpt><trkpt lat="42.036821247573954" lon="12.954069293436188"><ele>317.0</ele><time>2026-03-29T16:07:06.999Z</time></trkpt><trkpt lat="42.036728617947944" lon="12.953873215150947"><ele>317.25</ele><time>2026-03-29T16:07:07.999Z</time></trkpt><trkpt lat="42.03664480248269" lon="12.953699969086053"><ele>317.5</ele><time>2026-03-29T16:07:08.999Z</time></trkpt><trkpt lat="42.036573119992546" lon="12.95354885204532"><ele>317.75</ele><time>2026-03-29T16:07:09.999Z</time></trkpt><trkpt lat="42.036511133663986" lon="12.953421222235333"><ele>318.0</ele><time>2026-03-29T16:07:10.999Z</time></trkpt><trkpt lat="42.036453380641454" lon="12.953296671848177"><ele>317.3333333333333</ele><time>2026-03-29T16:07:11.999Z</time></trkpt><trkpt lat="42.03639979944347" lon="12.953176426618942"><ele>316.66666666666663</ele><time>2026-03-29T16:07:12.999Z</time></trkpt><trkpt lat="42.0363361378375" lon="12.953047308041773"><ele>316.0</ele><time>2026-03-29T16:07:13.999Z</time></trkpt><trkpt lat="42.03045927099687" lon="12.94448489062172"><ele>313.3333333333333</ele><time>2026-03-29T16:08:15Z</time></trkpt><trkpt lat="42.03030717191554" lon="12.944444503617508"><ele>310.6666666666667</ele><time>2026-03-29T16:08:16Z</time></trkpt><trkpt lat="42.03015929693258" lon="12.94437778125697"><ele>308.0</ele><time>2026-03-29T16:08:17Z</time></trkpt><trkpt lat="42.03001116130121" lon="12.944305305630502"><ele>307.6666666666667</ele><time>2026-03-29T16:08:18Z</time></trkpt><trkpt lat="42.029866675026256" lon="12.944227715422205"><ele>307.3333333333333</ele><time>2026-03-29T16:08:19Z</time></trkpt><trkpt lat="42.02971580649244" lon="12.944138213871327"><ele>307.0</ele><time>2026-03-29T16:08:20Z</time></trkpt><trkpt lat="42.02956269596902" lon="12.944040254626811"><ele>307.0</ele><time>2026-03-29T16:08:21Z</time></trkpt><trkpt lat="42.029419597965386" lon="12.943938934571362"><ele>307.0</ele><time>2026-03-29T16:08:22Z</time></trkpt><trkpt lat="42.029287887908175" lon="12.943848869410102"><ele>307.0</ele><time>2026-03-29T16:08:23Z</time></trkpt><trkpt lat="42.02916173224414" lon="12.943757993221228"><ele>306.66666666666663</ele><time>2026-03-29T16:08:24Z</time></trkpt><trkpt lat="42.02903438226013" lon="12.94365498813744"><ele>306.3333333333333</ele><time>2026-03-29T16:08:25Z</time></trkpt><trkpt lat="42.02890781714912" lon="12.94352522403517"><ele>306.0</ele><time>2026-03-29T16:08:25.999Z</time></trkpt><trkpt lat="42.0287903734407" lon="12.943352490567209"><ele>306.0</ele><time>2026-03-29T16:08:26.999Z</time></trkpt><trkpt lat="42.028693324765456" lon="12.943174593427312"><ele>306.0</ele><time>2026-03-29T16:08:27.999Z</time></trkpt><trkpt lat="42.02861202867926" lon="12.94298739726457"><ele>306.0</ele><time>2026-03-29T16:08:28.999Z</time></trkpt><trkpt lat="42.02855644498579" lon="12.942787909959298"><ele>306.0</ele><time>2026-03-29T16:08:29.999Z</time></trkpt><trkpt lat="42.02851873896927" lon="12.942569967726694"><ele>306.0</ele><time>2026-03-29T16:08:30.999Z</time></trkpt><trkpt lat="42.02850319104202" lon="12.94231645364744"><ele>306.0</ele><time>2026-03-29T16:08:31.999Z</time></trkpt><trkpt lat="42.02848331999267" lon="12.942076426522005"><ele>304.6666666666667</ele><time>2026-03-29T16:08:32.999Z</time></trkpt><trkpt lat="42.02846732560692" lon="12.941845006711912"><ele>303.33333333333337</ele><time>2026-03-29T16:08:33.999Z</time></trkpt><trkpt lat="42.0284500792781" lon="12.941608469856877"><ele>302.0</ele><time>2026-03-29T16:08:34.999Z</time></trkpt><trkpt lat="42.02843219700548" lon="12.941363856800743"><ele>301.6666666666667</ele><time>2026-03-29T16:08:35.999Z</time></trkpt><trkpt lat="42.02841411389309" lon="12.941117363395549"><ele>301.3333333333333</ele><time>2026-03-29T16:08:36.999Z</time></trkpt><trkpt lat="42.02839568888457" lon="12.940866210086424"><ele>301.0</ele><time>2026-03-29T16:08:37.999Z</time></trkpt><trkpt lat="42.028375387269875" lon="12.940589476395417"><ele>301.0</ele><time>2026-03-29T16:08:38.999Z</time></trkpt><trkpt lat="42.0283426878117" lon="12.94030252724605"><ele>301.0</ele><time>2026-03-29T16:08:39.999Z</time></trkpt><trkpt lat="42.02835574918638" lon="12.940027844385716"><ele>301.0</ele><time>2026-03-29T16:08:40.999Z</time></trkpt><trkpt lat="42.028371835757355" lon="12.939739590380412"><ele>301.0</ele><time>2026-03-29T16:08:41.999Z</time></trkpt><trkpt lat="42.02835365919622" lon="12.93944832168066"><ele>301.0</ele><time>2026-03-29T16:08:42.999Z</time></trkpt><trkpt lat="42.02824621094624" lon="12.939199719297232"><ele>301.0</ele><time>2026-03-29T16:08:43.999Z</time></trkpt><trkpt lat="42.02820199684003" lon="12.938911760740659"><ele>301.0</ele><time>2026-03-29T16:08:44.999Z</time></trkpt><trkpt lat="42.02814679511661" lon="12.938620123110056"><ele>301.0</ele><time>2026-03-29T16:08:45.999Z</time></trkpt><trkpt lat="42.028079504948906" lon="12.938337079586226"><ele>301.0</ele><time>2026-03-29T16:08:46.999Z</time></trkpt><trkpt lat="42.028010239977796" lon="12.938077104732823"><ele>301.66666666666663</ele><time>2026-03-29T16:08:47.999Z</time></trkpt><trkpt lat="42.02793461146646" lon="12.93781885270286"><ele>302.3333333333333</ele><time>2026-03-29T16:08:48.999Z</time></trkpt><trkpt lat="42.027843809321084" lon="12.93755718542786"><ele>303.0</ele><time>2026-03-29T16:08:49.999Z</time></trkpt><trkpt lat="42.02774365945279" lon="12.937316213770197"><ele>303.5</ele><time>2026-03-29T16:08:50.999Z</time></trkpt><trkpt lat="42.0276300001011" lon="12.93707813470925"><ele>304.0</ele><time>2026-03-29T16:08:51.999Z</time></trkpt><trkpt lat="42.0274954800823" lon="12.936796679978924"><ele>304.0</ele><time>2026-03-29T16:08:52.999Z</time></trkpt><trkpt lat="42.02735888827868" lon="12.936524472542752"><ele>304.0</ele><time>2026-03-29T16:08:53.999Z</time></trkpt><trkpt lat="42.02721330275217" lon="12.936266444041383"><ele>304.0</ele><time>2026-03-29T16:08:54.999Z</time></trkpt><trkpt lat="42.02706871704386" lon="12.936014201676548"><ele>304.0</ele><time>2026-03-29T16:08:55.999Z</time></trkpt><trkpt lat="42.02692792793379" lon="12.93577540707926"><ele>304.5</ele><time>2026-03-29T16:08:56.999Z</time></trkpt><trkpt lat="42.026787751618265" lon="12.935525239869207"><ele>305.0</ele><time>2026-03-29T16:08:57.999Z</time></trkpt><trkpt lat="42.02665343184841" lon="12.93529623412031"><ele>305.5</ele><time>2026-03-29T16:08:58.999Z</time></trkpt><trkpt lat="42.02651976107197" lon="12.93505971856975"><ele>306.0</ele><time>2026-03-29T16:08:59.999Z</time></trkpt><trkpt lat="42.02638243650426" lon="12.934778209759724"><ele>306.0</ele><time>2026-03-29T16:09:00.999Z</time></trkpt><trkpt lat="42.0262068237726" lon="12.93450241128696"><ele>306.0</ele><time>2026-03-29T16:09:01.999Z</time></trkpt><trkpt lat="42.026041034205036" lon="12.934177154021128"><ele>308.0</ele><time>2026-03-29T16:09:02.999Z</time></trkpt><trkpt lat="42.0258411128703" lon="12.933852466484204"><ele>310.0</ele><time>2026-03-29T16:09:03.999Z</time></trkpt><trkpt lat="42.02565440662078" lon="12.933495011612381"><ele>306.5</ele><time>2026-03-29T16:09:04.999Z</time></trkpt><trkpt lat="42.0254657116583" lon="12.933146122604773"><ele>303.0</ele><time>2026-03-29T16:09:05.999Z</time></trkpt><trkpt lat="42.025265460956376" lon="12.932788477483598"><ele>305.5</ele><time>2026-03-29T16:09:06.999Z</time></trkpt><trkpt lat="42.02507353986535" lon="12.932440300703126"><ele>308.0</ele><time>2026-03-29T16:09:07.999Z</time></trkpt><trkpt lat="42.02486444389636" lon="12.932086022984777"><ele>305.0</ele><time>2026-03-29T16:09:08.999Z</time></trkpt><trkpt lat="42.0246545810234" lon="12.931730547755073"><ele>302.0</ele><time>2026-03-29T16:09:09.999Z</time></trkpt><trkpt lat="42.02445054711554" lon="12.931399898868635"><ele>302.0</ele><time>2026-03-29T16:09:10.999Z</time></trkpt><trkpt lat="42.02424882670072" lon="12.931091269158195"><ele>302.0</ele><time>2026-03-29T16:09:11.999Z</time></trkpt><trkpt lat="42.02404285572333" lon="12.93079632768241"><ele>300.5</ele><time>2026-03-29T16:09:12.999Z</time></trkpt><trkpt lat="42.02382755097477" lon="12.930510715764926"><ele>299.0</ele><time>2026-03-29T16:09:13.999Z</time></trkpt><trkpt lat="42.01554250683903" lon="12.911998971469687"><ele>318.0</ele><time>2026-03-29T16:10:15Z</time></trkpt><trkpt lat="42.01563499942499" lon="12.911631959967982"><ele>337.0</ele><time>2026-03-29T16:10:16Z</time></trkpt><trkpt lat="42.01571938539411" lon="12.911294008858102"><ele>337.0</ele><time>2026-03-29T16:10:17Z</time></trkpt><trkpt lat="42.01579900143702" lon="12.910951664361084"><ele>337.0</ele><time>2026-03-29T16:10:18Z</time></trkpt><trkpt lat="42.01588430968977" lon="12.910604537642277"><ele>337.5</ele><time>2026-03-29T16:10:19Z</time></trkpt><trkpt lat="42.01597177173565" lon="12.910265977541624"><ele>338.0</ele><time>2026-03-29T16:10:20Z</time></trkpt><trkpt lat="42.0160598244906" lon="12.909957499379589"><ele>338.0</ele><time>2026-03-29T16:10:21Z</time></trkpt><trkpt lat="42.01615496988247" lon="12.909672774442717"><ele>338.0</ele><time>2026-03-29T16:10:22Z</time></trkpt><trkpt lat="42.01625356499821" lon="12.909410984387973"><ele>332.6666666666667</ele><time>2026-03-29T16:10:23Z</time></trkpt><trkpt lat="42.01634517072449" lon="12.909173432010395"><ele>327.3333333333333</ele><time>2026-03-29T16:10:24Z</time></trkpt><trkpt lat="42.0164284516456" lon="12.908956382088851"><ele>322.0</ele><time>2026-03-29T16:10:25Z</time></trkpt><trkpt lat="42.01650280137012" lon="12.908770826840408"><ele>322.0</ele><time>2026-03-29T16:10:26Z</time></trkpt><trkpt lat="42.01657740884894" lon="12.908607498593591"><ele>322.0</ele><time>2026-03-29T16:10:27Z</time></trkpt><trkpt lat="42.01665742248214" lon="12.908473696662332"><ele>322.0</ele><time>2026-03-29T16:10:28Z</time></trkpt><trkpt lat="42.016734055274284" lon="12.908373606402733"><ele>322.0</ele><time>2026-03-29T16:10:29Z</time></trkpt><trkpt lat="42.016832346040395" lon="12.908316878340017"><ele>326.3333333333333</ele><time>2026-03-29T16:10:30Z</time></trkpt><trkpt lat="42.016943264274595" lon="12.908229966783715"><ele>330.6666666666667</ele><time>2026-03-29T16:10:31Z</time></trkpt><trkpt lat="42.01706805903813" lon="12.908098354723524"><ele>335.0</ele><time>2026-03-29T16:10:31.999Z</time></trkpt><trkpt lat="42.01724784292106" lon="12.90801378123755"><ele>335.0</ele><time>2026-03-29T16:10:32.999Z</time></trkpt><trkpt lat="42.0174339315973" lon="12.907933278382268"><ele>335.0</ele><time>2026-03-29T16:10:33.999Z</time></trkpt><trkpt lat="42.01759434019398" lon="12.90781793127957"><ele>335.0</ele><time>2026-03-29T16:10:34.999Z</time></trkpt><trkpt lat="42.01773227250786" lon="12.907664406708728"><ele>336.33333333333337</ele><time>2026-03-29T16:10:35.999Z</time></trkpt><trkpt lat="42.01785787245709" lon="12.907463487808354"><ele>337.6666666666667</ele><time>2026-03-29T16:10:36.999Z</time></trkpt><trkpt lat="42.017976919677466" lon="12.90720909288407"><ele>339.0</ele><time>2026-03-29T16:10:37.999Z</time></trkpt><trkpt lat="42.01810134471702" lon="12.906922758270552"><ele>340.0</ele><time>2026-03-29T16:10:38.999Z</time></trkpt><trkpt lat="42.01824875993491" lon="12.906650415282085"><ele>341.0</ele><time>2026-03-29T16:10:39.999Z</time></trkpt><trkpt lat="42.018364728364794" lon="12.906355876723172"><ele>341.0</ele><time>2026-03-29T16:10:40.999Z</time></trkpt><trkpt lat="42.018509832721755" lon="12.90607347893285"><ele>341.0</ele><time>2026-03-29T16:10:41.999Z</time></trkpt><trkpt lat="42.01864486979905" lon="12.905821187209042"><ele>337.5</ele><time>2026-03-29T16:10:42.999Z</time></trkpt><trkpt lat="42.01877669352093" lon="12.905559070109675"><ele>334.0</ele><time>2026-03-29T16:10:43.999Z</time></trkpt><trkpt lat="42.01891202725658" lon="12.905274296941764"><ele>338.0</ele><time>2026-03-29T16:10:44.999Z</time></trkpt><trkpt lat="42.01905411881919" lon="12.904989036142853"><ele>342.0</ele><time>2026-03-29T16:10:45.999Z</time></trkpt><trkpt lat="42.019198898022374" lon="12.904719000002622"><ele>342.0</ele><time>2026-03-29T16:10:46.999Z</time></trkpt><trkpt lat="42.01936170942768" lon="12.904445180280312"><ele>342.0</ele><time>2026-03-29T16:10:47.999Z</time></trkpt><trkpt lat="42.01953421350212" lon="12.904193332425516"><ele>338.0</ele><time>2026-03-29T16:10:48.999Z</time></trkpt><trkpt lat="42.019662088583004" lon="12.903976511884423"><ele>334.0</ele><time>2026-03-29T16:10:49.999Z</time></trkpt><trkpt lat="42.01979663111648" lon="12.90380716419516"><ele>330.0</ele><time>2026-03-29T16:10:50.999Z</time></trkpt><trkpt lat="42.01991200370089" lon="12.903659895525658"><ele>332.25</ele><time>2026-03-29T16:10:51.999Z</time></trkpt><trkpt lat="42.02000846091404" lon="12.903515077166634"><ele>334.5</ele><time>2026-03-29T16:10:52.999Z</time></trkpt><trkpt lat="42.02008771496962" lon="12.903360661328817"><ele>336.75</ele><time>2026-03-29T16:10:53.999Z</time></trkpt><trkpt lat="42.02013856909628" lon="12.903174630171467"><ele>339.0</ele><time>2026-03-29T16:10:54.999Z</time></trkpt><trkpt lat="42.020135282892014" lon="12.902960220655432"><ele>339.0</ele><time>2026-03-29T16:10:55.999Z</time></trkpt><trkpt lat="42.02007266855543" lon="12.902752718707573"><ele>339.0</ele><time>2026-03-29T16:10:56.999Z</time></trkpt><trkpt lat="42.01994815949294" lon="12.902563814549785"><ele>339.0</ele><time>2026-03-29T16:10:57.999Z</time></trkpt><trkpt lat="42.01977788890219" lon="12.902407526316761"><ele>337.3333333333333</ele><time>2026-03-29T16:10:58.999Z</time></trkpt><trkpt lat="42.01959448007498" lon="12.902306259314058"><ele>335.66666666666663</ele><time>2026-03-29T16:10:59.999Z</time></trkpt><trkpt lat="42.01942942328543" lon="12.902271160474395"><ele>334.0</ele><time>2026-03-29T16:11:00.999Z</time></trkpt><trkpt lat="42.01925567562138" lon="12.902302742958607"><ele>332.0</ele><time>2026-03-29T16:11:01.999Z</time></trkpt><trkpt lat="42.01906956593454" lon="12.902401473475841"><ele>330.0</ele><time>2026-03-29T16:11:02.999Z</time></trkpt><trkpt lat="42.018905649065175" lon="12.902488613436573"><ele>328.0</ele><time>2026-03-29T16:11:03.999Z</time></trkpt><trkpt lat="42.01875253924013" lon="12.90254327743406"><ele>328.0</ele><time>2026-03-29T16:11:04.999Z</time></trkpt><trkpt lat="42.01861114855738" lon="12.902563354231626"><ele>328.0</ele><time>2026-03-29T16:11:05.999Z</time></trkpt><trkpt lat="42.01847491863408" lon="12.902510173319014"><ele>328.0</ele><time>2026-03-29T16:11:06.999Z</time></trkpt><trkpt lat="42.018353167620454" lon="12.902414436799848"><ele>328.0</ele><time>2026-03-29T16:11:07.999Z</time></trkpt><trkpt lat="42.0182304689334" lon="12.90228076778853"><ele>319.66666666666663</ele><time>2026-03-29T16:11:08.999Z</time></trkpt><trkpt lat="42.018101642676676" lon="12.90213070302608"><ele>311.3333333333333</ele><time>2026-03-29T16:11:09.999Z</time></trkpt><trkpt lat="42.017989249090895" lon="12.901997004328468"><ele>303.0</ele><time>2026-03-29T16:11:10.999Z</time></trkpt><trkpt lat="42.0178763253422" lon="12.90188181491617"><ele>303.0</ele><time>2026-03-29T16:11:11.999Z</time></trkpt><trkpt lat="42.01778893680572" lon="12.901754459574693"><ele>303.0</ele><time>2026-03-29T16:11:12.999Z</time></trkpt><trkpt lat="42.0177318038439" lon="12.901626034444128"><ele>303.0</ele><time>2026-03-29T16:11:13.999Z</time></trkpt><trkpt lat="42.015708809628556" lon="12.89425954218596"><ele>295.0</ele><time>2026-03-29T16:12:15Z</time></trkpt><trkpt lat="42.01559443853794" lon="12.894003764910396"><ele>287.0</ele><time>2026-03-29T16:12:16Z</time></trkpt><trkpt lat="42.01549238206476" lon="12.893768621413576"><ele>279.0</ele><time>2026-03-29T16:12:17Z</time></trkpt><trkpt lat="42.01538622388766" lon="12.893547766905307"><ele>279.3333333333333</ele><time>2026-03-29T16:12:18Z</time></trkpt><trkpt lat="42.015270128022344" lon="12.893354908825756"><ele>279.66666666666663</ele><time>2026-03-29T16:12:19Z</time></trkpt><trkpt lat="42.01512620089942" lon="12.89317678729969"><ele>280.0</ele><time>2026-03-29T16:12:20Z</time></trkpt><trkpt lat="42.01496690544148" lon="12.89303330776769"><ele>280.0</ele><time>2026-03-29T16:12:21Z</time></trkpt><trkpt lat="42.01480755986487" lon="12.892918678577031"><ele>280.0</ele><time>2026-03-29T16:12:22Z</time></trkpt><trkpt lat="42.01464195676439" lon="12.892842056438104"><ele>280.0</ele><time>2026-03-29T16:12:23Z</time></trkpt><trkpt lat="42.014477738795776" lon="12.892796846083053"><ele>280.0</ele><time>2026-03-29T16:12:24Z</time></trkpt><trkpt lat="42.01432716665251" lon="12.892763688731407"><ele>280.0</ele><time>2026-03-29T16:12:25Z</time></trkpt><trkpt lat="42.01419689978404" lon="12.892736072389523"><ele>280.0</ele><time>2026-03-29T16:12:26Z</time></trkpt><trkpt lat="42.014073370306406" lon="12.892707455377405"><ele>280.0</ele><time>2026-03-29T16:12:27Z</time></trkpt><trkpt lat="42.01395193036064" lon="12.89268095964735"><ele>278.6</ele><time>2026-03-29T16:12:28Z</time></trkpt><trkpt lat="42.01383075126642" lon="12.892657067402983"><ele>277.2</ele><time>2026-03-29T16:12:29Z</time></trkpt><trkpt lat="42.01372523949422" lon="12.892635608432444"><ele>275.8</ele><time>2026-03-29T16:12:30Z</time></trkpt><trkpt lat="42.01362541972221" lon="12.892587708382191"><ele>274.4</ele><time>2026-03-29T16:12:31Z</time></trkpt><trkpt lat="42.01353752390272" lon="12.892497946902106"><ele>273.0</ele><time>2026-03-29T16:12:32Z</time></trkpt><trkpt lat="42.01347226229224" lon="12.89237719389801"><ele>276.5</ele><time>2026-03-29T16:12:33Z</time></trkpt><trkpt lat="42.01342358509048" lon="12.892236773097727"><ele>280.0</ele><time>2026-03-29T16:12:34Z</time></trkpt><trkpt lat="42.013397543675026" lon="12.892079352164274"><ele>283.5</ele><time>2026-03-29T16:12:35Z</time></trkpt><trkpt lat="42.01338620287118" lon="12.891919397153627"><ele>287.0</ele><time>2026-03-29T16:12:36Z</time></trkpt><trkpt lat="42.01338446742549" lon="12.891739549346065"><ele>288.5</ele><time>2026-03-29T16:12:37Z</time></trkpt><trkpt lat="42.01338838606237" lon="12.891574278042807"><ele>290.0</ele><time>2026-03-29T16:12:38Z</time></trkpt><trkpt lat="42.01339662147405" lon="12.891417351556084"><ele>291.5</ele><time>2026-03-29T16:12:38.999Z</time></trkpt><trkpt lat="42.01341370283109" lon="12.89124539067661"><ele>293.0</ele><time>2026-03-29T16:12:39.999Z</time></trkpt><trkpt lat="42.01343920712062" lon="12.891067959850915"><ele>290.75</ele><time>2026-03-29T16:12:40.999Z</time></trkpt><trkpt lat="42.01347328926378" lon="12.890894403792139"><ele>288.5</ele><time>2026-03-29T16:12:41.999Z</time></trkpt><trkpt lat="42.013501275926494" lon="12.890713534803629"><ele>286.25</ele><time>2026-03-29T16:12:42.999Z</time></trkpt><trkpt lat="42.013504082942134" lon="12.890509159473915"><ele>284.0</ele><time>2026-03-29T16:12:43.999Z</time></trkpt><trkpt lat="42.01349553280176" lon="12.89029752280385"><ele>281.5</ele><time>2026-03-29T16:12:44.999Z</time></trkpt><trkpt lat="42.013481133502516" lon="12.890090283007586"><ele>279.0</ele><time>2026-03-29T16:12:45.999Z</time></trkpt><trkpt lat="42.013462090717205" lon="12.88988994933184"><ele>276.5</ele><time>2026-03-29T16:12:46.999Z</time></trkpt><trkpt lat="42.0134341180371" lon="12.88970892751582"><ele>274.0</ele><time>2026-03-29T16:12:47.999Z</time></trkpt><trkpt lat="42.01337775781125" lon="12.88954480455304"><ele>272.66666666666663</ele><time>2026-03-29T16:12:48.999Z</time></trkpt><trkpt lat="42.01327751587167" lon="12.889396052886733"><ele>271.3333333333333</ele><time>2026-03-29T16:12:49.999Z</time></trkpt><trkpt lat="42.01313389196056" lon="12.889259250155304"><ele>270.0</ele><time>2026-03-29T16:12:50.999Z</time></trkpt><trkpt lat="42.01300442123794" lon="12.889129638595158"><ele>270.0</ele><time>2026-03-29T16:12:51.999Z</time></trkpt><trkpt lat="42.0128917118073" lon="12.889013555640938"><ele>270.0</ele><time>2026-03-29T16:12:52.999Z</time></trkpt><trkpt lat="42.0127793561141" lon="12.88887037059602"><ele>270.0</ele><time>2026-03-29T16:12:53.999Z</time></trkpt><trkpt lat="42.012663932929975" lon="12.888674541310667"><ele>270.0</ele><time>2026-03-29T16:12:54.999Z</time></trkpt><trkpt lat="42.01254050272993" lon="12.888427232690137"><ele>270.0</ele><time>2026-03-29T16:12:55.999Z</time></trkpt><trkpt lat="42.01242715442788" lon="12.888128712441818"><ele>270.0</ele><time>2026-03-29T16:12:56.999Z</time></trkpt><trkpt lat="42.012283642317186" lon="12.887847948395473"><ele>270.0</ele><time>2026-03-29T16:12:57.999Z</time></trkpt><trkpt lat="42.01215299976022" lon="12.88754787162493"><ele>270.0</ele><time>2026-03-29T16:12:58.999Z</time></trkpt><trkpt lat="42.012023411939964" lon="12.887272486541296"><ele>270.0</ele><time>2026-03-29T16:12:59.999Z</time></trkpt><trkpt lat="42.01190056310952" lon="12.88704144481559"><ele>270.0</ele><time>2026-03-29T16:13:00.999Z</time></trkpt><trkpt lat="42.011790071990816" lon="12.886804427085277"><ele>270.0</ele><time>2026-03-29T16:13:01.999Z</time></trkpt><trkpt lat="42.01170513755336" lon="12.886525478039527"><ele>270.0</ele><time>2026-03-29T16:13:02.999Z</time></trkpt><trkpt lat="42.01162162979552" lon="12.88621059814504"><ele>268.0</ele><time>2026-03-29T16:13:03.999Z</time></trkpt><trkpt lat="42.01152555199255" lon="12.88589126860781"><ele>266.0</ele><time>2026-03-29T16:13:04.999Z</time></trkpt><trkpt lat="42.01142069590326" lon="12.885591932877606"><ele>266.0</ele><time>2026-03-29T16:13:05.999Z</time></trkpt><trkpt lat="42.01129868405698" lon="12.885310523654388"><ele>266.0</ele><time>2026-03-29T16:13:06.999Z</time></trkpt><trkpt lat="42.011158264420935" lon="12.885017747853533"><ele>265.0</ele><time>2026-03-29T16:13:07.999Z</time></trkpt><trkpt lat="42.01098923490751" lon="12.884728992416267"><ele>264.0</ele><time>2026-03-29T16:13:08.999Z</time></trkpt><trkpt lat="42.01082164744589" lon="12.884463563273462"><ele>264.5</ele><time>2026-03-29T16:13:09.999Z</time></trkpt><trkpt lat="42.01066681199156" lon="12.884208819732994"><ele>265.0</ele><time>2026-03-29T16:13:10.999Z</time></trkpt><trkpt lat="42.01050066712591" lon="12.883943659784189"><ele>265.0</ele><time>2026-03-29T16:13:11.999Z</time></trkpt><trkpt lat="42.01032118454232" lon="12.883678125331237"><ele>265.0</ele><time>2026-03-29T16:13:12.999Z</time></trkpt><trkpt lat="42.01013443102711" lon="12.883439264125714"><ele>263.0</ele><time>2026-03-29T16:13:13.999Z</time></trkpt><trkpt lat="42.00017483970261" lon="12.877118893241555"><ele>263.0</ele><time>2026-03-29T16:14:15Z</time></trkpt><trkpt lat="41.99993786977632" lon="12.877085647306332"><ele>263.0</ele><time>2026-03-29T16:14:16Z</time></trkpt><trkpt lat="41.999677072940756" lon="12.877039266611003"><ele>263.0</ele><time>2026-03-29T16:14:17Z</time></trkpt><trkpt lat="41.99941079075302" lon="12.876983216986808"><ele>263.0</ele><time>2026-03-29T16:14:18Z</time></trkpt><trkpt lat="41.999161407381486" lon="12.876908581937133"><ele>261.5</ele><time>2026-03-29T16:14:19Z</time></trkpt><trkpt lat="41.99892379909446" lon="12.87682072057612"><ele>260.0</ele><time>2026-03-29T16:14:20Z</time></trkpt><trkpt lat="41.9986725158012" lon="12.876704314958715"><ele>261.5</ele><time>2026-03-29T16:14:21Z</time></trkpt><trkpt lat="41.99841787921644" lon="12.876575488636028"><ele>263.0</ele><time>2026-03-29T16:14:22Z</time></trkpt><trkpt lat="41.99817276562613" lon="12.876458970529246"><ele>263.0</ele><time>2026-03-29T16:14:23Z</time></trkpt><trkpt lat="41.997947894274176" lon="12.876337940611638"><ele>263.0</ele><time>2026-03-29T16:14:24Z</time></trkpt><trkpt lat="41.99772662104726" lon="12.876202068947572"><ele>263.0</ele><time>2026-03-29T16:14:25Z</time></trkpt><trkpt lat="41.99750631406137" lon="12.87603439268622"><ele>263.0</ele><time>2026-03-29T16:14:26Z</time></trkpt><trkpt lat="41.99728508698262" lon="12.87581629550877"><ele>265.0</ele><time>2026-03-29T16:14:27Z</time></trkpt><trkpt lat="41.99705583640438" lon="12.875589629105482"><ele>267.0</ele><time>2026-03-29T16:14:28Z</time></trkpt><trkpt lat="41.99683618775452" lon="12.87536830294295"><ele>269.0</ele><time>2026-03-29T16:14:29Z</time></trkpt><trkpt lat="41.99661777023198" lon="12.875138577591379"><ele>271.0</ele><time>2026-03-29T16:14:30Z</time></trkpt><trkpt lat="41.99641174908925" lon="12.874900723241907"><ele>271.0</ele><time>2026-03-29T16:14:31Z</time></trkpt><trkpt lat="41.99623803328844" lon="12.874676945399514"><ele>271.0</ele><time>2026-03-29T16:14:32Z</time></trkpt><trkpt lat="41.99606579030953" lon="12.874440159413702"><ele>270.0</ele><time>2026-03-29T16:14:33Z</time></trkpt><trkpt lat="41.99591620644423" lon="12.874207615291777"><ele>269.0</ele><time>2026-03-29T16:14:34Z</time></trkpt><trkpt lat="41.995770869868956" lon="12.874004918868598"><ele>268.0</ele><time>2026-03-29T16:14:35Z</time></trkpt><trkpt lat="41.99563227902755" lon="12.873826482293396"><ele>268.0</ele><time>2026-03-29T16:14:36Z</time></trkpt><trkpt lat="41.99547743396455" lon="12.873667183662189"><ele>268.0</ele><time>2026-03-29T16:14:37Z</time></trkpt><trkpt lat="41.995288404508834" lon="12.87356981124127"><ele>268.0</ele><time>2026-03-29T16:14:38Z</time></trkpt><trkpt lat="41.99508160915207" lon="12.873510992066038"><ele>270.66666666666663</ele><time>2026-03-29T16:14:39Z</time></trkpt><trkpt lat="41.99489128264498" lon="12.873444435224084"><ele>273.3333333333333</ele><time>2026-03-29T16:14:40Z</time></trkpt><trkpt lat="41.99473684242757" lon="12.873311735761657"><ele>276.0</ele><time>2026-03-29T16:14:41Z</time></trkpt><trkpt lat="41.99460673404049" lon="12.873142770124103"><ele>276.0</ele><time>2026-03-29T16:14:42Z</time></trkpt><trkpt lat="41.99448179999072" lon="12.872918550272935"><ele>276.0</ele><time>2026-03-29T16:14:42.999Z</time></trkpt><trkpt lat="41.99435809329009" lon="12.872676671884728"><ele>276.0</ele><time>2026-03-29T16:14:43.999Z</time></trkpt><trkpt lat="41.99425137316842" lon="12.872444431326091"><ele>275.3333333333333</ele><time>2026-03-29T16:14:44.999Z</time></trkpt><trkpt lat="41.99418369445461" lon="12.872223457698741"><ele>274.66666666666663</ele><time>2026-03-29T16:14:45.999Z</time></trkpt><trkpt lat="41.99414761063077" lon="12.871967410725063"><ele>274.0</ele><time>2026-03-29T16:14:46.999Z</time></trkpt><trkpt lat="41.994152955199866" lon="12.871697524615247"><ele>277.3333333333333</ele><time>2026-03-29T16:14:47.999Z</time></trkpt><trkpt lat="41.99419263389995" lon="12.871416759160827"><ele>280.6666666666667</ele><time>2026-03-29T16:14:48.999Z</time></trkpt><trkpt lat="41.99422467281033" lon="12.871116831612945"><ele>284.0</ele><time>2026-03-29T16:14:49.999Z</time></trkpt><trkpt lat="41.994221051427914" lon="12.870817643586808"><ele>284.0</ele><time>2026-03-29T16:14:50.999Z</time></trkpt><trkpt lat="41.99422922486968" lon="12.870555299239717"><ele>284.0</ele><time>2026-03-29T16:14:51.999Z</time></trkpt><trkpt lat="41.99419315800651" lon="12.870293155804884"><ele>284.0</ele><time>2026-03-29T16:14:52.999Z</time></trkpt><trkpt lat="41.99411602416187" lon="12.870002370852312"><ele>276.0</ele><time>2026-03-29T16:14:53.999Z</time></trkpt><trkpt lat="41.99401811484718" lon="12.869713965649934"><ele>268.0</ele><time>2026-03-29T16:14:54.999Z</time></trkpt><trkpt lat="41.99391367089314" lon="12.869430519602524"><ele>270.0</ele><time>2026-03-29T16:14:55.999Z</time></trkpt><trkpt lat="41.99378700590507" lon="12.869157273588199"><ele>272.0</ele><time>2026-03-29T16:14:56.999Z</time></trkpt><trkpt lat="41.99363221476156" lon="12.868903839469487"><ele>272.0</ele><time>2026-03-29T16:14:57.999Z</time></trkpt><trkpt lat="41.99344577807577" lon="12.86867750758908"><ele>272.0</ele><time>2026-03-29T16:14:58.999Z</time></trkpt><trkpt lat="41.99322063625362" lon="12.868471581871834"><ele>276.0</ele><time>2026-03-29T16:14:59.999Z</time></trkpt><trkpt lat="41.99296525078341" lon="12.86826341911756"><ele>280.0</ele><time>2026-03-29T16:15:00.999Z</time></trkpt><trkpt lat="41.99270341622086" lon="12.868060008225452"><ele>272.0</ele><time>2026-03-29T16:15:01.999Z</time></trkpt><trkpt lat="41.99242864962717" lon="12.867871155820296"><ele>264.0</ele><time>2026-03-29T16:15:02.999Z</time></trkpt><trkpt lat="41.99214160834565" lon="12.86769005177208"><ele>263.5</ele><time>2026-03-29T16:15:03.999Z</time></trkpt><trkpt lat="41.99184021462149" lon="12.867511005694032"><ele>263.0</ele><time>2026-03-29T16:15:04.999Z</time></trkpt><trkpt lat="41.99156611075553" lon="12.86735858611542"><ele>263.0</ele><time>2026-03-29T16:15:05.999Z</time></trkpt><trkpt lat="41.99127785620461" lon="12.867211617411474"><ele>263.0</ele><time>2026-03-29T16:15:06.999Z</time></trkpt><trkpt lat="41.990985621260435" lon="12.86709313087755"><ele>262.0</ele><time>2026-03-29T16:15:07.999Z</time></trkpt><trkpt lat="41.99072597259325" lon="12.867007328534369"><ele>261.0</ele><time>2026-03-29T16:15:08.999Z</time></trkpt><trkpt lat="41.99050919107478" lon="12.866934520456697"><ele>261.0</ele><time>2026-03-29T16:15:09.999Z</time></trkpt><trkpt lat="41.99030896457686" lon="12.866862150653223"><ele>261.0</ele><time>2026-03-29T16:15:10.999Z</time></trkpt><trkpt lat="41.99012584424964" lon="12.866733754958556"><ele>261.0</ele><time>2026-03-29T16:15:11.999Z</time></trkpt><trkpt lat="41.989945306677605" lon="12.86660116177944"><ele>258.0</ele><time>2026-03-29T16:15:12.999Z</time></trkpt><trkpt lat="41.98978602242892" lon="12.866416534226081"><ele>255.0</ele><time>2026-03-29T16:15:13.999Z</time></trkpt><trkpt lat="41.98390513772077" lon="12.853997896427444"><ele>255.0</ele><time>2026-03-29T16:16:15Z</time></trkpt><trkpt lat="41.98393666650634" lon="12.853773230001874"><ele>255.0</ele><time>2026-03-29T16:16:16Z</time></trkpt><trkpt lat="41.983995552992575" lon="12.853577193585036"><ele>255.0</ele><time>2026-03-29T16:16:17Z</time></trkpt><trkpt lat="41.984088984405815" lon="12.853371830167474"><ele>259.0</ele><time>2026-03-29T16:16:18Z</time></trkpt><trkpt lat="41.98423352354491" lon="12.853174926083094"><ele>263.0</ele><time>2026-03-29T16:16:19Z</time></trkpt><trkpt lat="41.9844043132235" lon="12.852968410410053"><ele>267.0</ele><time>2026-03-29T16:16:20Z</time></trkpt><trkpt lat="41.98459826519326" lon="12.852739224826285"><ele>263.0</ele><time>2026-03-29T16:16:21Z</time></trkpt><trkpt lat="41.98479849861904" lon="12.852504774587736"><ele>259.0</ele><time>2026-03-29T16:16:22Z</time></trkpt><trkpt lat="41.98500017283214" lon="12.852268637353804"><ele>267.0</ele><time>2026-03-29T16:16:23Z</time></trkpt><trkpt lat="41.985185676075886" lon="12.852050538096313"><ele>275.0</ele><time>2026-03-29T16:16:24Z</time></trkpt><trkpt lat="41.985345187843954" lon="12.851824986785626"><ele>269.0</ele><time>2026-03-29T16:16:25Z</time></trkpt><trkpt lat="41.9855222590203" lon="12.851598534377063"><ele>263.0</ele><time>2026-03-29T16:16:26Z</time></trkpt><trkpt lat="41.98567670739029" lon="12.85135245720833"><ele>263.0</ele><time>2026-03-29T16:16:27Z</time></trkpt><trkpt lat="41.9858053687842" lon="12.851095482030638"><ele>263.0</ele><time>2026-03-29T16:16:28Z</time></trkpt><trkpt lat="41.985911682080356" lon="12.850840346902796"><ele>263.0</ele><time>2026-03-29T16:16:29Z</time></trkpt><trkpt lat="41.98599677770984" lon="12.850568193235366"><ele>263.0</ele><time>2026-03-29T16:16:30Z</time></trkpt><trkpt lat="41.986048597105246" lon="12.850262837337546"><ele>263.0</ele><time>2026-03-29T16:16:31Z</time></trkpt><trkpt lat="41.98606207271055" lon="12.849947494823088"><ele>262.6666666666667</ele><time>2026-03-29T16:16:32Z</time></trkpt><trkpt lat="41.98605349087846" lon="12.849657951083904"><ele>262.3333333333333</ele><time>2026-03-29T16:16:33Z</time></trkpt><trkpt lat="41.986052207835336" lon="12.849410694264751"><ele>262.0</ele><time>2026-03-29T16:16:34Z</time></trkpt><trkpt lat="41.986090944494876" lon="12.849191664797782"><ele>261.66666666666663</ele><time>2026-03-29T16:16:35Z</time></trkpt><trkpt lat="41.9861530884363" lon="12.848992079821167"><ele>261.3333333333333</ele><time>2026-03-29T16:16:36Z</time></trkpt><trkpt lat="41.9862583000539" lon="12.848787522640132"><ele>261.0</ele><time>2026-03-29T16:16:37Z</time></trkpt><trkpt lat="41.986372401946944" lon="12.848582629957532"><ele>259.3333333333333</ele><time>2026-03-29T16:16:38Z</time></trkpt><trkpt lat="41.9864813076197" lon="12.848405397518611"><ele>257.66666666666663</ele><time>2026-03-29T16:16:39Z</time></trkpt><trkpt lat="41.986571864555756" lon="12.84822719942249"><ele>256.0</ele><time>2026-03-29T16:16:40Z</time></trkpt><trkpt lat="41.98663893099435" lon="12.848042280144897"><ele>257.0</ele><time>2026-03-29T16:16:41Z</time></trkpt><trkpt lat="41.98668386600117" lon="12.847841694551647"><ele>258.0</ele><time>2026-03-29T16:16:42Z</time></trkpt><trkpt lat="41.98669630656737" lon="12.847636132878131"><ele>259.0</ele><time>2026-03-29T16:16:43Z</time></trkpt><trkpt lat="41.986685972708315" lon="12.847429304672525"><ele>258.75</ele><time>2026-03-29T16:16:44Z</time></trkpt><trkpt lat="41.986647829906325" lon="12.847238738693282"><ele>258.5</ele><time>2026-03-29T16:16:45Z</time></trkpt><trkpt lat="41.98659576701827" lon="12.84707150974397"><ele>258.25</ele><time>2026-03-29T16:16:46Z</time></trkpt><trkpt lat="41.986542759205804" lon="12.846919894619639"><ele>258.0</ele><time>2026-03-29T16:16:47Z</time></trkpt><trkpt lat="41.98648811916911" lon="12.846775777767492"><ele>257.75</ele><time>2026-03-29T16:16:48Z</time></trkpt><trkpt lat="41.98642619643945" lon="12.846635827651209"><ele>257.5</ele><time>2026-03-29T16:16:48.999Z</time></trkpt><trkpt lat="41.986366774625736" lon="12.846451684450283"><ele>257.25</ele><time>2026-03-29T16:16:49.999Z</time></trkpt><trkpt lat="41.98628906574787" lon="12.846249096744469"><ele>257.0</ele><time>2026-03-29T16:16:50.999Z</time></trkpt><trkpt lat="41.986194952301155" lon="12.846046092590782"><ele>256.0</ele><time>2026-03-29T16:16:51.999Z</time></trkpt><trkpt lat="41.98609973676224" lon="12.8458064345623"><ele>255.0</ele><time>2026-03-29T16:16:52.999Z</time></trkpt><trkpt lat="41.98598354986231" lon="12.8455499900333"><ele>254.0</ele><time>2026-03-29T16:16:53.999Z</time></trkpt><trkpt lat="41.985856957430336" lon="12.845311347943928"><ele>254.66666666666669</ele><time>2026-03-29T16:16:54.999Z</time></trkpt><trkpt lat="41.98571215550675" lon="12.845102493126852"><ele>255.33333333333331</ele><time>2026-03-29T16:16:55.999Z</time></trkpt><trkpt lat="41.985562005478926" lon="12.844932718793961"><ele>256.0</ele><time>2026-03-29T16:16:56.999Z</time></trkpt><trkpt lat="41.985416486726905" lon="12.84478796660052"><ele>256.0</ele><time>2026-03-29T16:16:57.999Z</time></trkpt><trkpt lat="41.98528053003406" lon="12.84465820531343"><ele>256.0</ele><time>2026-03-29T16:16:58.999Z</time></trkpt><trkpt lat="41.98513946987003" lon="12.844541517399112"><ele>256.0</ele><time>2026-03-29T16:16:59.999Z</time></trkpt><trkpt lat="41.98498487673022" lon="12.844425424240715"><ele>256.3333333333333</ele><time>2026-03-29T16:17:00.999Z</time></trkpt><trkpt lat="41.984818625427934" lon="12.844320714587235"><ele>256.6666666666667</ele><time>2026-03-29T16:17:01.999Z</time></trkpt><trkpt lat="41.98464555608071" lon="12.844238955818307"><ele>257.0</ele><time>2026-03-29T16:17:02.999Z</time></trkpt><trkpt lat="41.98443693246707" lon="12.844162150199175"><ele>257.0</ele><time>2026-03-29T16:17:03.999Z</time></trkpt><trkpt lat="41.98421439945449" lon="12.844088558279854"><ele>257.0</ele><time>2026-03-29T16:17:04.999Z</time></trkpt><trkpt lat="41.98398919989797" lon="12.844041932859088"><ele>255.5</ele><time>2026-03-29T16:17:05.999Z</time></trkpt><trkpt lat="41.983764856623104" lon="12.844035754899924"><ele>254.0</ele><time>2026-03-29T16:17:06.999Z</time></trkpt><trkpt lat="41.98352360373288" lon="12.844066230958383"><ele>254.0</ele><time>2026-03-29T16:17:07.999Z</time></trkpt><trkpt lat="41.9832659061171" lon="12.844111686761442"><ele>254.0</ele><time>2026-03-29T16:17:08.999Z</time></trkpt><trkpt lat="41.983039348186296" lon="12.844169622335437"><ele>254.0</ele><time>2026-03-29T16:17:09.999Z</time></trkpt><trkpt lat="41.98281737225729" lon="12.844211605389672"><ele>254.0</ele><time>2026-03-29T16:17:10.999Z</time></trkpt><trkpt lat="41.98260852505554" lon="12.844238531170728"><ele>254.0</ele><time>2026-03-29T16:17:11.999Z</time></trkpt><trkpt lat="41.9824211006149" lon="12.844264718152923"><ele>254.5</ele><time>2026-03-29T16:17:12.999Z</time></trkpt><trkpt lat="41.98224724878426" lon="12.844294884732905"><ele>255.0</ele><time>2026-03-29T16:17:13.999Z</time></trkpt><trkpt lat="41.97601765452866" lon="12.833082694310313"><ele>256.0</ele><time>2026-03-29T16:18:15Z</time></trkpt><trkpt lat="41.97579800147739" lon="12.832986474946395"><ele>257.0</ele><time>2026-03-29T16:18:16Z</time></trkpt><trkpt lat="41.9755779294847" lon="12.83288554863824"><ele>257.0</ele><time>2026-03-29T16:18:17Z</time></trkpt><trkpt lat="41.97534936511451" lon="12.832789630172384"><ele>257.0</ele><time>2026-03-29T16:18:18Z</time></trkpt><trkpt lat="41.97510231621227" lon="12.832690278296463"><ele>260.5</ele><time>2026-03-29T16:18:19Z</time></trkpt><trkpt lat="41.974837623040145" lon="12.832608099070548"><ele>264.0</ele><time>2026-03-29T16:18:20Z</time></trkpt><trkpt lat="41.97456272741304" lon="12.832540191012573"><ele>264.0</ele><time>2026-03-29T16:18:21Z</time></trkpt><trkpt lat="41.97429715241555" lon="12.832486901394521"><ele>264.0</ele><time>2026-03-29T16:18:22Z</time></trkpt><trkpt lat="41.97403223564084" lon="12.83243270832208"><ele>263.5</ele><time>2026-03-29T16:18:23Z</time></trkpt><trkpt lat="41.97375779331932" lon="12.832376151522592"><ele>263.0</ele><time>2026-03-29T16:18:24Z</time></trkpt><trkpt lat="41.973489615248766" lon="12.832320252419782"><ele>261.0</ele><time>2026-03-29T16:18:25Z</time></trkpt><trkpt lat="41.97324000255438" lon="12.83226720726369"><ele>259.0</ele><time>2026-03-29T16:18:26Z</time></trkpt><trkpt lat="41.97300195442098" lon="12.832216968100855"><ele>259.0</ele><time>2026-03-29T16:18:27Z</time></trkpt><trkpt lat="41.97275769543301" lon="12.832158638460156"><ele>259.0</ele><time>2026-03-29T16:18:28Z</time></trkpt><trkpt lat="41.97251251222372" lon="12.832093196291934"><ele>257.5</ele><time>2026-03-29T16:18:29Z</time></trkpt><trkpt lat="41.972275612299235" lon="12.832014719182418"><ele>256.0</ele><time>2026-03-29T16:18:30Z</time></trkpt><trkpt lat="41.972062476206695" lon="12.831910751463402"><ele>255.66666666666666</ele><time>2026-03-29T16:18:31Z</time></trkpt><trkpt lat="41.97186298096843" lon="12.831786252726753"><ele>255.33333333333331</ele><time>2026-03-29T16:18:32Z</time></trkpt><trkpt lat="41.97167233176117" lon="12.831661382955227"><ele>255.0</ele><time>2026-03-29T16:18:33Z</time></trkpt><trkpt lat="41.97148985410205" lon="12.831527869351394"><ele>253.0</ele><time>2026-03-29T16:18:34Z</time></trkpt><trkpt lat="41.9713013588516" lon="12.831350523689931"><ele>251.0</ele><time>2026-03-29T16:18:35Z</time></trkpt><trkpt lat="41.97107876942204" lon="12.831179733206353"><ele>252.5</ele><time>2026-03-29T16:18:36Z</time></trkpt><trkpt lat="41.970872186447906" lon="12.830973887141141"><ele>254.0</ele><time>2026-03-29T16:18:37Z</time></trkpt><trkpt lat="41.970653521400244" lon="12.830771709406486"><ele>255.0</ele><time>2026-03-29T16:18:38Z</time></trkpt><trkpt lat="41.97041970734437" lon="12.830573007949678"><ele>256.0</ele><time>2026-03-29T16:18:39Z</time></trkpt><trkpt lat="41.97019293618717" lon="12.830384587854356"><ele>256.5</ele><time>2026-03-29T16:18:40Z</time></trkpt><trkpt lat="41.96997926866786" lon="12.830193827716043"><ele>257.0</ele><time>2026-03-29T16:18:41Z</time></trkpt><trkpt lat="41.96976497478774" lon="12.829987494997438"><ele>258.5</ele><time>2026-03-29T16:18:42Z</time></trkpt><trkpt lat="41.96956931487034" lon="12.82977170993521"><ele>260.0</ele><time>2026-03-29T16:18:43Z</time></trkpt><trkpt lat="41.96940195918929" lon="12.829559394113376"><ele>260.0</ele><time>2026-03-29T16:18:44Z</time></trkpt><trkpt lat="41.96925081267617" lon="12.829350511830116"><ele>260.0</ele><time>2026-03-29T16:18:45Z</time></trkpt><trkpt lat="41.96911695367739" lon="12.829140788452671"><ele>260.0</ele><time>2026-03-29T16:18:46Z</time></trkpt><trkpt lat="41.968977417796985" lon="12.828907099461444"><ele>261.5</ele><time>2026-03-29T16:18:47Z</time></trkpt><trkpt lat="41.96884212155307" lon="12.828642650800559"><ele>263.0</ele><time>2026-03-29T16:18:48Z</time></trkpt><trkpt lat="41.968714549929594" lon="12.828357321670294"><ele>263.0</ele><time>2026-03-29T16:18:49Z</time></trkpt><trkpt lat="41.96858562511367" lon="12.828060076105713"><ele>263.0</ele><time>2026-03-29T16:18:50Z</time></trkpt><trkpt lat="41.96844111328796" lon="12.827760726552143"><ele>262.0</ele><time>2026-03-29T16:18:51Z</time></trkpt><trkpt lat="41.96829082110669" lon="12.82746103878206"><ele>261.0</ele><time>2026-03-29T16:18:52Z</time></trkpt><trkpt lat="41.96820064857967" lon="12.827234117763604"><ele>261.0</ele><time>2026-03-29T16:18:53Z</time></trkpt><trkpt lat="41.96806254028237" lon="12.826969779913469"><ele>261.0</ele><time>2026-03-29T16:18:54Z</time></trkpt><trkpt lat="41.96792065317489" lon="12.82673110478504"><ele>262.0</ele><time>2026-03-29T16:18:55Z</time></trkpt><trkpt lat="41.96775353232434" lon="12.826493018240974"><ele>263.0</ele><time>2026-03-29T16:18:55.999Z</time></trkpt><trkpt lat="41.967558890993985" lon="12.826262315392736"><ele>261.0</ele><time>2026-03-29T16:18:56.999Z</time></trkpt><trkpt lat="41.96735512346577" lon="12.826052978550969"><ele>259.0</ele><time>2026-03-29T16:18:57.999Z</time></trkpt><trkpt lat="41.967143019714065" lon="12.825863212779366"><ele>259.0</ele><time>2026-03-29T16:18:58.999Z</time></trkpt><trkpt lat="41.966918402948565" lon="12.825682912899383"><ele>259.0</ele><time>2026-03-29T16:18:59.999Z</time></trkpt><trkpt lat="41.966669422482646" lon="12.82551958115836"><ele>257.5</ele><time>2026-03-29T16:19:00.999Z</time></trkpt><trkpt lat="41.96639682540765" lon="12.82536719038972"><ele>256.0</ele><time>2026-03-29T16:19:01.999Z</time></trkpt><trkpt lat="41.96611395044438" lon="12.825205487834024"><ele>256.5</ele><time>2026-03-29T16:19:02.999Z</time></trkpt><trkpt lat="41.965830296500016" lon="12.825043808287436"><ele>257.0</ele><time>2026-03-29T16:19:03.999Z</time></trkpt><trkpt lat="41.96552090935423" lon="12.824862752691256"><ele>257.0</ele><time>2026-03-29T16:19:04.999Z</time></trkpt><trkpt lat="41.965202715214346" lon="12.824674751566013"><ele>257.0</ele><time>2026-03-29T16:19:05.999Z</time></trkpt><trkpt lat="41.964920608727084" lon="12.824500276754874"><ele>257.5</ele><time>2026-03-29T16:19:06.999Z</time></trkpt><trkpt lat="41.9646373068516" lon="12.82434293125398"><ele>258.0</ele><time>2026-03-29T16:19:07.999Z</time></trkpt><trkpt lat="41.964354774434526" lon="12.824185677604284"><ele>258.5</ele><time>2026-03-29T16:19:08.999Z</time></trkpt><trkpt lat="41.96409348091612" lon="12.824025474077994"><ele>259.0</ele><time>2026-03-29T16:19:09.999Z</time></trkpt><trkpt lat="41.963842491750384" lon="12.823867810992942"><ele>259.0</ele><time>2026-03-29T16:19:10.999Z</time></trkpt><trkpt lat="41.963601720731695" lon="12.823705873525165"><ele>259.0</ele><time>2026-03-29T16:19:11.999Z</time></trkpt><trkpt lat="41.963361091924476" lon="12.823506401726794"><ele>259.0</ele><time>2026-03-29T16:19:12.999Z</time></trkpt><trkpt lat="41.96312875140453" lon="12.823300992394469"><ele>259.0</ele><time>2026-03-29T16:19:13.999Z</time></trkpt><trkpt lat="41.95622361957604" lon="12.812226556073854"><ele>261.3333333333333</ele><time>2026-03-29T16:20:14.998Z</time></trkpt><trkpt lat="41.956286413036906" lon="12.811948247180773"><ele>263.6666666666667</ele><time>2026-03-29T16:20:15.998Z</time></trkpt><trkpt lat="41.95634347820573" lon="12.811662619026373"><ele>266.0</ele><time>2026-03-29T16:20:17Z</time></trkpt><trkpt lat="41.9564047451863" lon="12.811405239372089"><ele>266.0</ele><time>2026-03-29T16:20:18Z</time></trkpt><trkpt lat="41.95647099209984" lon="12.811164692637337"><ele>266.0</ele><time>2026-03-29T16:20:19Z</time></trkpt><trkpt lat="41.95653971835861" lon="12.810958575033649"><ele>266.0</ele><time>2026-03-29T16:20:20Z</time></trkpt><trkpt lat="41.9566373037981" lon="12.810766118365349"><ele>265.33333333333337</ele><time>2026-03-29T16:20:21Z</time></trkpt><trkpt lat="41.95678159945798" lon="12.810592764445287"><ele>264.6666666666667</ele><time>2026-03-29T16:20:22Z</time></trkpt><trkpt lat="41.95691732190158" lon="12.810375619120903"><ele>264.0</ele><time>2026-03-29T16:20:23Z</time></trkpt><trkpt lat="41.95706404613414" lon="12.810153366451967"><ele>260.0</ele><time>2026-03-29T16:20:24Z</time></trkpt><trkpt lat="41.95720430776346" lon="12.8099236138265"><ele>256.0</ele><time>2026-03-29T16:20:25Z</time></trkpt><trkpt lat="41.95734804820075" lon="12.809689414595105"><ele>252.0</ele><time>2026-03-29T16:20:26Z</time></trkpt><trkpt lat="41.95748544461285" lon="12.809455090157035"><ele>255.33333333333331</ele><time>2026-03-29T16:20:27Z</time></trkpt><trkpt lat="41.95761099447434" lon="12.809239289754823"><ele>258.66666666666663</ele><time>2026-03-29T16:20:28Z</time></trkpt><trkpt lat="41.957731128404866" lon="12.809033132324192"><ele>262.0</ele><time>2026-03-29T16:20:29Z</time></trkpt><trkpt lat="41.95784649161494" lon="12.80883699119021"><ele>262.0</ele><time>2026-03-29T16:20:30Z</time></trkpt><trkpt lat="41.957954079810236" lon="12.808654821663206"><ele>262.0</ele><time>2026-03-29T16:20:31Z</time></trkpt><trkpt lat="41.958068797723314" lon="12.80849597573491"><ele>262.0</ele><time>2026-03-29T16:20:32Z</time></trkpt><trkpt lat="41.95817395132196" lon="12.808329662746713"><ele>266.0</ele><time>2026-03-29T16:20:33Z</time></trkpt><trkpt lat="41.95830592208757" lon="12.808120935227475"><ele>270.0</ele><time>2026-03-29T16:20:34Z</time></trkpt><trkpt lat="41.95844373737898" lon="12.807903534248691"><ele>274.0</ele><time>2026-03-29T16:20:35Z</time></trkpt><trkpt lat="41.958556051105" lon="12.807696691559524"><ele>264.5</ele><time>2026-03-29T16:20:36Z</time></trkpt><trkpt lat="41.95871442238149" lon="12.807486310801455"><ele>255.0</ele><time>2026-03-29T16:20:37Z</time></trkpt><trkpt lat="41.958873214450584" lon="12.807240848314198"><ele>255.0</ele><time>2026-03-29T16:20:38Z</time></trkpt><trkpt lat="41.95901354240799" lon="12.807019120724862"><ele>255.0</ele><time>2026-03-29T16:20:39Z</time></trkpt><trkpt lat="41.95913017004047" lon="12.806799916501284"><ele>255.0</ele><time>2026-03-29T16:20:40Z</time></trkpt><trkpt lat="41.95927148939473" lon="12.80661582398773"><ele>256.0</ele><time>2026-03-29T16:20:41Z</time></trkpt><trkpt lat="41.95942044420645" lon="12.80643909938459"><ele>257.0</ele><time>2026-03-29T16:20:42Z</time></trkpt><trkpt lat="41.959575472743964" lon="12.806278738641268"><ele>258.0</ele><time>2026-03-29T16:20:43Z</time></trkpt><trkpt lat="41.95971261672846" lon="12.806147447470979"><ele>258.0</ele><time>2026-03-29T16:20:44Z</time></trkpt><trkpt lat="41.95986360896223" lon="12.806048506208498"><ele>258.0</ele><time>2026-03-29T16:20:45Z</time></trkpt><trkpt lat="41.96002180875274" lon="12.80597255818856"><ele>258.0</ele><time>2026-03-29T16:20:46Z</time></trkpt><trkpt lat="41.96017053736633" lon="12.805924272278356"><ele>253.25</ele><time>2026-03-29T16:20:47Z</time></trkpt><trkpt lat="41.960298385426164" lon="12.805893468642676"><ele>248.5</ele><time>2026-03-29T16:20:48Z</time></trkpt><trkpt lat="41.96040735096304" lon="12.805873133242324"><ele>243.75</ele><time>2026-03-29T16:20:49Z</time></trkpt><trkpt lat="41.96051478271793" lon="12.805864276486782"><ele>239.0</ele><time>2026-03-29T16:20:50Z</time></trkpt><trkpt lat="41.960623708104436" lon="12.805862332884374"><ele>239.0</ele><time>2026-03-29T16:20:51Z</time></trkpt><trkpt lat="41.96075991234739" lon="12.8058618168107"><ele>239.0</ele><time>2026-03-29T16:20:52Z</time></trkpt><trkpt lat="41.96091578406665" lon="12.805860482677812"><ele>239.0</ele><time>2026-03-29T16:20:53Z</time></trkpt><trkpt lat="41.96109399683689" lon="12.805854225872464"><ele>239.25</ele><time>2026-03-29T16:20:54Z</time></trkpt><trkpt lat="41.961250634275395" lon="12.80584655485598"><ele>239.5</ele><time>2026-03-29T16:20:55Z</time></trkpt><trkpt lat="41.9613702101047" lon="12.80581053173987"><ele>239.75</ele><time>2026-03-29T16:20:56Z</time></trkpt><trkpt lat="41.96147784709183" lon="12.80578119517252"><ele>240.0</ele><time>2026-03-29T16:20:57Z</time></trkpt><trkpt lat="41.961582521625694" lon="12.805757447491208"><ele>240.0</ele><time>2026-03-29T16:20:58Z</time></trkpt><trkpt lat="41.96168617243677" lon="12.805710201046551"><ele>240.0</ele><time>2026-03-29T16:20:59Z</time></trkpt><trkpt lat="41.96180169714942" lon="12.80565423660577"><ele>240.0</ele><time>2026-03-29T16:21:00Z</time></trkpt><trkpt lat="41.96195226888192" lon="12.805578570181419"><ele>240.0</ele><time>2026-03-29T16:21:01Z</time></trkpt><trkpt lat="41.962151813952815" lon="12.805474908387845"><ele>244.66666666666669</ele><time>2026-03-29T16:21:02Z</time></trkpt><trkpt lat="41.96235766138586" lon="12.80534903589254"><ele>249.33333333333334</ele><time>2026-03-29T16:21:02.999Z</time></trkpt><trkpt lat="41.962555936796356" lon="12.805251843035652"><ele>254.0</ele><time>2026-03-29T16:21:03.999Z</time></trkpt><trkpt lat="41.96274055492747" lon="12.805180766069501"><ele>251.66666666666669</ele><time>2026-03-29T16:21:04.999Z</time></trkpt><trkpt lat="41.96289490792134" lon="12.805058408105626"><ele>249.33333333333331</ele><time>2026-03-29T16:21:05.999Z</time></trkpt><trkpt lat="41.96304431061744" lon="12.804941502821046"><ele>247.0</ele><time>2026-03-29T16:21:06.999Z</time></trkpt><trkpt lat="41.96318492431096" lon="12.804807975183314"><ele>247.0</ele><time>2026-03-29T16:21:07.999Z</time></trkpt><trkpt lat="41.96330711965664" lon="12.804685297171638"><ele>247.0</ele><time>2026-03-29T16:21:08.999Z</time></trkpt><trkpt lat="41.96341804661669" lon="12.804540238755086"><ele>247.0</ele><time>2026-03-29T16:21:09.999Z</time></trkpt><trkpt lat="41.963522081018425" lon="12.804356497088476"><ele>250.66666666666666</ele><time>2026-03-29T16:21:10.999Z</time></trkpt><trkpt lat="41.96363325098676" lon="12.804125747918633"><ele>254.33333333333331</ele><time>2026-03-29T16:21:11.999Z</time></trkpt><trkpt lat="41.96373540168884" lon="12.80388603608934"><ele>258.0</ele><time>2026-03-29T16:21:12.999Z</time></trkpt><trkpt lat="41.963837935247355" lon="12.80367699214825"><ele>213.0</ele><time>2026-03-29T16:21:13.999Z</time></trkpt><trkpt lat="41.9659934707975" lon="12.80319445784477"><ele>213.0</ele><time>2026-03-29T16:22:14.998Z</time></trkpt><trkpt lat="41.966079205928295" lon="12.803254701980817"><ele>213.0</ele><time>2026-03-29T16:22:19.998Z</time></trkpt><trkpt lat="41.96618699303786" lon="12.803342827596914"><ele>213.0</ele><time>2026-03-29T16:22:21.998Z</time></trkpt><trkpt lat="41.966250753999525" lon="12.80343876243082"><ele>213.0</ele><time>2026-03-29T16:22:24Z</time></trkpt><trkpt lat="41.966329614937635" lon="12.803506644322296"><ele>213.0</ele><time>2026-03-29T16:22:27Z</time></trkpt><trkpt lat="41.96637964077379" lon="12.803586243490399"><ele>219.0</ele><time>2026-03-29T16:22:28Z</time></trkpt><trkpt lat="41.9664437762366" lon="12.803743692502858"><ele>225.0</ele><time>2026-03-29T16:22:29Z</time></trkpt><trkpt lat="41.966530373335836" lon="12.803939117701583"><ele>231.0</ele><time>2026-03-29T16:22:30Z</time></trkpt><trkpt lat="41.96662613649529" lon="12.80411286679638"><ele>223.75</ele><time>2026-03-29T16:22:31Z</time></trkpt><trkpt lat="41.96672600220374" lon="12.8042533558884"><ele>216.5</ele><time>2026-03-29T16:22:32Z</time></trkpt><trkpt lat="41.96679285609654" lon="12.804404241737021"><ele>209.25</ele><time>2026-03-29T16:22:33Z</time></trkpt><trkpt lat="41.96686882219601" lon="12.80452977791497"><ele>202.0</ele><time>2026-03-29T16:22:34Z</time></trkpt><trkpt lat="41.96694509015847" lon="12.804658703508364"><ele>202.0</ele><time>2026-03-29T16:22:35Z</time></trkpt><trkpt lat="41.96702228105866" lon="12.804794861519557"><ele>202.0</ele><time>2026-03-29T16:22:36Z</time></trkpt><trkpt lat="41.967088748154005" lon="12.804926836726374"><ele>202.0</ele><time>2026-03-29T16:22:37Z</time></trkpt><trkpt lat="41.96714005281773" lon="12.805075059305667"><ele>202.0</ele><time>2026-03-29T16:22:38Z</time></trkpt><trkpt lat="41.96718374291281" lon="12.80525263291317"><ele>205.75</ele><time>2026-03-29T16:22:39Z</time></trkpt><trkpt lat="41.96721882987297" lon="12.805448732358974"><ele>209.5</ele><time>2026-03-29T16:22:40Z</time></trkpt><trkpt lat="41.96725398974791" lon="12.80564418600104"><ele>213.25</ele><time>2026-03-29T16:22:41Z</time></trkpt><trkpt lat="41.96728864031952" lon="12.805836808499865"><ele>217.0</ele><time>2026-03-29T16:22:42Z</time></trkpt><trkpt lat="41.96732233461241" lon="12.806024114937633"><ele>218.0</ele><time>2026-03-29T16:22:43Z</time></trkpt><trkpt lat="41.967354666697084" lon="12.806209871307942"><ele>219.0</ele><time>2026-03-29T16:22:44Z</time></trkpt><trkpt lat="41.96740039031883" lon="12.806395982141375"><ele>220.0</ele><time>2026-03-29T16:22:45Z</time></trkpt><trkpt lat="41.967430119993665" lon="12.806593400663306"><ele>221.0</ele><time>2026-03-29T16:22:46Z</time></trkpt><trkpt lat="41.96742790703271" lon="12.806795222457023"><ele>222.75</ele><time>2026-03-29T16:22:47Z</time></trkpt><trkpt lat="41.96742456235216" lon="12.806979676032789"><ele>224.5</ele><time>2026-03-29T16:22:48Z</time></trkpt><trkpt lat="41.96741265469475" lon="12.80714870398141"><ele>226.25</ele><time>2026-03-29T16:22:49Z</time></trkpt><trkpt lat="41.96739783835237" lon="12.807292703449066"><ele>228.0</ele><time>2026-03-29T16:22:50Z</time></trkpt><trkpt lat="41.96742058687948" lon="12.807407589320068"><ele>228.0</ele><time>2026-03-29T16:22:51Z</time></trkpt><trkpt lat="41.967451057684045" lon="12.807534667618993"><ele>228.0</ele><time>2026-03-29T16:22:52Z</time></trkpt><trkpt lat="41.96753363143459" lon="12.80763004034169"><ele>228.0</ele><time>2026-03-29T16:22:53Z</time></trkpt><trkpt lat="41.967638150101614" lon="12.807682690860686"><ele>228.0</ele><time>2026-03-29T16:22:54Z</time></trkpt><trkpt lat="41.967750477091656" lon="12.807684517975542"><ele>228.0</ele><time>2026-03-29T16:22:55Z</time></trkpt><trkpt lat="41.96786446430481" lon="12.80761856104353"><ele>227.66666666666669</ele><time>2026-03-29T16:22:56Z</time></trkpt><trkpt lat="41.96797556197783" lon="12.807497281751685"><ele>227.33333333333334</ele><time>2026-03-29T16:22:57Z</time></trkpt><trkpt lat="41.96808911541258" lon="12.807366132486713"><ele>227.0</ele><time>2026-03-29T16:22:58Z</time></trkpt><trkpt lat="41.968224068622526" lon="12.807253782963803"><ele>227.0</ele><time>2026-03-29T16:22:59Z</time></trkpt><trkpt lat="41.968320199330805" lon="12.807192679171438"><ele>227.0</ele><time>2026-03-29T16:23:00Z</time></trkpt><trkpt lat="41.96843106957911" lon="12.807169917692901"><ele>227.0</ele><time>2026-03-29T16:23:01Z</time></trkpt><trkpt lat="41.96859440158312" lon="12.807212264460265"><ele>227.0</ele><time>2026-03-29T16:23:02Z</time></trkpt><trkpt lat="41.96876648662499" lon="12.807276184962351"><ele>226.5</ele><time>2026-03-29T16:23:03Z</time></trkpt><trkpt lat="41.96891808078982" lon="12.80732323820563"><ele>226.0</ele><time>2026-03-29T16:23:04Z</time></trkpt><trkpt lat="41.96903569840966" lon="12.807381740711739"><ele>225.5</ele><time>2026-03-29T16:23:05Z</time></trkpt><trkpt lat="41.96914477685039" lon="12.807400741065457"><ele>225.0</ele><time>2026-03-29T16:23:05.999Z</time></trkpt><trkpt lat="41.96925610289978" lon="12.807350073221762"><ele>227.66666666666669</ele><time>2026-03-29T16:23:06.999Z</time></trkpt><trkpt lat="41.96934894829457" lon="12.807220355235938"><ele>230.33333333333334</ele><time>2026-03-29T16:23:07.999Z</time></trkpt><trkpt lat="41.969404783429304" lon="12.80703335412125"><ele>233.0</ele><time>2026-03-29T16:23:08.999Z</time></trkpt><trkpt lat="41.9694183097068" lon="12.806811047669303"><ele>233.0</ele><time>2026-03-29T16:23:09.999Z</time></trkpt><trkpt lat="41.969413018232544" lon="12.80658732374039"><ele>233.0</ele><time>2026-03-29T16:23:10.999Z</time></trkpt><trkpt lat="41.969412108502624" lon="12.806392449781555"><ele>233.0</ele><time>2026-03-29T16:23:11.999Z</time></trkpt><trkpt lat="41.969430190683504" lon="12.806215871404536"><ele>233.0</ele><time>2026-03-29T16:23:12.999Z</time></trkpt><trkpt lat="41.96945762242681" lon="12.806043707593782"><ele>245.0</ele><time>2026-03-29T16:23:13.999Z</time></trkpt><trkpt lat="41.970536781198504" lon="12.800194382389046"><ele>241.2</ele><time>2026-03-29T16:24:14.998Z</time></trkpt><trkpt lat="41.97063586107323" lon="12.800133183032955"><ele>237.4</ele><time>2026-03-29T16:24:15.998Z</time></trkpt><trkpt lat="41.970727878985706" lon="12.800076080138501"><ele>233.60000000000002</ele><time>2026-03-29T16:24:16.998Z</time></trkpt><trkpt lat="41.97081879179525" lon="12.800004932213536"><ele>229.8</ele><time>2026-03-29T16:24:17.998Z</time></trkpt><trkpt lat="41.97090196911671" lon="12.799898515278073"><ele>226.0</ele><time>2026-03-29T16:24:18.998Z</time></trkpt><trkpt lat="41.97096895905582" lon="12.799768180341543"><ele>233.4</ele><time>2026-03-29T16:24:19.998Z</time></trkpt><trkpt lat="41.97101232514044" lon="12.799611872372198"><ele>240.8</ele><time>2026-03-29T16:24:20.998Z</time></trkpt><trkpt lat="41.97105108493086" lon="12.799464883263372"><ele>248.20000000000002</ele><time>2026-03-29T16:24:21.998Z</time></trkpt><trkpt lat="41.971099106257235" lon="12.799343832798858"><ele>255.60000000000002</ele><time>2026-03-29T16:24:22.998Z</time></trkpt><trkpt lat="41.97115007424332" lon="12.799252932922611"><ele>263.0</ele><time>2026-03-29T16:24:23.998Z</time></trkpt><trkpt lat="41.97118886504038" lon="12.799166250028303"><ele>263.0</ele><time>2026-03-29T16:24:24.998Z</time></trkpt><trkpt lat="41.971209168464156" lon="12.799064504443065"><ele>263.0</ele><time>2026-03-29T16:24:25.998Z</time></trkpt><trkpt lat="41.9712095728485" lon="12.798944952290524"><ele>263.0</ele><time>2026-03-29T16:24:26.998Z</time></trkpt><trkpt lat="41.97118988093681" lon="12.798779604879254"><ele>263.0</ele><time>2026-03-29T16:24:27.998Z</time></trkpt><trkpt lat="41.971167051289775" lon="12.798577961620389"><ele>263.0</ele><time>2026-03-29T16:24:29Z</time></trkpt><trkpt lat="41.97115597440011" lon="12.798388153038276"><ele>260.6</ele><time>2026-03-29T16:24:30Z</time></trkpt><trkpt lat="41.9711485828628" lon="12.798237047202901"><ele>258.20000000000005</ele><time>2026-03-29T16:24:31Z</time></trkpt><trkpt lat="41.971145197644404" lon="12.798117901329906"><ele>255.8</ele><time>2026-03-29T16:24:32Z</time></trkpt><trkpt lat="41.971150315441015" lon="12.797993194897256"><ele>253.4</ele><time>2026-03-29T16:24:33Z</time></trkpt><trkpt lat="41.971169931047484" lon="12.797857402240068"><ele>251.0</ele><time>2026-03-29T16:24:34Z</time></trkpt><trkpt lat="41.97119815462191" lon="12.79772214742118"><ele>249.00000000000003</ele><time>2026-03-29T16:24:35Z</time></trkpt><trkpt lat="41.971227024835194" lon="12.797597392482087"><ele>247.0</ele><time>2026-03-29T16:24:35.999Z</time></trkpt><trkpt lat="41.9712489033781" lon="12.797492560195154"><ele>245.0</ele><time>2026-03-29T16:24:36.999Z</time></trkpt><trkpt lat="41.97126677937415" lon="12.797398682912679"><ele>243.0</ele><time>2026-03-29T16:24:37.999Z</time></trkpt><trkpt lat="41.97127906200762" lon="12.79730889006079"><ele>241.00000000000003</ele><time>2026-03-29T16:24:38.999Z</time></trkpt><trkpt lat="41.97131755731742" lon="12.797182719247726"><ele>239.0</ele><time>2026-03-29T16:24:39.999Z</time></trkpt><trkpt lat="41.9712646091716" lon="12.79697577010311"><ele>236.25</ele><time>2026-03-29T16:24:40.999Z</time></trkpt><trkpt lat="41.9712620300203" lon="12.796800336110076"><ele>233.5</ele><time>2026-03-29T16:24:41.999Z</time></trkpt><trkpt lat="41.97126776429134" lon="12.796645987158316"><ele>230.75</ele><time>2026-03-29T16:24:42.999Z</time></trkpt><trkpt lat="41.97127281037943" lon="12.796499387909265"><ele>228.0</ele><time>2026-03-29T16:24:43.999Z</time></trkpt><trkpt lat="41.97128177389205" lon="12.796354646912883"><ele>228.0</ele><time>2026-03-29T16:24:44.999Z</time></trkpt><trkpt lat="41.97130366820414" lon="12.79619712085435"><ele>228.0</ele><time>2026-03-29T16:24:45.999Z</time></trkpt><trkpt lat="41.97131713737248" lon="12.79601604683565"><ele>228.0</ele><time>2026-03-29T16:24:46.999Z</time></trkpt><trkpt lat="41.97133540530656" lon="12.795815851040773"><ele>228.0</ele><time>2026-03-29T16:24:47.999Z</time></trkpt><trkpt lat="41.971351705347395" lon="12.795595090860497"><ele>223.66666666666669</ele><time>2026-03-29T16:24:48.999Z</time></trkpt><trkpt lat="41.97137628893116" lon="12.795357135426586"><ele>219.33333333333334</ele><time>2026-03-29T16:24:49.999Z</time></trkpt><trkpt lat="41.97140252391149" lon="12.795130047485396"><ele>215.0</ele><time>2026-03-29T16:24:50.999Z</time></trkpt><trkpt lat="41.97143404905109" lon="12.794910455094483"><ele>211.33333333333334</ele><time>2026-03-29T16:24:51.999Z</time></trkpt><trkpt lat="41.971471486151486" lon="12.794685644012533"><ele>207.66666666666669</ele><time>2026-03-29T16:24:52.999Z</time></trkpt><trkpt lat="41.97150926580544" lon="12.794466203935825"><ele>204.0</ele><time>2026-03-29T16:24:53.999Z</time></trkpt><trkpt lat="41.9715461775549" lon="12.794251174877783"><ele>201.75</ele><time>2026-03-29T16:24:54.999Z</time></trkpt><trkpt lat="41.97157725696822" lon="12.79404382628143"><ele>199.5</ele><time>2026-03-29T16:24:55.999Z</time></trkpt><trkpt lat="41.97159357863648" lon="12.79386179017448"><ele>197.25</ele><time>2026-03-29T16:24:56.999Z</time></trkpt><trkpt lat="41.97159445901847" lon="12.793711101094855"><ele>195.0</ele><time>2026-03-29T16:24:57.999Z</time></trkpt><trkpt lat="41.97157851763122" lon="12.793576670759368"><ele>192.0</ele><time>2026-03-29T16:24:58.999Z</time></trkpt><trkpt lat="41.97152823525088" lon="12.793432120359933"><ele>189.0</ele><time>2026-03-29T16:24:59.999Z</time></trkpt><trkpt lat="41.97144172903649" lon="12.793291916360722"><ele>186.0</ele><time>2026-03-29T16:25:00.999Z</time></trkpt><trkpt lat="41.97133924259194" lon="12.793145280002145"><ele>183.0</ele><time>2026-03-29T16:25:01.999Z</time></trkpt><trkpt lat="41.97123986120861" lon="12.792994146434715"><ele>183.0</ele><time>2026-03-29T16:25:02.999Z</time></trkpt><trkpt lat="41.971147643597064" lon="12.792848524837108"><ele>183.0</ele><time>2026-03-29T16:25:03.999Z</time></trkpt><trkpt lat="41.97105762806095" lon="12.79270373451059"><ele>183.0</ele><time>2026-03-29T16:25:04.999Z</time></trkpt><trkpt lat="41.97097227899828" lon="12.792572307367283"><ele>183.0</ele><time>2026-03-29T16:25:05.999Z</time></trkpt><trkpt lat="41.970899631766756" lon="12.792434738511657"><ele>180.0</ele><time>2026-03-29T16:25:06.999Z</time></trkpt><trkpt lat="41.970849634835425" lon="12.792305830147422"><ele>177.0</ele><time>2026-03-29T16:25:07.999Z</time></trkpt><trkpt lat="41.970794259736" lon="12.79219143782276"><ele>174.0</ele><time>2026-03-29T16:25:08.999Z</time></trkpt><trkpt lat="41.97068795449301" lon="12.792098305772344"><ele>171.0</ele><time>2026-03-29T16:25:09.999Z</time></trkpt><trkpt lat="41.970559449229306" lon="12.792032744366495"><ele>171.0</ele><time>2026-03-29T16:25:10.999Z</time></trkpt><trkpt lat="41.97041357358435" lon="12.792006988773366"><ele>171.0</ele><time>2026-03-29T16:25:11.999Z</time></trkpt><trkpt lat="41.97027562999077" lon="12.791981280627951"><ele>171.0</ele><time>2026-03-29T16:25:12.999Z</time></trkpt><trkpt lat="41.970160041072496" lon="12.791953210836738"><ele>171.0</ele><time>2026-03-29T16:25:13.999Z</time></trkpt><trkpt lat="41.96669260129151" lon="12.783806270326155"><ele>155.0</ele><time>2026-03-29T16:26:14.998Z</time></trkpt><trkpt lat="41.96666825324813" lon="12.783683830394576"><ele>139.0</ele><time>2026-03-29T16:26:15.998Z</time></trkpt><trkpt lat="41.966651587441035" lon="12.7835838663261"><ele>123.0</ele><time>2026-03-29T16:26:16.998Z</time></trkpt><trkpt lat="41.96662984243568" lon="12.783444474137887"><ele>107.0</ele><time>2026-03-29T16:26:18.998Z</time></trkpt><trkpt lat="41.96660939645433" lon="12.78335194194778"><ele>91.0</ele><time>2026-03-29T16:26:23.998Z</time></trkpt><trkpt lat="41.96651365167377" lon="12.783298000711287"><ele>91.0</ele><time>2026-03-29T16:26:28.998Z</time></trkpt><trkpt lat="41.966426075831826" lon="12.783348067428301"><ele>91.0</ele><time>2026-03-29T16:26:29.998Z</time></trkpt><trkpt lat="41.966324824213665" lon="12.783419273389626"><ele>91.0</ele><time>2026-03-29T16:26:30.998Z</time></trkpt><trkpt lat="41.966217206463504" lon="12.78348868768585"><ele>91.0</ele><time>2026-03-29T16:26:31.998Z</time></trkpt><trkpt lat="41.9660952381658" lon="12.783569836259687"><ele>91.0</ele><time>2026-03-29T16:26:32.998Z</time></trkpt><trkpt lat="41.96596136720679" lon="12.783654662022098"><ele>91.0</ele><time>2026-03-29T16:26:34Z</time></trkpt><trkpt lat="41.965809486895765" lon="12.78374800398767"><ele>91.0</ele><time>2026-03-29T16:26:35Z</time></trkpt><trkpt lat="41.96565043602674" lon="12.783853794222237"><ele>89.33333333333333</ele><time>2026-03-29T16:26:36Z</time></trkpt><trkpt lat="41.965497888120545" lon="12.783948468518156"><ele>87.66666666666667</ele><time>2026-03-29T16:26:37Z</time></trkpt><trkpt lat="41.965352024857374" lon="12.78403538829771"><ele>86.0</ele><time>2026-03-29T16:26:38Z</time></trkpt><trkpt lat="41.96523273766291" lon="12.784111469715533"><ele>86.0</ele><time>2026-03-29T16:26:39Z</time></trkpt><trkpt lat="41.96516044042711" lon="12.784148845666602"><ele>86.0</ele><time>2026-03-29T16:26:40Z</time></trkpt><trkpt lat="41.9651004828884" lon="12.78417942106342"><ele>86.0</ele><time>2026-03-29T16:26:42Z</time></trkpt><trkpt lat="41.96505407561135" lon="12.784102723777382"><ele>86.0</ele><time>2026-03-29T16:26:48Z</time></trkpt><trkpt lat="41.965099350472855" lon="12.783908713423706"><ele>86.0</ele><time>2026-03-29T16:26:49Z</time></trkpt><trkpt lat="41.965148263726235" lon="12.783749022854655"><ele>86.0</ele><time>2026-03-29T16:26:50Z</time></trkpt><trkpt lat="41.965203657433406" lon="12.783571773248353"><ele>86.0</ele><time>2026-03-29T16:26:51Z</time></trkpt><trkpt lat="41.96526732021965" lon="12.783364997660668"><ele>86.0</ele><time>2026-03-29T16:26:52Z</time></trkpt><trkpt lat="41.96533548752393" lon="12.78315059501416"><ele>85.66666666666667</ele><time>2026-03-29T16:26:53Z</time></trkpt><trkpt lat="41.96540714454917" lon="12.782925811973813"><ele>85.33333333333333</ele><time>2026-03-29T16:26:54Z</time></trkpt><trkpt lat="41.96547100671084" lon="12.78272185445756"><ele>85.0</ele><time>2026-03-29T16:26:55Z</time></trkpt><trkpt lat="41.96552778097593" lon="12.782522111960985"><ele>83.66666666666666</ele><time>2026-03-29T16:26:56Z</time></trkpt><trkpt lat="41.965575625354724" lon="12.78229372601615"><ele>82.33333333333333</ele><time>2026-03-29T16:26:57Z</time></trkpt><trkpt lat="41.965615412352925" lon="12.782030526912635"><ele>81.0</ele><time>2026-03-29T16:26:58Z</time></trkpt><trkpt lat="41.965651159472024" lon="12.781763844449003"><ele>79.66666666666667</ele><time>2026-03-29T16:26:59Z</time></trkpt><trkpt lat="41.96568255688383" lon="12.781531312252984"><ele>78.33333333333334</ele><time>2026-03-29T16:27:00Z</time></trkpt><trkpt lat="41.96571745266099" lon="12.781308708118475"><ele>77.0</ele><time>2026-03-29T16:27:01Z</time></trkpt><trkpt lat="41.96574473974468" lon="12.781077985506556"><ele>77.0</ele><time>2026-03-29T16:27:02Z</time></trkpt><trkpt lat="41.96574322750766" lon="12.780826059409494"><ele>77.0</ele><time>2026-03-29T16:27:03Z</time></trkpt><trkpt lat="41.9657176972995" lon="12.780561923414638"><ele>77.0</ele><time>2026-03-29T16:27:04Z</time></trkpt><trkpt lat="41.965696183151366" lon="12.780335824770885"><ele>77.25</ele><time>2026-03-29T16:27:05Z</time></trkpt><trkpt lat="41.96568828295822" lon="12.780154418253252"><ele>77.5</ele><time>2026-03-29T16:27:06Z</time></trkpt><trkpt lat="41.96568725705489" lon="12.779996691526202"><ele>77.75</ele><time>2026-03-29T16:27:07Z</time></trkpt><trkpt lat="41.965688280702956" lon="12.779851838778715"><ele>78.0</ele><time>2026-03-29T16:27:08Z</time></trkpt><trkpt lat="41.96569200638695" lon="12.779718988056846"><ele>78.0</ele><time>2026-03-29T16:27:09Z</time></trkpt><trkpt lat="41.96569770086717" lon="12.77959960865047"><ele>78.0</ele><time>2026-03-29T16:27:10Z</time></trkpt><trkpt lat="41.96570346072207" lon="12.779494376897771"><ele>78.0</ele><time>2026-03-29T16:27:11Z</time></trkpt><trkpt lat="41.9657085488993" lon="12.7794009769873"><ele>78.0</ele><time>2026-03-29T16:27:12Z</time></trkpt><trkpt lat="41.965722118848305" lon="12.779307467073966"><ele>78.0</ele><time>2026-03-29T16:27:13Z</time></trkpt><trkpt lat="41.965734752702" lon="12.779177899755462"><ele>78.0</ele><time>2026-03-29T16:27:14Z</time></trkpt><trkpt lat="41.96864037257834" lon="12.771319737324403"><ele>77.2</ele><time>2026-03-29T16:28:14.998Z</time></trkpt><trkpt lat="41.96874034130651" lon="12.771254855387749"><ele>76.4</ele><time>2026-03-29T16:28:15.998Z</time></trkpt><trkpt lat="41.96883629584282" lon="12.77119214766543"><ele>75.60000000000001</ele><time>2026-03-29T16:28:16.998Z</time></trkpt><trkpt lat="41.96892476262224" lon="12.77112814970991"><ele>74.8</ele><time>2026-03-29T16:28:17.998Z</time></trkpt><trkpt lat="41.96902073359305" lon="12.771066325319973"><ele>74.0</ele><time>2026-03-29T16:28:18.998Z</time></trkpt><trkpt lat="41.96912005996058" lon="12.770995239880458"><ele>73.83333333333334</ele><time>2026-03-29T16:28:19.998Z</time></trkpt><trkpt lat="41.96920882604018" lon="12.770936602279818"><ele>73.66666666666667</ele><time>2026-03-29T16:28:20.998Z</time></trkpt><trkpt lat="41.969285384518805" lon="12.770882423243874"><ele>73.5</ele><time>2026-03-29T16:28:21.998Z</time></trkpt><trkpt lat="41.969347205700906" lon="12.770831470388892"><ele>73.33333333333333</ele><time>2026-03-29T16:28:22.998Z</time></trkpt><trkpt lat="41.969405624411465" lon="12.770784971472057"><ele>73.16666666666666</ele><time>2026-03-29T16:28:23.998Z</time></trkpt><trkpt lat="41.96947760644216" lon="12.770725305973366"><ele>73.0</ele><time>2026-03-29T16:28:24.998Z</time></trkpt><trkpt lat="41.969575793783626" lon="12.77065320894607"><ele>73.0</ele><time>2026-03-29T16:28:25.998Z</time></trkpt><trkpt lat="41.96970776956225" lon="12.77052540728001"><ele>73.0</ele><time>2026-03-29T16:28:26.998Z</time></trkpt><trkpt lat="41.96983726455777" lon="12.770363678538182"><ele>73.0</ele><time>2026-03-29T16:28:27.998Z</time></trkpt><trkpt lat="41.970000801160644" lon="12.770208478152842"><ele>72.33333333333333</ele><time>2026-03-29T16:28:28.998Z</time></trkpt><trkpt lat="41.970177371549546" lon="12.77004224096788"><ele>71.66666666666667</ele><time>2026-03-29T16:28:29.998Z</time></trkpt><trkpt lat="41.97034476468717" lon="12.769903381355565"><ele>71.0</ele><time>2026-03-29T16:28:30.998Z</time></trkpt><trkpt lat="41.97049917706196" lon="12.769804861025563"><ele>71.0</ele><time>2026-03-29T16:28:31.998Z</time></trkpt><trkpt lat="41.97061924165266" lon="12.769643128670118"><ele>71.0</ele><time>2026-03-29T16:28:32.998Z</time></trkpt><trkpt lat="41.97073750111044" lon="12.769489712832744"><ele>71.0</ele><time>2026-03-29T16:28:33.998Z</time></trkpt><trkpt lat="41.97084003802807" lon="12.769329341638516"><ele>71.0</ele><time>2026-03-29T16:28:34.998Z</time></trkpt><trkpt lat="41.970922288641205" lon="12.769153933331314"><ele>71.0</ele><time>2026-03-29T16:28:35.998Z</time></trkpt><trkpt lat="41.970998352199615" lon="12.768957331246245"><ele>71.0</ele><time>2026-03-29T16:28:36.998Z</time></trkpt><trkpt lat="41.97106115640951" lon="12.768761127251482"><ele>71.0</ele><time>2026-03-29T16:28:37.998Z</time></trkpt><trkpt lat="41.97111827908759" lon="12.76857992248292"><ele>71.0</ele><time>2026-03-29T16:28:38.998Z</time></trkpt><trkpt lat="41.97117152768087" lon="12.768418673174915"><ele>71.0</ele><time>2026-03-29T16:28:40Z</time></trkpt><trkpt lat="41.97122075614626" lon="12.768268947086051"><ele>71.0</ele><time>2026-03-29T16:28:41Z</time></trkpt><trkpt lat="41.97127702583826" lon="12.768122758926383"><ele>71.0</ele><time>2026-03-29T16:28:42Z</time></trkpt><trkpt lat="41.97134208276404" lon="12.767973519598801"><ele>71.0</ele><time>2026-03-29T16:28:43Z</time></trkpt><trkpt lat="41.97140137272958" lon="12.767823965287178"><ele>71.0</ele><time>2026-03-29T16:28:44Z</time></trkpt><trkpt lat="41.97145214559071" lon="12.767677309659652"><ele>71.0</ele><time>2026-03-29T16:28:45Z</time></trkpt><trkpt lat="41.97149753855693" lon="12.767535335042076"><ele>71.0</ele><time>2026-03-29T16:28:46Z</time></trkpt><trkpt lat="41.97153833905656" lon="12.767386864139825"><ele>71.0</ele><time>2026-03-29T16:28:47Z</time></trkpt><trkpt lat="41.971566484475545" lon="12.76723996011886"><ele>71.0</ele><time>2026-03-29T16:28:48Z</time></trkpt><trkpt lat="41.97160296031735" lon="12.767098661157483"><ele>71.0</ele><time>2026-03-29T16:28:49Z</time></trkpt><trkpt lat="41.971619392706536" lon="12.766924543562613"><ele>70.33333333333334</ele><time>2026-03-29T16:28:50Z</time></trkpt><trkpt lat="41.971619579837245" lon="12.766721634224277"><ele>69.66666666666667</ele><time>2026-03-29T16:28:51Z</time></trkpt><trkpt lat="41.97163129967562" lon="12.76649350092473"><ele>69.0</ele><time>2026-03-29T16:28:52Z</time></trkpt><trkpt lat="41.971639993175074" lon="12.766261356119706"><ele>69.33333333333333</ele><time>2026-03-29T16:28:53Z</time></trkpt><trkpt lat="41.971656561155754" lon="12.766024885977966"><ele>69.66666666666666</ele><time>2026-03-29T16:28:54Z</time></trkpt><trkpt lat="41.9716549927007" lon="12.765793726360736"><ele>70.0</ele><time>2026-03-29T16:28:55Z</time></trkpt><trkpt lat="41.97165567746828" lon="12.765582452611705"><ele>70.0</ele><time>2026-03-29T16:28:56Z</time></trkpt><trkpt lat="41.97165987871131" lon="12.76538857221173"><ele>70.0</ele><time>2026-03-29T16:28:57Z</time></trkpt><trkpt lat="41.971665106919964" lon="12.765211139399915"><ele>70.0</ele><time>2026-03-29T16:28:58Z</time></trkpt><trkpt lat="41.9716733863977" lon="12.765047621548609"><ele>70.0</ele><time>2026-03-29T16:28:59Z</time></trkpt><trkpt lat="41.97168485746105" lon="12.764899443495775"><ele>70.25</ele><time>2026-03-29T16:29:00Z</time></trkpt><trkpt lat="41.97170235949743" lon="12.764752870823695"><ele>70.5</ele><time>2026-03-29T16:29:01Z</time></trkpt><trkpt lat="41.971735392503675" lon="12.764589997562215"><ele>70.75</ele><time>2026-03-29T16:29:02Z</time></trkpt><trkpt lat="41.971792735077166" lon="12.764411444843947"><ele>71.0</ele><time>2026-03-29T16:29:03Z</time></trkpt><trkpt lat="41.971858876243026" lon="12.764230936844605"><ele>71.25</ele><time>2026-03-29T16:29:04Z</time></trkpt><trkpt lat="41.971921692982086" lon="12.764054742853865"><ele>71.5</ele><time>2026-03-29T16:29:05Z</time></trkpt><trkpt lat="41.97197443863157" lon="12.763904416624035"><ele>71.75</ele><time>2026-03-29T16:29:06Z</time></trkpt><trkpt lat="41.97201237613729" lon="12.763789080006568"><ele>72.0</ele><time>2026-03-29T16:29:07Z</time></trkpt><trkpt lat="41.972055036639944" lon="12.763659015175412"><ele>72.0</ele><time>2026-03-29T16:29:09Z</time></trkpt><trkpt lat="41.97209245342756" lon="12.763560917465842"><ele>72.0</ele><time>2026-03-29T16:29:10Z</time></trkpt><trkpt lat="41.972148204425395" lon="12.763391881786609"><ele>72.0</ele><time>2026-03-29T16:29:11Z</time></trkpt><trkpt lat="41.97220638424427" lon="12.763161649840153"><ele>72.0</ele><time>2026-03-29T16:29:12Z</time></trkpt><trkpt lat="41.97229203950321" lon="12.762918339485854"><ele>71.5</ele><time>2026-03-29T16:29:13Z</time></trkpt><trkpt lat="41.972381477393924" lon="12.762648998948888"><ele>71.0</ele><time>2026-03-29T16:29:14Z</time></trkpt><trkpt lat="41.977316846634025" lon="12.749816186797652"><ele>71.0</ele><time>2026-03-29T16:30:14.999Z</time></trkpt><trkpt lat="41.97736870339017" lon="12.749612083047511"><ele>71.0</ele><time>2026-03-29T16:30:15.999Z</time></trkpt><trkpt lat="41.97740891209679" lon="12.749398144147774"><ele>71.0</ele><time>2026-03-29T16:30:16.999Z</time></trkpt><trkpt lat="41.977447324690864" lon="12.749171053330368"><ele>71.0</ele><time>2026-03-29T16:30:17.999Z</time></trkpt><trkpt lat="41.97749204912378" lon="12.748919160716229"><ele>71.0</ele><time>2026-03-29T16:30:18.999Z</time></trkpt><trkpt lat="41.97753162503326" lon="12.748652101823982"><ele>71.0</ele><time>2026-03-29T16:30:19.999Z</time></trkpt><trkpt lat="41.9775574210518" lon="12.748371268567736"><ele>68.0</ele><time>2026-03-29T16:30:20.999Z</time></trkpt><trkpt lat="41.97756666217327" lon="12.748065071906808"><ele>65.0</ele><time>2026-03-29T16:30:21.998Z</time></trkpt><trkpt lat="41.97755410422148" lon="12.747749075930916"><ele>67.0</ele><time>2026-03-29T16:30:22.998Z</time></trkpt><trkpt lat="41.97751515331946" lon="12.747403960699872"><ele>69.0</ele><time>2026-03-29T16:30:23.998Z</time></trkpt><trkpt lat="41.977463057787666" lon="12.747063091828913"><ele>70.0</ele><time>2026-03-29T16:30:24.998Z</time></trkpt><trkpt lat="41.97741132150596" lon="12.746756437849173"><ele>71.0</ele><time>2026-03-29T16:30:25.998Z</time></trkpt><trkpt lat="41.97738492342532" lon="12.746454948237794"><ele>71.0</ele><time>2026-03-29T16:30:26.998Z</time></trkpt><trkpt lat="41.97737133327496" lon="12.746139444472009"><ele>71.0</ele><time>2026-03-29T16:30:27.998Z</time></trkpt><trkpt lat="41.97738655262643" lon="12.745826057758604"><ele>72.0</ele><time>2026-03-29T16:30:28.998Z</time></trkpt><trkpt lat="41.97743098044331" lon="12.745498207916775"><ele>73.0</ele><time>2026-03-29T16:30:29.998Z</time></trkpt><trkpt lat="41.9775032616541" lon="12.745160407317627"><ele>72.0</ele><time>2026-03-29T16:30:30.998Z</time></trkpt><trkpt lat="41.9775925178282" lon="12.744813402558762"><ele>71.0</ele><time>2026-03-29T16:30:31.998Z</time></trkpt><trkpt lat="41.97768564095792" lon="12.74445989791125"><ele>70.5</ele><time>2026-03-29T16:30:32.998Z</time></trkpt><trkpt lat="41.97777515561721" lon="12.744104793870203"><ele>70.0</ele><time>2026-03-29T16:30:33.998Z</time></trkpt><trkpt lat="41.97786521373227" lon="12.743755804610457"><ele>68.0</ele><time>2026-03-29T16:30:34.998Z</time></trkpt><trkpt lat="41.97795808823951" lon="12.74340680175003"><ele>66.0</ele><time>2026-03-29T16:30:35.998Z</time></trkpt><trkpt lat="41.9780515411783" lon="12.743052751115675"><ele>66.0</ele><time>2026-03-29T16:30:36.998Z</time></trkpt><trkpt lat="41.97814221572817" lon="12.742693462581647"><ele>66.0</ele><time>2026-03-29T16:30:37.998Z</time></trkpt><trkpt lat="41.97823363494438" lon="12.74233398148808"><ele>66.0</ele><time>2026-03-29T16:30:38.998Z</time></trkpt><trkpt lat="41.97832861077582" lon="12.741984479049886"><ele>66.0</ele><time>2026-03-29T16:30:39.998Z</time></trkpt><trkpt lat="41.97842321563651" lon="12.741654117330166"><ele>67.5</ele><time>2026-03-29T16:30:40.998Z</time></trkpt><trkpt lat="41.97851750356118" lon="12.74135460203769"><ele>69.0</ele><time>2026-03-29T16:30:41.998Z</time></trkpt><trkpt lat="41.97862023570752" lon="12.741080864561212"><ele>70.33333333333333</ele><time>2026-03-29T16:30:42.998Z</time></trkpt><trkpt lat="41.97873426694052" lon="12.740824709079726"><ele>71.66666666666666</ele><time>2026-03-29T16:30:43.998Z</time></trkpt><trkpt lat="41.978855055069225" lon="12.740582767073239"><ele>73.0</ele><time>2026-03-29T16:30:44.998Z</time></trkpt><trkpt lat="41.97897712420257" lon="12.740360880497738"><ele>73.0</ele><time>2026-03-29T16:30:46Z</time></trkpt><trkpt lat="41.97909869406179" lon="12.740163161862487"><ele>73.0</ele><time>2026-03-29T16:30:47Z</time></trkpt><trkpt lat="41.97922421653516" lon="12.739971028881476"><ele>73.0</ele><time>2026-03-29T16:30:48Z</time></trkpt><trkpt lat="41.979356704544294" lon="12.739777489263751"><ele>73.0</ele><time>2026-03-29T16:30:49Z</time></trkpt><trkpt lat="41.979493638839614" lon="12.739607963217143"><ele>73.0</ele><time>2026-03-29T16:30:50Z</time></trkpt><trkpt lat="41.97962158091708" lon="12.739427705885303"><ele>73.0</ele><time>2026-03-29T16:30:51Z</time></trkpt><trkpt lat="41.97973874701345" lon="12.739233808161607"><ele>72.66666666666666</ele><time>2026-03-29T16:30:52Z</time></trkpt><trkpt lat="41.979869293927734" lon="12.739057912852763"><ele>72.33333333333333</ele><time>2026-03-29T16:30:53Z</time></trkpt><trkpt lat="41.980008492231065" lon="12.738867367548476"><ele>72.0</ele><time>2026-03-29T16:30:54Z</time></trkpt><trkpt lat="41.98015601919578" lon="12.738660432131201"><ele>72.33333333333333</ele><time>2026-03-29T16:30:55Z</time></trkpt><trkpt lat="41.98030645302642" lon="12.738445710017954"><ele>72.66666666666666</ele><time>2026-03-29T16:30:56Z</time></trkpt><trkpt lat="41.98046003717094" lon="12.738225104700346"><ele>73.0</ele><time>2026-03-29T16:30:57Z</time></trkpt><trkpt lat="41.98061792776288" lon="12.738001139253091"><ele>73.0</ele><time>2026-03-29T16:30:58Z</time></trkpt><trkpt lat="41.98076645895582" lon="12.73779095309421"><ele>73.0</ele><time>2026-03-29T16:30:59Z</time></trkpt><trkpt lat="41.980909540344626" lon="12.737580146762902"><ele>73.0</ele><time>2026-03-29T16:31:00Z</time></trkpt><trkpt lat="41.98105144200485" lon="12.737359929626335"><ele>73.33333333333333</ele><time>2026-03-29T16:31:01Z</time></trkpt><trkpt lat="41.981192391625065" lon="12.73713737009097"><ele>73.66666666666667</ele><time>2026-03-29T16:31:02Z</time></trkpt><trkpt lat="41.98133415645619" lon="12.736899217180353"><ele>74.0</ele><time>2026-03-29T16:31:03Z</time></trkpt><trkpt lat="41.9814690609344" lon="12.73664861708311"><ele>74.0</ele><time>2026-03-29T16:31:04Z</time></trkpt><trkpt lat="41.98159407407914" lon="12.736388915053501"><ele>74.0</ele><time>2026-03-29T16:31:05Z</time></trkpt><trkpt lat="41.98170967889666" lon="12.736126047648284"><ele>75.0</ele><time>2026-03-29T16:31:06Z</time></trkpt><trkpt lat="41.981819182516695" lon="12.735846887203934"><ele>76.0</ele><time>2026-03-29T16:31:07Z</time></trkpt><trkpt lat="41.9819278226497" lon="12.73553698124435"><ele>76.0</ele><time>2026-03-29T16:31:08Z</time></trkpt><trkpt lat="41.982026889718" lon="12.735215289272523"><ele>76.0</ele><time>2026-03-29T16:31:09Z</time></trkpt><trkpt lat="41.98210270382795" lon="12.734915666074839"><ele>76.0</ele><time>2026-03-29T16:31:10Z</time></trkpt><trkpt lat="41.98216490771857" lon="12.734645973914594"><ele>76.0</ele><time>2026-03-29T16:31:11Z</time></trkpt><trkpt lat="41.98221354815554" lon="12.734370691180748"><ele>76.0</ele><time>2026-03-29T16:31:12Z</time></trkpt><trkpt lat="41.98224477357792" lon="12.734120967869226"><ele>74.5</ele><time>2026-03-29T16:31:13Z</time></trkpt><trkpt lat="41.98229271130811" lon="12.733834969906017"><ele>73.0</ele><time>2026-03-29T16:31:14Z</time></trkpt><trkpt lat="41.98399540756286" lon="12.71682851698443"><ele>77.66666666666666</ele><time>2026-03-29T16:32:14.999Z</time></trkpt><trkpt lat="41.983873998137895" lon="12.716641797016312"><ele>82.33333333333333</ele><time>2026-03-29T16:32:15.999Z</time></trkpt><trkpt lat="41.983771775894226" lon="12.716477921989142"><ele>87.0</ele><time>2026-03-29T16:32:16.999Z</time></trkpt><trkpt lat="41.98367707716141" lon="12.716316292188523"><ele>87.0</ele><time>2026-03-29T16:32:17.999Z</time></trkpt><trkpt lat="41.983585475546406" lon="12.716147266163473"><ele>87.0</ele><time>2026-03-29T16:32:18.999Z</time></trkpt><trkpt lat="41.983491656678616" lon="12.715976255389828"><ele>87.0</ele><time>2026-03-29T16:32:19.998Z</time></trkpt><trkpt lat="41.98339498067762" lon="12.715796028846906"><ele>87.33333333333333</ele><time>2026-03-29T16:32:20.998Z</time></trkpt><trkpt lat="41.983318936717374" lon="12.715606227863054"><ele>87.66666666666666</ele><time>2026-03-29T16:32:21.998Z</time></trkpt><trkpt lat="41.9832665590487" lon="12.715420438017345"><ele>88.0</ele><time>2026-03-29T16:32:22.998Z</time></trkpt><trkpt lat="41.983254628613466" lon="12.715211742853917"><ele>88.0</ele><time>2026-03-29T16:32:23.998Z</time></trkpt><trkpt lat="41.98322462925868" lon="12.714976701291766"><ele>88.0</ele><time>2026-03-29T16:32:24.998Z</time></trkpt><trkpt lat="41.98320217572955" lon="12.714719821289012"><ele>88.0</ele><time>2026-03-29T16:32:25.998Z</time></trkpt><trkpt lat="41.98317357950579" lon="12.7144624950092"><ele>88.33333333333333</ele><time>2026-03-29T16:32:26.998Z</time></trkpt><trkpt lat="41.983156090784" lon="12.714215287654552"><ele>88.66666666666667</ele><time>2026-03-29T16:32:27.998Z</time></trkpt><trkpt lat="41.9831340088598" lon="12.713978727592144"><ele>89.0</ele><time>2026-03-29T16:32:28.998Z</time></trkpt><trkpt lat="41.98311443995008" lon="12.713761580709653"><ele>90.66666666666667</ele><time>2026-03-29T16:32:29.998Z</time></trkpt><trkpt lat="41.983079508555086" lon="12.713548377805528"><ele>92.33333333333333</ele><time>2026-03-29T16:32:30.998Z</time></trkpt><trkpt lat="41.983012733016345" lon="12.713341033685365"><ele>94.0</ele><time>2026-03-29T16:32:31.998Z</time></trkpt><trkpt lat="41.982912667306294" lon="12.713155909630133"><ele>94.0</ele><time>2026-03-29T16:32:32.998Z</time></trkpt><trkpt lat="41.98278006650806" lon="12.712991266073743"><ele>94.0</ele><time>2026-03-29T16:32:33.998Z</time></trkpt><trkpt lat="41.98262418775448" lon="12.712813496233842"><ele>94.0</ele><time>2026-03-29T16:32:34.998Z</time></trkpt><trkpt lat="41.982478737209455" lon="12.712625104626886"><ele>95.0</ele><time>2026-03-29T16:32:35.998Z</time></trkpt><trkpt lat="41.98235422405516" lon="12.712417742600051"><ele>96.0</ele><time>2026-03-29T16:32:36.998Z</time></trkpt><trkpt lat="41.98225801785841" lon="12.712158473410744"><ele>97.0</ele><time>2026-03-29T16:32:37.998Z</time></trkpt><trkpt lat="41.982176212055364" lon="12.711876421423202"><ele>97.0</ele><time>2026-03-29T16:32:38.998Z</time></trkpt><trkpt lat="41.98211509518848" lon="12.711619858960535"><ele>97.0</ele><time>2026-03-29T16:32:39.998Z</time></trkpt><trkpt lat="41.9820703873328" lon="12.711376852552288"><ele>97.0</ele><time>2026-03-29T16:32:40.998Z</time></trkpt><trkpt lat="41.98202658051806" lon="12.711134138275703"><ele>97.33333333333334</ele><time>2026-03-29T16:32:41.998Z</time></trkpt><trkpt lat="41.98197343766869" lon="12.710898233301194"><ele>97.66666666666666</ele><time>2026-03-29T16:32:42.998Z</time></trkpt><trkpt lat="41.981915284732025" lon="12.710685612080749"><ele>98.0</ele><time>2026-03-29T16:32:43.998Z</time></trkpt><trkpt lat="41.98185578799294" lon="12.71047336404698"><ele>98.0</ele><time>2026-03-29T16:32:44.998Z</time></trkpt><trkpt lat="41.98179110085637" lon="12.710269665854895"><ele>98.0</ele><time>2026-03-29T16:32:45.998Z</time></trkpt><trkpt lat="41.98172275486511" lon="12.710084353748028"><ele>98.0</ele><time>2026-03-29T16:32:46.998Z</time></trkpt><trkpt lat="41.981648896681214" lon="12.70987664001167"><ele>97.33333333333333</ele><time>2026-03-29T16:32:47.998Z</time></trkpt><trkpt lat="41.981586113028875" lon="12.709651380531717"><ele>96.66666666666666</ele><time>2026-03-29T16:32:48.998Z</time></trkpt><trkpt lat="41.98152748889936" lon="12.709441625473515"><ele>96.0</ele><time>2026-03-29T16:32:49.998Z</time></trkpt><trkpt lat="41.981456825395135" lon="12.709258286180896"><ele>95.75</ele><time>2026-03-29T16:32:50.998Z</time></trkpt><trkpt lat="41.981375224671055" lon="12.709101130370698"><ele>95.5</ele><time>2026-03-29T16:32:52Z</time></trkpt><trkpt lat="41.981294971336254" lon="12.70898835841095"><ele>95.25</ele><time>2026-03-29T16:32:53Z</time></trkpt><trkpt lat="41.981215086884276" lon="12.708887045751625"><ele>95.0</ele><time>2026-03-29T16:32:54Z</time></trkpt><trkpt lat="41.981139879123525" lon="12.708794537995981"><ele>95.0</ele><time>2026-03-29T16:32:55Z</time></trkpt><trkpt lat="41.98106471243514" lon="12.708712674261092"><ele>95.0</ele><time>2026-03-29T16:32:56Z</time></trkpt><trkpt lat="41.98099994735385" lon="12.708642730994402"><ele>95.0</ele><time>2026-03-29T16:32:57Z</time></trkpt><trkpt lat="41.980940992891576" lon="12.70858140144204"><ele>95.0</ele><time>2026-03-29T16:32:58Z</time></trkpt><trkpt lat="41.980851995894696" lon="12.708471217116502"><ele>95.0</ele><time>2026-03-29T16:33:00Z</time></trkpt><trkpt lat="41.98077083288125" lon="12.708414561267695"><ele>102.0</ele><time>2026-03-29T16:33:02Z</time></trkpt><trkpt lat="41.975401217422444" lon="12.702551277477813"><ele>102.0</ele><time>2026-03-29T16:34:14.999Z</time></trkpt><trkpt lat="41.97533653165781" lon="12.702375466155532"><ele>102.0</ele><time>2026-03-29T16:34:15.999Z</time></trkpt><trkpt lat="41.97526782231453" lon="12.702248451403033"><ele>102.0</ele><time>2026-03-29T16:34:16.999Z</time></trkpt><trkpt lat="41.97520591130244" lon="12.70209275908853"><ele>102.0</ele><time>2026-03-29T16:34:17.999Z</time></trkpt><trkpt lat="41.97514668731754" lon="12.701944547534033"><ele>102.19999999999999</ele><time>2026-03-29T16:34:18.999Z</time></trkpt><trkpt lat="41.97508993982876" lon="12.701812508989649"><ele>102.4</ele><time>2026-03-29T16:34:19.999Z</time></trkpt><trkpt lat="41.975037000640306" lon="12.701683835701878"><ele>102.6</ele><time>2026-03-29T16:34:20.999Z</time></trkpt><trkpt lat="41.97498817496976" lon="12.70155498004176"><ele>102.80000000000001</ele><time>2026-03-29T16:34:21.999Z</time></trkpt><trkpt lat="41.97493669660022" lon="12.70141669975512"><ele>103.0</ele><time>2026-03-29T16:34:22.999Z</time></trkpt><trkpt lat="41.974883041152246" lon="12.70126881903661"><ele>102.0</ele><time>2026-03-29T16:34:23.999Z</time></trkpt><trkpt lat="41.974830264045174" lon="12.701114030623122"><ele>101.0</ele><time>2026-03-29T16:34:24.999Z</time></trkpt><trkpt lat="41.97478013318589" lon="12.700954232549046"><ele>100.0</ele><time>2026-03-29T16:34:25.999Z</time></trkpt><trkpt lat="41.97473059605684" lon="12.700792604210688"><ele>99.0</ele><time>2026-03-29T16:34:26.999Z</time></trkpt><trkpt lat="41.97466367213843" lon="12.70064033097907"><ele>99.0</ele><time>2026-03-29T16:34:27.999Z</time></trkpt><trkpt lat="41.97460882743396" lon="12.700463332131383"><ele>99.0</ele><time>2026-03-29T16:34:28.999Z</time></trkpt><trkpt lat="41.97455276015288" lon="12.700270590809659"><ele>99.0</ele><time>2026-03-29T16:34:29.999Z</time></trkpt><trkpt lat="41.97449823563463" lon="12.700064541130674"><ele>99.0</ele><time>2026-03-29T16:34:30.998Z</time></trkpt><trkpt lat="41.97445174731036" lon="12.699835888363731"><ele>99.0</ele><time>2026-03-29T16:34:31.998Z</time></trkpt><trkpt lat="41.97438886521156" lon="12.699613878804932"><ele>99.0</ele><time>2026-03-29T16:34:32.998Z</time></trkpt><trkpt lat="41.974321950438565" lon="12.699392649716817"><ele>99.0</ele><time>2026-03-29T16:34:33.998Z</time></trkpt><trkpt lat="41.97424765893433" lon="12.699169035852623"><ele>99.0</ele><time>2026-03-29T16:34:34.998Z</time></trkpt><trkpt lat="41.97415743672497" lon="12.698937035020508"><ele>99.0</ele><time>2026-03-29T16:34:35.998Z</time></trkpt><trkpt lat="41.9740582044017" lon="12.69869636723203"><ele>99.66666666666666</ele><time>2026-03-29T16:34:36.998Z</time></trkpt><trkpt lat="41.97395594619572" lon="12.69845127344939"><ele>100.33333333333333</ele><time>2026-03-29T16:34:37.998Z</time></trkpt><trkpt lat="41.97385254932966" lon="12.698206087675104"><ele>101.0</ele><time>2026-03-29T16:34:38.998Z</time></trkpt><trkpt lat="41.97375365048792" lon="12.697958431888882"><ele>101.33333333333333</ele><time>2026-03-29T16:34:39.998Z</time></trkpt><trkpt lat="41.97366005742975" lon="12.697719813945243"><ele>101.66666666666666</ele><time>2026-03-29T16:34:40.998Z</time></trkpt><trkpt lat="41.97356980991819" lon="12.697487433487328"><ele>102.0</ele><time>2026-03-29T16:34:41.998Z</time></trkpt><trkpt lat="41.97347819962423" lon="12.697260787794676"><ele>102.0</ele><time>2026-03-29T16:34:42.998Z</time></trkpt><trkpt lat="41.97339133472522" lon="12.697039220429048"><ele>102.0</ele><time>2026-03-29T16:34:43.998Z</time></trkpt><trkpt lat="41.97330281918175" lon="12.696819654026092"><ele>102.0</ele><time>2026-03-29T16:34:44.998Z</time></trkpt><trkpt lat="41.973206983892936" lon="12.696587370311981"><ele>101.33333333333334</ele><time>2026-03-29T16:34:45.998Z</time></trkpt><trkpt lat="41.973107338698455" lon="12.696344471619676"><ele>100.66666666666667</ele><time>2026-03-29T16:34:46.998Z</time></trkpt><trkpt lat="41.97300469428308" lon="12.696090613179482"><ele>100.0</ele><time>2026-03-29T16:34:47.998Z</time></trkpt><trkpt lat="41.97289770310136" lon="12.695831274236511"><ele>100.0</ele><time>2026-03-29T16:34:48.998Z</time></trkpt><trkpt lat="41.972786764245576" lon="12.695562131120303"><ele>100.0</ele><time>2026-03-29T16:34:49.998Z</time></trkpt><trkpt lat="41.972683009556796" lon="12.69531859202578"><ele>100.0</ele><time>2026-03-29T16:34:50.998Z</time></trkpt><trkpt lat="41.972584984458855" lon="12.695102533225409"><ele>100.0</ele><time>2026-03-29T16:34:51.998Z</time></trkpt><trkpt lat="41.97248566779561" lon="12.694884984142686"><ele>100.0</ele><time>2026-03-29T16:34:52.998Z</time></trkpt><trkpt lat="41.9723858618611" lon="12.694640981393455"><ele>100.0</ele><time>2026-03-29T16:34:53.998Z</time></trkpt><trkpt lat="41.97228257354511" lon="12.694383988317345"><ele>99.33333333333334</ele><time>2026-03-29T16:34:54.998Z</time></trkpt><trkpt lat="41.97218470070971" lon="12.694127634178193"><ele>98.66666666666666</ele><time>2026-03-29T16:34:55.998Z</time></trkpt><trkpt lat="41.97208542225173" lon="12.693870925638404"><ele>98.0</ele><time>2026-03-29T16:34:56.998Z</time></trkpt><trkpt lat="41.97197689864168" lon="12.693609942398234"><ele>97.33333333333333</ele><time>2026-03-29T16:34:58Z</time></trkpt><trkpt lat="41.971869387484425" lon="12.693354745462797"><ele>96.66666666666666</ele><time>2026-03-29T16:34:59Z</time></trkpt><trkpt lat="41.971767000018886" lon="12.693104148600053"><ele>96.0</ele><time>2026-03-29T16:35:00Z</time></trkpt><trkpt lat="41.97167290261369" lon="12.692867787353595"><ele>96.33333333333334</ele><time>2026-03-29T16:35:01Z</time></trkpt><trkpt lat="41.971584767996895" lon="12.692629231431027"><ele>96.66666666666667</ele><time>2026-03-29T16:35:02Z</time></trkpt><trkpt lat="41.9715083194258" lon="12.692394297599499"><ele>97.0</ele><time>2026-03-29T16:35:03Z</time></trkpt><trkpt lat="41.9714432323183" lon="12.692150327896965"><ele>96.33333333333334</ele><time>2026-03-29T16:35:04Z</time></trkpt><trkpt lat="41.97139129192982" lon="12.69190510192452"><ele>95.66666666666667</ele><time>2026-03-29T16:35:05Z</time></trkpt><trkpt lat="41.97135526534329" lon="12.69166500311442"><ele>95.0</ele><time>2026-03-29T16:35:06Z</time></trkpt><trkpt lat="41.971328673237224" lon="12.691426960921223"><ele>95.0</ele><time>2026-03-29T16:35:07Z</time></trkpt><trkpt lat="41.971315399542846" lon="12.691189652657691"><ele>95.0</ele><time>2026-03-29T16:35:08Z</time></trkpt><trkpt lat="41.971298456323986" lon="12.690935578285305"><ele>95.0</ele><time>2026-03-29T16:35:09Z</time></trkpt><trkpt lat="41.97125659575753" lon="12.690687263678507"><ele>94.0</ele><time>2026-03-29T16:35:10Z</time></trkpt><trkpt lat="41.97116162265189" lon="12.69045242946197"><ele>93.0</ele><time>2026-03-29T16:35:11Z</time></trkpt><trkpt lat="41.971037962848904" lon="12.69025729996106"><ele>92.0</ele><time>2026-03-29T16:35:12Z</time></trkpt><trkpt lat="41.97092949760164" lon="12.69013938117331"><ele>92.5</ele><time>2026-03-29T16:35:13Z</time></trkpt><trkpt lat="41.97085522915159" lon="12.690074306274157"><ele>93.0</ele><time>2026-03-29T16:35:14Z</time></trkpt><trkpt lat="41.96710502069841" lon="12.673054977043025"><ele>104.5</ele><time>2026-03-29T16:36:14.999Z</time></trkpt><trkpt lat="41.966938202854536" lon="12.672829973662573"><ele>116.0</ele><time>2026-03-29T16:36:15.999Z</time></trkpt><trkpt lat="41.96678507715111" lon="12.67262007130988"><ele>115.66666666666666</ele><time>2026-03-29T16:36:16.999Z</time></trkpt><trkpt lat="41.96664626139234" lon="12.672411699828285"><ele>115.33333333333334</ele><time>2026-03-29T16:36:17.999Z</time></trkpt><trkpt lat="41.966515875697844" lon="12.672193264365273"><ele>115.0</ele><time>2026-03-29T16:36:18.999Z</time></trkpt><trkpt lat="41.96638573847443" lon="12.671972794544677"><ele>116.66666666666667</ele><time>2026-03-29T16:36:19.999Z</time></trkpt><trkpt lat="41.96626217010529" lon="12.671765931328105"><ele>118.33333333333334</ele><time>2026-03-29T16:36:20.999Z</time></trkpt><trkpt lat="41.96613429731725" lon="12.67157487781273"><ele>120.0</ele><time>2026-03-29T16:36:21.999Z</time></trkpt><trkpt lat="41.96600341389492" lon="12.671406261053448"><ele>120.0</ele><time>2026-03-29T16:36:22.999Z</time></trkpt><trkpt lat="41.965864568775444" lon="12.671265899263036"><ele>120.0</ele><time>2026-03-29T16:36:23.999Z</time></trkpt><trkpt lat="41.96573069794407" lon="12.671145838267556"><ele>120.0</ele><time>2026-03-29T16:36:24.999Z</time></trkpt><trkpt lat="41.96560989152256" lon="12.671055489025315"><ele>117.0</ele><time>2026-03-29T16:36:25.999Z</time></trkpt><trkpt lat="41.965495458897905" lon="12.670975332786108"><ele>114.0</ele><time>2026-03-29T16:36:26.999Z</time></trkpt><trkpt lat="41.965381623513075" lon="12.67089743286319"><ele>111.0</ele><time>2026-03-29T16:36:27.999Z</time></trkpt><trkpt lat="41.965277612447814" lon="12.670826114719514"><ele>108.0</ele><time>2026-03-29T16:36:28.999Z</time></trkpt><trkpt lat="41.96518059957492" lon="12.670760137696602"><ele>108.0</ele><time>2026-03-29T16:36:29.999Z</time></trkpt><trkpt lat="41.96509164481266" lon="12.670703867422596"><ele>108.00000000000001</ele><time>2026-03-29T16:36:30.999Z</time></trkpt><trkpt lat="41.965013668530084" lon="12.670653974057847"><ele>108.00000000000001</ele><time>2026-03-29T16:36:31.999Z</time></trkpt><trkpt lat="41.96494795308216" lon="12.670610891961518"><ele>108.0</ele><time>2026-03-29T16:36:32.999Z</time></trkpt><trkpt lat="41.96485068987794" lon="12.67054197106237"><ele>108.0</ele><time>2026-03-29T16:36:34.998Z</time></trkpt><trkpt lat="41.96477581734157" lon="12.670484790752221"><ele>108.0</ele><time>2026-03-29T16:36:36.998Z</time></trkpt><trkpt lat="41.964727039176694" lon="12.670426137989166"><ele>108.00000000000001</ele><time>2026-03-29T16:36:39.998Z</time></trkpt><trkpt lat="41.96462161963939" lon="12.67036749774257"><ele>108.00000000000001</ele><time>2026-03-29T16:36:41.998Z</time></trkpt><trkpt lat="41.9645503745309" lon="12.670315839565976"><ele>108.0</ele><time>2026-03-29T16:36:42.998Z</time></trkpt><trkpt lat="41.964463184511516" lon="12.670240158563697"><ele>108.0</ele><time>2026-03-29T16:36:43.998Z</time></trkpt><trkpt lat="41.96437006807201" lon="12.670165592949973"><ele>107.75</ele><time>2026-03-29T16:36:44.998Z</time></trkpt><trkpt lat="41.96425537180803" lon="12.670090449435707"><ele>107.5</ele><time>2026-03-29T16:36:45.998Z</time></trkpt><trkpt lat="41.96414021176007" lon="12.67001092915163"><ele>107.25</ele><time>2026-03-29T16:36:46.998Z</time></trkpt><trkpt lat="41.96403235379449" lon="12.669937705541388"><ele>107.0</ele><time>2026-03-29T16:36:47.998Z</time></trkpt><trkpt lat="41.96392281651706" lon="12.669856592909012"><ele>108.33333333333333</ele><time>2026-03-29T16:36:48.998Z</time></trkpt><trkpt lat="41.96379823217051" lon="12.669771036708175"><ele>109.66666666666666</ele><time>2026-03-29T16:36:49.998Z</time></trkpt><trkpt lat="41.963662781737966" lon="12.669675063170306"><ele>111.0</ele><time>2026-03-29T16:36:50.998Z</time></trkpt><trkpt lat="41.963519006613964" lon="12.669571349170376"><ele>111.0</ele><time>2026-03-29T16:36:51.998Z</time></trkpt><trkpt lat="41.963381614018054" lon="12.669464292944113"><ele>111.0</ele><time>2026-03-29T16:36:52.998Z</time></trkpt><trkpt lat="41.96323795061456" lon="12.669342843127875"><ele>111.0</ele><time>2026-03-29T16:36:53.998Z</time></trkpt><trkpt lat="41.96309454213127" lon="12.669198437495428"><ele>112.66666666666666</ele><time>2026-03-29T16:36:54.998Z</time></trkpt><trkpt lat="41.96295937640107" lon="12.669026856517762"><ele>114.33333333333333</ele><time>2026-03-29T16:36:55.998Z</time></trkpt><trkpt lat="41.96282669119815" lon="12.668834197124909"><ele>116.0</ele><time>2026-03-29T16:36:56.998Z</time></trkpt><trkpt lat="41.96269859119447" lon="12.668626222258236"><ele>117.33333333333333</ele><time>2026-03-29T16:36:57.998Z</time></trkpt><trkpt lat="41.9625703482295" lon="12.668395215399581"><ele>118.66666666666666</ele><time>2026-03-29T16:36:58.998Z</time></trkpt><trkpt lat="41.96246171045388" lon="12.66814699144672"><ele>120.0</ele><time>2026-03-29T16:36:59.998Z</time></trkpt><trkpt lat="41.962361676030355" lon="12.667889911844892"><ele>115.5</ele><time>2026-03-29T16:37:00.998Z</time></trkpt><trkpt lat="41.962253660890056" lon="12.667610362598534"><ele>111.0</ele><time>2026-03-29T16:37:01.998Z</time></trkpt><trkpt lat="41.96214967892094" lon="12.667345454562177"><ele>111.0</ele><time>2026-03-29T16:37:02.998Z</time></trkpt><trkpt lat="41.962039601367145" lon="12.667081464662362"><ele>111.0</ele><time>2026-03-29T16:37:04Z</time></trkpt><trkpt lat="41.96193500112168" lon="12.666820120504747"><ele>111.0</ele><time>2026-03-29T16:37:05Z</time></trkpt><trkpt lat="41.961826732064914" lon="12.666555390284707"><ele>112.0</ele><time>2026-03-29T16:37:06Z</time></trkpt><trkpt lat="41.96172182667838" lon="12.666281715617686"><ele>113.0</ele><time>2026-03-29T16:37:07Z</time></trkpt><trkpt lat="41.96162594470684" lon="12.666006825318313"><ele>110.66666666666666</ele><time>2026-03-29T16:37:08Z</time></trkpt><trkpt lat="41.96153093085148" lon="12.66573234645654"><ele>108.33333333333334</ele><time>2026-03-29T16:37:09Z</time></trkpt><trkpt lat="41.961438302309034" lon="12.665463504305999"><ele>106.0</ele><time>2026-03-29T16:37:10Z</time></trkpt><trkpt lat="41.96134286324863" lon="12.665197297372632"><ele>104.33333333333334</ele><time>2026-03-29T16:37:11Z</time></trkpt><trkpt lat="41.96123871218702" lon="12.66493774178162"><ele>102.66666666666666</ele><time>2026-03-29T16:37:12Z</time></trkpt><trkpt lat="41.961120826560176" lon="12.664693489953146"><ele>101.0</ele><time>2026-03-29T16:37:13Z</time></trkpt><trkpt lat="41.96095937695788" lon="12.664474076932816"><ele>92.0</ele><time>2026-03-29T16:37:14Z</time></trkpt><trkpt lat="41.95028560342892" lon="12.651049179098365"><ele>92.0</ele><time>2026-03-29T16:38:14.999Z</time></trkpt><trkpt lat="41.95010697689469" lon="12.650841480030037"><ele>92.0</ele><time>2026-03-29T16:38:15.999Z</time></trkpt><trkpt lat="41.949929817937445" lon="12.65063045904913"><ele>92.5</ele><time>2026-03-29T16:38:16.999Z</time></trkpt><trkpt lat="41.94975671481215" lon="12.650414475402219"><ele>93.0</ele><time>2026-03-29T16:38:17.999Z</time></trkpt><trkpt lat="41.94958753283711" lon="12.650201013781793"><ele>95.0</ele><time>2026-03-29T16:38:18.999Z</time></trkpt><trkpt lat="41.94941941996979" lon="12.649984122032167"><ele>97.0</ele><time>2026-03-29T16:38:19.999Z</time></trkpt><trkpt lat="41.949255312083146" lon="12.649759889630921"><ele>97.0</ele><time>2026-03-29T16:38:20.999Z</time></trkpt><trkpt lat="41.94909608913278" lon="12.649517221918192"><ele>97.0</ele><time>2026-03-29T16:38:21.999Z</time></trkpt><trkpt lat="41.948941548438626" lon="12.649255461904726"><ele>97.0</ele><time>2026-03-29T16:38:22.999Z</time></trkpt><trkpt lat="41.948789761359" lon="12.648987119583285"><ele>97.0</ele><time>2026-03-29T16:38:23.999Z</time></trkpt><trkpt lat="41.94863289309956" lon="12.648710528974304"><ele>96.5</ele><time>2026-03-29T16:38:24.999Z</time></trkpt><trkpt lat="41.948482254144395" lon="12.648433890626803"><ele>96.0</ele><time>2026-03-29T16:38:25.999Z</time></trkpt><trkpt lat="41.94833937336334" lon="12.648182487785727"><ele>95.0</ele><time>2026-03-29T16:38:26.999Z</time></trkpt><trkpt lat="41.94820085984932" lon="12.647935651590236"><ele>94.0</ele><time>2026-03-29T16:38:27.999Z</time></trkpt><trkpt lat="41.94806802304945" lon="12.647701286571014"><ele>93.0</ele><time>2026-03-29T16:38:28.999Z</time></trkpt><trkpt lat="41.94793884820496" lon="12.647477671276292"><ele>92.33333333333333</ele><time>2026-03-29T16:38:29.999Z</time></trkpt><trkpt lat="41.94781691783844" lon="12.647261371646199"><ele>91.66666666666666</ele><time>2026-03-29T16:38:30.999Z</time></trkpt><trkpt lat="41.9477041829117" lon="12.647053068234428"><ele>91.0</ele><time>2026-03-29T16:38:31.999Z</time></trkpt><trkpt lat="41.94759602768493" lon="12.646852848061995"><ele>89.0</ele><time>2026-03-29T16:38:32.999Z</time></trkpt><trkpt lat="41.947490520518976" lon="12.646651278080926"><ele>87.0</ele><time>2026-03-29T16:38:33.999Z</time></trkpt><trkpt lat="41.947390229801144" lon="12.646464084925205"><ele>85.0</ele><time>2026-03-29T16:38:34.999Z</time></trkpt><trkpt lat="41.947298764298836" lon="12.646278726925193"><ele>83.75</ele><time>2026-03-29T16:38:35.999Z</time></trkpt><trkpt lat="41.94721943049807" lon="12.646101055280626"><ele>82.5</ele><time>2026-03-29T16:38:36.999Z</time></trkpt><trkpt lat="41.94714631342732" lon="12.645947192079905"><ele>81.25</ele><time>2026-03-29T16:38:37.999Z</time></trkpt><trkpt lat="41.94708825206197" lon="12.645811369039423"><ele>80.0</ele><time>2026-03-29T16:38:38.998Z</time></trkpt><trkpt lat="41.94705107155621" lon="12.645700588619533"><ele>80.0</ele><time>2026-03-29T16:38:39.998Z</time></trkpt><trkpt lat="41.94703618755622" lon="12.645581750666414"><ele>80.0</ele><time>2026-03-29T16:38:40.998Z</time></trkpt><trkpt lat="41.947037531783856" lon="12.645440327958068"><ele>80.0</ele><time>2026-03-29T16:38:41.998Z</time></trkpt><trkpt lat="41.947010978810354" lon="12.645324658583238"><ele>80.0</ele><time>2026-03-29T16:38:42.998Z</time></trkpt><trkpt lat="41.94693998617124" lon="12.645250180911077"><ele>80.0</ele><time>2026-03-29T16:38:43.998Z</time></trkpt><trkpt lat="41.946835312305666" lon="12.64521951816011"><ele>80.2</ele><time>2026-03-29T16:38:44.998Z</time></trkpt><trkpt lat="41.94672383945636" lon="12.645254171990068"><ele>80.4</ele><time>2026-03-29T16:38:45.998Z</time></trkpt><trkpt lat="41.94663027730596" lon="12.645330401949764"><ele>80.6</ele><time>2026-03-29T16:38:46.998Z</time></trkpt><trkpt lat="41.946543326634504" lon="12.645369786715031"><ele>80.8</ele><time>2026-03-29T16:38:47.998Z</time></trkpt><trkpt lat="41.946447854692565" lon="12.645330744240676"><ele>81.0</ele><time>2026-03-29T16:38:48.998Z</time></trkpt><trkpt lat="41.946342570436826" lon="12.645234251589342"><ele>80.0</ele><time>2026-03-29T16:38:49.998Z</time></trkpt><trkpt lat="41.946232181926476" lon="12.645137635562861"><ele>79.0</ele><time>2026-03-29T16:38:50.998Z</time></trkpt><trkpt lat="41.94611207703024" lon="12.645047977404772"><ele>78.0</ele><time>2026-03-29T16:38:51.998Z</time></trkpt><trkpt lat="41.94600122804138" lon="12.644975563289066"><ele>77.0</ele><time>2026-03-29T16:38:52.998Z</time></trkpt><trkpt lat="41.945885616344775" lon="12.644916128203334"><ele>77.66666666666667</ele><time>2026-03-29T16:38:53.998Z</time></trkpt><trkpt lat="41.94573723416763" lon="12.644865628339007"><ele>78.33333333333333</ele><time>2026-03-29T16:38:54.998Z</time></trkpt><trkpt lat="41.94554077091561" lon="12.644822259005162"><ele>79.0</ele><time>2026-03-29T16:38:55.998Z</time></trkpt><trkpt lat="41.94533272612114" lon="12.644791144045794"><ele>79.0</ele><time>2026-03-29T16:38:56.998Z</time></trkpt><trkpt lat="41.94511390573403" lon="12.644773706499906"><ele>79.0</ele><time>2026-03-29T16:38:57.998Z</time></trkpt><trkpt lat="41.944891429537094" lon="12.64477814745144"><ele>79.0</ele><time>2026-03-29T16:38:58.998Z</time></trkpt><trkpt lat="41.94467620245109" lon="12.644786896750883"><ele>79.0</ele><time>2026-03-29T16:38:59.998Z</time></trkpt><trkpt lat="41.94448637283677" lon="12.644797499282017"><ele>79.0</ele><time>2026-03-29T16:39:00.998Z</time></trkpt><trkpt lat="41.94429977663961" lon="12.644808642374592"><ele>79.0</ele><time>2026-03-29T16:39:01.998Z</time></trkpt><trkpt lat="41.94412853623484" lon="12.644817471583137"><ele>79.0</ele><time>2026-03-29T16:39:02.998Z</time></trkpt><trkpt lat="41.94396845308435" lon="12.644823176387584"><ele>79.0</ele><time>2026-03-29T16:39:03.998Z</time></trkpt><trkpt lat="41.943813445327834" lon="12.644826120176882"><ele>79.0</ele><time>2026-03-29T16:39:04.998Z</time></trkpt><trkpt lat="41.943670716133" lon="12.64480679251379"><ele>79.0</ele><time>2026-03-29T16:39:05.998Z</time></trkpt><trkpt lat="41.94354003778873" lon="12.64473372441218"><ele>79.0</ele><time>2026-03-29T16:39:06.998Z</time></trkpt><trkpt lat="41.943432573069025" lon="12.644604739435263"><ele>79.0</ele><time>2026-03-29T16:39:07.998Z</time></trkpt><trkpt lat="41.94335592814261" lon="12.64443866497716"><ele>79.0</ele><time>2026-03-29T16:39:08.998Z</time></trkpt><trkpt lat="41.943311782308875" lon="12.64423793267716"><ele>77.33333333333333</ele><time>2026-03-29T16:39:10Z</time></trkpt><trkpt lat="41.94330017756302" lon="12.644009916457508"><ele>75.66666666666667</ele><time>2026-03-29T16:39:11Z</time></trkpt><trkpt lat="41.94329924190531" lon="12.643770973591053"><ele>74.0</ele><time>2026-03-29T16:39:12Z</time></trkpt><trkpt lat="41.94328936603179" lon="12.643541730198558"><ele>71.5</ele><time>2026-03-29T16:39:13Z</time></trkpt><trkpt lat="41.94327438225006" lon="12.643322122028742"><ele>69.0</ele><time>2026-03-29T16:39:14Z</time></trkpt><trkpt lat="41.93967780836282" lon="12.629912453976223"><ele>65.66666666666667</ele><time>2026-03-29T16:40:14.999Z</time></trkpt><trkpt lat="41.939533916229315" lon="12.629681151776023"><ele>62.333333333333336</ele><time>2026-03-29T16:40:15.999Z</time></trkpt><trkpt lat="41.93940439121064" lon="12.62945867733105"><ele>59.0</ele><time>2026-03-29T16:40:16.999Z</time></trkpt><trkpt lat="41.939279014137504" lon="12.629236567801799"><ele>58.333333333333336</ele><time>2026-03-29T16:40:17.999Z</time></trkpt><trkpt lat="41.9391564613854" lon="12.629010877547561"><ele>57.66666666666667</ele><time>2026-03-29T16:40:18.999Z</time></trkpt><trkpt lat="41.93904646850499" lon="12.62877692469781"><ele>57.0</ele><time>2026-03-29T16:40:19.999Z</time></trkpt><trkpt lat="41.938959603986156" lon="12.62852779213666"><ele>56.66666666666667</ele><time>2026-03-29T16:40:20.999Z</time></trkpt><trkpt lat="41.93889000601783" lon="12.628260258862875"><ele>56.333333333333336</ele><time>2026-03-29T16:40:21.999Z</time></trkpt><trkpt lat="41.93883979749664" lon="12.628019627912744"><ele>56.0</ele><time>2026-03-29T16:40:22.999Z</time></trkpt><trkpt lat="41.93879547339751" lon="12.627789928395996"><ele>55.66666666666667</ele><time>2026-03-29T16:40:23.999Z</time></trkpt><trkpt lat="41.9387552805077" lon="12.62757889188265"><ele>55.33333333333333</ele><time>2026-03-29T16:40:24.999Z</time></trkpt><trkpt lat="41.93871230413799" lon="12.627357108856867"><ele>55.0</ele><time>2026-03-29T16:40:25.999Z</time></trkpt><trkpt lat="41.93866258534005" lon="12.627113901405764"><ele>54.666666666666664</ele><time>2026-03-29T16:40:26.999Z</time></trkpt><trkpt lat="41.93861476964103" lon="12.62686636890246"><ele>54.33333333333333</ele><time>2026-03-29T16:40:27.999Z</time></trkpt><trkpt lat="41.938566028350714" lon="12.626618596664024"><ele>54.0</ele><time>2026-03-29T16:40:28.999Z</time></trkpt><trkpt lat="41.93851686317852" lon="12.626366840156162"><ele>54.0</ele><time>2026-03-29T16:40:29.999Z</time></trkpt><trkpt lat="41.93846684440881" lon="12.626106027696352"><ele>54.0</ele><time>2026-03-29T16:40:30.999Z</time></trkpt><trkpt lat="41.938417069950674" lon="12.625848482052263"><ele>54.0</ele><time>2026-03-29T16:40:31.999Z</time></trkpt><trkpt lat="41.938368302108664" lon="12.625590344674839"><ele>53.66666666666667</ele><time>2026-03-29T16:40:32.999Z</time></trkpt><trkpt lat="41.93832119138375" lon="12.625334870375095"><ele>53.333333333333336</ele><time>2026-03-29T16:40:33.999Z</time></trkpt><trkpt lat="41.938270079303706" lon="12.625084569435808"><ele>53.0</ele><time>2026-03-29T16:40:34.999Z</time></trkpt><trkpt lat="41.93822131688857" lon="12.624845913159007"><ele>53.66666666666667</ele><time>2026-03-29T16:40:35.999Z</time></trkpt><trkpt lat="41.93817112329105" lon="12.624608361509694"><ele>54.33333333333333</ele><time>2026-03-29T16:40:36.999Z</time></trkpt><trkpt lat="41.938121790960665" lon="12.624361213266726"><ele>55.0</ele><time>2026-03-29T16:40:37.999Z</time></trkpt><trkpt lat="41.938076609566046" lon="12.624098057474374"><ele>55.0</ele><time>2026-03-29T16:40:38.999Z</time></trkpt><trkpt lat="41.93803937472358" lon="12.623832699460142"><ele>55.0</ele><time>2026-03-29T16:40:39.999Z</time></trkpt><trkpt lat="41.938005184973086" lon="12.623568610705604"><ele>55.0</ele><time>2026-03-29T16:40:40.999Z</time></trkpt><trkpt lat="41.93798261338762" lon="12.62329674831016"><ele>54.33333333333333</ele><time>2026-03-29T16:40:41.999Z</time></trkpt><trkpt lat="41.93798759748019" lon="12.623038477552525"><ele>53.66666666666667</ele><time>2026-03-29T16:40:42.999Z</time></trkpt><trkpt lat="41.93803233655657" lon="12.622749410387387"><ele>53.0</ele><time>2026-03-29T16:40:43.999Z</time></trkpt><trkpt lat="41.93804156093448" lon="12.622474946851513"><ele>52.0</ele><time>2026-03-29T16:40:44.998Z</time></trkpt><trkpt lat="41.938021436346524" lon="12.622234266124572"><ele>51.0</ele><time>2026-03-29T16:40:45.998Z</time></trkpt><trkpt lat="41.938017571901376" lon="12.621992839145426"><ele>50.0</ele><time>2026-03-29T16:40:46.998Z</time></trkpt><trkpt lat="41.93801313661266" lon="12.621762279025074"><ele>50.0</ele><time>2026-03-29T16:40:47.998Z</time></trkpt><trkpt lat="41.93800542017822" lon="12.621517193036079"><ele>50.0</ele><time>2026-03-29T16:40:48.998Z</time></trkpt><trkpt lat="41.9379972757614" lon="12.62125422454628"><ele>50.0</ele><time>2026-03-29T16:40:49.998Z</time></trkpt><trkpt lat="41.93798517872047" lon="12.62098428254365"><ele>49.66666666666667</ele><time>2026-03-29T16:40:50.998Z</time></trkpt><trkpt lat="41.9379709795578" lon="12.620714401544191"><ele>49.33333333333333</ele><time>2026-03-29T16:40:51.998Z</time></trkpt><trkpt lat="41.937953283004056" lon="12.620459313423044"><ele>49.0</ele><time>2026-03-29T16:40:52.998Z</time></trkpt><trkpt lat="41.93791878185663" lon="12.62021537337411"><ele>48.33333333333333</ele><time>2026-03-29T16:40:53.998Z</time></trkpt><trkpt lat="41.93786237189346" lon="12.619969975113461"><ele>47.666666666666664</ele><time>2026-03-29T16:40:54.998Z</time></trkpt><trkpt lat="41.93778940544416" lon="12.619734525140567"><ele>47.0</ele><time>2026-03-29T16:40:55.998Z</time></trkpt><trkpt lat="41.937715170221026" lon="12.619502570823084"><ele>47.666666666666664</ele><time>2026-03-29T16:40:56.998Z</time></trkpt><trkpt lat="41.93764511509015" lon="12.619271925778868"><ele>48.33333333333333</ele><time>2026-03-29T16:40:57.998Z</time></trkpt><trkpt lat="41.93757987054119" lon="12.6190441216322"><ele>49.0</ele><time>2026-03-29T16:40:58.998Z</time></trkpt><trkpt lat="41.93751199941716" lon="12.618817749476348"><ele>47.0</ele><time>2026-03-29T16:40:59.998Z</time></trkpt><trkpt lat="41.93744192256961" lon="12.618586338263544"><ele>45.0</ele><time>2026-03-29T16:41:00.998Z</time></trkpt><trkpt lat="41.937370206867314" lon="12.6183602492011"><ele>43.0</ele><time>2026-03-29T16:41:01.998Z</time></trkpt><trkpt lat="41.937295877453245" lon="12.618132965504373"><ele>43.0</ele><time>2026-03-29T16:41:02.998Z</time></trkpt><trkpt lat="41.93722981749505" lon="12.617909526854172"><ele>43.0</ele><time>2026-03-29T16:41:03.998Z</time></trkpt><trkpt lat="41.93716767894185" lon="12.617675359184986"><ele>43.0</ele><time>2026-03-29T16:41:04.998Z</time></trkpt><trkpt lat="41.937107684663424" lon="12.617434535103497"><ele>43.333333333333336</ele><time>2026-03-29T16:41:05.998Z</time></trkpt><trkpt lat="41.93704920857756" lon="12.617196641723437"><ele>43.666666666666664</ele><time>2026-03-29T16:41:06.998Z</time></trkpt><trkpt lat="41.93699246206108" lon="12.61694872805792"><ele>44.0</ele><time>2026-03-29T16:41:07.998Z</time></trkpt><trkpt lat="41.93693489459106" lon="12.616704514506543"><ele>43.33333333333333</ele><time>2026-03-29T16:41:08.998Z</time></trkpt><trkpt lat="41.9368756176159" lon="12.6164626014921"><ele>42.666666666666664</ele><time>2026-03-29T16:41:09.998Z</time></trkpt><trkpt lat="41.93681291049058" lon="12.616221890550145"><ele>42.0</ele><time>2026-03-29T16:41:10.998Z</time></trkpt><trkpt lat="41.93675763788588" lon="12.61597390938877"><ele>42.666666666666664</ele><time>2026-03-29T16:41:11.998Z</time></trkpt><trkpt lat="41.936708184878015" lon="12.615730305163932"><ele>43.33333333333333</ele><time>2026-03-29T16:41:12.998Z</time></trkpt><trkpt lat="41.936652648519626" lon="12.615488968931494"><ele>44.0</ele><time>2026-03-29T16:41:13.998Z</time></trkpt><trkpt lat="41.93373789784827" lon="12.6032842399652"><ele>41.25</ele><time>2026-03-29T16:42:14.999Z</time></trkpt><trkpt lat="41.933710527740224" lon="12.603103511376078"><ele>38.5</ele><time>2026-03-29T16:42:15.999Z</time></trkpt><trkpt lat="41.93368182222141" lon="12.60291058782817"><ele>35.75</ele><time>2026-03-29T16:42:16.999Z</time></trkpt><trkpt lat="41.93365262059252" lon="12.60271534790003"><ele>33.0</ele><time>2026-03-29T16:42:17.999Z</time></trkpt><trkpt lat="41.93362499172136" lon="12.602519389059804"><ele>32.25</ele><time>2026-03-29T16:42:18.999Z</time></trkpt><trkpt lat="41.93359791859545" lon="12.602327760944549"><ele>31.5</ele><time>2026-03-29T16:42:19.999Z</time></trkpt><trkpt lat="41.933570257492796" lon="12.602135618290651"><ele>30.75</ele><time>2026-03-29T16:42:20.999Z</time></trkpt><trkpt lat="41.93353948721736" lon="12.601937206022619"><ele>30.0</ele><time>2026-03-29T16:42:21.999Z</time></trkpt><trkpt lat="41.933509629516976" lon="12.601741574303276"><ele>30.0</ele><time>2026-03-29T16:42:22.999Z</time></trkpt><trkpt lat="41.933481824070896" lon="12.601557174214976"><ele>30.0</ele><time>2026-03-29T16:42:23.999Z</time></trkpt><trkpt lat="41.933456811735155" lon="12.601387758916488"><ele>30.0</ele><time>2026-03-29T16:42:24.999Z</time></trkpt><trkpt lat="41.93343209735533" lon="12.60122872706492"><ele>30.0</ele><time>2026-03-29T16:42:25.999Z</time></trkpt><trkpt lat="41.93341102871485" lon="12.601089924789324"><ele>30.4</ele><time>2026-03-29T16:42:26.999Z</time></trkpt><trkpt lat="41.93338134059746" lon="12.600933811638855"><ele>30.8</ele><time>2026-03-29T16:42:27.999Z</time></trkpt><trkpt lat="41.9333762654446" lon="12.600794271589265"><ele>31.200000000000003</ele><time>2026-03-29T16:42:28.999Z</time></trkpt><trkpt lat="41.933353042487525" lon="12.600660804386285"><ele>31.6</ele><time>2026-03-29T16:42:29.999Z</time></trkpt><trkpt lat="41.93333760589656" lon="12.600527968503586"><ele>32.0</ele><time>2026-03-29T16:42:30.999Z</time></trkpt><trkpt lat="41.93351070556678" lon="12.600365007085104"><ele>31.333333333333332</ele><time>2026-03-29T16:42:31.999Z</time></trkpt><trkpt lat="41.93361903683147" lon="12.600226139358302"><ele>30.666666666666664</ele><time>2026-03-29T16:42:32.999Z</time></trkpt><trkpt lat="41.933747927726785" lon="12.600099305032895"><ele>30.0</ele><time>2026-03-29T16:42:33.999Z</time></trkpt><trkpt lat="41.93388543541358" lon="12.599984294279649"><ele>30.0</ele><time>2026-03-29T16:42:34.999Z</time></trkpt><trkpt lat="41.934014730230054" lon="12.599884701562749"><ele>30.0</ele><time>2026-03-29T16:42:35.999Z</time></trkpt><trkpt lat="41.93412426654346" lon="12.599818961379142"><ele>30.0</ele><time>2026-03-29T16:42:36.999Z</time></trkpt><trkpt lat="41.934219726365896" lon="12.599785710500754"><ele>30.0</ele><time>2026-03-29T16:42:37.999Z</time></trkpt><trkpt lat="41.934319935009135" lon="12.599810414014655"><ele>30.0</ele><time>2026-03-29T16:42:38.999Z</time></trkpt><trkpt lat="41.93440735894888" lon="12.5998881200873"><ele>30.0</ele><time>2026-03-29T16:42:39.999Z</time></trkpt><trkpt lat="41.93444683300375" lon="12.600055914850964"><ele>30.0</ele><time>2026-03-29T16:42:40.999Z</time></trkpt><trkpt lat="41.93442185468243" lon="12.600195945740031"><ele>30.0</ele><time>2026-03-29T16:42:41.999Z</time></trkpt><trkpt lat="41.93434826867387" lon="12.600296708870191"><ele>30.0</ele><time>2026-03-29T16:42:42.999Z</time></trkpt><trkpt lat="41.934244036457955" lon="12.600358352438167"><ele>30.666666666666664</ele><time>2026-03-29T16:42:43.999Z</time></trkpt><trkpt lat="41.93412494193107" lon="12.600434585545624"><ele>31.333333333333332</ele><time>2026-03-29T16:42:44.999Z</time></trkpt><trkpt lat="41.93399475554569" lon="12.600540067627794"><ele>32.0</ele><time>2026-03-29T16:42:45.998Z</time></trkpt><trkpt lat="41.93384934183057" lon="12.600661996171223"><ele>32.0</ele><time>2026-03-29T16:42:46.998Z</time></trkpt><trkpt lat="41.93369674876071" lon="12.600786282280756"><ele>32.0</ele><time>2026-03-29T16:42:47.998Z</time></trkpt><trkpt lat="41.93354270173833" lon="12.60091073993965"><ele>32.0</ele><time>2026-03-29T16:42:48.998Z</time></trkpt><trkpt lat="41.93338746262929" lon="12.601039359293628"><ele>30.0</ele><time>2026-03-29T16:42:49.998Z</time></trkpt><trkpt lat="41.93322697717854" lon="12.601174550542064"><ele>28.0</ele><time>2026-03-29T16:42:50.998Z</time></trkpt><trkpt lat="41.933059914618624" lon="12.60131473420014"><ele>26.0</ele><time>2026-03-29T16:42:51.998Z</time></trkpt><trkpt lat="41.9328838733125" lon="12.601456875635584"><ele>26.0</ele><time>2026-03-29T16:42:52.998Z</time></trkpt><trkpt lat="41.93270237826996" lon="12.601600293335258"><ele>26.0</ele><time>2026-03-29T16:42:53.998Z</time></trkpt><trkpt lat="41.932516787651316" lon="12.601747809392547"><ele>26.0</ele><time>2026-03-29T16:42:54.998Z</time></trkpt><trkpt lat="41.932343695555204" lon="12.601885992964412"><ele>27.333333333333332</ele><time>2026-03-29T16:42:55.998Z</time></trkpt><trkpt lat="41.93216911762167" lon="12.602023726135164"><ele>28.666666666666664</ele><time>2026-03-29T16:42:56.998Z</time></trkpt><trkpt lat="41.93199572560548" lon="12.60215950847602"><ele>30.0</ele><time>2026-03-29T16:42:57.998Z</time></trkpt><trkpt lat="41.931826087677514" lon="12.602295665917028"><ele>30.666666666666664</ele><time>2026-03-29T16:42:58.998Z</time></trkpt><trkpt lat="41.93166707968625" lon="12.602426862053385"><ele>31.333333333333332</ele><time>2026-03-29T16:42:59.998Z</time></trkpt><trkpt lat="41.931501581800894" lon="12.602563871244072"><ele>32.0</ele><time>2026-03-29T16:43:00.998Z</time></trkpt><trkpt lat="41.93133440467812" lon="12.602705416353125"><ele>32.33333333333333</ele><time>2026-03-29T16:43:01.998Z</time></trkpt><trkpt lat="41.931161439326985" lon="12.60284740814629"><ele>32.666666666666664</ele><time>2026-03-29T16:43:02.998Z</time></trkpt><trkpt lat="41.930985658529266" lon="12.602983941587164"><ele>33.0</ele><time>2026-03-29T16:43:03.998Z</time></trkpt><trkpt lat="41.93081893244063" lon="12.603111749974671"><ele>33.0</ele><time>2026-03-29T16:43:04.998Z</time></trkpt><trkpt lat="41.93066032825944" lon="12.603231682270827"><ele>33.0</ele><time>2026-03-29T16:43:05.998Z</time></trkpt><trkpt lat="41.93050050433101" lon="12.603357730313528"><ele>33.0</ele><time>2026-03-29T16:43:06.998Z</time></trkpt><trkpt lat="41.93034747016335" lon="12.603475636312496"><ele>33.0</ele><time>2026-03-29T16:43:07.998Z</time></trkpt><trkpt lat="41.93019560204105" lon="12.603592833641908"><ele>33.0</ele><time>2026-03-29T16:43:08.998Z</time></trkpt><trkpt lat="41.93004547046072" lon="12.60371008870789"><ele>33.0</ele><time>2026-03-29T16:43:09.998Z</time></trkpt><trkpt lat="41.929892097875594" lon="12.60383161237242"><ele>34.0</ele><time>2026-03-29T16:43:10.998Z</time></trkpt><trkpt lat="41.92973154480747" lon="12.603953651289528"><ele>35.0</ele><time>2026-03-29T16:43:11.998Z</time></trkpt><trkpt lat="41.929578150037386" lon="12.60407548455418"><ele>36.0</ele><time>2026-03-29T16:43:12.998Z</time></trkpt><trkpt lat="41.92941818866035" lon="12.60419787312944"><ele>34.0</ele><time>2026-03-29T16:43:13.998Z</time></trkpt><trkpt lat="41.91750443461396" lon="12.613657364466215"><ele>34.0</ele><time>2026-03-29T16:44:14.999Z</time></trkpt><trkpt lat="41.917307509809895" lon="12.613816073571012"><ele>34.0</ele><time>2026-03-29T16:44:15.999Z</time></trkpt><trkpt lat="41.91710987631399" lon="12.613973821305882"><ele>34.0</ele><time>2026-03-29T16:44:16.999Z</time></trkpt><trkpt lat="41.91691298899802" lon="12.61412913646532"><ele>34.0</ele><time>2026-03-29T16:44:17.999Z</time></trkpt><trkpt lat="41.91671536003235" lon="12.614286900083341"><ele>35.0</ele><time>2026-03-29T16:44:18.999Z</time></trkpt><trkpt lat="41.91651950180271" lon="12.614444757409835"><ele>36.0</ele><time>2026-03-29T16:44:19.999Z</time></trkpt><trkpt lat="41.916320779616726" lon="12.61460183471992"><ele>36.0</ele><time>2026-03-29T16:44:20.999Z</time></trkpt><trkpt lat="41.91611598161676" lon="12.614760474160802"><ele>36.0</ele><time>2026-03-29T16:44:21.999Z</time></trkpt><trkpt lat="41.9159022479363" lon="12.614921298620018"><ele>36.5</ele><time>2026-03-29T16:44:22.999Z</time></trkpt><trkpt lat="41.91568072210047" lon="12.615078412899232"><ele>37.0</ele><time>2026-03-29T16:44:23.999Z</time></trkpt><trkpt lat="41.915453332716105" lon="12.615216519072032"><ele>37.0</ele><time>2026-03-29T16:44:24.999Z</time></trkpt><trkpt lat="41.915219851563094" lon="12.615332174527987"><ele>37.0</ele><time>2026-03-29T16:44:25.999Z</time></trkpt><trkpt lat="41.91498143669786" lon="12.615429513321448"><ele>37.0</ele><time>2026-03-29T16:44:26.999Z</time></trkpt><trkpt lat="41.9147431908399" lon="12.615512578807213"><ele>37.0</ele><time>2026-03-29T16:44:27.999Z</time></trkpt><trkpt lat="41.91450424556442" lon="12.61558471421737"><ele>37.0</ele><time>2026-03-29T16:44:28.999Z</time></trkpt><trkpt lat="41.914263821260995" lon="12.615637407388114"><ele>37.0</ele><time>2026-03-29T16:44:29.999Z</time></trkpt><trkpt lat="41.91402088436521" lon="12.615672128660083"><ele>37.5</ele><time>2026-03-29T16:44:30.999Z</time></trkpt><trkpt lat="41.913776708180734" lon="12.615693072302667"><ele>38.0</ele><time>2026-03-29T16:44:31.999Z</time></trkpt><trkpt lat="41.913538018489945" lon="12.615701618999866"><ele>39.0</ele><time>2026-03-29T16:44:32.999Z</time></trkpt><trkpt lat="41.9132998506245" lon="12.615704714380266"><ele>40.0</ele><time>2026-03-29T16:44:33.999Z</time></trkpt><trkpt lat="41.913053650763935" lon="12.615705706050985"><ele>40.0</ele><time>2026-03-29T16:44:34.999Z</time></trkpt><trkpt lat="41.91280084133598" lon="12.61570235868377"><ele>40.0</ele><time>2026-03-29T16:44:35.999Z</time></trkpt><trkpt lat="41.91254333734336" lon="12.615692342060926"><ele>41.5</ele><time>2026-03-29T16:44:36.999Z</time></trkpt><trkpt lat="41.91228920122365" lon="12.61567876087413"><ele>43.0</ele><time>2026-03-29T16:44:37.999Z</time></trkpt><trkpt lat="41.912035929365246" lon="12.615663685489833"><ele>43.0</ele><time>2026-03-29T16:44:38.999Z</time></trkpt><trkpt lat="41.91178232896912" lon="12.61564853775821"><ele>43.0</ele><time>2026-03-29T16:44:39.999Z</time></trkpt><trkpt lat="41.911529030681464" lon="12.615634449631886"><ele>43.5</ele><time>2026-03-29T16:44:40.999Z</time></trkpt><trkpt lat="41.91128176687439" lon="12.615623248809438"><ele>44.0</ele><time>2026-03-29T16:44:41.999Z</time></trkpt><trkpt lat="41.91102963153741" lon="12.615615273764318"><ele>45.0</ele><time>2026-03-29T16:44:42.999Z</time></trkpt><trkpt lat="41.91077909549932" lon="12.615608473652474"><ele>46.0</ele><time>2026-03-29T16:44:43.999Z</time></trkpt><trkpt lat="41.910524701734815" lon="12.61560039146192"><ele>46.0</ele><time>2026-03-29T16:44:44.999Z</time></trkpt><trkpt lat="41.910270832785194" lon="12.6155904975233"><ele>46.0</ele><time>2026-03-29T16:44:45.999Z</time></trkpt><trkpt lat="41.91001528790128" lon="12.615582890226735"><ele>45.5</ele><time>2026-03-29T16:44:46.999Z</time></trkpt><trkpt lat="41.909763765815356" lon="12.615575468425408"><ele>45.0</ele><time>2026-03-29T16:44:47.999Z</time></trkpt><trkpt lat="41.90951362828764" lon="12.615568070924065"><ele>45.0</ele><time>2026-03-29T16:44:48.999Z</time></trkpt><trkpt lat="41.90926541329387" lon="12.615560064631905"><ele>45.0</ele><time>2026-03-29T16:44:49.998Z</time></trkpt><trkpt lat="41.90901605363093" lon="12.615555372239433"><ele>45.0</ele><time>2026-03-29T16:44:50.998Z</time></trkpt><trkpt lat="41.9087649205989" lon="12.615549155915268"><ele>45.0</ele><time>2026-03-29T16:44:51.998Z</time></trkpt><trkpt lat="41.908509720426316" lon="12.615542805729318"><ele>44.0</ele><time>2026-03-29T16:44:52.998Z</time></trkpt><trkpt lat="41.908251963135655" lon="12.615533606658659"><ele>43.0</ele><time>2026-03-29T16:44:53.998Z</time></trkpt><trkpt lat="41.90799048031907" lon="12.61552433943987"><ele>43.0</ele><time>2026-03-29T16:44:54.998Z</time></trkpt><trkpt lat="41.907722517676326" lon="12.615514232325934"><ele>43.0</ele><time>2026-03-29T16:44:55.998Z</time></trkpt><trkpt lat="41.90745069167915" lon="12.61550375349526"><ele>44.5</ele><time>2026-03-29T16:44:56.998Z</time></trkpt><trkpt lat="41.90717535766037" lon="12.615493647568085"><ele>46.0</ele><time>2026-03-29T16:44:57.998Z</time></trkpt><trkpt lat="41.90689861878202" lon="12.615487394507568"><ele>46.5</ele><time>2026-03-29T16:44:58.998Z</time></trkpt><trkpt lat="41.90661882531641" lon="12.615482154143834"><ele>47.0</ele><time>2026-03-29T16:44:59.998Z</time></trkpt><trkpt lat="41.9063426350362" lon="12.615477438701996"><ele>47.0</ele><time>2026-03-29T16:45:00.998Z</time></trkpt><trkpt lat="41.906084513328494" lon="12.615470274714042"><ele>47.0</ele><time>2026-03-29T16:45:01.998Z</time></trkpt><trkpt lat="41.9058386962159" lon="12.615463850044469"><ele>46.0</ele><time>2026-03-29T16:45:02.998Z</time></trkpt><trkpt lat="41.90558931127962" lon="12.615455313406338"><ele>45.0</ele><time>2026-03-29T16:45:03.998Z</time></trkpt><trkpt lat="41.90533760667286" lon="12.615447368423064"><ele>45.0</ele><time>2026-03-29T16:45:04.998Z</time></trkpt><trkpt lat="41.905087754105736" lon="12.615440334022589"><ele>45.0</ele><time>2026-03-29T16:45:05.998Z</time></trkpt><trkpt lat="41.904842586667506" lon="12.615432164361762"><ele>42.0</ele><time>2026-03-29T16:45:06.998Z</time></trkpt><trkpt lat="41.90459838710893" lon="12.61542677612751"><ele>39.0</ele><time>2026-03-29T16:45:07.998Z</time></trkpt><trkpt lat="41.90434653831052" lon="12.615420656387942"><ele>38.5</ele><time>2026-03-29T16:45:08.998Z</time></trkpt><trkpt lat="41.90409252082261" lon="12.615412534833776"><ele>38.0</ele><time>2026-03-29T16:45:09.998Z</time></trkpt><trkpt lat="41.90383811506729" lon="12.61540498544083"><ele>38.0</ele><time>2026-03-29T16:45:10.998Z</time></trkpt><trkpt lat="41.90358637906456" lon="12.615401090257606"><ele>38.0</ele><time>2026-03-29T16:45:11.998Z</time></trkpt><trkpt lat="41.90333098834002" lon="12.615401616885201"><ele>36.5</ele><time>2026-03-29T16:45:12.998Z</time></trkpt><trkpt lat="41.903069315126174" lon="12.615402199916016"><ele>35.0</ele><time>2026-03-29T16:45:13.998Z</time></trkpt><trkpt lat="41.887276785021655" lon="12.613648423416747"><ele>38.0</ele><time>2026-03-29T16:46:14.999Z</time></trkpt><trkpt lat="41.88703086847987" lon="12.613515154309852"><ele>41.0</ele><time>2026-03-29T16:46:15.999Z</time></trkpt><trkpt lat="41.886790201028056" lon="12.61338295387228"><ele>42.0</ele><time>2026-03-29T16:46:16.999Z</time></trkpt><trkpt lat="41.886555684944256" lon="12.613253113219821"><ele>43.0</ele><time>2026-03-29T16:46:17.999Z</time></trkpt><trkpt lat="41.88631890928352" lon="12.61312302119626"><ele>43.0</ele><time>2026-03-29T16:46:18.999Z</time></trkpt><trkpt lat="41.886088122983615" lon="12.612992167412449"><ele>43.0</ele><time>2026-03-29T16:46:19.999Z</time></trkpt><trkpt lat="41.88586930542137" lon="12.612870085684083"><ele>43.66666666666667</ele><time>2026-03-29T16:46:20.999Z</time></trkpt><trkpt lat="41.885675119106466" lon="12.612751724036979"><ele>44.333333333333336</ele><time>2026-03-29T16:46:21.999Z</time></trkpt><trkpt lat="41.885474504938486" lon="12.612662220173553"><ele>45.0</ele><time>2026-03-29T16:46:22.999Z</time></trkpt><trkpt lat="41.88526389054181" lon="12.612553269706895"><ele>44.0</ele><time>2026-03-29T16:46:23.999Z</time></trkpt><trkpt lat="41.885056133427575" lon="12.6124473752176"><ele>43.0</ele><time>2026-03-29T16:46:24.999Z</time></trkpt><trkpt lat="41.88484447457476" lon="12.612335515195294"><ele>43.0</ele><time>2026-03-29T16:46:25.999Z</time></trkpt><trkpt lat="41.88464226380561" lon="12.61222944841835"><ele>43.0</ele><time>2026-03-29T16:46:26.999Z</time></trkpt><trkpt lat="41.88444854535849" lon="12.612127278007504"><ele>43.0</ele><time>2026-03-29T16:46:27.999Z</time></trkpt><trkpt lat="41.88424598318831" lon="12.612016831683189"><ele>44.5</ele><time>2026-03-29T16:46:28.999Z</time></trkpt><trkpt lat="41.884034263942354" lon="12.61189654921364"><ele>46.0</ele><time>2026-03-29T16:46:29.999Z</time></trkpt><trkpt lat="41.883818014887446" lon="12.611767010574171"><ele>46.0</ele><time>2026-03-29T16:46:30.999Z</time></trkpt><trkpt lat="41.88360368634935" lon="12.611636943376661"><ele>46.0</ele><time>2026-03-29T16:46:31.999Z</time></trkpt><trkpt lat="41.88338425662557" lon="12.611503621928229"><ele>45.5</ele><time>2026-03-29T16:46:32.999Z</time></trkpt><trkpt lat="41.88315744662893" lon="12.611363198528776"><ele>45.0</ele><time>2026-03-29T16:46:33.999Z</time></trkpt><trkpt lat="41.88292422446801" lon="12.611219279216849"><ele>44.0</ele><time>2026-03-29T16:46:34.999Z</time></trkpt><trkpt lat="41.88268447337781" lon="12.611080064351288"><ele>43.0</ele><time>2026-03-29T16:46:35.999Z</time></trkpt><trkpt lat="41.88243753167847" lon="12.610948005624053"><ele>46.5</ele><time>2026-03-29T16:46:36.999Z</time></trkpt><trkpt lat="41.88219308983137" lon="12.610819042941412"><ele>50.0</ele><time>2026-03-29T16:46:37.999Z</time></trkpt><trkpt lat="41.881950415981095" lon="12.61068885541526"><ele>49.0</ele><time>2026-03-29T16:46:38.999Z</time></trkpt><trkpt lat="41.88171239842458" lon="12.610557470301748"><ele>48.0</ele><time>2026-03-29T16:46:39.999Z</time></trkpt><trkpt lat="41.881472465395134" lon="12.610426451699812"><ele>47.5</ele><time>2026-03-29T16:46:40.999Z</time></trkpt><trkpt lat="41.88123578864354" lon="12.610294868264294"><ele>47.0</ele><time>2026-03-29T16:46:41.999Z</time></trkpt><trkpt lat="41.88099435572909" lon="12.610159787841985"><ele>49.0</ele><time>2026-03-29T16:46:42.999Z</time></trkpt><trkpt lat="41.88075126884333" lon="12.610023095869769"><ele>51.0</ele><time>2026-03-29T16:46:43.999Z</time></trkpt><trkpt lat="41.88051068156786" lon="12.609887788328873"><ele>51.0</ele><time>2026-03-29T16:46:44.999Z</time></trkpt><trkpt lat="41.88027257221201" lon="12.60975082870932"><ele>51.0</ele><time>2026-03-29T16:46:45.999Z</time></trkpt><trkpt lat="41.88002990496754" lon="12.609616075070631"><ele>52.5</ele><time>2026-03-29T16:46:46.999Z</time></trkpt><trkpt lat="41.87979408847821" lon="12.609483573138078"><ele>54.0</ele><time>2026-03-29T16:46:47.999Z</time></trkpt><trkpt lat="41.879569600196966" lon="12.609359740668747"><ele>54.0</ele><time>2026-03-29T16:46:48.999Z</time></trkpt><trkpt lat="41.87934708028972" lon="12.609235065442935"><ele>54.0</ele><time>2026-03-29T16:46:49.999Z</time></trkpt><trkpt lat="41.879126137072205" lon="12.60910832444468"><ele>51.333333333333336</ele><time>2026-03-29T16:46:50.999Z</time></trkpt><trkpt lat="41.878918068862525" lon="12.60898427955394"><ele>48.66666666666667</ele><time>2026-03-29T16:46:51.999Z</time></trkpt><trkpt lat="41.87871625551717" lon="12.608865415042693"><ele>46.0</ele><time>2026-03-29T16:46:52.998Z</time></trkpt><trkpt lat="41.87852229278125" lon="12.608751303253266"><ele>44.66666666666667</ele><time>2026-03-29T16:46:53.998Z</time></trkpt><trkpt lat="41.87833810447913" lon="12.608638971386679"><ele>43.333333333333336</ele><time>2026-03-29T16:46:54.998Z</time></trkpt><trkpt lat="41.8781668953796" lon="12.608527595561"><ele>42.0</ele><time>2026-03-29T16:46:55.998Z</time></trkpt><trkpt lat="41.87800873756191" lon="12.608408874748259"><ele>42.0</ele><time>2026-03-29T16:46:56.998Z</time></trkpt><trkpt lat="41.8778677827242" lon="12.608280642047095"><ele>42.0</ele><time>2026-03-29T16:46:57.998Z</time></trkpt><trkpt lat="41.8777252911031" lon="12.608151135664539"><ele>42.0</ele><time>2026-03-29T16:46:58.998Z</time></trkpt><trkpt lat="41.87756834974003" lon="12.608038519487629"><ele>42.333333333333336</ele><time>2026-03-29T16:46:59.998Z</time></trkpt><trkpt lat="41.87739552708262" lon="12.607943586755917"><ele>42.66666666666667</ele><time>2026-03-29T16:47:00.998Z</time></trkpt><trkpt lat="41.87722024523114" lon="12.607852867024636"><ele>43.0</ele><time>2026-03-29T16:47:01.998Z</time></trkpt><trkpt lat="41.877061450127876" lon="12.607768939615937"><ele>44.0</ele><time>2026-03-29T16:47:02.998Z</time></trkpt><trkpt lat="41.87691473042805" lon="12.607688874084781"><ele>45.0</ele><time>2026-03-29T16:47:03.998Z</time></trkpt><trkpt lat="41.876781616152385" lon="12.607614480372366"><ele>46.0</ele><time>2026-03-29T16:47:04.998Z</time></trkpt><trkpt lat="41.876661652563484" lon="12.607545698245572"><ele>47.0</ele><time>2026-03-29T16:47:05.998Z</time></trkpt><trkpt lat="41.876547901079064" lon="12.607483135075299"><ele>47.6</ele><time>2026-03-29T16:47:06.998Z</time></trkpt><trkpt lat="41.87644411203107" lon="12.607423468048523"><ele>48.2</ele><time>2026-03-29T16:47:07.998Z</time></trkpt><trkpt lat="41.87634460370046" lon="12.607372227730925"><ele>48.8</ele><time>2026-03-29T16:47:08.998Z</time></trkpt><trkpt lat="41.876245130817296" lon="12.607312035487082"><ele>49.4</ele><time>2026-03-29T16:47:09.998Z</time></trkpt><trkpt lat="41.87614798924182" lon="12.607253834832822"><ele>50.0</ele><time>2026-03-29T16:47:10.998Z</time></trkpt><trkpt lat="41.87606684103512" lon="12.60720623961917"><ele>50.0</ele><time>2026-03-29T16:47:11.998Z</time></trkpt><trkpt lat="41.875998552551735" lon="12.607166744049561"><ele>50.0</ele><time>2026-03-29T16:47:12.998Z</time></trkpt><trkpt lat="41.875945235284945" lon="12.607119465596949"><ele>50.0</ele><time>2026-03-29T16:47:13.998Z</time></trkpt><trkpt lat="41.87569706624933" lon="12.606335363826554"><ele>50.00000000000001</ele><time>2026-03-29T16:48:24.999Z</time></trkpt><trkpt lat="41.875632199901226" lon="12.606301971899375"><ele>50.0</ele><time>2026-03-29T16:53:17.998Z</time></trkpt><trkpt lat="41.87551291435878" lon="12.606238223285091"><ele>50.0</ele><time>2026-03-29T16:53:19.998Z</time></trkpt><trkpt lat="41.87543167667514" lon="12.60620939479514"><ele>50.0</ele><time>2026-03-29T16:53:21.998Z</time></trkpt><trkpt lat="41.875348227467676" lon="12.606184317523079"><ele>50.00000000000001</ele><time>2026-03-29T16:53:24.998Z</time></trkpt><trkpt lat="41.87528366572743" lon="12.606188822577183"><ele>50.0</ele><time>2026-03-29T16:53:27.998Z</time></trkpt><trkpt lat="41.87520841051824" lon="12.606191336141539"><ele>50.00000000000001</ele><time>2026-03-29T16:53:30.998Z</time></trkpt><trkpt lat="41.87512705136386" lon="12.60624021158152"><ele>50.0</ele><time>2026-03-29T16:54:53.999Z</time></trkpt><trkpt lat="41.87507279829874" lon="12.606287886720313"><ele>50.0</ele><time>2026-03-29T16:54:54.999Z</time></trkpt><trkpt lat="41.87501256269511" lon="12.606341846488041"><ele>50.0</ele><time>2026-03-29T16:54:55.999Z</time></trkpt><trkpt lat="41.87494089930285" lon="12.606388939614828"><ele>50.00000000000001</ele><time>2026-03-29T16:54:56.999Z</time></trkpt><trkpt lat="41.87486420437567" lon="12.606428001870393"><ele>50.0</ele><time>2026-03-29T16:54:57.999Z</time></trkpt><trkpt lat="41.87477384321696" lon="12.606464910668967"><ele>50.5</ele><time>2026-03-29T16:54:58.999Z</time></trkpt><trkpt lat="41.87466959367292" lon="12.606480142016713"><ele>51.0</ele><time>2026-03-29T16:54:59.999Z</time></trkpt><trkpt lat="41.87454494231466" lon="12.606466895186502"><ele>51.5</ele><time>2026-03-29T16:55:00.999Z</time></trkpt><trkpt lat="41.87441498425433" lon="12.606424286727833"><ele>52.0</ele><time>2026-03-29T16:55:01.999Z</time></trkpt><trkpt lat="41.87427508371497" lon="12.606383976516113"><ele>51.33333333333333</ele><time>2026-03-29T16:55:02.999Z</time></trkpt><trkpt lat="41.874133205730715" lon="12.606284598377083"><ele>50.66666666666667</ele><time>2026-03-29T16:55:03.999Z</time></trkpt><trkpt lat="41.873975853477816" lon="12.60619694751621"><ele>50.0</ele><time>2026-03-29T16:55:04.999Z</time></trkpt><trkpt lat="41.87381795721969" lon="12.606108479131494"><ele>49.66666666666667</ele><time>2026-03-29T16:55:05.999Z</time></trkpt><trkpt lat="41.87365065565574" lon="12.606019214320384"><ele>49.33333333333333</ele><time>2026-03-29T16:55:06.999Z</time></trkpt><trkpt lat="41.873468324564755" lon="12.605919380615383"><ele>49.0</ele><time>2026-03-29T16:55:07.999Z</time></trkpt><trkpt lat="41.8732759851692" lon="12.605814679760966"><ele>49.666666666666664</ele><time>2026-03-29T16:55:08.999Z</time></trkpt><trkpt lat="41.87308239063591" lon="12.605712575855048"><ele>50.33333333333333</ele><time>2026-03-29T16:55:09.999Z</time></trkpt><trkpt lat="41.87288446155529" lon="12.605605491842313"><ele>51.0</ele><time>2026-03-29T16:55:10.999Z</time></trkpt><trkpt lat="41.872680645860015" lon="12.60549571287282"><ele>51.0</ele><time>2026-03-29T16:55:11.999Z</time></trkpt><trkpt lat="41.87247476321684" lon="12.605382811664263"><ele>51.0</ele><time>2026-03-29T16:55:12.999Z</time></trkpt><trkpt lat="41.8722643003114" lon="12.605267666178786"><ele>60.0</ele><time>2026-03-29T16:55:13.999Z</time></trkpt><trkpt lat="41.85861656292893" lon="12.59890287824137"><ele>60.5</ele><time>2026-03-29T16:56:15Z</time></trkpt><trkpt lat="41.85838582885428" lon="12.598834269961896"><ele>61.0</ele><time>2026-03-29T16:56:16Z</time></trkpt><trkpt lat="41.85815084112886" lon="12.598762374690997"><ele>61.0</ele><time>2026-03-29T16:56:17Z</time></trkpt><trkpt lat="41.85791233309555" lon="12.59869140576215"><ele>61.0</ele><time>2026-03-29T16:56:18Z</time></trkpt><trkpt lat="41.85767178591066" lon="12.598621250734466"><ele>58.5</ele><time>2026-03-29T16:56:19Z</time></trkpt><trkpt lat="41.85742882161187" lon="12.59855126048086"><ele>56.0</ele><time>2026-03-29T16:56:19.999Z</time></trkpt><trkpt lat="41.85718724280179" lon="12.598480618575074"><ele>56.0</ele><time>2026-03-29T16:56:20.999Z</time></trkpt><trkpt lat="41.856943060476944" lon="12.598409900953818"><ele>56.0</ele><time>2026-03-29T16:56:21.999Z</time></trkpt><trkpt lat="41.85670111077814" lon="12.598338608514968"><ele>57.0</ele><time>2026-03-29T16:56:22.999Z</time></trkpt><trkpt lat="41.856459404656896" lon="12.598265113751406"><ele>58.0</ele><time>2026-03-29T16:56:23.999Z</time></trkpt><trkpt lat="41.85621852059708" lon="12.598189951106862"><ele>58.0</ele><time>2026-03-29T16:56:24.999Z</time></trkpt><trkpt lat="41.85598217016321" lon="12.598114027003641"><ele>58.0</ele><time>2026-03-29T16:56:25.999Z</time></trkpt><trkpt lat="41.85574542753103" lon="12.598036805896037"><ele>59.0</ele><time>2026-03-29T16:56:26.999Z</time></trkpt><trkpt lat="41.855514327341055" lon="12.597960552062014"><ele>60.0</ele><time>2026-03-29T16:56:27.999Z</time></trkpt><trkpt lat="41.85528351451781" lon="12.597884705918778"><ele>60.5</ele><time>2026-03-29T16:56:28.999Z</time></trkpt><trkpt lat="41.85505305735686" lon="12.597811882568628"><ele>61.0</ele><time>2026-03-29T16:56:29.999Z</time></trkpt><trkpt lat="41.85481814559011" lon="12.597738471913052"><ele>61.0</ele><time>2026-03-29T16:56:30.999Z</time></trkpt><trkpt lat="41.854582396263794" lon="12.597666225231938"><ele>61.0</ele><time>2026-03-29T16:56:31.999Z</time></trkpt><trkpt lat="41.85434736611336" lon="12.597590836876101"><ele>62.0</ele><time>2026-03-29T16:56:32.999Z</time></trkpt><trkpt lat="41.85411174612167" lon="12.597516354396198"><ele>63.0</ele><time>2026-03-29T16:56:33.999Z</time></trkpt><trkpt lat="41.853875019808484" lon="12.59744588636364"><ele>63.0</ele><time>2026-03-29T16:56:34.999Z</time></trkpt><trkpt lat="41.85363517142394" lon="12.597375001332892"><ele>63.0</ele><time>2026-03-29T16:56:35.999Z</time></trkpt><trkpt lat="41.853396423809336" lon="12.59730297532972"><ele>66.0</ele><time>2026-03-29T16:56:36.999Z</time></trkpt><trkpt lat="41.853157500808265" lon="12.597230914702363"><ele>69.0</ele><time>2026-03-29T16:56:37.999Z</time></trkpt><trkpt lat="41.852915437042824" lon="12.59715832658364"><ele>69.0</ele><time>2026-03-29T16:56:38.999Z</time></trkpt><trkpt lat="41.8526731566534" lon="12.597094535197053"><ele>69.0</ele><time>2026-03-29T16:56:39.999Z</time></trkpt><trkpt lat="41.85243269361353" lon="12.597017698332612"><ele>67.5</ele><time>2026-03-29T16:56:40.999Z</time></trkpt><trkpt lat="41.85219170826218" lon="12.596945789356202"><ele>66.0</ele><time>2026-03-29T16:56:41.999Z</time></trkpt><trkpt lat="41.85194826440775" lon="12.59687078345783"><ele>66.0</ele><time>2026-03-29T16:56:42.999Z</time></trkpt><trkpt lat="41.85170258518759" lon="12.596796060196205"><ele>66.0</ele><time>2026-03-29T16:56:43.999Z</time></trkpt><trkpt lat="41.85145760145958" lon="12.596723366868302"><ele>66.0</ele><time>2026-03-29T16:56:44.999Z</time></trkpt><trkpt lat="41.8512097674315" lon="12.596654666371604"><ele>66.0</ele><time>2026-03-29T16:56:45.999Z</time></trkpt><trkpt lat="41.85096357255188" lon="12.5965868405131"><ele>65.5</ele><time>2026-03-29T16:56:46.999Z</time></trkpt><trkpt lat="41.850721864574425" lon="12.596520386957689"><ele>65.0</ele><time>2026-03-29T16:56:47.999Z</time></trkpt><trkpt lat="41.850493030196" lon="12.596452684596626"><ele>65.0</ele><time>2026-03-29T16:56:48.999Z</time></trkpt><trkpt lat="41.85027817325341" lon="12.596390762995313"><ele>65.0</ele><time>2026-03-29T16:56:49.999Z</time></trkpt><trkpt lat="41.85007438731477" lon="12.596331371041853"><ele>65.0</ele><time>2026-03-29T16:56:50.999Z</time></trkpt><trkpt lat="41.84987125336548" lon="12.596270879703205"><ele>66.0</ele><time>2026-03-29T16:56:51.999Z</time></trkpt><trkpt lat="41.849679496421246" lon="12.59621245253821"><ele>67.0</ele><time>2026-03-29T16:56:52.999Z</time></trkpt><trkpt lat="41.84950130851368" lon="12.596156955516573"><ele>68.0</ele><time>2026-03-29T16:56:53.999Z</time></trkpt><trkpt lat="41.849333098354926" lon="12.59610715954898"><ele>69.0</ele><time>2026-03-29T16:56:54.999Z</time></trkpt><trkpt lat="41.849170586403204" lon="12.596065446569375"><ele>70.0</ele><time>2026-03-29T16:56:55.999Z</time></trkpt><trkpt lat="41.84901352577933" lon="12.59603335393131"><ele>71.0</ele><time>2026-03-29T16:56:56.999Z</time></trkpt><trkpt lat="41.84888240285678" lon="12.595997083564287"><ele>71.0</ele><time>2026-03-29T16:56:57.999Z</time></trkpt><trkpt lat="41.84877531867439" lon="12.595965792007018"><ele>71.0</ele><time>2026-03-29T16:56:58.999Z</time></trkpt><trkpt lat="41.84867983793664" lon="12.595942307659534"><ele>71.0</ele><time>2026-03-29T16:56:59.999Z</time></trkpt><trkpt lat="41.84859305276435" lon="12.595919703373562"><ele>71.0</ele><time>2026-03-29T16:57:00.999Z</time></trkpt><trkpt lat="41.84850482585818" lon="12.595901310799388"><ele>71.0</ele><time>2026-03-29T16:57:01.999Z</time></trkpt><trkpt lat="41.84839667361991" lon="12.595856490012345"><ele>70.6</ele><time>2026-03-29T16:57:02.999Z</time></trkpt><trkpt lat="41.84829732019467" lon="12.595799596333798"><ele>70.19999999999999</ele><time>2026-03-29T16:57:03.999Z</time></trkpt><trkpt lat="41.84823689698208" lon="12.595755387644774"><ele>69.80000000000001</ele><time>2026-03-29T16:57:04.999Z</time></trkpt><trkpt lat="41.84808150830997" lon="12.595675807062939"><ele>69.4</ele><time>2026-03-29T16:57:06.999Z</time></trkpt><trkpt lat="41.848004632618185" lon="12.595642933742775"><ele>69.0</ele><time>2026-03-29T16:57:07.999Z</time></trkpt><trkpt lat="41.847848316416325" lon="12.595598238205707"><ele>69.0</ele><time>2026-03-29T16:57:09.999Z</time></trkpt><trkpt lat="41.84776097113688" lon="12.59556267376946"><ele>69.0</ele><time>2026-03-29T16:57:10.999Z</time></trkpt><trkpt lat="41.84766815353177" lon="12.595520528723279"><ele>69.0</ele><time>2026-03-29T16:57:11.999Z</time></trkpt><trkpt lat="41.847568440896616" lon="12.595475446927907"><ele>69.0</ele><time>2026-03-29T16:57:12.999Z</time></trkpt><trkpt lat="41.84746822471306" lon="12.595433541653357"><ele>69.0</ele><time>2026-03-29T16:57:13.999Z</time></trkpt><trkpt lat="41.83639076136272" lon="12.589340132458126"><ele>70.5</ele><time>2026-03-29T16:58:14.999Z</time></trkpt><trkpt lat="41.83617462564346" lon="12.589210568175424"><ele>72.0</ele><time>2026-03-29T16:58:15.999Z</time></trkpt><trkpt lat="41.83594872502915" lon="12.589071468614499"><ele>73.0</ele><time>2026-03-29T16:58:16.999Z</time></trkpt><trkpt lat="41.83573442909775" lon="12.58892844719299"><ele>74.0</ele><time>2026-03-29T16:58:17.999Z</time></trkpt><trkpt lat="41.83554042309952" lon="12.588784980020492"><ele>73.66666666666667</ele><time>2026-03-29T16:58:18.999Z</time></trkpt><trkpt lat="41.835369521509136" lon="12.588650050597721"><ele>73.33333333333333</ele><time>2026-03-29T16:58:19.999Z</time></trkpt><trkpt lat="41.83521405706819" lon="12.588517883625636"><ele>73.0</ele><time>2026-03-29T16:58:20.999Z</time></trkpt><trkpt lat="41.835069317587795" lon="12.58838700400528"><ele>73.0</ele><time>2026-03-29T16:58:21.999Z</time></trkpt><trkpt lat="41.834929166683054" lon="12.58825064767328"><ele>73.0</ele><time>2026-03-29T16:58:22.999Z</time></trkpt><trkpt lat="41.83480057856287" lon="12.588111336853096"><ele>73.0</ele><time>2026-03-29T16:58:23.999Z</time></trkpt><trkpt lat="41.834675750382985" lon="12.587970772003441"><ele>72.66666666666666</ele><time>2026-03-29T16:58:24.999Z</time></trkpt><trkpt lat="41.83455132355396" lon="12.587828213961654"><ele>72.33333333333333</ele><time>2026-03-29T16:58:25.999Z</time></trkpt><trkpt lat="41.83441777563059" lon="12.587678237227891"><ele>72.0</ele><time>2026-03-29T16:58:26.999Z</time></trkpt><trkpt lat="41.83427872563021" lon="12.587514547281748"><ele>71.66666666666667</ele><time>2026-03-29T16:58:27.999Z</time></trkpt><trkpt lat="41.83414168878961" lon="12.587339584517464"><ele>71.33333333333334</ele><time>2026-03-29T16:58:28.999Z</time></trkpt><trkpt lat="41.83401807301165" lon="12.58717347640831"><ele>71.0</ele><time>2026-03-29T16:58:29.999Z</time></trkpt><trkpt lat="41.83391976819805" lon="12.587031621349704"><ele>71.0</ele><time>2026-03-29T16:58:30.999Z</time></trkpt><trkpt lat="41.833833289126304" lon="12.586904550470964"><ele>71.0</ele><time>2026-03-29T16:58:31.999Z</time></trkpt><trkpt lat="41.83374733684047" lon="12.58676692984722"><ele>71.0</ele><time>2026-03-29T16:58:32.999Z</time></trkpt><trkpt lat="41.83364525473034" lon="12.58660171856982"><ele>71.0</ele><time>2026-03-29T16:58:33.999Z</time></trkpt><trkpt lat="41.8335296619035" lon="12.586424109858426"><ele>71.33333333333334</ele><time>2026-03-29T16:58:34.999Z</time></trkpt><trkpt lat="41.833418577987594" lon="12.586248044205478"><ele>71.66666666666667</ele><time>2026-03-29T16:58:35.999Z</time></trkpt><trkpt lat="41.833311691422516" lon="12.586102529227023"><ele>72.0</ele><time>2026-03-29T16:58:36.999Z</time></trkpt><trkpt lat="41.83322192592099" lon="12.585973689978086"><ele>72.0</ele><time>2026-03-29T16:58:37.999Z</time></trkpt><trkpt lat="41.833123419694175" lon="12.585817819274231"><ele>72.0</ele><time>2026-03-29T16:58:38.999Z</time></trkpt><trkpt lat="41.83301599053177" lon="12.58562749827721"><ele>72.0</ele><time>2026-03-29T16:58:39.999Z</time></trkpt><trkpt lat="41.832890251016536" lon="12.585411413715434"><ele>72.33333333333333</ele><time>2026-03-29T16:58:40.999Z</time></trkpt><trkpt lat="41.832744863299226" lon="12.585193697784124"><ele>72.66666666666666</ele><time>2026-03-29T16:58:41.999Z</time></trkpt><trkpt lat="41.83259000167132" lon="12.584978779314273"><ele>73.0</ele><time>2026-03-29T16:58:42.999Z</time></trkpt><trkpt lat="41.83242218572484" lon="12.584752518652248"><ele>74.5</ele><time>2026-03-29T16:58:43.999Z</time></trkpt><trkpt lat="41.83223770387152" lon="12.584527132949704"><ele>76.0</ele><time>2026-03-29T16:58:44.999Z</time></trkpt><trkpt lat="41.83204523537368" lon="12.584319491866953"><ele>76.0</ele><time>2026-03-29T16:58:45.999Z</time></trkpt><trkpt lat="41.83184629683" lon="12.584120053216862"><ele>76.0</ele><time>2026-03-29T16:58:46.999Z</time></trkpt><trkpt lat="41.831647881894696" lon="12.58393103497608"><ele>76.5</ele><time>2026-03-29T16:58:47.999Z</time></trkpt><trkpt lat="41.831450491211605" lon="12.583759729426955"><ele>77.0</ele><time>2026-03-29T16:58:48.999Z</time></trkpt><trkpt lat="41.83125434457186" lon="12.583606278477804"><ele>77.66666666666667</ele><time>2026-03-29T16:58:49.999Z</time></trkpt><trkpt lat="41.83109027235325" lon="12.583491347092615"><ele>78.33333333333333</ele><time>2026-03-29T16:58:50.999Z</time></trkpt><trkpt lat="41.830952276033535" lon="12.583407723342724"><ele>79.0</ele><time>2026-03-29T16:58:51.999Z</time></trkpt><trkpt lat="41.83081368867825" lon="12.583335548820683"><ele>79.0</ele><time>2026-03-29T16:58:52.999Z</time></trkpt><trkpt lat="41.83066268977003" lon="12.583262354515426"><ele>79.0</ele><time>2026-03-29T16:58:53.999Z</time></trkpt><trkpt lat="41.830493681352564" lon="12.583167748478953"><ele>79.0</ele><time>2026-03-29T16:58:54.999Z</time></trkpt><trkpt lat="41.830310604479386" lon="12.583054016432696"><ele>79.0</ele><time>2026-03-29T16:58:55.999Z</time></trkpt><trkpt lat="41.83011961321273" lon="12.582943572359799"><ele>79.0</ele><time>2026-03-29T16:58:56.999Z</time></trkpt><trkpt lat="41.82992687977719" lon="12.582832713122732"><ele>79.0</ele><time>2026-03-29T16:58:57.999Z</time></trkpt><trkpt lat="41.829730449718674" lon="12.582713731243409"><ele>78.66666666666666</ele><time>2026-03-29T16:58:58.999Z</time></trkpt><trkpt lat="41.829541209975886" lon="12.582601753886188"><ele>78.33333333333333</ele><time>2026-03-29T16:58:59.999Z</time></trkpt><trkpt lat="41.82936241057551" lon="12.582503766063553"><ele>78.0</ele><time>2026-03-29T16:59:00.999Z</time></trkpt><trkpt lat="41.82918976010892" lon="12.58239423742744"><ele>78.0</ele><time>2026-03-29T16:59:01.999Z</time></trkpt><trkpt lat="41.82901473593149" lon="12.5822810571141"><ele>78.0</ele><time>2026-03-29T16:59:02.999Z</time></trkpt><trkpt lat="41.82883237289312" lon="12.582182023289807"><ele>78.0</ele><time>2026-03-29T16:59:03.999Z</time></trkpt><trkpt lat="41.828639435659156" lon="12.58206775125661"><ele>76.5</ele><time>2026-03-29T16:59:04.999Z</time></trkpt><trkpt lat="41.82843022787999" lon="12.581930199230959"><ele>75.0</ele><time>2026-03-29T16:59:05.999Z</time></trkpt><trkpt lat="41.82820264279879" lon="12.581789434234807"><ele>75.0</ele><time>2026-03-29T16:59:06.999Z</time></trkpt><trkpt lat="41.82799073166307" lon="12.581664223751124"><ele>75.0</ele><time>2026-03-29T16:59:07.999Z</time></trkpt><trkpt lat="41.82778844019802" lon="12.581548813893663"><ele>76.33333333333333</ele><time>2026-03-29T16:59:08.999Z</time></trkpt><trkpt lat="41.82758315023994" lon="12.581443430222562"><ele>77.66666666666666</ele><time>2026-03-29T16:59:09.999Z</time></trkpt><trkpt lat="41.82737782820653" lon="12.581351501667067"><ele>79.0</ele><time>2026-03-29T16:59:10.999Z</time></trkpt><trkpt lat="41.82717352741008" lon="12.581271378985631"><ele>79.0</ele><time>2026-03-29T16:59:11.999Z</time></trkpt><trkpt lat="41.82696788288332" lon="12.581202379930547"><ele>79.0</ele><time>2026-03-29T16:59:12.999Z</time></trkpt><trkpt lat="41.826758911318386" lon="12.581136231068342"><ele>79.0</ele><time>2026-03-29T16:59:13.999Z</time></trkpt><trkpt lat="41.814695012559916" lon="12.574974474834619"><ele>80.5</ele><time>2026-03-29T17:00:15Z</time></trkpt><trkpt lat="41.8145646021931" lon="12.57486446503731"><ele>82.0</ele><time>2026-03-29T17:00:16Z</time></trkpt><trkpt lat="41.81445723714259" lon="12.574751338804083"><ele>83.5</ele><time>2026-03-29T17:00:17Z</time></trkpt><trkpt lat="41.814372598435334" lon="12.574645487222586"><ele>85.0</ele><time>2026-03-29T17:00:18Z</time></trkpt><trkpt lat="41.81429674256616" lon="12.574526248756518"><ele>85.5</ele><time>2026-03-29T17:00:19Z</time></trkpt><trkpt lat="41.814230122214546" lon="12.574388572361428"><ele>86.0</ele><time>2026-03-29T17:00:20Z</time></trkpt><trkpt lat="41.81418042094368" lon="12.574231847037291"><ele>86.5</ele><time>2026-03-29T17:00:21Z</time></trkpt><trkpt lat="41.81415756769531" lon="12.574059449695703"><ele>87.0</ele><time>2026-03-29T17:00:22Z</time></trkpt><trkpt lat="41.814171166845995" lon="12.573876669948811"><ele>87.0</ele><time>2026-03-29T17:00:23Z</time></trkpt><trkpt lat="41.81420981286338" lon="12.573709358574693"><ele>87.0</ele><time>2026-03-29T17:00:24Z</time></trkpt><trkpt lat="41.81425833449816" lon="12.573581110064424"><ele>87.0</ele><time>2026-03-29T17:00:25Z</time></trkpt><trkpt lat="41.814303456267155" lon="12.573465801203414"><ele>87.0</ele><time>2026-03-29T17:00:26Z</time></trkpt><trkpt lat="41.81435043066036" lon="12.573344863046932"><ele>87.0</ele><time>2026-03-29T17:00:27Z</time></trkpt><trkpt lat="41.814389072577825" lon="12.573207267692483"><ele>86.8</ele><time>2026-03-29T17:00:28Z</time></trkpt><trkpt lat="41.81443995358756" lon="12.57312731956954"><ele>86.6</ele><time>2026-03-29T17:00:29Z</time></trkpt><trkpt lat="41.81449430410984" lon="12.57302142128512"><ele>86.39999999999999</ele><time>2026-03-29T17:00:30Z</time></trkpt><trkpt lat="41.814545723062714" lon="12.572914415432024"><ele>86.19999999999999</ele><time>2026-03-29T17:00:31Z</time></trkpt><trkpt lat="41.814602822530794" lon="12.572802614847006"><ele>86.0</ele><time>2026-03-29T17:00:31.999Z</time></trkpt><trkpt lat="41.814666007437545" lon="12.572688241186034"><ele>86.0</ele><time>2026-03-29T17:00:32.999Z</time></trkpt><trkpt lat="41.81474203408699" lon="12.572550736921286"><ele>86.0</ele><time>2026-03-29T17:00:33.999Z</time></trkpt><trkpt lat="41.814820747837715" lon="12.572403386550937"><ele>86.0</ele><time>2026-03-29T17:00:34.999Z</time></trkpt><trkpt lat="41.81491576881878" lon="12.572228717032727"><ele>86.0</ele><time>2026-03-29T17:00:35.999Z</time></trkpt><trkpt lat="41.815010472409526" lon="12.572041608483344"><ele>86.0</ele><time>2026-03-29T17:00:36.999Z</time></trkpt><trkpt lat="41.81507403871048" lon="12.571905235139576"><ele>86.0</ele><time>2026-03-29T17:00:37.999Z</time></trkpt><trkpt lat="41.815115806552214" lon="12.571805619536441"><ele>86.0</ele><time>2026-03-29T17:00:38.999Z</time></trkpt><trkpt lat="41.815160583461754" lon="12.571689497879714"><ele>86.0</ele><time>2026-03-29T17:00:39.999Z</time></trkpt><trkpt lat="41.81521388663801" lon="12.571532040176862"><ele>86.0</ele><time>2026-03-29T17:00:40.999Z</time></trkpt><trkpt lat="41.815249326958025" lon="12.571357892308233"><ele>86.0</ele><time>2026-03-29T17:00:41.999Z</time></trkpt><trkpt lat="41.815241530777556" lon="12.571212627292594"><ele>86.0</ele><time>2026-03-29T17:00:42.999Z</time></trkpt><trkpt lat="41.81520108858866" lon="12.571100798292285"><ele>86.0</ele><time>2026-03-29T17:00:43.999Z</time></trkpt><trkpt lat="41.815137733987804" lon="12.5710058952951"><ele>86.0</ele><time>2026-03-29T17:00:44.999Z</time></trkpt><trkpt lat="41.815049233723656" lon="12.570901715704712"><ele>86.0</ele><time>2026-03-29T17:00:45.999Z</time></trkpt><trkpt lat="41.814938163569124" lon="12.570835486892618"><ele>85.75</ele><time>2026-03-29T17:00:46.999Z</time></trkpt><trkpt lat="41.81480922402026" lon="12.570820960898422"><ele>85.5</ele><time>2026-03-29T17:00:47.999Z</time></trkpt><trkpt lat="41.81467846204391" lon="12.57085364064158"><ele>85.25</ele><time>2026-03-29T17:00:48.999Z</time></trkpt><trkpt lat="41.814559674622004" lon="12.57093365397188"><ele>85.0</ele><time>2026-03-29T17:00:49.999Z</time></trkpt><trkpt lat="41.81445202889377" lon="12.571040832379886"><ele>85.0</ele><time>2026-03-29T17:00:50.999Z</time></trkpt><trkpt lat="41.81433335632993" lon="12.57114153076583"><ele>85.0</ele><time>2026-03-29T17:00:51.999Z</time></trkpt><trkpt lat="41.814196161604094" lon="12.571250396564354"><ele>85.0</ele><time>2026-03-29T17:00:52.999Z</time></trkpt><trkpt lat="41.814061532351346" lon="12.5713542084063"><ele>85.75</ele><time>2026-03-29T17:00:53.999Z</time></trkpt><trkpt lat="41.81393634381315" lon="12.571462124550402"><ele>86.5</ele><time>2026-03-29T17:00:54.999Z</time></trkpt><trkpt lat="41.813822196130175" lon="12.571570890229246"><ele>87.25</ele><time>2026-03-29T17:00:55.999Z</time></trkpt><trkpt lat="41.8137000426523" lon="12.571707283175908"><ele>88.0</ele><time>2026-03-29T17:00:56.999Z</time></trkpt><trkpt lat="41.813547251149124" lon="12.571863830334914"><ele>87.66666666666666</ele><time>2026-03-29T17:00:57.999Z</time></trkpt><trkpt lat="41.81340477202761" lon="12.571986311024903"><ele>87.33333333333333</ele><time>2026-03-29T17:00:58.999Z</time></trkpt><trkpt lat="41.81327242003752" lon="12.572093559496409"><ele>87.0</ele><time>2026-03-29T17:00:59.999Z</time></trkpt><trkpt lat="41.81315070042962" lon="12.572197550731918"><ele>86.5</ele><time>2026-03-29T17:01:00.999Z</time></trkpt><trkpt lat="41.81303283440912" lon="12.572296913638079"><ele>86.0</ele><time>2026-03-29T17:01:01.999Z</time></trkpt><trkpt lat="41.81291426726625" lon="12.572396540387448"><ele>85.5</ele><time>2026-03-29T17:01:02.999Z</time></trkpt><trkpt lat="41.812797313899345" lon="12.572497404887715"><ele>85.0</ele><time>2026-03-29T17:01:03.999Z</time></trkpt><trkpt lat="41.812678144618964" lon="12.572594531336145"><ele>84.5</ele><time>2026-03-29T17:01:04.999Z</time></trkpt><trkpt lat="41.81255695976825" lon="12.572686631259323"><ele>84.0</ele><time>2026-03-29T17:01:05.999Z</time></trkpt><trkpt lat="41.812448059755056" lon="12.572771162631174"><ele>83.5</ele><time>2026-03-29T17:01:06.999Z</time></trkpt><trkpt lat="41.81234616392637" lon="12.572856785006692"><ele>83.0</ele><time>2026-03-29T17:01:07.999Z</time></trkpt><trkpt lat="41.81225336226497" lon="12.57294420828429"><ele>84.0</ele><time>2026-03-29T17:01:08.999Z</time></trkpt><trkpt lat="41.81216124516489" lon="12.573031613072018"><ele>85.0</ele><time>2026-03-29T17:01:09.999Z</time></trkpt><trkpt lat="41.81206934755479" lon="12.573119152056975"><ele>86.0</ele><time>2026-03-29T17:01:10.999Z</time></trkpt><trkpt lat="41.81196680975661" lon="12.573212498740395"><ele>87.0</ele><time>2026-03-29T17:01:11.999Z</time></trkpt><trkpt lat="41.81186198862869" lon="12.573298936608534"><ele>88.0</ele><time>2026-03-29T17:01:12.999Z</time></trkpt><trkpt lat="41.81175467084068" lon="12.573383681702381"><ele>89.0</ele><time>2026-03-29T17:01:13.999Z</time></trkpt><trkpt lat="41.80054961878947" lon="12.583726869683582"><ele>99.0</ele><time>2026-03-29T17:02:15Z</time></trkpt><trkpt lat="41.8003571229398" lon="12.583922008117721"><ele>109.0</ele><time>2026-03-29T17:02:16Z</time></trkpt><trkpt lat="41.80017004634802" lon="12.584125785481046"><ele>109.0</ele><time>2026-03-29T17:02:17Z</time></trkpt><trkpt lat="41.79998319137073" lon="12.584330155963206"><ele>109.0</ele><time>2026-03-29T17:02:18Z</time></trkpt><trkpt lat="41.79979308925228" lon="12.58452805079971"><ele>109.0</ele><time>2026-03-29T17:02:19Z</time></trkpt><trkpt lat="41.799602446664174" lon="12.58472129536914"><ele>109.0</ele><time>2026-03-29T17:02:20Z</time></trkpt><trkpt lat="41.79940958999118" lon="12.584911131774529"><ele>108.0</ele><time>2026-03-29T17:02:21Z</time></trkpt><trkpt lat="41.79921676284683" lon="12.585101990410724"><ele>107.0</ele><time>2026-03-29T17:02:22Z</time></trkpt><trkpt lat="41.79902502102516" lon="12.58530055389384"><ele>108.0</ele><time>2026-03-29T17:02:23Z</time></trkpt><trkpt lat="41.79883224606296" lon="12.585506100454417"><ele>109.0</ele><time>2026-03-29T17:02:24Z</time></trkpt><trkpt lat="41.79863861263379" lon="12.585716986521064"><ele>109.0</ele><time>2026-03-29T17:02:25Z</time></trkpt><trkpt lat="41.798443914096616" lon="12.585932175657767"><ele>109.0</ele><time>2026-03-29T17:02:26Z</time></trkpt><trkpt lat="41.79824774593937" lon="12.586148682756711"><ele>110.0</ele><time>2026-03-29T17:02:27Z</time></trkpt><trkpt lat="41.79805060787736" lon="12.58636585657261"><ele>111.0</ele><time>2026-03-29T17:02:28Z</time></trkpt><trkpt lat="41.797849616887966" lon="12.586583749940136"><ele>110.5</ele><time>2026-03-29T17:02:29Z</time></trkpt><trkpt lat="41.797644289795734" lon="12.586803442793002"><ele>110.0</ele><time>2026-03-29T17:02:30Z</time></trkpt><trkpt lat="41.797444864394066" lon="12.587021627078824"><ele>111.0</ele><time>2026-03-29T17:02:31Z</time></trkpt><trkpt lat="41.79724419295363" lon="12.587240622741074"><ele>112.0</ele><time>2026-03-29T17:02:32Z</time></trkpt><trkpt lat="41.79703836136601" lon="12.587465223661003"><ele>111.5</ele><time>2026-03-29T17:02:33Z</time></trkpt><trkpt lat="41.79683337650373" lon="12.587687449907405"><ele>111.0</ele><time>2026-03-29T17:02:34Z</time></trkpt><trkpt lat="41.796618780040674" lon="12.587902201852732"><ele>111.0</ele><time>2026-03-29T17:02:34.999Z</time></trkpt><trkpt lat="41.79641903138344" lon="12.588145130718273"><ele>111.0</ele><time>2026-03-29T17:02:35.999Z</time></trkpt><trkpt lat="41.796199757885084" lon="12.588360621748974"><ele>111.5</ele><time>2026-03-29T17:02:36.999Z</time></trkpt><trkpt lat="41.79598711566623" lon="12.588578941724185"><ele>112.0</ele><time>2026-03-29T17:02:37.999Z</time></trkpt><trkpt lat="41.79577090003666" lon="12.588797629846725"><ele>112.0</ele><time>2026-03-29T17:02:38.999Z</time></trkpt><trkpt lat="41.795569087062084" lon="12.589016344730156"><ele>112.0</ele><time>2026-03-29T17:02:39.999Z</time></trkpt><trkpt lat="41.79536780504367" lon="12.589222955712"><ele>112.0</ele><time>2026-03-29T17:02:40.999Z</time></trkpt><trkpt lat="41.79517161103022" lon="12.589427107313275"><ele>112.0</ele><time>2026-03-29T17:02:41.999Z</time></trkpt><trkpt lat="41.794977266511374" lon="12.589635191646506"><ele>114.0</ele><time>2026-03-29T17:02:42.999Z</time></trkpt><trkpt lat="41.79478266606038" lon="12.589845269352615"><ele>116.0</ele><time>2026-03-29T17:02:43.999Z</time></trkpt><trkpt lat="41.794585866006045" lon="12.590062058258843"><ele>116.0</ele><time>2026-03-29T17:02:44.999Z</time></trkpt><trkpt lat="41.79438866921875" lon="12.590281672476408"><ele>116.0</ele><time>2026-03-29T17:02:45.999Z</time></trkpt><trkpt lat="41.79418830961196" lon="12.590503669427601"><ele>117.0</ele><time>2026-03-29T17:02:46.999Z</time></trkpt><trkpt lat="41.793987083778816" lon="12.590724409222068"><ele>118.0</ele><time>2026-03-29T17:02:47.999Z</time></trkpt><trkpt lat="41.793780242860194" lon="12.590938612893734"><ele>118.0</ele><time>2026-03-29T17:02:48.999Z</time></trkpt><trkpt lat="41.793570876912" lon="12.591150823561556"><ele>118.0</ele><time>2026-03-29T17:02:49.999Z</time></trkpt><trkpt lat="41.79335587602848" lon="12.591357109986323"><ele>119.5</ele><time>2026-03-29T17:02:50.999Z</time></trkpt><trkpt lat="41.79313748832428" lon="12.591564144682101"><ele>121.0</ele><time>2026-03-29T17:02:51.999Z</time></trkpt><trkpt lat="41.79291873525267" lon="12.591769147388202"><ele>121.0</ele><time>2026-03-29T17:02:52.999Z</time></trkpt><trkpt lat="41.792699783531354" lon="12.591971690453143"><ele>121.0</ele><time>2026-03-29T17:02:53.999Z</time></trkpt><trkpt lat="41.792479549294335" lon="12.592171319020597"><ele>121.0</ele><time>2026-03-29T17:02:54.999Z</time></trkpt><trkpt lat="41.792264822878295" lon="12.592365452137587"><ele>121.0</ele><time>2026-03-29T17:02:55.999Z</time></trkpt><trkpt lat="41.792051591067114" lon="12.59256234396129"><ele>121.0</ele><time>2026-03-29T17:02:56.999Z</time></trkpt><trkpt lat="41.79184241074474" lon="12.592764887680731"><ele>121.0</ele><time>2026-03-29T17:02:57.999Z</time></trkpt><trkpt lat="41.79163737311674" lon="12.592976276730859"><ele>122.5</ele><time>2026-03-29T17:02:58.999Z</time></trkpt><trkpt lat="41.791433240033" lon="12.593201566662087"><ele>124.0</ele><time>2026-03-29T17:02:59.999Z</time></trkpt><trkpt lat="41.791236677744564" lon="12.5934254487086"><ele>124.0</ele><time>2026-03-29T17:03:00.999Z</time></trkpt><trkpt lat="41.79103937363207" lon="12.593649072624784"><ele>124.0</ele><time>2026-03-29T17:03:01.999Z</time></trkpt><trkpt lat="41.790841348583534" lon="12.593866783844874"><ele>124.0</ele><time>2026-03-29T17:03:02.999Z</time></trkpt><trkpt lat="41.79063935648417" lon="12.594078757699886"><ele>124.0</ele><time>2026-03-29T17:03:03.999Z</time></trkpt><trkpt lat="41.79043999244125" lon="12.59428190461874"><ele>124.0</ele><time>2026-03-29T17:03:04.999Z</time></trkpt><trkpt lat="41.79023498374272" lon="12.594477743066992"><ele>124.0</ele><time>2026-03-29T17:03:05.999Z</time></trkpt><trkpt lat="41.79002530037067" lon="12.59466511777032"><ele>123.5</ele><time>2026-03-29T17:03:06.999Z</time></trkpt><trkpt lat="41.78981374882357" lon="12.594850260514628"><ele>123.0</ele><time>2026-03-29T17:03:07.999Z</time></trkpt><trkpt lat="41.78960263803589" lon="12.595037934276919"><ele>123.0</ele><time>2026-03-29T17:03:08.999Z</time></trkpt><trkpt lat="41.789397200509775" lon="12.595222614949147"><ele>123.0</ele><time>2026-03-29T17:03:09.999Z</time></trkpt><trkpt lat="41.789188206663226" lon="12.595412150773875"><ele>124.5</ele><time>2026-03-29T17:03:10.999Z</time></trkpt><trkpt lat="41.78898015032021" lon="12.595600388367084"><ele>126.0</ele><time>2026-03-29T17:03:11.999Z</time></trkpt><trkpt lat="41.78876150988742" lon="12.595794399678203"><ele>126.0</ele><time>2026-03-29T17:03:12.999Z</time></trkpt><trkpt lat="41.788528171641374" lon="12.596003215390349"><ele>126.0</ele><time>2026-03-29T17:03:13.999Z</time></trkpt><trkpt lat="41.780700279733956" lon="12.603350466255726"><ele>127.75</ele><time>2026-03-29T17:04:14.998Z</time></trkpt><trkpt lat="41.78059280809872" lon="12.603453557646699"><ele>129.5</ele><time>2026-03-29T17:04:15.998Z</time></trkpt><trkpt lat="41.780479976613655" lon="12.603559542195265"><ele>131.25</ele><time>2026-03-29T17:04:16.998Z</time></trkpt><trkpt lat="41.78035983460487" lon="12.603671436338221"><ele>133.0</ele><time>2026-03-29T17:04:17.998Z</time></trkpt><trkpt lat="41.7802311879589" lon="12.603786605994793"><ele>133.66666666666669</ele><time>2026-03-29T17:04:18.998Z</time></trkpt><trkpt lat="41.78009586046641" lon="12.603904281824908"><ele>134.33333333333334</ele><time>2026-03-29T17:04:19.998Z</time></trkpt><trkpt lat="41.77995290701958" lon="12.604025213486418"><ele>135.0</ele><time>2026-03-29T17:04:21Z</time></trkpt><trkpt lat="41.77980140612658" lon="12.604159195370642"><ele>135.0</ele><time>2026-03-29T17:04:22Z</time></trkpt><trkpt lat="41.77963939615485" lon="12.604299968886025"><ele>135.0</ele><time>2026-03-29T17:04:23Z</time></trkpt><trkpt lat="41.779474650357145" lon="12.60443973031941"><ele>135.0</ele><time>2026-03-29T17:04:24Z</time></trkpt><trkpt lat="41.779298124924296" lon="12.604589750759565"><ele>135.33333333333334</ele><time>2026-03-29T17:04:25Z</time></trkpt><trkpt lat="41.77911665777881" lon="12.604745167817487"><ele>135.66666666666669</ele><time>2026-03-29T17:04:26Z</time></trkpt><trkpt lat="41.77893302839865" lon="12.60490420250208"><ele>136.0</ele><time>2026-03-29T17:04:27Z</time></trkpt><trkpt lat="41.778748536031436" lon="12.605066268772026"><ele>136.0</ele><time>2026-03-29T17:04:28Z</time></trkpt><trkpt lat="41.77856930154262" lon="12.605221931129574"><ele>136.0</ele><time>2026-03-29T17:04:29Z</time></trkpt><trkpt lat="41.778395488808165" lon="12.6053735406313"><ele>136.0</ele><time>2026-03-29T17:04:30Z</time></trkpt><trkpt lat="41.778225220554425" lon="12.605523632383095"><ele>136.66666666666669</ele><time>2026-03-29T17:04:31Z</time></trkpt><trkpt lat="41.77805462259597" lon="12.605674819806087"><ele>137.33333333333334</ele><time>2026-03-29T17:04:32Z</time></trkpt><trkpt lat="41.77788281857488" lon="12.605824286930606"><ele>138.0</ele><time>2026-03-29T17:04:33Z</time></trkpt><trkpt lat="41.77770357358575" lon="12.605980753167811"><ele>138.66666666666666</ele><time>2026-03-29T17:04:34Z</time></trkpt><trkpt lat="41.77752065269634" lon="12.606138464646316"><ele>139.33333333333331</ele><time>2026-03-29T17:04:35Z</time></trkpt><trkpt lat="41.777346381624554" lon="12.606293652184746"><ele>140.0</ele><time>2026-03-29T17:04:36Z</time></trkpt><trkpt lat="41.77718912387054" lon="12.606442250458164"><ele>140.66666666666666</ele><time>2026-03-29T17:04:37Z</time></trkpt><trkpt lat="41.77704199061447" lon="12.606584830107405"><ele>141.33333333333334</ele><time>2026-03-29T17:04:38Z</time></trkpt><trkpt lat="41.77690709980434" lon="12.606718573603775"><ele>142.0</ele><time>2026-03-29T17:04:38.999Z</time></trkpt><trkpt lat="41.77677788733651" lon="12.606844091740742"><ele>142.25</ele><time>2026-03-29T17:04:39.999Z</time></trkpt><trkpt lat="41.77665491672414" lon="12.606962977639583"><ele>142.5</ele><time>2026-03-29T17:04:40.999Z</time></trkpt><trkpt lat="41.776540825503794" lon="12.607073471982773"><ele>142.75</ele><time>2026-03-29T17:04:41.999Z</time></trkpt><trkpt lat="41.77644117279737" lon="12.607174900292366"><ele>143.0</ele><time>2026-03-29T17:04:42.999Z</time></trkpt><trkpt lat="41.77635364251671" lon="12.607277010095904"><ele>143.0</ele><time>2026-03-29T17:04:43.999Z</time></trkpt><trkpt lat="41.776276708159884" lon="12.60737319555569"><ele>143.0</ele><time>2026-03-29T17:04:44.999Z</time></trkpt><trkpt lat="41.7762049042095" lon="12.607462152694687"><ele>143.0</ele><time>2026-03-29T17:04:45.999Z</time></trkpt><trkpt lat="41.77613616364056" lon="12.607543585692003"><ele>143.0</ele><time>2026-03-29T17:04:46.999Z</time></trkpt><trkpt lat="41.77607183043774" lon="12.607611919948347"><ele>143.0</ele><time>2026-03-29T17:04:47.999Z</time></trkpt><trkpt lat="41.77600319008628" lon="12.607681151560351"><ele>143.0</ele><time>2026-03-29T17:04:48.999Z</time></trkpt><trkpt lat="41.77593691702125" lon="12.607744094885089"><ele>143.0</ele><time>2026-03-29T17:04:49.999Z</time></trkpt><trkpt lat="41.775875234908" lon="12.607806725913296"><ele>143.0</ele><time>2026-03-29T17:04:50.999Z</time></trkpt><trkpt lat="41.77582137294185" lon="12.607862407437622"><ele>143.0</ele><time>2026-03-29T17:04:51.999Z</time></trkpt><trkpt lat="41.77571955172732" lon="12.607966512404156"><ele>143.0</ele><time>2026-03-29T17:04:53.999Z</time></trkpt><trkpt lat="41.775663950179066" lon="12.608026806604872"><ele>143.0</ele><time>2026-03-29T17:04:54.999Z</time></trkpt><trkpt lat="41.77559545005587" lon="12.608065117221106"><ele>143.0</ele><time>2026-03-29T17:04:55.999Z</time></trkpt><trkpt lat="41.77548447808106" lon="12.608167165618895"><ele>143.0</ele><time>2026-03-29T17:04:57.999Z</time></trkpt><trkpt lat="41.775417743965264" lon="12.608228686175059"><ele>143.0</ele><time>2026-03-29T17:04:58.999Z</time></trkpt><trkpt lat="41.77535149850662" lon="12.608317453664661"><ele>143.0</ele><time>2026-03-29T17:04:59.999Z</time></trkpt><trkpt lat="41.77526476650224" lon="12.608385931455388"><ele>143.0</ele><time>2026-03-29T17:05:00.999Z</time></trkpt><trkpt lat="41.77516032573406" lon="12.608470454282017"><ele>143.0</ele><time>2026-03-29T17:05:01.999Z</time></trkpt><trkpt lat="41.77506768078693" lon="12.6085600662403"><ele>143.0</ele><time>2026-03-29T17:05:02.999Z</time></trkpt><trkpt lat="41.77498287915708" lon="12.608644398252904"><ele>143.0</ele><time>2026-03-29T17:05:03.999Z</time></trkpt><trkpt lat="41.77489632157485" lon="12.608732339451603"><ele>143.0</ele><time>2026-03-29T17:05:04.999Z</time></trkpt><trkpt lat="41.77480491610151" lon="12.608831270913647"><ele>143.0</ele><time>2026-03-29T17:05:05.999Z</time></trkpt><trkpt lat="41.774696639020455" lon="12.608944021649704"><ele>143.66666666666666</ele><time>2026-03-29T17:05:06.999Z</time></trkpt><trkpt lat="41.774574411963535" lon="12.609074308255037"><ele>144.33333333333334</ele><time>2026-03-29T17:05:07.999Z</time></trkpt><trkpt lat="41.774439372653845" lon="12.609200204214353"><ele>145.0</ele><time>2026-03-29T17:05:08.999Z</time></trkpt><trkpt lat="41.774286914054194" lon="12.609349640333951"><ele>145.66666666666669</ele><time>2026-03-29T17:05:09.999Z</time></trkpt><trkpt lat="41.77412462708973" lon="12.609502027819653"><ele>146.33333333333334</ele><time>2026-03-29T17:05:10.999Z</time></trkpt><trkpt lat="41.77394166644835" lon="12.609668677571731"><ele>147.0</ele><time>2026-03-29T17:05:11.999Z</time></trkpt><trkpt lat="41.773770886975896" lon="12.609818869667707"><ele>147.0</ele><time>2026-03-29T17:05:12.999Z</time></trkpt><trkpt lat="41.77361953232258" lon="12.609968952627408"><ele>147.0</ele><time>2026-03-29T17:05:13.999Z</time></trkpt><trkpt lat="41.76430044778878" lon="12.616238321797164"><ele>160.0</ele><time>2026-03-29T17:06:14.998Z</time></trkpt><trkpt lat="41.76410354670835" lon="12.61622995213021"><ele>173.0</ele><time>2026-03-29T17:06:15.998Z</time></trkpt><trkpt lat="41.76391061585302" lon="12.616220475923436"><ele>186.0</ele><time>2026-03-29T17:06:16.998Z</time></trkpt><trkpt lat="41.763720392793275" lon="12.616215027006922"><ele>186.0</ele><time>2026-03-29T17:06:17.998Z</time></trkpt><trkpt lat="41.76353169456096" lon="12.61620992577677"><ele>186.0</ele><time>2026-03-29T17:06:18.998Z</time></trkpt><trkpt lat="41.76334490547016" lon="12.61620175482275"><ele>186.0</ele><time>2026-03-29T17:06:19.998Z</time></trkpt><trkpt lat="41.76315463738607" lon="12.616192082302014"><ele>187.33333333333334</ele><time>2026-03-29T17:06:20.998Z</time></trkpt><trkpt lat="41.76296623731059" lon="12.616185456577066"><ele>188.66666666666669</ele><time>2026-03-29T17:06:21.998Z</time></trkpt><trkpt lat="41.76278969699783" lon="12.616181767248015"><ele>190.0</ele><time>2026-03-29T17:06:22.998Z</time></trkpt><trkpt lat="41.76263046432388" lon="12.616182534142096"><ele>191.0</ele><time>2026-03-29T17:06:23.998Z</time></trkpt><trkpt lat="41.76247920850321" lon="12.616186312835415"><ele>192.0</ele><time>2026-03-29T17:06:24.998Z</time></trkpt><trkpt lat="41.762333807928464" lon="12.616189208443377"><ele>193.0</ele><time>2026-03-29T17:06:26Z</time></trkpt><trkpt lat="41.762189590307955" lon="12.616187989880139"><ele>194.0</ele><time>2026-03-29T17:06:27Z</time></trkpt><trkpt lat="41.7620385679423" lon="12.616182659778406"><ele>194.0</ele><time>2026-03-29T17:06:28Z</time></trkpt><trkpt lat="41.761877511936724" lon="12.616172763724915"><ele>194.0</ele><time>2026-03-29T17:06:29Z</time></trkpt><trkpt lat="41.76171286774986" lon="12.616164471877298"><ele>194.0</ele><time>2026-03-29T17:06:30Z</time></trkpt><trkpt lat="41.761546077561796" lon="12.616155167250705"><ele>194.66666666666669</ele><time>2026-03-29T17:06:31Z</time></trkpt><trkpt lat="41.761380124304125" lon="12.616149114237153"><ele>195.33333333333331</ele><time>2026-03-29T17:06:32Z</time></trkpt><trkpt lat="41.76122228818515" lon="12.616141564290636"><ele>196.0</ele><time>2026-03-29T17:06:33Z</time></trkpt><trkpt lat="41.76107532918333" lon="12.616132169394557"><ele>195.5</ele><time>2026-03-29T17:06:34Z</time></trkpt><trkpt lat="41.7609308928908" lon="12.616127858208824"><ele>195.0</ele><time>2026-03-29T17:06:35Z</time></trkpt><trkpt lat="41.76079306435052" lon="12.616124781970202"><ele>194.5</ele><time>2026-03-29T17:06:36Z</time></trkpt><trkpt lat="41.760631230469706" lon="12.61611984282359"><ele>194.0</ele><time>2026-03-29T17:06:37Z</time></trkpt><trkpt lat="41.760474073337875" lon="12.616113606756103"><ele>194.0</ele><time>2026-03-29T17:06:38Z</time></trkpt><trkpt lat="41.76032208612847" lon="12.616105885040326"><ele>194.0</ele><time>2026-03-29T17:06:39Z</time></trkpt><trkpt lat="41.760177734071064" lon="12.616100360617185"><ele>194.0</ele><time>2026-03-29T17:06:40Z</time></trkpt><trkpt lat="41.76004494786479" lon="12.616098887359676"><ele>194.0</ele><time>2026-03-29T17:06:41Z</time></trkpt><trkpt lat="41.75990419147381" lon="12.616099169764583"><ele>194.75</ele><time>2026-03-29T17:06:42Z</time></trkpt><trkpt lat="41.75975438751007" lon="12.616100295465253"><ele>195.5</ele><time>2026-03-29T17:06:42.999Z</time></trkpt><trkpt lat="41.759615064897545" lon="12.61609075503906"><ele>196.25</ele><time>2026-03-29T17:06:43.999Z</time></trkpt><trkpt lat="41.75948354886918" lon="12.616084566410684"><ele>197.0</ele><time>2026-03-29T17:06:44.999Z</time></trkpt><trkpt lat="41.75936726136307" lon="12.616076710774042"><ele>196.83333333333334</ele><time>2026-03-29T17:06:45.999Z</time></trkpt><trkpt lat="41.7592572783846" lon="12.616058937035673"><ele>196.66666666666669</ele><time>2026-03-29T17:06:46.999Z</time></trkpt><trkpt lat="41.759161328350146" lon="12.616088288906612"><ele>196.5</ele><time>2026-03-29T17:06:47.999Z</time></trkpt><trkpt lat="41.759077050924994" lon="12.616092685111681"><ele>196.33333333333331</ele><time>2026-03-29T17:06:48.999Z</time></trkpt><trkpt lat="41.75900605410671" lon="12.616095988189366"><ele>196.16666666666666</ele><time>2026-03-29T17:06:49.999Z</time></trkpt><trkpt lat="41.75893964420396" lon="12.616093579353505"><ele>196.0</ele><time>2026-03-29T17:06:50.999Z</time></trkpt><trkpt lat="41.758872905292435" lon="12.616085492099634"><ele>196.0</ele><time>2026-03-29T17:06:53.999Z</time></trkpt><trkpt lat="41.75879399072944" lon="12.616089578245667"><ele>196.0</ele><time>2026-03-29T17:06:58.999Z</time></trkpt><trkpt lat="41.758663326735764" lon="12.6160662845099"><ele>196.0</ele><time>2026-03-29T17:07:08.999Z</time></trkpt><trkpt lat="41.75855593231382" lon="12.616055097753689"><ele>196.0</ele><time>2026-03-29T17:07:09.999Z</time></trkpt><trkpt lat="41.75845899410924" lon="12.616049478396366"><ele>196.0</ele><time>2026-03-29T17:07:10.999Z</time></trkpt><trkpt lat="41.75835225490407" lon="12.616055907148615"><ele>195.33333333333331</ele><time>2026-03-29T17:07:11.999Z</time></trkpt><trkpt lat="41.75822150217333" lon="12.616058941121507"><ele>194.66666666666669</ele><time>2026-03-29T17:07:12.999Z</time></trkpt><trkpt lat="41.758078558917376" lon="12.616054047676737"><ele>194.0</ele><time>2026-03-29T17:07:13.999Z</time></trkpt><trkpt lat="41.74782531141288" lon="12.618616131379865"><ele>196.33333333333334</ele><time>2026-03-29T17:08:14.998Z</time></trkpt><trkpt lat="41.74762026342632" lon="12.618544560880002"><ele>198.66666666666669</ele><time>2026-03-29T17:08:15.998Z</time></trkpt><trkpt lat="41.74740903907209" lon="12.618475236314609"><ele>201.0</ele><time>2026-03-29T17:08:16.998Z</time></trkpt><trkpt lat="41.747196761203426" lon="12.61841018756934"><ele>201.0</ele><time>2026-03-29T17:08:17.998Z</time></trkpt><trkpt lat="41.7469863197455" lon="12.618360820756182"><ele>201.0</ele><time>2026-03-29T17:08:18.998Z</time></trkpt><trkpt lat="41.746775051936126" lon="12.61832800907563"><ele>201.0</ele><time>2026-03-29T17:08:19.998Z</time></trkpt><trkpt lat="41.74656953119422" lon="12.618308389984554"><ele>201.0</ele><time>2026-03-29T17:08:20.998Z</time></trkpt><trkpt lat="41.746367194284225" lon="12.618294215322335"><ele>201.0</ele><time>2026-03-29T17:08:21.998Z</time></trkpt><trkpt lat="41.746170193423744" lon="12.618282730422326"><ele>201.0</ele><time>2026-03-29T17:08:22.998Z</time></trkpt><trkpt lat="41.74599239944926" lon="12.61827644464864"><ele>201.0</ele><time>2026-03-29T17:08:23.998Z</time></trkpt><trkpt lat="41.7458370188207" lon="12.618276561159869"><ele>201.0</ele><time>2026-03-29T17:08:24.998Z</time></trkpt><trkpt lat="41.74569994466925" lon="12.618292340388168"><ele>201.0</ele><time>2026-03-29T17:08:25.998Z</time></trkpt><trkpt lat="41.74557989480806" lon="12.61832432587976"><ele>201.0</ele><time>2026-03-29T17:08:26.998Z</time></trkpt><trkpt lat="41.745482221473665" lon="12.618363643168445"><ele>201.0</ele><time>2026-03-29T17:08:27.998Z</time></trkpt><trkpt lat="41.74541072682322" lon="12.618401708958919"><ele>201.0</ele><time>2026-03-29T17:08:28.998Z</time></trkpt><trkpt lat="41.745333377463076" lon="12.618450294322429"><ele>201.0</ele><time>2026-03-29T17:08:30.998Z</time></trkpt><trkpt lat="41.745211982283244" lon="12.61852517249682"><ele>201.0</ele><time>2026-03-29T17:08:50.999Z</time></trkpt><trkpt lat="41.745138994481444" lon="12.618576724698915"><ele>201.0</ele><time>2026-03-29T17:08:51.999Z</time></trkpt><trkpt lat="41.745066258644265" lon="12.618626335999275"><ele>201.4</ele><time>2026-03-29T17:08:52.999Z</time></trkpt><trkpt lat="41.744995129558276" lon="12.618676610200485"><ele>201.8</ele><time>2026-03-29T17:08:53.999Z</time></trkpt><trkpt lat="41.74490678118751" lon="12.618724928622024"><ele>202.20000000000002</ele><time>2026-03-29T17:08:54.999Z</time></trkpt><trkpt lat="41.74480244470423" lon="12.618765214854823"><ele>202.60000000000002</ele><time>2026-03-29T17:08:55.999Z</time></trkpt><trkpt lat="41.744687597485715" lon="12.618812810137225"><ele>203.0</ele><time>2026-03-29T17:08:56.999Z</time></trkpt><trkpt lat="41.74456761270616" lon="12.618862154822843"><ele>203.0</ele><time>2026-03-29T17:08:57.999Z</time></trkpt><trkpt lat="41.74443722529211" lon="12.618909009118331"><ele>203.0</ele><time>2026-03-29T17:08:58.999Z</time></trkpt><trkpt lat="41.744295775743964" lon="12.61894457424432"><ele>203.0</ele><time>2026-03-29T17:08:59.999Z</time></trkpt><trkpt lat="41.744150355632264" lon="12.61894615584534"><ele>203.0</ele><time>2026-03-29T17:09:00.999Z</time></trkpt><trkpt lat="41.74399956450196" lon="12.618916343649383"><ele>203.0</ele><time>2026-03-29T17:09:01.999Z</time></trkpt><trkpt lat="41.74384968185322" lon="12.618859108100372"><ele>203.0</ele><time>2026-03-29T17:09:02.999Z</time></trkpt><trkpt lat="41.74369706263772" lon="12.618779362483226"><ele>203.0</ele><time>2026-03-29T17:09:03.999Z</time></trkpt><trkpt lat="41.74353815364246" lon="12.618683475863676"><ele>203.0</ele><time>2026-03-29T17:09:04.999Z</time></trkpt><trkpt lat="41.74337081399869" lon="12.61858708928663"><ele>203.0</ele><time>2026-03-29T17:09:05.999Z</time></trkpt><trkpt lat="41.743191465512844" lon="12.618483327373005"><ele>203.0</ele><time>2026-03-29T17:09:06.999Z</time></trkpt><trkpt lat="41.74300377301054" lon="12.618378366265159"><ele>203.0</ele><time>2026-03-29T17:09:07.999Z</time></trkpt><trkpt lat="41.742810971768876" lon="12.618268487586557"><ele>203.0</ele><time>2026-03-29T17:09:08.999Z</time></trkpt><trkpt lat="41.742608579613496" lon="12.618154371059497"><ele>203.0</ele><time>2026-03-29T17:09:09.999Z</time></trkpt><trkpt lat="41.74240079952092" lon="12.618037153747295"><ele>202.0</ele><time>2026-03-29T17:09:10.999Z</time></trkpt><trkpt lat="41.74219572567909" lon="12.617925913424749"><ele>201.0</ele><time>2026-03-29T17:09:11.999Z</time></trkpt><trkpt lat="41.74200772758322" lon="12.617826434753544"><ele>200.0</ele><time>2026-03-29T17:09:12.999Z</time></trkpt><trkpt lat="41.74181207823848" lon="12.617719274507515"><ele>204.0</ele><time>2026-03-29T17:09:13.999Z</time></trkpt><trkpt lat="41.730821716387744" lon="12.61641144078976"><ele>204.0</ele><time>2026-03-29T17:10:14.998Z</time></trkpt><trkpt lat="41.73065229273336" lon="12.616433366372902"><ele>204.0</ele><time>2026-03-29T17:10:15.998Z</time></trkpt><trkpt lat="41.73048446643172" lon="12.616453678889672"><ele>204.0</ele><time>2026-03-29T17:10:16.998Z</time></trkpt><trkpt lat="41.73032489447644" lon="12.616472058471219"><ele>203.0</ele><time>2026-03-29T17:10:17.998Z</time></trkpt><trkpt lat="41.73015460217428" lon="12.616490734611277"><ele>202.0</ele><time>2026-03-29T17:10:18.998Z</time></trkpt><trkpt lat="41.72997584237691" lon="12.616509950901579"><ele>201.0</ele><time>2026-03-29T17:10:19.998Z</time></trkpt><trkpt lat="41.72977819315574" lon="12.616533571554474"><ele>201.0</ele><time>2026-03-29T17:10:20.998Z</time></trkpt><trkpt lat="41.72957150493672" lon="12.616554454024117"><ele>201.0</ele><time>2026-03-29T17:10:21.998Z</time></trkpt><trkpt lat="41.72936856593818" lon="12.616568679811385"><ele>201.0</ele><time>2026-03-29T17:10:22.998Z</time></trkpt><trkpt lat="41.729167811135014" lon="12.616584608766638"><ele>199.66666666666669</ele><time>2026-03-29T17:10:23.998Z</time></trkpt><trkpt lat="41.72897896451847" lon="12.616607372567609"><ele>198.33333333333334</ele><time>2026-03-29T17:10:24.998Z</time></trkpt><trkpt lat="41.728800220901626" lon="12.616640551484101"><ele>197.0</ele><time>2026-03-29T17:10:25.998Z</time></trkpt><trkpt lat="41.72863308373087" lon="12.616680230446358"><ele>196.0</ele><time>2026-03-29T17:10:26.998Z</time></trkpt><trkpt lat="41.72847498709814" lon="12.61672651424433"><ele>195.0</ele><time>2026-03-29T17:10:27.998Z</time></trkpt><trkpt lat="41.728319267682245" lon="12.616774686811528"><ele>194.0</ele><time>2026-03-29T17:10:28.998Z</time></trkpt><trkpt lat="41.72816958349006" lon="12.616821789369048"><ele>194.0</ele><time>2026-03-29T17:10:29.998Z</time></trkpt><trkpt lat="41.72801740177169" lon="12.61687766018061"><ele>194.0</ele><time>2026-03-29T17:10:30.998Z</time></trkpt><trkpt lat="41.72786858377951" lon="12.616942502856936"><ele>194.0</ele><time>2026-03-29T17:10:31.998Z</time></trkpt><trkpt lat="41.72769909102862" lon="12.616995144723724"><ele>195.33333333333334</ele><time>2026-03-29T17:10:32.998Z</time></trkpt><trkpt lat="41.72752600006566" lon="12.617102037272518"><ele>196.66666666666669</ele><time>2026-03-29T17:10:33.998Z</time></trkpt><trkpt lat="41.72734788412649" lon="12.617178196125336"><ele>198.0</ele><time>2026-03-29T17:10:34.998Z</time></trkpt><trkpt lat="41.72717210464022" lon="12.617250401055262"><ele>198.0</ele><time>2026-03-29T17:10:35.998Z</time></trkpt><trkpt lat="41.72700238289615" lon="12.617324406974907"><ele>198.0</ele><time>2026-03-29T17:10:36.998Z</time></trkpt><trkpt lat="41.72682872083941" lon="12.617402748590608"><ele>198.0</ele><time>2026-03-29T17:10:38Z</time></trkpt><trkpt lat="41.7266636087026" lon="12.617483038742645"><ele>198.5</ele><time>2026-03-29T17:10:39Z</time></trkpt><trkpt lat="41.72651823306598" lon="12.617556690745845"><ele>199.0</ele><time>2026-03-29T17:10:39.999Z</time></trkpt><trkpt lat="41.72639166468061" lon="12.617623548160152"><ele>199.5</ele><time>2026-03-29T17:10:41Z</time></trkpt><trkpt lat="41.726275280508844" lon="12.617683267060974"><ele>200.0</ele><time>2026-03-29T17:10:42Z</time></trkpt><trkpt lat="41.7261723313647" lon="12.617736415361442"><ele>200.0</ele><time>2026-03-29T17:10:42.999Z</time></trkpt><trkpt lat="41.726066354511005" lon="12.617752244844148"><ele>200.0</ele><time>2026-03-29T17:10:43.999Z</time></trkpt><trkpt lat="41.725979170684255" lon="12.617791231650367"><ele>200.0</ele><time>2026-03-29T17:10:44.999Z</time></trkpt><trkpt lat="41.725902793193015" lon="12.61782555097168"><ele>200.0</ele><time>2026-03-29T17:10:45.999Z</time></trkpt><trkpt lat="41.72584413955387" lon="12.617889612563253"><ele>200.0</ele><time>2026-03-29T17:10:46.999Z</time></trkpt><trkpt lat="41.72574040160814" lon="12.617941637780394"><ele>200.25</ele><time>2026-03-29T17:10:48.999Z</time></trkpt><trkpt lat="41.72563103474254" lon="12.617951894062168"><ele>200.5</ele><time>2026-03-29T17:10:50.999Z</time></trkpt><trkpt lat="41.72552485976212" lon="12.617997324541387"><ele>200.75</ele><time>2026-03-29T17:10:51.999Z</time></trkpt><trkpt lat="41.72542120070185" lon="12.618054229085505"><ele>201.0</ele><time>2026-03-29T17:10:52.999Z</time></trkpt><trkpt lat="41.72529225166402" lon="12.618114778829472"><ele>200.33333333333331</ele><time>2026-03-29T17:10:53.999Z</time></trkpt><trkpt lat="41.725147968309095" lon="12.618182260648116"><ele>199.66666666666666</ele><time>2026-03-29T17:10:54.999Z</time></trkpt><trkpt lat="41.724992523024454" lon="12.618249868819575"><ele>199.0</ele><time>2026-03-29T17:10:55.999Z</time></trkpt><trkpt lat="41.724825726801114" lon="12.618325869527146"><ele>199.0</ele><time>2026-03-29T17:10:56.999Z</time></trkpt><trkpt lat="41.724653020442844" lon="12.618406004947648"><ele>199.0</ele><time>2026-03-29T17:10:57.999Z</time></trkpt><trkpt lat="41.724476382168994" lon="12.61848434188612"><ele>199.0</ele><time>2026-03-29T17:10:58.999Z</time></trkpt><trkpt lat="41.72429507930288" lon="12.618566555696766"><ele>201.33333333333331</ele><time>2026-03-29T17:10:59.999Z</time></trkpt><trkpt lat="41.724108361744065" lon="12.61865986155753"><ele>203.66666666666669</ele><time>2026-03-29T17:11:00.999Z</time></trkpt><trkpt lat="41.72391535252522" lon="12.618766683896375"><ele>206.0</ele><time>2026-03-29T17:11:01.999Z</time></trkpt><trkpt lat="41.72372045521115" lon="12.618887464670975"><ele>204.66666666666669</ele><time>2026-03-29T17:11:02.999Z</time></trkpt><trkpt lat="41.723530840704285" lon="12.619015907977953"><ele>203.33333333333331</ele><time>2026-03-29T17:11:03.999Z</time></trkpt><trkpt lat="41.72333420544307" lon="12.619160577173885"><ele>202.0</ele><time>2026-03-29T17:11:04.999Z</time></trkpt><trkpt lat="41.72313384203806" lon="12.61931615681666"><ele>202.0</ele><time>2026-03-29T17:11:05.999Z</time></trkpt><trkpt lat="41.722935803804205" lon="12.619476535323894"><ele>202.0</ele><time>2026-03-29T17:11:06.999Z</time></trkpt><trkpt lat="41.72273903443593" lon="12.619639937363793"><ele>201.0</ele><time>2026-03-29T17:11:07.999Z</time></trkpt><trkpt lat="41.722540502469435" lon="12.619807247500601"><ele>200.0</ele><time>2026-03-29T17:11:08.999Z</time></trkpt><trkpt lat="41.72233921086233" lon="12.619978952473177"><ele>200.0</ele><time>2026-03-29T17:11:09.999Z</time></trkpt><trkpt lat="41.72213816372501" lon="12.620151616960639"><ele>200.0</ele><time>2026-03-29T17:11:10.999Z</time></trkpt><trkpt lat="41.72193820828588" lon="12.620321970013443"><ele>199.0</ele><time>2026-03-29T17:11:11.999Z</time></trkpt><trkpt lat="41.721744936614236" lon="12.620486510829492"><ele>198.0</ele><time>2026-03-29T17:11:12.999Z</time></trkpt><trkpt lat="41.72154341101207" lon="12.620655966315757"><ele>222.0</ele><time>2026-03-29T17:11:13.999Z</time></trkpt><trkpt lat="41.715148843160165" lon="12.630213450916575"><ele>222.0</ele><time>2026-03-29T17:12:14.998Z</time></trkpt><trkpt lat="41.71508562786073" lon="12.630290293511555"><ele>222.0</ele><time>2026-03-29T17:12:16.998Z</time></trkpt><trkpt lat="41.71502248954952" lon="12.63033799327777"><ele>222.0</ele><time>2026-03-29T17:12:22.998Z</time></trkpt><trkpt lat="41.71493345223715" lon="12.63035475892002"><ele>222.0</ele><time>2026-03-29T17:12:32.998Z</time></trkpt><trkpt lat="41.71481541778149" lon="12.630400533381671"><ele>222.0</ele><time>2026-03-29T17:12:34.998Z</time></trkpt><trkpt lat="41.714768062693054" lon="12.630472118502256"><ele>222.0</ele><time>2026-03-29T17:12:35.998Z</time></trkpt><trkpt lat="41.71474109106227" lon="12.630578511401476"><ele>221.66666666666666</ele><time>2026-03-29T17:12:36.998Z</time></trkpt><trkpt lat="41.71473287523938" lon="12.630696828316378"><ele>221.33333333333331</ele><time>2026-03-29T17:12:37.998Z</time></trkpt><trkpt lat="41.71470792047956" lon="12.630812225047364"><ele>221.0</ele><time>2026-03-29T17:12:38.998Z</time></trkpt><trkpt lat="41.71466394567966" lon="12.630907459608377"><ele>220.66666666666666</ele><time>2026-03-29T17:12:39.998Z</time></trkpt><trkpt lat="41.71461161120351" lon="12.630983301318864"><ele>220.33333333333331</ele><time>2026-03-29T17:12:40.998Z</time></trkpt><trkpt lat="41.71456995384701" lon="12.63105011364562"><ele>220.0</ele><time>2026-03-29T17:12:41.998Z</time></trkpt><trkpt lat="41.71450818965531" lon="12.631137469346829"><ele>220.25</ele><time>2026-03-29T17:12:42.998Z</time></trkpt><trkpt lat="41.71442142920281" lon="12.631251294920776"><ele>220.5</ele><time>2026-03-29T17:12:43.999Z</time></trkpt><trkpt lat="41.714327519258795" lon="12.63137804662478"><ele>220.75</ele><time>2026-03-29T17:12:44.999Z</time></trkpt><trkpt lat="41.71422820264045" lon="12.631519876460665"><ele>221.0</ele><time>2026-03-29T17:12:45.999Z</time></trkpt><trkpt lat="41.71412528143319" lon="12.631669882392378"><ele>221.66666666666669</ele><time>2026-03-29T17:12:46.999Z</time></trkpt><trkpt lat="41.71401213867473" lon="12.631835591994001"><ele>222.33333333333331</ele><time>2026-03-29T17:12:47.999Z</time></trkpt><trkpt lat="41.713884583314574" lon="12.632021558898815"><ele>223.0</ele><time>2026-03-29T17:12:48.999Z</time></trkpt><trkpt lat="41.71375419075808" lon="12.632214014741773"><ele>223.0</ele><time>2026-03-29T17:12:49.999Z</time></trkpt><trkpt lat="41.713632644760246" lon="12.632391223306705"><ele>223.0</ele><time>2026-03-29T17:12:50.999Z</time></trkpt><trkpt lat="41.71352413865247" lon="12.632543632846842"><ele>223.0</ele><time>2026-03-29T17:12:51.999Z</time></trkpt><trkpt lat="41.71342490727493" lon="12.632687372962584"><ele>223.60000000000002</ele><time>2026-03-29T17:12:52.999Z</time></trkpt><trkpt lat="41.71333511304817" lon="12.632811213930758"><ele>224.20000000000002</ele><time>2026-03-29T17:12:53.999Z</time></trkpt><trkpt lat="41.713259214910856" lon="12.632910391282705"><ele>224.8</ele><time>2026-03-29T17:12:54.999Z</time></trkpt><trkpt lat="41.713191680147105" lon="12.632983309434724"><ele>225.4</ele><time>2026-03-29T17:12:55.999Z</time></trkpt><trkpt lat="41.713123866165624" lon="12.633016854368947"><ele>226.0</ele><time>2026-03-29T17:12:56.999Z</time></trkpt><trkpt lat="41.71308269804784" lon="12.633087791902364"><ele>226.0</ele><time>2026-03-29T17:12:57.999Z</time></trkpt><trkpt lat="41.71304385083631" lon="12.633167935115912"><ele>226.0</ele><time>2026-03-29T17:12:58.999Z</time></trkpt><trkpt lat="41.71299552152717" lon="12.633308226311055"><ele>226.0</ele><time>2026-03-29T17:12:59.999Z</time></trkpt><trkpt lat="41.71291629441016" lon="12.633467414565681"><ele>226.0</ele><time>2026-03-29T17:13:00.999Z</time></trkpt><trkpt lat="41.71279220464223" lon="12.633610330460888"><ele>226.5</ele><time>2026-03-29T17:13:01.999Z</time></trkpt><trkpt lat="41.71271581653021" lon="12.633761115269413"><ele>227.0</ele><time>2026-03-29T17:13:02.999Z</time></trkpt><trkpt lat="41.71261777581649" lon="12.633878345243206"><ele>227.5</ele><time>2026-03-29T17:13:03.999Z</time></trkpt><trkpt lat="41.71253029571461" lon="12.634011132846489"><ele>228.0</ele><time>2026-03-29T17:13:04.999Z</time></trkpt><trkpt lat="41.712452807928074" lon="12.634158245407432"><ele>228.0</ele><time>2026-03-29T17:13:05.999Z</time></trkpt><trkpt lat="41.712336661538004" lon="12.634316764695095"><ele>228.0</ele><time>2026-03-29T17:13:06.999Z</time></trkpt><trkpt lat="41.71220170437941" lon="12.634473981237138"><ele>228.0</ele><time>2026-03-29T17:13:07.999Z</time></trkpt><trkpt lat="41.71204769870239" lon="12.634634682072296"><ele>229.66666666666669</ele><time>2026-03-29T17:13:08.999Z</time></trkpt><trkpt lat="41.71188052499907" lon="12.63480759773459"><ele>231.33333333333334</ele><time>2026-03-29T17:13:09.999Z</time></trkpt><trkpt lat="41.71170535321496" lon="12.634993649566207"><ele>233.0</ele><time>2026-03-29T17:13:10.999Z</time></trkpt><trkpt lat="41.71153265338885" lon="12.635183175462354"><ele>234.0</ele><time>2026-03-29T17:13:11.999Z</time></trkpt><trkpt lat="41.71137315154513" lon="12.635359639809455"><ele>235.0</ele><time>2026-03-29T17:13:12.999Z</time></trkpt><trkpt lat="41.71123110234038" lon="12.635513368172981"><ele>236.0</ele><time>2026-03-29T17:13:13.999Z</time></trkpt><trkpt lat="41.70333304802024" lon="12.64543394214099"><ele>241.33333333333334</ele><time>2026-03-29T17:14:14.998Z</time></trkpt><trkpt lat="41.703167853768804" lon="12.645635398843938"><ele>246.66666666666669</ele><time>2026-03-29T17:14:15.998Z</time></trkpt><trkpt lat="41.7030081848056" lon="12.645838934354032"><ele>252.0</ele><time>2026-03-29T17:14:16.998Z</time></trkpt><trkpt lat="41.70284483775174" lon="12.64605758396536"><ele>250.0</ele><time>2026-03-29T17:14:17.998Z</time></trkpt><trkpt lat="41.70267379496271" lon="12.646290804141845"><ele>248.0</ele><time>2026-03-29T17:14:18.998Z</time></trkpt><trkpt lat="41.70250843713363" lon="12.64651571173728"><ele>248.0</ele><time>2026-03-29T17:14:19.998Z</time></trkpt><trkpt lat="41.70235829560268" lon="12.646720322801555"><ele>248.0</ele><time>2026-03-29T17:14:20.998Z</time></trkpt><trkpt lat="41.70221927878632" lon="12.646910934816145"><ele>248.0</ele><time>2026-03-29T17:14:21.998Z</time></trkpt><trkpt lat="41.7020879067015" lon="12.647088027760292"><ele>248.0</ele><time>2026-03-29T17:14:22.998Z</time></trkpt><trkpt lat="41.70196682519114" lon="12.647242999645462"><ele>248.0</ele><time>2026-03-29T17:14:23.998Z</time></trkpt><trkpt lat="41.701846242751024" lon="12.64737561051144"><ele>248.0</ele><time>2026-03-29T17:14:24.998Z</time></trkpt><trkpt lat="41.7017208596705" lon="12.647475058317639"><ele>248.0</ele><time>2026-03-29T17:14:25.998Z</time></trkpt><trkpt lat="41.70158714465966" lon="12.64753638098018"><ele>248.0</ele><time>2026-03-29T17:14:26.998Z</time></trkpt><trkpt lat="41.701428830254635" lon="12.647567684554168"><ele>248.0</ele><time>2026-03-29T17:14:27.998Z</time></trkpt><trkpt lat="41.70126774666605" lon="12.647556745779736"><ele>248.0</ele><time>2026-03-29T17:14:28.998Z</time></trkpt><trkpt lat="41.701116236640765" lon="12.64751361256664"><ele>248.0</ele><time>2026-03-29T17:14:29.998Z</time></trkpt><trkpt lat="41.7009546090403" lon="12.647447393063498"><ele>248.0</ele><time>2026-03-29T17:14:30.998Z</time></trkpt><trkpt lat="41.70077430789287" lon="12.647368823193682"><ele>248.33333333333334</ele><time>2026-03-29T17:14:31.998Z</time></trkpt><trkpt lat="41.7005850990665" lon="12.647291925152757"><ele>248.66666666666669</ele><time>2026-03-29T17:14:32.998Z</time></trkpt><trkpt lat="41.70040332613474" lon="12.647232070207842"><ele>249.0</ele><time>2026-03-29T17:14:33.998Z</time></trkpt><trkpt lat="41.70021756137797" lon="12.647205992485603"><ele>249.33333333333331</ele><time>2026-03-29T17:14:34.998Z</time></trkpt><trkpt lat="41.700029044399635" lon="12.647215701982187"><ele>249.66666666666666</ele><time>2026-03-29T17:14:35.998Z</time></trkpt><trkpt lat="41.69984960318926" lon="12.647242601487962"><ele>250.0</ele><time>2026-03-29T17:14:36.998Z</time></trkpt><trkpt lat="41.699677258202954" lon="12.647281497382384"><ele>250.0</ele><time>2026-03-29T17:14:37.998Z</time></trkpt><trkpt lat="41.69950209241637" lon="12.647333833763915"><ele>250.0</ele><time>2026-03-29T17:14:38.998Z</time></trkpt><trkpt lat="41.699326128304484" lon="12.64739707936466"><ele>250.0</ele><time>2026-03-29T17:14:39.998Z</time></trkpt><trkpt lat="41.699160412648524" lon="12.647479270504585"><ele>250.25</ele><time>2026-03-29T17:14:40.998Z</time></trkpt><trkpt lat="41.69901422058986" lon="12.647573963508327"><ele>250.5</ele><time>2026-03-29T17:14:41.998Z</time></trkpt><trkpt lat="41.698886944748594" lon="12.647675642917402"><ele>250.75</ele><time>2026-03-29T17:14:42.998Z</time></trkpt><trkpt lat="41.69877814017023" lon="12.647776582456965"><ele>251.0</ele><time>2026-03-29T17:14:43.998Z</time></trkpt><trkpt lat="41.69866587128472" lon="12.64788408286203"><ele>247.66666666666669</ele><time>2026-03-29T17:14:44.998Z</time></trkpt><trkpt lat="41.69853197254787" lon="12.648018574127512"><ele>244.33333333333331</ele><time>2026-03-29T17:14:45.998Z</time></trkpt><trkpt lat="41.69840105404319" lon="12.648148492554876"><ele>241.0</ele><time>2026-03-29T17:14:46.998Z</time></trkpt><trkpt lat="41.698281670704766" lon="12.648266285586734"><ele>241.0</ele><time>2026-03-29T17:14:47.998Z</time></trkpt><trkpt lat="41.69816750442197" lon="12.648378622168133"><ele>241.0</ele><time>2026-03-29T17:14:48.999Z</time></trkpt><trkpt lat="41.69806447249169" lon="12.64848150702689"><ele>241.0</ele><time>2026-03-29T17:14:49.999Z</time></trkpt><trkpt lat="41.69797553778857" lon="12.648576197240155"><ele>241.0</ele><time>2026-03-29T17:14:50.999Z</time></trkpt><trkpt lat="41.697888051295095" lon="12.648668767055772"><ele>242.25</ele><time>2026-03-29T17:14:51.999Z</time></trkpt><trkpt lat="41.697796781852006" lon="12.648763755223417"><ele>243.5</ele><time>2026-03-29T17:14:52.999Z</time></trkpt><trkpt lat="41.69770094965457" lon="12.648863055204853"><ele>244.75</ele><time>2026-03-29T17:14:53.999Z</time></trkpt><trkpt lat="41.69760865222827" lon="12.648958570632166"><ele>246.0</ele><time>2026-03-29T17:14:54.999Z</time></trkpt><trkpt lat="41.69751698400392" lon="12.649051897994937"><ele>243.0</ele><time>2026-03-29T17:14:55.999Z</time></trkpt><trkpt lat="41.69741899272081" lon="12.64915692391623"><ele>240.0</ele><time>2026-03-29T17:14:56.999Z</time></trkpt><trkpt lat="41.697314351319164" lon="12.649270239945213"><ele>237.0</ele><time>2026-03-29T17:14:57.999Z</time></trkpt><trkpt lat="41.69720871768965" lon="12.649379924890015"><ele>234.0</ele><time>2026-03-29T17:14:58.999Z</time></trkpt><trkpt lat="41.697102962244905" lon="12.649480955657177"><ele>234.0</ele><time>2026-03-29T17:14:59.999Z</time></trkpt><trkpt lat="41.69700316939134" lon="12.649562467403781"><ele>234.0</ele><time>2026-03-29T17:15:00.999Z</time></trkpt><trkpt lat="41.696918651016254" lon="12.649623096252418"><ele>234.0</ele><time>2026-03-29T17:15:01.999Z</time></trkpt><trkpt lat="41.69684710106619" lon="12.649668705147299"><ele>234.0</ele><time>2026-03-29T17:15:02.999Z</time></trkpt><trkpt lat="41.69677440105166" lon="12.649698582354095"><ele>234.0</ele><time>2026-03-29T17:15:03.999Z</time></trkpt><trkpt lat="41.6967024163929" lon="12.649710391698807"><ele>234.0</ele><time>2026-03-29T17:15:04.999Z</time></trkpt><trkpt lat="41.69663532332449" lon="12.64968237544769"><ele>234.0</ele><time>2026-03-29T17:15:05.999Z</time></trkpt><trkpt lat="41.696522458747154" lon="12.64968622375405"><ele>233.99999999999997</ele><time>2026-03-29T17:15:07.999Z</time></trkpt><trkpt lat="41.69644553251106" lon="12.649641101744374"><ele>233.99999999999997</ele><time>2026-03-29T17:15:08.999Z</time></trkpt><trkpt lat="41.69634687949488" lon="12.649625631137033"><ele>234.0</ele><time>2026-03-29T17:15:09.999Z</time></trkpt><trkpt lat="41.696265188530674" lon="12.649588185775226"><ele>234.0</ele><time>2026-03-29T17:15:10.999Z</time></trkpt><trkpt lat="41.69619756611865" lon="12.649553536236182"><ele>234.0</ele><time>2026-03-29T17:15:11.999Z</time></trkpt><trkpt lat="41.696127469785644" lon="12.64950490332125"><ele>234.0</ele><time>2026-03-29T17:15:13.999Z</time></trkpt><trkpt lat="41.689162950024375" lon="12.648238571288376"><ele>224.0</ele><time>2026-03-29T17:16:14.999Z</time></trkpt><trkpt lat="41.68899356550026" lon="12.648244696544838"><ele>214.0</ele><time>2026-03-29T17:16:15.999Z</time></trkpt><trkpt lat="41.68882849254391" lon="12.648250012141306"><ele>204.0</ele><time>2026-03-29T17:16:16.999Z</time></trkpt><trkpt lat="41.68867274096021" lon="12.648253271031225"><ele>203.0</ele><time>2026-03-29T17:16:17.999Z</time></trkpt><trkpt lat="41.68853015542048" lon="12.648254996515279"><ele>202.0</ele><time>2026-03-29T17:16:18.999Z</time></trkpt><trkpt lat="41.68839760015686" lon="12.648257783948608"><ele>201.0</ele><time>2026-03-29T17:16:19.999Z</time></trkpt><trkpt lat="41.68827503089216" lon="12.64826314737708"><ele>200.0</ele><time>2026-03-29T17:16:20.999Z</time></trkpt><trkpt lat="41.68815907890251" lon="12.648267536033343"><ele>200.0</ele><time>2026-03-29T17:16:21.999Z</time></trkpt><trkpt lat="41.68803558106383" lon="12.648270684787994"><ele>200.0</ele><time>2026-03-29T17:16:22.999Z</time></trkpt><trkpt lat="41.68791111356289" lon="12.648274920193652"><ele>200.0</ele><time>2026-03-29T17:16:23.999Z</time></trkpt><trkpt lat="41.68778726546007" lon="12.648280498587507"><ele>200.0</ele><time>2026-03-29T17:16:24.999Z</time></trkpt><trkpt lat="41.68767038127196" lon="12.648287982772073"><ele>199.75</ele><time>2026-03-29T17:16:25.999Z</time></trkpt><trkpt lat="41.687556264542074" lon="12.648304230777134"><ele>199.5</ele><time>2026-03-29T17:16:26.999Z</time></trkpt><trkpt lat="41.68743268079434" lon="12.648352482526985"><ele>199.25</ele><time>2026-03-29T17:16:27.999Z</time></trkpt><trkpt lat="41.687274143666514" lon="12.648420024026915"><ele>199.0</ele><time>2026-03-29T17:16:28.999Z</time></trkpt><trkpt lat="41.68710033421265" lon="12.648540192483031"><ele>197.0</ele><time>2026-03-29T17:16:29.999Z</time></trkpt><trkpt lat="41.686920198281754" lon="12.648679756491727"><ele>195.0</ele><time>2026-03-29T17:16:30.999Z</time></trkpt><trkpt lat="41.686732877356874" lon="12.648792850149908"><ele>193.0</ele><time>2026-03-29T17:16:31.999Z</time></trkpt><trkpt lat="41.686543937169105" lon="12.64891000132827"><ele>193.0</ele><time>2026-03-29T17:16:32.999Z</time></trkpt><trkpt lat="41.68636811037381" lon="12.649027496488392"><ele>193.0</ele><time>2026-03-29T17:16:33.999Z</time></trkpt><trkpt lat="41.68619260005818" lon="12.649148567651626"><ele>193.0</ele><time>2026-03-29T17:16:34.999Z</time></trkpt><trkpt lat="41.6860098866494" lon="12.649279624342784"><ele>192.66666666666666</ele><time>2026-03-29T17:16:35.999Z</time></trkpt><trkpt lat="41.685822634691746" lon="12.649421966483652"><ele>192.33333333333331</ele><time>2026-03-29T17:16:36.999Z</time></trkpt><trkpt lat="41.685624526737655" lon="12.649589191219961"><ele>192.0</ele><time>2026-03-29T17:16:37.999Z</time></trkpt><trkpt lat="41.685430669804035" lon="12.649766407962064"><ele>190.0</ele><time>2026-03-29T17:16:38.999Z</time></trkpt><trkpt lat="41.68524702534705" lon="12.649954993703648"><ele>188.0</ele><time>2026-03-29T17:16:39.999Z</time></trkpt><trkpt lat="41.685068159747345" lon="12.650153539832033"><ele>189.66666666666666</ele><time>2026-03-29T17:16:40.999Z</time></trkpt><trkpt lat="41.68488989999456" lon="12.650341692504279"><ele>191.33333333333331</ele><time>2026-03-29T17:16:41.999Z</time></trkpt><trkpt lat="41.68472138177872" lon="12.650502690636102"><ele>193.0</ele><time>2026-03-29T17:16:42.999Z</time></trkpt><trkpt lat="41.6845651145985" lon="12.650634769242446"><ele>192.75</ele><time>2026-03-29T17:16:43.999Z</time></trkpt><trkpt lat="41.684426703313726" lon="12.650747068075166"><ele>192.5</ele><time>2026-03-29T17:16:44.999Z</time></trkpt><trkpt lat="41.684301297058695" lon="12.650847856489088"><ele>192.25</ele><time>2026-03-29T17:16:45.999Z</time></trkpt><trkpt lat="41.68417986204709" lon="12.650940803191759"><ele>192.0</ele><time>2026-03-29T17:16:46.999Z</time></trkpt><trkpt lat="41.68407898646023" lon="12.651017444195412"><ele>192.0</ele><time>2026-03-29T17:16:47.999Z</time></trkpt><trkpt lat="41.68401329773381" lon="12.651069990440456"><ele>192.0</ele><time>2026-03-29T17:16:48.999Z</time></trkpt><trkpt lat="41.68394195390465" lon="12.651135018194163"><ele>192.0</ele><time>2026-03-29T17:16:50.999Z</time></trkpt><trkpt lat="41.683825661581864" lon="12.651222001024582"><ele>192.0</ele><time>2026-03-29T17:16:52.999Z</time></trkpt><trkpt lat="41.68375815823231" lon="12.651265427326418"><ele>192.0</ele><time>2026-03-29T17:16:53.999Z</time></trkpt><trkpt lat="41.68368126600617" lon="12.65133670756509"><ele>191.5</ele><time>2026-03-29T17:16:55Z</time></trkpt><trkpt lat="41.6835747510749" lon="12.651431604240335"><ele>191.0</ele><time>2026-03-29T17:16:56Z</time></trkpt><trkpt lat="41.683476823976044" lon="12.651509215935484"><ele>190.5</ele><time>2026-03-29T17:16:57Z</time></trkpt><trkpt lat="41.68339453502614" lon="12.651574307469273"><ele>190.0</ele><time>2026-03-29T17:16:58Z</time></trkpt><trkpt lat="41.683279743863345" lon="12.651663888594562"><ele>190.0</ele><time>2026-03-29T17:16:59Z</time></trkpt><trkpt lat="41.68312558778888" lon="12.651769946353427"><ele>190.0</ele><time>2026-03-29T17:17:00Z</time></trkpt><trkpt lat="41.68295402614385" lon="12.651879033584066"><ele>190.0</ele><time>2026-03-29T17:17:01Z</time></trkpt><trkpt lat="41.68279437538914" lon="12.651967596168346"><ele>190.33333333333334</ele><time>2026-03-29T17:17:02Z</time></trkpt><trkpt lat="41.68262453514043" lon="12.652016642872004"><ele>190.66666666666666</ele><time>2026-03-29T17:17:03Z</time></trkpt><trkpt lat="41.68242570722731" lon="12.652031132993983"><ele>191.0</ele><time>2026-03-29T17:17:04Z</time></trkpt><trkpt lat="41.68220724698991" lon="12.652011638433247"><ele>191.0</ele><time>2026-03-29T17:17:05Z</time></trkpt><trkpt lat="41.68197575457793" lon="12.651971807523962"><ele>191.0</ele><time>2026-03-29T17:17:06Z</time></trkpt><trkpt lat="41.68173921317777" lon="12.651933298378816"><ele>189.5</ele><time>2026-03-29T17:17:07Z</time></trkpt><trkpt lat="41.68148185859758" lon="12.651892726473012"><ele>188.0</ele><time>2026-03-29T17:17:08Z</time></trkpt><trkpt lat="41.681228850894584" lon="12.651851540823987"><ele>189.5</ele><time>2026-03-29T17:17:09Z</time></trkpt><trkpt lat="41.68099473428048" lon="12.651817746549114"><ele>191.0</ele><time>2026-03-29T17:17:10Z</time></trkpt><trkpt lat="41.68076084465627" lon="12.651788509697097"><ele>191.0</ele><time>2026-03-29T17:17:11Z</time></trkpt><trkpt lat="41.68052898803699" lon="12.65175111294437"><ele>191.0</ele><time>2026-03-29T17:17:12Z</time></trkpt><trkpt lat="41.68030005117899" lon="12.651706685632337"><ele>192.5</ele><time>2026-03-29T17:17:13Z</time></trkpt><trkpt lat="41.680085950741" lon="12.651652884784069"><ele>194.0</ele><time>2026-03-29T17:17:14Z</time></trkpt><trkpt lat="41.669891372172145" lon="12.651099354596063"><ele>188.25</ele><time>2026-03-29T17:18:14.999Z</time></trkpt><trkpt lat="41.669776678813264" lon="12.651178328575694"><ele>182.5</ele><time>2026-03-29T17:18:15.999Z</time></trkpt><trkpt lat="41.66966117954215" lon="12.651286672006178"><ele>176.75</ele><time>2026-03-29T17:18:16.999Z</time></trkpt><trkpt lat="41.66957132850777" lon="12.651420536848757"><ele>171.0</ele><time>2026-03-29T17:18:17.999Z</time></trkpt><trkpt lat="41.66950374670818" lon="12.651553099388723"><ele>171.0</ele><time>2026-03-29T17:18:18.999Z</time></trkpt><trkpt lat="41.6694454485025" lon="12.651667851791053"><ele>171.0</ele><time>2026-03-29T17:18:19.999Z</time></trkpt><trkpt lat="41.66938882883793" lon="12.651778369842589"><ele>171.0</ele><time>2026-03-29T17:18:20.999Z</time></trkpt><trkpt lat="41.669330014283396" lon="12.651881345034313"><ele>171.0</ele><time>2026-03-29T17:18:21.999Z</time></trkpt><trkpt lat="41.669260635108664" lon="12.652001689306685"><ele>171.0</ele><time>2026-03-29T17:18:22.999Z</time></trkpt><trkpt lat="41.66919067839388" lon="12.652124233388498"><ele>169.0</ele><time>2026-03-29T17:18:23.999Z</time></trkpt><trkpt lat="41.66911754083611" lon="12.652248165798285"><ele>167.0</ele><time>2026-03-29T17:18:24.999Z</time></trkpt><trkpt lat="41.669009814167346" lon="12.652429547072698"><ele>165.0</ele><time>2026-03-29T17:18:25.999Z</time></trkpt><trkpt lat="41.668890273989206" lon="12.652603642301175"><ele>165.0</ele><time>2026-03-29T17:18:26.999Z</time></trkpt><trkpt lat="41.668795537725025" lon="12.652772635837982"><ele>165.0</ele><time>2026-03-29T17:18:27.999Z</time></trkpt><trkpt lat="41.6686818789671" lon="12.652909549545742"><ele>165.0</ele><time>2026-03-29T17:18:28.999Z</time></trkpt><trkpt lat="41.66854609159085" lon="12.653025472716756"><ele>163.33333333333334</ele><time>2026-03-29T17:18:29.999Z</time></trkpt><trkpt lat="41.66839275815608" lon="12.653116002581084"><ele>161.66666666666669</ele><time>2026-03-29T17:18:30.999Z</time></trkpt><trkpt lat="41.668237554648904" lon="12.653193130462885"><ele>160.0</ele><time>2026-03-29T17:18:31.999Z</time></trkpt><trkpt lat="41.66807779062668" lon="12.653232775490313"><ele>160.0</ele><time>2026-03-29T17:18:32.999Z</time></trkpt><trkpt lat="41.66792663046068" lon="12.653267354794549"><ele>160.0</ele><time>2026-03-29T17:18:33.999Z</time></trkpt><trkpt lat="41.667771929032725" lon="12.653282099554758"><ele>160.0</ele><time>2026-03-29T17:18:34.999Z</time></trkpt><trkpt lat="41.6676165745585" lon="12.653270029634097"><ele>159.33333333333334</ele><time>2026-03-29T17:18:35.999Z</time></trkpt><trkpt lat="41.66745040954223" lon="12.653231541773282"><ele>158.66666666666666</ele><time>2026-03-29T17:18:36.999Z</time></trkpt><trkpt lat="41.66726203406057" lon="12.653171981491035"><ele>158.0</ele><time>2026-03-29T17:18:37.999Z</time></trkpt><trkpt lat="41.66705968660496" lon="12.653089981273832"><ele>156.66666666666666</ele><time>2026-03-29T17:18:38.999Z</time></trkpt><trkpt lat="41.666863835965984" lon="12.652995029023883"><ele>155.33333333333334</ele><time>2026-03-29T17:18:39.999Z</time></trkpt><trkpt lat="41.66666709819375" lon="12.652891962538488"><ele>154.0</ele><time>2026-03-29T17:18:40.999Z</time></trkpt><trkpt lat="41.66645877958285" lon="12.652789827140257"><ele>153.0</ele><time>2026-03-29T17:18:41.999Z</time></trkpt><trkpt lat="41.66623557515919" lon="12.652699364893914"><ele>152.0</ele><time>2026-03-29T17:18:42.999Z</time></trkpt><trkpt lat="41.66601922480849" lon="12.65262949071043"><ele>152.0</ele><time>2026-03-29T17:18:43.999Z</time></trkpt><trkpt lat="41.66581733079827" lon="12.652574583539847"><ele>152.0</ele><time>2026-03-29T17:18:44.999Z</time></trkpt><trkpt lat="41.665626278876864" lon="12.652527641500557"><ele>152.0</ele><time>2026-03-29T17:18:45.999Z</time></trkpt><trkpt lat="41.66544435465198" lon="12.652481886304365"><ele>151.0</ele><time>2026-03-29T17:18:46.999Z</time></trkpt><trkpt lat="41.66527379634159" lon="12.652438556652443"><ele>150.0</ele><time>2026-03-29T17:18:47.999Z</time></trkpt><trkpt lat="41.66510974490426" lon="12.65239453942968"><ele>149.0</ele><time>2026-03-29T17:18:48.999Z</time></trkpt><trkpt lat="41.66495139341161" lon="12.652353205822703"><ele>149.0</ele><time>2026-03-29T17:18:49.999Z</time></trkpt><trkpt lat="41.66480321097187" lon="12.652314541379315"><ele>149.0</ele><time>2026-03-29T17:18:50.999Z</time></trkpt><trkpt lat="41.66467739770959" lon="12.652284277351457"><ele>149.0</ele><time>2026-03-29T17:18:51.999Z</time></trkpt><trkpt lat="41.66456733346996" lon="12.652257207110804"><ele>149.0</ele><time>2026-03-29T17:18:52.999Z</time></trkpt><trkpt lat="41.66446427867499" lon="12.65222828340986"><ele>148.33333333333331</ele><time>2026-03-29T17:18:53.999Z</time></trkpt><trkpt lat="41.6643737043207" lon="12.652186481548542"><ele>147.66666666666666</ele><time>2026-03-29T17:18:54.999Z</time></trkpt><trkpt lat="41.664302150652816" lon="12.65213392462766"><ele>147.0</ele><time>2026-03-29T17:18:55.999Z</time></trkpt><trkpt lat="41.66425291123889" lon="12.652022447030397"><ele>146.33333333333334</ele><time>2026-03-29T17:18:57.999Z</time></trkpt><trkpt lat="41.66423781869763" lon="12.651927619021187"><ele>145.66666666666669</ele><time>2026-03-29T17:19:01Z</time></trkpt><trkpt lat="41.66425111699585" lon="12.651802293255152"><ele>145.0</ele><time>2026-03-29T17:19:03Z</time></trkpt><trkpt lat="41.66423821878722" lon="12.651706159506888"><ele>145.0</ele><time>2026-03-29T17:19:04Z</time></trkpt><trkpt lat="41.66420982959367" lon="12.65161365907141"><ele>145.0</ele><time>2026-03-29T17:19:05Z</time></trkpt><trkpt lat="41.66415821516987" lon="12.651528987885381"><ele>145.0</ele><time>2026-03-29T17:19:06Z</time></trkpt><trkpt lat="41.66409594492826" lon="12.651479947900363"><ele>145.0</ele><time>2026-03-29T17:19:07Z</time></trkpt><trkpt lat="41.66401937680946" lon="12.651456112083586"><ele>145.0</ele><time>2026-03-29T17:19:08Z</time></trkpt><trkpt lat="41.6639256852521" lon="12.651468828653186"><ele>145.0</ele><time>2026-03-29T17:19:09Z</time></trkpt><trkpt lat="41.66383480261298" lon="12.65154735300427"><ele>145.0</ele><time>2026-03-29T17:19:10Z</time></trkpt><trkpt lat="41.66377449019962" lon="12.651675983951154"><ele>145.0</ele><time>2026-03-29T17:19:11Z</time></trkpt><trkpt lat="41.66373793960169" lon="12.65182161771516"><ele>145.0</ele><time>2026-03-29T17:19:12Z</time></trkpt><trkpt lat="41.663745508325235" lon="12.651985511834202"><ele>145.0</ele><time>2026-03-29T17:19:13Z</time></trkpt><trkpt lat="41.663684716119896" lon="12.652105542892478"><ele>141.0</ele><time>2026-03-29T17:19:14Z</time></trkpt><trkpt lat="41.65082583568727" lon="12.655666682015129"><ele>141.0</ele><time>2026-03-29T17:20:15Z</time></trkpt><trkpt lat="41.65063006404166" lon="12.655861131509695"><ele>141.0</ele><time>2026-03-29T17:20:16Z</time></trkpt><trkpt lat="41.65045475764199" lon="12.656034768269794"><ele>140.0</ele><time>2026-03-29T17:20:17Z</time></trkpt><trkpt lat="41.6502828003151" lon="12.656204067957196"><ele>139.0</ele><time>2026-03-29T17:20:17.999Z</time></trkpt><trkpt lat="41.65010971308521" lon="12.656351543804302"><ele>138.0</ele><time>2026-03-29T17:20:18.999Z</time></trkpt><trkpt lat="41.64994175477363" lon="12.656462333044129"><ele>138.0</ele><time>2026-03-29T17:20:19.999Z</time></trkpt><trkpt lat="41.64977518794908" lon="12.65654309468486"><ele>138.0</ele><time>2026-03-29T17:20:20.999Z</time></trkpt><trkpt lat="41.64962300472987" lon="12.65659862336629"><ele>138.0</ele><time>2026-03-29T17:20:21.999Z</time></trkpt><trkpt lat="41.64949764946964" lon="12.656638744579247"><ele>138.0</ele><time>2026-03-29T17:20:22.999Z</time></trkpt><trkpt lat="41.649397809566665" lon="12.65666752320132"><ele>138.0</ele><time>2026-03-29T17:20:23.999Z</time></trkpt><trkpt lat="41.64931354229289" lon="12.656691274385471"><ele>138.0</ele><time>2026-03-29T17:20:24.999Z</time></trkpt><trkpt lat="41.64923500772097" lon="12.656699138973922"><ele>138.0</ele><time>2026-03-29T17:20:25.999Z</time></trkpt><trkpt lat="41.64915248003332" lon="12.656660757929163"><ele>138.0</ele><time>2026-03-29T17:20:26.999Z</time></trkpt><trkpt lat="41.6490627295291" lon="12.656617066938269"><ele>138.0</ele><time>2026-03-29T17:20:27.999Z</time></trkpt><trkpt lat="41.64896810426027" lon="12.656638713080268"><ele>138.0</ele><time>2026-03-29T17:20:28.999Z</time></trkpt><trkpt lat="41.64889520846193" lon="12.65673965344954"><ele>138.0</ele><time>2026-03-29T17:20:29.999Z</time></trkpt><trkpt lat="41.64885876600234" lon="12.656886157891998"><ele>138.0</ele><time>2026-03-29T17:20:30.999Z</time></trkpt><trkpt lat="41.64881334186217" lon="12.657025904442294"><ele>138.0</ele><time>2026-03-29T17:20:31.999Z</time></trkpt><trkpt lat="41.648703315906914" lon="12.657144392861813"><ele>137.66666666666666</ele><time>2026-03-29T17:20:32.999Z</time></trkpt><trkpt lat="41.648543944214666" lon="12.657277768337103"><ele>137.33333333333331</ele><time>2026-03-29T17:20:33.999Z</time></trkpt><trkpt lat="41.6483783296654" lon="12.657427602202086"><ele>137.0</ele><time>2026-03-29T17:20:34.999Z</time></trkpt><trkpt lat="41.648210667793975" lon="12.657598844701825"><ele>137.0</ele><time>2026-03-29T17:20:35.999Z</time></trkpt><trkpt lat="41.648055472341035" lon="12.657761625489275"><ele>137.0</ele><time>2026-03-29T17:20:36.999Z</time></trkpt><trkpt lat="41.64792332180999" lon="12.657901733802465"><ele>137.0</ele><time>2026-03-29T17:20:37.999Z</time></trkpt><trkpt lat="41.64781133371042" lon="12.658020040108255"><ele>137.0</ele><time>2026-03-29T17:20:38.999Z</time></trkpt><trkpt lat="41.647719495825186" lon="12.658125921411113"><ele>137.0</ele><time>2026-03-29T17:20:39.999Z</time></trkpt><trkpt lat="41.64761570012801" lon="12.658223085075448"><ele>137.0</ele><time>2026-03-29T17:20:40.999Z</time></trkpt><trkpt lat="41.647499679705255" lon="12.658364661252252"><ele>137.0</ele><time>2026-03-29T17:20:41.999Z</time></trkpt><trkpt lat="41.647383378183726" lon="12.658537536613967"><ele>137.66666666666666</ele><time>2026-03-29T17:20:42.999Z</time></trkpt><trkpt lat="41.64724772131821" lon="12.65871152904003"><ele>138.33333333333334</ele><time>2026-03-29T17:20:43.999Z</time></trkpt><trkpt lat="41.64710726650405" lon="12.658923894623454"><ele>139.0</ele><time>2026-03-29T17:20:44.999Z</time></trkpt><trkpt lat="41.646966342166216" lon="12.659140331572852"><ele>138.0</ele><time>2026-03-29T17:20:45.999Z</time></trkpt><trkpt lat="41.646815004365955" lon="12.659366861985243"><ele>137.0</ele><time>2026-03-29T17:20:46.999Z</time></trkpt><trkpt lat="41.64666179995145" lon="12.65959406393222"><ele>137.0</ele><time>2026-03-29T17:20:47.999Z</time></trkpt><trkpt lat="41.646510490672185" lon="12.659820205170515"><ele>137.0</ele><time>2026-03-29T17:20:48.999Z</time></trkpt><trkpt lat="41.64636234195694" lon="12.660038715873462"><ele>137.0</ele><time>2026-03-29T17:20:49.999Z</time></trkpt><trkpt lat="41.64622187171702" lon="12.660246032245437"><ele>135.66666666666666</ele><time>2026-03-29T17:20:50.999Z</time></trkpt><trkpt lat="41.646085745331234" lon="12.660435250423356"><ele>134.33333333333334</ele><time>2026-03-29T17:20:51.999Z</time></trkpt><trkpt lat="41.64595492448636" lon="12.66060900469694"><ele>133.0</ele><time>2026-03-29T17:20:52.999Z</time></trkpt><trkpt lat="41.64582887300927" lon="12.660775393185743"><ele>133.0</ele><time>2026-03-29T17:20:53.999Z</time></trkpt><trkpt lat="41.645718445381625" lon="12.660922071514472"><ele>133.0</ele><time>2026-03-29T17:20:54.999Z</time></trkpt><trkpt lat="41.64561727423057" lon="12.661057380114642"><ele>133.0</ele><time>2026-03-29T17:20:55.999Z</time></trkpt><trkpt lat="41.64552393503898" lon="12.661159477471493"><ele>133.0</ele><time>2026-03-29T17:20:56.999Z</time></trkpt><trkpt lat="41.64541706912624" lon="12.66123261642836"><ele>132.25</ele><time>2026-03-29T17:20:57.999Z</time></trkpt><trkpt lat="41.64531660830254" lon="12.661327263683875"><ele>131.5</ele><time>2026-03-29T17:20:58.999Z</time></trkpt><trkpt lat="41.64523650388169" lon="12.661485725135902"><ele>130.75</ele><time>2026-03-29T17:20:59.999Z</time></trkpt><trkpt lat="41.645138911690836" lon="12.661688187267874"><ele>130.0</ele><time>2026-03-29T17:21:00.999Z</time></trkpt><trkpt lat="41.644990315968386" lon="12.661904088847457"><ele>130.0</ele><time>2026-03-29T17:21:01.999Z</time></trkpt><trkpt lat="41.644802202248336" lon="12.662149143740752"><ele>130.0</ele><time>2026-03-29T17:21:02.999Z</time></trkpt><trkpt lat="41.644606562888434" lon="12.662408861648016"><ele>129.5</ele><time>2026-03-29T17:21:03.999Z</time></trkpt><trkpt lat="41.64439897076753" lon="12.662691351358784"><ele>129.0</ele><time>2026-03-29T17:21:04.999Z</time></trkpt><trkpt lat="41.64417519350502" lon="12.662996923133111"><ele>129.0</ele><time>2026-03-29T17:21:06.001Z</time></trkpt><trkpt lat="41.64396558720847" lon="12.66327494010213"><ele>129.0</ele><time>2026-03-29T17:21:07.001Z</time></trkpt><trkpt lat="41.64378525158704" lon="12.663513852306117"><ele>128.0</ele><time>2026-03-29T17:21:08Z</time></trkpt><trkpt lat="41.643627228962245" lon="12.66372338274857"><ele>127.0</ele><time>2026-03-29T17:21:09.001Z</time></trkpt><trkpt lat="41.64348728684787" lon="12.663913081411929"><ele>126.0</ele><time>2026-03-29T17:21:10.001Z</time></trkpt><trkpt lat="41.64335731940474" lon="12.66408311182137"><ele>126.0</ele><time>2026-03-29T17:21:11Z</time></trkpt><trkpt lat="41.643209625839035" lon="12.66422931147556"><ele>126.0</ele><time>2026-03-29T17:21:12.001Z</time></trkpt><trkpt lat="41.6430241726306" lon="12.664343702331983"><ele>126.0</ele><time>2026-03-29T17:21:13.001Z</time></trkpt><trkpt lat="41.64280548288098" lon="12.664422805854146"><ele>101.0</ele><time>2026-03-29T17:21:14Z</time></trkpt><trkpt lat="41.632267514686724" lon="12.67131191388622"><ele>101.0</ele><time>2026-03-29T17:22:15Z</time></trkpt><trkpt lat="41.63204127675538" lon="12.671457176118022"><ele>101.0</ele><time>2026-03-29T17:22:16Z</time></trkpt><trkpt lat="41.6318133603383" lon="12.671604428613321"><ele>99.5</ele><time>2026-03-29T17:22:17Z</time></trkpt><trkpt lat="41.6315832898126" lon="12.671749616130043"><ele>98.0</ele><time>2026-03-29T17:22:18Z</time></trkpt><trkpt lat="41.6313528455458" lon="12.671891367978867"><ele>96.0</ele><time>2026-03-29T17:22:19Z</time></trkpt><trkpt lat="41.631121238076645" lon="12.672036295758883"><ele>94.0</ele><time>2026-03-29T17:22:20Z</time></trkpt><trkpt lat="41.630890596261835" lon="12.67218162337979"><ele>94.0</ele><time>2026-03-29T17:22:21Z</time></trkpt><trkpt lat="41.63065788364816" lon="12.672325390502795"><ele>94.0</ele><time>2026-03-29T17:22:22Z</time></trkpt><trkpt lat="41.63042569388371" lon="12.672467691240062"><ele>94.5</ele><time>2026-03-29T17:22:22.999Z</time></trkpt><trkpt lat="41.63019129314687" lon="12.672610794115707"><ele>95.0</ele><time>2026-03-29T17:22:23.999Z</time></trkpt><trkpt lat="41.629954360480895" lon="12.672757549286603"><ele>96.0</ele><time>2026-03-29T17:22:24.999Z</time></trkpt><trkpt lat="41.62972117102105" lon="12.672902271249997"><ele>97.0</ele><time>2026-03-29T17:22:25.999Z</time></trkpt><trkpt lat="41.629486847056576" lon="12.673049998735122"><ele>96.5</ele><time>2026-03-29T17:22:26.999Z</time></trkpt><trkpt lat="41.62925029054948" lon="12.673201669575896"><ele>96.0</ele><time>2026-03-29T17:22:27.999Z</time></trkpt><trkpt lat="41.62901269095119" lon="12.673351734405896"><ele>96.0</ele><time>2026-03-29T17:22:28.999Z</time></trkpt><trkpt lat="41.62877389108162" lon="12.673502158437548"><ele>96.0</ele><time>2026-03-29T17:22:29.999Z</time></trkpt><trkpt lat="41.62853379204118" lon="12.673651823767"><ele>93.0</ele><time>2026-03-29T17:22:30.999Z</time></trkpt><trkpt lat="41.62829203202102" lon="12.673802701756822"><ele>90.0</ele><time>2026-03-29T17:22:31.999Z</time></trkpt><trkpt lat="41.62804997535214" lon="12.673954616949999"><ele>91.0</ele><time>2026-03-29T17:22:32.999Z</time></trkpt><trkpt lat="41.627808925741014" lon="12.674107525602935"><ele>92.0</ele><time>2026-03-29T17:22:33.999Z</time></trkpt><trkpt lat="41.62756677122964" lon="12.674261108841584"><ele>92.0</ele><time>2026-03-29T17:22:34.999Z</time></trkpt><trkpt lat="41.62732724940114" lon="12.674413370852264"><ele>92.0</ele><time>2026-03-29T17:22:35.999Z</time></trkpt><trkpt lat="41.62708676368062" lon="12.67456603599859"><ele>92.0</ele><time>2026-03-29T17:22:36.999Z</time></trkpt><trkpt lat="41.626848268203894" lon="12.674715479769473"><ele>92.0</ele><time>2026-03-29T17:22:37.999Z</time></trkpt><trkpt lat="41.626608941239645" lon="12.674864317444847"><ele>92.0</ele><time>2026-03-29T17:22:38.999Z</time></trkpt><trkpt lat="41.62637134770246" lon="12.675012643999212"><ele>92.0</ele><time>2026-03-29T17:22:39.999Z</time></trkpt><trkpt lat="41.62613762269112" lon="12.675158491871537"><ele>91.5</ele><time>2026-03-29T17:22:40.999Z</time></trkpt><trkpt lat="41.625901381294874" lon="12.675302287934285"><ele>91.0</ele><time>2026-03-29T17:22:41.999Z</time></trkpt><trkpt lat="41.62566733999857" lon="12.675446771021106"><ele>91.0</ele><time>2026-03-29T17:22:42.999Z</time></trkpt><trkpt lat="41.625440536467266" lon="12.675593901648353"><ele>91.0</ele><time>2026-03-29T17:22:43.999Z</time></trkpt><trkpt lat="41.62522803280748" lon="12.675734706038737"><ele>89.66666666666666</ele><time>2026-03-29T17:22:44.999Z</time></trkpt><trkpt lat="41.62503062280363" lon="12.675863238980162"><ele>88.33333333333333</ele><time>2026-03-29T17:22:45.999Z</time></trkpt><trkpt lat="41.62484448252972" lon="12.675979327894364"><ele>87.0</ele><time>2026-03-29T17:22:46.999Z</time></trkpt><trkpt lat="41.62466550311509" lon="12.676085337101068"><ele>87.66666666666667</ele><time>2026-03-29T17:22:47.999Z</time></trkpt><trkpt lat="41.62449095230664" lon="12.676174315335219"><ele>88.33333333333334</ele><time>2026-03-29T17:22:48.999Z</time></trkpt><trkpt lat="41.62430753027791" lon="12.676241678834442"><ele>89.0</ele><time>2026-03-29T17:22:49.999Z</time></trkpt><trkpt lat="41.6241092417676" lon="12.67630256767387"><ele>89.0</ele><time>2026-03-29T17:22:50.999Z</time></trkpt><trkpt lat="41.62390343044067" lon="12.676365314992497"><ele>89.0</ele><time>2026-03-29T17:22:51.999Z</time></trkpt><trkpt lat="41.6236942660197" lon="12.67643229753618"><ele>89.0</ele><time>2026-03-29T17:22:52.999Z</time></trkpt><trkpt lat="41.62346962766863" lon="12.676505804990892"><ele>90.0</ele><time>2026-03-29T17:22:53.999Z</time></trkpt><trkpt lat="41.62324248418305" lon="12.676577097582454"><ele>91.0</ele><time>2026-03-29T17:22:54.999Z</time></trkpt><trkpt lat="41.62302029364242" lon="12.676650530821375"><ele>89.0</ele><time>2026-03-29T17:22:55.999Z</time></trkpt><trkpt lat="41.62279534865292" lon="12.676726834050914"><ele>87.0</ele><time>2026-03-29T17:22:56.999Z</time></trkpt><trkpt lat="41.62256033359491" lon="12.676808176192766"><ele>87.0</ele><time>2026-03-29T17:22:57.999Z</time></trkpt><trkpt lat="41.62232742797548" lon="12.676887059508282"><ele>87.0</ele><time>2026-03-29T17:22:58.999Z</time></trkpt><trkpt lat="41.62209863882393" lon="12.67696389590994"><ele>86.66666666666667</ele><time>2026-03-29T17:22:59.999Z</time></trkpt><trkpt lat="41.621883996047" lon="12.677037813528312"><ele>86.33333333333334</ele><time>2026-03-29T17:23:00.999Z</time></trkpt><trkpt lat="41.621667937346125" lon="12.677112615173028"><ele>86.0</ele><time>2026-03-29T17:23:01.999Z</time></trkpt><trkpt lat="41.62145136092538" lon="12.677173028031039"><ele>86.0</ele><time>2026-03-29T17:23:02.999Z</time></trkpt><trkpt lat="41.62125536608175" lon="12.67719996289968"><ele>86.0</ele><time>2026-03-29T17:23:03.999Z</time></trkpt><trkpt lat="41.62105332500907" lon="12.677182400194193"><ele>86.0</ele><time>2026-03-29T17:23:04.999Z</time></trkpt><trkpt lat="41.620797985467476" lon="12.677152707402021"><ele>86.0</ele><time>2026-03-29T17:23:05.999Z</time></trkpt><trkpt lat="41.620540993790534" lon="12.67712430558946"><ele>86.0</ele><time>2026-03-29T17:23:06.999Z</time></trkpt><trkpt lat="41.620280462594636" lon="12.677108098228794"><ele>85.5</ele><time>2026-03-29T17:23:07.999Z</time></trkpt><trkpt lat="41.62001755050783" lon="12.677088353123848"><ele>85.0</ele><time>2026-03-29T17:23:08.999Z</time></trkpt><trkpt lat="41.61974587699312" lon="12.677067846176149"><ele>84.5</ele><time>2026-03-29T17:23:09.999Z</time></trkpt><trkpt lat="41.61948103126635" lon="12.677046475319363"><ele>84.0</ele><time>2026-03-29T17:23:10.999Z</time></trkpt><trkpt lat="41.61923683211644" lon="12.67702718125525"><ele>84.0</ele><time>2026-03-29T17:23:12.001Z</time></trkpt><trkpt lat="41.61900688869413" lon="12.677007038382989"><ele>84.0</ele><time>2026-03-29T17:23:13.001Z</time></trkpt><trkpt lat="41.618770161333956" lon="12.6769880388628"><ele>72.0</ele><time>2026-03-29T17:23:14.001Z</time></trkpt><trkpt lat="41.60573694211619" lon="12.679015389641206"><ele>72.0</ele><time>2026-03-29T17:24:15Z</time></trkpt><trkpt lat="41.60559833029137" lon="12.679100562497005"><ele>72.0</ele><time>2026-03-29T17:24:16Z</time></trkpt><trkpt lat="41.60547308115535" lon="12.679194618575472"><ele>72.0</ele><time>2026-03-29T17:24:17Z</time></trkpt><trkpt lat="41.60534160305461" lon="12.679298756411855"><ele>72.0</ele><time>2026-03-29T17:24:18Z</time></trkpt><trkpt lat="41.60519272772401" lon="12.679420726492216"><ele>72.0</ele><time>2026-03-29T17:24:19Z</time></trkpt><trkpt lat="41.60503280997307" lon="12.679554814761877"><ele>72.0</ele><time>2026-03-29T17:24:20Z</time></trkpt><trkpt lat="41.60486747223787" lon="12.679691755408905"><ele>72.0</ele><time>2026-03-29T17:24:21Z</time></trkpt><trkpt lat="41.604701294069336" lon="12.67982601447918"><ele>72.0</ele><time>2026-03-29T17:24:22Z</time></trkpt><trkpt lat="41.604524562105176" lon="12.679968800125748"><ele>72.0</ele><time>2026-03-29T17:24:23Z</time></trkpt><trkpt lat="41.60435087048049" lon="12.680109129463895"><ele>72.0</ele><time>2026-03-29T17:24:24Z</time></trkpt><trkpt lat="41.604171916205054" lon="12.680252700091001"><ele>71.5</ele><time>2026-03-29T17:24:25Z</time></trkpt><trkpt lat="41.60397825692839" lon="12.680406775262488"><ele>71.0</ele><time>2026-03-29T17:24:26Z</time></trkpt><trkpt lat="41.60377644871618" lon="12.680567554395127"><ele>71.5</ele><time>2026-03-29T17:24:27Z</time></trkpt><trkpt lat="41.603572929238524" lon="12.680728829731732"><ele>72.0</ele><time>2026-03-29T17:24:28Z</time></trkpt><trkpt lat="41.60336628698705" lon="12.68089048366831"><ele>72.0</ele><time>2026-03-29T17:24:29Z</time></trkpt><trkpt lat="41.603172598153" lon="12.681041685312392"><ele>72.0</ele><time>2026-03-29T17:24:30Z</time></trkpt><trkpt lat="41.60299700497637" lon="12.681178760723375"><ele>72.0</ele><time>2026-03-29T17:24:30.999Z</time></trkpt><trkpt lat="41.602837362213194" lon="12.681305084930806"><ele>72.0</ele><time>2026-03-29T17:24:31.999Z</time></trkpt><trkpt lat="41.602721591277486" lon="12.681397701717728"><ele>72.0</ele><time>2026-03-29T17:24:32.999Z</time></trkpt><trkpt lat="41.602619946138056" lon="12.681479017835189"><ele>72.0</ele><time>2026-03-29T17:24:33.999Z</time></trkpt><trkpt lat="41.60251748444404" lon="12.681560901039111"><ele>72.0</ele><time>2026-03-29T17:24:34.999Z</time></trkpt><trkpt lat="41.60241508554222" lon="12.681642695275244"><ele>72.0</ele><time>2026-03-29T17:24:35.999Z</time></trkpt><trkpt lat="41.60230691387879" lon="12.681747586165063"><ele>72.0</ele><time>2026-03-29T17:24:36.999Z</time></trkpt><trkpt lat="41.60217678433746" lon="12.68184672989794"><ele>72.0</ele><time>2026-03-29T17:24:37.999Z</time></trkpt><trkpt lat="41.60204371709098" lon="12.681963351060105"><ele>72.0</ele><time>2026-03-29T17:24:38.999Z</time></trkpt><trkpt lat="41.601893663613914" lon="12.68205944122932"><ele>71.33333333333333</ele><time>2026-03-29T17:24:39.999Z</time></trkpt><trkpt lat="41.60173868547766" lon="12.682184055337412"><ele>70.66666666666666</ele><time>2026-03-29T17:24:40.999Z</time></trkpt><trkpt lat="41.601571918896006" lon="12.68231852052785"><ele>70.0</ele><time>2026-03-29T17:24:41.999Z</time></trkpt><trkpt lat="41.60139766819242" lon="12.682459020341357"><ele>70.0</ele><time>2026-03-29T17:24:42.999Z</time></trkpt><trkpt lat="41.601213234855976" lon="12.682604779994538"><ele>70.0</ele><time>2026-03-29T17:24:43.999Z</time></trkpt><trkpt lat="41.60103362506102" lon="12.682746335988817"><ele>70.0</ele><time>2026-03-29T17:24:44.999Z</time></trkpt><trkpt lat="41.60084928511653" lon="12.682891619950317"><ele>69.0</ele><time>2026-03-29T17:24:45.999Z</time></trkpt><trkpt lat="41.60067592590974" lon="12.683029820442824"><ele>68.0</ele><time>2026-03-29T17:24:46.999Z</time></trkpt><trkpt lat="41.600532711539906" lon="12.683175577709541"><ele>67.0</ele><time>2026-03-29T17:24:47.999Z</time></trkpt><trkpt lat="41.60040154798368" lon="12.68326944537684"><ele>67.0</ele><time>2026-03-29T17:24:48.999Z</time></trkpt><trkpt lat="41.60029134541719" lon="12.683339753227427"><ele>67.0</ele><time>2026-03-29T17:24:49.999Z</time></trkpt><trkpt lat="41.60017390192561" lon="12.683419788584029"><ele>67.0</ele><time>2026-03-29T17:24:50.999Z</time></trkpt><trkpt lat="41.600033494071546" lon="12.68353576820121"><ele>67.0</ele><time>2026-03-29T17:24:51.999Z</time></trkpt><trkpt lat="41.59986773645625" lon="12.683676653520278"><ele>67.0</ele><time>2026-03-29T17:24:52.999Z</time></trkpt><trkpt lat="41.59968592157364" lon="12.683826034385461"><ele>67.0</ele><time>2026-03-29T17:24:53.999Z</time></trkpt><trkpt lat="41.59949056552947" lon="12.683960028919335"><ele>67.0</ele><time>2026-03-29T17:24:54.999Z</time></trkpt><trkpt lat="41.59930215596415" lon="12.684108164968986"><ele>67.0</ele><time>2026-03-29T17:24:55.999Z</time></trkpt><trkpt lat="41.59910979478954" lon="12.68426130582789"><ele>67.0</ele><time>2026-03-29T17:24:56.999Z</time></trkpt><trkpt lat="41.5989277043668" lon="12.684431566308332"><ele>67.0</ele><time>2026-03-29T17:24:57.999Z</time></trkpt><trkpt lat="41.59872590931605" lon="12.684565305395367"><ele>66.0</ele><time>2026-03-29T17:24:58.999Z</time></trkpt><trkpt lat="41.598533066472065" lon="12.68471657474228"><ele>65.0</ele><time>2026-03-29T17:24:59.999Z</time></trkpt><trkpt lat="41.5983358312898" lon="12.684872694291048"><ele>65.0</ele><time>2026-03-29T17:25:00.999Z</time></trkpt><trkpt lat="41.59814338403146" lon="12.68504643730657"><ele>65.0</ele><time>2026-03-29T17:25:01.999Z</time></trkpt><trkpt lat="41.59793806219662" lon="12.685204262491686"><ele>65.5</ele><time>2026-03-29T17:25:02.999Z</time></trkpt><trkpt lat="41.59772961395886" lon="12.685364980005147"><ele>66.0</ele><time>2026-03-29T17:25:03.999Z</time></trkpt><trkpt lat="41.59751965534376" lon="12.685529133208082"><ele>66.0</ele><time>2026-03-29T17:25:04.999Z</time></trkpt><trkpt lat="41.59731168694884" lon="12.68569327361528"><ele>66.0</ele><time>2026-03-29T17:25:05.999Z</time></trkpt><trkpt lat="41.59710163536827" lon="12.685855935926758"><ele>65.5</ele><time>2026-03-29T17:25:06.999Z</time></trkpt><trkpt lat="41.59689852310915" lon="12.686021339977263"><ele>65.0</ele><time>2026-03-29T17:25:07.999Z</time></trkpt><trkpt lat="41.596701771275725" lon="12.686207618104364"><ele>65.0</ele><time>2026-03-29T17:25:08.999Z</time></trkpt><trkpt lat="41.59651870788762" lon="12.686428389934747"><ele>65.0</ele><time>2026-03-29T17:25:09.999Z</time></trkpt><trkpt lat="41.596349620182885" lon="12.68668081348167"><ele>65.0</ele><time>2026-03-29T17:25:10.999Z</time></trkpt><trkpt lat="41.59619204768151" lon="12.686955006369192"><ele>65.0</ele><time>2026-03-29T17:25:11.999Z</time></trkpt><trkpt lat="41.596036299156395" lon="12.687238354769992"><ele>64.5</ele><time>2026-03-29T17:25:12.999Z</time></trkpt><trkpt lat="41.595879810394706" lon="12.687520917686301"><ele>64.0</ele><time>2026-03-29T17:25:13.999Z</time></trkpt><trkpt lat="41.587243069618246" lon="12.700848256130431"><ele>62.0</ele><time>2026-03-29T17:26:15Z</time></trkpt><trkpt lat="41.5870288600322" lon="12.70088672889354"><ele>60.0</ele><time>2026-03-29T17:26:16Z</time></trkpt><trkpt lat="41.586819743392695" lon="12.70092641319202"><ele>58.0</ele><time>2026-03-29T17:26:17Z</time></trkpt><trkpt lat="41.586591053294626" lon="12.700970469054758"><ele>58.0</ele><time>2026-03-29T17:26:18Z</time></trkpt><trkpt lat="41.58637251785492" lon="12.701010974382436"><ele>58.0</ele><time>2026-03-29T17:26:19Z</time></trkpt><trkpt lat="41.58615694581314" lon="12.701047681962255"><ele>58.0</ele><time>2026-03-29T17:26:20Z</time></trkpt><trkpt lat="41.58594016133835" lon="12.701084631584147"><ele>57.33333333333333</ele><time>2026-03-29T17:26:21Z</time></trkpt><trkpt lat="41.58571939230756" lon="12.70112318878079"><ele>56.66666666666667</ele><time>2026-03-29T17:26:22Z</time></trkpt><trkpt lat="41.58549458703712" lon="12.701162668576073"><ele>56.0</ele><time>2026-03-29T17:26:23Z</time></trkpt><trkpt lat="41.58527472745005" lon="12.701200748987324"><ele>55.5</ele><time>2026-03-29T17:26:24Z</time></trkpt><trkpt lat="41.58504906073736" lon="12.701239817474821"><ele>55.0</ele><time>2026-03-29T17:26:25Z</time></trkpt><trkpt lat="41.584821529534274" lon="12.701282725421695"><ele>55.0</ele><time>2026-03-29T17:26:26Z</time></trkpt><trkpt lat="41.5845880508168" lon="12.701327086623394"><ele>55.0</ele><time>2026-03-29T17:26:27Z</time></trkpt><trkpt lat="41.58435302959141" lon="12.701371420280664"><ele>55.5</ele><time>2026-03-29T17:26:28Z</time></trkpt><trkpt lat="41.58411236317072" lon="12.701390545553492"><ele>56.0</ele><time>2026-03-29T17:26:29Z</time></trkpt><trkpt lat="41.58388150832794" lon="12.701450419800924"><ele>55.5</ele><time>2026-03-29T17:26:30Z</time></trkpt><trkpt lat="41.5836338982965" lon="12.70149013741828"><ele>55.0</ele><time>2026-03-29T17:26:31Z</time></trkpt><trkpt lat="41.58339852956342" lon="12.701532270643044"><ele>55.0</ele><time>2026-03-29T17:26:32Z</time></trkpt><trkpt lat="41.58315178791261" lon="12.701576659652094"><ele>55.0</ele><time>2026-03-29T17:26:32.999Z</time></trkpt><trkpt lat="41.58290785882107" lon="12.701619863936031"><ele>54.5</ele><time>2026-03-29T17:26:33.999Z</time></trkpt><trkpt lat="41.58266080843763" lon="12.70166421018666"><ele>54.0</ele><time>2026-03-29T17:26:34.999Z</time></trkpt><trkpt lat="41.582408512225655" lon="12.701710972788211"><ele>54.0</ele><time>2026-03-29T17:26:35.999Z</time></trkpt><trkpt lat="41.5821591817473" lon="12.70175689107495"><ele>54.0</ele><time>2026-03-29T17:26:36.999Z</time></trkpt><trkpt lat="41.58191094330316" lon="12.701802113703273"><ele>56.0</ele><time>2026-03-29T17:26:37.999Z</time></trkpt><trkpt lat="41.5816554244508" lon="12.701853249260088"><ele>58.0</ele><time>2026-03-29T17:26:38.999Z</time></trkpt><trkpt lat="41.58140074048285" lon="12.701906237227778"><ele>57.0</ele><time>2026-03-29T17:26:39.999Z</time></trkpt><trkpt lat="41.58114578828108" lon="12.701957659953706"><ele>56.0</ele><time>2026-03-29T17:26:40.999Z</time></trkpt><trkpt lat="41.58088840989074" lon="12.702005506241564"><ele>56.0</ele><time>2026-03-29T17:26:41.999Z</time></trkpt><trkpt lat="41.58063422132406" lon="12.70204852888626"><ele>56.0</ele><time>2026-03-29T17:26:42.999Z</time></trkpt><trkpt lat="41.580376112567535" lon="12.702091685432837"><ele>55.5</ele><time>2026-03-29T17:26:43.999Z</time></trkpt><trkpt lat="41.580114084200375" lon="12.702136350662473"><ele>55.0</ele><time>2026-03-29T17:26:44.999Z</time></trkpt><trkpt lat="41.57985570745467" lon="12.702186675758789"><ele>55.0</ele><time>2026-03-29T17:26:45.999Z</time></trkpt><trkpt lat="41.57959552640119" lon="12.702237096724508"><ele>55.0</ele><time>2026-03-29T17:26:46.999Z</time></trkpt><trkpt lat="41.579333079073685" lon="12.702289536530115"><ele>55.0</ele><time>2026-03-29T17:26:47.999Z</time></trkpt><trkpt lat="41.57906687584531" lon="12.702340371419774"><ele>55.0</ele><time>2026-03-29T17:26:48.999Z</time></trkpt><trkpt lat="41.578814676543935" lon="12.702390279121754"><ele>54.5</ele><time>2026-03-29T17:26:49.999Z</time></trkpt><trkpt lat="41.57857111123035" lon="12.70243879343712"><ele>54.0</ele><time>2026-03-29T17:26:50.999Z</time></trkpt><trkpt lat="41.57834266090163" lon="12.702482306396556"><ele>54.0</ele><time>2026-03-29T17:26:51.999Z</time></trkpt><trkpt lat="41.57810876462904" lon="12.702528194280173"><ele>54.0</ele><time>2026-03-29T17:26:52.999Z</time></trkpt><trkpt lat="41.57788903090782" lon="12.70257597840252"><ele>54.5</ele><time>2026-03-29T17:26:53.999Z</time></trkpt><trkpt lat="41.577671031672054" lon="12.702615120117702"><ele>55.0</ele><time>2026-03-29T17:26:54.999Z</time></trkpt><trkpt lat="41.577426278482065" lon="12.702603468885"><ele>55.0</ele><time>2026-03-29T17:26:55.999Z</time></trkpt><trkpt lat="41.57718539422788" lon="12.702612031031673"><ele>55.0</ele><time>2026-03-29T17:26:56.999Z</time></trkpt><trkpt lat="41.576932454902504" lon="12.702583440699255"><ele>55.0</ele><time>2026-03-29T17:26:57.999Z</time></trkpt><trkpt lat="41.57667396762726" lon="12.7025656849886"><ele>55.0</ele><time>2026-03-29T17:26:58.999Z</time></trkpt><trkpt lat="41.57641080703628" lon="12.702556742841699"><ele>54.5</ele><time>2026-03-29T17:26:59.999Z</time></trkpt><trkpt lat="41.57614993962137" lon="12.702553749194454"><ele>54.0</ele><time>2026-03-29T17:27:00.999Z</time></trkpt><trkpt lat="41.575899317959916" lon="12.702554683839118"><ele>54.0</ele><time>2026-03-29T17:27:01.999Z</time></trkpt><trkpt lat="41.57563642430944" lon="12.702554674315879"><ele>54.0</ele><time>2026-03-29T17:27:02.999Z</time></trkpt><trkpt lat="41.575375620260935" lon="12.702553473305159"><ele>53.5</ele><time>2026-03-29T17:27:03.999Z</time></trkpt><trkpt lat="41.57511893937193" lon="12.702551676324191"><ele>53.0</ele><time>2026-03-29T17:27:04.999Z</time></trkpt><trkpt lat="41.57486185030115" lon="12.702545957838243"><ele>53.0</ele><time>2026-03-29T17:27:05.999Z</time></trkpt><trkpt lat="41.57461186448364" lon="12.702541957164584"><ele>53.0</ele><time>2026-03-29T17:27:06.999Z</time></trkpt><trkpt lat="41.57435713045036" lon="12.702535584691642"><ele>53.5</ele><time>2026-03-29T17:27:07.999Z</time></trkpt><trkpt lat="41.57410292032621" lon="12.702532718749797"><ele>54.0</ele><time>2026-03-29T17:27:08.999Z</time></trkpt><trkpt lat="41.57385062495637" lon="12.7025336193857"><ele>53.5</ele><time>2026-03-29T17:27:09.999Z</time></trkpt><trkpt lat="41.57359103905521" lon="12.702529650794924"><ele>53.0</ele><time>2026-03-29T17:27:10.999Z</time></trkpt><trkpt lat="41.573333688689466" lon="12.702530966939067"><ele>53.0</ele><time>2026-03-29T17:27:11.999Z</time></trkpt><trkpt lat="41.57307777209356" lon="12.702533291990228"><ele>53.0</ele><time>2026-03-29T17:27:12.999Z</time></trkpt><trkpt lat="41.572834860165194" lon="12.702535468932462"><ele>45.0</ele><time>2026-03-29T17:27:13.999Z</time></trkpt><trkpt lat="41.559797788335864" lon="12.704032480177839"><ele>45.0</ele><time>2026-03-29T17:28:15Z</time></trkpt><trkpt lat="41.5595355886567" lon="12.704102664120263"><ele>45.0</ele><time>2026-03-29T17:28:16Z</time></trkpt><trkpt lat="41.55926648897843" lon="12.7041688343739"><ele>46.0</ele><time>2026-03-29T17:28:17Z</time></trkpt><trkpt lat="41.55899352869209" lon="12.704235943689232"><ele>47.0</ele><time>2026-03-29T17:28:18Z</time></trkpt><trkpt lat="41.55871652639545" lon="12.704305396177428"><ele>46.5</ele><time>2026-03-29T17:28:19Z</time></trkpt><trkpt lat="41.55845706344177" lon="12.704371750302649"><ele>46.0</ele><time>2026-03-29T17:28:20Z</time></trkpt><trkpt lat="41.558206200669794" lon="12.7044367247492"><ele>46.0</ele><time>2026-03-29T17:28:21Z</time></trkpt><trkpt lat="41.557966709558606" lon="12.70449391003259"><ele>46.0</ele><time>2026-03-29T17:28:22Z</time></trkpt><trkpt lat="41.55771779359343" lon="12.704537456305202"><ele>46.0</ele><time>2026-03-29T17:28:23Z</time></trkpt><trkpt lat="41.557452602720794" lon="12.70456071119271"><ele>46.0</ele><time>2026-03-29T17:28:24Z</time></trkpt><trkpt lat="41.55717795250085" lon="12.70457113772591"><ele>46.0</ele><time>2026-03-29T17:28:25Z</time></trkpt><trkpt lat="41.556903820952655" lon="12.704580636037354"><ele>46.0</ele><time>2026-03-29T17:28:26Z</time></trkpt><trkpt lat="41.556638257873935" lon="12.704589376926721"><ele>46.0</ele><time>2026-03-29T17:28:27Z</time></trkpt><trkpt lat="41.55639520572842" lon="12.70459740955298"><ele>46.0</ele><time>2026-03-29T17:28:28Z</time></trkpt><trkpt lat="41.55616705136969" lon="12.704603303257501"><ele>47.5</ele><time>2026-03-29T17:28:29Z</time></trkpt><trkpt lat="41.555939092586215" lon="12.704601571715418"><ele>49.0</ele><time>2026-03-29T17:28:30Z</time></trkpt><trkpt lat="41.55570063696585" lon="12.704583629742228"><ele>49.0</ele><time>2026-03-29T17:28:31Z</time></trkpt><trkpt lat="41.55548135507313" lon="12.704552225781756"><ele>49.0</ele><time>2026-03-29T17:28:32Z</time></trkpt><trkpt lat="41.55529147387638" lon="12.70452319510885"><ele>49.0</ele><time>2026-03-29T17:28:33Z</time></trkpt><trkpt lat="41.555112239671445" lon="12.704489843321854"><ele>48.33333333333333</ele><time>2026-03-29T17:28:34Z</time></trkpt><trkpt lat="41.55492985054107" lon="12.704438536061918"><ele>47.666666666666664</ele><time>2026-03-29T17:28:35Z</time></trkpt><trkpt lat="41.55473613992245" lon="12.70436027905466"><ele>47.0</ele><time>2026-03-29T17:28:36Z</time></trkpt><trkpt lat="41.55454622522393" lon="12.704266644238274"><ele>46.666666666666664</ele><time>2026-03-29T17:28:37Z</time></trkpt><trkpt lat="41.55437919212059" lon="12.70418115670701"><ele>46.333333333333336</ele><time>2026-03-29T17:28:38Z</time></trkpt><trkpt lat="41.554218434982474" lon="12.70409612041886"><ele>46.0</ele><time>2026-03-29T17:28:39Z</time></trkpt><trkpt lat="41.55406536338252" lon="12.70400355958246"><ele>46.0</ele><time>2026-03-29T17:28:39.999Z</time></trkpt><trkpt lat="41.55391175497973" lon="12.703881104213133"><ele>46.0</ele><time>2026-03-29T17:28:40.999Z</time></trkpt><trkpt lat="41.55376586166821" lon="12.703724652315563"><ele>46.0</ele><time>2026-03-29T17:28:41.999Z</time></trkpt><trkpt lat="41.553625723407954" lon="12.703536904388633"><ele>47.0</ele><time>2026-03-29T17:28:42.999Z</time></trkpt><trkpt lat="41.55349036289823" lon="12.703324846382792"><ele>48.0</ele><time>2026-03-29T17:28:43.999Z</time></trkpt><trkpt lat="41.553360963391356" lon="12.703085313052364"><ele>49.0</ele><time>2026-03-29T17:28:44.999Z</time></trkpt><trkpt lat="41.553221066438745" lon="12.702840499989547"><ele>49.0</ele><time>2026-03-29T17:28:45.999Z</time></trkpt><trkpt lat="41.55308442550287" lon="12.702603634754468"><ele>49.0</ele><time>2026-03-29T17:28:46.999Z</time></trkpt><trkpt lat="41.55295664777811" lon="12.702383168878875"><ele>49.0</ele><time>2026-03-29T17:28:47.999Z</time></trkpt><trkpt lat="41.552835976437485" lon="12.70217316081574"><ele>49.0</ele><time>2026-03-29T17:28:48.999Z</time></trkpt><trkpt lat="41.5527139142263" lon="12.701962248882046"><ele>49.0</ele><time>2026-03-29T17:28:49.999Z</time></trkpt><trkpt lat="41.55260249238136" lon="12.701766035860636"><ele>49.0</ele><time>2026-03-29T17:28:50.999Z</time></trkpt><trkpt lat="41.55249398996203" lon="12.701570556416065"><ele>49.0</ele><time>2026-03-29T17:28:51.999Z</time></trkpt><trkpt lat="41.55238587974656" lon="12.701369148968425"><ele>49.0</ele><time>2026-03-29T17:28:52.999Z</time></trkpt><trkpt lat="41.55227191339382" lon="12.701165426900687"><ele>49.0</ele><time>2026-03-29T17:28:53.999Z</time></trkpt><trkpt lat="41.552162205727555" lon="12.700979242499267"><ele>49.666666666666664</ele><time>2026-03-29T17:28:54.999Z</time></trkpt><trkpt lat="41.55204871187444" lon="12.700789683989013"><ele>50.33333333333333</ele><time>2026-03-29T17:28:55.999Z</time></trkpt><trkpt lat="41.551939242188205" lon="12.700605500665535"><ele>51.0</ele><time>2026-03-29T17:28:56.999Z</time></trkpt><trkpt lat="41.55183948736917" lon="12.70043794657469"><ele>51.33333333333333</ele><time>2026-03-29T17:28:57.999Z</time></trkpt><trkpt lat="41.55174420643857" lon="12.700279269689421"><ele>51.666666666666664</ele><time>2026-03-29T17:28:58.999Z</time></trkpt><trkpt lat="41.55162856737633" lon="12.700102633809527"><ele>52.0</ele><time>2026-03-29T17:28:59.999Z</time></trkpt><trkpt lat="41.551498492380965" lon="12.699913487288477"><ele>52.666666666666664</ele><time>2026-03-29T17:29:00.999Z</time></trkpt><trkpt lat="41.551370438870535" lon="12.699725893679645"><ele>53.33333333333333</ele><time>2026-03-29T17:29:01.999Z</time></trkpt><trkpt lat="41.55125862912501" lon="12.699562183196816"><ele>54.0</ele><time>2026-03-29T17:29:02.999Z</time></trkpt><trkpt lat="41.55115553271787" lon="12.699410593357765"><ele>54.0</ele><time>2026-03-29T17:29:03.999Z</time></trkpt><trkpt lat="41.55106500223661" lon="12.699285989117628"><ele>54.0</ele><time>2026-03-29T17:29:04.999Z</time></trkpt><trkpt lat="41.55097918837683" lon="12.69917467141725"><ele>54.0</ele><time>2026-03-29T17:29:05.999Z</time></trkpt><trkpt lat="41.55089616509413" lon="12.6990751222358"><ele>54.0</ele><time>2026-03-29T17:29:06.999Z</time></trkpt><trkpt lat="41.55081854092128" lon="12.69900442508142"><ele>54.0</ele><time>2026-03-29T17:29:07.999Z</time></trkpt><trkpt lat="41.550774301232465" lon="12.698936359452462"><ele>54.0</ele><time>2026-03-29T17:29:08.999Z</time></trkpt><trkpt lat="41.55057703728766" lon="12.699020905949714"><ele>54.0</ele><time>2026-03-29T17:29:10.999Z</time></trkpt><trkpt lat="41.55050628320094" lon="12.699127076550395"><ele>54.0</ele><time>2026-03-29T17:29:11.999Z</time></trkpt><trkpt lat="41.550456508531475" lon="12.699283396257439"><ele>53.5</ele><time>2026-03-29T17:29:12.999Z</time></trkpt><trkpt lat="41.550403642507945" lon="12.699441569133107"><ele>53.0</ele><time>2026-03-29T17:29:13.999Z</time></trkpt><trkpt lat="41.54305498521198" lon="12.717003086379222"><ele>48.0</ele><time>2026-03-29T17:30:15Z</time></trkpt><trkpt lat="41.54289029202044" lon="12.717323836883637"><ele>43.0</ele><time>2026-03-29T17:30:16Z</time></trkpt><trkpt lat="41.54273540253742" lon="12.717625166875253"><ele>42.0</ele><time>2026-03-29T17:30:17Z</time></trkpt><trkpt lat="41.54258841317667" lon="12.717914058463137"><ele>41.0</ele><time>2026-03-29T17:30:18Z</time></trkpt><trkpt lat="41.54245157650009" lon="12.718188123741461"><ele>41.0</ele><time>2026-03-29T17:30:19Z</time></trkpt><trkpt lat="41.54231980877531" lon="12.718451581862787"><ele>41.0</ele><time>2026-03-29T17:30:20Z</time></trkpt><trkpt lat="41.542195151882815" lon="12.718703261036643"><ele>41.0</ele><time>2026-03-29T17:30:21Z</time></trkpt><trkpt lat="41.5420779229534" lon="12.718943171177587"><ele>41.0</ele><time>2026-03-29T17:30:22Z</time></trkpt><trkpt lat="41.54196600124081" lon="12.719171014797604"><ele>41.0</ele><time>2026-03-29T17:30:23Z</time></trkpt><trkpt lat="41.54185375157838" lon="12.71939861955154"><ele>40.33333333333333</ele><time>2026-03-29T17:30:24Z</time></trkpt><trkpt lat="41.54173966231407" lon="12.71962986188459"><ele>39.666666666666664</ele><time>2026-03-29T17:30:25Z</time></trkpt><trkpt lat="41.54161694506833" lon="12.719874432550327"><ele>39.0</ele><time>2026-03-29T17:30:26Z</time></trkpt><trkpt lat="41.54149233414962" lon="12.720116728510328"><ele>39.0</ele><time>2026-03-29T17:30:27Z</time></trkpt><trkpt lat="41.5413785579517" lon="12.72034156368071"><ele>39.0</ele><time>2026-03-29T17:30:28Z</time></trkpt><trkpt lat="41.541273329966465" lon="12.720557467213194"><ele>39.0</ele><time>2026-03-29T17:30:29Z</time></trkpt><trkpt lat="41.541168528788575" lon="12.720754041115923"><ele>39.0</ele><time>2026-03-29T17:30:30Z</time></trkpt><trkpt lat="41.54105346269471" lon="12.72092812235563"><ele>39.0</ele><time>2026-03-29T17:30:31Z</time></trkpt><trkpt lat="41.54092561203393" lon="12.721077552018107"><ele>39.0</ele><time>2026-03-29T17:30:32Z</time></trkpt><trkpt lat="41.54078838822744" lon="12.721197172088022"><ele>39.0</ele><time>2026-03-29T17:30:33Z</time></trkpt><trkpt lat="41.54063316432603" lon="12.721287613407142"><ele>39.0</ele><time>2026-03-29T17:30:34Z</time></trkpt><trkpt lat="41.540470912130004" lon="12.72132963539153"><ele>39.0</ele><time>2026-03-29T17:30:35Z</time></trkpt><trkpt lat="41.54032103322755" lon="12.721347112064585"><ele>39.5</ele><time>2026-03-29T17:30:36Z</time></trkpt><trkpt lat="41.54016993596725" lon="12.721282304448192"><ele>40.0</ele><time>2026-03-29T17:30:37Z</time></trkpt><trkpt lat="41.54003144798639" lon="12.721290490861211"><ele>40.5</ele><time>2026-03-29T17:30:38Z</time></trkpt><trkpt lat="41.53991384669553" lon="12.721383472637795"><ele>41.0</ele><time>2026-03-29T17:30:39Z</time></trkpt><trkpt lat="41.539817942740584" lon="12.72153920421659"><ele>41.0</ele><time>2026-03-29T17:30:40Z</time></trkpt><trkpt lat="41.53974493375239" lon="12.721705358541954"><ele>41.0</ele><time>2026-03-29T17:30:41Z</time></trkpt><trkpt lat="41.53967405261892" lon="12.721839799274841"><ele>41.0</ele><time>2026-03-29T17:30:42Z</time></trkpt><trkpt lat="41.53960684515106" lon="12.72191916453221"><ele>41.0</ele><time>2026-03-29T17:30:43Z</time></trkpt><trkpt lat="41.539549224521544" lon="12.722008913410445"><ele>41.0</ele><time>2026-03-29T17:30:44.999Z</time></trkpt><trkpt lat="41.539418694869575" lon="12.721907387428711"><ele>41.75</ele><time>2026-03-29T17:30:45.999Z</time></trkpt><trkpt lat="41.539350800280964" lon="12.721833808078365"><ele>42.5</ele><time>2026-03-29T17:30:46.999Z</time></trkpt><trkpt lat="41.539279293071665" lon="12.721705515462896"><ele>43.25</ele><time>2026-03-29T17:30:47.999Z</time></trkpt><trkpt lat="41.53919374976735" lon="12.72153509901346"><ele>44.0</ele><time>2026-03-29T17:30:48.999Z</time></trkpt><trkpt lat="41.539092928155064" lon="12.72133936383135"><ele>44.0</ele><time>2026-03-29T17:30:49.999Z</time></trkpt><trkpt lat="41.53898609961179" lon="12.721136499999139"><ele>44.0</ele><time>2026-03-29T17:30:50.999Z</time></trkpt><trkpt lat="41.53886902900935" lon="12.720907762224293"><ele>44.0</ele><time>2026-03-29T17:30:51.999Z</time></trkpt><trkpt lat="41.538742321919734" lon="12.720662866276424"><ele>44.5</ele><time>2026-03-29T17:30:52.999Z</time></trkpt><trkpt lat="41.53861307662306" lon="12.720413134186057"><ele>45.0</ele><time>2026-03-29T17:30:53.999Z</time></trkpt><trkpt lat="41.53847573400195" lon="12.720140884655498"><ele>47.0</ele><time>2026-03-29T17:30:54.999Z</time></trkpt><trkpt lat="41.538343318677164" lon="12.719883647153914"><ele>49.0</ele><time>2026-03-29T17:30:55.999Z</time></trkpt><trkpt lat="41.538219069294406" lon="12.7196435779162"><ele>49.0</ele><time>2026-03-29T17:30:56.999Z</time></trkpt><trkpt lat="41.538096078485395" lon="12.719407317600302"><ele>49.0</ele><time>2026-03-29T17:30:57.999Z</time></trkpt><trkpt lat="41.537978254866005" lon="12.719173499888875"><ele>49.0</ele><time>2026-03-29T17:30:58.999Z</time></trkpt><trkpt lat="41.537868424405005" lon="12.718941244970287"><ele>49.33333333333333</ele><time>2026-03-29T17:30:59.999Z</time></trkpt><trkpt lat="41.53776681670608" lon="12.71870332034331"><ele>49.66666666666667</ele><time>2026-03-29T17:31:00.999Z</time></trkpt><trkpt lat="41.53766652882257" lon="12.718450549492925"><ele>50.0</ele><time>2026-03-29T17:31:01.999Z</time></trkpt><trkpt lat="41.53756854927551" lon="12.718187960742304"><ele>50.0</ele><time>2026-03-29T17:31:02.999Z</time></trkpt><trkpt lat="41.53746990205082" lon="12.71792056527554"><ele>50.0</ele><time>2026-03-29T17:31:03.999Z</time></trkpt><trkpt lat="41.53737360942804" lon="12.717650820080898"><ele>50.0</ele><time>2026-03-29T17:31:04.999Z</time></trkpt><trkpt lat="41.53727897647636" lon="12.717381304878652"><ele>50.5</ele><time>2026-03-29T17:31:05.999Z</time></trkpt><trkpt lat="41.537182551163845" lon="12.717108649870308"><ele>51.0</ele><time>2026-03-29T17:31:06.999Z</time></trkpt><trkpt lat="41.53708422765032" lon="12.716833003418378"><ele>51.0</ele><time>2026-03-29T17:31:07.999Z</time></trkpt><trkpt lat="41.53698473363406" lon="12.716555704756761"><ele>51.0</ele><time>2026-03-29T17:31:08.999Z</time></trkpt><trkpt lat="41.53688332397736" lon="12.716269859401592"><ele>52.0</ele><time>2026-03-29T17:31:09.999Z</time></trkpt><trkpt lat="41.53677997464473" lon="12.7159849882509"><ele>53.0</ele><time>2026-03-29T17:31:10.999Z</time></trkpt><trkpt lat="41.53667535894315" lon="12.715701629653488"><ele>53.0</ele><time>2026-03-29T17:31:11.999Z</time></trkpt><trkpt lat="41.536568036618526" lon="12.715415043893461"><ele>53.0</ele><time>2026-03-29T17:31:12.999Z</time></trkpt><trkpt lat="41.53645584971735" lon="12.715134938653645"><ele>63.0</ele><time>2026-03-29T17:31:13.999Z</time></trkpt><trkpt lat="41.52486291575046" lon="12.704147535998457"><ele>63.0</ele><time>2026-03-29T17:32:15Z</time></trkpt><trkpt lat="41.52469119885193" lon="12.70403636974227"><ele>63.0</ele><time>2026-03-29T17:32:16Z</time></trkpt><trkpt lat="41.5245067892747" lon="12.703921723461216"><ele>63.0</ele><time>2026-03-29T17:32:17Z</time></trkpt><trkpt lat="41.524301583757016" lon="12.703795791203358"><ele>63.5</ele><time>2026-03-29T17:32:18Z</time></trkpt><trkpt lat="41.52407740820541" lon="12.703648528503404"><ele>64.0</ele><time>2026-03-29T17:32:19Z</time></trkpt><trkpt lat="41.5238582453672" lon="12.703491335897946"><ele>64.5</ele><time>2026-03-29T17:32:20Z</time></trkpt><trkpt lat="41.52364241949089" lon="12.703340327451729"><ele>65.0</ele><time>2026-03-29T17:32:21Z</time></trkpt><trkpt lat="41.52342074226761" lon="12.703191358852225"><ele>65.0</ele><time>2026-03-29T17:32:22Z</time></trkpt><trkpt lat="41.52318940313734" lon="12.703045396674613"><ele>65.0</ele><time>2026-03-29T17:32:23Z</time></trkpt><trkpt lat="41.5229581813769" lon="12.702896606341207"><ele>65.5</ele><time>2026-03-29T17:32:24Z</time></trkpt><trkpt lat="41.522727142115144" lon="12.702742549043268"><ele>66.0</ele><time>2026-03-29T17:32:25Z</time></trkpt><trkpt lat="41.52250761625811" lon="12.70259553522604"><ele>66.0</ele><time>2026-03-29T17:32:26Z</time></trkpt><trkpt lat="41.52229054272641" lon="12.70245084367069"><ele>66.0</ele><time>2026-03-29T17:32:27Z</time></trkpt><trkpt lat="41.52208051319326" lon="12.702310859662113"><ele>65.66666666666667</ele><time>2026-03-29T17:32:28Z</time></trkpt><trkpt lat="41.521873956033936" lon="12.702179672532406"><ele>65.33333333333334</ele><time>2026-03-29T17:32:29Z</time></trkpt><trkpt lat="41.52167962712911" lon="12.702059380565707"><ele>65.0</ele><time>2026-03-29T17:32:30Z</time></trkpt><trkpt lat="41.5214946407466" lon="12.701954233461127"><ele>65.0</ele><time>2026-03-29T17:32:31Z</time></trkpt><trkpt lat="41.521312310577656" lon="12.701861791547612"><ele>65.0</ele><time>2026-03-29T17:32:32Z</time></trkpt><trkpt lat="41.52112896347218" lon="12.701784171843439"><ele>65.0</ele><time>2026-03-29T17:32:33Z</time></trkpt><trkpt lat="41.52094274496831" lon="12.701719784475236"><ele>65.33333333333334</ele><time>2026-03-29T17:32:34Z</time></trkpt><trkpt lat="41.52075236291154" lon="12.70166440733892"><ele>65.66666666666667</ele><time>2026-03-29T17:32:35Z</time></trkpt><trkpt lat="41.520560958421456" lon="12.70161707731573"><ele>66.0</ele><time>2026-03-29T17:32:36Z</time></trkpt><trkpt lat="41.52036646783904" lon="12.701581542386553"><ele>66.33333333333333</ele><time>2026-03-29T17:32:37Z</time></trkpt><trkpt lat="41.52017503691933" lon="12.701553884490082"><ele>66.66666666666666</ele><time>2026-03-29T17:32:38Z</time></trkpt><trkpt lat="41.51997847995008" lon="12.701549253263298"><ele>67.0</ele><time>2026-03-29T17:32:39Z</time></trkpt><trkpt lat="41.51975745113301" lon="12.701558517603939"><ele>66.0</ele><time>2026-03-29T17:32:40Z</time></trkpt><trkpt lat="41.51952772297009" lon="12.701571772770805"><ele>65.0</ele><time>2026-03-29T17:32:41Z</time></trkpt><trkpt lat="41.51930089822949" lon="12.70159133635133"><ele>65.0</ele><time>2026-03-29T17:32:42Z</time></trkpt><trkpt lat="41.51908026817009" lon="12.70162579964667"><ele>65.0</ele><time>2026-03-29T17:32:43Z</time></trkpt><trkpt lat="41.518873007354806" lon="12.701671844593236"><ele>65.0</ele><time>2026-03-29T17:32:44Z</time></trkpt><trkpt lat="41.51866231294124" lon="12.701719019287623"><ele>65.5</ele><time>2026-03-29T17:32:45Z</time></trkpt><trkpt lat="41.518426190127414" lon="12.701745842538141"><ele>66.0</ele><time>2026-03-29T17:32:45.999Z</time></trkpt><trkpt lat="41.518184029743175" lon="12.701794175561743"><ele>66.0</ele><time>2026-03-29T17:32:46.999Z</time></trkpt><trkpt lat="41.517940659033535" lon="12.701861784589877"><ele>66.0</ele><time>2026-03-29T17:32:47.999Z</time></trkpt><trkpt lat="41.51768741938918" lon="12.701904849665796"><ele>66.0</ele><time>2026-03-29T17:32:48.999Z</time></trkpt><trkpt lat="41.51743275319384" lon="12.701949929224325"><ele>66.0</ele><time>2026-03-29T17:32:49.999Z</time></trkpt><trkpt lat="41.51718574980352" lon="12.701996796078951"><ele>66.0</ele><time>2026-03-29T17:32:50.999Z</time></trkpt><trkpt lat="41.51694823821736" lon="12.702039403961766"><ele>66.0</ele><time>2026-03-29T17:32:51.999Z</time></trkpt><trkpt lat="41.51671294127776" lon="12.702082475411276"><ele>66.0</ele><time>2026-03-29T17:32:52.999Z</time></trkpt><trkpt lat="41.51649643872919" lon="12.702122240988581"><ele>66.0</ele><time>2026-03-29T17:32:53.999Z</time></trkpt><trkpt lat="41.516292708956556" lon="12.702162216664036"><ele>66.0</ele><time>2026-03-29T17:32:54.999Z</time></trkpt><trkpt lat="41.51609220924353" lon="12.702197536193495"><ele>66.33333333333333</ele><time>2026-03-29T17:32:55.999Z</time></trkpt><trkpt lat="41.515897560812" lon="12.702220624824777"><ele>66.66666666666666</ele><time>2026-03-29T17:32:56.999Z</time></trkpt><trkpt lat="41.51571381691359" lon="12.70223155552512"><ele>67.0</ele><time>2026-03-29T17:32:57.999Z</time></trkpt><trkpt lat="41.515539001049476" lon="12.702219929915621"><ele>67.25</ele><time>2026-03-29T17:32:58.999Z</time></trkpt><trkpt lat="41.51538736555003" lon="12.702194597010521"><ele>67.5</ele><time>2026-03-29T17:32:59.999Z</time></trkpt><trkpt lat="41.51526114494104" lon="12.70216127237731"><ele>67.75</ele><time>2026-03-29T17:33:00.999Z</time></trkpt><trkpt lat="41.51513913236461" lon="12.70212296999122"><ele>68.0</ele><time>2026-03-29T17:33:01.999Z</time></trkpt><trkpt lat="41.51500394107297" lon="12.70207173919885"><ele>68.0</ele><time>2026-03-29T17:33:02.999Z</time></trkpt><trkpt lat="41.51485749298219" lon="12.702003870157494"><ele>68.0</ele><time>2026-03-29T17:33:03.999Z</time></trkpt><trkpt lat="41.51471363073682" lon="12.701932242600014"><ele>68.0</ele><time>2026-03-29T17:33:04.999Z</time></trkpt><trkpt lat="41.514576149564455" lon="12.701850405442261"><ele>68.0</ele><time>2026-03-29T17:33:05.999Z</time></trkpt><trkpt lat="41.51443201024208" lon="12.701756150809073"><ele>68.0</ele><time>2026-03-29T17:33:06.999Z</time></trkpt><trkpt lat="41.51429267363916" lon="12.701651011615104"><ele>68.0</ele><time>2026-03-29T17:33:07.999Z</time></trkpt><trkpt lat="41.51417208908919" lon="12.701543268736343"><ele>68.0</ele><time>2026-03-29T17:33:08.999Z</time></trkpt><trkpt lat="41.51407548607597" lon="12.701440737070024"><ele>68.0</ele><time>2026-03-29T17:33:09.999Z</time></trkpt><trkpt lat="41.51397414504846" lon="12.701336368424501"><ele>68.0</ele><time>2026-03-29T17:33:10.999Z</time></trkpt><trkpt lat="41.51386744623093" lon="12.701203316329929"><ele>68.0</ele><time>2026-03-29T17:33:11.999Z</time></trkpt><trkpt lat="41.51375532805114" lon="12.701053461426103"><ele>68.0</ele><time>2026-03-29T17:33:12.999Z</time></trkpt><trkpt lat="41.51365123984034" lon="12.700897830427841"><ele>68.0</ele><time>2026-03-29T17:33:13.999Z</time></trkpt><trkpt lat="41.504146942894906" lon="12.68779212939301"><ele>64.33333333333334</ele><time>2026-03-29T17:34:15Z</time></trkpt><trkpt lat="41.50397148979928" lon="12.687662703218697"><ele>60.66666666666667</ele><time>2026-03-29T17:34:16Z</time></trkpt><trkpt lat="41.503819079743195" lon="12.687531604351152"><ele>57.0</ele><time>2026-03-29T17:34:17Z</time></trkpt><trkpt lat="41.50369458942395" lon="12.687392527485446"><ele>56.5</ele><time>2026-03-29T17:34:18Z</time></trkpt><trkpt lat="41.50358331674453" lon="12.687256606190278"><ele>56.0</ele><time>2026-03-29T17:34:19Z</time></trkpt><trkpt lat="41.503467699596555" lon="12.68711906863951"><ele>55.5</ele><time>2026-03-29T17:34:20Z</time></trkpt><trkpt lat="41.50336107882261" lon="12.686993620943129"><ele>55.0</ele><time>2026-03-29T17:34:21Z</time></trkpt><trkpt lat="41.503243052888855" lon="12.686862484615386"><ele>54.666666666666664</ele><time>2026-03-29T17:34:22Z</time></trkpt><trkpt lat="41.503106930994036" lon="12.686710666343691"><ele>54.33333333333333</ele><time>2026-03-29T17:34:23Z</time></trkpt><trkpt lat="41.5029624013047" lon="12.686540177039385"><ele>54.0</ele><time>2026-03-29T17:34:24Z</time></trkpt><trkpt lat="41.502810342032504" lon="12.686360979772662"><ele>52.66666666666667</ele><time>2026-03-29T17:34:25Z</time></trkpt><trkpt lat="41.50264827737083" lon="12.686193224530832"><ele>51.333333333333336</ele><time>2026-03-29T17:34:26Z</time></trkpt><trkpt lat="41.502474586465816" lon="12.68603395221626"><ele>50.0</ele><time>2026-03-29T17:34:27Z</time></trkpt><trkpt lat="41.50229304519684" lon="12.685890522137424"><ele>50.0</ele><time>2026-03-29T17:34:28Z</time></trkpt><trkpt lat="41.502110218405626" lon="12.685762289658866"><ele>50.0</ele><time>2026-03-29T17:34:29Z</time></trkpt><trkpt lat="41.50194428354084" lon="12.685655562728765"><ele>50.0</ele><time>2026-03-29T17:34:30Z</time></trkpt><trkpt lat="41.50179600520672" lon="12.68556442725199"><ele>49.75</ele><time>2026-03-29T17:34:31Z</time></trkpt><trkpt lat="41.501668250225514" lon="12.685485707975527"><ele>49.5</ele><time>2026-03-29T17:34:32Z</time></trkpt><trkpt lat="41.501554354972946" lon="12.685412893833963"><ele>49.25</ele><time>2026-03-29T17:34:33Z</time></trkpt><trkpt lat="41.5014608660586" lon="12.685351170948138"><ele>49.0</ele><time>2026-03-29T17:34:34Z</time></trkpt><trkpt lat="41.501382494978735" lon="12.68529097084845"><ele>48.5</ele><time>2026-03-29T17:34:35Z</time></trkpt><trkpt lat="41.50129648798458" lon="12.685210835524353"><ele>48.0</ele><time>2026-03-29T17:34:36Z</time></trkpt><trkpt lat="41.50119454877874" lon="12.68513492694414"><ele>47.5</ele><time>2026-03-29T17:34:37Z</time></trkpt><trkpt lat="41.501072733626366" lon="12.685087409106071"><ele>47.0</ele><time>2026-03-29T17:34:38Z</time></trkpt><trkpt lat="41.500929743518014" lon="12.685019186362954"><ele>46.33333333333333</ele><time>2026-03-29T17:34:39Z</time></trkpt><trkpt lat="41.50077988647047" lon="12.684914859330194"><ele>45.666666666666664</ele><time>2026-03-29T17:34:40Z</time></trkpt><trkpt lat="41.500622243399114" lon="12.684786053202087"><ele>45.0</ele><time>2026-03-29T17:34:41Z</time></trkpt><trkpt lat="41.50043566199633" lon="12.684630084174293"><ele>44.5</ele><time>2026-03-29T17:34:42Z</time></trkpt><trkpt lat="41.500239708859176" lon="12.68445679884083"><ele>44.0</ele><time>2026-03-29T17:34:43Z</time></trkpt><trkpt lat="41.50002450739454" lon="12.684262246253226"><ele>44.0</ele><time>2026-03-29T17:34:44Z</time></trkpt><trkpt lat="41.4998097805697" lon="12.684071745581635"><ele>44.0</ele><time>2026-03-29T17:34:45Z</time></trkpt><trkpt lat="41.499620389115385" lon="12.683900076141278"><ele>43.0</ele><time>2026-03-29T17:34:46Z</time></trkpt><trkpt lat="41.49944388291488" lon="12.68373649860905"><ele>42.0</ele><time>2026-03-29T17:34:47Z</time></trkpt><trkpt lat="41.499278596974335" lon="12.683587754384936"><ele>41.0</ele><time>2026-03-29T17:34:48Z</time></trkpt><trkpt lat="41.499118853999825" lon="12.683445093890077"><ele>41.0</ele><time>2026-03-29T17:34:49Z</time></trkpt><trkpt lat="41.49893930646344" lon="12.683293117294538"><ele>41.0</ele><time>2026-03-29T17:34:50Z</time></trkpt><trkpt lat="41.49873160866169" lon="12.68310955736067"><ele>40.0</ele><time>2026-03-29T17:34:50.999Z</time></trkpt><trkpt lat="41.49852981032999" lon="12.68290139309439"><ele>39.0</ele><time>2026-03-29T17:34:51.999Z</time></trkpt><trkpt lat="41.49834261455399" lon="12.68270058916671"><ele>39.0</ele><time>2026-03-29T17:34:52.999Z</time></trkpt><trkpt lat="41.49817221217854" lon="12.68249979163585"><ele>39.0</ele><time>2026-03-29T17:34:53.999Z</time></trkpt><trkpt lat="41.49797587679435" lon="12.682280925678258"><ele>39.0</ele><time>2026-03-29T17:34:54.999Z</time></trkpt><trkpt lat="41.49779774364792" lon="12.682056182851715"><ele>39.0</ele><time>2026-03-29T17:34:55.999Z</time></trkpt><trkpt lat="41.497626773248676" lon="12.681832939501302"><ele>38.666666666666664</ele><time>2026-03-29T17:34:56.999Z</time></trkpt><trkpt lat="41.497462368765866" lon="12.681634231559208"><ele>38.33333333333333</ele><time>2026-03-29T17:34:57.999Z</time></trkpt><trkpt lat="41.49729712685529" lon="12.681448614405296"><ele>38.0</ele><time>2026-03-29T17:34:58.999Z</time></trkpt><trkpt lat="41.49712116434664" lon="12.681261951226032"><ele>37.666666666666664</ele><time>2026-03-29T17:34:59.999Z</time></trkpt><trkpt lat="41.49694357916721" lon="12.681083010576948"><ele>37.333333333333336</ele><time>2026-03-29T17:35:00.999Z</time></trkpt><trkpt lat="41.496777293696766" lon="12.680917156740565"><ele>37.0</ele><time>2026-03-29T17:35:01.999Z</time></trkpt><trkpt lat="41.496613797122386" lon="12.680756803356468"><ele>37.0</ele><time>2026-03-29T17:35:02.999Z</time></trkpt><trkpt lat="41.496450096481695" lon="12.680597291488347"><ele>37.0</ele><time>2026-03-29T17:35:03.999Z</time></trkpt><trkpt lat="41.49627736112483" lon="12.680429996438823"><ele>37.0</ele><time>2026-03-29T17:35:04.999Z</time></trkpt><trkpt lat="41.49610027888288" lon="12.68025843119751"><ele>36.0</ele><time>2026-03-29T17:35:05.999Z</time></trkpt><trkpt lat="41.49591785246138" lon="12.680082395713542"><ele>35.0</ele><time>2026-03-29T17:35:06.999Z</time></trkpt><trkpt lat="41.49573205496145" lon="12.679902049777372"><ele>35.0</ele><time>2026-03-29T17:35:07.999Z</time></trkpt><trkpt lat="41.495550530062495" lon="12.679720809045117"><ele>35.0</ele><time>2026-03-29T17:35:08.999Z</time></trkpt><trkpt lat="41.495372947884086" lon="12.679532208703336"><ele>34.5</ele><time>2026-03-29T17:35:09.999Z</time></trkpt><trkpt lat="41.495200036314365" lon="12.679327961386809"><ele>34.0</ele><time>2026-03-29T17:35:10.999Z</time></trkpt><trkpt lat="41.49503204221157" lon="12.679112165804138"><ele>34.0</ele><time>2026-03-29T17:35:11.999Z</time></trkpt><trkpt lat="41.494869188196276" lon="12.678886036717454"><ele>34.0</ele><time>2026-03-29T17:35:12.999Z</time></trkpt><trkpt lat="41.49471228858197" lon="12.678654036119283"><ele>19.0</ele><time>2026-03-29T17:35:13.999Z</time></trkpt><trkpt lat="41.48617137319844" lon="12.668195082703203"><ele>19.0</ele><time>2026-03-29T17:36:15Z</time></trkpt><trkpt lat="41.48595047118133" lon="12.668208128507757"><ele>19.0</ele><time>2026-03-29T17:36:16Z</time></trkpt><trkpt lat="41.485723112876364" lon="12.668261404109455"><ele>19.0</ele><time>2026-03-29T17:36:17Z</time></trkpt><trkpt lat="41.485484482936684" lon="12.668353010327145"><ele>19.0</ele><time>2026-03-29T17:36:17.999Z</time></trkpt><trkpt lat="41.48522994129574" lon="12.66845334025878"><ele>20.0</ele><time>2026-03-29T17:36:18.999Z</time></trkpt><trkpt lat="41.48497100232507" lon="12.668552871331208"><ele>21.0</ele><time>2026-03-29T17:36:19.999Z</time></trkpt><trkpt lat="41.48471487395759" lon="12.66864249570075"><ele>20.0</ele><time>2026-03-29T17:36:20.999Z</time></trkpt><trkpt lat="41.48445218231397" lon="12.668735207005108"><ele>19.0</ele><time>2026-03-29T17:36:21.999Z</time></trkpt><trkpt lat="41.484190775956" lon="12.668825655797232"><ele>19.0</ele><time>2026-03-29T17:36:22.999Z</time></trkpt><trkpt lat="41.48393308630877" lon="12.668917259204445"><ele>19.0</ele><time>2026-03-29T17:36:23.999Z</time></trkpt><trkpt lat="41.483671307318836" lon="12.669007673200177"><ele>19.0</ele><time>2026-03-29T17:36:24.999Z</time></trkpt><trkpt lat="41.48340234565155" lon="12.6690946780474"><ele>19.0</ele><time>2026-03-29T17:36:25.999Z</time></trkpt><trkpt lat="41.483142802785835" lon="12.66918533674259"><ele>20.5</ele><time>2026-03-29T17:36:26.999Z</time></trkpt><trkpt lat="41.48288837818685" lon="12.669273404909589"><ele>22.0</ele><time>2026-03-29T17:36:27.999Z</time></trkpt><trkpt lat="41.482644930760394" lon="12.669360410358562"><ele>22.0</ele><time>2026-03-29T17:36:28.999Z</time></trkpt><trkpt lat="41.482420797768974" lon="12.669441125223143"><ele>22.0</ele><time>2026-03-29T17:36:29.999Z</time></trkpt><trkpt lat="41.482218062790025" lon="12.669512940922662"><ele>22.0</ele><time>2026-03-29T17:36:30.999Z</time></trkpt><trkpt lat="41.48202440443717" lon="12.669575785558992"><ele>22.0</ele><time>2026-03-29T17:36:31.999Z</time></trkpt><trkpt lat="41.48184180162783" lon="12.66964228698891"><ele>22.0</ele><time>2026-03-29T17:36:32.999Z</time></trkpt><trkpt lat="41.48166867729077" lon="12.669699948788361"><ele>22.0</ele><time>2026-03-29T17:36:33.999Z</time></trkpt><trkpt lat="41.48149881223312" lon="12.669760285047209"><ele>22.0</ele><time>2026-03-29T17:36:34.999Z</time></trkpt><trkpt lat="41.48134201695815" lon="12.669804642234231"><ele>22.0</ele><time>2026-03-29T17:36:35.999Z</time></trkpt><trkpt lat="41.48118381762343" lon="12.66982096581183"><ele>22.0</ele><time>2026-03-29T17:36:36.999Z</time></trkpt><trkpt lat="41.481037288483854" lon="12.66980858447637"><ele>22.25</ele><time>2026-03-29T17:36:37.999Z</time></trkpt><trkpt lat="41.480903179827216" lon="12.66978445267394"><ele>22.5</ele><time>2026-03-29T17:36:38.999Z</time></trkpt><trkpt lat="41.48077324708592" lon="12.669763584833614"><ele>22.75</ele><time>2026-03-29T17:36:39.999Z</time></trkpt><trkpt lat="41.480635882049995" lon="12.669736279115037"><ele>23.0</ele><time>2026-03-29T17:36:40.999Z</time></trkpt><trkpt lat="41.48049330985504" lon="12.669708688541931"><ele>22.5</ele><time>2026-03-29T17:36:41.999Z</time></trkpt><trkpt lat="41.48036819492309" lon="12.66968278009104"><ele>22.0</ele><time>2026-03-29T17:36:42.999Z</time></trkpt><trkpt lat="41.48023986028909" lon="12.669659197172027"><ele>21.5</ele><time>2026-03-29T17:36:43.999Z</time></trkpt><trkpt lat="41.480089658498315" lon="12.669633251530612"><ele>21.0</ele><time>2026-03-29T17:36:44.999Z</time></trkpt><trkpt lat="41.47990224754024" lon="12.66957282945768"><ele>21.0</ele><time>2026-03-29T17:36:45.999Z</time></trkpt><trkpt lat="41.47970098615493" lon="12.6695407649139"><ele>21.0</ele><time>2026-03-29T17:36:46.999Z</time></trkpt><trkpt lat="41.47949893169461" lon="12.66945854564418"><ele>21.0</ele><time>2026-03-29T17:36:47.999Z</time></trkpt><trkpt lat="41.4792992643506" lon="12.66937494657059"><ele>21.666666666666668</ele><time>2026-03-29T17:36:48.999Z</time></trkpt><trkpt lat="41.47909821211822" lon="12.669293770532141"><ele>22.333333333333336</ele><time>2026-03-29T17:36:49.999Z</time></trkpt><trkpt lat="41.47889145760372" lon="12.669206422348795"><ele>23.0</ele><time>2026-03-29T17:36:50.999Z</time></trkpt><trkpt lat="41.478677288929894" lon="12.669120465804907"><ele>23.0</ele><time>2026-03-29T17:36:51.999Z</time></trkpt><trkpt lat="41.47846265123084" lon="12.669024373759356"><ele>23.0</ele><time>2026-03-29T17:36:52.999Z</time></trkpt><trkpt lat="41.478247790214695" lon="12.668927445012397"><ele>23.0</ele><time>2026-03-29T17:36:53.999Z</time></trkpt><trkpt lat="41.47802547665883" lon="12.66880668285052"><ele>23.0</ele><time>2026-03-29T17:36:54.999Z</time></trkpt><trkpt lat="41.477792918727836" lon="12.66866824482876"><ele>23.0</ele><time>2026-03-29T17:36:55.999Z</time></trkpt><trkpt lat="41.477561017662694" lon="12.668516790010422"><ele>23.0</ele><time>2026-03-29T17:36:56.999Z</time></trkpt><trkpt lat="41.47735182404659" lon="12.668380992056127"><ele>23.0</ele><time>2026-03-29T17:36:57.999Z</time></trkpt><trkpt lat="41.47715482820073" lon="12.66824427490921"><ele>23.0</ele><time>2026-03-29T17:36:58.999Z</time></trkpt><trkpt lat="41.476959090770585" lon="12.668103934086302"><ele>23.0</ele><time>2026-03-29T17:36:59.998Z</time></trkpt><trkpt lat="41.47675323117081" lon="12.667968835576197"><ele>23.0</ele><time>2026-03-29T17:37:00.998Z</time></trkpt><trkpt lat="41.47653379170792" lon="12.66784388970668"><ele>23.0</ele><time>2026-03-29T17:37:01.998Z</time></trkpt><trkpt lat="41.4763013421967" lon="12.667734771326373"><ele>21.5</ele><time>2026-03-29T17:37:02.998Z</time></trkpt><trkpt lat="41.47607167157952" lon="12.667639831545447"><ele>20.0</ele><time>2026-03-29T17:37:03.998Z</time></trkpt><trkpt lat="41.47585773500533" lon="12.667561195505517"><ele>20.0</ele><time>2026-03-29T17:37:04.998Z</time></trkpt><trkpt lat="41.47567182383144" lon="12.667497348080353"><ele>20.0</ele><time>2026-03-29T17:37:05.998Z</time></trkpt><trkpt lat="41.47549171308569" lon="12.667426544854106"><ele>20.0</ele><time>2026-03-29T17:37:06.998Z</time></trkpt><trkpt lat="41.475326291468306" lon="12.667361599125389"><ele>19.333333333333336</ele><time>2026-03-29T17:37:07.998Z</time></trkpt><trkpt lat="41.47517537105408" lon="12.667302540888063"><ele>18.666666666666668</ele><time>2026-03-29T17:37:08.998Z</time></trkpt><trkpt lat="41.47502553311926" lon="12.667241077346103"><ele>18.0</ele><time>2026-03-29T17:37:09.998Z</time></trkpt><trkpt lat="41.4748665753364" lon="12.667168277676918"><ele>18.0</ele><time>2026-03-29T17:37:10.998Z</time></trkpt><trkpt lat="41.47470076917679" lon="12.667080889239097"><ele>18.0</ele><time>2026-03-29T17:37:11.998Z</time></trkpt><trkpt lat="41.47453291893777" lon="12.666971793935582"><ele>18.0</ele><time>2026-03-29T17:37:12.998Z</time></trkpt><trkpt lat="41.47438907996999" lon="12.666866841587307"><ele>14.0</ele><time>2026-03-29T17:37:13.998Z</time></trkpt><trkpt lat="41.46686144231251" lon="12.662285691137827"><ele>14.0</ele><time>2026-03-29T17:38:15Z</time></trkpt><trkpt lat="41.46677576107271" lon="12.662139323776678"><ele>14.0</ele><time>2026-03-29T17:38:16Z</time></trkpt><trkpt lat="41.46668339829553" lon="12.662038173345628"><ele>14.0</ele><time>2026-03-29T17:38:17Z</time></trkpt><trkpt lat="41.46658717269981" lon="12.661951550258971"><ele>14.0</ele><time>2026-03-29T17:38:18Z</time></trkpt><trkpt lat="41.466483223833485" lon="12.661907825698655"><ele>14.666666666666668</ele><time>2026-03-29T17:38:19Z</time></trkpt><trkpt lat="41.46636178559144" lon="12.66190496447692"><ele>15.333333333333332</ele><time>2026-03-29T17:38:20Z</time></trkpt><trkpt lat="41.466217076649045" lon="12.661938752992478"><ele>16.0</ele><time>2026-03-29T17:38:21Z</time></trkpt><trkpt lat="41.4660296526387" lon="12.661969551641993"><ele>14.666666666666666</ele><time>2026-03-29T17:38:22Z</time></trkpt><trkpt lat="41.46584649977084" lon="12.661976474985037"><ele>13.333333333333332</ele><time>2026-03-29T17:38:23Z</time></trkpt><trkpt lat="41.46568773780545" lon="12.661983279804534"><ele>12.0</ele><time>2026-03-29T17:38:24Z</time></trkpt><trkpt lat="41.46555347758084" lon="12.662000045195459"><ele>11.75</ele><time>2026-03-29T17:38:25Z</time></trkpt><trkpt lat="41.46543019557333" lon="12.662017725722027"><ele>11.5</ele><time>2026-03-29T17:38:26Z</time></trkpt><trkpt lat="41.46527952892347" lon="12.662028246463784"><ele>11.25</ele><time>2026-03-29T17:38:27Z</time></trkpt><trkpt lat="41.46511472925587" lon="12.662042871326266"><ele>11.0</ele><time>2026-03-29T17:38:28Z</time></trkpt><trkpt lat="41.464987004438086" lon="12.662045796054757"><ele>11.0</ele><time>2026-03-29T17:38:29Z</time></trkpt><trkpt lat="41.464884051837224" lon="12.662027501550046"><ele>11.0</ele><time>2026-03-29T17:38:30Z</time></trkpt><trkpt lat="41.464756361348535" lon="12.66200976767047"><ele>11.0</ele><time>2026-03-29T17:38:31Z</time></trkpt><trkpt lat="41.464593096837014" lon="12.661971763416506"><ele>11.0</ele><time>2026-03-29T17:38:32Z</time></trkpt><trkpt lat="41.46446191812946" lon="12.661911560183645"><ele>11.8</ele><time>2026-03-29T17:38:33Z</time></trkpt><trkpt lat="41.46435687843602" lon="12.661857816142094"><ele>12.600000000000001</ele><time>2026-03-29T17:38:34Z</time></trkpt><trkpt lat="41.46428575664559" lon="12.661818750203727"><ele>13.4</ele><time>2026-03-29T17:38:35Z</time></trkpt><trkpt lat="41.4641736549003" lon="12.661807511082001"><ele>14.2</ele><time>2026-03-29T17:38:36Z</time></trkpt><trkpt lat="41.46405244766801" lon="12.661744926940143"><ele>15.0</ele><time>2026-03-29T17:38:37Z</time></trkpt><trkpt lat="41.463900294278446" lon="12.661630362722727"><ele>13.75</ele><time>2026-03-29T17:38:38Z</time></trkpt><trkpt lat="41.46375045723464" lon="12.66156958304649"><ele>12.5</ele><time>2026-03-29T17:38:39Z</time></trkpt><trkpt lat="41.46362206342047" lon="12.661520844376403"><ele>11.25</ele><time>2026-03-29T17:38:40Z</time></trkpt><trkpt lat="41.46351075552519" lon="12.661481884741203"><ele>10.0</ele><time>2026-03-29T17:38:41Z</time></trkpt><trkpt lat="41.46340956694494" lon="12.66145189505726"><ele>10.0</ele><time>2026-03-29T17:38:42Z</time></trkpt><trkpt lat="41.463322171494106" lon="12.661317675151734"><ele>10.0</ele><time>2026-03-29T17:38:44Z</time></trkpt><trkpt lat="41.46324744485138" lon="12.661267287199507"><ele>10.0</ele><time>2026-03-29T17:38:45Z</time></trkpt><trkpt lat="41.46315446734103" lon="12.66128644354678"><ele>10.0</ele><time>2026-03-29T17:38:46Z</time></trkpt><trkpt lat="41.46304448618353" lon="12.66132410969655"><ele>10.0</ele><time>2026-03-29T17:38:47Z</time></trkpt><trkpt lat="41.46292068300265" lon="12.661308346909468"><ele>10.6</ele><time>2026-03-29T17:38:48Z</time></trkpt><trkpt lat="41.46282044188234" lon="12.66128416845011"><ele>11.2</ele><time>2026-03-29T17:38:49Z</time></trkpt><trkpt lat="41.46274413953139" lon="12.661263813475461"><ele>11.8</ele><time>2026-03-29T17:38:50Z</time></trkpt><trkpt lat="41.46266448097734" lon="12.661241479663452"><ele>12.4</ele><time>2026-03-29T17:38:51Z</time></trkpt><trkpt lat="41.46255167047369" lon="12.661178995572719"><ele>13.0</ele><time>2026-03-29T17:38:52Z</time></trkpt><trkpt lat="41.46242789670125" lon="12.661120156424083"><ele>13.5</ele><time>2026-03-29T17:38:53Z</time></trkpt><trkpt lat="41.462295270627145" lon="12.661052230230977"><ele>14.0</ele><time>2026-03-29T17:38:54Z</time></trkpt><trkpt lat="41.4621669723052" lon="12.660950544073593"><ele>14.5</ele><time>2026-03-29T17:38:55Z</time></trkpt><trkpt lat="41.462068291961266" lon="12.660873718929261"><ele>15.0</ele><time>2026-03-29T17:38:56Z</time></trkpt><trkpt lat="41.46197333104132" lon="12.660821573677204"><ele>15.5</ele><time>2026-03-29T17:38:57Z</time></trkpt><trkpt lat="41.46186179549134" lon="12.66078665805198"><ele>16.0</ele><time>2026-03-29T17:38:58Z</time></trkpt><trkpt lat="41.461735671694626" lon="12.660793170999947"><ele>16.5</ele><time>2026-03-29T17:38:59Z</time></trkpt><trkpt lat="41.461598916055934" lon="12.660783482607735"><ele>17.0</ele><time>2026-03-29T17:39:00Z</time></trkpt><trkpt lat="41.46145937739677" lon="12.660776312100706"><ele>17.0</ele><time>2026-03-29T17:39:01Z</time></trkpt><trkpt lat="41.46132603275385" lon="12.660741555103133"><ele>17.0</ele><time>2026-03-29T17:39:02Z</time></trkpt><trkpt lat="41.461203006430146" lon="12.660685509631586"><ele>17.0</ele><time>2026-03-29T17:39:03Z</time></trkpt><trkpt lat="41.461064702061485" lon="12.66062779937033"><ele>17.0</ele><time>2026-03-29T17:39:04Z</time></trkpt><trkpt lat="41.4609568056548" lon="12.66059017364567"><ele>16.666666666666668</ele><time>2026-03-29T17:39:04.999Z</time></trkpt><trkpt lat="41.460876104744" lon="12.660559899308428"><ele>16.333333333333332</ele><time>2026-03-29T17:39:05.999Z</time></trkpt><trkpt lat="41.460792821135" lon="12.66053888458012"><ele>16.0</ele><time>2026-03-29T17:39:07.999Z</time></trkpt><trkpt lat="41.45746268964335" lon="12.65953855652747"><ele>15.999999999999998</ele><time>2026-03-29T17:40:15Z</time></trkpt><trkpt lat="41.457402078862145" lon="12.659491035523564"><ele>16.0</ele><time>2026-03-29T17:40:18Z</time></trkpt><trkpt lat="41.45733101276336" lon="12.659475995950581"><ele>16.0</ele><time>2026-03-29T17:40:21Z</time></trkpt><trkpt lat="41.45726006930248" lon="12.659439684373114"><ele>16.0</ele><time>2026-03-29T17:40:25Z</time></trkpt><trkpt lat="41.4572198914368" lon="12.65958011704943"><ele>15.999999999999998</ele><time>2026-03-29T17:40:31Z</time></trkpt><trkpt lat="41.45724348147366" lon="12.659723769434466"><ele>16.0</ele><time>2026-03-29T17:40:32Z</time></trkpt><trkpt lat="41.45724803972776" lon="12.659891047181763"><ele>16.0</ele><time>2026-03-29T17:40:33Z</time></trkpt><trkpt lat="41.45726669900399" lon="12.660003031331271"><ele>16.0</ele><time>2026-03-29T17:40:34Z</time></trkpt><trkpt lat="41.45727117205209" lon="12.660088920192091"><ele>16.0</ele><time>2026-03-29T17:40:35Z</time></trkpt><trkpt lat="41.45728136027568" lon="12.660241363117951"><ele>16.0</ele><time>2026-03-29T17:40:37Z</time></trkpt><trkpt lat="41.45726937921215" lon="12.660388739711909"><ele>16.0</ele><time>2026-03-29T17:40:39Z</time></trkpt><trkpt lat="41.45728003854015" lon="12.660539986845517"><ele>15.75</ele><time>2026-03-29T17:40:41Z</time></trkpt><trkpt lat="41.457294406936725" lon="12.66069196904527"><ele>15.5</ele><time>2026-03-29T17:40:43Z</time></trkpt><trkpt lat="41.45728604043207" lon="12.66080871971971"><ele>15.25</ele><time>2026-03-29T17:40:45Z</time></trkpt><trkpt lat="41.457091337633116" lon="12.660888162924415"><ele>15.0</ele><time>2026-03-29T17:40:46Z</time></trkpt><trkpt lat="41.457059961558265" lon="12.660979421543946"><ele>14.25</ele><time>2026-03-29T17:40:47Z</time></trkpt><trkpt lat="41.457032336349044" lon="12.661096532960434"><ele>13.5</ele><time>2026-03-29T17:40:48Z</time></trkpt><trkpt lat="41.45708939103391" lon="12.661227040278137"><ele>12.75</ele><time>2026-03-29T17:40:49Z</time></trkpt><trkpt lat="41.45714024441212" lon="12.661363523815346"><ele>12.0</ele><time>2026-03-29T17:40:50Z</time></trkpt><trkpt lat="41.45714187444847" lon="12.661540671912409"><ele>12.0</ele><time>2026-03-29T17:40:51Z</time></trkpt><trkpt lat="41.457174725363664" lon="12.661702095444692"><ele>12.0</ele><time>2026-03-29T17:40:52Z</time></trkpt><trkpt lat="41.457180364806526" lon="12.661863446773332"><ele>12.0</ele><time>2026-03-29T17:40:53Z</time></trkpt><trkpt lat="41.45719795386121" lon="12.66204067184216"><ele>12.0</ele><time>2026-03-29T17:40:54Z</time></trkpt><trkpt lat="41.45720017304545" lon="12.66223002238974"><ele>12.0</ele><time>2026-03-29T17:40:55Z</time></trkpt><trkpt lat="41.45717824834388" lon="12.662430683316986"><ele>12.0</ele><time>2026-03-29T17:40:56Z</time></trkpt><trkpt lat="41.45717739728819" lon="12.662637587465511"><ele>12.0</ele><time>2026-03-29T17:40:57Z</time></trkpt><trkpt lat="41.457148739884644" lon="12.662891198528273"><ele>11.0</ele><time>2026-03-29T17:40:58Z</time></trkpt><trkpt lat="41.45714829629638" lon="12.66314619461987"><ele>10.0</ele><time>2026-03-29T17:40:59Z</time></trkpt><trkpt lat="41.45710834977966" lon="12.663353705841521"><ele>9.0</ele><time>2026-03-29T17:41:00Z</time></trkpt><trkpt lat="41.45706670702658" lon="12.663537657114631"><ele>6.75</ele><time>2026-03-29T17:41:01Z</time></trkpt><trkpt lat="41.45703602502871" lon="12.663710232279024"><ele>4.5</ele><time>2026-03-29T17:41:02Z</time></trkpt><trkpt lat="41.45702933725182" lon="12.66386610052181"><ele>2.25</ele><time>2026-03-29T17:41:03Z</time></trkpt><trkpt lat="41.45705418507206" lon="12.664015841223666"><ele>0.0</ele><time>2026-03-29T17:41:04Z</time></trkpt><trkpt lat="41.457114878427234" lon="12.664170027961505"><ele>1.0</ele><time>2026-03-29T17:41:05Z</time></trkpt><trkpt lat="41.457200324986005" lon="12.66430528325876"><ele>2.0</ele><time>2026-03-29T17:41:05.999Z</time></trkpt><trkpt lat="41.45725133922099" lon="12.664429853068082"><ele>3.0</ele><time>2026-03-29T17:41:06.999Z</time></trkpt><trkpt lat="41.45729077145608" lon="12.664538649788206"><ele>4.0</ele><time>2026-03-29T17:41:07.999Z</time></trkpt><trkpt lat="41.45731890255732" lon="12.664653826631474"><ele>5.0</ele><time>2026-03-29T17:41:08.999Z</time></trkpt><trkpt lat="41.4573405426222" lon="12.664801901834387"><ele>5.0</ele><time>2026-03-29T17:41:09.999Z</time></trkpt><trkpt lat="41.457361675679" lon="12.664993858372572"><ele>5.0</ele><time>2026-03-29T17:41:10.999Z</time></trkpt><trkpt lat="41.45739333315918" lon="12.665243007491116"><ele>5.0</ele><time>2026-03-29T17:41:11.999Z</time></trkpt><trkpt lat="41.4574278047945" lon="12.665511657647476"><ele>5.5</ele><time>2026-03-29T17:41:12.999Z</time></trkpt><trkpt lat="41.45745541329121" lon="12.665726820765707"><ele>6.0</ele><time>2026-03-29T17:41:13.999Z</time></trkpt><trkpt lat="41.45898230863602" lon="12.665573802527252"><ele>6.0</ele><time>2026-03-29T17:42:15Z</time></trkpt><trkpt lat="41.458975172732586" lon="12.665474694921928"><ele>6.0</ele><time>2026-03-29T17:42:16Z</time></trkpt><trkpt lat="41.45897001017644" lon="12.66528921624074"><ele>6.0</ele><time>2026-03-29T17:42:18Z</time></trkpt><trkpt lat="41.45896377231089" lon="12.665179160891524"><ele>6.0</ele><time>2026-03-29T17:42:19Z</time></trkpt><trkpt lat="41.458947320564064" lon="12.665049467205383"><ele>6.0</ele><time>2026-03-29T17:42:20Z</time></trkpt><trkpt lat="41.45894192674592" lon="12.664878848621246"><ele>6.0</ele><time>2026-03-29T17:42:21Z</time></trkpt><trkpt lat="41.4589459110563" lon="12.664715598647101"><ele>6.0</ele><time>2026-03-29T17:42:22Z</time></trkpt><trkpt lat="41.45893989116302" lon="12.664584177824247"><ele>6.0</ele><time>2026-03-29T17:42:23Z</time></trkpt><trkpt lat="41.45893028959138" lon="12.66448946919846"><ele>6.0</ele><time>2026-03-29T17:42:24Z</time></trkpt><trkpt lat="41.458920918281756" lon="12.664363849482328"><ele>6.0</ele><time>2026-03-29T17:42:25Z</time></trkpt><trkpt lat="41.45891902969874" lon="12.664210564132683"><ele>6.25</ele><time>2026-03-29T17:42:26Z</time></trkpt><trkpt lat="41.45892669573387" lon="12.664006797727666"><ele>6.5</ele><time>2026-03-29T17:42:27Z</time></trkpt><trkpt lat="41.4589540803582" lon="12.663814733204507"><ele>6.75</ele><time>2026-03-29T17:42:28Z</time></trkpt><trkpt lat="41.45897334599632" lon="12.663619718264407"><ele>7.0</ele><time>2026-03-29T17:42:29Z</time></trkpt><trkpt lat="41.458980510899764" lon="12.663427312057083"><ele>7.0</ele><time>2026-03-29T17:42:30Z</time></trkpt><trkpt lat="41.45898913715598" lon="12.663239320485156"><ele>7.0</ele><time>2026-03-29T17:42:31Z</time></trkpt><trkpt lat="41.45899200501131" lon="12.663073819970712"><ele>7.0</ele><time>2026-03-29T17:42:32Z</time></trkpt><trkpt lat="41.45899497142445" lon="12.6628918045348"><ele>7.0</ele><time>2026-03-29T17:42:33Z</time></trkpt><trkpt lat="41.45900556945619" lon="12.662705672942199"><ele>7.5</ele><time>2026-03-29T17:42:34Z</time></trkpt><trkpt lat="41.459021844269564" lon="12.662529976756193"><ele>8.0</ele><time>2026-03-29T17:42:35Z</time></trkpt><trkpt lat="41.45902107557925" lon="12.66236360124602"><ele>8.5</ele><time>2026-03-29T17:42:36Z</time></trkpt><trkpt lat="41.45901250665003" lon="12.662213461963281"><ele>9.0</ele><time>2026-03-29T17:42:37Z</time></trkpt><trkpt lat="41.45901322585874" lon="12.662065328733755"><ele>9.4</ele><time>2026-03-29T17:42:38Z</time></trkpt><trkpt lat="41.4590010944027" lon="12.661929615889388"><ele>9.8</ele><time>2026-03-29T17:42:39Z</time></trkpt><trkpt lat="41.45896154384375" lon="12.66179791940439"><ele>10.200000000000001</ele><time>2026-03-29T17:42:40Z</time></trkpt><trkpt lat="41.45892544496197" lon="12.661640432378997"><ele>10.600000000000001</ele><time>2026-03-29T17:42:41Z</time></trkpt><trkpt lat="41.458916450849465" lon="12.661505990761516"><ele>11.0</ele><time>2026-03-29T17:42:42Z</time></trkpt><trkpt lat="41.45891136073535" lon="12.661376963683809"><ele>11.0</ele><time>2026-03-29T17:42:43Z</time></trkpt><trkpt lat="41.45892363354367" lon="12.661222548491848"><ele>11.0</ele><time>2026-03-29T17:42:44Z</time></trkpt><trkpt lat="41.45891252015556" lon="12.661045184279915"><ele>11.0</ele><time>2026-03-29T17:42:45Z</time></trkpt><trkpt lat="41.45892006990024" lon="12.660851871667486"><ele>11.0</ele><time>2026-03-29T17:42:46Z</time></trkpt><trkpt lat="41.45891024783332" lon="12.660680649788663"><ele>12.25</ele><time>2026-03-29T17:42:47Z</time></trkpt><trkpt lat="41.45890803080905" lon="12.660526213485435"><ele>13.5</ele><time>2026-03-29T17:42:48Z</time></trkpt><trkpt lat="41.45890533485803" lon="12.660386023576997"><ele>14.75</ele><time>2026-03-29T17:42:49Z</time></trkpt><trkpt lat="41.45890696318099" lon="12.66023956898735"><ele>16.0</ele><time>2026-03-29T17:42:50Z</time></trkpt><trkpt lat="41.45890612925412" lon="12.660075229742473"><ele>16.0</ele><time>2026-03-29T17:42:51Z</time></trkpt><trkpt lat="41.458908820128045" lon="12.659942355611623"><ele>16.0</ele><time>2026-03-29T17:42:52Z</time></trkpt><trkpt lat="41.4589075946257" lon="12.659828108823302"><ele>16.0</ele><time>2026-03-29T17:42:53Z</time></trkpt><trkpt lat="41.45891270149542" lon="12.659698068445545"><ele>16.0</ele><time>2026-03-29T17:42:54Z</time></trkpt><trkpt lat="41.45892042417446" lon="12.659503566778174"><ele>16.0</ele><time>2026-03-29T17:42:55Z</time></trkpt><trkpt lat="41.45892014403275" lon="12.659279731714852"><ele>15.5</ele><time>2026-03-29T17:42:56Z</time></trkpt><trkpt lat="41.458915215988206" lon="12.659057163888097"><ele>15.0</ele><time>2026-03-29T17:42:57Z</time></trkpt><trkpt lat="41.458899754214485" lon="12.658879107218656"><ele>14.5</ele><time>2026-03-29T17:42:58Z</time></trkpt><trkpt lat="41.458888683524634" lon="12.658725130935984"><ele>14.0</ele><time>2026-03-29T17:42:59Z</time></trkpt><trkpt lat="41.458882530430714" lon="12.658598790812238"><ele>14.0</ele><time>2026-03-29T17:43:00Z</time></trkpt><trkpt lat="41.45887786734145" lon="12.6585025852861"><ele>13.999999999999998</ele><time>2026-03-29T17:43:01Z</time></trkpt><trkpt lat="41.458877258264785" lon="12.658396252631666"><ele>13.999999999999998</ele><time>2026-03-29T17:43:03Z</time></trkpt><trkpt lat="41.458885132155245" lon="12.658239412305429"><ele>14.0</ele><time>2026-03-29T17:43:09Z</time></trkpt><trkpt lat="41.45888116510759" lon="12.658097467753569"><ele>14.0</ele><time>2026-03-29T17:43:10Z</time></trkpt><trkpt lat="41.4588814929296" lon="12.65791543595487"><ele>14.75</ele><time>2026-03-29T17:43:10.999Z</time></trkpt><trkpt lat="41.4588826972506" lon="12.657726657384279"><ele>15.5</ele><time>2026-03-29T17:43:11.999Z</time></trkpt><trkpt lat="41.45888273888118" lon="12.657531287941403"><ele>16.25</ele><time>2026-03-29T17:43:12.999Z</time></trkpt><trkpt lat="41.458877571613144" lon="12.65733407591847"><ele>17.0</ele><time>2026-03-29T17:43:13.999Z</time></trkpt><trkpt lat="41.45536950096904" lon="12.64899312023854"><ele>16.0</ele><time>2026-03-29T17:44:15Z</time></trkpt><trkpt lat="41.45531787528648" lon="12.648860439223503"><ele>15.0</ele><time>2026-03-29T17:44:16Z</time></trkpt><trkpt lat="41.45524982210279" lon="12.648688789142726"><ele>14.0</ele><time>2026-03-29T17:44:17Z</time></trkpt><trkpt lat="41.45517389350903" lon="12.648474163791686"><ele>13.0</ele><time>2026-03-29T17:44:18Z</time></trkpt><trkpt lat="41.45509931603804" lon="12.648233254009204"><ele>13.0</ele><time>2026-03-29T17:44:19Z</time></trkpt><trkpt lat="41.4550318180514" lon="12.647985782720594"><ele>13.0</ele><time>2026-03-29T17:44:20Z</time></trkpt><trkpt lat="41.45496507159798" lon="12.647729323647164"><ele>13.0</ele><time>2026-03-29T17:44:21Z</time></trkpt><trkpt lat="41.454898643043045" lon="12.647464409590551"><ele>13.0</ele><time>2026-03-29T17:44:22Z</time></trkpt><trkpt lat="41.45482904813757" lon="12.647196933067336"><ele>13.0</ele><time>2026-03-29T17:44:23Z</time></trkpt><trkpt lat="41.454756429363336" lon="12.646928181387638"><ele>13.0</ele><time>2026-03-29T17:44:24Z</time></trkpt><trkpt lat="41.45468282000126" lon="12.646658763901156"><ele>12.333333333333332</ele><time>2026-03-29T17:44:25Z</time></trkpt><trkpt lat="41.454609318094164" lon="12.646384283796793"><ele>11.666666666666666</ele><time>2026-03-29T17:44:26Z</time></trkpt><trkpt lat="41.45453544182571" lon="12.646107160866066"><ele>11.0</ele><time>2026-03-29T17:44:27Z</time></trkpt><trkpt lat="41.45445840162961" lon="12.645828792672956"><ele>11.0</ele><time>2026-03-29T17:44:28Z</time></trkpt><trkpt lat="41.45438124497185" lon="12.645548482324493"><ele>11.0</ele><time>2026-03-29T17:44:29Z</time></trkpt><trkpt lat="41.454307548636045" lon="12.645266160283688"><ele>11.0</ele><time>2026-03-29T17:44:30Z</time></trkpt><trkpt lat="41.45423416251327" lon="12.644986247650708"><ele>12.333333333333332</ele><time>2026-03-29T17:44:31Z</time></trkpt><trkpt lat="41.4541634049286" lon="12.64472583096495"><ele>13.666666666666666</ele><time>2026-03-29T17:44:32Z</time></trkpt><trkpt lat="41.454098815464455" lon="12.644486437516646"><ele>15.0</ele><time>2026-03-29T17:44:33Z</time></trkpt><trkpt lat="41.45403650463118" lon="12.644261662466945"><ele>16.0</ele><time>2026-03-29T17:44:34Z</time></trkpt><trkpt lat="41.453981441086064" lon="12.644052975330816"><ele>17.0</ele><time>2026-03-29T17:44:35Z</time></trkpt><trkpt lat="41.45393187856566" lon="12.643861318046334"><ele>18.0</ele><time>2026-03-29T17:44:36Z</time></trkpt><trkpt lat="41.45388790943158" lon="12.6436797735576"><ele>19.0</ele><time>2026-03-29T17:44:37Z</time></trkpt><trkpt lat="41.453851207886196" lon="12.643495925615111"><ele>20.0</ele><time>2026-03-29T17:44:38Z</time></trkpt><trkpt lat="41.453815660443276" lon="12.643297922844098"><ele>21.0</ele><time>2026-03-29T17:44:39Z</time></trkpt><trkpt lat="41.45378949007221" lon="12.643101518732639"><ele>22.0</ele><time>2026-03-29T17:44:40Z</time></trkpt><trkpt lat="41.45377242815381" lon="12.642920776837332"><ele>19.200000000000003</ele><time>2026-03-29T17:44:41Z</time></trkpt><trkpt lat="41.45376358214828" lon="12.642750660123339"><ele>16.400000000000002</ele><time>2026-03-29T17:44:42Z</time></trkpt><trkpt lat="41.45375638751709" lon="12.642606713516821"><ele>13.600000000000001</ele><time>2026-03-29T17:44:43Z</time></trkpt><trkpt lat="41.453753701887464" lon="12.642479612263745"><ele>10.8</ele><time>2026-03-29T17:44:44Z</time></trkpt><trkpt lat="41.45374600764274" lon="12.642339799311513"><ele>8.0</ele><time>2026-03-29T17:44:45Z</time></trkpt><trkpt lat="41.453731309199775" lon="12.642174385125923"><ele>8.0</ele><time>2026-03-29T17:44:46Z</time></trkpt><trkpt lat="41.453720886019006" lon="12.642009362410423"><ele>8.0</ele><time>2026-03-29T17:44:47Z</time></trkpt><trkpt lat="41.453720444077405" lon="12.641869061453127"><ele>8.0</ele><time>2026-03-29T17:44:48Z</time></trkpt><trkpt lat="41.45371703145022" lon="12.641741718440713"><ele>8.0</ele><time>2026-03-29T17:44:49Z</time></trkpt><trkpt lat="41.45371137069009" lon="12.641587631670406"><ele>8.0</ele><time>2026-03-29T17:44:50Z</time></trkpt><trkpt lat="41.45370447855096" lon="12.641369070510123"><ele>8.666666666666666</ele><time>2026-03-29T17:44:51Z</time></trkpt><trkpt lat="41.453702471176214" lon="12.641123068225074"><ele>9.333333333333334</ele><time>2026-03-29T17:44:52Z</time></trkpt><trkpt lat="41.453709739866305" lon="12.640903507846168"><ele>10.0</ele><time>2026-03-29T17:44:53Z</time></trkpt><trkpt lat="41.453714511103264" lon="12.640729162443613"><ele>10.0</ele><time>2026-03-29T17:44:54Z</time></trkpt><trkpt lat="41.45371363476616" lon="12.640591183323524"><ele>10.0</ele><time>2026-03-29T17:44:55Z</time></trkpt><trkpt lat="41.45371078933677" lon="12.640485786685673"><ele>10.0</ele><time>2026-03-29T17:44:56Z</time></trkpt><trkpt lat="41.45370676277018" lon="12.64039233526019"><ele>10.0</ele><time>2026-03-29T17:44:57Z</time></trkpt><trkpt lat="41.453703066891535" lon="12.640247581711675"><ele>10.0</ele><time>2026-03-29T17:44:59Z</time></trkpt><trkpt lat="41.45370658052234" lon="12.6401628064448"><ele>10.0</ele><time>2026-03-29T17:45:00Z</time></trkpt><trkpt lat="41.453708279520704" lon="12.640076614754884"><ele>10.6</ele><time>2026-03-29T17:45:01Z</time></trkpt><trkpt lat="41.45370351077857" lon="12.639952166917737"><ele>11.2</ele><time>2026-03-29T17:45:03Z</time></trkpt><trkpt lat="41.45368431289919" lon="12.6398113333596"><ele>11.8</ele><time>2026-03-29T17:45:05Z</time></trkpt><trkpt lat="41.45363644005812" lon="12.639731213031844"><ele>12.4</ele><time>2026-03-29T17:45:07Z</time></trkpt><trkpt lat="41.45354784291607" lon="12.639642014645782"><ele>13.0</ele><time>2026-03-29T17:45:08Z</time></trkpt><trkpt lat="41.45349089109079" lon="12.63949698973056"><ele>14.0</ele><time>2026-03-29T17:45:09Z</time></trkpt><trkpt lat="41.45344708399362" lon="12.639352930511418"><ele>15.0</ele><time>2026-03-29T17:45:10Z</time></trkpt><trkpt lat="41.453410747117246" lon="12.63923808147486"><ele>16.0</ele><time>2026-03-29T17:45:11Z</time></trkpt><trkpt lat="41.4533821097453" lon="12.639146399532414"><ele>17.0</ele><time>2026-03-29T17:45:12Z</time></trkpt><trkpt lat="41.453350410379194" lon="12.63905565713725"><ele>18.0</ele><time>2026-03-29T17:45:13Z</time></trkpt><trkpt lat="41.45330930874363" lon="12.638939894019332"><ele>14.0</ele><time>2026-03-29T17:45:14Z</time></trkpt><trkpt lat="41.4489377115659" lon="12.630931534789829"><ele>14.0</ele><time>2026-03-29T17:46:14.999Z</time></trkpt><trkpt lat="41.44886062500076" lon="12.63085794630805"><ele>13.999999999999998</ele><time>2026-03-29T17:46:17Z</time></trkpt><trkpt lat="41.448809372838376" lon="12.630803399841817"><ele>13.999999999999998</ele><time>2026-03-29T17:46:18Z</time></trkpt><trkpt lat="41.44871380433808" lon="12.630713743033352"><ele>14.0</ele><time>2026-03-29T17:46:20Z</time></trkpt><trkpt lat="41.448643070011016" lon="12.630645335884653"><ele>14.0</ele><time>2026-03-29T17:46:21Z</time></trkpt><trkpt lat="41.44855532978212" lon="12.630561241526081"><ele>13.2</ele><time>2026-03-29T17:46:22Z</time></trkpt><trkpt lat="41.44846811197111" lon="12.630471653627142"><ele>12.399999999999999</ele><time>2026-03-29T17:46:23Z</time></trkpt><trkpt lat="41.44840390983018" lon="12.630399466757407"><ele>11.6</ele><time>2026-03-29T17:46:24Z</time></trkpt><trkpt lat="41.44834438002643" lon="12.630339401083233"><ele>10.8</ele><time>2026-03-29T17:46:25Z</time></trkpt><trkpt lat="41.4482845347182" lon="12.630286530388455"><ele>10.0</ele><time>2026-03-29T17:46:26Z</time></trkpt><trkpt lat="41.44819722952508" lon="12.630194695969932"><ele>10.0</ele><time>2026-03-29T17:46:28Z</time></trkpt><trkpt lat="41.44813553565111" lon="12.630126048486689"><ele>10.0</ele><time>2026-03-29T17:46:30Z</time></trkpt><trkpt lat="41.44808897806217" lon="12.630069249134392"><ele>10.0</ele><time>2026-03-29T17:46:32Z</time></trkpt><trkpt lat="41.44807688942765" lon="12.629981428298974"><ele>10.0</ele><time>2026-03-29T17:46:34Z</time></trkpt><trkpt lat="41.44814859242298" lon="12.629887767261456"><ele>10.0</ele><time>2026-03-29T17:46:36Z</time></trkpt><trkpt lat="41.44821395010951" lon="12.629823823233734"><ele>10.0</ele><time>2026-03-29T17:46:37Z</time></trkpt><trkpt lat="41.44827953730138" lon="12.629765392820108"><ele>10.0</ele><time>2026-03-29T17:46:38Z</time></trkpt><trkpt lat="41.4483667861179" lon="12.629675183393053"><ele>10.0</ele><time>2026-03-29T17:46:40Z</time></trkpt><trkpt lat="41.448446491181734" lon="12.62959019017088"><ele>10.0</ele><time>2026-03-29T17:46:42Z</time></trkpt><trkpt lat="41.44850037362078" lon="12.629537114781673"><ele>10.0</ele><time>2026-03-29T17:46:43Z</time></trkpt><trkpt lat="41.4485800544787" lon="12.629467679496262"><ele>10.0</ele><time>2026-03-29T17:46:45Z</time></trkpt><trkpt lat="41.448639169694374" lon="12.62938296165868"><ele>9.6</ele><time>2026-03-29T17:46:48Z</time></trkpt><trkpt lat="41.44867698758302" lon="12.629258902795181"><ele>9.2</ele><time>2026-03-29T17:46:53Z</time></trkpt><trkpt lat="41.44866214970134" lon="12.629171968624828"><ele>8.8</ele><time>2026-03-29T17:46:54Z</time></trkpt><trkpt lat="41.448628527993314" lon="12.629064366357586"><ele>8.4</ele><time>2026-03-29T17:46:55Z</time></trkpt><trkpt lat="41.44859598047271" lon="12.628947515928335"><ele>8.0</ele><time>2026-03-29T17:46:56Z</time></trkpt><trkpt lat="41.44855983244829" lon="12.628814780323648"><ele>8.0</ele><time>2026-03-29T17:46:57Z</time></trkpt><trkpt lat="41.44851619239687" lon="12.628690545171432"><ele>8.0</ele><time>2026-03-29T17:46:58Z</time></trkpt><trkpt lat="41.44848087252599" lon="12.628581585641681"><ele>8.0</ele><time>2026-03-29T17:46:59Z</time></trkpt><trkpt lat="41.448444960014676" lon="12.628473731156603"><ele>8.0</ele><time>2026-03-29T17:47:00Z</time></trkpt><trkpt lat="41.448382442809596" lon="12.628364898794976"><ele>8.0</ele><time>2026-03-29T17:47:01Z</time></trkpt><trkpt lat="41.44829845586518" lon="12.628253139630175"><ele>7.75</ele><time>2026-03-29T17:47:02Z</time></trkpt><trkpt lat="41.4482097716419" lon="12.628146674137717"><ele>7.5</ele><time>2026-03-29T17:47:03Z</time></trkpt><trkpt lat="41.44811394588742" lon="12.62805194431902"><ele>7.25</ele><time>2026-03-29T17:47:04Z</time></trkpt><trkpt lat="41.44801906668311" lon="12.627962599266612"><ele>7.0</ele><time>2026-03-29T17:47:05Z</time></trkpt><trkpt lat="41.44792599477012" lon="12.627876523459092"><ele>8.2</ele><time>2026-03-29T17:47:06Z</time></trkpt><trkpt lat="41.44783276792135" lon="12.627797997776083"><ele>9.399999999999999</ele><time>2026-03-29T17:47:07Z</time></trkpt><trkpt lat="41.44773958884158" lon="12.627717307658004"><ele>10.600000000000001</ele><time>2026-03-29T17:47:08Z</time></trkpt><trkpt lat="41.44765239612913" lon="12.627649003899233"><ele>11.8</ele><time>2026-03-29T17:47:09Z</time></trkpt><trkpt lat="41.44758763103049" lon="12.627603488735897"><ele>13.0</ele><time>2026-03-29T17:47:10Z</time></trkpt><trkpt lat="41.447483428208685" lon="12.62753014517048"><ele>13.0</ele><time>2026-03-29T17:47:12Z</time></trkpt><trkpt lat="41.4474029291506" lon="12.627485232281435"><ele>13.0</ele><time>2026-03-29T17:47:13Z</time></trkpt><trkpt lat="41.44733365928257" lon="12.627446279597217"><ele>13.0</ele><time>2026-03-29T17:47:14Z</time></trkpt><trkpt lat="41.44592121533995" lon="12.622706768468467"><ele>12.8</ele><time>2026-03-29T17:48:14.999Z</time></trkpt><trkpt lat="41.44599207264066" lon="12.62272404887533"><ele>12.600000000000001</ele><time>2026-03-29T17:48:26Z</time></trkpt><trkpt lat="41.446051811548834" lon="12.622563387814493"><ele>12.399999999999999</ele><time>2026-03-29T17:48:28Z</time></trkpt><trkpt lat="41.44607294868547" lon="12.622444828501274"><ele>12.2</ele><time>2026-03-29T17:48:29Z</time></trkpt><trkpt lat="41.44614258264" lon="12.622280785649707"><ele>12.0</ele><time>2026-03-29T17:48:31Z</time></trkpt><trkpt lat="41.44619241440692" lon="12.622185957809371"><ele>12.0</ele><time>2026-03-29T17:48:32Z</time></trkpt><trkpt lat="41.446237568289355" lon="12.622094273436701"><ele>12.0</ele><time>2026-03-29T17:48:33Z</time></trkpt><trkpt lat="41.44628187785631" lon="12.622007503236734"><ele>12.0</ele><time>2026-03-29T17:48:34Z</time></trkpt><trkpt lat="41.44633602639156" lon="12.621928278941738"><ele>12.0</ele><time>2026-03-29T17:48:35Z</time></trkpt><trkpt lat="41.446400366083815" lon="12.621823618759814"><ele>12.0</ele><time>2026-03-29T17:48:36Z</time></trkpt><trkpt lat="41.446496474415" lon="12.621697218029135"><ele>11.666666666666666</ele><time>2026-03-29T17:48:37Z</time></trkpt><trkpt lat="41.44661664445691" lon="12.621534343515862"><ele>11.333333333333332</ele><time>2026-03-29T17:48:38Z</time></trkpt><trkpt lat="41.44675293305406" lon="12.621334782448336"><ele>11.0</ele><time>2026-03-29T17:48:39Z</time></trkpt><trkpt lat="41.44688876323298" lon="12.6211205112991"><ele>11.0</ele><time>2026-03-29T17:48:40Z</time></trkpt><trkpt lat="41.44701528488044" lon="12.62093929542245"><ele>11.0</ele><time>2026-03-29T17:48:41Z</time></trkpt><trkpt lat="41.44713120035063" lon="12.620776712295"><ele>11.0</ele><time>2026-03-29T17:48:42Z</time></trkpt><trkpt lat="41.44725318012857" lon="12.620630884159157"><ele>12.0</ele><time>2026-03-29T17:48:43Z</time></trkpt><trkpt lat="41.447357526681756" lon="12.620487762579117"><ele>13.0</ele><time>2026-03-29T17:48:44Z</time></trkpt><trkpt lat="41.44745247898422" lon="12.620327263921824"><ele>14.0</ele><time>2026-03-29T17:48:45Z</time></trkpt><trkpt lat="41.44756657421758" lon="12.620185883897308"><ele>14.0</ele><time>2026-03-29T17:48:46Z</time></trkpt><trkpt lat="41.44768628963293" lon="12.620067767402782"><ele>14.0</ele><time>2026-03-29T17:48:47Z</time></trkpt><trkpt lat="41.44782323032445" lon="12.619980343710084"><ele>14.0</ele><time>2026-03-29T17:48:48Z</time></trkpt><trkpt lat="41.44796017498836" lon="12.619887249196193"><ele>14.333333333333334</ele><time>2026-03-29T17:48:49Z</time></trkpt><trkpt lat="41.44810728399166" lon="12.619797535497993"><ele>14.666666666666668</ele><time>2026-03-29T17:48:50Z</time></trkpt><trkpt lat="41.44825290342537" lon="12.619721762587993"><ele>15.0</ele><time>2026-03-29T17:48:51Z</time></trkpt><trkpt lat="41.4484010445002" lon="12.619666065807339"><ele>15.0</ele><time>2026-03-29T17:48:52Z</time></trkpt><trkpt lat="41.44855369808174" lon="12.619639435504503"><ele>15.0</ele><time>2026-03-29T17:48:53Z</time></trkpt><trkpt lat="41.4487116093276" lon="12.619622475104217"><ele>15.0</ele><time>2026-03-29T17:48:54Z</time></trkpt><trkpt lat="41.44885796275302" lon="12.61962543017218"><ele>15.0</ele><time>2026-03-29T17:48:55Z</time></trkpt><trkpt lat="41.448995656433816" lon="12.619667579189908"><ele>15.0</ele><time>2026-03-29T17:48:56Z</time></trkpt><trkpt lat="41.44913044467956" lon="12.619705131339495"><ele>15.0</ele><time>2026-03-29T17:48:57Z</time></trkpt><trkpt lat="41.449255195795025" lon="12.619739906207739"><ele>15.0</ele><time>2026-03-29T17:48:58Z</time></trkpt><trkpt lat="41.4493679527672" lon="12.619779216199317"><ele>15.0</ele><time>2026-03-29T17:48:59Z</time></trkpt><trkpt lat="41.44946629877088" lon="12.619871660609236"><ele>15.0</ele><time>2026-03-29T17:49:00Z</time></trkpt><trkpt lat="41.449507881234986" lon="12.620081714944856"><ele>15.0</ele><time>2026-03-29T17:49:01Z</time></trkpt><trkpt lat="41.44955854650801" lon="12.620272074478514"><ele>15.0</ele><time>2026-03-29T17:49:02Z</time></trkpt><trkpt lat="41.44961013029195" lon="12.62043629346528"><ele>15.6</ele><time>2026-03-29T17:49:03Z</time></trkpt><trkpt lat="41.4496482688277" lon="12.620573207687267"><ele>16.2</ele><time>2026-03-29T17:49:04Z</time></trkpt><trkpt lat="41.44967084060995" lon="12.620693533157178"><ele>16.8</ele><time>2026-03-29T17:49:05Z</time></trkpt><trkpt lat="41.44969395794625" lon="12.620780276523478"><ele>17.4</ele><time>2026-03-29T17:49:06Z</time></trkpt><trkpt lat="41.44980327954406" lon="12.620799694406394"><ele>18.0</ele><time>2026-03-29T17:49:07Z</time></trkpt><trkpt lat="41.449880736419175" lon="12.620793809536814"><ele>18.0</ele><time>2026-03-29T17:49:08Z</time></trkpt><trkpt lat="41.44995747863497" lon="12.620737826349282"><ele>18.0</ele><time>2026-03-29T17:49:09Z</time></trkpt><trkpt lat="41.4500347287055" lon="12.620645817920929"><ele>18.0</ele><time>2026-03-29T17:49:10Z</time></trkpt><trkpt lat="41.45012085329687" lon="12.620543063281529"><ele>18.0</ele><time>2026-03-29T17:49:11Z</time></trkpt><trkpt lat="41.45023232681992" lon="12.620423515905417"><ele>18.0</ele><time>2026-03-29T17:49:12Z</time></trkpt><trkpt lat="41.450328832845685" lon="12.62032206051512"><ele>18.0</ele><time>2026-03-29T17:49:13Z</time></trkpt><trkpt lat="41.45040622784083" lon="12.620237575587291"><ele>18.0</ele><time>2026-03-29T17:49:14Z</time></trkpt><trkpt lat="41.457204006925366" lon="12.615620381190306"><ele>17.666666666666668</ele><time>2026-03-29T17:50:14.999Z</time></trkpt><trkpt lat="41.4573618571695" lon="12.615491458295446"><ele>17.333333333333336</ele><time>2026-03-29T17:50:15.999Z</time></trkpt><trkpt lat="41.457519532956276" lon="12.615358114613574"><ele>17.0</ele><time>2026-03-29T17:50:16.999Z</time></trkpt><trkpt lat="41.457688678640395" lon="12.615220043400113"><ele>16.666666666666668</ele><time>2026-03-29T17:50:17.999Z</time></trkpt><trkpt lat="41.45784601207734" lon="12.615096196809938"><ele>16.333333333333332</ele><time>2026-03-29T17:50:18.999Z</time></trkpt><trkpt lat="41.45799218586158" lon="12.614985421428612"><ele>16.0</ele><time>2026-03-29T17:50:19.999Z</time></trkpt><trkpt lat="41.45813071099179" lon="12.614884044310234"><ele>16.0</ele><time>2026-03-29T17:50:20.999Z</time></trkpt><trkpt lat="41.45825952179462" lon="12.61478295567328"><ele>16.0</ele><time>2026-03-29T17:50:21.999Z</time></trkpt><trkpt lat="41.45837732645381" lon="12.614689821886998"><ele>16.0</ele><time>2026-03-29T17:50:22.999Z</time></trkpt><trkpt lat="41.4584838504374" lon="12.614604088645743"><ele>16.0</ele><time>2026-03-29T17:50:23.999Z</time></trkpt><trkpt lat="41.45857560670265" lon="12.614530547407488"><ele>16.0</ele><time>2026-03-29T17:50:24.999Z</time></trkpt><trkpt lat="41.45867409525036" lon="12.614432669664586"><ele>16.0</ele><time>2026-03-29T17:50:25.998Z</time></trkpt><trkpt lat="41.458799248868516" lon="12.614337203765896"><ele>16.0</ele><time>2026-03-29T17:50:27Z</time></trkpt><trkpt lat="41.458942355611526" lon="12.614231364370745"><ele>16.0</ele><time>2026-03-29T17:50:28Z</time></trkpt><trkpt lat="41.45909268799571" lon="12.614125542014989"><ele>16.0</ele><time>2026-03-29T17:50:29Z</time></trkpt><trkpt lat="41.45926376263058" lon="12.61399404251082"><ele>16.0</ele><time>2026-03-29T17:50:30Z</time></trkpt><trkpt lat="41.45944032409303" lon="12.613847052212916"><ele>16.0</ele><time>2026-03-29T17:50:31Z</time></trkpt><trkpt lat="41.4596092636403" lon="12.613708599912677"><ele>14.333333333333332</ele><time>2026-03-29T17:50:32Z</time></trkpt><trkpt lat="41.45977658783668" lon="12.613578473933241"><ele>12.666666666666666</ele><time>2026-03-29T17:50:33Z</time></trkpt><trkpt lat="41.459948888941156" lon="12.613446450943366"><ele>11.0</ele><time>2026-03-29T17:50:34Z</time></trkpt><trkpt lat="41.46012364768371" lon="12.613307794514448"><ele>11.0</ele><time>2026-03-29T17:50:35Z</time></trkpt><trkpt lat="41.46028559934294" lon="12.613178907250976"><ele>11.0</ele><time>2026-03-29T17:50:36Z</time></trkpt><trkpt lat="41.460435037174314" lon="12.613059428202307"><ele>11.0</ele><time>2026-03-29T17:50:37Z</time></trkpt><trkpt lat="41.46058459112612" lon="12.612940602474488"><ele>10.666666666666666</ele><time>2026-03-29T17:50:38Z</time></trkpt><trkpt lat="41.460737637110064" lon="12.61281747191581"><ele>10.333333333333334</ele><time>2026-03-29T17:50:39Z</time></trkpt><trkpt lat="41.46087976083208" lon="12.612702974707346"><ele>10.0</ele><time>2026-03-29T17:50:40Z</time></trkpt><trkpt lat="41.461012240046834" lon="12.612596388023908"><ele>10.0</ele><time>2026-03-29T17:50:41Z</time></trkpt><trkpt lat="41.46113273739095" lon="12.612497133364949"><ele>10.0</ele><time>2026-03-29T17:50:42Z</time></trkpt><trkpt lat="41.46125622650786" lon="12.612396588170208"><ele>10.0</ele><time>2026-03-29T17:50:43Z</time></trkpt><trkpt lat="41.461380872835164" lon="12.612296285512388"><ele>10.0</ele><time>2026-03-29T17:50:44Z</time></trkpt><trkpt lat="41.461521879755864" lon="12.612181309682832"><ele>9.0</ele><time>2026-03-29T17:50:45Z</time></trkpt><trkpt lat="41.461695775464136" lon="12.61204331763"><ele>8.0</ele><time>2026-03-29T17:50:46Z</time></trkpt><trkpt lat="41.461884124846726" lon="12.611901929849454"><ele>7.0</ele><time>2026-03-29T17:50:47Z</time></trkpt><trkpt lat="41.462056189671266" lon="12.611765252568535"><ele>9.666666666666668</ele><time>2026-03-29T17:50:48Z</time></trkpt><trkpt lat="41.462206517111476" lon="12.611642284411298"><ele>12.333333333333334</ele><time>2026-03-29T17:50:49Z</time></trkpt><trkpt lat="41.46233521054736" lon="12.611539172715124"><ele>15.0</ele><time>2026-03-29T17:50:50Z</time></trkpt><trkpt lat="41.46246115336846" lon="12.611442133516782"><ele>15.0</ele><time>2026-03-29T17:50:51Z</time></trkpt><trkpt lat="41.46260848339265" lon="12.611352485590567"><ele>15.0</ele><time>2026-03-29T17:50:52Z</time></trkpt><trkpt lat="41.462777521731084" lon="12.611290816027319"><ele>15.0</ele><time>2026-03-29T17:50:53Z</time></trkpt><trkpt lat="41.46296517156445" lon="12.611255204372066"><ele>16.0</ele><time>2026-03-29T17:50:54Z</time></trkpt><trkpt lat="41.463163889521354" lon="12.611238350585667"><ele>17.0</ele><time>2026-03-29T17:50:55Z</time></trkpt><trkpt lat="41.463366842762206" lon="12.61122449064577"><ele>18.0</ele><time>2026-03-29T17:50:56Z</time></trkpt><trkpt lat="41.46356475728485" lon="12.611205267197787"><ele>18.0</ele><time>2026-03-29T17:50:57Z</time></trkpt><trkpt lat="41.463765211069635" lon="12.611184667861622"><ele>18.0</ele><time>2026-03-29T17:50:58Z</time></trkpt><trkpt lat="41.46395797421128" lon="12.611167314614715"><ele>18.0</ele><time>2026-03-29T17:50:59Z</time></trkpt><trkpt lat="41.46413185318793" lon="12.611151619048263"><ele>18.0</ele><time>2026-03-29T17:51:00Z</time></trkpt><trkpt lat="41.46428520843228" lon="12.61113981526284"><ele>18.0</ele><time>2026-03-29T17:51:01Z</time></trkpt><trkpt lat="41.464424703166564" lon="12.611129099207304"><ele>18.0</ele><time>2026-03-29T17:51:02Z</time></trkpt><trkpt lat="41.46455575796392" lon="12.611115606141215"><ele>18.0</ele><time>2026-03-29T17:51:03Z</time></trkpt><trkpt lat="41.46467627230713" lon="12.611102949438521"><ele>18.0</ele><time>2026-03-29T17:51:04Z</time></trkpt><trkpt lat="41.464797543089134" lon="12.611089372612577"><ele>18.0</ele><time>2026-03-29T17:51:05Z</time></trkpt><trkpt lat="41.46492663292646" lon="12.611069078105684"><ele>18.0</ele><time>2026-03-29T17:51:06Z</time></trkpt><trkpt lat="41.46506343995725" lon="12.611045999877264"><ele>18.0</ele><time>2026-03-29T17:51:07Z</time></trkpt><trkpt lat="41.465205467943164" lon="12.611037467086735"><ele>18.0</ele><time>2026-03-29T17:51:08Z</time></trkpt><trkpt lat="41.46532953552235" lon="12.611031041125429"><ele>18.0</ele><time>2026-03-29T17:51:09Z</time></trkpt><trkpt lat="41.46543773301256" lon="12.611054617653537"><ele>18.0</ele><time>2026-03-29T17:51:10Z</time></trkpt><trkpt lat="41.465504009449035" lon="12.611049417909477"><ele>18.0</ele><time>2026-03-29T17:51:11Z</time></trkpt><trkpt lat="41.47081299606115" lon="12.606826678314892"><ele>17.0</ele><time>2026-03-29T17:52:14.999Z</time></trkpt><trkpt lat="41.47097341888684" lon="12.60669315388091"><ele>16.0</ele><time>2026-03-29T17:52:15.999Z</time></trkpt><trkpt lat="41.471168607733354" lon="12.606536669883678"><ele>15.0</ele><time>2026-03-29T17:52:16.999Z</time></trkpt><trkpt lat="41.471390948914426" lon="12.606364009285457"><ele>15.0</ele><time>2026-03-29T17:52:17.999Z</time></trkpt><trkpt lat="41.471619097394935" lon="12.606178860012164"><ele>15.0</ele><time>2026-03-29T17:52:18.999Z</time></trkpt><trkpt lat="41.47185611140647" lon="12.605979915853423"><ele>18.0</ele><time>2026-03-29T17:52:19.999Z</time></trkpt><trkpt lat="41.472108820421894" lon="12.60576996379271"><ele>21.0</ele><time>2026-03-29T17:52:20.999Z</time></trkpt><trkpt lat="41.47235408719766" lon="12.605567505839257"><ele>21.0</ele><time>2026-03-29T17:52:21.999Z</time></trkpt><trkpt lat="41.47257809994894" lon="12.605386607785237"><ele>21.0</ele><time>2026-03-29T17:52:22.999Z</time></trkpt><trkpt lat="41.47279891833049" lon="12.60520863019796"><ele>20.0</ele><time>2026-03-29T17:52:23.999Z</time></trkpt><trkpt lat="41.47301517298547" lon="12.605030402320635"><ele>19.0</ele><time>2026-03-29T17:52:24.999Z</time></trkpt><trkpt lat="41.473236987904606" lon="12.604847750785538"><ele>19.0</ele><time>2026-03-29T17:52:25.999Z</time></trkpt><trkpt lat="41.4734663175152" lon="12.604663214490422"><ele>19.0</ele><time>2026-03-29T17:52:26.999Z</time></trkpt><trkpt lat="41.473703008235034" lon="12.604473935272209"><ele>19.0</ele><time>2026-03-29T17:52:27.999Z</time></trkpt><trkpt lat="41.47392256884262" lon="12.604294107017177"><ele>19.0</ele><time>2026-03-29T17:52:28.999Z</time></trkpt><trkpt lat="41.47413035078858" lon="12.604125074764488"><ele>19.0</ele><time>2026-03-29T17:52:29.999Z</time></trkpt><trkpt lat="41.47433300247241" lon="12.60395900712306"><ele>19.0</ele><time>2026-03-29T17:52:30.998Z</time></trkpt><trkpt lat="41.474525372872584" lon="12.603798825906308"><ele>19.333333333333332</ele><time>2026-03-29T17:52:31.998Z</time></trkpt><trkpt lat="41.47470997195026" lon="12.603648696495656"><ele>19.666666666666668</ele><time>2026-03-29T17:52:33Z</time></trkpt><trkpt lat="41.47489496649291" lon="12.603498183861074"><ele>20.0</ele><time>2026-03-29T17:52:34Z</time></trkpt><trkpt lat="41.4750711850202" lon="12.603356630809735"><ele>20.0</ele><time>2026-03-29T17:52:35Z</time></trkpt><trkpt lat="41.475236742539494" lon="12.603223290151723"><ele>20.0</ele><time>2026-03-29T17:52:36Z</time></trkpt><trkpt lat="41.4753971891914" lon="12.603092268518841"><ele>20.0</ele><time>2026-03-29T17:52:37Z</time></trkpt><trkpt lat="41.475545861890375" lon="12.602970409850165"><ele>20.0</ele><time>2026-03-29T17:52:38Z</time></trkpt><trkpt lat="41.475692787978325" lon="12.602863245756696"><ele>20.0</ele><time>2026-03-29T17:52:39Z</time></trkpt><trkpt lat="41.47585520016728" lon="12.602783002653329"><ele>20.0</ele><time>2026-03-29T17:52:40Z</time></trkpt><trkpt lat="41.47603251263647" lon="12.602743383393676"><ele>20.0</ele><time>2026-03-29T17:52:41Z</time></trkpt><trkpt lat="41.476215401174144" lon="12.602742161508802"><ele>20.0</ele><time>2026-03-29T17:52:42Z</time></trkpt><trkpt lat="41.476396887577465" lon="12.602779315760712"><ele>20.0</ele><time>2026-03-29T17:52:43Z</time></trkpt><trkpt lat="41.4765747949866" lon="12.602853999108024"><ele>21.75</ele><time>2026-03-29T17:52:44Z</time></trkpt><trkpt lat="41.476740138683496" lon="12.602922782650802"><ele>23.5</ele><time>2026-03-29T17:52:45Z</time></trkpt><trkpt lat="41.47688023228351" lon="12.602977868076534"><ele>25.25</ele><time>2026-03-29T17:52:46Z</time></trkpt><trkpt lat="41.47699836040305" lon="12.6030187272722"><ele>27.0</ele><time>2026-03-29T17:52:47Z</time></trkpt><trkpt lat="41.47711184196548" lon="12.603060031875218"><ele>27.0</ele><time>2026-03-29T17:52:48Z</time></trkpt><trkpt lat="41.47721912644664" lon="12.603098854669028"><ele>27.000000000000004</ele><time>2026-03-29T17:52:49Z</time></trkpt><trkpt lat="41.477322797100946" lon="12.603136397870763"><ele>27.000000000000004</ele><time>2026-03-29T17:52:50Z</time></trkpt><trkpt lat="41.477416692556105" lon="12.603167384145005"><ele>27.0</ele><time>2026-03-29T17:52:51Z</time></trkpt><trkpt lat="41.47750727049348" lon="12.603199383611868"><ele>27.0</ele><time>2026-03-29T17:52:52Z</time></trkpt><trkpt lat="41.47758938421929" lon="12.603231565359518"><ele>27.0</ele><time>2026-03-29T17:52:53Z</time></trkpt><trkpt lat="41.47767110209945" lon="12.603279639413627"><ele>27.000000000000004</ele><time>2026-03-29T17:52:54Z</time></trkpt><trkpt lat="41.47773705426912" lon="12.603378929359144"><ele>27.000000000000004</ele><time>2026-03-29T17:52:55Z</time></trkpt><trkpt lat="41.477745234717695" lon="12.60353936915282"><ele>27.0</ele><time>2026-03-29T17:52:56Z</time></trkpt><trkpt lat="41.47778559023755" lon="12.603691461538435"><ele>27.0</ele><time>2026-03-29T17:52:57Z</time></trkpt><trkpt lat="41.477817096603054" lon="12.60381020314346"><ele>27.400000000000002</ele><time>2026-03-29T17:52:58Z</time></trkpt><trkpt lat="41.477855733623805" lon="12.60395768524515"><ele>27.800000000000004</ele><time>2026-03-29T17:53:00Z</time></trkpt><trkpt lat="41.47785723575091" lon="12.604061329945242"><ele>28.2</ele><time>2026-03-29T17:53:02Z</time></trkpt><trkpt lat="41.47769009530399" lon="12.604047679564353"><ele>28.6</ele><time>2026-03-29T17:53:03Z</time></trkpt><trkpt lat="41.477620065393864" lon="12.604066146074793"><ele>29.0</ele><time>2026-03-29T17:53:04Z</time></trkpt><trkpt lat="41.47764275925736" lon="12.604435928975436"><ele>29.799999999999997</ele><time>2026-03-29T17:53:06Z</time></trkpt><trkpt lat="41.47769066171528" lon="12.604565286496586"><ele>30.599999999999998</ele><time>2026-03-29T17:53:07Z</time></trkpt><trkpt lat="41.477730224095986" lon="12.604694067265012"><ele>31.4</ele><time>2026-03-29T17:53:08Z</time></trkpt><trkpt lat="41.47776552898076" lon="12.604823730098907"><ele>32.199999999999996</ele><time>2026-03-29T17:53:09Z</time></trkpt><trkpt lat="41.47778158248363" lon="12.60493902951844"><ele>33.0</ele><time>2026-03-29T17:53:10Z</time></trkpt><trkpt lat="41.47791528397053" lon="12.604949930171772"><ele>33.5</ele><time>2026-03-29T17:53:11Z</time></trkpt><trkpt lat="41.47801079809372" lon="12.604911357393755"><ele>34.0</ele><time>2026-03-29T17:53:12Z</time></trkpt><trkpt lat="41.478083058801275" lon="12.604907077330434"><ele>34.5</ele><time>2026-03-29T17:53:13Z</time></trkpt><trkpt lat="41.47814344974212" lon="12.604966593088546"><ele>35.0</ele><time>2026-03-29T17:53:14Z</time></trkpt><trkpt lat="41.48117488575424" lon="12.609282248542076"><ele>40.75</ele><time>2026-03-29T17:54:14.999Z</time></trkpt><trkpt lat="41.4811639114787" lon="12.609410288125739"><ele>46.5</ele><time>2026-03-29T17:54:16.999Z</time></trkpt><trkpt lat="41.48137002995232" lon="12.609404622507"><ele>52.25</ele><time>2026-03-29T17:54:17.999Z</time></trkpt><trkpt lat="41.48149913580479" lon="12.609391072431734"><ele>58.0</ele><time>2026-03-29T17:54:18.999Z</time></trkpt><trkpt lat="41.481648964429766" lon="12.609400400136549"><ele>58.0</ele><time>2026-03-29T17:54:19.999Z</time></trkpt><trkpt lat="41.48181022900665" lon="12.609411519673607"><ele>58.0</ele><time>2026-03-29T17:54:20.999Z</time></trkpt><trkpt lat="41.48196162519536" lon="12.609418183855198"><ele>58.0</ele><time>2026-03-29T17:54:21.999Z</time></trkpt><trkpt lat="41.48208856181074" lon="12.609430056209844"><ele>58.0</ele><time>2026-03-29T17:54:22.999Z</time></trkpt><trkpt lat="41.48219624731226" lon="12.609437579695049"><ele>57.99999999999999</ele><time>2026-03-29T17:54:23.999Z</time></trkpt><trkpt lat="41.48228692127845" lon="12.609444571446263"><ele>58.0</ele><time>2026-03-29T17:54:24.999Z</time></trkpt><trkpt lat="41.48235958994992" lon="12.609447771813647"><ele>58.0</ele><time>2026-03-29T17:54:26.999Z</time></trkpt><trkpt lat="41.48241607349211" lon="12.609576038610955"><ele>58.0</ele><time>2026-03-29T17:54:29.999Z</time></trkpt><trkpt lat="41.48243240747456" lon="12.609679363934124"><ele>57.99999999999999</ele><time>2026-03-29T17:54:30.999Z</time></trkpt><trkpt lat="41.482436863067534" lon="12.609789424946177"><ele>58.0</ele><time>2026-03-29T17:54:31.999Z</time></trkpt><trkpt lat="41.48245947485562" lon="12.609894142383322"><ele>57.5</ele><time>2026-03-29T17:54:32.999Z</time></trkpt><trkpt lat="41.48248150521183" lon="12.609996167298707"><ele>57.0</ele><time>2026-03-29T17:54:33.999Z</time></trkpt><trkpt lat="41.48251098651514" lon="12.610128270802985"><ele>56.5</ele><time>2026-03-29T17:54:34.999Z</time></trkpt><trkpt lat="41.48255474326403" lon="12.610322057944467"><ele>56.0</ele><time>2026-03-29T17:54:35.999Z</time></trkpt><trkpt lat="41.482602639337784" lon="12.610534637965793"><ele>56.0</ele><time>2026-03-29T17:54:36.999Z</time></trkpt><trkpt lat="41.482652203454336" lon="12.61075462216574"><ele>56.0</ele><time>2026-03-29T17:54:38Z</time></trkpt><trkpt lat="41.48269928031587" lon="12.610963726749176"><ele>56.0</ele><time>2026-03-29T17:54:39Z</time></trkpt><trkpt lat="41.48274064142658" lon="12.61114767245622"><ele>56.5</ele><time>2026-03-29T17:54:40Z</time></trkpt><trkpt lat="41.482777724971974" lon="12.61131259437266"><ele>57.0</ele><time>2026-03-29T17:54:41Z</time></trkpt><trkpt lat="41.48284132484553" lon="12.611456777115551"><ele>57.5</ele><time>2026-03-29T17:54:42Z</time></trkpt><trkpt lat="41.482874559442195" lon="12.611601750981992"><ele>58.0</ele><time>2026-03-29T17:54:43Z</time></trkpt><trkpt lat="41.48290530382442" lon="12.611733791551913"><ele>57.99999999999999</ele><time>2026-03-29T17:54:44Z</time></trkpt><trkpt lat="41.48293411743968" lon="12.611858480265576"><ele>58.0</ele><time>2026-03-29T17:54:45Z</time></trkpt><trkpt lat="41.48295591744965" lon="12.611970241565846"><ele>58.0</ele><time>2026-03-29T17:54:46Z</time></trkpt><trkpt lat="41.48297795881917" lon="12.612076528552057"><ele>58.0</ele><time>2026-03-29T17:54:47Z</time></trkpt><trkpt lat="41.48299982261275" lon="12.612169671876966"><ele>57.99999999999999</ele><time>2026-03-29T17:54:48Z</time></trkpt><trkpt lat="41.48301818940026" lon="12.612255061677818"><ele>58.0</ele><time>2026-03-29T17:54:49Z</time></trkpt><trkpt lat="41.48303351143813" lon="12.612340834594635"><ele>58.0</ele><time>2026-03-29T17:54:50Z</time></trkpt><trkpt lat="41.483060542951556" lon="12.612462163464786"><ele>58.0</ele><time>2026-03-29T17:54:51Z</time></trkpt><trkpt lat="41.48307823806519" lon="12.612632407655058"><ele>58.0</ele><time>2026-03-29T17:54:52Z</time></trkpt><trkpt lat="41.483121643211405" lon="12.612820541337747"><ele>58.0</ele><time>2026-03-29T17:54:53Z</time></trkpt><trkpt lat="41.48315966196254" lon="12.61298532808734"><ele>57.99999999999999</ele><time>2026-03-29T17:54:54Z</time></trkpt><trkpt lat="41.483190978960224" lon="12.613121067197488"><ele>58.0</ele><time>2026-03-29T17:54:55Z</time></trkpt><trkpt lat="41.48321864820996" lon="12.613242420373812"><ele>58.0</ele><time>2026-03-29T17:54:56Z</time></trkpt><trkpt lat="41.483243055949515" lon="12.613350284262966"><ele>58.0</ele><time>2026-03-29T17:54:57Z</time></trkpt><trkpt lat="41.483265417979425" lon="12.613449107233471"><ele>57.99999999999999</ele><time>2026-03-29T17:54:58Z</time></trkpt><trkpt lat="41.48328689285396" lon="12.613536709655742"><ele>58.0</ele><time>2026-03-29T17:54:59Z</time></trkpt><trkpt lat="41.48332756657721" lon="12.613609025819787"><ele>57.75</ele><time>2026-03-29T17:55:00Z</time></trkpt><trkpt lat="41.48335263908678" lon="12.613728142725412"><ele>57.5</ele><time>2026-03-29T17:55:01Z</time></trkpt><trkpt lat="41.483385370886324" lon="12.613864920641111"><ele>57.25</ele><time>2026-03-29T17:55:02Z</time></trkpt><trkpt lat="41.48342048671687" lon="12.614014707517825"><ele>57.0</ele><time>2026-03-29T17:55:03Z</time></trkpt><trkpt lat="41.483442601882516" lon="12.614197857832341"><ele>57.0</ele><time>2026-03-29T17:55:04Z</time></trkpt><trkpt lat="41.48348663873902" lon="12.614388425170427"><ele>57.0</ele><time>2026-03-29T17:55:05Z</time></trkpt><trkpt lat="41.48353014147293" lon="12.614575684931644"><ele>57.0</ele><time>2026-03-29T17:55:06Z</time></trkpt><trkpt lat="41.48356826371699" lon="12.614739784348735"><ele>57.0</ele><time>2026-03-29T17:55:07Z</time></trkpt><trkpt lat="41.483600179736" lon="12.614877168637594"><ele>56.8</ele><time>2026-03-29T17:55:08Z</time></trkpt><trkpt lat="41.48363271461264" lon="12.615017216737964"><ele>56.6</ele><time>2026-03-29T17:55:09Z</time></trkpt><trkpt lat="41.483665404686" lon="12.61515793310001"><ele>56.39999999999999</ele><time>2026-03-29T17:55:10Z</time></trkpt><trkpt lat="41.48369635108876" lon="12.615291141249685"><ele>56.199999999999996</ele><time>2026-03-29T17:55:11Z</time></trkpt><trkpt lat="41.48372233019746" lon="12.615402701516903"><ele>56.0</ele><time>2026-03-29T17:55:12Z</time></trkpt><trkpt lat="41.483747543071615" lon="12.615511083642625"><ele>57.0</ele><time>2026-03-29T17:55:13Z</time></trkpt><trkpt lat="41.483770690759876" lon="12.61561058847469"><ele>58.0</ele><time>2026-03-29T17:55:14Z</time></trkpt><trkpt lat="41.48837762433783" lon="12.616650384812942"><ele>58.0</ele><time>2026-03-29T17:56:14.999Z</time></trkpt><trkpt lat="41.48834184697467" lon="12.616865791359817"><ele>58.0</ele><time>2026-03-29T17:56:21.999Z</time></trkpt><trkpt lat="41.48833024786089" lon="12.616988906875742"><ele>58.0</ele><time>2026-03-29T17:56:22.999Z</time></trkpt><trkpt lat="41.488321016763614" lon="12.617086888470633"><ele>58.0</ele><time>2026-03-29T17:56:23.999Z</time></trkpt><trkpt lat="41.48830777400475" lon="12.617227450310825"><ele>58.0</ele><time>2026-03-29T17:56:25.999Z</time></trkpt><trkpt lat="41.488293495769014" lon="12.617379003146464"><ele>59.0</ele><time>2026-03-29T17:56:27.999Z</time></trkpt><trkpt lat="41.48828454821902" lon="12.617473974829997"><ele>59.0</ele><time>2026-03-29T17:56:29.999Z</time></trkpt><trkpt lat="41.48828371958714" lon="12.61755971545047"><ele>59.0</ele><time>2026-03-29T17:56:32.999Z</time></trkpt><trkpt lat="41.48846629624186" lon="12.617557482551604"><ele>59.0</ele><time>2026-03-29T17:56:42.998Z</time></trkpt></trkseg></trk></gpx>